<?xml version='1.0' encoding='UTF-8'?><gpx version="1.1" creator="JPX - https://github.com/jenetics/jpx" xmlns="http://www.topografix.com/GPX/1/1"><trk><trkseg><trkpt lat="40.8673517" lon="8.2529033"><ele>19.0</ele><time>2026-04-16T08:07:16.861Z</time></trkpt><trkpt lat="40.8673583" lon="8.2527583"><ele>19.0</ele><time>2026-04-16T08:07:18.861Z</time></trkpt><trkpt lat="40.8673633" lon="8.2525883"><ele>19.0</ele><time>2026-04-16T08:07:20.861Z</time></trkpt><trkpt lat="40.8673783" lon="8.2524917"><ele>19.0</ele><time>2026-04-16T08:07:21.862Z</time></trkpt><trkpt lat="40.8674" lon="8.252395"><ele>19.0</ele><time>2026-04-16T08:07:22.862Z</time></trkpt><trkpt lat="40.867435" lon="8.252285"><ele>18.599999999999998</ele><time>2026-04-16T08:07:23.861Z</time></trkpt><trkpt lat="40.8674767" lon="8.2521667"><ele>18.2</ele><time>2026-04-16T08:07:24.862Z</time></trkpt><trkpt lat="40.86753" lon="8.2520417"><ele>17.799999999999997</ele><time>2026-04-16T08:07:25.861Z</time></trkpt><trkpt lat="40.86759" lon="8.2519217"><ele>17.4</ele><time>2026-04-16T08:07:26.862Z</time></trkpt><trkpt lat="40.8676483" lon="8.2517867"><ele>17.0</ele><time>2026-04-16T08:07:27.861Z</time></trkpt><trkpt lat="40.8677017" lon="8.25165"><ele>16.25</ele><time>2026-04-16T08:07:28.862Z</time></trkpt><trkpt lat="40.8677583" lon="8.2515133"><ele>15.5</ele><time>2026-04-16T08:07:29.862Z</time></trkpt><trkpt lat="40.8678133" lon="8.2513833"><ele>14.75</ele><time>2026-04-16T08:07:30.862Z</time></trkpt><trkpt lat="40.8678683" lon="8.251245"><ele>14.0</ele><time>2026-04-16T08:07:31.862Z</time></trkpt><trkpt lat="40.867925" lon="8.2511033"><ele>13.5</ele><time>2026-04-16T08:07:32.862Z</time></trkpt><trkpt lat="40.8679933" lon="8.2509633"><ele>13.0</ele><time>2026-04-16T08:07:33.862Z</time></trkpt><trkpt lat="40.8680733" lon="8.25083"><ele>12.5</ele><time>2026-04-16T08:07:34.862Z</time></trkpt><trkpt lat="40.8681483" lon="8.250705"><ele>12.0</ele><time>2026-04-16T08:07:35.862Z</time></trkpt><trkpt lat="40.8682183" lon="8.2506067"><ele>11.4</ele><time>2026-04-16T08:07:36.862Z</time></trkpt><trkpt lat="40.86828" lon="8.2505217"><ele>10.799999999999999</ele><time>2026-04-16T08:07:37.862Z</time></trkpt><trkpt lat="40.8683367" lon="8.2504367"><ele>10.2</ele><time>2026-04-16T08:07:38.861Z</time></trkpt><trkpt lat="40.8684017" lon="8.2503517"><ele>9.6</ele><time>2026-04-16T08:07:39.862Z</time></trkpt><trkpt lat="40.8684733" lon="8.250255"><ele>9.0</ele><time>2026-04-16T08:07:40.861Z</time></trkpt><trkpt lat="40.8685433" lon="8.2501517"><ele>9.0</ele><time>2026-04-16T08:07:41.861Z</time></trkpt><trkpt lat="40.8686117" lon="8.250045"><ele>9.0</ele><time>2026-04-16T08:07:42.861Z</time></trkpt><trkpt lat="40.8686867" lon="8.2499417"><ele>9.0</ele><time>2026-04-16T08:07:43.862Z</time></trkpt><trkpt lat="40.8687667" lon="8.2498417"><ele>9.0</ele><time>2026-04-16T08:07:44.861Z</time></trkpt><trkpt lat="40.86884" lon="8.2497383"><ele>9.0</ele><time>2026-04-16T08:07:45.862Z</time></trkpt><trkpt lat="40.8689167" lon="8.2496333"><ele>8.5</ele><time>2026-04-16T08:07:46.862Z</time></trkpt><trkpt lat="40.868995" lon="8.2495233"><ele>8.0</ele><time>2026-04-16T08:07:47.861Z</time></trkpt><trkpt lat="40.8690683" lon="8.2494033"><ele>7.5</ele><time>2026-04-16T08:07:48.861Z</time></trkpt><trkpt lat="40.869135" lon="8.2492817"><ele>7.0</ele><time>2026-04-16T08:07:49.862Z</time></trkpt><trkpt lat="40.8691983" lon="8.2491583"><ele>7.0</ele><time>2026-04-16T08:07:50.861Z</time></trkpt><trkpt lat="40.8692633" lon="8.2490267"><ele>7.0</ele><time>2026-04-16T08:07:51.861Z</time></trkpt><trkpt lat="40.869325" lon="8.2488983"><ele>7.0</ele><time>2026-04-16T08:07:52.861Z</time></trkpt><trkpt lat="40.8693883" lon="8.2487617"><ele>7.0</ele><time>2026-04-16T08:07:53.862Z</time></trkpt><trkpt lat="40.86945" lon="8.2486317"><ele>7.0</ele><time>2026-04-16T08:07:54.861Z</time></trkpt><trkpt lat="40.8695117" lon="8.248505"><ele>7.0</ele><time>2026-04-16T08:07:55.861Z</time></trkpt><trkpt lat="40.869575" lon="8.2483733"><ele>7.0</ele><time>2026-04-16T08:07:56.861Z</time></trkpt><trkpt lat="40.8696417" lon="8.248245"><ele>7.0</ele><time>2026-04-16T08:07:57.862Z</time></trkpt><trkpt lat="40.8697083" lon="8.2481183"><ele>7.0</ele><time>2026-04-16T08:07:58.861Z</time></trkpt><trkpt lat="40.8697683" lon="8.2479933"><ele>7.0</ele><time>2026-04-16T08:07:59.861Z</time></trkpt><trkpt lat="40.86983" lon="8.2478617"><ele>7.0</ele><time>2026-04-16T08:08:00.862Z</time></trkpt><trkpt lat="40.8698883" lon="8.2477333"><ele>7.0</ele><time>2026-04-16T08:08:01.862Z</time></trkpt><trkpt lat="40.869945" lon="8.2476033"><ele>7.0</ele><time>2026-04-16T08:08:02.862Z</time></trkpt><trkpt lat="40.8700017" lon="8.247485"><ele>6.999999999999999</ele><time>2026-04-16T08:08:03.861Z</time></trkpt><trkpt lat="40.8700567" lon="8.247365"><ele>6.999999999999999</ele><time>2026-04-16T08:08:04.861Z</time></trkpt><trkpt lat="40.8701133" lon="8.24725"><ele>7.0</ele><time>2026-04-16T08:08:05.861Z</time></trkpt><trkpt lat="40.8701667" lon="8.2471317"><ele>7.0</ele><time>2026-04-16T08:08:06.862Z</time></trkpt><trkpt lat="40.8702183" lon="8.2470117"><ele>7.0</ele><time>2026-04-16T08:08:07.861Z</time></trkpt><trkpt lat="40.8702667" lon="8.246885"><ele>6.999999999999999</ele><time>2026-04-16T08:08:08.862Z</time></trkpt><trkpt lat="40.8703183" lon="8.2467567"><ele>6.999999999999999</ele><time>2026-04-16T08:08:09.861Z</time></trkpt><trkpt lat="40.870365" lon="8.2466283"><ele>7.0</ele><time>2026-04-16T08:08:10.861Z</time></trkpt><trkpt lat="40.87041" lon="8.2465083"><ele>7.0</ele><time>2026-04-16T08:08:11.861Z</time></trkpt><trkpt lat="40.870455" lon="8.2463883"><ele>7.199999999999999</ele><time>2026-04-16T08:08:12.862Z</time></trkpt><trkpt lat="40.8704933" lon="8.24627"><ele>7.3999999999999995</ele><time>2026-04-16T08:08:13.861Z</time></trkpt><trkpt lat="40.8705233" lon="8.2461383"><ele>7.6000000000000005</ele><time>2026-04-16T08:08:14.862Z</time></trkpt><trkpt lat="40.8705483" lon="8.2460083"><ele>7.800000000000001</ele><time>2026-04-16T08:08:15.861Z</time></trkpt><trkpt lat="40.8705667" lon="8.24588"><ele>8.0</ele><time>2026-04-16T08:08:16.861Z</time></trkpt><trkpt lat="40.8705717" lon="8.2457517"><ele>8.200000000000001</ele><time>2026-04-16T08:08:17.861Z</time></trkpt><trkpt lat="40.870575" lon="8.2456217"><ele>8.4</ele><time>2026-04-16T08:08:18.862Z</time></trkpt><trkpt lat="40.8705817" lon="8.2454983"><ele>8.600000000000001</ele><time>2026-04-16T08:08:19.862Z</time></trkpt><trkpt lat="40.87059" lon="8.2453733"><ele>8.8</ele><time>2026-04-16T08:08:20.861Z</time></trkpt><trkpt lat="40.8705983" lon="8.245245"><ele>9.0</ele><time>2026-04-16T08:08:21.861Z</time></trkpt><trkpt lat="40.8706117" lon="8.2451267"><ele>9.0</ele><time>2026-04-16T08:08:22.862Z</time></trkpt><trkpt lat="40.8706283" lon="8.2450217"><ele>9.0</ele><time>2026-04-16T08:08:23.861Z</time></trkpt><trkpt lat="40.8706517" lon="8.24492"><ele>9.0</ele><time>2026-04-16T08:08:24.862Z</time></trkpt><trkpt lat="40.8706733" lon="8.2448133"><ele>9.0</ele><time>2026-04-16T08:08:25.862Z</time></trkpt><trkpt lat="40.8706867" lon="8.2447083"><ele>9.0</ele><time>2026-04-16T08:08:26.862Z</time></trkpt><trkpt lat="40.8706833" lon="8.2446017"><ele>9.0</ele><time>2026-04-16T08:08:27.862Z</time></trkpt><trkpt lat="40.8706583" lon="8.244495"><ele>9.0</ele><time>2026-04-16T08:08:28.862Z</time></trkpt><trkpt lat="40.8706233" lon="8.2444"><ele>9.0</ele><time>2026-04-16T08:08:29.862Z</time></trkpt><trkpt lat="40.8705917" lon="8.2443033"><ele>9.0</ele><time>2026-04-16T08:08:30.862Z</time></trkpt><trkpt lat="40.870555" lon="8.2442033"><ele>9.0</ele><time>2026-04-16T08:08:31.861Z</time></trkpt><trkpt lat="40.8705067" lon="8.244105"><ele>9.0</ele><time>2026-04-16T08:08:32.861Z</time></trkpt><trkpt lat="40.8704533" lon="8.2440133"><ele>9.0</ele><time>2026-04-16T08:08:33.861Z</time></trkpt><trkpt lat="40.8704" lon="8.2439317"><ele>9.333333333333334</ele><time>2026-04-16T08:08:34.861Z</time></trkpt><trkpt lat="40.8703467" lon="8.243855"><ele>9.666666666666666</ele><time>2026-04-16T08:08:35.861Z</time></trkpt><trkpt lat="40.8702983" lon="8.2437817"><ele>10.0</ele><time>2026-04-16T08:08:36.862Z</time></trkpt><trkpt lat="40.8702533" lon="8.2437167"><ele>10.333333333333332</ele><time>2026-04-16T08:08:37.861Z</time></trkpt><trkpt lat="40.8701783" lon="8.2435983"><ele>10.666666666666666</ele><time>2026-04-16T08:08:39.861Z</time></trkpt><trkpt lat="40.87014" lon="8.2435317"><ele>11.0</ele><time>2026-04-16T08:08:40.861Z</time></trkpt><trkpt lat="40.8701017" lon="8.243465"><ele>11.166666666666666</ele><time>2026-04-16T08:08:41.862Z</time></trkpt><trkpt lat="40.8700467" lon="8.2433917"><ele>11.333333333333332</ele><time>2026-04-16T08:08:43.862Z</time></trkpt><trkpt lat="40.8699817" lon="8.2433317"><ele>11.5</ele><time>2026-04-16T08:08:46.861Z</time></trkpt><trkpt lat="40.8699267" lon="8.2432783"><ele>11.666666666666666</ele><time>2026-04-16T08:08:48.862Z</time></trkpt><trkpt lat="40.8698567" lon="8.243245"><ele>11.833333333333334</ele><time>2026-04-16T08:08:51.861Z</time></trkpt><trkpt lat="40.8697917" lon="8.2431883"><ele>12.0</ele><time>2026-04-16T08:08:53.862Z</time></trkpt><trkpt lat="40.8696967" lon="8.243065"><ele>12.166666666666666</ele><time>2026-04-16T08:08:55.862Z</time></trkpt><trkpt lat="40.8696467" lon="8.2429767"><ele>12.333333333333332</ele><time>2026-04-16T08:08:56.862Z</time></trkpt><trkpt lat="40.8695967" lon="8.2428883"><ele>12.5</ele><time>2026-04-16T08:08:57.862Z</time></trkpt><trkpt lat="40.869545" lon="8.242795"><ele>12.666666666666666</ele><time>2026-04-16T08:08:58.861Z</time></trkpt><trkpt lat="40.8695" lon="8.2427033"><ele>12.833333333333332</ele><time>2026-04-16T08:08:59.862Z</time></trkpt><trkpt lat="40.8694467" lon="8.2426133"><ele>13.0</ele><time>2026-04-16T08:09:00.862Z</time></trkpt><trkpt lat="40.8694" lon="8.2425217"><ele>13.0</ele><time>2026-04-16T08:09:01.862Z</time></trkpt><trkpt lat="40.869345" lon="8.2424383"><ele>13.0</ele><time>2026-04-16T08:09:02.862Z</time></trkpt><trkpt lat="40.8692817" lon="8.242355"><ele>13.0</ele><time>2026-04-16T08:09:03.862Z</time></trkpt><trkpt lat="40.8692083" lon="8.2422783"><ele>13.0</ele><time>2026-04-16T08:09:04.862Z</time></trkpt><trkpt lat="40.8691283" lon="8.242205"><ele>13.0</ele><time>2026-04-16T08:09:05.862Z</time></trkpt><trkpt lat="40.869045" lon="8.2421383"><ele>13.4</ele><time>2026-04-16T08:09:06.862Z</time></trkpt><trkpt lat="40.8689567" lon="8.2420817"><ele>13.8</ele><time>2026-04-16T08:09:07.862Z</time></trkpt><trkpt lat="40.8688617" lon="8.2420333"><ele>14.2</ele><time>2026-04-16T08:09:08.862Z</time></trkpt><trkpt lat="40.8687583" lon="8.2419917"><ele>14.6</ele><time>2026-04-16T08:09:09.862Z</time></trkpt><trkpt lat="40.8686517" lon="8.24195"><ele>15.0</ele><time>2026-04-16T08:09:10.862Z</time></trkpt><trkpt lat="40.8685517" lon="8.2419117"><ele>15.0</ele><time>2026-04-16T08:09:11.861Z</time></trkpt><trkpt lat="40.868455" lon="8.2418767"><ele>15.0</ele><time>2026-04-16T08:09:12.861Z</time></trkpt><trkpt lat="40.868355" lon="8.24184"><ele>15.0</ele><time>2026-04-16T08:09:13.862Z</time></trkpt><trkpt lat="40.8682617" lon="8.2417917"><ele>15.0</ele><time>2026-04-16T08:09:14.862Z</time></trkpt><trkpt lat="40.8681717" lon="8.241725"><ele>15.0</ele><time>2026-04-16T08:09:15.861Z</time></trkpt><trkpt lat="40.86809" lon="8.2416317"><ele>15.0</ele><time>2026-04-16T08:09:16.861Z</time></trkpt><trkpt lat="40.8680233" lon="8.2415233"><ele>15.0</ele><time>2026-04-16T08:09:17.862Z</time></trkpt><trkpt lat="40.867965" lon="8.2414067"><ele>15.0</ele><time>2026-04-16T08:09:18.861Z</time></trkpt><trkpt lat="40.8679083" lon="8.2412783"><ele>15.0</ele><time>2026-04-16T08:09:19.861Z</time></trkpt><trkpt lat="40.8678483" lon="8.241145"><ele>15.0</ele><time>2026-04-16T08:09:20.861Z</time></trkpt><trkpt lat="40.8678" lon="8.24101"><ele>15.0</ele><time>2026-04-16T08:09:21.862Z</time></trkpt><trkpt lat="40.867745" lon="8.2408867"><ele>15.0</ele><time>2026-04-16T08:09:22.862Z</time></trkpt><trkpt lat="40.867695" lon="8.240765"><ele>15.0</ele><time>2026-04-16T08:09:23.862Z</time></trkpt><trkpt lat="40.867645" lon="8.240635"><ele>15.0</ele><time>2026-04-16T08:09:24.862Z</time></trkpt><trkpt lat="40.8675967" lon="8.2405067"><ele>15.0</ele><time>2026-04-16T08:09:25.862Z</time></trkpt><trkpt lat="40.86755" lon="8.2403733"><ele>15.0</ele><time>2026-04-16T08:09:26.861Z</time></trkpt><trkpt lat="40.8675067" lon="8.2402383"><ele>15.0</ele><time>2026-04-16T08:09:27.861Z</time></trkpt><trkpt lat="40.8674633" lon="8.240095"><ele>15.0</ele><time>2026-04-16T08:09:28.861Z</time></trkpt><trkpt lat="40.8674183" lon="8.2399583"><ele>15.0</ele><time>2026-04-16T08:09:29.861Z</time></trkpt><trkpt lat="40.8673783" lon="8.239825"><ele>15.0</ele><time>2026-04-16T08:09:30.862Z</time></trkpt><trkpt lat="40.8673383" lon="8.2397"><ele>15.0</ele><time>2026-04-16T08:09:31.861Z</time></trkpt><trkpt lat="40.8673017" lon="8.2395817"><ele>15.0</ele><time>2026-04-16T08:09:32.862Z</time></trkpt><trkpt lat="40.8672617" lon="8.23946"><ele>15.0</ele><time>2026-04-16T08:09:33.862Z</time></trkpt><trkpt lat="40.8672233" lon="8.2393367"><ele>15.0</ele><time>2026-04-16T08:09:34.862Z</time></trkpt><trkpt lat="40.86718" lon="8.2392183"><ele>15.0</ele><time>2026-04-16T08:09:35.862Z</time></trkpt><trkpt lat="40.8671367" lon="8.2390983"><ele>15.0</ele><time>2026-04-16T08:09:36.862Z</time></trkpt><trkpt lat="40.867095" lon="8.2389767"><ele>15.0</ele><time>2026-04-16T08:09:37.861Z</time></trkpt><trkpt lat="40.8670567" lon="8.23886"><ele>15.0</ele><time>2026-04-16T08:09:38.862Z</time></trkpt><trkpt lat="40.8670183" lon="8.238745"><ele>15.0</ele><time>2026-04-16T08:09:39.862Z</time></trkpt><trkpt lat="40.86698" lon="8.2386333"><ele>15.0</ele><time>2026-04-16T08:09:40.861Z</time></trkpt><trkpt lat="40.8669467" lon="8.2385167"><ele>15.4</ele><time>2026-04-16T08:09:41.861Z</time></trkpt><trkpt lat="40.866915" lon="8.2383967"><ele>15.8</ele><time>2026-04-16T08:09:42.861Z</time></trkpt><trkpt lat="40.8668733" lon="8.2382733"><ele>16.2</ele><time>2026-04-16T08:09:43.861Z</time></trkpt><trkpt lat="40.8668267" lon="8.2381617"><ele>16.6</ele><time>2026-04-16T08:09:44.861Z</time></trkpt><trkpt lat="40.86677" lon="8.23805"><ele>17.0</ele><time>2026-04-16T08:09:45.861Z</time></trkpt><trkpt lat="40.86671" lon="8.2379483"><ele>17.333333333333336</ele><time>2026-04-16T08:09:46.861Z</time></trkpt><trkpt lat="40.8666533" lon="8.23785"><ele>17.666666666666668</ele><time>2026-04-16T08:09:47.861Z</time></trkpt><trkpt lat="40.8666083" lon="8.2377617"><ele>18.0</ele><time>2026-04-16T08:09:48.861Z</time></trkpt><trkpt lat="40.8665733" lon="8.2376817"><ele>18.333333333333332</ele><time>2026-04-16T08:09:49.861Z</time></trkpt><trkpt lat="40.8665433" lon="8.2376067"><ele>18.666666666666664</ele><time>2026-04-16T08:09:50.86Z</time></trkpt><trkpt lat="40.8665183" lon="8.2375233"><ele>19.0</ele><time>2026-04-16T08:09:52.861Z</time></trkpt><trkpt lat="40.8665067" lon="8.237355"><ele>19.0</ele><time>2026-04-16T08:10:00.86Z</time></trkpt><trkpt lat="40.8664833" lon="8.23725"><ele>19.0</ele><time>2026-04-16T08:10:01.861Z</time></trkpt><trkpt lat="40.8664383" lon="8.2371567"><ele>19.0</ele><time>2026-04-16T08:10:02.861Z</time></trkpt><trkpt lat="40.8663733" lon="8.2370917"><ele>19.0</ele><time>2026-04-16T08:10:03.86Z</time></trkpt><trkpt lat="40.8662917" lon="8.23707"><ele>19.0</ele><time>2026-04-16T08:10:04.86Z</time></trkpt><trkpt lat="40.8662083" lon="8.2370983"><ele>19.0</ele><time>2026-04-16T08:10:05.861Z</time></trkpt><trkpt lat="40.8661283" lon="8.2371667"><ele>19.0</ele><time>2026-04-16T08:10:06.861Z</time></trkpt><trkpt lat="40.86606" lon="8.23727"><ele>19.0</ele><time>2026-04-16T08:10:07.86Z</time></trkpt><trkpt lat="40.866" lon="8.2373867"><ele>19.0</ele><time>2026-04-16T08:10:08.861Z</time></trkpt><trkpt lat="40.8659267" lon="8.2374917"><ele>19.0</ele><time>2026-04-16T08:10:09.86Z</time></trkpt><trkpt lat="40.865825" lon="8.2375567"><ele>19.0</ele><time>2026-04-16T08:10:10.861Z</time></trkpt><trkpt lat="40.865705" lon="8.2376117"><ele>19.25</ele><time>2026-04-16T08:10:11.86Z</time></trkpt><trkpt lat="40.8655917" lon="8.23766"><ele>19.5</ele><time>2026-04-16T08:10:12.86Z</time></trkpt><trkpt lat="40.8654733" lon="8.2377083"><ele>19.75</ele><time>2026-04-16T08:10:13.86Z</time></trkpt><trkpt lat="40.8653633" lon="8.2377517"><ele>20.0</ele><time>2026-04-16T08:10:14.861Z</time></trkpt><trkpt lat="40.8652633" lon="8.2377833"><ele>20.0</ele><time>2026-04-16T08:10:15.861Z</time></trkpt><trkpt lat="40.8651783" lon="8.2377933"><ele>20.0</ele><time>2026-04-16T08:10:16.86Z</time></trkpt><trkpt lat="40.8650983" lon="8.2377867"><ele>20.0</ele><time>2026-04-16T08:10:17.86Z</time></trkpt><trkpt lat="40.86503" lon="8.237785"><ele>20.0</ele><time>2026-04-16T08:10:18.86Z</time></trkpt><trkpt lat="40.86494" lon="8.2377533"><ele>20.0</ele><time>2026-04-16T08:10:20.861Z</time></trkpt><trkpt lat="40.8648367" lon="8.2378"><ele>20.0</ele><time>2026-04-16T08:19:45.857Z</time></trkpt><trkpt lat="40.8647633" lon="8.2378933"><ele>20.0</ele><time>2026-04-16T08:19:47.858Z</time></trkpt><trkpt lat="40.86471" lon="8.237995"><ele>20.0</ele><time>2026-04-16T08:19:49.858Z</time></trkpt><trkpt lat="40.8646417" lon="8.2380683"><ele>20.0</ele><time>2026-04-16T08:19:51.858Z</time></trkpt><trkpt lat="40.8645317" lon="8.2381467"><ele>20.0</ele><time>2026-04-16T08:19:53.858Z</time></trkpt><trkpt lat="40.8644683" lon="8.2381833"><ele>20.0</ele><time>2026-04-16T08:19:54.858Z</time></trkpt><trkpt lat="40.8644" lon="8.2382167"><ele>20.0</ele><time>2026-04-16T08:19:55.858Z</time></trkpt><trkpt lat="40.864325" lon="8.238255"><ele>20.6</ele><time>2026-04-16T08:19:56.857Z</time></trkpt><trkpt lat="40.8642383" lon="8.238295"><ele>21.2</ele><time>2026-04-16T08:19:57.858Z</time></trkpt><trkpt lat="40.86415" lon="8.2383383"><ele>21.799999999999997</ele><time>2026-04-16T08:19:58.858Z</time></trkpt><trkpt lat="40.864055" lon="8.2383867"><ele>22.4</ele><time>2026-04-16T08:19:59.857Z</time></trkpt><trkpt lat="40.8639567" lon="8.238435"><ele>23.0</ele><time>2026-04-16T08:20:00.858Z</time></trkpt><trkpt lat="40.86385" lon="8.2384817"><ele>23.0</ele><time>2026-04-16T08:20:01.858Z</time></trkpt><trkpt lat="40.863745" lon="8.2385317"><ele>23.0</ele><time>2026-04-16T08:20:02.858Z</time></trkpt><trkpt lat="40.8636367" lon="8.2385883"><ele>23.0</ele><time>2026-04-16T08:20:03.858Z</time></trkpt><trkpt lat="40.8635233" lon="8.238645"><ele>23.0</ele><time>2026-04-16T08:20:04.858Z</time></trkpt><trkpt lat="40.86341" lon="8.238695"><ele>24.25</ele><time>2026-04-16T08:20:05.857Z</time></trkpt><trkpt lat="40.8632917" lon="8.2387433"><ele>25.5</ele><time>2026-04-16T08:20:06.857Z</time></trkpt><trkpt lat="40.863165" lon="8.2387833"><ele>26.75</ele><time>2026-04-16T08:20:07.858Z</time></trkpt><trkpt lat="40.8630367" lon="8.2388233"><ele>28.0</ele><time>2026-04-16T08:20:08.857Z</time></trkpt><trkpt lat="40.8629067" lon="8.238865"><ele>28.0</ele><time>2026-04-16T08:20:09.858Z</time></trkpt><trkpt lat="40.8627783" lon="8.2388967"><ele>28.0</ele><time>2026-04-16T08:20:10.858Z</time></trkpt><trkpt lat="40.862645" lon="8.23893"><ele>28.0</ele><time>2026-04-16T08:20:11.858Z</time></trkpt><trkpt lat="40.8625083" lon="8.23895"><ele>28.0</ele><time>2026-04-16T08:20:12.858Z</time></trkpt><trkpt lat="40.86237" lon="8.2389767"><ele>27.75</ele><time>2026-04-16T08:20:13.857Z</time></trkpt><trkpt lat="40.86223" lon="8.2390033"><ele>27.5</ele><time>2026-04-16T08:20:14.858Z</time></trkpt><trkpt lat="40.862085" lon="8.2390183"><ele>27.25</ele><time>2026-04-16T08:20:15.858Z</time></trkpt><trkpt lat="40.861945" lon="8.239045"><ele>27.0</ele><time>2026-04-16T08:20:16.858Z</time></trkpt><trkpt lat="40.8618167" lon="8.2390683"><ele>27.400000000000002</ele><time>2026-04-16T08:20:17.857Z</time></trkpt><trkpt lat="40.8617033" lon="8.2390867"><ele>27.800000000000004</ele><time>2026-04-16T08:20:18.857Z</time></trkpt><trkpt lat="40.8616033" lon="8.2391"><ele>28.2</ele><time>2026-04-16T08:20:19.858Z</time></trkpt><trkpt lat="40.8615217" lon="8.2391167"><ele>28.6</ele><time>2026-04-16T08:20:20.857Z</time></trkpt><trkpt lat="40.86142" lon="8.23908"><ele>29.0</ele><time>2026-04-16T08:20:22.857Z</time></trkpt><trkpt lat="40.86138" lon="8.2389367"><ele>28.999999999999996</ele><time>2026-04-16T08:20:24.858Z</time></trkpt><trkpt lat="40.8613617" lon="8.2388417"><ele>29.0</ele><time>2026-04-16T08:20:25.857Z</time></trkpt><trkpt lat="40.8613417" lon="8.2387433"><ele>29.0</ele><time>2026-04-16T08:20:26.857Z</time></trkpt><trkpt lat="40.86132" lon="8.23863"><ele>29.0</ele><time>2026-04-16T08:20:27.858Z</time></trkpt><trkpt lat="40.8613017" lon="8.2385167"><ele>28.999999999999996</ele><time>2026-04-16T08:20:28.858Z</time></trkpt><trkpt lat="40.8612767" lon="8.2384067"><ele>29.0</ele><time>2026-04-16T08:20:29.857Z</time></trkpt><trkpt lat="40.86125" lon="8.2382967"><ele>29.0</ele><time>2026-04-16T08:20:30.857Z</time></trkpt><trkpt lat="40.8612233" lon="8.2381733"><ele>29.0</ele><time>2026-04-16T08:20:31.857Z</time></trkpt><trkpt lat="40.8611933" lon="8.2380467"><ele>29.0</ele><time>2026-04-16T08:20:32.857Z</time></trkpt><trkpt lat="40.8611633" lon="8.2379067"><ele>29.0</ele><time>2026-04-16T08:20:33.857Z</time></trkpt><trkpt lat="40.8611283" lon="8.23776"><ele>29.0</ele><time>2026-04-16T08:20:34.857Z</time></trkpt><trkpt lat="40.8610883" lon="8.2376133"><ele>28.75</ele><time>2026-04-16T08:20:35.857Z</time></trkpt><trkpt lat="40.86105" lon="8.237455"><ele>28.5</ele><time>2026-04-16T08:20:36.858Z</time></trkpt><trkpt lat="40.8610133" lon="8.2372933"><ele>28.25</ele><time>2026-04-16T08:20:37.858Z</time></trkpt><trkpt lat="40.8609783" lon="8.2371267"><ele>28.0</ele><time>2026-04-16T08:20:38.858Z</time></trkpt><trkpt lat="40.8609333" lon="8.2369467"><ele>29.0</ele><time>2026-04-16T08:20:39.857Z</time></trkpt><trkpt lat="40.8608917" lon="8.2367633"><ele>30.0</ele><time>2026-04-16T08:20:40.858Z</time></trkpt><trkpt lat="40.86085" lon="8.23658"><ele>31.0</ele><time>2026-04-16T08:20:41.857Z</time></trkpt><trkpt lat="40.8608017" lon="8.2363867"><ele>32.0</ele><time>2026-04-16T08:20:42.857Z</time></trkpt><trkpt lat="40.8607583" lon="8.236205"><ele>32.5</ele><time>2026-04-16T08:20:43.858Z</time></trkpt><trkpt lat="40.8607167" lon="8.2360233"><ele>33.0</ele><time>2026-04-16T08:20:44.858Z</time></trkpt><trkpt lat="40.8606733" lon="8.2358483"><ele>33.5</ele><time>2026-04-16T08:20:45.857Z</time></trkpt><trkpt lat="40.8606267" lon="8.2356733"><ele>34.0</ele><time>2026-04-16T08:20:46.857Z</time></trkpt><trkpt lat="40.8605783" lon="8.2354967"><ele>34.75</ele><time>2026-04-16T08:20:47.858Z</time></trkpt><trkpt lat="40.8605383" lon="8.2353283"><ele>35.5</ele><time>2026-04-16T08:20:48.857Z</time></trkpt><trkpt lat="40.860495" lon="8.2351633"><ele>36.25</ele><time>2026-04-16T08:20:49.858Z</time></trkpt><trkpt lat="40.8604633" lon="8.2350167"><ele>37.0</ele><time>2026-04-16T08:20:50.858Z</time></trkpt><trkpt lat="40.8604367" lon="8.234885"><ele>37.0</ele><time>2026-04-16T08:20:51.857Z</time></trkpt><trkpt lat="40.8604067" lon="8.23477"><ele>37.0</ele><time>2026-04-16T08:20:52.857Z</time></trkpt><trkpt lat="40.8603733" lon="8.2346633"><ele>37.0</ele><time>2026-04-16T08:20:53.858Z</time></trkpt><trkpt lat="40.86033" lon="8.2345733"><ele>37.0</ele><time>2026-04-16T08:20:54.858Z</time></trkpt><trkpt lat="40.8602733" lon="8.2344883"><ele>37.0</ele><time>2026-04-16T08:20:55.858Z</time></trkpt><trkpt lat="40.860195" lon="8.23441"><ele>37.0</ele><time>2026-04-16T08:20:56.857Z</time></trkpt><trkpt lat="40.860105" lon="8.2343383"><ele>37.5</ele><time>2026-04-16T08:20:57.857Z</time></trkpt><trkpt lat="40.8600017" lon="8.23426"><ele>38.0</ele><time>2026-04-16T08:20:58.858Z</time></trkpt><trkpt lat="40.85989" lon="8.234185"><ele>38.5</ele><time>2026-04-16T08:20:59.858Z</time></trkpt><trkpt lat="40.85978" lon="8.2341033"><ele>39.0</ele><time>2026-04-16T08:21:00.857Z</time></trkpt><trkpt lat="40.859665" lon="8.234015"><ele>39.2</ele><time>2026-04-16T08:21:01.858Z</time></trkpt><trkpt lat="40.859555" lon="8.233925"><ele>39.4</ele><time>2026-04-16T08:21:02.857Z</time></trkpt><trkpt lat="40.8594517" lon="8.233855"><ele>39.6</ele><time>2026-04-16T08:21:03.858Z</time></trkpt><trkpt lat="40.85936" lon="8.2338"><ele>39.8</ele><time>2026-04-16T08:21:04.858Z</time></trkpt><trkpt lat="40.8592683" lon="8.2337433"><ele>40.0</ele><time>2026-04-16T08:21:05.857Z</time></trkpt><trkpt lat="40.8591717" lon="8.2336867"><ele>39.5</ele><time>2026-04-16T08:21:06.856Z</time></trkpt><trkpt lat="40.8590633" lon="8.23364"><ele>39.0</ele><time>2026-04-16T08:21:07.856Z</time></trkpt><trkpt lat="40.8589567" lon="8.233595"><ele>38.5</ele><time>2026-04-16T08:21:08.856Z</time></trkpt><trkpt lat="40.8588433" lon="8.2335383"><ele>38.0</ele><time>2026-04-16T08:21:09.857Z</time></trkpt><trkpt lat="40.8587367" lon="8.2334783"><ele>38.0</ele><time>2026-04-16T08:21:10.857Z</time></trkpt><trkpt lat="40.8586267" lon="8.2334267"><ele>38.0</ele><time>2026-04-16T08:21:11.856Z</time></trkpt><trkpt lat="40.8585167" lon="8.2333867"><ele>38.0</ele><time>2026-04-16T08:21:12.857Z</time></trkpt><trkpt lat="40.858405" lon="8.2333467"><ele>38.0</ele><time>2026-04-16T08:21:13.856Z</time></trkpt><trkpt lat="40.8583017" lon="8.2333117"><ele>38.199999999999996</ele><time>2026-04-16T08:21:14.857Z</time></trkpt><trkpt lat="40.858205" lon="8.2332817"><ele>38.4</ele><time>2026-04-16T08:21:15.856Z</time></trkpt><trkpt lat="40.85812" lon="8.2332433"><ele>38.599999999999994</ele><time>2026-04-16T08:21:16.856Z</time></trkpt><trkpt lat="40.8580417" lon="8.2331933"><ele>38.8</ele><time>2026-04-16T08:21:17.856Z</time></trkpt><trkpt lat="40.8579617" lon="8.233145"><ele>39.0</ele><time>2026-04-16T08:21:18.857Z</time></trkpt><trkpt lat="40.857885" lon="8.23309"><ele>39.4</ele><time>2026-04-16T08:21:19.857Z</time></trkpt><trkpt lat="40.8578083" lon="8.23303"><ele>39.8</ele><time>2026-04-16T08:21:20.856Z</time></trkpt><trkpt lat="40.8577267" lon="8.23296"><ele>40.199999999999996</ele><time>2026-04-16T08:21:21.857Z</time></trkpt><trkpt lat="40.8576367" lon="8.232885"><ele>40.599999999999994</ele><time>2026-04-16T08:21:22.857Z</time></trkpt><trkpt lat="40.8575417" lon="8.2328083"><ele>41.0</ele><time>2026-04-16T08:21:23.857Z</time></trkpt><trkpt lat="40.8574517" lon="8.2327183"><ele>40.25</ele><time>2026-04-16T08:21:24.856Z</time></trkpt><trkpt lat="40.8573767" lon="8.2326217"><ele>39.5</ele><time>2026-04-16T08:21:25.856Z</time></trkpt><trkpt lat="40.8573033" lon="8.23251"><ele>38.75</ele><time>2026-04-16T08:21:26.857Z</time></trkpt><trkpt lat="40.8572417" lon="8.232375"><ele>38.0</ele><time>2026-04-16T08:21:27.856Z</time></trkpt><trkpt lat="40.8571833" lon="8.2322367"><ele>38.0</ele><time>2026-04-16T08:21:28.856Z</time></trkpt><trkpt lat="40.8571083" lon="8.2321267"><ele>38.0</ele><time>2026-04-16T08:21:29.856Z</time></trkpt><trkpt lat="40.857015" lon="8.2320417"><ele>38.0</ele><time>2026-04-16T08:21:30.857Z</time></trkpt><trkpt lat="40.856915" lon="8.2319817"><ele>38.0</ele><time>2026-04-16T08:21:31.857Z</time></trkpt><trkpt lat="40.856785" lon="8.2319183"><ele>37.75</ele><time>2026-04-16T08:21:32.857Z</time></trkpt><trkpt lat="40.856645" lon="8.231845"><ele>37.5</ele><time>2026-04-16T08:21:33.857Z</time></trkpt><trkpt lat="40.8565133" lon="8.23177"><ele>37.25</ele><time>2026-04-16T08:21:34.857Z</time></trkpt><trkpt lat="40.8563917" lon="8.2317117"><ele>37.0</ele><time>2026-04-16T08:21:35.857Z</time></trkpt><trkpt lat="40.8562833" lon="8.2316583"><ele>37.0</ele><time>2026-04-16T08:21:36.857Z</time></trkpt><trkpt lat="40.8561733" lon="8.2316017"><ele>37.0</ele><time>2026-04-16T08:21:37.856Z</time></trkpt><trkpt lat="40.8560617" lon="8.2315233"><ele>37.0</ele><time>2026-04-16T08:21:38.857Z</time></trkpt><trkpt lat="40.855955" lon="8.2314233"><ele>37.0</ele><time>2026-04-16T08:21:39.856Z</time></trkpt><trkpt lat="40.8558467" lon="8.2313133"><ele>38.25</ele><time>2026-04-16T08:21:40.856Z</time></trkpt><trkpt lat="40.8557333" lon="8.231205"><ele>39.5</ele><time>2026-04-16T08:21:41.857Z</time></trkpt><trkpt lat="40.8556117" lon="8.2311067"><ele>40.75</ele><time>2026-04-16T08:21:42.857Z</time></trkpt><trkpt lat="40.8555033" lon="8.23103"><ele>42.0</ele><time>2026-04-16T08:21:43.857Z</time></trkpt><trkpt lat="40.8554033" lon="8.2309733"><ele>42.0</ele><time>2026-04-16T08:21:44.857Z</time></trkpt><trkpt lat="40.8553067" lon="8.2309333"><ele>42.0</ele><time>2026-04-16T08:21:45.856Z</time></trkpt><trkpt lat="40.85519" lon="8.230915"><ele>42.0</ele><time>2026-04-16T08:21:46.857Z</time></trkpt><trkpt lat="40.855075" lon="8.2309033"><ele>42.0</ele><time>2026-04-16T08:21:47.856Z</time></trkpt><trkpt lat="40.8549683" lon="8.2308783"><ele>42.0</ele><time>2026-04-16T08:21:48.857Z</time></trkpt><trkpt lat="40.8548617" lon="8.2308267"><ele>41.833333333333336</ele><time>2026-04-16T08:21:49.857Z</time></trkpt><trkpt lat="40.8547683" lon="8.2307683"><ele>41.666666666666664</ele><time>2026-04-16T08:21:50.856Z</time></trkpt><trkpt lat="40.8547" lon="8.2307167"><ele>41.5</ele><time>2026-04-16T08:21:51.856Z</time></trkpt><trkpt lat="40.854635" lon="8.230685"><ele>41.33333333333333</ele><time>2026-04-16T08:21:52.856Z</time></trkpt><trkpt lat="40.8545533" lon="8.2306867"><ele>41.166666666666664</ele><time>2026-04-16T08:21:53.857Z</time></trkpt><trkpt lat="40.8544533" lon="8.2307133"><ele>41.0</ele><time>2026-04-16T08:21:54.856Z</time></trkpt><trkpt lat="40.854355" lon="8.230745"><ele>41.199999999999996</ele><time>2026-04-16T08:21:55.857Z</time></trkpt><trkpt lat="40.8542667" lon="8.23076"><ele>41.4</ele><time>2026-04-16T08:21:56.856Z</time></trkpt><trkpt lat="40.8541883" lon="8.230765"><ele>41.6</ele><time>2026-04-16T08:21:57.857Z</time></trkpt><trkpt lat="40.8540967" lon="8.2307567"><ele>41.8</ele><time>2026-04-16T08:21:58.857Z</time></trkpt><trkpt lat="40.853985" lon="8.230715"><ele>42.0</ele><time>2026-04-16T08:21:59.857Z</time></trkpt><trkpt lat="40.8538667" lon="8.2306583"><ele>42.5</ele><time>2026-04-16T08:22:00.856Z</time></trkpt><trkpt lat="40.8537517" lon="8.2305917"><ele>43.0</ele><time>2026-04-16T08:22:01.856Z</time></trkpt><trkpt lat="40.8536333" lon="8.2305217"><ele>43.5</ele><time>2026-04-16T08:22:02.857Z</time></trkpt><trkpt lat="40.85352" lon="8.2304517"><ele>44.0</ele><time>2026-04-16T08:22:03.856Z</time></trkpt><trkpt lat="40.853405" lon="8.230385"><ele>44.75</ele><time>2026-04-16T08:22:04.857Z</time></trkpt><trkpt lat="40.85329" lon="8.230315"><ele>45.5</ele><time>2026-04-16T08:22:05.857Z</time></trkpt><trkpt lat="40.8531717" lon="8.2302517"><ele>46.25</ele><time>2026-04-16T08:22:06.857Z</time></trkpt><trkpt lat="40.85305" lon="8.230185"><ele>47.0</ele><time>2026-04-16T08:22:07.857Z</time></trkpt><trkpt lat="40.852925" lon="8.2301183"><ele>47.0</ele><time>2026-04-16T08:22:08.857Z</time></trkpt><trkpt lat="40.8527967" lon="8.2300733"><ele>47.0</ele><time>2026-04-16T08:22:09.856Z</time></trkpt><trkpt lat="40.8526733" lon="8.2300317"><ele>47.0</ele><time>2026-04-16T08:22:10.857Z</time></trkpt><trkpt lat="40.8525683" lon="8.2299933"><ele>47.0</ele><time>2026-04-16T08:22:11.856Z</time></trkpt><trkpt lat="40.852465" lon="8.22995"><ele>46.8</ele><time>2026-04-16T08:22:12.857Z</time></trkpt><trkpt lat="40.8523567" lon="8.22989"><ele>46.6</ele><time>2026-04-16T08:22:13.857Z</time></trkpt><trkpt lat="40.8522533" lon="8.2298017"><ele>46.4</ele><time>2026-04-16T08:22:14.857Z</time></trkpt><trkpt lat="40.8521667" lon="8.2297067"><ele>46.199999999999996</ele><time>2026-04-16T08:22:15.856Z</time></trkpt><trkpt lat="40.8521033" lon="8.2296117"><ele>46.0</ele><time>2026-04-16T08:22:16.857Z</time></trkpt><trkpt lat="40.8520533" lon="8.2295117"><ele>46.5</ele><time>2026-04-16T08:22:17.856Z</time></trkpt><trkpt lat="40.8520017" lon="8.2293867"><ele>47.0</ele><time>2026-04-16T08:22:18.857Z</time></trkpt><trkpt lat="40.8519533" lon="8.2292333"><ele>47.5</ele><time>2026-04-16T08:22:19.857Z</time></trkpt><trkpt lat="40.8519083" lon="8.2290683"><ele>48.0</ele><time>2026-04-16T08:22:20.857Z</time></trkpt><trkpt lat="40.8518517" lon="8.2289017"><ele>48.0</ele><time>2026-04-16T08:22:21.857Z</time></trkpt><trkpt lat="40.8517917" lon="8.2287283"><ele>48.0</ele><time>2026-04-16T08:22:22.857Z</time></trkpt><trkpt lat="40.85174" lon="8.2285583"><ele>48.0</ele><time>2026-04-16T08:22:23.856Z</time></trkpt><trkpt lat="40.8516967" lon="8.2284067"><ele>48.0</ele><time>2026-04-16T08:22:24.857Z</time></trkpt><trkpt lat="40.8516467" lon="8.2282883"><ele>48.599999999999994</ele><time>2026-04-16T08:22:25.856Z</time></trkpt><trkpt lat="40.851585" lon="8.2281817"><ele>49.199999999999996</ele><time>2026-04-16T08:22:26.857Z</time></trkpt><trkpt lat="40.851505" lon="8.2280917"><ele>49.8</ele><time>2026-04-16T08:22:27.857Z</time></trkpt><trkpt lat="40.8514" lon="8.2280083"><ele>50.4</ele><time>2026-04-16T08:22:28.857Z</time></trkpt><trkpt lat="40.8513033" lon="8.2279483"><ele>51.0</ele><time>2026-04-16T08:22:29.857Z</time></trkpt><trkpt lat="40.8512117" lon="8.2279117"><ele>51.4</ele><time>2026-04-16T08:22:30.856Z</time></trkpt><trkpt lat="40.8511233" lon="8.2278933"><ele>51.8</ele><time>2026-04-16T08:22:31.856Z</time></trkpt><trkpt lat="40.85103" lon="8.2278683"><ele>52.199999999999996</ele><time>2026-04-16T08:22:32.857Z</time></trkpt><trkpt lat="40.8509333" lon="8.2278417"><ele>52.599999999999994</ele><time>2026-04-16T08:22:33.857Z</time></trkpt><trkpt lat="40.850825" lon="8.22782"><ele>53.0</ele><time>2026-04-16T08:22:34.856Z</time></trkpt><trkpt lat="40.85071" lon="8.2278133"><ele>53.0</ele><time>2026-04-16T08:22:35.857Z</time></trkpt><trkpt lat="40.8505933" lon="8.2278067"><ele>53.0</ele><time>2026-04-16T08:22:36.857Z</time></trkpt><trkpt lat="40.8504617" lon="8.227805"><ele>53.0</ele><time>2026-04-16T08:22:37.857Z</time></trkpt><trkpt lat="40.850335" lon="8.2278"><ele>53.0</ele><time>2026-04-16T08:22:38.856Z</time></trkpt><trkpt lat="40.85022" lon="8.2278"><ele>52.5</ele><time>2026-04-16T08:22:39.857Z</time></trkpt><trkpt lat="40.850105" lon="8.2277917"><ele>52.0</ele><time>2026-04-16T08:22:40.857Z</time></trkpt><trkpt lat="40.8499867" lon="8.227765"><ele>51.5</ele><time>2026-04-16T08:22:41.857Z</time></trkpt><trkpt lat="40.8498633" lon="8.22774"><ele>51.0</ele><time>2026-04-16T08:22:42.856Z</time></trkpt><trkpt lat="40.8497417" lon="8.2277133"><ele>51.0</ele><time>2026-04-16T08:22:43.857Z</time></trkpt><trkpt lat="40.8496167" lon="8.2276833"><ele>51.0</ele><time>2026-04-16T08:22:44.857Z</time></trkpt><trkpt lat="40.8494883" lon="8.2276583"><ele>51.0</ele><time>2026-04-16T08:22:45.856Z</time></trkpt><trkpt lat="40.8493633" lon="8.2276317"><ele>51.0</ele><time>2026-04-16T08:22:46.856Z</time></trkpt><trkpt lat="40.8492417" lon="8.227605"><ele>51.5</ele><time>2026-04-16T08:22:47.857Z</time></trkpt><trkpt lat="40.8491183" lon="8.22758"><ele>52.0</ele><time>2026-04-16T08:22:48.857Z</time></trkpt><trkpt lat="40.848995" lon="8.22755"><ele>52.5</ele><time>2026-04-16T08:22:49.857Z</time></trkpt><trkpt lat="40.8488867" lon="8.2275283"><ele>53.0</ele><time>2026-04-16T08:22:50.856Z</time></trkpt><trkpt lat="40.848785" lon="8.2275067"><ele>53.0</ele><time>2026-04-16T08:22:51.857Z</time></trkpt><trkpt lat="40.848685" lon="8.2274883"><ele>53.0</ele><time>2026-04-16T08:22:52.857Z</time></trkpt><trkpt lat="40.848585" lon="8.2274667"><ele>53.0</ele><time>2026-04-16T08:22:53.856Z</time></trkpt><trkpt lat="40.84849" lon="8.2274433"><ele>53.0</ele><time>2026-04-16T08:22:54.857Z</time></trkpt><trkpt lat="40.848395" lon="8.2274217"><ele>53.0</ele><time>2026-04-16T08:22:55.856Z</time></trkpt><trkpt lat="40.8482983" lon="8.2274017"><ele>53.599999999999994</ele><time>2026-04-16T08:22:56.857Z</time></trkpt><trkpt lat="40.8481983" lon="8.2273867"><ele>54.199999999999996</ele><time>2026-04-16T08:22:57.857Z</time></trkpt><trkpt lat="40.8480967" lon="8.2273767"><ele>54.8</ele><time>2026-04-16T08:22:58.857Z</time></trkpt><trkpt lat="40.8479917" lon="8.2273567"><ele>55.4</ele><time>2026-04-16T08:22:59.857Z</time></trkpt><trkpt lat="40.847905" lon="8.2273433"><ele>56.0</ele><time>2026-04-16T08:23:00.857Z</time></trkpt><trkpt lat="40.847845" lon="8.2273067"><ele>56.50000000000001</ele><time>2026-04-16T08:23:01.856Z</time></trkpt><trkpt lat="40.847795" lon="8.2272533"><ele>57.0</ele><time>2026-04-16T08:23:02.857Z</time></trkpt><trkpt lat="40.8477467" lon="8.2271683"><ele>57.5</ele><time>2026-04-16T08:23:03.857Z</time></trkpt><trkpt lat="40.8476917" lon="8.22709"><ele>58.0</ele><time>2026-04-16T08:23:04.856Z</time></trkpt><trkpt lat="40.8476283" lon="8.2270267"><ele>58.50000000000001</ele><time>2026-04-16T08:23:05.857Z</time></trkpt><trkpt lat="40.8475583" lon="8.2269967"><ele>59.0</ele><time>2026-04-16T08:23:06.856Z</time></trkpt><trkpt lat="40.84748" lon="8.226985"><ele>59.00000000000001</ele><time>2026-04-16T08:23:07.857Z</time></trkpt><trkpt lat="40.847395" lon="8.22698"><ele>59.0</ele><time>2026-04-16T08:23:08.856Z</time></trkpt><trkpt lat="40.8473183" lon="8.2269517"><ele>59.0</ele><time>2026-04-16T08:23:09.856Z</time></trkpt><trkpt lat="40.8472533" lon="8.2269"><ele>59.0</ele><time>2026-04-16T08:23:10.856Z</time></trkpt><trkpt lat="40.84721" lon="8.226835"><ele>59.00000000000001</ele><time>2026-04-16T08:23:11.857Z</time></trkpt><trkpt lat="40.8471783" lon="8.2267533"><ele>59.0</ele><time>2026-04-16T08:23:12.857Z</time></trkpt><trkpt lat="40.8471567" lon="8.2266583"><ele>59.0</ele><time>2026-04-16T08:23:13.857Z</time></trkpt><trkpt lat="40.8471367" lon="8.2265417"><ele>59.00000000000001</ele><time>2026-04-16T08:23:14.856Z</time></trkpt><trkpt lat="40.8471133" lon="8.2264183"><ele>59.00000000000001</ele><time>2026-04-16T08:23:15.857Z</time></trkpt><trkpt lat="40.8470867" lon="8.2262783"><ele>59.0</ele><time>2026-04-16T08:23:16.856Z</time></trkpt><trkpt lat="40.84706" lon="8.226145"><ele>59.0</ele><time>2026-04-16T08:23:17.857Z</time></trkpt><trkpt lat="40.8470383" lon="8.2260067"><ele>59.5</ele><time>2026-04-16T08:23:18.857Z</time></trkpt><trkpt lat="40.8470067" lon="8.2258617"><ele>60.0</ele><time>2026-04-16T08:23:19.857Z</time></trkpt><trkpt lat="40.8469783" lon="8.22571"><ele>60.5</ele><time>2026-04-16T08:23:20.857Z</time></trkpt><trkpt lat="40.8469517" lon="8.2255483"><ele>61.0</ele><time>2026-04-16T08:23:21.857Z</time></trkpt><trkpt lat="40.846925" lon="8.2253933"><ele>62.25</ele><time>2026-04-16T08:23:22.856Z</time></trkpt><trkpt lat="40.8468933" lon="8.2252383"><ele>63.5</ele><time>2026-04-16T08:23:23.856Z</time></trkpt><trkpt lat="40.8468617" lon="8.225085"><ele>64.75</ele><time>2026-04-16T08:23:24.857Z</time></trkpt><trkpt lat="40.8468317" lon="8.2249333"><ele>66.0</ele><time>2026-04-16T08:23:25.857Z</time></trkpt><trkpt lat="40.8467983" lon="8.2247817"><ele>67.75</ele><time>2026-04-16T08:23:26.857Z</time></trkpt><trkpt lat="40.84677" lon="8.2246267"><ele>69.5</ele><time>2026-04-16T08:23:27.857Z</time></trkpt><trkpt lat="40.8467333" lon="8.224465"><ele>71.25</ele><time>2026-04-16T08:23:28.857Z</time></trkpt><trkpt lat="40.8466983" lon="8.224285"><ele>73.0</ele><time>2026-04-16T08:23:29.857Z</time></trkpt><trkpt lat="40.8466683" lon="8.2241"><ele>74.5</ele><time>2026-04-16T08:23:30.857Z</time></trkpt><trkpt lat="40.846635" lon="8.22391"><ele>76.0</ele><time>2026-04-16T08:23:31.857Z</time></trkpt><trkpt lat="40.8466" lon="8.2237267"><ele>77.5</ele><time>2026-04-16T08:23:32.856Z</time></trkpt><trkpt lat="40.8465617" lon="8.2235533"><ele>79.0</ele><time>2026-04-16T08:23:33.857Z</time></trkpt><trkpt lat="40.84653" lon="8.2233783"><ele>79.0</ele><time>2026-04-16T08:23:34.857Z</time></trkpt><trkpt lat="40.8465033" lon="8.2232233"><ele>79.0</ele><time>2026-04-16T08:23:35.857Z</time></trkpt><trkpt lat="40.8464767" lon="8.2230683"><ele>79.0</ele><time>2026-04-16T08:23:36.857Z</time></trkpt><trkpt lat="40.846445" lon="8.2229317"><ele>79.0</ele><time>2026-04-16T08:23:37.857Z</time></trkpt><trkpt lat="40.8464233" lon="8.2228083"><ele>79.0</ele><time>2026-04-16T08:23:38.856Z</time></trkpt><trkpt lat="40.84642" lon="8.2227"><ele>80.0</ele><time>2026-04-16T08:23:39.856Z</time></trkpt><trkpt lat="40.8464383" lon="8.2225933"><ele>81.0</ele><time>2026-04-16T08:23:40.856Z</time></trkpt><trkpt lat="40.84647" lon="8.222475"><ele>82.0</ele><time>2026-04-16T08:23:41.857Z</time></trkpt><trkpt lat="40.8465033" lon="8.2223267"><ele>83.0</ele><time>2026-04-16T08:23:42.857Z</time></trkpt><trkpt lat="40.846535" lon="8.2221667"><ele>84.0</ele><time>2026-04-16T08:23:43.857Z</time></trkpt><trkpt lat="40.84657" lon="8.2220017"><ele>85.25</ele><time>2026-04-16T08:23:44.856Z</time></trkpt><trkpt lat="40.846605" lon="8.221825"><ele>86.5</ele><time>2026-04-16T08:23:45.856Z</time></trkpt><trkpt lat="40.8466367" lon="8.2216467"><ele>87.75</ele><time>2026-04-16T08:23:46.857Z</time></trkpt><trkpt lat="40.8466717" lon="8.2214683"><ele>89.0</ele><time>2026-04-16T08:23:47.857Z</time></trkpt><trkpt lat="40.8466983" lon="8.2212867"><ele>89.75</ele><time>2026-04-16T08:23:48.856Z</time></trkpt><trkpt lat="40.8467267" lon="8.2211067"><ele>90.5</ele><time>2026-04-16T08:23:49.856Z</time></trkpt><trkpt lat="40.846765" lon="8.2209383"><ele>91.25</ele><time>2026-04-16T08:23:50.857Z</time></trkpt><trkpt lat="40.8468017" lon="8.2207817"><ele>92.0</ele><time>2026-04-16T08:23:51.857Z</time></trkpt><trkpt lat="40.8468333" lon="8.220615"><ele>92.25</ele><time>2026-04-16T08:23:52.857Z</time></trkpt><trkpt lat="40.8468533" lon="8.22044"><ele>92.5</ele><time>2026-04-16T08:23:53.856Z</time></trkpt><trkpt lat="40.8468683" lon="8.2202517"><ele>92.75</ele><time>2026-04-16T08:23:54.856Z</time></trkpt><trkpt lat="40.8468883" lon="8.2200583"><ele>93.0</ele><time>2026-04-16T08:23:55.855Z</time></trkpt><trkpt lat="40.8469133" lon="8.2198867"><ele>94.2</ele><time>2026-04-16T08:23:56.856Z</time></trkpt><trkpt lat="40.84693" lon="8.2197167"><ele>95.4</ele><time>2026-04-16T08:23:57.856Z</time></trkpt><trkpt lat="40.8469317" lon="8.2195617"><ele>96.60000000000001</ele><time>2026-04-16T08:23:58.855Z</time></trkpt><trkpt lat="40.84692" lon="8.2194317"><ele>97.80000000000001</ele><time>2026-04-16T08:23:59.856Z</time></trkpt><trkpt lat="40.8469067" lon="8.2193283"><ele>99.0</ele><time>2026-04-16T08:24:00.856Z</time></trkpt><trkpt lat="40.8468817" lon="8.2192483"><ele>98.0</ele><time>2026-04-16T08:24:01.856Z</time></trkpt><trkpt lat="40.8467783" lon="8.2191633"><ele>97.0</ele><time>2026-04-16T08:24:03.855Z</time></trkpt><trkpt lat="40.8466983" lon="8.219155"><ele>96.0</ele><time>2026-04-16T08:24:04.856Z</time></trkpt><trkpt lat="40.8466" lon="8.2191617"><ele>95.0</ele><time>2026-04-16T08:24:05.856Z</time></trkpt><trkpt lat="40.8464917" lon="8.2191717"><ele>94.0</ele><time>2026-04-16T08:24:06.855Z</time></trkpt><trkpt lat="40.8463783" lon="8.2191717"><ele>94.0</ele><time>2026-04-16T08:24:07.856Z</time></trkpt><trkpt lat="40.84626" lon="8.21917"><ele>94.0</ele><time>2026-04-16T08:24:08.856Z</time></trkpt><trkpt lat="40.8461433" lon="8.2191633"><ele>94.0</ele><time>2026-04-16T08:24:09.856Z</time></trkpt><trkpt lat="40.84605" lon="8.2191717"><ele>94.0</ele><time>2026-04-16T08:24:10.855Z</time></trkpt><trkpt lat="40.8459783" lon="8.2191867"><ele>94.0</ele><time>2026-04-16T08:24:11.856Z</time></trkpt><trkpt lat="40.845895" lon="8.2192167"><ele>93.0</ele><time>2026-04-16T08:24:13.856Z</time></trkpt><trkpt lat="40.8458183" lon="8.219205"><ele>92.0</ele><time>2026-04-16T08:24:35.855Z</time></trkpt><trkpt lat="40.84585" lon="8.2190933"><ele>91.0</ele><time>2026-04-16T08:24:38.856Z</time></trkpt><trkpt lat="40.84587" lon="8.2189217"><ele>90.0</ele><time>2026-04-16T08:24:40.856Z</time></trkpt><trkpt lat="40.8458767" lon="8.2188067"><ele>89.0</ele><time>2026-04-16T08:24:41.855Z</time></trkpt><trkpt lat="40.84588" lon="8.2186833"><ele>89.0</ele><time>2026-04-16T08:24:42.856Z</time></trkpt><trkpt lat="40.8458733" lon="8.2185567"><ele>89.0</ele><time>2026-04-16T08:24:43.855Z</time></trkpt><trkpt lat="40.8458633" lon="8.21844"><ele>89.0</ele><time>2026-04-16T08:24:44.856Z</time></trkpt><trkpt lat="40.8458383" lon="8.2183317"><ele>89.0</ele><time>2026-04-16T08:24:45.856Z</time></trkpt><trkpt lat="40.845805" lon="8.218235"><ele>89.0</ele><time>2026-04-16T08:24:46.856Z</time></trkpt><trkpt lat="40.8457617" lon="8.21814"><ele>89.0</ele><time>2026-04-16T08:24:47.855Z</time></trkpt><trkpt lat="40.8457033" lon="8.2180583"><ele>89.0</ele><time>2026-04-16T08:24:48.855Z</time></trkpt><trkpt lat="40.8456467" lon="8.2179617"><ele>89.0</ele><time>2026-04-16T08:24:49.856Z</time></trkpt><trkpt lat="40.84559" lon="8.2178517"><ele>89.0</ele><time>2026-04-16T08:24:50.856Z</time></trkpt><trkpt lat="40.845535" lon="8.2177583"><ele>89.0</ele><time>2026-04-16T08:24:51.856Z</time></trkpt><trkpt lat="40.84546" lon="8.21768"><ele>89.0</ele><time>2026-04-16T08:24:52.856Z</time></trkpt><trkpt lat="40.8453667" lon="8.217615"><ele>89.0</ele><time>2026-04-16T08:24:53.856Z</time></trkpt><trkpt lat="40.8452767" lon="8.21756"><ele>89.0</ele><time>2026-04-16T08:24:54.856Z</time></trkpt><trkpt lat="40.845205" lon="8.2175017"><ele>89.0</ele><time>2026-04-16T08:24:55.856Z</time></trkpt><trkpt lat="40.8451367" lon="8.217425"><ele>89.0</ele><time>2026-04-16T08:24:56.855Z</time></trkpt><trkpt lat="40.8450617" lon="8.2173183"><ele>89.0</ele><time>2026-04-16T08:24:57.855Z</time></trkpt><trkpt lat="40.844985" lon="8.2171967"><ele>88.5</ele><time>2026-04-16T08:24:58.855Z</time></trkpt><trkpt lat="40.8449083" lon="8.2170683"><ele>88.0</ele><time>2026-04-16T08:24:59.856Z</time></trkpt><trkpt lat="40.8448233" lon="8.2169483"><ele>87.5</ele><time>2026-04-16T08:25:00.856Z</time></trkpt><trkpt lat="40.84472" lon="8.2168383"><ele>87.0</ele><time>2026-04-16T08:25:01.856Z</time></trkpt><trkpt lat="40.8446217" lon="8.2167333"><ele>87.0</ele><time>2026-04-16T08:25:02.856Z</time></trkpt><trkpt lat="40.84454" lon="8.216635"><ele>87.0</ele><time>2026-04-16T08:25:03.856Z</time></trkpt><trkpt lat="40.844465" lon="8.2165467"><ele>87.0</ele><time>2026-04-16T08:25:04.856Z</time></trkpt><trkpt lat="40.8443933" lon="8.2164433"><ele>87.0</ele><time>2026-04-16T08:25:05.855Z</time></trkpt><trkpt lat="40.8443217" lon="8.21634"><ele>87.0</ele><time>2026-04-16T08:25:06.856Z</time></trkpt><trkpt lat="40.84424" lon="8.216245"><ele>86.19999999999999</ele><time>2026-04-16T08:25:07.856Z</time></trkpt><trkpt lat="40.844145" lon="8.2161483"><ele>85.4</ele><time>2026-04-16T08:25:08.855Z</time></trkpt><trkpt lat="40.84405" lon="8.2160417"><ele>84.6</ele><time>2026-04-16T08:25:09.856Z</time></trkpt><trkpt lat="40.8439617" lon="8.2159633"><ele>83.80000000000001</ele><time>2026-04-16T08:25:10.856Z</time></trkpt><trkpt lat="40.84389" lon="8.21589"><ele>83.0</ele><time>2026-04-16T08:25:11.856Z</time></trkpt><trkpt lat="40.8438267" lon="8.2158217"><ele>83.0</ele><time>2026-04-16T08:25:12.856Z</time></trkpt><trkpt lat="40.843775" lon="8.2157367"><ele>83.0</ele><time>2026-04-16T08:25:13.856Z</time></trkpt><trkpt lat="40.8437283" lon="8.2156433"><ele>83.0</ele><time>2026-04-16T08:25:14.856Z</time></trkpt><trkpt lat="40.843675" lon="8.2155283"><ele>83.0</ele><time>2026-04-16T08:25:15.856Z</time></trkpt><trkpt lat="40.8436183" lon="8.2154167"><ele>83.0</ele><time>2026-04-16T08:25:16.855Z</time></trkpt><trkpt lat="40.8435583" lon="8.21532"><ele>82.80000000000001</ele><time>2026-04-16T08:25:17.856Z</time></trkpt><trkpt lat="40.8435017" lon="8.2152283"><ele>82.6</ele><time>2026-04-16T08:25:18.856Z</time></trkpt><trkpt lat="40.843455" lon="8.215145"><ele>82.4</ele><time>2026-04-16T08:25:19.855Z</time></trkpt><trkpt lat="40.8434283" lon="8.2149967"><ele>82.19999999999999</ele><time>2026-04-16T08:25:21.855Z</time></trkpt><trkpt lat="40.8434417" lon="8.2148867"><ele>82.0</ele><time>2026-04-16T08:25:22.855Z</time></trkpt><trkpt lat="40.84346" lon="8.2147617"><ele>81.39999999999999</ele><time>2026-04-16T08:25:23.855Z</time></trkpt><trkpt lat="40.8434567" lon="8.21464"><ele>80.8</ele><time>2026-04-16T08:25:24.855Z</time></trkpt><trkpt lat="40.843435" lon="8.21452"><ele>80.2</ele><time>2026-04-16T08:25:25.856Z</time></trkpt><trkpt lat="40.84339" lon="8.2143983"><ele>79.6</ele><time>2026-04-16T08:25:26.856Z</time></trkpt><trkpt lat="40.843345" lon="8.2142817"><ele>79.0</ele><time>2026-04-16T08:25:27.856Z</time></trkpt><trkpt lat="40.8433217" lon="8.21418"><ele>79.0</ele><time>2026-04-16T08:25:28.855Z</time></trkpt><trkpt lat="40.8433217" lon="8.2140767"><ele>79.0</ele><time>2026-04-16T08:25:29.855Z</time></trkpt><trkpt lat="40.8433367" lon="8.2139567"><ele>79.0</ele><time>2026-04-16T08:25:30.856Z</time></trkpt><trkpt lat="40.8433667" lon="8.2138333"><ele>79.0</ele><time>2026-04-16T08:25:31.855Z</time></trkpt><trkpt lat="40.8434117" lon="8.2137033"><ele>79.0</ele><time>2026-04-16T08:25:32.856Z</time></trkpt><trkpt lat="40.8434633" lon="8.213565"><ele>79.5</ele><time>2026-04-16T08:25:33.856Z</time></trkpt><trkpt lat="40.8435167" lon="8.2134117"><ele>80.0</ele><time>2026-04-16T08:25:34.855Z</time></trkpt><trkpt lat="40.8435767" lon="8.2132667"><ele>80.5</ele><time>2026-04-16T08:25:35.856Z</time></trkpt><trkpt lat="40.843625" lon="8.2131067"><ele>81.0</ele><time>2026-04-16T08:25:36.856Z</time></trkpt><trkpt lat="40.8436717" lon="8.2129367"><ele>82.0</ele><time>2026-04-16T08:25:37.856Z</time></trkpt><trkpt lat="40.8437167" lon="8.212765"><ele>83.0</ele><time>2026-04-16T08:25:38.856Z</time></trkpt><trkpt lat="40.8437617" lon="8.2125917"><ele>84.0</ele><time>2026-04-16T08:25:39.855Z</time></trkpt><trkpt lat="40.8438133" lon="8.21241"><ele>85.0</ele><time>2026-04-16T08:25:40.856Z</time></trkpt><trkpt lat="40.8438617" lon="8.2122417"><ele>85.25</ele><time>2026-04-16T08:25:41.855Z</time></trkpt><trkpt lat="40.84391" lon="8.2120833"><ele>85.5</ele><time>2026-04-16T08:25:42.856Z</time></trkpt><trkpt lat="40.8439683" lon="8.2119133"><ele>85.75</ele><time>2026-04-16T08:25:43.856Z</time></trkpt><trkpt lat="40.8440383" lon="8.2117333"><ele>86.0</ele><time>2026-04-16T08:25:44.856Z</time></trkpt><trkpt lat="40.8441067" lon="8.2115567"><ele>85.75</ele><time>2026-04-16T08:25:45.856Z</time></trkpt><trkpt lat="40.844165" lon="8.2113733"><ele>85.5</ele><time>2026-04-16T08:25:46.856Z</time></trkpt><trkpt lat="40.8442133" lon="8.21121"><ele>85.25</ele><time>2026-04-16T08:25:47.856Z</time></trkpt><trkpt lat="40.84426" lon="8.2110767"><ele>85.0</ele><time>2026-04-16T08:25:48.856Z</time></trkpt><trkpt lat="40.844295" lon="8.2109617"><ele>85.2</ele><time>2026-04-16T08:25:49.855Z</time></trkpt><trkpt lat="40.84432" lon="8.2108433"><ele>85.4</ele><time>2026-04-16T08:25:50.855Z</time></trkpt><trkpt lat="40.8443367" lon="8.2107033"><ele>85.6</ele><time>2026-04-16T08:25:51.856Z</time></trkpt><trkpt lat="40.8443467" lon="8.2105767"><ele>85.8</ele><time>2026-04-16T08:25:52.856Z</time></trkpt><trkpt lat="40.84434" lon="8.21046"><ele>86.0</ele><time>2026-04-16T08:25:53.856Z</time></trkpt><trkpt lat="40.8443083" lon="8.210345"><ele>86.19999999999999</ele><time>2026-04-16T08:25:54.855Z</time></trkpt><trkpt lat="40.844255" lon="8.2102517"><ele>86.39999999999999</ele><time>2026-04-16T08:25:55.856Z</time></trkpt><trkpt lat="40.844185" lon="8.2101833"><ele>86.6</ele><time>2026-04-16T08:25:56.856Z</time></trkpt><trkpt lat="40.8441017" lon="8.210145"><ele>86.8</ele><time>2026-04-16T08:25:57.856Z</time></trkpt><trkpt lat="40.8440017" lon="8.2101317"><ele>87.0</ele><time>2026-04-16T08:25:58.856Z</time></trkpt><trkpt lat="40.8438883" lon="8.210145"><ele>87.0</ele><time>2026-04-16T08:25:59.856Z</time></trkpt><trkpt lat="40.8438017" lon="8.210175"><ele>87.0</ele><time>2026-04-16T08:26:00.856Z</time></trkpt><trkpt lat="40.843705" lon="8.2102267"><ele>87.0</ele><time>2026-04-16T08:26:02.856Z</time></trkpt><trkpt lat="40.8436033" lon="8.2102433"><ele>87.0</ele><time>2026-04-16T08:27:15.855Z</time></trkpt><trkpt lat="40.8435133" lon="8.2101867"><ele>87.0</ele><time>2026-04-16T08:27:17.854Z</time></trkpt><trkpt lat="40.8434567" lon="8.2101367"><ele>87.0</ele><time>2026-04-16T08:27:18.855Z</time></trkpt><trkpt lat="40.8433933" lon="8.2100867"><ele>87.0</ele><time>2026-04-16T08:27:19.855Z</time></trkpt><trkpt lat="40.84332" lon="8.2100567"><ele>87.0</ele><time>2026-04-16T08:27:20.855Z</time></trkpt><trkpt lat="40.8432483" lon="8.21004"><ele>87.0</ele><time>2026-04-16T08:27:21.855Z</time></trkpt><trkpt lat="40.8431817" lon="8.2100317"><ele>87.0</ele><time>2026-04-16T08:27:22.855Z</time></trkpt><trkpt lat="40.8431117" lon="8.21001"><ele>87.0</ele><time>2026-04-16T08:27:23.855Z</time></trkpt><trkpt lat="40.84305" lon="8.20998"><ele>87.0</ele><time>2026-04-16T08:27:24.855Z</time></trkpt><trkpt lat="40.842995" lon="8.20993"><ele>87.0</ele><time>2026-04-16T08:27:25.854Z</time></trkpt><trkpt lat="40.8429417" lon="8.2098633"><ele>87.0</ele><time>2026-04-16T08:27:26.854Z</time></trkpt><trkpt lat="40.8428867" lon="8.2097933"><ele>87.0</ele><time>2026-04-16T08:27:27.854Z</time></trkpt><trkpt lat="40.84283" lon="8.20972"><ele>87.0</ele><time>2026-04-16T08:27:28.854Z</time></trkpt><trkpt lat="40.8427717" lon="8.2096483"><ele>87.0</ele><time>2026-04-16T08:27:29.854Z</time></trkpt><trkpt lat="40.8427017" lon="8.2095667"><ele>87.0</ele><time>2026-04-16T08:27:30.855Z</time></trkpt><trkpt lat="40.8426183" lon="8.209485"><ele>87.19999999999999</ele><time>2026-04-16T08:27:31.855Z</time></trkpt><trkpt lat="40.84253" lon="8.20942"><ele>87.4</ele><time>2026-04-16T08:27:32.854Z</time></trkpt><trkpt lat="40.842445" lon="8.2093583"><ele>87.6</ele><time>2026-04-16T08:27:33.855Z</time></trkpt><trkpt lat="40.842375" lon="8.2092833"><ele>87.80000000000001</ele><time>2026-04-16T08:27:34.855Z</time></trkpt><trkpt lat="40.8423233" lon="8.209195"><ele>88.0</ele><time>2026-04-16T08:27:35.855Z</time></trkpt><trkpt lat="40.8422767" lon="8.2090917"><ele>87.5</ele><time>2026-04-16T08:27:36.855Z</time></trkpt><trkpt lat="40.84223" lon="8.2089683"><ele>87.0</ele><time>2026-04-16T08:27:37.855Z</time></trkpt><trkpt lat="40.8421833" lon="8.2088283"><ele>86.5</ele><time>2026-04-16T08:27:38.855Z</time></trkpt><trkpt lat="40.8421467" lon="8.20868"><ele>86.0</ele><time>2026-04-16T08:27:39.855Z</time></trkpt><trkpt lat="40.8421117" lon="8.20853"><ele>86.0</ele><time>2026-04-16T08:27:40.854Z</time></trkpt><trkpt lat="40.8420733" lon="8.2083867"><ele>86.0</ele><time>2026-04-16T08:27:41.855Z</time></trkpt><trkpt lat="40.84203" lon="8.20828"><ele>86.0</ele><time>2026-04-16T08:27:42.855Z</time></trkpt><trkpt lat="40.8419667" lon="8.2081883"><ele>86.0</ele><time>2026-04-16T08:27:43.854Z</time></trkpt><trkpt lat="40.8418967" lon="8.20809"><ele>86.0</ele><time>2026-04-16T08:27:44.855Z</time></trkpt><trkpt lat="40.841825" lon="8.2079683"><ele>85.4</ele><time>2026-04-16T08:27:45.854Z</time></trkpt><trkpt lat="40.8417717" lon="8.2078517"><ele>84.8</ele><time>2026-04-16T08:27:46.855Z</time></trkpt><trkpt lat="40.8417333" lon="8.207755"><ele>84.2</ele><time>2026-04-16T08:27:47.854Z</time></trkpt><trkpt lat="40.84169" lon="8.207685"><ele>83.60000000000001</ele><time>2026-04-16T08:27:48.855Z</time></trkpt><trkpt lat="40.84157" lon="8.207625"><ele>83.0</ele><time>2026-04-16T08:27:50.855Z</time></trkpt><trkpt lat="40.8415" lon="8.2075917"><ele>83.0</ele><time>2026-04-16T08:27:51.854Z</time></trkpt><trkpt lat="40.84143" lon="8.2075383"><ele>83.0</ele><time>2026-04-16T08:27:52.854Z</time></trkpt><trkpt lat="40.841345" lon="8.207455"><ele>83.0</ele><time>2026-04-16T08:27:53.855Z</time></trkpt><trkpt lat="40.8412583" lon="8.2073617"><ele>83.0</ele><time>2026-04-16T08:27:54.855Z</time></trkpt><trkpt lat="40.8411867" lon="8.2072717"><ele>83.0</ele><time>2026-04-16T08:27:55.855Z</time></trkpt><trkpt lat="40.8411367" lon="8.20715"><ele>83.0</ele><time>2026-04-16T08:27:56.855Z</time></trkpt><trkpt lat="40.8410917" lon="8.20702"><ele>83.0</ele><time>2026-04-16T08:27:57.854Z</time></trkpt><trkpt lat="40.841035" lon="8.2069117"><ele>83.0</ele><time>2026-04-16T08:27:58.854Z</time></trkpt><trkpt lat="40.8409567" lon="8.206805"><ele>83.0</ele><time>2026-04-16T08:27:59.854Z</time></trkpt><trkpt lat="40.8408767" lon="8.2066983"><ele>83.0</ele><time>2026-04-16T08:28:00.854Z</time></trkpt><trkpt lat="40.8408117" lon="8.2065667"><ele>82.5</ele><time>2026-04-16T08:28:01.854Z</time></trkpt><trkpt lat="40.8407667" lon="8.206415"><ele>82.0</ele><time>2026-04-16T08:28:02.855Z</time></trkpt><trkpt lat="40.84073" lon="8.20626"><ele>81.5</ele><time>2026-04-16T08:28:03.855Z</time></trkpt><trkpt lat="40.8407017" lon="8.2061017"><ele>81.0</ele><time>2026-04-16T08:28:04.854Z</time></trkpt><trkpt lat="40.8406933" lon="8.2059567"><ele>81.0</ele><time>2026-04-16T08:28:05.855Z</time></trkpt><trkpt lat="40.84069" lon="8.2058367"><ele>81.0</ele><time>2026-04-16T08:28:06.855Z</time></trkpt><trkpt lat="40.8406733" lon="8.2057317"><ele>81.0</ele><time>2026-04-16T08:28:07.854Z</time></trkpt><trkpt lat="40.8405917" lon="8.2056217"><ele>81.0</ele><time>2026-04-16T08:28:09.855Z</time></trkpt><trkpt lat="40.8405217" lon="8.20559"><ele>81.0</ele><time>2026-04-16T08:28:10.854Z</time></trkpt><trkpt lat="40.8404483" lon="8.2055233"><ele>81.0</ele><time>2026-04-16T08:28:11.855Z</time></trkpt><trkpt lat="40.8403717" lon="8.2054167"><ele>81.0</ele><time>2026-04-16T08:28:12.854Z</time></trkpt><trkpt lat="40.8402967" lon="8.20528"><ele>81.0</ele><time>2026-04-16T08:28:13.855Z</time></trkpt><trkpt lat="40.840235" lon="8.2051467"><ele>81.0</ele><time>2026-04-16T08:28:14.855Z</time></trkpt><trkpt lat="40.8401783" lon="8.2050533"><ele>81.0</ele><time>2026-04-16T08:28:15.855Z</time></trkpt><trkpt lat="40.840055" lon="8.2049983"><ele>80.5</ele><time>2026-04-16T08:28:17.854Z</time></trkpt><trkpt lat="40.839955" lon="8.2049933"><ele>80.0</ele><time>2026-04-16T08:28:18.854Z</time></trkpt><trkpt lat="40.8398367" lon="8.2049717"><ele>79.5</ele><time>2026-04-16T08:28:19.855Z</time></trkpt><trkpt lat="40.839705" lon="8.2049317"><ele>79.0</ele><time>2026-04-16T08:28:20.855Z</time></trkpt><trkpt lat="40.839585" lon="8.2048967"><ele>79.0</ele><time>2026-04-16T08:28:21.855Z</time></trkpt><trkpt lat="40.8394733" lon="8.2048467"><ele>79.0</ele><time>2026-04-16T08:28:22.855Z</time></trkpt><trkpt lat="40.8393533" lon="8.2047883"><ele>79.0</ele><time>2026-04-16T08:28:23.854Z</time></trkpt><trkpt lat="40.8392233" lon="8.2047267"><ele>79.0</ele><time>2026-04-16T08:28:24.855Z</time></trkpt><trkpt lat="40.8390983" lon="8.2046533"><ele>78.83333333333333</ele><time>2026-04-16T08:28:25.855Z</time></trkpt><trkpt lat="40.8389967" lon="8.20458"><ele>78.66666666666666</ele><time>2026-04-16T08:28:26.855Z</time></trkpt><trkpt lat="40.838925" lon="8.2045217"><ele>78.5</ele><time>2026-04-16T08:28:27.854Z</time></trkpt><trkpt lat="40.8388567" lon="8.204485"><ele>78.33333333333333</ele><time>2026-04-16T08:28:29.854Z</time></trkpt><trkpt lat="40.83878" lon="8.2045017"><ele>78.16666666666667</ele><time>2026-04-16T08:29:00.854Z</time></trkpt><trkpt lat="40.8387083" lon="8.2045267"><ele>78.0</ele><time>2026-04-16T08:29:02.855Z</time></trkpt><trkpt lat="40.8386217" lon="8.2045633"><ele>78.0</ele><time>2026-04-16T08:29:04.854Z</time></trkpt><trkpt lat="40.8385317" lon="8.2045817"><ele>78.0</ele><time>2026-04-16T08:29:19.855Z</time></trkpt><trkpt lat="40.838465" lon="8.2045933"><ele>78.0</ele><time>2026-04-16T08:29:20.855Z</time></trkpt><trkpt lat="40.83839" lon="8.2046083"><ele>78.0</ele><time>2026-04-16T08:29:21.855Z</time></trkpt><trkpt lat="40.83831" lon="8.2046183"><ele>78.0</ele><time>2026-04-16T08:29:22.854Z</time></trkpt><trkpt lat="40.8382267" lon="8.2046283"><ele>78.0</ele><time>2026-04-16T08:29:23.855Z</time></trkpt><trkpt lat="40.8381417" lon="8.204635"><ele>77.33333333333333</ele><time>2026-04-16T08:29:24.854Z</time></trkpt><trkpt lat="40.8380517" lon="8.204635"><ele>76.66666666666667</ele><time>2026-04-16T08:29:25.855Z</time></trkpt><trkpt lat="40.83796" lon="8.20464"><ele>76.0</ele><time>2026-04-16T08:29:26.854Z</time></trkpt><trkpt lat="40.8378717" lon="8.20465"><ele>75.33333333333334</ele><time>2026-04-16T08:29:27.855Z</time></trkpt><trkpt lat="40.83779" lon="8.204665"><ele>74.66666666666667</ele><time>2026-04-16T08:29:28.855Z</time></trkpt><trkpt lat="40.8377167" lon="8.2046817"><ele>74.0</ele><time>2026-04-16T08:29:29.854Z</time></trkpt><trkpt lat="40.8376433" lon="8.2047083"><ele>73.4</ele><time>2026-04-16T08:29:30.855Z</time></trkpt><trkpt lat="40.8375683" lon="8.20474"><ele>72.80000000000001</ele><time>2026-04-16T08:29:31.854Z</time></trkpt><trkpt lat="40.8374867" lon="8.2047833"><ele>72.19999999999999</ele><time>2026-04-16T08:29:32.854Z</time></trkpt><trkpt lat="40.8373883" lon="8.2048467"><ele>71.6</ele><time>2026-04-16T08:29:33.854Z</time></trkpt><trkpt lat="40.8372867" lon="8.20492"><ele>71.0</ele><time>2026-04-16T08:29:34.854Z</time></trkpt><trkpt lat="40.8371883" lon="8.2049983"><ele>71.0</ele><time>2026-04-16T08:29:35.854Z</time></trkpt><trkpt lat="40.8370917" lon="8.2050733"><ele>71.0</ele><time>2026-04-16T08:29:36.853Z</time></trkpt><trkpt lat="40.8369933" lon="8.20514"><ele>71.0</ele><time>2026-04-16T08:29:37.853Z</time></trkpt><trkpt lat="40.8368933" lon="8.2052067"><ele>71.0</ele><time>2026-04-16T08:29:38.853Z</time></trkpt><trkpt lat="40.8367983" lon="8.2052733"><ele>71.0</ele><time>2026-04-16T08:29:39.853Z</time></trkpt><trkpt lat="40.8367033" lon="8.2053433"><ele>70.2</ele><time>2026-04-16T08:29:40.854Z</time></trkpt><trkpt lat="40.836615" lon="8.2054133"><ele>69.39999999999999</ele><time>2026-04-16T08:29:41.854Z</time></trkpt><trkpt lat="40.8365233" lon="8.2054733"><ele>68.6</ele><time>2026-04-16T08:29:42.854Z</time></trkpt><trkpt lat="40.8364217" lon="8.2055333"><ele>67.8</ele><time>2026-04-16T08:29:43.853Z</time></trkpt><trkpt lat="40.8363183" lon="8.2055933"><ele>67.0</ele><time>2026-04-16T08:29:44.853Z</time></trkpt><trkpt lat="40.8362233" lon="8.205655"><ele>66.8</ele><time>2026-04-16T08:29:45.854Z</time></trkpt><trkpt lat="40.836135" lon="8.2057083"><ele>66.6</ele><time>2026-04-16T08:29:46.854Z</time></trkpt><trkpt lat="40.8360567" lon="8.2057517"><ele>66.39999999999999</ele><time>2026-04-16T08:29:47.853Z</time></trkpt><trkpt lat="40.8359733" lon="8.2058067"><ele>66.2</ele><time>2026-04-16T08:29:48.854Z</time></trkpt><trkpt lat="40.83589" lon="8.2058483"><ele>66.0</ele><time>2026-04-16T08:29:49.853Z</time></trkpt><trkpt lat="40.835805" lon="8.2058933"><ele>66.0</ele><time>2026-04-16T08:29:50.854Z</time></trkpt><trkpt lat="40.8357167" lon="8.2059367"><ele>66.0</ele><time>2026-04-16T08:29:51.853Z</time></trkpt><trkpt lat="40.8356233" lon="8.2059867"><ele>66.0</ele><time>2026-04-16T08:29:52.854Z</time></trkpt><trkpt lat="40.8355417" lon="8.2060467"><ele>66.0</ele><time>2026-04-16T08:29:53.853Z</time></trkpt><trkpt lat="40.8354633" lon="8.206105"><ele>66.0</ele><time>2026-04-16T08:29:54.853Z</time></trkpt><trkpt lat="40.8353883" lon="8.206175"><ele>66.0</ele><time>2026-04-16T08:29:55.853Z</time></trkpt><trkpt lat="40.83532" lon="8.20625"><ele>66.0</ele><time>2026-04-16T08:29:56.853Z</time></trkpt><trkpt lat="40.8352583" lon="8.206325"><ele>66.0</ele><time>2026-04-16T08:29:57.854Z</time></trkpt><trkpt lat="40.8352083" lon="8.206405"><ele>66.0</ele><time>2026-04-16T08:29:58.854Z</time></trkpt><trkpt lat="40.8351633" lon="8.2064883"><ele>66.0</ele><time>2026-04-16T08:29:59.854Z</time></trkpt><trkpt lat="40.8351133" lon="8.206575"><ele>66.0</ele><time>2026-04-16T08:30:00.854Z</time></trkpt><trkpt lat="40.8350567" lon="8.2066467"><ele>65.83333333333333</ele><time>2026-04-16T08:30:01.853Z</time></trkpt><trkpt lat="40.8349917" lon="8.2067033"><ele>65.66666666666667</ele><time>2026-04-16T08:30:02.854Z</time></trkpt><trkpt lat="40.8349117" lon="8.206745"><ele>65.5</ele><time>2026-04-16T08:30:03.854Z</time></trkpt><trkpt lat="40.8348183" lon="8.2067717"><ele>65.33333333333334</ele><time>2026-04-16T08:30:04.854Z</time></trkpt><trkpt lat="40.8347367" lon="8.2067967"><ele>65.16666666666667</ele><time>2026-04-16T08:30:05.853Z</time></trkpt><trkpt lat="40.83466" lon="8.2068233"><ele>65.0</ele><time>2026-04-16T08:30:06.854Z</time></trkpt><trkpt lat="40.8345917" lon="8.2068433"><ele>65.00000000000001</ele><time>2026-04-16T08:30:07.854Z</time></trkpt><trkpt lat="40.8345217" lon="8.2068667"><ele>65.0</ele><time>2026-04-16T08:30:08.854Z</time></trkpt><trkpt lat="40.8344567" lon="8.20689"><ele>65.0</ele><time>2026-04-16T08:30:09.854Z</time></trkpt><trkpt lat="40.834395" lon="8.2069167"><ele>65.0</ele><time>2026-04-16T08:30:10.854Z</time></trkpt><trkpt lat="40.8343283" lon="8.2069367"><ele>65.0</ele><time>2026-04-16T08:30:11.853Z</time></trkpt><trkpt lat="40.834255" lon="8.20695"><ele>65.00000000000001</ele><time>2026-04-16T08:30:12.854Z</time></trkpt><trkpt lat="40.83418" lon="8.2069617"><ele>65.0</ele><time>2026-04-16T08:30:13.853Z</time></trkpt><trkpt lat="40.8341017" lon="8.2069767"><ele>65.0</ele><time>2026-04-16T08:30:14.854Z</time></trkpt><trkpt lat="40.8340217" lon="8.207"><ele>65.0</ele><time>2026-04-16T08:30:15.853Z</time></trkpt><trkpt lat="40.8339267" lon="8.207025"><ele>65.0</ele><time>2026-04-16T08:30:16.853Z</time></trkpt><trkpt lat="40.83383" lon="8.2070417"><ele>65.0</ele><time>2026-04-16T08:30:17.854Z</time></trkpt><trkpt lat="40.8337117" lon="8.2070517"><ele>65.0</ele><time>2026-04-16T08:30:18.853Z</time></trkpt><trkpt lat="40.8335867" lon="8.2070717"><ele>64.0</ele><time>2026-04-16T08:30:19.854Z</time></trkpt><trkpt lat="40.8334633" lon="8.2070967"><ele>63.0</ele><time>2026-04-16T08:30:20.853Z</time></trkpt><trkpt lat="40.83335" lon="8.2071333"><ele>62.0</ele><time>2026-04-16T08:30:21.854Z</time></trkpt><trkpt lat="40.8332433" lon="8.2071617"><ele>61.0</ele><time>2026-04-16T08:30:22.854Z</time></trkpt><trkpt lat="40.8331417" lon="8.2071883"><ele>60.99999999999999</ele><time>2026-04-16T08:30:23.854Z</time></trkpt><trkpt lat="40.8330417" lon="8.2072033"><ele>61.0</ele><time>2026-04-16T08:30:24.854Z</time></trkpt><trkpt lat="40.8329483" lon="8.2072017"><ele>61.0</ele><time>2026-04-16T08:30:25.854Z</time></trkpt><trkpt lat="40.8328633" lon="8.2071883"><ele>61.0</ele><time>2026-04-16T08:30:26.854Z</time></trkpt><trkpt lat="40.8327833" lon="8.2071667"><ele>60.99999999999999</ele><time>2026-04-16T08:30:27.854Z</time></trkpt><trkpt lat="40.8327083" lon="8.2071333"><ele>61.0</ele><time>2026-04-16T08:30:28.853Z</time></trkpt><trkpt lat="40.83262" lon="8.20708"><ele>60.599999999999994</ele><time>2026-04-16T08:30:29.854Z</time></trkpt><trkpt lat="40.832535" lon="8.207025"><ele>60.199999999999996</ele><time>2026-04-16T08:30:30.854Z</time></trkpt><trkpt lat="40.83244" lon="8.2069733"><ele>59.800000000000004</ele><time>2026-04-16T08:30:31.854Z</time></trkpt><trkpt lat="40.832345" lon="8.2069217"><ele>59.400000000000006</ele><time>2026-04-16T08:30:32.853Z</time></trkpt><trkpt lat="40.8322583" lon="8.20687"><ele>59.0</ele><time>2026-04-16T08:30:33.854Z</time></trkpt><trkpt lat="40.8321833" lon="8.2068333"><ele>59.0</ele><time>2026-04-16T08:30:34.853Z</time></trkpt><trkpt lat="40.8321183" lon="8.2068133"><ele>59.0</ele><time>2026-04-16T08:30:35.853Z</time></trkpt><trkpt lat="40.83205" lon="8.2067983"><ele>59.0</ele><time>2026-04-16T08:30:36.854Z</time></trkpt><trkpt lat="40.8319867" lon="8.2067917"><ele>59.0</ele><time>2026-04-16T08:30:37.854Z</time></trkpt><trkpt lat="40.8319167" lon="8.2067883"><ele>59.0</ele><time>2026-04-16T08:30:38.853Z</time></trkpt><trkpt lat="40.8318367" lon="8.2068083"><ele>59.0</ele><time>2026-04-16T08:30:39.854Z</time></trkpt><trkpt lat="40.8317533" lon="8.2068267"><ele>59.0</ele><time>2026-04-16T08:30:40.854Z</time></trkpt><trkpt lat="40.8316683" lon="8.206845"><ele>59.2</ele><time>2026-04-16T08:30:41.853Z</time></trkpt><trkpt lat="40.8315883" lon="8.206855"><ele>59.400000000000006</ele><time>2026-04-16T08:30:42.854Z</time></trkpt><trkpt lat="40.8315233" lon="8.2068633"><ele>59.6</ele><time>2026-04-16T08:30:43.854Z</time></trkpt><trkpt lat="40.8314167" lon="8.2069017"><ele>59.8</ele><time>2026-04-16T08:30:45.854Z</time></trkpt><trkpt lat="40.8312883" lon="8.2069767"><ele>60.0</ele><time>2026-04-16T08:30:47.854Z</time></trkpt><trkpt lat="40.8312067" lon="8.2070333"><ele>60.0</ele><time>2026-04-16T08:30:48.854Z</time></trkpt><trkpt lat="40.831115" lon="8.20711"><ele>60.0</ele><time>2026-04-16T08:30:49.854Z</time></trkpt><trkpt lat="40.8310333" lon="8.2071867"><ele>60.0</ele><time>2026-04-16T08:30:50.854Z</time></trkpt><trkpt lat="40.8309467" lon="8.2072417"><ele>60.0</ele><time>2026-04-16T08:30:51.854Z</time></trkpt><trkpt lat="40.8308483" lon="8.2072917"><ele>60.0</ele><time>2026-04-16T08:30:52.854Z</time></trkpt><trkpt lat="40.8307567" lon="8.20737"><ele>59.8</ele><time>2026-04-16T08:30:53.854Z</time></trkpt><trkpt lat="40.8306717" lon="8.20747"><ele>59.6</ele><time>2026-04-16T08:30:54.854Z</time></trkpt><trkpt lat="40.8305933" lon="8.20758"><ele>59.400000000000006</ele><time>2026-04-16T08:30:55.853Z</time></trkpt><trkpt lat="40.8305217" lon="8.2076717"><ele>59.2</ele><time>2026-04-16T08:30:56.853Z</time></trkpt><trkpt lat="40.8304417" lon="8.2077533"><ele>59.0</ele><time>2026-04-16T08:30:57.853Z</time></trkpt><trkpt lat="40.8303483" lon="8.2078367"><ele>59.0</ele><time>2026-04-16T08:30:58.854Z</time></trkpt><trkpt lat="40.8302533" lon="8.2079133"><ele>59.00000000000001</ele><time>2026-04-16T08:30:59.853Z</time></trkpt><trkpt lat="40.8301683" lon="8.2080017"><ele>59.00000000000001</ele><time>2026-04-16T08:31:00.854Z</time></trkpt><trkpt lat="40.8300917" lon="8.2081117"><ele>59.0</ele><time>2026-04-16T08:31:01.854Z</time></trkpt><trkpt lat="40.8300317" lon="8.2082217"><ele>59.0</ele><time>2026-04-16T08:31:02.854Z</time></trkpt><trkpt lat="40.8299933" lon="8.2083233"><ele>58.2</ele><time>2026-04-16T08:31:03.854Z</time></trkpt><trkpt lat="40.8299767" lon="8.2084367"><ele>57.400000000000006</ele><time>2026-04-16T08:31:04.853Z</time></trkpt><trkpt lat="40.8299783" lon="8.208575"><ele>56.6</ele><time>2026-04-16T08:31:05.853Z</time></trkpt><trkpt lat="40.8299867" lon="8.208725"><ele>55.8</ele><time>2026-04-16T08:31:06.853Z</time></trkpt><trkpt lat="40.8299917" lon="8.2088883"><ele>55.0</ele><time>2026-04-16T08:31:07.854Z</time></trkpt><trkpt lat="40.8299983" lon="8.2090567"><ele>54.6</ele><time>2026-04-16T08:31:08.854Z</time></trkpt><trkpt lat="40.8300067" lon="8.2092117"><ele>54.2</ele><time>2026-04-16T08:31:09.854Z</time></trkpt><trkpt lat="40.83001" lon="8.20935"><ele>53.8</ele><time>2026-04-16T08:31:10.854Z</time></trkpt><trkpt lat="40.8300017" lon="8.2094883"><ele>53.4</ele><time>2026-04-16T08:31:11.854Z</time></trkpt><trkpt lat="40.8299683" lon="8.2096267"><ele>53.0</ele><time>2026-04-16T08:31:12.853Z</time></trkpt><trkpt lat="40.8299317" lon="8.2097583"><ele>53.4</ele><time>2026-04-16T08:31:13.853Z</time></trkpt><trkpt lat="40.8299" lon="8.2098817"><ele>53.8</ele><time>2026-04-16T08:31:14.853Z</time></trkpt><trkpt lat="40.8298817" lon="8.2100267"><ele>54.2</ele><time>2026-04-16T08:31:15.853Z</time></trkpt><trkpt lat="40.8298667" lon="8.21019"><ele>54.6</ele><time>2026-04-16T08:31:16.854Z</time></trkpt><trkpt lat="40.82985" lon="8.210335"><ele>55.0</ele><time>2026-04-16T08:31:17.853Z</time></trkpt><trkpt lat="40.8298283" lon="8.210475"><ele>54.99999999999999</ele><time>2026-04-16T08:31:18.853Z</time></trkpt><trkpt lat="40.8298167" lon="8.2106017"><ele>55.0</ele><time>2026-04-16T08:31:19.853Z</time></trkpt><trkpt lat="40.8298" lon="8.2107067"><ele>55.0</ele><time>2026-04-16T08:31:20.854Z</time></trkpt><trkpt lat="40.829785" lon="8.2107917"><ele>55.0</ele><time>2026-04-16T08:31:21.854Z</time></trkpt><trkpt lat="40.8297683" lon="8.21094"><ele>54.99999999999999</ele><time>2026-04-16T08:31:23.854Z</time></trkpt><trkpt lat="40.8297317" lon="8.2110183"><ele>55.0</ele><time>2026-04-16T08:31:25.854Z</time></trkpt><trkpt lat="40.8296667" lon="8.21103"><ele>55.4</ele><time>2026-04-16T08:31:27.854Z</time></trkpt><trkpt lat="40.8295683" lon="8.2109667"><ele>55.8</ele><time>2026-04-16T08:31:29.854Z</time></trkpt><trkpt lat="40.8295083" lon="8.2109267"><ele>56.2</ele><time>2026-04-16T08:31:30.854Z</time></trkpt><trkpt lat="40.8294317" lon="8.210885"><ele>56.6</ele><time>2026-04-16T08:31:31.853Z</time></trkpt><trkpt lat="40.82934" lon="8.2108433"><ele>57.0</ele><time>2026-04-16T08:31:32.854Z</time></trkpt><trkpt lat="40.829235" lon="8.2107883"><ele>56.0</ele><time>2026-04-16T08:31:33.853Z</time></trkpt><trkpt lat="40.82912" lon="8.210725"><ele>55.0</ele><time>2026-04-16T08:31:34.854Z</time></trkpt><trkpt lat="40.8290067" lon="8.2106733"><ele>54.0</ele><time>2026-04-16T08:31:35.853Z</time></trkpt><trkpt lat="40.82889" lon="8.2106483"><ele>53.0</ele><time>2026-04-16T08:31:36.854Z</time></trkpt><trkpt lat="40.8287633" lon="8.21063"><ele>52.8</ele><time>2026-04-16T08:31:37.854Z</time></trkpt><trkpt lat="40.8286383" lon="8.210625"><ele>52.599999999999994</ele><time>2026-04-16T08:31:38.853Z</time></trkpt><trkpt lat="40.8285283" lon="8.21059"><ele>52.400000000000006</ele><time>2026-04-16T08:31:39.853Z</time></trkpt><trkpt lat="40.8284317" lon="8.2105467"><ele>52.2</ele><time>2026-04-16T08:31:40.853Z</time></trkpt><trkpt lat="40.8283367" lon="8.2105033"><ele>52.0</ele><time>2026-04-16T08:31:41.854Z</time></trkpt><trkpt lat="40.828245" lon="8.2104367"><ele>52.0</ele><time>2026-04-16T08:31:42.854Z</time></trkpt><trkpt lat="40.8281617" lon="8.2103433"><ele>52.0</ele><time>2026-04-16T08:31:43.853Z</time></trkpt><trkpt lat="40.82809" lon="8.2102367"><ele>52.0</ele><time>2026-04-16T08:31:44.853Z</time></trkpt><trkpt lat="40.828015" lon="8.210105"><ele>52.0</ele><time>2026-04-16T08:31:45.854Z</time></trkpt><trkpt lat="40.8279483" lon="8.209965"><ele>52.0</ele><time>2026-04-16T08:31:46.854Z</time></trkpt><trkpt lat="40.8278817" lon="8.2098167"><ele>52.0</ele><time>2026-04-16T08:31:47.853Z</time></trkpt><trkpt lat="40.827835" lon="8.2096767"><ele>52.0</ele><time>2026-04-16T08:31:48.853Z</time></trkpt><trkpt lat="40.827805" lon="8.209535"><ele>52.0</ele><time>2026-04-16T08:31:49.854Z</time></trkpt><trkpt lat="40.8277833" lon="8.2094017"><ele>51.99999999999999</ele><time>2026-04-16T08:31:50.854Z</time></trkpt><trkpt lat="40.8277667" lon="8.2092933"><ele>52.0</ele><time>2026-04-16T08:31:51.854Z</time></trkpt><trkpt lat="40.82775" lon="8.2091933"><ele>52.0</ele><time>2026-04-16T08:31:52.854Z</time></trkpt><trkpt lat="40.8277333" lon="8.2090983"><ele>52.0</ele><time>2026-04-16T08:31:53.854Z</time></trkpt><trkpt lat="40.8277283" lon="8.2089917"><ele>51.99999999999999</ele><time>2026-04-16T08:31:54.853Z</time></trkpt><trkpt lat="40.8277383" lon="8.2088567"><ele>52.0</ele><time>2026-04-16T08:31:55.854Z</time></trkpt><trkpt lat="40.8277517" lon="8.2087"><ele>52.5</ele><time>2026-04-16T08:31:56.854Z</time></trkpt><trkpt lat="40.8277633" lon="8.2085267"><ele>53.0</ele><time>2026-04-16T08:31:57.853Z</time></trkpt><trkpt lat="40.8277767" lon="8.2083483"><ele>53.5</ele><time>2026-04-16T08:31:58.853Z</time></trkpt><trkpt lat="40.8277933" lon="8.2081783"><ele>54.0</ele><time>2026-04-16T08:31:59.854Z</time></trkpt><trkpt lat="40.8278267" lon="8.2080083"><ele>54.25</ele><time>2026-04-16T08:32:00.853Z</time></trkpt><trkpt lat="40.8278767" lon="8.2078283"><ele>54.5</ele><time>2026-04-16T08:32:01.854Z</time></trkpt><trkpt lat="40.827935" lon="8.207655"><ele>54.75</ele><time>2026-04-16T08:32:02.853Z</time></trkpt><trkpt lat="40.828" lon="8.2074817"><ele>55.0</ele><time>2026-04-16T08:32:03.853Z</time></trkpt><trkpt lat="40.8280533" lon="8.2072933"><ele>55.33333333333333</ele><time>2026-04-16T08:32:04.853Z</time></trkpt><trkpt lat="40.8281033" lon="8.2070783"><ele>55.66666666666667</ele><time>2026-04-16T08:32:05.853Z</time></trkpt><trkpt lat="40.8281433" lon="8.2068517"><ele>56.0</ele><time>2026-04-16T08:32:06.854Z</time></trkpt><trkpt lat="40.8281817" lon="8.20661"><ele>56.66666666666667</ele><time>2026-04-16T08:32:07.853Z</time></trkpt><trkpt lat="40.8282217" lon="8.2063517"><ele>57.33333333333333</ele><time>2026-04-16T08:32:08.854Z</time></trkpt><trkpt lat="40.8282583" lon="8.2060883"><ele>58.0</ele><time>2026-04-16T08:32:09.854Z</time></trkpt><trkpt lat="40.8282933" lon="8.205845"><ele>58.33333333333333</ele><time>2026-04-16T08:32:10.854Z</time></trkpt><trkpt lat="40.8283283" lon="8.205625"><ele>58.66666666666667</ele><time>2026-04-16T08:32:11.853Z</time></trkpt><trkpt lat="40.8283633" lon="8.2054167"><ele>59.0</ele><time>2026-04-16T08:32:12.853Z</time></trkpt><trkpt lat="40.8283883" lon="8.20521"><ele>59.0</ele><time>2026-04-16T08:32:13.854Z</time></trkpt><trkpt lat="40.8283983" lon="8.2049983"><ele>59.0</ele><time>2026-04-16T08:32:14.853Z</time></trkpt><trkpt lat="40.8283833" lon="8.2047667"><ele>59.0</ele><time>2026-04-16T08:32:15.853Z</time></trkpt><trkpt lat="40.8283683" lon="8.2045467"><ele>59.75</ele><time>2026-04-16T08:32:16.853Z</time></trkpt><trkpt lat="40.8283483" lon="8.2043533"><ele>60.5</ele><time>2026-04-16T08:32:17.854Z</time></trkpt><trkpt lat="40.8283367" lon="8.204175"><ele>61.25</ele><time>2026-04-16T08:32:18.854Z</time></trkpt><trkpt lat="40.8283317" lon="8.2039983"><ele>62.0</ele><time>2026-04-16T08:32:19.854Z</time></trkpt><trkpt lat="40.8283333" lon="8.2038"><ele>62.66666666666667</ele><time>2026-04-16T08:32:20.854Z</time></trkpt><trkpt lat="40.8283433" lon="8.2035767"><ele>63.33333333333333</ele><time>2026-04-16T08:32:21.854Z</time></trkpt><trkpt lat="40.8283633" lon="8.2033567"><ele>64.0</ele><time>2026-04-16T08:32:22.854Z</time></trkpt><trkpt lat="40.82839" lon="8.203155"><ele>64.66666666666666</ele><time>2026-04-16T08:32:23.854Z</time></trkpt><trkpt lat="40.8284083" lon="8.2029433"><ele>65.33333333333333</ele><time>2026-04-16T08:32:24.852Z</time></trkpt><trkpt lat="40.8284133" lon="8.202715"><ele>66.0</ele><time>2026-04-16T08:32:25.853Z</time></trkpt><trkpt lat="40.8284083" lon="8.2024717"><ele>66.25</ele><time>2026-04-16T08:32:26.852Z</time></trkpt><trkpt lat="40.8284067" lon="8.2022417"><ele>66.5</ele><time>2026-04-16T08:32:27.853Z</time></trkpt><trkpt lat="40.8284017" lon="8.202055"><ele>66.75</ele><time>2026-04-16T08:32:28.853Z</time></trkpt><trkpt lat="40.82839" lon="8.201915"><ele>67.0</ele><time>2026-04-16T08:32:29.853Z</time></trkpt><trkpt lat="40.82837" lon="8.2017933"><ele>67.0</ele><time>2026-04-16T08:32:30.853Z</time></trkpt><trkpt lat="40.8283267" lon="8.201705"><ele>67.0</ele><time>2026-04-16T08:32:31.853Z</time></trkpt><trkpt lat="40.82826" lon="8.201645"><ele>67.0</ele><time>2026-04-16T08:32:32.853Z</time></trkpt><trkpt lat="40.8281633" lon="8.2016033"><ele>67.0</ele><time>2026-04-16T08:32:33.853Z</time></trkpt><trkpt lat="40.8280867" lon="8.2015683"><ele>67.0</ele><time>2026-04-16T08:32:34.852Z</time></trkpt><trkpt lat="40.82802" lon="8.2015"><ele>67.0</ele><time>2026-04-16T08:32:35.853Z</time></trkpt><trkpt lat="40.8279467" lon="8.20139"><ele>66.75</ele><time>2026-04-16T08:32:36.853Z</time></trkpt><trkpt lat="40.82786" lon="8.2012617"><ele>66.5</ele><time>2026-04-16T08:32:37.853Z</time></trkpt><trkpt lat="40.8277633" lon="8.2011167"><ele>66.25</ele><time>2026-04-16T08:32:38.853Z</time></trkpt><trkpt lat="40.8276467" lon="8.2009567"><ele>66.0</ele><time>2026-04-16T08:32:39.852Z</time></trkpt><trkpt lat="40.8275117" lon="8.2007867"><ele>65.33333333333333</ele><time>2026-04-16T08:32:40.853Z</time></trkpt><trkpt lat="40.8273733" lon="8.2006283"><ele>64.66666666666666</ele><time>2026-04-16T08:32:41.853Z</time></trkpt><trkpt lat="40.8272467" lon="8.200465"><ele>64.0</ele><time>2026-04-16T08:32:42.852Z</time></trkpt><trkpt lat="40.8271383" lon="8.2003183"><ele>64.0</ele><time>2026-04-16T08:32:43.853Z</time></trkpt><trkpt lat="40.8270367" lon="8.200175"><ele>64.0</ele><time>2026-04-16T08:32:44.852Z</time></trkpt><trkpt lat="40.8269267" lon="8.2000433"><ele>64.0</ele><time>2026-04-16T08:32:45.853Z</time></trkpt><trkpt lat="40.8268067" lon="8.1998967"><ele>64.33333333333333</ele><time>2026-04-16T08:32:46.853Z</time></trkpt><trkpt lat="40.826685" lon="8.1997333"><ele>64.66666666666667</ele><time>2026-04-16T08:32:47.852Z</time></trkpt><trkpt lat="40.8265617" lon="8.1995617"><ele>65.0</ele><time>2026-04-16T08:32:48.852Z</time></trkpt><trkpt lat="40.8264333" lon="8.1993983"><ele>65.0</ele><time>2026-04-16T08:32:49.853Z</time></trkpt><trkpt lat="40.8262983" lon="8.199235"><ele>65.0</ele><time>2026-04-16T08:32:50.853Z</time></trkpt><trkpt lat="40.826155" lon="8.1990683"><ele>65.0</ele><time>2026-04-16T08:32:51.853Z</time></trkpt><trkpt lat="40.8260167" lon="8.1988967"><ele>64.33333333333334</ele><time>2026-04-16T08:32:52.853Z</time></trkpt><trkpt lat="40.8258867" lon="8.198715"><ele>63.66666666666667</ele><time>2026-04-16T08:32:53.852Z</time></trkpt><trkpt lat="40.8257617" lon="8.1985267"><ele>63.0</ele><time>2026-04-16T08:32:54.853Z</time></trkpt><trkpt lat="40.8256383" lon="8.1983583"><ele>63.0</ele><time>2026-04-16T08:32:55.853Z</time></trkpt><trkpt lat="40.8255283" lon="8.1982183"><ele>63.0</ele><time>2026-04-16T08:32:56.853Z</time></trkpt><trkpt lat="40.8254333" lon="8.1980967"><ele>63.0</ele><time>2026-04-16T08:32:57.853Z</time></trkpt><trkpt lat="40.825335" lon="8.19796"><ele>63.0</ele><time>2026-04-16T08:32:58.853Z</time></trkpt><trkpt lat="40.825235" lon="8.197815"><ele>63.5</ele><time>2026-04-16T08:32:59.852Z</time></trkpt><trkpt lat="40.8251317" lon="8.197665"><ele>64.0</ele><time>2026-04-16T08:33:00.853Z</time></trkpt><trkpt lat="40.8250483" lon="8.1975183"><ele>64.5</ele><time>2026-04-16T08:33:01.853Z</time></trkpt><trkpt lat="40.8249883" lon="8.1973667"><ele>65.0</ele><time>2026-04-16T08:33:02.853Z</time></trkpt><trkpt lat="40.824955" lon="8.1972183"><ele>65.0</ele><time>2026-04-16T08:33:03.852Z</time></trkpt><trkpt lat="40.8249267" lon="8.1970617"><ele>65.0</ele><time>2026-04-16T08:33:04.853Z</time></trkpt><trkpt lat="40.8248933" lon="8.1968917"><ele>65.0</ele><time>2026-04-16T08:33:05.853Z</time></trkpt><trkpt lat="40.82484" lon="8.1967067"><ele>65.0</ele><time>2026-04-16T08:33:06.853Z</time></trkpt><trkpt lat="40.8247683" lon="8.196525"><ele>64.25</ele><time>2026-04-16T08:33:07.852Z</time></trkpt><trkpt lat="40.82469" lon="8.1963583"><ele>63.5</ele><time>2026-04-16T08:33:08.852Z</time></trkpt><trkpt lat="40.8246" lon="8.19621"><ele>62.75</ele><time>2026-04-16T08:33:09.852Z</time></trkpt><trkpt lat="40.8244833" lon="8.1960733"><ele>62.0</ele><time>2026-04-16T08:33:10.852Z</time></trkpt><trkpt lat="40.8243533" lon="8.19595"><ele>63.66666666666667</ele><time>2026-04-16T08:33:11.853Z</time></trkpt><trkpt lat="40.824225" lon="8.1958133"><ele>65.33333333333333</ele><time>2026-04-16T08:33:12.852Z</time></trkpt><trkpt lat="40.8240967" lon="8.1956767"><ele>67.0</ele><time>2026-04-16T08:33:13.853Z</time></trkpt><trkpt lat="40.8239717" lon="8.195575"><ele>66.75</ele><time>2026-04-16T08:33:14.852Z</time></trkpt><trkpt lat="40.8238567" lon="8.1954933"><ele>66.5</ele><time>2026-04-16T08:33:15.852Z</time></trkpt><trkpt lat="40.823735" lon="8.195405"><ele>66.25</ele><time>2026-04-16T08:33:16.853Z</time></trkpt><trkpt lat="40.8236033" lon="8.1952883"><ele>66.0</ele><time>2026-04-16T08:33:17.853Z</time></trkpt><trkpt lat="40.8234617" lon="8.1951467"><ele>66.0</ele><time>2026-04-16T08:33:18.852Z</time></trkpt><trkpt lat="40.8233033" lon="8.1949883"><ele>66.0</ele><time>2026-04-16T08:33:19.852Z</time></trkpt><trkpt lat="40.8231267" lon="8.1948317"><ele>66.0</ele><time>2026-04-16T08:33:20.852Z</time></trkpt><trkpt lat="40.8229417" lon="8.1946967"><ele>66.0</ele><time>2026-04-16T08:33:21.852Z</time></trkpt><trkpt lat="40.8227733" lon="8.1945783"><ele>66.0</ele><time>2026-04-16T08:33:22.853Z</time></trkpt><trkpt lat="40.8226267" lon="8.1944683"><ele>66.0</ele><time>2026-04-16T08:33:23.853Z</time></trkpt><trkpt lat="40.8224933" lon="8.1943683"><ele>66.66666666666667</ele><time>2026-04-16T08:33:24.853Z</time></trkpt><trkpt lat="40.8223583" lon="8.19427"><ele>67.33333333333334</ele><time>2026-04-16T08:33:25.853Z</time></trkpt><trkpt lat="40.8222167" lon="8.1941683"><ele>68.0</ele><time>2026-04-16T08:33:26.852Z</time></trkpt><trkpt lat="40.8220783" lon="8.1940617"><ele>68.0</ele><time>2026-04-16T08:33:27.853Z</time></trkpt><trkpt lat="40.8219367" lon="8.1939567"><ele>68.0</ele><time>2026-04-16T08:33:28.853Z</time></trkpt><trkpt lat="40.8218" lon="8.19386"><ele>68.0</ele><time>2026-04-16T08:33:29.853Z</time></trkpt><trkpt lat="40.82168" lon="8.1937867"><ele>67.5</ele><time>2026-04-16T08:33:30.853Z</time></trkpt><trkpt lat="40.821565" lon="8.1937267"><ele>67.0</ele><time>2026-04-16T08:33:31.853Z</time></trkpt><trkpt lat="40.82145" lon="8.1936433"><ele>66.5</ele><time>2026-04-16T08:33:32.852Z</time></trkpt><trkpt lat="40.8213283" lon="8.1935367"><ele>66.0</ele><time>2026-04-16T08:33:33.852Z</time></trkpt><trkpt lat="40.82119" lon="8.1934283"><ele>66.0</ele><time>2026-04-16T08:33:34.852Z</time></trkpt><trkpt lat="40.8210367" lon="8.1933467"><ele>66.0</ele><time>2026-04-16T08:33:35.853Z</time></trkpt><trkpt lat="40.8208733" lon="8.1933017"><ele>66.0</ele><time>2026-04-16T08:33:36.853Z</time></trkpt><trkpt lat="40.8207033" lon="8.1932667"><ele>66.0</ele><time>2026-04-16T08:33:37.852Z</time></trkpt><trkpt lat="40.82052" lon="8.193195"><ele>66.0</ele><time>2026-04-16T08:33:38.853Z</time></trkpt><trkpt lat="40.8203417" lon="8.1931133"><ele>66.0</ele><time>2026-04-16T08:33:39.852Z</time></trkpt><trkpt lat="40.8201783" lon="8.1930333"><ele>67.5</ele><time>2026-04-16T08:33:40.853Z</time></trkpt><trkpt lat="40.8200583" lon="8.1929667"><ele>69.0</ele><time>2026-04-16T08:33:41.853Z</time></trkpt><trkpt lat="40.8199683" lon="8.1929067"><ele>70.5</ele><time>2026-04-16T08:33:42.852Z</time></trkpt><trkpt lat="40.8198833" lon="8.1928267"><ele>72.0</ele><time>2026-04-16T08:33:43.852Z</time></trkpt><trkpt lat="40.8198017" lon="8.1927167"><ele>72.0</ele><time>2026-04-16T08:33:44.852Z</time></trkpt><trkpt lat="40.8197133" lon="8.1925983"><ele>72.0</ele><time>2026-04-16T08:33:45.852Z</time></trkpt><trkpt lat="40.8196133" lon="8.192475"><ele>72.0</ele><time>2026-04-16T08:33:46.852Z</time></trkpt><trkpt lat="40.81952" lon="8.19236"><ele>72.0</ele><time>2026-04-16T08:33:47.852Z</time></trkpt><trkpt lat="40.819435" lon="8.1922767"><ele>72.2</ele><time>2026-04-16T08:33:48.852Z</time></trkpt><trkpt lat="40.8193517" lon="8.192215"><ele>72.4</ele><time>2026-04-16T08:33:49.853Z</time></trkpt><trkpt lat="40.8192633" lon="8.1921783"><ele>72.6</ele><time>2026-04-16T08:33:50.853Z</time></trkpt><trkpt lat="40.8191467" lon="8.192185"><ele>72.8</ele><time>2026-04-16T08:33:51.853Z</time></trkpt><trkpt lat="40.81902" lon="8.1922183"><ele>73.0</ele><time>2026-04-16T08:33:52.852Z</time></trkpt><trkpt lat="40.81889" lon="8.1922533"><ele>73.4</ele><time>2026-04-16T08:33:53.853Z</time></trkpt><trkpt lat="40.81878" lon="8.1922633"><ele>73.8</ele><time>2026-04-16T08:33:54.853Z</time></trkpt><trkpt lat="40.81868" lon="8.192245"><ele>74.2</ele><time>2026-04-16T08:33:55.852Z</time></trkpt><trkpt lat="40.8186" lon="8.192205"><ele>74.6</ele><time>2026-04-16T08:33:56.852Z</time></trkpt><trkpt lat="40.8185267" lon="8.1921417"><ele>75.0</ele><time>2026-04-16T08:33:57.853Z</time></trkpt><trkpt lat="40.818445" lon="8.1920833"><ele>75.4</ele><time>2026-04-16T08:33:58.853Z</time></trkpt><trkpt lat="40.8183633" lon="8.1920467"><ele>75.8</ele><time>2026-04-16T08:33:59.853Z</time></trkpt><trkpt lat="40.8182733" lon="8.192035"><ele>76.2</ele><time>2026-04-16T08:34:00.852Z</time></trkpt><trkpt lat="40.8181667" lon="8.1920483"><ele>76.6</ele><time>2026-04-16T08:34:01.853Z</time></trkpt><trkpt lat="40.81805" lon="8.1920767"><ele>77.0</ele><time>2026-04-16T08:34:02.853Z</time></trkpt><trkpt lat="40.81793" lon="8.1920983"><ele>77.0</ele><time>2026-04-16T08:34:03.852Z</time></trkpt><trkpt lat="40.8178267" lon="8.1921"><ele>77.0</ele><time>2026-04-16T08:34:04.852Z</time></trkpt><trkpt lat="40.8177417" lon="8.1920867"><ele>77.0</ele><time>2026-04-16T08:34:05.853Z</time></trkpt><trkpt lat="40.8176767" lon="8.1920533"><ele>77.0</ele><time>2026-04-16T08:34:06.853Z</time></trkpt><trkpt lat="40.8175817" lon="8.191935"><ele>77.0</ele><time>2026-04-16T08:34:08.852Z</time></trkpt><trkpt lat="40.8175383" lon="8.1918433"><ele>77.0</ele><time>2026-04-16T08:34:09.853Z</time></trkpt><trkpt lat="40.8174983" lon="8.1917317"><ele>77.0</ele><time>2026-04-16T08:34:10.853Z</time></trkpt><trkpt lat="40.8174583" lon="8.1916033"><ele>77.0</ele><time>2026-04-16T08:34:11.853Z</time></trkpt><trkpt lat="40.8174167" lon="8.1914683"><ele>77.0</ele><time>2026-04-16T08:34:12.853Z</time></trkpt><trkpt lat="40.8173683" lon="8.19133"><ele>77.0</ele><time>2026-04-16T08:34:13.852Z</time></trkpt><trkpt lat="40.8173167" lon="8.1911817"><ele>77.0</ele><time>2026-04-16T08:34:14.853Z</time></trkpt><trkpt lat="40.8172667" lon="8.1910333"><ele>77.0</ele><time>2026-04-16T08:34:15.852Z</time></trkpt><trkpt lat="40.817215" lon="8.190875"><ele>77.0</ele><time>2026-04-16T08:34:16.853Z</time></trkpt><trkpt lat="40.8171617" lon="8.1907117"><ele>77.0</ele><time>2026-04-16T08:34:17.852Z</time></trkpt><trkpt lat="40.8171117" lon="8.1905683"><ele>78.0</ele><time>2026-04-16T08:34:18.852Z</time></trkpt><trkpt lat="40.8170683" lon="8.1904467"><ele>79.0</ele><time>2026-04-16T08:34:19.853Z</time></trkpt><trkpt lat="40.8170267" lon="8.1903183"><ele>80.0</ele><time>2026-04-16T08:34:20.853Z</time></trkpt><trkpt lat="40.8169783" lon="8.190165"><ele>81.0</ele><time>2026-04-16T08:34:21.853Z</time></trkpt><trkpt lat="40.8169283" lon="8.1900083"><ele>81.0</ele><time>2026-04-16T08:34:22.853Z</time></trkpt><trkpt lat="40.8168767" lon="8.1898433"><ele>81.0</ele><time>2026-04-16T08:34:23.853Z</time></trkpt><trkpt lat="40.8168183" lon="8.1896683"><ele>81.0</ele><time>2026-04-16T08:34:24.853Z</time></trkpt><trkpt lat="40.81676" lon="8.18949"><ele>81.0</ele><time>2026-04-16T08:34:25.852Z</time></trkpt><trkpt lat="40.8167033" lon="8.1893017"><ele>79.8</ele><time>2026-04-16T08:34:26.853Z</time></trkpt><trkpt lat="40.81665" lon="8.1891317"><ele>78.6</ele><time>2026-04-16T08:34:27.853Z</time></trkpt><trkpt lat="40.8166067" lon="8.1889833"><ele>77.4</ele><time>2026-04-16T08:34:28.853Z</time></trkpt><trkpt lat="40.8165733" lon="8.1888667"><ele>76.2</ele><time>2026-04-16T08:34:29.852Z</time></trkpt><trkpt lat="40.8165383" lon="8.1887883"><ele>75.0</ele><time>2026-04-16T08:34:30.852Z</time></trkpt><trkpt lat="40.81644" lon="8.1887533"><ele>75.0</ele><time>2026-04-16T08:34:32.853Z</time></trkpt><trkpt lat="40.816375" lon="8.1888"><ele>75.0</ele><time>2026-04-16T08:34:33.853Z</time></trkpt><trkpt lat="40.8163" lon="8.1888867"><ele>75.0</ele><time>2026-04-16T08:34:34.852Z</time></trkpt><trkpt lat="40.8162067" lon="8.188995"><ele>75.0</ele><time>2026-04-16T08:34:35.852Z</time></trkpt><trkpt lat="40.8160983" lon="8.1891"><ele>75.0</ele><time>2026-04-16T08:34:36.853Z</time></trkpt><trkpt lat="40.8160033" lon="8.18918"><ele>74.66666666666667</ele><time>2026-04-16T08:34:37.853Z</time></trkpt><trkpt lat="40.8159217" lon="8.1892283"><ele>74.33333333333333</ele><time>2026-04-16T08:34:38.852Z</time></trkpt><trkpt lat="40.8158483" lon="8.1892617"><ele>74.0</ele><time>2026-04-16T08:34:39.852Z</time></trkpt><trkpt lat="40.815775" lon="8.1892933"><ele>73.66666666666666</ele><time>2026-04-16T08:34:40.853Z</time></trkpt><trkpt lat="40.815705" lon="8.1893283"><ele>73.33333333333333</ele><time>2026-04-16T08:34:41.853Z</time></trkpt><trkpt lat="40.8156417" lon="8.189355"><ele>73.0</ele><time>2026-04-16T08:34:42.853Z</time></trkpt><trkpt lat="40.81558" lon="8.1893833"><ele>73.0</ele><time>2026-04-16T08:34:43.853Z</time></trkpt><trkpt lat="40.8155117" lon="8.189415"><ele>73.0</ele><time>2026-04-16T08:34:44.852Z</time></trkpt><trkpt lat="40.8154367" lon="8.189455"><ele>73.0</ele><time>2026-04-16T08:34:45.852Z</time></trkpt><trkpt lat="40.815355" lon="8.1894917"><ele>73.0</ele><time>2026-04-16T08:34:46.852Z</time></trkpt><trkpt lat="40.8152767" lon="8.1895133"><ele>73.0</ele><time>2026-04-16T08:34:47.853Z</time></trkpt><trkpt lat="40.8152117" lon="8.1895283"><ele>73.0</ele><time>2026-04-16T08:34:48.852Z</time></trkpt><trkpt lat="40.8150917" lon="8.18957"><ele>72.6</ele><time>2026-04-16T08:34:50.852Z</time></trkpt><trkpt lat="40.8149917" lon="8.1896117"><ele>72.19999999999999</ele><time>2026-04-16T08:34:52.853Z</time></trkpt><trkpt lat="40.8148767" lon="8.18967"><ele>71.8</ele><time>2026-04-16T08:34:54.853Z</time></trkpt><trkpt lat="40.81477" lon="8.1897067"><ele>71.39999999999999</ele><time>2026-04-16T08:34:56.852Z</time></trkpt><trkpt lat="40.8146967" lon="8.1897267"><ele>71.0</ele><time>2026-04-16T08:34:58.853Z</time></trkpt><trkpt lat="40.814635" lon="8.18975"><ele>71.0</ele><time>2026-04-16T08:35:00.852Z</time></trkpt><trkpt lat="40.814565" lon="8.1897733"><ele>71.0</ele><time>2026-04-16T08:35:02.853Z</time></trkpt><trkpt lat="40.814485" lon="8.18981"><ele>71.0</ele><time>2026-04-16T08:35:04.852Z</time></trkpt><trkpt lat="40.8144133" lon="8.1898317"><ele>71.0</ele><time>2026-04-16T08:35:06.853Z</time></trkpt><trkpt lat="40.8143117" lon="8.18985"><ele>71.0</ele><time>2026-04-16T08:35:08.852Z</time></trkpt><trkpt lat="40.814195" lon="8.1899483"><ele>71.8</ele><time>2026-04-16T08:35:10.853Z</time></trkpt><trkpt lat="40.8141317" lon="8.1900267"><ele>72.6</ele><time>2026-04-16T08:35:11.852Z</time></trkpt><trkpt lat="40.81407" lon="8.190115"><ele>73.4</ele><time>2026-04-16T08:35:12.853Z</time></trkpt><trkpt lat="40.8140117" lon="8.19021"><ele>74.2</ele><time>2026-04-16T08:35:13.853Z</time></trkpt><trkpt lat="40.8139517" lon="8.1903017"><ele>75.0</ele><time>2026-04-16T08:35:14.852Z</time></trkpt><trkpt lat="40.8138867" lon="8.1903933"><ele>75.0</ele><time>2026-04-16T08:35:15.853Z</time></trkpt><trkpt lat="40.8138133" lon="8.190485"><ele>75.0</ele><time>2026-04-16T08:35:16.851Z</time></trkpt><trkpt lat="40.813735" lon="8.1905767"><ele>75.0</ele><time>2026-04-16T08:35:17.852Z</time></trkpt><trkpt lat="40.813645" lon="8.1906617"><ele>75.0</ele><time>2026-04-16T08:35:18.851Z</time></trkpt><trkpt lat="40.8135583" lon="8.1907417"><ele>75.0</ele><time>2026-04-16T08:35:19.852Z</time></trkpt><trkpt lat="40.8134717" lon="8.1908083"><ele>74.4</ele><time>2026-04-16T08:35:20.852Z</time></trkpt><trkpt lat="40.8133983" lon="8.190885"><ele>73.8</ele><time>2026-04-16T08:35:21.851Z</time></trkpt><trkpt lat="40.8133317" lon="8.1909783"><ele>73.2</ele><time>2026-04-16T08:35:22.852Z</time></trkpt><trkpt lat="40.81327" lon="8.191105"><ele>72.6</ele><time>2026-04-16T08:35:23.851Z</time></trkpt><trkpt lat="40.8132033" lon="8.1912483"><ele>72.0</ele><time>2026-04-16T08:35:24.852Z</time></trkpt><trkpt lat="40.813135" lon="8.1914017"><ele>71.75</ele><time>2026-04-16T08:35:25.852Z</time></trkpt><trkpt lat="40.8130733" lon="8.1915733"><ele>71.5</ele><time>2026-04-16T08:35:26.852Z</time></trkpt><trkpt lat="40.8130217" lon="8.19175"><ele>71.25</ele><time>2026-04-16T08:35:27.852Z</time></trkpt><trkpt lat="40.81298" lon="8.1919283"><ele>71.0</ele><time>2026-04-16T08:35:28.852Z</time></trkpt><trkpt lat="40.8129433" lon="8.1920983"><ele>71.0</ele><time>2026-04-16T08:35:29.851Z</time></trkpt><trkpt lat="40.8129" lon="8.1922533"><ele>71.0</ele><time>2026-04-16T08:35:30.852Z</time></trkpt><trkpt lat="40.8128467" lon="8.1924067"><ele>71.0</ele><time>2026-04-16T08:35:31.852Z</time></trkpt><trkpt lat="40.81279" lon="8.1925617"><ele>71.0</ele><time>2026-04-16T08:35:32.852Z</time></trkpt><trkpt lat="40.8127283" lon="8.1927017"><ele>71.5</ele><time>2026-04-16T08:35:33.852Z</time></trkpt><trkpt lat="40.8126583" lon="8.1928333"><ele>72.0</ele><time>2026-04-16T08:35:34.852Z</time></trkpt><trkpt lat="40.812575" lon="8.1929633"><ele>72.5</ele><time>2026-04-16T08:35:35.851Z</time></trkpt><trkpt lat="40.8124933" lon="8.1930983"><ele>73.0</ele><time>2026-04-16T08:35:36.852Z</time></trkpt><trkpt lat="40.812415" lon="8.1932183"><ele>73.8</ele><time>2026-04-16T08:35:37.852Z</time></trkpt><trkpt lat="40.8123283" lon="8.1933067"><ele>74.6</ele><time>2026-04-16T08:35:38.851Z</time></trkpt><trkpt lat="40.8122333" lon="8.1933667"><ele>75.4</ele><time>2026-04-16T08:35:39.852Z</time></trkpt><trkpt lat="40.81214" lon="8.1934017"><ele>76.2</ele><time>2026-04-16T08:35:40.852Z</time></trkpt><trkpt lat="40.8120517" lon="8.19342"><ele>77.0</ele><time>2026-04-16T08:35:41.852Z</time></trkpt><trkpt lat="40.81196" lon="8.1934467"><ele>77.0</ele><time>2026-04-16T08:35:42.852Z</time></trkpt><trkpt lat="40.8118567" lon="8.1935"><ele>77.0</ele><time>2026-04-16T08:35:43.852Z</time></trkpt><trkpt lat="40.8117433" lon="8.1935783"><ele>77.0</ele><time>2026-04-16T08:35:44.851Z</time></trkpt><trkpt lat="40.811625" lon="8.1936667"><ele>77.0</ele><time>2026-04-16T08:35:45.852Z</time></trkpt><trkpt lat="40.8114933" lon="8.1937533"><ele>78.66666666666667</ele><time>2026-04-16T08:35:46.851Z</time></trkpt><trkpt lat="40.8113433" lon="8.19384"><ele>80.33333333333333</ele><time>2026-04-16T08:35:47.852Z</time></trkpt><trkpt lat="40.81119" lon="8.1939333"><ele>82.0</ele><time>2026-04-16T08:35:48.852Z</time></trkpt><trkpt lat="40.81104" lon="8.194025"><ele>82.39999999999999</ele><time>2026-04-16T08:35:49.852Z</time></trkpt><trkpt lat="40.810905" lon="8.1941083"><ele>82.8</ele><time>2026-04-16T08:35:50.852Z</time></trkpt><trkpt lat="40.81079" lon="8.19418"><ele>83.2</ele><time>2026-04-16T08:35:51.852Z</time></trkpt><trkpt lat="40.810705" lon="8.19423"><ele>83.6</ele><time>2026-04-16T08:35:52.851Z</time></trkpt><trkpt lat="40.81063" lon="8.1942467"><ele>84.0</ele><time>2026-04-16T08:35:53.852Z</time></trkpt><trkpt lat="40.8105433" lon="8.1942417"><ele>84.0</ele><time>2026-04-16T08:35:54.852Z</time></trkpt><trkpt lat="40.810445" lon="8.1942117"><ele>84.0</ele><time>2026-04-16T08:35:55.852Z</time></trkpt><trkpt lat="40.8103283" lon="8.194165"><ele>84.0</ele><time>2026-04-16T08:35:56.851Z</time></trkpt><trkpt lat="40.8101967" lon="8.1941267"><ele>84.0</ele><time>2026-04-16T08:35:57.852Z</time></trkpt><trkpt lat="40.8100633" lon="8.1941017"><ele>86.0</ele><time>2026-04-16T08:35:58.852Z</time></trkpt><trkpt lat="40.809935" lon="8.1940917"><ele>88.0</ele><time>2026-04-16T08:35:59.851Z</time></trkpt><trkpt lat="40.8098133" lon="8.1940767"><ele>90.0</ele><time>2026-04-16T08:36:00.852Z</time></trkpt><trkpt lat="40.8096967" lon="8.1940367"><ele>92.0</ele><time>2026-04-16T08:36:01.851Z</time></trkpt><trkpt lat="40.809565" lon="8.1939733"><ele>92.75</ele><time>2026-04-16T08:36:02.852Z</time></trkpt><trkpt lat="40.809425" lon="8.1939067"><ele>93.5</ele><time>2026-04-16T08:36:03.852Z</time></trkpt><trkpt lat="40.8092983" lon="8.193845"><ele>94.25</ele><time>2026-04-16T08:36:04.852Z</time></trkpt><trkpt lat="40.80917" lon="8.1937933"><ele>95.0</ele><time>2026-04-16T08:36:05.852Z</time></trkpt><trkpt lat="40.809035" lon="8.1937717"><ele>98.0</ele><time>2026-04-16T08:36:06.852Z</time></trkpt><trkpt lat="40.8089067" lon="8.1937867"><ele>101.0</ele><time>2026-04-16T08:36:07.852Z</time></trkpt><trkpt lat="40.8087933" lon="8.19381"><ele>104.0</ele><time>2026-04-16T08:36:08.851Z</time></trkpt><trkpt lat="40.8087033" lon="8.19381"><ele>107.0</ele><time>2026-04-16T08:36:09.851Z</time></trkpt><trkpt lat="40.8086317" lon="8.1937733"><ele>110.0</ele><time>2026-04-16T08:36:10.852Z</time></trkpt><trkpt lat="40.8085783" lon="8.1937017"><ele>110.0</ele><time>2026-04-16T08:36:11.852Z</time></trkpt><trkpt lat="40.8085417" lon="8.1935933"><ele>110.0</ele><time>2026-04-16T08:36:12.852Z</time></trkpt><trkpt lat="40.8085033" lon="8.193455"><ele>110.0</ele><time>2026-04-16T08:36:13.852Z</time></trkpt><trkpt lat="40.8084567" lon="8.1932917"><ele>110.0</ele><time>2026-04-16T08:36:14.852Z</time></trkpt><trkpt lat="40.8084017" lon="8.193135"><ele>111.6</ele><time>2026-04-16T08:36:15.851Z</time></trkpt><trkpt lat="40.8083533" lon="8.19299"><ele>113.2</ele><time>2026-04-16T08:36:16.852Z</time></trkpt><trkpt lat="40.8082983" lon="8.19287"><ele>114.80000000000001</ele><time>2026-04-16T08:36:17.852Z</time></trkpt><trkpt lat="40.8082283" lon="8.1927967"><ele>116.4</ele><time>2026-04-16T08:36:18.852Z</time></trkpt><trkpt lat="40.8081317" lon="8.1927583"><ele>118.0</ele><time>2026-04-16T08:36:19.852Z</time></trkpt><trkpt lat="40.8080133" lon="8.1927333"><ele>118.0</ele><time>2026-04-16T08:36:20.852Z</time></trkpt><trkpt lat="40.8078767" lon="8.1927117"><ele>118.0</ele><time>2026-04-16T08:36:21.852Z</time></trkpt><trkpt lat="40.807725" lon="8.1926867"><ele>118.0</ele><time>2026-04-16T08:36:22.852Z</time></trkpt><trkpt lat="40.8075783" lon="8.192675"><ele>118.0</ele><time>2026-04-16T08:36:23.852Z</time></trkpt><trkpt lat="40.8074367" lon="8.1926967"><ele>119.0</ele><time>2026-04-16T08:36:24.851Z</time></trkpt><trkpt lat="40.80731" lon="8.1927467"><ele>120.00000000000001</ele><time>2026-04-16T08:36:25.851Z</time></trkpt><trkpt lat="40.807205" lon="8.1927967"><ele>121.00000000000001</ele><time>2026-04-16T08:36:26.851Z</time></trkpt><trkpt lat="40.807125" lon="8.192835"><ele>122.0</ele><time>2026-04-16T08:36:27.852Z</time></trkpt><trkpt lat="40.8070583" lon="8.1928417"><ele>123.0</ele><time>2026-04-16T08:36:28.851Z</time></trkpt><trkpt lat="40.8069917" lon="8.1928183"><ele>123.0</ele><time>2026-04-16T08:36:29.852Z</time></trkpt><trkpt lat="40.8069267" lon="8.192745"><ele>123.00000000000001</ele><time>2026-04-16T08:36:30.852Z</time></trkpt><trkpt lat="40.8068567" lon="8.1926367"><ele>123.00000000000001</ele><time>2026-04-16T08:36:31.851Z</time></trkpt><trkpt lat="40.8067667" lon="8.1925217"><ele>123.0</ele><time>2026-04-16T08:36:32.851Z</time></trkpt><trkpt lat="40.80666" lon="8.1924267"><ele>123.0</ele><time>2026-04-16T08:36:33.851Z</time></trkpt><trkpt lat="40.8065317" lon="8.1923533"><ele>123.5</ele><time>2026-04-16T08:36:34.852Z</time></trkpt><trkpt lat="40.8064067" lon="8.1923083"><ele>124.0</ele><time>2026-04-16T08:36:35.852Z</time></trkpt><trkpt lat="40.8062983" lon="8.1922717"><ele>124.5</ele><time>2026-04-16T08:36:36.851Z</time></trkpt><trkpt lat="40.8062017" lon="8.1922183"><ele>125.0</ele><time>2026-04-16T08:36:37.852Z</time></trkpt><trkpt lat="40.8061083" lon="8.1921383"><ele>125.0</ele><time>2026-04-16T08:36:38.851Z</time></trkpt><trkpt lat="40.8060117" lon="8.1920233"><ele>125.0</ele><time>2026-04-16T08:36:39.852Z</time></trkpt><trkpt lat="40.8059067" lon="8.1918967"><ele>125.0</ele><time>2026-04-16T08:36:40.852Z</time></trkpt><trkpt lat="40.8057867" lon="8.1917833"><ele>125.0</ele><time>2026-04-16T08:36:41.852Z</time></trkpt><trkpt lat="40.8056633" lon="8.1917133"><ele>125.0</ele><time>2026-04-16T08:36:42.852Z</time></trkpt><trkpt lat="40.8055467" lon="8.1916517"><ele>125.0</ele><time>2026-04-16T08:36:43.852Z</time></trkpt><trkpt lat="40.8054433" lon="8.1916017"><ele>125.0</ele><time>2026-04-16T08:36:44.851Z</time></trkpt><trkpt lat="40.8053417" lon="8.1915667"><ele>125.0</ele><time>2026-04-16T08:36:45.851Z</time></trkpt><trkpt lat="40.80523" lon="8.1915567"><ele>125.4</ele><time>2026-04-16T08:36:46.852Z</time></trkpt><trkpt lat="40.80512" lon="8.1915733"><ele>125.8</ele><time>2026-04-16T08:36:47.851Z</time></trkpt><trkpt lat="40.8050117" lon="8.1915817"><ele>126.19999999999999</ele><time>2026-04-16T08:36:48.851Z</time></trkpt><trkpt lat="40.8049167" lon="8.1915683"><ele>126.6</ele><time>2026-04-16T08:36:49.851Z</time></trkpt><trkpt lat="40.80482" lon="8.1915333"><ele>127.0</ele><time>2026-04-16T08:36:50.852Z</time></trkpt><trkpt lat="40.8047133" lon="8.1914767"><ele>127.6</ele><time>2026-04-16T08:36:51.851Z</time></trkpt><trkpt lat="40.8046083" lon="8.1914133"><ele>128.2</ele><time>2026-04-16T08:36:52.852Z</time></trkpt><trkpt lat="40.8045133" lon="8.1913683"><ele>128.8</ele><time>2026-04-16T08:36:53.852Z</time></trkpt><trkpt lat="40.8044183" lon="8.1913567"><ele>129.4</ele><time>2026-04-16T08:36:54.851Z</time></trkpt><trkpt lat="40.8043133" lon="8.191365"><ele>130.0</ele><time>2026-04-16T08:36:55.852Z</time></trkpt><trkpt lat="40.804195" lon="8.1913917"><ele>130.0</ele><time>2026-04-16T08:36:56.852Z</time></trkpt><trkpt lat="40.8040583" lon="8.19145"><ele>130.0</ele><time>2026-04-16T08:36:57.852Z</time></trkpt><trkpt lat="40.8039217" lon="8.1915267"><ele>130.0</ele><time>2026-04-16T08:36:58.852Z</time></trkpt><trkpt lat="40.8038033" lon="8.1916067"><ele>130.0</ele><time>2026-04-16T08:36:59.852Z</time></trkpt><trkpt lat="40.8036867" lon="8.1916933"><ele>130.0</ele><time>2026-04-16T08:37:00.852Z</time></trkpt><trkpt lat="40.803575" lon="8.1917717"><ele>130.0</ele><time>2026-04-16T08:37:01.851Z</time></trkpt><trkpt lat="40.8034717" lon="8.191845"><ele>130.0</ele><time>2026-04-16T08:37:02.852Z</time></trkpt><trkpt lat="40.8033917" lon="8.1918917"><ele>130.0</ele><time>2026-04-16T08:37:03.852Z</time></trkpt><trkpt lat="40.80331" lon="8.1919033"><ele>130.0</ele><time>2026-04-16T08:37:04.851Z</time></trkpt><trkpt lat="40.8032183" lon="8.1919033"><ele>130.0</ele><time>2026-04-16T08:37:05.852Z</time></trkpt><trkpt lat="40.8031283" lon="8.1918883"><ele>130.0</ele><time>2026-04-16T08:37:06.852Z</time></trkpt><trkpt lat="40.8030467" lon="8.1918383"><ele>130.0</ele><time>2026-04-16T08:37:07.852Z</time></trkpt><trkpt lat="40.8029717" lon="8.191745"><ele>130.0</ele><time>2026-04-16T08:37:08.852Z</time></trkpt><trkpt lat="40.8028917" lon="8.1916217"><ele>130.0</ele><time>2026-04-16T08:37:09.851Z</time></trkpt><trkpt lat="40.8028017" lon="8.191495"><ele>130.25</ele><time>2026-04-16T08:37:10.852Z</time></trkpt><trkpt lat="40.80271" lon="8.191355"><ele>130.5</ele><time>2026-04-16T08:37:11.852Z</time></trkpt><trkpt lat="40.8026083" lon="8.19121"><ele>130.75</ele><time>2026-04-16T08:37:12.851Z</time></trkpt><trkpt lat="40.802505" lon="8.191075"><ele>131.0</ele><time>2026-04-16T08:37:13.851Z</time></trkpt><trkpt lat="40.8024067" lon="8.19095"><ele>131.0</ele><time>2026-04-16T08:37:14.852Z</time></trkpt><trkpt lat="40.8023033" lon="8.1908117"><ele>131.0</ele><time>2026-04-16T08:37:15.852Z</time></trkpt><trkpt lat="40.8021917" lon="8.1906767"><ele>131.0</ele><time>2026-04-16T08:37:16.851Z</time></trkpt><trkpt lat="40.8020833" lon="8.1905467"><ele>131.0</ele><time>2026-04-16T08:37:17.852Z</time></trkpt><trkpt lat="40.8019833" lon="8.1904267"><ele>131.4</ele><time>2026-04-16T08:37:18.852Z</time></trkpt><trkpt lat="40.8019" lon="8.1903167"><ele>131.8</ele><time>2026-04-16T08:37:19.851Z</time></trkpt><trkpt lat="40.801835" lon="8.1902183"><ele>132.20000000000002</ele><time>2026-04-16T08:37:20.851Z</time></trkpt><trkpt lat="40.8017833" lon="8.1901217"><ele>132.6</ele><time>2026-04-16T08:37:21.851Z</time></trkpt><trkpt lat="40.8017383" lon="8.190015"><ele>133.0</ele><time>2026-04-16T08:37:22.851Z</time></trkpt><trkpt lat="40.8016933" lon="8.1898967"><ele>133.0</ele><time>2026-04-16T08:37:23.851Z</time></trkpt><trkpt lat="40.8016483" lon="8.189765"><ele>133.0</ele><time>2026-04-16T08:37:24.852Z</time></trkpt><trkpt lat="40.8016117" lon="8.1896283"><ele>133.0</ele><time>2026-04-16T08:37:25.851Z</time></trkpt><trkpt lat="40.801565" lon="8.1894983"><ele>133.0</ele><time>2026-04-16T08:37:26.851Z</time></trkpt><trkpt lat="40.8015" lon="8.189395"><ele>133.0</ele><time>2026-04-16T08:37:27.851Z</time></trkpt><trkpt lat="40.8014067" lon="8.1893033"><ele>133.0</ele><time>2026-04-16T08:37:28.852Z</time></trkpt><trkpt lat="40.8012967" lon="8.18924"><ele>133.0</ele><time>2026-04-16T08:37:29.851Z</time></trkpt><trkpt lat="40.80118" lon="8.1891717"><ele>133.0</ele><time>2026-04-16T08:37:30.851Z</time></trkpt><trkpt lat="40.8010817" lon="8.18907"><ele>133.0</ele><time>2026-04-16T08:37:31.852Z</time></trkpt><trkpt lat="40.8009767" lon="8.1889717"><ele>132.0</ele><time>2026-04-16T08:37:32.852Z</time></trkpt><trkpt lat="40.8008783" lon="8.1888583"><ele>131.0</ele><time>2026-04-16T08:37:33.852Z</time></trkpt><trkpt lat="40.8007817" lon="8.1887483"><ele>130.0</ele><time>2026-04-16T08:37:34.851Z</time></trkpt><trkpt lat="40.80069" lon="8.1886483"><ele>129.0</ele><time>2026-04-16T08:37:35.851Z</time></trkpt><trkpt lat="40.8006083" lon="8.1885633"><ele>129.0</ele><time>2026-04-16T08:37:36.851Z</time></trkpt><trkpt lat="40.80054" lon="8.1884733"><ele>129.0</ele><time>2026-04-16T08:37:37.851Z</time></trkpt><trkpt lat="40.8004867" lon="8.1883783"><ele>129.0</ele><time>2026-04-16T08:37:38.851Z</time></trkpt><trkpt lat="40.8004467" lon="8.188265"><ele>129.0</ele><time>2026-04-16T08:37:39.851Z</time></trkpt><trkpt lat="40.80042" lon="8.1881533"><ele>129.0</ele><time>2026-04-16T08:37:40.852Z</time></trkpt><trkpt lat="40.8004083" lon="8.1880183"><ele>128.75</ele><time>2026-04-16T08:37:41.852Z</time></trkpt><trkpt lat="40.80041" lon="8.1878717"><ele>128.5</ele><time>2026-04-16T08:37:42.852Z</time></trkpt><trkpt lat="40.800415" lon="8.1877133"><ele>128.25</ele><time>2026-04-16T08:37:43.852Z</time></trkpt><trkpt lat="40.8004267" lon="8.1875533"><ele>128.0</ele><time>2026-04-16T08:37:44.852Z</time></trkpt><trkpt lat="40.80043" lon="8.18738"><ele>129.0</ele><time>2026-04-16T08:37:45.851Z</time></trkpt><trkpt lat="40.8004283" lon="8.18723"><ele>130.0</ele><time>2026-04-16T08:37:46.852Z</time></trkpt><trkpt lat="40.8004167" lon="8.18712"><ele>131.0</ele><time>2026-04-16T08:37:47.852Z</time></trkpt><trkpt lat="40.8003483" lon="8.1870333"><ele>132.0</ele><time>2026-04-16T08:37:49.851Z</time></trkpt><trkpt lat="40.8002067" lon="8.1870533"><ele>133.0</ele><time>2026-04-16T08:37:51.852Z</time></trkpt><trkpt lat="40.8001067" lon="8.1870567"><ele>134.0</ele><time>2026-04-16T08:37:52.852Z</time></trkpt><trkpt lat="40.799995" lon="8.1870683"><ele>135.0</ele><time>2026-04-16T08:37:53.852Z</time></trkpt><trkpt lat="40.79987" lon="8.1870933"><ele>136.0</ele><time>2026-04-16T08:37:54.851Z</time></trkpt><trkpt lat="40.7997383" lon="8.1871283"><ele>137.0</ele><time>2026-04-16T08:37:55.851Z</time></trkpt><trkpt lat="40.7995983" lon="8.18718"><ele>137.0</ele><time>2026-04-16T08:37:56.851Z</time></trkpt><trkpt lat="40.7994767" lon="8.187245"><ele>137.0</ele><time>2026-04-16T08:37:57.851Z</time></trkpt><trkpt lat="40.7993717" lon="8.1873"><ele>137.0</ele><time>2026-04-16T08:37:58.851Z</time></trkpt><trkpt lat="40.7992833" lon="8.18734"><ele>137.0</ele><time>2026-04-16T08:37:59.852Z</time></trkpt><trkpt lat="40.799205" lon="8.1873583"><ele>137.0</ele><time>2026-04-16T08:38:00.852Z</time></trkpt><trkpt lat="40.79914" lon="8.1873517"><ele>138.16666666666666</ele><time>2026-04-16T08:38:01.852Z</time></trkpt><trkpt lat="40.7990783" lon="8.1873067"><ele>139.33333333333331</ele><time>2026-04-16T08:38:02.852Z</time></trkpt><trkpt lat="40.79901" lon="8.1872367"><ele>140.5</ele><time>2026-04-16T08:38:03.851Z</time></trkpt><trkpt lat="40.7989367" lon="8.1871617"><ele>141.66666666666666</ele><time>2026-04-16T08:38:04.852Z</time></trkpt><trkpt lat="40.79888" lon="8.1871033"><ele>142.83333333333334</ele><time>2026-04-16T08:38:05.852Z</time></trkpt><trkpt lat="40.7988117" lon="8.186995"><ele>144.0</ele><time>2026-04-16T08:38:07.851Z</time></trkpt><trkpt lat="40.7987683" lon="8.186895"><ele>144.0</ele><time>2026-04-16T08:38:09.852Z</time></trkpt><trkpt lat="40.7987083" lon="8.1867683"><ele>144.0</ele><time>2026-04-16T08:38:11.85Z</time></trkpt><trkpt lat="40.7986667" lon="8.186685"><ele>144.0</ele><time>2026-04-16T08:38:12.851Z</time></trkpt><trkpt lat="40.798615" lon="8.1866017"><ele>144.0</ele><time>2026-04-16T08:38:13.85Z</time></trkpt><trkpt lat="40.7985517" lon="8.1865217"><ele>144.0</ele><time>2026-04-16T08:38:14.851Z</time></trkpt><trkpt lat="40.7984833" lon="8.18645"><ele>144.0</ele><time>2026-04-16T08:38:15.851Z</time></trkpt><trkpt lat="40.7984117" lon="8.1863783"><ele>144.0</ele><time>2026-04-16T08:38:16.85Z</time></trkpt><trkpt lat="40.7983483" lon="8.1863167"><ele>144.0</ele><time>2026-04-16T08:38:17.851Z</time></trkpt><trkpt lat="40.7982933" lon="8.1862567"><ele>144.0</ele><time>2026-04-16T08:38:18.851Z</time></trkpt><trkpt lat="40.798215" lon="8.1861467"><ele>144.0</ele><time>2026-04-16T08:38:20.851Z</time></trkpt><trkpt lat="40.798185" lon="8.1859617"><ele>144.0</ele><time>2026-04-16T08:38:22.851Z</time></trkpt><trkpt lat="40.7981683" lon="8.18586"><ele>144.0</ele><time>2026-04-16T08:38:23.85Z</time></trkpt><trkpt lat="40.798145" lon="8.1857617"><ele>144.0</ele><time>2026-04-16T08:38:24.851Z</time></trkpt><trkpt lat="40.7981033" lon="8.1856817"><ele>144.0</ele><time>2026-04-16T08:38:25.85Z</time></trkpt><trkpt lat="40.7980433" lon="8.1856033"><ele>144.0</ele><time>2026-04-16T08:38:26.851Z</time></trkpt><trkpt lat="40.7979783" lon="8.18554"><ele>144.0</ele><time>2026-04-16T08:38:27.851Z</time></trkpt><trkpt lat="40.7979017" lon="8.18548"><ele>144.0</ele><time>2026-04-16T08:38:28.85Z</time></trkpt><trkpt lat="40.7978283" lon="8.18544"><ele>143.5</ele><time>2026-04-16T08:38:29.85Z</time></trkpt><trkpt lat="40.7977583" lon="8.1854017"><ele>143.0</ele><time>2026-04-16T08:38:30.851Z</time></trkpt><trkpt lat="40.7976817" lon="8.1853367"><ele>142.5</ele><time>2026-04-16T08:38:31.85Z</time></trkpt><trkpt lat="40.7976" lon="8.185255"><ele>142.0</ele><time>2026-04-16T08:38:32.851Z</time></trkpt><trkpt lat="40.797525" lon="8.18519"><ele>141.5</ele><time>2026-04-16T08:38:33.851Z</time></trkpt><trkpt lat="40.7974517" lon="8.185125"><ele>141.0</ele><time>2026-04-16T08:38:34.85Z</time></trkpt><trkpt lat="40.79739" lon="8.18506"><ele>141.0</ele><time>2026-04-16T08:38:35.851Z</time></trkpt><trkpt lat="40.7973317" lon="8.1849733"><ele>141.0</ele><time>2026-04-16T08:38:36.851Z</time></trkpt><trkpt lat="40.7972917" lon="8.1848783"><ele>141.0</ele><time>2026-04-16T08:38:37.85Z</time></trkpt><trkpt lat="40.7972483" lon="8.1847717"><ele>141.0</ele><time>2026-04-16T08:38:38.85Z</time></trkpt><trkpt lat="40.7972133" lon="8.1846733"><ele>141.0</ele><time>2026-04-16T08:38:39.851Z</time></trkpt><trkpt lat="40.7971767" lon="8.1845683"><ele>141.0</ele><time>2026-04-16T08:38:40.851Z</time></trkpt><trkpt lat="40.7971383" lon="8.18445"><ele>139.2</ele><time>2026-04-16T08:38:41.851Z</time></trkpt><trkpt lat="40.7970967" lon="8.18432"><ele>137.39999999999998</ele><time>2026-04-16T08:38:42.85Z</time></trkpt><trkpt lat="40.7970433" lon="8.18418"><ele>135.6</ele><time>2026-04-16T08:38:43.851Z</time></trkpt><trkpt lat="40.7969883" lon="8.1840483"><ele>133.79999999999998</ele><time>2026-04-16T08:38:44.851Z</time></trkpt><trkpt lat="40.796935" lon="8.1839283"><ele>132.0</ele><time>2026-04-16T08:38:45.851Z</time></trkpt><trkpt lat="40.79688" lon="8.1838333"><ele>131.4</ele><time>2026-04-16T08:38:46.851Z</time></trkpt><trkpt lat="40.7968067" lon="8.1837533"><ele>130.79999999999998</ele><time>2026-04-16T08:38:47.85Z</time></trkpt><trkpt lat="40.796705" lon="8.183685"><ele>130.2</ele><time>2026-04-16T08:38:48.851Z</time></trkpt><trkpt lat="40.7966" lon="8.183645"><ele>129.6</ele><time>2026-04-16T08:38:49.851Z</time></trkpt><trkpt lat="40.7965033" lon="8.183615"><ele>129.0</ele><time>2026-04-16T08:38:50.85Z</time></trkpt><trkpt lat="40.796415" lon="8.1835767"><ele>129.0</ele><time>2026-04-16T08:38:51.851Z</time></trkpt><trkpt lat="40.79634" lon="8.1835433"><ele>129.0</ele><time>2026-04-16T08:38:52.851Z</time></trkpt><trkpt lat="40.79627" lon="8.183515"><ele>129.0</ele><time>2026-04-16T08:38:53.851Z</time></trkpt><trkpt lat="40.7961983" lon="8.1834717"><ele>129.0</ele><time>2026-04-16T08:38:54.851Z</time></trkpt><trkpt lat="40.796125" lon="8.183395"><ele>129.0</ele><time>2026-04-16T08:38:55.851Z</time></trkpt><trkpt lat="40.7960617" lon="8.1832967"><ele>129.0</ele><time>2026-04-16T08:38:56.851Z</time></trkpt><trkpt lat="40.7960017" lon="8.1831783"><ele>127.25</ele><time>2026-04-16T08:38:57.851Z</time></trkpt><trkpt lat="40.79595" lon="8.18305"><ele>125.5</ele><time>2026-04-16T08:38:58.85Z</time></trkpt><trkpt lat="40.7959" lon="8.1828933"><ele>123.75</ele><time>2026-04-16T08:38:59.851Z</time></trkpt><trkpt lat="40.7958483" lon="8.1827433"><ele>122.0</ele><time>2026-04-16T08:39:00.85Z</time></trkpt><trkpt lat="40.7957967" lon="8.1826067"><ele>121.99999999999999</ele><time>2026-04-16T08:39:01.85Z</time></trkpt><trkpt lat="40.7957567" lon="8.1824983"><ele>122.0</ele><time>2026-04-16T08:39:02.851Z</time></trkpt><trkpt lat="40.7957267" lon="8.182405"><ele>122.0</ele><time>2026-04-16T08:39:03.85Z</time></trkpt><trkpt lat="40.795715" lon="8.1823133"><ele>122.0</ele><time>2026-04-16T08:39:04.851Z</time></trkpt><trkpt lat="40.7957233" lon="8.1821983"><ele>121.99999999999999</ele><time>2026-04-16T08:39:05.851Z</time></trkpt><trkpt lat="40.7957483" lon="8.182065"><ele>122.0</ele><time>2026-04-16T08:39:06.851Z</time></trkpt><trkpt lat="40.7957767" lon="8.1819317"><ele>121.16666666666666</ele><time>2026-04-16T08:39:07.85Z</time></trkpt><trkpt lat="40.795795" lon="8.1818117"><ele>120.33333333333333</ele><time>2026-04-16T08:39:08.851Z</time></trkpt><trkpt lat="40.7958117" lon="8.1817133"><ele>119.5</ele><time>2026-04-16T08:39:09.85Z</time></trkpt><trkpt lat="40.7958383" lon="8.181615"><ele>118.66666666666666</ele><time>2026-04-16T08:39:10.851Z</time></trkpt><trkpt lat="40.795875" lon="8.181505"><ele>117.83333333333333</ele><time>2026-04-16T08:39:11.85Z</time></trkpt><trkpt lat="40.795915" lon="8.18141"><ele>117.0</ele><time>2026-04-16T08:39:12.851Z</time></trkpt><trkpt lat="40.7959617" lon="8.1813233"><ele>115.0</ele><time>2026-04-16T08:39:13.85Z</time></trkpt><trkpt lat="40.7960283" lon="8.1812467"><ele>113.0</ele><time>2026-04-16T08:39:14.85Z</time></trkpt><trkpt lat="40.7961217" lon="8.1811617"><ele>111.0</ele><time>2026-04-16T08:39:15.851Z</time></trkpt><trkpt lat="40.7962167" lon="8.1810617"><ele>109.0</ele><time>2026-04-16T08:39:16.851Z</time></trkpt><trkpt lat="40.7963133" lon="8.18095"><ele>109.0</ele><time>2026-04-16T08:39:17.851Z</time></trkpt><trkpt lat="40.7964033" lon="8.1808367"><ele>109.0</ele><time>2026-04-16T08:39:18.851Z</time></trkpt><trkpt lat="40.7964817" lon="8.1807383"><ele>109.0</ele><time>2026-04-16T08:39:19.851Z</time></trkpt><trkpt lat="40.7965583" lon="8.1806717"><ele>109.0</ele><time>2026-04-16T08:39:20.85Z</time></trkpt><trkpt lat="40.7966417" lon="8.1806183"><ele>109.0</ele><time>2026-04-16T08:39:21.85Z</time></trkpt><trkpt lat="40.79673" lon="8.18056"><ele>108.50000000000001</ele><time>2026-04-16T08:39:22.85Z</time></trkpt><trkpt lat="40.7968167" lon="8.18052"><ele>108.0</ele><time>2026-04-16T08:39:23.85Z</time></trkpt><trkpt lat="40.796895" lon="8.18048"><ele>107.5</ele><time>2026-04-16T08:39:24.851Z</time></trkpt><trkpt lat="40.7969617" lon="8.1804117"><ele>107.0</ele><time>2026-04-16T08:39:25.851Z</time></trkpt><trkpt lat="40.7970133" lon="8.1803233"><ele>106.50000000000001</ele><time>2026-04-16T08:39:26.851Z</time></trkpt><trkpt lat="40.7970417" lon="8.1802267"><ele>106.0</ele><time>2026-04-16T08:39:27.85Z</time></trkpt><trkpt lat="40.7970583" lon="8.180125"><ele>106.0</ele><time>2026-04-16T08:39:28.851Z</time></trkpt><trkpt lat="40.79705" lon="8.1800183"><ele>106.0</ele><time>2026-04-16T08:39:29.85Z</time></trkpt><trkpt lat="40.7970267" lon="8.1799017"><ele>106.0</ele><time>2026-04-16T08:39:30.851Z</time></trkpt><trkpt lat="40.7969933" lon="8.17977"><ele>106.0</ele><time>2026-04-16T08:39:31.85Z</time></trkpt><trkpt lat="40.7969517" lon="8.1796283"><ele>106.0</ele><time>2026-04-16T08:39:32.85Z</time></trkpt><trkpt lat="40.79692" lon="8.1794967"><ele>104.8</ele><time>2026-04-16T08:39:33.851Z</time></trkpt><trkpt lat="40.796915" lon="8.1793783"><ele>103.6</ele><time>2026-04-16T08:39:34.85Z</time></trkpt><trkpt lat="40.7969167" lon="8.1792433"><ele>102.4</ele><time>2026-04-16T08:39:35.85Z</time></trkpt><trkpt lat="40.7969233" lon="8.1791033"><ele>101.2</ele><time>2026-04-16T08:39:36.851Z</time></trkpt><trkpt lat="40.7969333" lon="8.17898"><ele>100.0</ele><time>2026-04-16T08:39:37.851Z</time></trkpt><trkpt lat="40.7969533" lon="8.1788417"><ele>98.25</ele><time>2026-04-16T08:39:38.85Z</time></trkpt><trkpt lat="40.796985" lon="8.1786867"><ele>96.5</ele><time>2026-04-16T08:39:39.851Z</time></trkpt><trkpt lat="40.7970167" lon="8.1785417"><ele>94.75</ele><time>2026-04-16T08:39:40.851Z</time></trkpt><trkpt lat="40.7970433" lon="8.1783967"><ele>93.0</ele><time>2026-04-16T08:39:41.85Z</time></trkpt><trkpt lat="40.7970667" lon="8.1782567"><ele>91.33333333333333</ele><time>2026-04-16T08:39:42.85Z</time></trkpt><trkpt lat="40.79708" lon="8.17813"><ele>89.66666666666667</ele><time>2026-04-16T08:39:43.851Z</time></trkpt><trkpt lat="40.7970833" lon="8.178015"><ele>88.0</ele><time>2026-04-16T08:39:44.851Z</time></trkpt><trkpt lat="40.7970683" lon="8.1779267"><ele>86.33333333333334</ele><time>2026-04-16T08:39:45.85Z</time></trkpt><trkpt lat="40.79703" lon="8.17786"><ele>84.66666666666667</ele><time>2026-04-16T08:39:46.851Z</time></trkpt><trkpt lat="40.7969083" lon="8.1778583"><ele>83.0</ele><time>2026-04-16T08:39:48.851Z</time></trkpt><trkpt lat="40.7968267" lon="8.1779017"><ele>83.0</ele><time>2026-04-16T08:39:49.85Z</time></trkpt><trkpt lat="40.7967433" lon="8.1779517"><ele>83.0</ele><time>2026-04-16T08:39:50.851Z</time></trkpt><trkpt lat="40.7966717" lon="8.17799"><ele>83.0</ele><time>2026-04-16T08:39:51.851Z</time></trkpt><trkpt lat="40.7965967" lon="8.1780017"><ele>83.0</ele><time>2026-04-16T08:39:52.85Z</time></trkpt><trkpt lat="40.7965117" lon="8.1779883"><ele>83.0</ele><time>2026-04-16T08:39:53.85Z</time></trkpt><trkpt lat="40.79643" lon="8.177975"><ele>83.0</ele><time>2026-04-16T08:39:54.85Z</time></trkpt><trkpt lat="40.7963633" lon="8.1779867"><ele>83.0</ele><time>2026-04-16T08:39:55.85Z</time></trkpt><trkpt lat="40.7962867" lon="8.1780917"><ele>83.0</ele><time>2026-04-16T08:39:57.85Z</time></trkpt><trkpt lat="40.7962317" lon="8.1781767"><ele>83.0</ele><time>2026-04-16T08:39:59.85Z</time></trkpt><trkpt lat="40.7961383" lon="8.1780967"><ele>83.0</ele><time>2026-04-16T08:40:45.851Z</time></trkpt><trkpt lat="40.7960467" lon="8.178"><ele>83.0</ele><time>2026-04-16T08:40:47.851Z</time></trkpt><trkpt lat="40.7959583" lon="8.17792"><ele>85.4</ele><time>2026-04-16T08:40:49.851Z</time></trkpt><trkpt lat="40.79587" lon="8.177865"><ele>87.80000000000001</ele><time>2026-04-16T08:40:51.85Z</time></trkpt><trkpt lat="40.7957967" lon="8.17781"><ele>90.2</ele><time>2026-04-16T08:40:53.851Z</time></trkpt><trkpt lat="40.7957067" lon="8.1777467"><ele>92.6</ele><time>2026-04-16T08:40:55.85Z</time></trkpt><trkpt lat="40.795595" lon="8.1777617"><ele>95.0</ele><time>2026-04-16T08:40:57.85Z</time></trkpt><trkpt lat="40.7955133" lon="8.177745"><ele>95.0</ele><time>2026-04-16T08:40:59.851Z</time></trkpt><trkpt lat="40.795405" lon="8.1776883"><ele>95.0</ele><time>2026-04-16T08:41:01.85Z</time></trkpt><trkpt lat="40.7953233" lon="8.1775917"><ele>95.0</ele><time>2026-04-16T08:41:03.85Z</time></trkpt><trkpt lat="40.7953283" lon="8.1774183"><ele>95.0</ele><time>2026-04-16T08:41:05.85Z</time></trkpt><trkpt lat="40.79533" lon="8.1773267"><ele>95.0</ele><time>2026-04-16T08:41:06.85Z</time></trkpt><trkpt lat="40.795305" lon="8.17723"><ele>96.6</ele><time>2026-04-16T08:41:07.849Z</time></trkpt><trkpt lat="40.7952617" lon="8.1771217"><ele>98.2</ele><time>2026-04-16T08:41:08.849Z</time></trkpt><trkpt lat="40.7951983" lon="8.1770167"><ele>99.80000000000001</ele><time>2026-04-16T08:41:09.849Z</time></trkpt><trkpt lat="40.7951333" lon="8.176905"><ele>101.4</ele><time>2026-04-16T08:41:10.849Z</time></trkpt><trkpt lat="40.7950567" lon="8.176765"><ele>103.0</ele><time>2026-04-16T08:41:11.85Z</time></trkpt><trkpt lat="40.7949683" lon="8.17661"><ele>103.33333333333334</ele><time>2026-04-16T08:41:12.85Z</time></trkpt><trkpt lat="40.794875" lon="8.17644"><ele>103.66666666666666</ele><time>2026-04-16T08:41:13.849Z</time></trkpt><trkpt lat="40.794775" lon="8.1762683"><ele>104.0</ele><time>2026-04-16T08:41:14.849Z</time></trkpt><trkpt lat="40.79469" lon="8.1761283"><ele>104.0</ele><time>2026-04-16T08:41:15.85Z</time></trkpt><trkpt lat="40.7946167" lon="8.1760133"><ele>104.0</ele><time>2026-04-16T08:41:16.85Z</time></trkpt><trkpt lat="40.79455" lon="8.1758883"><ele>104.0</ele><time>2026-04-16T08:41:17.85Z</time></trkpt><trkpt lat="40.7944833" lon="8.17575"><ele>104.0</ele><time>2026-04-16T08:41:18.849Z</time></trkpt><trkpt lat="40.7944183" lon="8.175595"><ele>104.4</ele><time>2026-04-16T08:41:19.85Z</time></trkpt><trkpt lat="40.79435" lon="8.17544"><ele>104.80000000000001</ele><time>2026-04-16T08:41:20.85Z</time></trkpt><trkpt lat="40.7942967" lon="8.1752983"><ele>105.19999999999999</ele><time>2026-04-16T08:41:21.849Z</time></trkpt><trkpt lat="40.79426" lon="8.1751717"><ele>105.6</ele><time>2026-04-16T08:41:22.85Z</time></trkpt><trkpt lat="40.79423" lon="8.1750767"><ele>106.0</ele><time>2026-04-16T08:41:23.85Z</time></trkpt><trkpt lat="40.7941667" lon="8.174985"><ele>106.6</ele><time>2026-04-16T08:41:25.85Z</time></trkpt><trkpt lat="40.7940733" lon="8.1750383"><ele>107.19999999999999</ele><time>2026-04-16T08:41:27.85Z</time></trkpt><trkpt lat="40.7939933" lon="8.1750867"><ele>107.80000000000001</ele><time>2026-04-16T08:41:28.85Z</time></trkpt><trkpt lat="40.793885" lon="8.175135"><ele>108.4</ele><time>2026-04-16T08:41:29.85Z</time></trkpt><trkpt lat="40.7937567" lon="8.1752033"><ele>109.0</ele><time>2026-04-16T08:41:30.85Z</time></trkpt><trkpt lat="40.7936383" lon="8.1752667"><ele>109.0</ele><time>2026-04-16T08:41:31.849Z</time></trkpt><trkpt lat="40.79353" lon="8.1753233"><ele>109.0</ele><time>2026-04-16T08:41:32.849Z</time></trkpt><trkpt lat="40.7934333" lon="8.1753817"><ele>109.0</ele><time>2026-04-16T08:41:33.85Z</time></trkpt><trkpt lat="40.79333" lon="8.1754467"><ele>109.0</ele><time>2026-04-16T08:41:34.85Z</time></trkpt><trkpt lat="40.7932333" lon="8.1755183"><ele>109.0</ele><time>2026-04-16T08:41:35.85Z</time></trkpt><trkpt lat="40.793135" lon="8.1755933"><ele>109.0</ele><time>2026-04-16T08:41:36.85Z</time></trkpt><trkpt lat="40.7930417" lon="8.1756767"><ele>109.0</ele><time>2026-04-16T08:41:37.85Z</time></trkpt><trkpt lat="40.7929483" lon="8.1757733"><ele>109.0</ele><time>2026-04-16T08:41:38.85Z</time></trkpt><trkpt lat="40.792855" lon="8.1758667"><ele>109.0</ele><time>2026-04-16T08:41:39.849Z</time></trkpt><trkpt lat="40.7927633" lon="8.1759667"><ele>111.5</ele><time>2026-04-16T08:41:40.85Z</time></trkpt><trkpt lat="40.7926683" lon="8.17606"><ele>114.0</ele><time>2026-04-16T08:41:41.849Z</time></trkpt><trkpt lat="40.7925817" lon="8.1761417"><ele>116.5</ele><time>2026-04-16T08:41:42.85Z</time></trkpt><trkpt lat="40.7924767" lon="8.1762017"><ele>119.0</ele><time>2026-04-16T08:41:43.849Z</time></trkpt><trkpt lat="40.7923717" lon="8.1762567"><ele>119.0</ele><time>2026-04-16T08:41:44.85Z</time></trkpt><trkpt lat="40.7922583" lon="8.176315"><ele>119.0</ele><time>2026-04-16T08:41:45.849Z</time></trkpt><trkpt lat="40.79215" lon="8.1763767"><ele>119.0</ele><time>2026-04-16T08:41:46.849Z</time></trkpt><trkpt lat="40.79203" lon="8.1764233"><ele>119.0</ele><time>2026-04-16T08:41:47.85Z</time></trkpt><trkpt lat="40.791925" lon="8.1764483"><ele>119.83333333333333</ele><time>2026-04-16T08:41:48.849Z</time></trkpt><trkpt lat="40.79184" lon="8.17647"><ele>120.66666666666666</ele><time>2026-04-16T08:41:49.849Z</time></trkpt><trkpt lat="40.7917683" lon="8.1765067"><ele>121.5</ele><time>2026-04-16T08:41:50.85Z</time></trkpt><trkpt lat="40.7916967" lon="8.176555"><ele>122.33333333333334</ele><time>2026-04-16T08:41:51.85Z</time></trkpt><trkpt lat="40.7916167" lon="8.1766117"><ele>123.16666666666667</ele><time>2026-04-16T08:41:52.85Z</time></trkpt><trkpt lat="40.791525" lon="8.1766517"><ele>124.0</ele><time>2026-04-16T08:41:53.849Z</time></trkpt><trkpt lat="40.791425" lon="8.1766833"><ele>124.0</ele><time>2026-04-16T08:41:54.849Z</time></trkpt><trkpt lat="40.7913217" lon="8.1767017"><ele>124.0</ele><time>2026-04-16T08:41:55.849Z</time></trkpt><trkpt lat="40.7912183" lon="8.1767083"><ele>124.0</ele><time>2026-04-16T08:41:56.85Z</time></trkpt><trkpt lat="40.7911283" lon="8.1767017"><ele>124.0</ele><time>2026-04-16T08:41:57.85Z</time></trkpt><trkpt lat="40.7910367" lon="8.1766867"><ele>124.0</ele><time>2026-04-16T08:41:58.849Z</time></trkpt><trkpt lat="40.7909467" lon="8.176665"><ele>124.33333333333334</ele><time>2026-04-16T08:41:59.85Z</time></trkpt><trkpt lat="40.79086" lon="8.17667"><ele>124.66666666666667</ele><time>2026-04-16T08:42:00.85Z</time></trkpt><trkpt lat="40.7907767" lon="8.1767083"><ele>125.0</ele><time>2026-04-16T08:42:01.849Z</time></trkpt><trkpt lat="40.7906933" lon="8.1767583"><ele>125.33333333333334</ele><time>2026-04-16T08:42:02.849Z</time></trkpt><trkpt lat="40.7906267" lon="8.1768233"><ele>125.66666666666667</ele><time>2026-04-16T08:42:03.849Z</time></trkpt><trkpt lat="40.7905667" lon="8.176915"><ele>126.0</ele><time>2026-04-16T08:42:04.849Z</time></trkpt><trkpt lat="40.7905117" lon="8.177025"><ele>126.0</ele><time>2026-04-16T08:42:05.85Z</time></trkpt><trkpt lat="40.7904467" lon="8.1771383"><ele>126.0</ele><time>2026-04-16T08:42:06.849Z</time></trkpt><trkpt lat="40.7903833" lon="8.177255"><ele>126.0</ele><time>2026-04-16T08:42:07.85Z</time></trkpt><trkpt lat="40.7903317" lon="8.1773667"><ele>126.0</ele><time>2026-04-16T08:42:08.85Z</time></trkpt><trkpt lat="40.7902883" lon="8.1774917"><ele>126.0</ele><time>2026-04-16T08:42:09.85Z</time></trkpt><trkpt lat="40.7902533" lon="8.1776183"><ele>126.0</ele><time>2026-04-16T08:42:10.85Z</time></trkpt><trkpt lat="40.790225" lon="8.177735"><ele>126.0</ele><time>2026-04-16T08:42:11.85Z</time></trkpt><trkpt lat="40.7901933" lon="8.177845"><ele>126.0</ele><time>2026-04-16T08:42:12.85Z</time></trkpt><trkpt lat="40.7901567" lon="8.17794"><ele>126.0</ele><time>2026-04-16T08:42:13.85Z</time></trkpt><trkpt lat="40.790105" lon="8.17803"><ele>126.0</ele><time>2026-04-16T08:42:14.85Z</time></trkpt><trkpt lat="40.7900483" lon="8.17814"><ele>126.0</ele><time>2026-04-16T08:42:15.85Z</time></trkpt><trkpt lat="40.7899883" lon="8.1782683"><ele>124.75</ele><time>2026-04-16T08:42:16.849Z</time></trkpt><trkpt lat="40.7899383" lon="8.178415"><ele>123.5</ele><time>2026-04-16T08:42:17.849Z</time></trkpt><trkpt lat="40.7899133" lon="8.1785617"><ele>122.25</ele><time>2026-04-16T08:42:18.85Z</time></trkpt><trkpt lat="40.7899167" lon="8.1787117"><ele>121.0</ele><time>2026-04-16T08:42:19.85Z</time></trkpt><trkpt lat="40.7899233" lon="8.178865"><ele>121.0</ele><time>2026-04-16T08:42:20.849Z</time></trkpt><trkpt lat="40.7899267" lon="8.178995"><ele>121.0</ele><time>2026-04-16T08:42:21.85Z</time></trkpt><trkpt lat="40.78993" lon="8.1791233"><ele>121.0</ele><time>2026-04-16T08:42:22.849Z</time></trkpt><trkpt lat="40.7899217" lon="8.1792467"><ele>121.0</ele><time>2026-04-16T08:42:23.849Z</time></trkpt><trkpt lat="40.789915" lon="8.1793767"><ele>121.0</ele><time>2026-04-16T08:42:24.85Z</time></trkpt><trkpt lat="40.7899217" lon="8.179525"><ele>120.8</ele><time>2026-04-16T08:42:25.85Z</time></trkpt><trkpt lat="40.7899417" lon="8.1796767"><ele>120.6</ele><time>2026-04-16T08:42:26.849Z</time></trkpt><trkpt lat="40.789965" lon="8.1798117"><ele>120.4</ele><time>2026-04-16T08:42:27.849Z</time></trkpt><trkpt lat="40.7899767" lon="8.179945"><ele>120.2</ele><time>2026-04-16T08:42:28.849Z</time></trkpt><trkpt lat="40.7899717" lon="8.1800767"><ele>120.0</ele><time>2026-04-16T08:42:29.849Z</time></trkpt><trkpt lat="40.7899483" lon="8.1801983"><ele>120.0</ele><time>2026-04-16T08:42:30.85Z</time></trkpt><trkpt lat="40.789905" lon="8.180305"><ele>120.0</ele><time>2026-04-16T08:42:31.849Z</time></trkpt><trkpt lat="40.7898517" lon="8.1804183"><ele>120.0</ele><time>2026-04-16T08:42:32.849Z</time></trkpt><trkpt lat="40.7897933" lon="8.1805383"><ele>120.0</ele><time>2026-04-16T08:42:33.849Z</time></trkpt><trkpt lat="40.78974" lon="8.1806633"><ele>120.0</ele><time>2026-04-16T08:42:34.85Z</time></trkpt><trkpt lat="40.789685" lon="8.1807933"><ele>119.2</ele><time>2026-04-16T08:42:35.849Z</time></trkpt><trkpt lat="40.7896267" lon="8.180895"><ele>118.4</ele><time>2026-04-16T08:42:36.85Z</time></trkpt><trkpt lat="40.7895533" lon="8.1809717"><ele>117.6</ele><time>2026-04-16T08:42:37.85Z</time></trkpt><trkpt lat="40.7894617" lon="8.1810383"><ele>116.8</ele><time>2026-04-16T08:42:38.849Z</time></trkpt><trkpt lat="40.78936" lon="8.1811"><ele>116.0</ele><time>2026-04-16T08:42:39.85Z</time></trkpt><trkpt lat="40.7892533" lon="8.1811533"><ele>118.0</ele><time>2026-04-16T08:42:40.85Z</time></trkpt><trkpt lat="40.7891433" lon="8.1812483"><ele>120.0</ele><time>2026-04-16T08:42:41.849Z</time></trkpt><trkpt lat="40.7890417" lon="8.1813383"><ele>122.0</ele><time>2026-04-16T08:42:42.85Z</time></trkpt><trkpt lat="40.78894" lon="8.181415"><ele>124.0</ele><time>2026-04-16T08:42:43.85Z</time></trkpt><trkpt lat="40.78885" lon="8.1815033"><ele>121.5</ele><time>2026-04-16T08:42:44.849Z</time></trkpt><trkpt lat="40.788765" lon="8.18162"><ele>119.0</ele><time>2026-04-16T08:42:45.85Z</time></trkpt><trkpt lat="40.7886867" lon="8.1817517"><ele>116.5</ele><time>2026-04-16T08:42:46.849Z</time></trkpt><trkpt lat="40.7886233" lon="8.181885"><ele>114.0</ele><time>2026-04-16T08:42:47.85Z</time></trkpt><trkpt lat="40.7885733" lon="8.1820217"><ele>114.0</ele><time>2026-04-16T08:42:48.849Z</time></trkpt><trkpt lat="40.7885317" lon="8.1821683"><ele>114.0</ele><time>2026-04-16T08:42:49.85Z</time></trkpt><trkpt lat="40.7885033" lon="8.1823167"><ele>114.0</ele><time>2026-04-16T08:42:50.849Z</time></trkpt><trkpt lat="40.7884783" lon="8.1824667"><ele>114.0</ele><time>2026-04-16T08:42:51.85Z</time></trkpt><trkpt lat="40.7884467" lon="8.1825967"><ele>113.5</ele><time>2026-04-16T08:42:52.85Z</time></trkpt><trkpt lat="40.7884017" lon="8.18271"><ele>113.0</ele><time>2026-04-16T08:42:53.85Z</time></trkpt><trkpt lat="40.7883317" lon="8.1828167"><ele>112.5</ele><time>2026-04-16T08:42:54.85Z</time></trkpt><trkpt lat="40.7882483" lon="8.1829317"><ele>112.0</ele><time>2026-04-16T08:42:55.849Z</time></trkpt><trkpt lat="40.7881533" lon="8.1830533"><ele>111.75</ele><time>2026-04-16T08:42:56.85Z</time></trkpt><trkpt lat="40.7880583" lon="8.1831967"><ele>111.5</ele><time>2026-04-16T08:42:57.85Z</time></trkpt><trkpt lat="40.7879583" lon="8.1833483"><ele>111.25</ele><time>2026-04-16T08:42:58.849Z</time></trkpt><trkpt lat="40.7878633" lon="8.183505"><ele>111.0</ele><time>2026-04-16T08:42:59.85Z</time></trkpt><trkpt lat="40.7877867" lon="8.1836817"><ele>111.0</ele><time>2026-04-16T08:43:00.849Z</time></trkpt><trkpt lat="40.787715" lon="8.183865"><ele>111.0</ele><time>2026-04-16T08:43:01.85Z</time></trkpt><trkpt lat="40.78764" lon="8.1840267"><ele>111.0</ele><time>2026-04-16T08:43:02.849Z</time></trkpt><trkpt lat="40.787555" lon="8.184165"><ele>111.0</ele><time>2026-04-16T08:43:03.85Z</time></trkpt><trkpt lat="40.7874817" lon="8.1842883"><ele>111.4</ele><time>2026-04-16T08:43:04.849Z</time></trkpt><trkpt lat="40.7874167" lon="8.1843983"><ele>111.8</ele><time>2026-04-16T08:43:05.849Z</time></trkpt><trkpt lat="40.7873367" lon="8.184505"><ele>112.20000000000002</ele><time>2026-04-16T08:43:06.849Z</time></trkpt><trkpt lat="40.787265" lon="8.1846117"><ele>112.60000000000001</ele><time>2026-04-16T08:43:07.849Z</time></trkpt><trkpt lat="40.78721" lon="8.1847083"><ele>113.0</ele><time>2026-04-16T08:43:08.85Z</time></trkpt><trkpt lat="40.7871817" lon="8.1848033"><ele>113.16666666666666</ele><time>2026-04-16T08:43:09.85Z</time></trkpt><trkpt lat="40.7871767" lon="8.1849"><ele>113.33333333333333</ele><time>2026-04-16T08:43:10.849Z</time></trkpt><trkpt lat="40.787185" lon="8.1849983"><ele>113.5</ele><time>2026-04-16T08:43:11.85Z</time></trkpt><trkpt lat="40.7872" lon="8.185095"><ele>113.66666666666666</ele><time>2026-04-16T08:43:12.85Z</time></trkpt><trkpt lat="40.7872333" lon="8.1852367"><ele>113.83333333333333</ele><time>2026-04-16T08:43:14.849Z</time></trkpt><trkpt lat="40.7872517" lon="8.1853467"><ele>114.0</ele><time>2026-04-16T08:43:16.849Z</time></trkpt><trkpt lat="40.7871917" lon="8.185385"><ele>114.0</ele><time>2026-04-16T08:43:19.849Z</time></trkpt><trkpt lat="40.78712" lon="8.1854"><ele>114.0</ele><time>2026-04-16T08:43:21.849Z</time></trkpt><trkpt lat="40.787" lon="8.1854533"><ele>114.0</ele><time>2026-04-16T08:43:23.85Z</time></trkpt><trkpt lat="40.7869117" lon="8.185485"><ele>114.0</ele><time>2026-04-16T08:43:24.85Z</time></trkpt><trkpt lat="40.78681" lon="8.1855167"><ele>114.0</ele><time>2026-04-16T08:43:25.85Z</time></trkpt><trkpt lat="40.7866983" lon="8.185555"><ele>114.25</ele><time>2026-04-16T08:43:26.849Z</time></trkpt><trkpt lat="40.7865817" lon="8.1855967"><ele>114.5</ele><time>2026-04-16T08:43:27.85Z</time></trkpt><trkpt lat="40.7864667" lon="8.185635"><ele>114.75</ele><time>2026-04-16T08:43:28.849Z</time></trkpt><trkpt lat="40.7863417" lon="8.18568"><ele>115.0</ele><time>2026-04-16T08:43:29.849Z</time></trkpt><trkpt lat="40.7862283" lon="8.18575"><ele>115.75</ele><time>2026-04-16T08:43:30.849Z</time></trkpt><trkpt lat="40.7861233" lon="8.1858433"><ele>116.5</ele><time>2026-04-16T08:43:31.849Z</time></trkpt><trkpt lat="40.7860267" lon="8.18595"><ele>117.25</ele><time>2026-04-16T08:43:32.849Z</time></trkpt><trkpt lat="40.785915" lon="8.1860333"><ele>118.0</ele><time>2026-04-16T08:43:33.85Z</time></trkpt><trkpt lat="40.7857967" lon="8.1860783"><ele>118.0</ele><time>2026-04-16T08:43:34.85Z</time></trkpt><trkpt lat="40.7856817" lon="8.1861117"><ele>118.00000000000001</ele><time>2026-04-16T08:43:35.85Z</time></trkpt><trkpt lat="40.7855783" lon="8.1861333"><ele>118.00000000000001</ele><time>2026-04-16T08:43:36.85Z</time></trkpt><trkpt lat="40.7854883" lon="8.1861633"><ele>118.0</ele><time>2026-04-16T08:43:37.849Z</time></trkpt><trkpt lat="40.7854133" lon="8.18619"><ele>118.0</ele><time>2026-04-16T08:43:38.85Z</time></trkpt><trkpt lat="40.7853167" lon="8.1861133"><ele>118.0</ele><time>2026-04-16T08:43:40.85Z</time></trkpt><trkpt lat="40.7852917" lon="8.186"><ele>118.0</ele><time>2026-04-16T08:43:41.849Z</time></trkpt><trkpt lat="40.78527" lon="8.1858517"><ele>118.0</ele><time>2026-04-16T08:43:42.85Z</time></trkpt><trkpt lat="40.7852467" lon="8.1856833"><ele>118.0</ele><time>2026-04-16T08:43:43.85Z</time></trkpt><trkpt lat="40.7852233" lon="8.1854983"><ele>118.0</ele><time>2026-04-16T08:43:44.85Z</time></trkpt><trkpt lat="40.7852067" lon="8.1853133"><ele>118.0</ele><time>2026-04-16T08:43:45.85Z</time></trkpt><trkpt lat="40.7851883" lon="8.1851333"><ele>118.0</ele><time>2026-04-16T08:43:46.85Z</time></trkpt><trkpt lat="40.7851683" lon="8.1849733"><ele>118.0</ele><time>2026-04-16T08:43:47.849Z</time></trkpt><trkpt lat="40.78513" lon="8.18483"><ele>119.0</ele><time>2026-04-16T08:43:48.85Z</time></trkpt><trkpt lat="40.78508" lon="8.1847117"><ele>120.00000000000001</ele><time>2026-04-16T08:43:49.85Z</time></trkpt><trkpt lat="40.785015" lon="8.1846183"><ele>121.00000000000001</ele><time>2026-04-16T08:43:50.85Z</time></trkpt><trkpt lat="40.7849383" lon="8.1845533"><ele>122.0</ele><time>2026-04-16T08:43:51.85Z</time></trkpt><trkpt lat="40.7848467" lon="8.18451"><ele>123.0</ele><time>2026-04-16T08:43:52.849Z</time></trkpt><trkpt lat="40.7847533" lon="8.1844883"><ele>123.0</ele><time>2026-04-16T08:43:53.85Z</time></trkpt><trkpt lat="40.7846817" lon="8.1844483"><ele>123.0</ele><time>2026-04-16T08:43:54.849Z</time></trkpt><trkpt lat="40.7846283" lon="8.1843883"><ele>123.0</ele><time>2026-04-16T08:43:55.848Z</time></trkpt><trkpt lat="40.7845817" lon="8.1843083"><ele>123.0</ele><time>2026-04-16T08:43:56.849Z</time></trkpt><trkpt lat="40.7845567" lon="8.1841967"><ele>123.0</ele><time>2026-04-16T08:43:57.849Z</time></trkpt><trkpt lat="40.784545" lon="8.1840567"><ele>123.0</ele><time>2026-04-16T08:43:58.848Z</time></trkpt><trkpt lat="40.7845383" lon="8.183935"><ele>123.66666666666667</ele><time>2026-04-16T08:43:59.848Z</time></trkpt><trkpt lat="40.7845267" lon="8.1838333"><ele>124.33333333333334</ele><time>2026-04-16T08:44:00.849Z</time></trkpt><trkpt lat="40.784495" lon="8.1837517"><ele>125.0</ele><time>2026-04-16T08:44:01.848Z</time></trkpt><trkpt lat="40.7844417" lon="8.1836933"><ele>125.66666666666667</ele><time>2026-04-16T08:44:02.848Z</time></trkpt><trkpt lat="40.7843567" lon="8.1836517"><ele>126.33333333333334</ele><time>2026-04-16T08:44:03.849Z</time></trkpt><trkpt lat="40.7842617" lon="8.1836167"><ele>127.0</ele><time>2026-04-16T08:44:04.848Z</time></trkpt><trkpt lat="40.7841667" lon="8.183565"><ele>127.6</ele><time>2026-04-16T08:44:05.849Z</time></trkpt><trkpt lat="40.78407" lon="8.1835083"><ele>128.2</ele><time>2026-04-16T08:44:06.849Z</time></trkpt><trkpt lat="40.7839717" lon="8.183445"><ele>128.8</ele><time>2026-04-16T08:44:07.849Z</time></trkpt><trkpt lat="40.7838817" lon="8.1833817"><ele>129.4</ele><time>2026-04-16T08:44:08.849Z</time></trkpt><trkpt lat="40.783785" lon="8.1833167"><ele>130.0</ele><time>2026-04-16T08:44:09.849Z</time></trkpt><trkpt lat="40.78369" lon="8.1832383"><ele>130.33333333333334</ele><time>2026-04-16T08:44:10.849Z</time></trkpt><trkpt lat="40.783605" lon="8.18315"><ele>130.66666666666669</ele><time>2026-04-16T08:44:11.848Z</time></trkpt><trkpt lat="40.7835333" lon="8.183055"><ele>131.0</ele><time>2026-04-16T08:44:12.848Z</time></trkpt><trkpt lat="40.78347" lon="8.18299"><ele>131.33333333333334</ele><time>2026-04-16T08:44:13.848Z</time></trkpt><trkpt lat="40.7834067" lon="8.1829667"><ele>131.66666666666666</ele><time>2026-04-16T08:44:14.849Z</time></trkpt><trkpt lat="40.78333" lon="8.1829983"><ele>132.0</ele><time>2026-04-16T08:44:15.848Z</time></trkpt><trkpt lat="40.7832467" lon="8.1830567"><ele>133.2</ele><time>2026-04-16T08:44:16.849Z</time></trkpt><trkpt lat="40.7831567" lon="8.1830933"><ele>134.39999999999998</ele><time>2026-04-16T08:44:17.849Z</time></trkpt><trkpt lat="40.78307" lon="8.1830983"><ele>135.60000000000002</ele><time>2026-04-16T08:44:18.849Z</time></trkpt><trkpt lat="40.782975" lon="8.183075"><ele>136.8</ele><time>2026-04-16T08:44:19.849Z</time></trkpt><trkpt lat="40.7828617" lon="8.1830467"><ele>138.0</ele><time>2026-04-16T08:44:20.849Z</time></trkpt><trkpt lat="40.7827433" lon="8.183025"><ele>139.5</ele><time>2026-04-16T08:44:21.848Z</time></trkpt><trkpt lat="40.782625" lon="8.1830083"><ele>141.0</ele><time>2026-04-16T08:44:22.848Z</time></trkpt><trkpt lat="40.7825067" lon="8.183005"><ele>142.5</ele><time>2026-04-16T08:44:23.848Z</time></trkpt><trkpt lat="40.7823917" lon="8.1830083"><ele>144.0</ele><time>2026-04-16T08:44:24.849Z</time></trkpt><trkpt lat="40.7822833" lon="8.1830033"><ele>144.0</ele><time>2026-04-16T08:44:25.849Z</time></trkpt><trkpt lat="40.7821833" lon="8.182975"><ele>144.0</ele><time>2026-04-16T08:44:26.849Z</time></trkpt><trkpt lat="40.782085" lon="8.1829233"><ele>144.0</ele><time>2026-04-16T08:44:27.849Z</time></trkpt><trkpt lat="40.7819817" lon="8.18287"><ele>144.0</ele><time>2026-04-16T08:44:28.848Z</time></trkpt><trkpt lat="40.781875" lon="8.18283"><ele>144.0</ele><time>2026-04-16T08:44:29.849Z</time></trkpt><trkpt lat="40.78176" lon="8.182805"><ele>144.75</ele><time>2026-04-16T08:44:30.848Z</time></trkpt><trkpt lat="40.7816333" lon="8.182785"><ele>145.5</ele><time>2026-04-16T08:44:31.848Z</time></trkpt><trkpt lat="40.7815067" lon="8.182755"><ele>146.25</ele><time>2026-04-16T08:44:32.848Z</time></trkpt><trkpt lat="40.78138" lon="8.1827233"><ele>147.0</ele><time>2026-04-16T08:44:33.849Z</time></trkpt><trkpt lat="40.78125" lon="8.1826767"><ele>147.0</ele><time>2026-04-16T08:44:34.848Z</time></trkpt><trkpt lat="40.7811217" lon="8.182625"><ele>147.0</ele><time>2026-04-16T08:44:35.849Z</time></trkpt><trkpt lat="40.7809917" lon="8.182605"><ele>147.0</ele><time>2026-04-16T08:44:36.849Z</time></trkpt><trkpt lat="40.78087" lon="8.1825767"><ele>147.0</ele><time>2026-04-16T08:44:37.849Z</time></trkpt><trkpt lat="40.780755" lon="8.1825367"><ele>148.5</ele><time>2026-04-16T08:44:38.849Z</time></trkpt><trkpt lat="40.78063" lon="8.1825067"><ele>150.0</ele><time>2026-04-16T08:44:39.849Z</time></trkpt><trkpt lat="40.7805" lon="8.1825083"><ele>151.5</ele><time>2026-04-16T08:44:40.848Z</time></trkpt><trkpt lat="40.7803817" lon="8.1825417"><ele>153.0</ele><time>2026-04-16T08:44:41.848Z</time></trkpt><trkpt lat="40.7802783" lon="8.18262"><ele>154.25</ele><time>2026-04-16T08:44:42.849Z</time></trkpt><trkpt lat="40.7801733" lon="8.182715"><ele>155.5</ele><time>2026-04-16T08:44:43.848Z</time></trkpt><trkpt lat="40.780065" lon="8.1828233"><ele>156.75</ele><time>2026-04-16T08:44:44.848Z</time></trkpt><trkpt lat="40.7799583" lon="8.1829267"><ele>158.0</ele><time>2026-04-16T08:44:45.849Z</time></trkpt><trkpt lat="40.7798833" lon="8.183045"><ele>160.0</ele><time>2026-04-16T08:44:46.849Z</time></trkpt><trkpt lat="40.7798433" lon="8.1831817"><ele>162.0</ele><time>2026-04-16T08:44:47.849Z</time></trkpt><trkpt lat="40.7797983" lon="8.1833233"><ele>164.0</ele><time>2026-04-16T08:44:48.848Z</time></trkpt><trkpt lat="40.7797467" lon="8.183465"><ele>166.0</ele><time>2026-04-16T08:44:49.849Z</time></trkpt><trkpt lat="40.7796783" lon="8.18359"><ele>166.0</ele><time>2026-04-16T08:44:50.849Z</time></trkpt><trkpt lat="40.7796033" lon="8.1836817"><ele>166.0</ele><time>2026-04-16T08:44:51.849Z</time></trkpt><trkpt lat="40.779525" lon="8.1837367"><ele>166.0</ele><time>2026-04-16T08:44:52.848Z</time></trkpt><trkpt lat="40.77944" lon="8.1837667"><ele>166.0</ele><time>2026-04-16T08:44:53.849Z</time></trkpt><trkpt lat="40.779345" lon="8.1838033"><ele>166.0</ele><time>2026-04-16T08:44:54.849Z</time></trkpt><trkpt lat="40.7792417" lon="8.1838383"><ele>168.0</ele><time>2026-04-16T08:44:55.849Z</time></trkpt><trkpt lat="40.7791367" lon="8.18386"><ele>170.0</ele><time>2026-04-16T08:44:56.849Z</time></trkpt><trkpt lat="40.779055" lon="8.1838833"><ele>172.0</ele><time>2026-04-16T08:44:57.849Z</time></trkpt><trkpt lat="40.7789433" lon="8.1839017"><ele>174.0</ele><time>2026-04-16T08:44:59.849Z</time></trkpt><trkpt lat="40.7788717" lon="8.1838917"><ele>176.0</ele><time>2026-04-16T08:45:00.848Z</time></trkpt><trkpt lat="40.7787867" lon="8.18386"><ele>176.0</ele><time>2026-04-16T08:45:01.849Z</time></trkpt><trkpt lat="40.7786967" lon="8.1838167"><ele>176.0</ele><time>2026-04-16T08:45:02.849Z</time></trkpt><trkpt lat="40.7786067" lon="8.1837683"><ele>176.0</ele><time>2026-04-16T08:45:03.849Z</time></trkpt><trkpt lat="40.77852" lon="8.183725"><ele>176.0</ele><time>2026-04-16T08:45:04.848Z</time></trkpt><trkpt lat="40.7784367" lon="8.1836783"><ele>176.0</ele><time>2026-04-16T08:45:05.849Z</time></trkpt><trkpt lat="40.7783517" lon="8.1836367"><ele>177.33333333333331</ele><time>2026-04-16T08:45:06.849Z</time></trkpt><trkpt lat="40.7782783" lon="8.1835867"><ele>178.66666666666666</ele><time>2026-04-16T08:45:07.848Z</time></trkpt><trkpt lat="40.778215" lon="8.1835267"><ele>180.0</ele><time>2026-04-16T08:45:08.848Z</time></trkpt><trkpt lat="40.77814" lon="8.1834667"><ele>181.33333333333334</ele><time>2026-04-16T08:45:09.848Z</time></trkpt><trkpt lat="40.77806" lon="8.183415"><ele>182.66666666666669</ele><time>2026-04-16T08:45:10.849Z</time></trkpt><trkpt lat="40.7779683" lon="8.1833633"><ele>184.0</ele><time>2026-04-16T08:45:11.848Z</time></trkpt><trkpt lat="40.7778683" lon="8.183305"><ele>184.0</ele><time>2026-04-16T08:45:12.849Z</time></trkpt><trkpt lat="40.7777583" lon="8.1832517"><ele>184.0</ele><time>2026-04-16T08:45:13.848Z</time></trkpt><trkpt lat="40.7776417" lon="8.1832133"><ele>184.0</ele><time>2026-04-16T08:45:14.849Z</time></trkpt><trkpt lat="40.7775183" lon="8.1831883"><ele>184.0</ele><time>2026-04-16T08:45:15.848Z</time></trkpt><trkpt lat="40.77738" lon="8.1831767"><ele>184.5</ele><time>2026-04-16T08:45:16.849Z</time></trkpt><trkpt lat="40.7772383" lon="8.1831717"><ele>185.0</ele><time>2026-04-16T08:45:17.848Z</time></trkpt><trkpt lat="40.7771033" lon="8.1831567"><ele>185.5</ele><time>2026-04-16T08:45:18.848Z</time></trkpt><trkpt lat="40.77696" lon="8.1831267"><ele>186.0</ele><time>2026-04-16T08:45:19.849Z</time></trkpt><trkpt lat="40.77682" lon="8.1830967"><ele>188.0</ele><time>2026-04-16T08:45:20.849Z</time></trkpt><trkpt lat="40.776675" lon="8.183065"><ele>190.0</ele><time>2026-04-16T08:45:21.848Z</time></trkpt><trkpt lat="40.7765333" lon="8.1830333"><ele>192.0</ele><time>2026-04-16T08:45:22.848Z</time></trkpt><trkpt lat="40.776395" lon="8.182995"><ele>194.0</ele><time>2026-04-16T08:45:23.849Z</time></trkpt><trkpt lat="40.77627" lon="8.1829517"><ele>194.0</ele><time>2026-04-16T08:45:24.849Z</time></trkpt><trkpt lat="40.7761567" lon="8.1829067"><ele>194.0</ele><time>2026-04-16T08:45:25.849Z</time></trkpt><trkpt lat="40.77603" lon="8.18288"><ele>194.0</ele><time>2026-04-16T08:45:26.848Z</time></trkpt><trkpt lat="40.7759017" lon="8.1828833"><ele>194.0</ele><time>2026-04-16T08:45:27.849Z</time></trkpt><trkpt lat="40.7757683" lon="8.1829183"><ele>193.79999999999998</ele><time>2026-04-16T08:45:28.848Z</time></trkpt><trkpt lat="40.7756417" lon="8.1829617"><ele>193.6</ele><time>2026-04-16T08:45:29.849Z</time></trkpt><trkpt lat="40.775535" lon="8.183015"><ele>193.4</ele><time>2026-04-16T08:45:30.849Z</time></trkpt><trkpt lat="40.7754483" lon="8.1830733"><ele>193.2</ele><time>2026-04-16T08:45:31.848Z</time></trkpt><trkpt lat="40.775385" lon="8.18314"><ele>193.0</ele><time>2026-04-16T08:45:32.849Z</time></trkpt><trkpt lat="40.7752733" lon="8.18318"><ele>193.0</ele><time>2026-04-16T08:45:34.849Z</time></trkpt><trkpt lat="40.77521" lon="8.1831317"><ele>193.0</ele><time>2026-04-16T08:45:35.848Z</time></trkpt><trkpt lat="40.7751317" lon="8.1830483"><ele>193.0</ele><time>2026-04-16T08:45:36.849Z</time></trkpt><trkpt lat="40.775035" lon="8.18295"><ele>193.0</ele><time>2026-04-16T08:45:37.848Z</time></trkpt><trkpt lat="40.7749283" lon="8.1828533"><ele>193.0</ele><time>2026-04-16T08:45:38.849Z</time></trkpt><trkpt lat="40.774815" lon="8.182735"><ele>191.5</ele><time>2026-04-16T08:45:39.849Z</time></trkpt><trkpt lat="40.7747067" lon="8.1826183"><ele>190.0</ele><time>2026-04-16T08:45:40.848Z</time></trkpt><trkpt lat="40.774595" lon="8.1825033"><ele>188.5</ele><time>2026-04-16T08:45:41.849Z</time></trkpt><trkpt lat="40.7744833" lon="8.1823917"><ele>187.0</ele><time>2026-04-16T08:45:42.849Z</time></trkpt><trkpt lat="40.7743867" lon="8.1822933"><ele>186.33333333333334</ele><time>2026-04-16T08:45:43.849Z</time></trkpt><trkpt lat="40.7742917" lon="8.1822083"><ele>185.66666666666669</ele><time>2026-04-16T08:45:44.849Z</time></trkpt><trkpt lat="40.774215" lon="8.1821417"><ele>185.0</ele><time>2026-04-16T08:45:45.849Z</time></trkpt><trkpt lat="40.7741383" lon="8.18209"><ele>184.33333333333334</ele><time>2026-04-16T08:45:46.848Z</time></trkpt><trkpt lat="40.7740667" lon="8.1820667"><ele>183.66666666666666</ele><time>2026-04-16T08:45:47.849Z</time></trkpt><trkpt lat="40.774" lon="8.1820633"><ele>183.0</ele><time>2026-04-16T08:45:48.849Z</time></trkpt><trkpt lat="40.7739417" lon="8.182105"><ele>183.0</ele><time>2026-04-16T08:45:49.849Z</time></trkpt><trkpt lat="40.7738867" lon="8.1821867"><ele>183.0</ele><time>2026-04-16T08:45:50.848Z</time></trkpt><trkpt lat="40.77383" lon="8.182295"><ele>183.0</ele><time>2026-04-16T08:45:51.849Z</time></trkpt><trkpt lat="40.7737733" lon="8.1824117"><ele>183.0</ele><time>2026-04-16T08:45:52.849Z</time></trkpt><trkpt lat="40.773715" lon="8.18255"><ele>183.0</ele><time>2026-04-16T08:45:53.849Z</time></trkpt><trkpt lat="40.7736583" lon="8.1827067"><ele>181.75</ele><time>2026-04-16T08:45:54.849Z</time></trkpt><trkpt lat="40.7736" lon="8.1828733"><ele>180.5</ele><time>2026-04-16T08:45:55.849Z</time></trkpt><trkpt lat="40.7735467" lon="8.1830317"><ele>179.25</ele><time>2026-04-16T08:45:56.849Z</time></trkpt><trkpt lat="40.773495" lon="8.1831783"><ele>178.0</ele><time>2026-04-16T08:45:57.849Z</time></trkpt><trkpt lat="40.7734433" lon="8.18331"><ele>175.5</ele><time>2026-04-16T08:45:58.849Z</time></trkpt><trkpt lat="40.7733783" lon="8.1834283"><ele>173.0</ele><time>2026-04-16T08:45:59.848Z</time></trkpt><trkpt lat="40.773315" lon="8.18356"><ele>170.5</ele><time>2026-04-16T08:46:00.848Z</time></trkpt><trkpt lat="40.7732567" lon="8.183705"><ele>168.0</ele><time>2026-04-16T08:46:01.849Z</time></trkpt><trkpt lat="40.7732183" lon="8.18386"><ele>166.8</ele><time>2026-04-16T08:46:02.849Z</time></trkpt><trkpt lat="40.7732" lon="8.1840267"><ele>165.60000000000002</ele><time>2026-04-16T08:46:03.848Z</time></trkpt><trkpt lat="40.7731867" lon="8.1841817"><ele>164.39999999999998</ele><time>2026-04-16T08:46:04.849Z</time></trkpt><trkpt lat="40.77317" lon="8.184325"><ele>163.2</ele><time>2026-04-16T08:46:05.849Z</time></trkpt><trkpt lat="40.773145" lon="8.1844417"><ele>162.0</ele><time>2026-04-16T08:46:06.848Z</time></trkpt><trkpt lat="40.7730967" lon="8.1845333"><ele>162.0</ele><time>2026-04-16T08:46:07.849Z</time></trkpt><trkpt lat="40.7730183" lon="8.1846217"><ele>162.0</ele><time>2026-04-16T08:46:08.849Z</time></trkpt><trkpt lat="40.7729233" lon="8.184725"><ele>162.0</ele><time>2026-04-16T08:46:09.849Z</time></trkpt><trkpt lat="40.7728267" lon="8.1848417"><ele>162.0</ele><time>2026-04-16T08:46:10.849Z</time></trkpt><trkpt lat="40.7727367" lon="8.18497"><ele>162.0</ele><time>2026-04-16T08:46:11.848Z</time></trkpt><trkpt lat="40.77267" lon="8.1850983"><ele>162.0</ele><time>2026-04-16T08:46:12.849Z</time></trkpt><trkpt lat="40.7726433" lon="8.1852233"><ele>162.0</ele><time>2026-04-16T08:46:13.849Z</time></trkpt><trkpt lat="40.7726467" lon="8.18535"><ele>162.0</ele><time>2026-04-16T08:46:14.849Z</time></trkpt><trkpt lat="40.77267" lon="8.1854783"><ele>162.0</ele><time>2026-04-16T08:46:15.849Z</time></trkpt><trkpt lat="40.772695" lon="8.1856167"><ele>161.5</ele><time>2026-04-16T08:46:16.848Z</time></trkpt><trkpt lat="40.77271" lon="8.185765"><ele>161.0</ele><time>2026-04-16T08:46:17.848Z</time></trkpt><trkpt lat="40.7727383" lon="8.1859183"><ele>160.5</ele><time>2026-04-16T08:46:18.849Z</time></trkpt><trkpt lat="40.7727917" lon="8.1860833"><ele>160.0</ele><time>2026-04-16T08:46:19.849Z</time></trkpt><trkpt lat="40.772865" lon="8.1862433"><ele>160.0</ele><time>2026-04-16T08:46:20.848Z</time></trkpt><trkpt lat="40.7729367" lon="8.1863967"><ele>160.0</ele><time>2026-04-16T08:46:21.849Z</time></trkpt><trkpt lat="40.7730083" lon="8.1865367"><ele>160.0</ele><time>2026-04-16T08:46:22.848Z</time></trkpt><trkpt lat="40.7730633" lon="8.18666"><ele>160.0</ele><time>2026-04-16T08:46:23.848Z</time></trkpt><trkpt lat="40.773095" lon="8.1867567"><ele>159.2</ele><time>2026-04-16T08:46:24.849Z</time></trkpt><trkpt lat="40.7731033" lon="8.1868617"><ele>158.4</ele><time>2026-04-16T08:46:25.849Z</time></trkpt><trkpt lat="40.773085" lon="8.18698"><ele>157.6</ele><time>2026-04-16T08:46:26.849Z</time></trkpt><trkpt lat="40.7730417" lon="8.1871133"><ele>156.8</ele><time>2026-04-16T08:46:27.849Z</time></trkpt><trkpt lat="40.7730017" lon="8.1872767"><ele>156.0</ele><time>2026-04-16T08:46:28.848Z</time></trkpt><trkpt lat="40.772965" lon="8.1874633"><ele>154.66666666666666</ele><time>2026-04-16T08:46:29.848Z</time></trkpt><trkpt lat="40.77294" lon="8.1876517"><ele>153.33333333333331</ele><time>2026-04-16T08:46:30.848Z</time></trkpt><trkpt lat="40.7729283" lon="8.187845"><ele>152.0</ele><time>2026-04-16T08:46:31.849Z</time></trkpt><trkpt lat="40.7729217" lon="8.1880567"><ele>151.25</ele><time>2026-04-16T08:46:32.849Z</time></trkpt><trkpt lat="40.772925" lon="8.1882667"><ele>150.5</ele><time>2026-04-16T08:46:33.849Z</time></trkpt><trkpt lat="40.772935" lon="8.1884517"><ele>149.75</ele><time>2026-04-16T08:46:34.849Z</time></trkpt><trkpt lat="40.7729533" lon="8.18861"><ele>149.0</ele><time>2026-04-16T08:46:35.849Z</time></trkpt><trkpt lat="40.77296" lon="8.1887417"><ele>149.0</ele><time>2026-04-16T08:46:36.849Z</time></trkpt><trkpt lat="40.7729467" lon="8.188865"><ele>149.0</ele><time>2026-04-16T08:46:37.849Z</time></trkpt><trkpt lat="40.7729067" lon="8.1889917"><ele>149.0</ele><time>2026-04-16T08:46:38.849Z</time></trkpt><trkpt lat="40.7728533" lon="8.18911"><ele>149.0</ele><time>2026-04-16T08:46:39.848Z</time></trkpt><trkpt lat="40.77281" lon="8.1892"><ele>149.0</ele><time>2026-04-16T08:46:40.848Z</time></trkpt><trkpt lat="40.7727617" lon="8.189285"><ele>149.6</ele><time>2026-04-16T08:46:42.848Z</time></trkpt><trkpt lat="40.7726533" lon="8.1892617"><ele>150.2</ele><time>2026-04-16T08:46:48.848Z</time></trkpt><trkpt lat="40.77252" lon="8.18922"><ele>150.79999999999998</ele><time>2026-04-16T08:46:50.848Z</time></trkpt><trkpt lat="40.7724333" lon="8.1892183"><ele>151.4</ele><time>2026-04-16T08:46:51.848Z</time></trkpt><trkpt lat="40.7723483" lon="8.1892083"><ele>152.0</ele><time>2026-04-16T08:46:52.848Z</time></trkpt><trkpt lat="40.7722433" lon="8.1892183"><ele>152.0</ele><time>2026-04-16T08:46:53.848Z</time></trkpt><trkpt lat="40.772135" lon="8.1892267"><ele>152.0</ele><time>2026-04-16T08:46:54.848Z</time></trkpt><trkpt lat="40.7720283" lon="8.1892217"><ele>152.0</ele><time>2026-04-16T08:46:55.848Z</time></trkpt><trkpt lat="40.77192" lon="8.1892117"><ele>152.0</ele><time>2026-04-16T08:46:56.848Z</time></trkpt><trkpt lat="40.7718167" lon="8.1892033"><ele>152.0</ele><time>2026-04-16T08:46:57.848Z</time></trkpt><trkpt lat="40.7717067" lon="8.1891933"><ele>153.0</ele><time>2026-04-16T08:46:58.848Z</time></trkpt><trkpt lat="40.7716017" lon="8.1891867"><ele>154.0</ele><time>2026-04-16T08:46:59.848Z</time></trkpt><trkpt lat="40.7714967" lon="8.1891833"><ele>155.0</ele><time>2026-04-16T08:47:00.847Z</time></trkpt><trkpt lat="40.77139" lon="8.1891733"><ele>156.0</ele><time>2026-04-16T08:47:01.848Z</time></trkpt><trkpt lat="40.7712833" lon="8.18918"><ele>157.0</ele><time>2026-04-16T08:47:02.848Z</time></trkpt><trkpt lat="40.7711767" lon="8.1891917"><ele>157.0</ele><time>2026-04-16T08:47:03.848Z</time></trkpt><trkpt lat="40.7710667" lon="8.1892167"><ele>157.0</ele><time>2026-04-16T08:47:04.848Z</time></trkpt><trkpt lat="40.77097" lon="8.18925"><ele>157.0</ele><time>2026-04-16T08:47:05.847Z</time></trkpt><trkpt lat="40.7708733" lon="8.1892917"><ele>157.0</ele><time>2026-04-16T08:47:06.848Z</time></trkpt><trkpt lat="40.7707667" lon="8.18935"><ele>157.0</ele><time>2026-04-16T08:47:07.848Z</time></trkpt><trkpt lat="40.7706683" lon="8.1894033"><ele>156.6</ele><time>2026-04-16T08:47:08.848Z</time></trkpt><trkpt lat="40.7705667" lon="8.189455"><ele>156.2</ele><time>2026-04-16T08:47:09.848Z</time></trkpt><trkpt lat="40.7704633" lon="8.1895033"><ele>155.8</ele><time>2026-04-16T08:47:10.848Z</time></trkpt><trkpt lat="40.7703567" lon="8.189545"><ele>155.4</ele><time>2026-04-16T08:47:11.847Z</time></trkpt><trkpt lat="40.7702433" lon="8.18959"><ele>155.0</ele><time>2026-04-16T08:47:12.848Z</time></trkpt><trkpt lat="40.7701267" lon="8.1896383"><ele>154.75</ele><time>2026-04-16T08:47:13.848Z</time></trkpt><trkpt lat="40.77001" lon="8.1896933"><ele>154.5</ele><time>2026-04-16T08:47:14.848Z</time></trkpt><trkpt lat="40.7698883" lon="8.189735"><ele>154.25</ele><time>2026-04-16T08:47:15.847Z</time></trkpt><trkpt lat="40.76974" lon="8.1898217"><ele>154.0</ele><time>2026-04-16T08:47:16.848Z</time></trkpt><trkpt lat="40.769595" lon="8.1898983"><ele>154.0</ele><time>2026-04-16T08:47:17.847Z</time></trkpt><trkpt lat="40.7694483" lon="8.18997"><ele>154.0</ele><time>2026-04-16T08:47:18.847Z</time></trkpt><trkpt lat="40.7693033" lon="8.1900417"><ele>154.0</ele><time>2026-04-16T08:47:19.848Z</time></trkpt><trkpt lat="40.769155" lon="8.1901117"><ele>156.0</ele><time>2026-04-16T08:47:20.847Z</time></trkpt><trkpt lat="40.76901" lon="8.1901767"><ele>158.0</ele><time>2026-04-16T08:47:21.847Z</time></trkpt><trkpt lat="40.76886" lon="8.1902433"><ele>160.0</ele><time>2026-04-16T08:47:22.847Z</time></trkpt><trkpt lat="40.7687067" lon="8.1902983"><ele>160.0</ele><time>2026-04-16T08:47:23.848Z</time></trkpt><trkpt lat="40.7685433" lon="8.19036"><ele>160.0</ele><time>2026-04-16T08:47:24.848Z</time></trkpt><trkpt lat="40.7683783" lon="8.1904233"><ele>160.0</ele><time>2026-04-16T08:47:25.847Z</time></trkpt><trkpt lat="40.768215" lon="8.19049"><ele>162.0</ele><time>2026-04-16T08:47:26.848Z</time></trkpt><trkpt lat="40.7680617" lon="8.19055"><ele>164.0</ele><time>2026-04-16T08:47:27.847Z</time></trkpt><trkpt lat="40.767905" lon="8.1906167"><ele>166.0</ele><time>2026-04-16T08:47:28.848Z</time></trkpt><trkpt lat="40.7677617" lon="8.1906967"><ele>166.5</ele><time>2026-04-16T08:47:29.848Z</time></trkpt><trkpt lat="40.7676433" lon="8.190805"><ele>167.0</ele><time>2026-04-16T08:47:30.847Z</time></trkpt><trkpt lat="40.7675433" lon="8.1909183"><ele>167.5</ele><time>2026-04-16T08:47:31.848Z</time></trkpt><trkpt lat="40.767465" lon="8.1910333"><ele>168.0</ele><time>2026-04-16T08:47:32.847Z</time></trkpt><trkpt lat="40.7674067" lon="8.1911417"><ele>168.0</ele><time>2026-04-16T08:47:33.847Z</time></trkpt><trkpt lat="40.767355" lon="8.1912183"><ele>168.0</ele><time>2026-04-16T08:47:34.848Z</time></trkpt><trkpt lat="40.7672917" lon="8.191265"><ele>168.0</ele><time>2026-04-16T08:47:35.848Z</time></trkpt><trkpt lat="40.7672133" lon="8.1912917"><ele>168.0</ele><time>2026-04-16T08:47:36.847Z</time></trkpt><trkpt lat="40.767125" lon="8.1913"><ele>168.0</ele><time>2026-04-16T08:47:37.848Z</time></trkpt><trkpt lat="40.7670417" lon="8.191285"><ele>168.0</ele><time>2026-04-16T08:47:38.848Z</time></trkpt><trkpt lat="40.76697" lon="8.19124"><ele>168.0</ele><time>2026-04-16T08:47:39.848Z</time></trkpt><trkpt lat="40.7669067" lon="8.19116"><ele>168.0</ele><time>2026-04-16T08:47:40.848Z</time></trkpt><trkpt lat="40.76685" lon="8.19106"><ele>168.0</ele><time>2026-04-16T08:47:41.847Z</time></trkpt><trkpt lat="40.7667933" lon="8.1909767"><ele>168.0</ele><time>2026-04-16T08:47:42.847Z</time></trkpt><trkpt lat="40.7667233" lon="8.19092"><ele>168.0</ele><time>2026-04-16T08:47:43.848Z</time></trkpt><trkpt lat="40.7666283" lon="8.1908683"><ele>168.60000000000002</ele><time>2026-04-16T08:47:44.847Z</time></trkpt><trkpt lat="40.7665283" lon="8.1908283"><ele>169.20000000000002</ele><time>2026-04-16T08:47:45.848Z</time></trkpt><trkpt lat="40.7664333" lon="8.1908033"><ele>169.8</ele><time>2026-04-16T08:47:46.848Z</time></trkpt><trkpt lat="40.7663483" lon="8.1907717"><ele>170.4</ele><time>2026-04-16T08:47:47.847Z</time></trkpt><trkpt lat="40.766265" lon="8.1907183"><ele>171.0</ele><time>2026-04-16T08:47:48.847Z</time></trkpt><trkpt lat="40.76619" lon="8.1906433"><ele>171.8</ele><time>2026-04-16T08:47:49.847Z</time></trkpt><trkpt lat="40.7661233" lon="8.1905517"><ele>172.60000000000002</ele><time>2026-04-16T08:47:50.848Z</time></trkpt><trkpt lat="40.7660633" lon="8.1904483"><ele>173.4</ele><time>2026-04-16T08:47:51.848Z</time></trkpt><trkpt lat="40.765995" lon="8.1903667"><ele>174.2</ele><time>2026-04-16T08:47:52.847Z</time></trkpt><trkpt lat="40.7659017" lon="8.19031"><ele>175.0</ele><time>2026-04-16T08:47:53.848Z</time></trkpt><trkpt lat="40.7657933" lon="8.1902617"><ele>175.0</ele><time>2026-04-16T08:47:54.847Z</time></trkpt><trkpt lat="40.7656767" lon="8.1902133"><ele>175.0</ele><time>2026-04-16T08:47:55.848Z</time></trkpt><trkpt lat="40.7655683" lon="8.1901667"><ele>175.0</ele><time>2026-04-16T08:47:56.848Z</time></trkpt><trkpt lat="40.7654633" lon="8.1901433"><ele>175.0</ele><time>2026-04-16T08:47:57.848Z</time></trkpt><trkpt lat="40.7653583" lon="8.190145"><ele>175.0</ele><time>2026-04-16T08:47:58.848Z</time></trkpt><trkpt lat="40.76526" lon="8.190155"><ele>175.4</ele><time>2026-04-16T08:47:59.848Z</time></trkpt><trkpt lat="40.76517" lon="8.1901483"><ele>175.8</ele><time>2026-04-16T08:48:00.847Z</time></trkpt><trkpt lat="40.7650783" lon="8.190115"><ele>176.2</ele><time>2026-04-16T08:48:01.848Z</time></trkpt><trkpt lat="40.7649867" lon="8.19006"><ele>176.6</ele><time>2026-04-16T08:48:02.848Z</time></trkpt><trkpt lat="40.76491" lon="8.189985"><ele>177.0</ele><time>2026-04-16T08:48:03.848Z</time></trkpt><trkpt lat="40.76485" lon="8.1899033"><ele>178.2</ele><time>2026-04-16T08:48:04.848Z</time></trkpt><trkpt lat="40.7648017" lon="8.1898033"><ele>179.39999999999998</ele><time>2026-04-16T08:48:05.848Z</time></trkpt><trkpt lat="40.7647667" lon="8.1896983"><ele>180.60000000000002</ele><time>2026-04-16T08:48:06.847Z</time></trkpt><trkpt lat="40.7647317" lon="8.1895683"><ele>181.8</ele><time>2026-04-16T08:48:07.848Z</time></trkpt><trkpt lat="40.7647" lon="8.189425"><ele>183.0</ele><time>2026-04-16T08:48:08.848Z</time></trkpt><trkpt lat="40.7646733" lon="8.1892733"><ele>183.0</ele><time>2026-04-16T08:48:09.848Z</time></trkpt><trkpt lat="40.7646533" lon="8.1891067"><ele>183.0</ele><time>2026-04-16T08:48:10.847Z</time></trkpt><trkpt lat="40.7646383" lon="8.1889283"><ele>183.0</ele><time>2026-04-16T08:48:11.848Z</time></trkpt><trkpt lat="40.7646217" lon="8.18875"><ele>183.0</ele><time>2026-04-16T08:48:12.848Z</time></trkpt><trkpt lat="40.7646067" lon="8.1886"><ele>184.4</ele><time>2026-04-16T08:48:13.848Z</time></trkpt><trkpt lat="40.7645983" lon="8.1884667"><ele>185.8</ele><time>2026-04-16T08:48:14.848Z</time></trkpt><trkpt lat="40.76457" lon="8.1883533"><ele>187.2</ele><time>2026-04-16T08:48:15.848Z</time></trkpt><trkpt lat="40.76451" lon="8.1882517"><ele>188.6</ele><time>2026-04-16T08:48:16.848Z</time></trkpt><trkpt lat="40.7644217" lon="8.1881783"><ele>190.0</ele><time>2026-04-16T08:48:17.848Z</time></trkpt><trkpt lat="40.7643167" lon="8.18812"><ele>190.0</ele><time>2026-04-16T08:48:18.848Z</time></trkpt><trkpt lat="40.764215" lon="8.188055"><ele>190.0</ele><time>2026-04-16T08:48:19.848Z</time></trkpt><trkpt lat="40.7641133" lon="8.1879733"><ele>190.0</ele><time>2026-04-16T08:48:20.848Z</time></trkpt><trkpt lat="40.7640083" lon="8.1878867"><ele>190.0</ele><time>2026-04-16T08:48:21.848Z</time></trkpt><trkpt lat="40.7639033" lon="8.1878"><ele>190.0</ele><time>2026-04-16T08:48:22.847Z</time></trkpt><trkpt lat="40.76381" lon="8.1877017"><ele>190.0</ele><time>2026-04-16T08:48:23.848Z</time></trkpt><trkpt lat="40.763725" lon="8.1875967"><ele>190.0</ele><time>2026-04-16T08:48:24.848Z</time></trkpt><trkpt lat="40.7636433" lon="8.1874883"><ele>190.0</ele><time>2026-04-16T08:48:25.848Z</time></trkpt><trkpt lat="40.7635717" lon="8.1873733"><ele>190.8</ele><time>2026-04-16T08:48:26.848Z</time></trkpt><trkpt lat="40.763515" lon="8.1872667"><ele>191.6</ele><time>2026-04-16T08:48:27.848Z</time></trkpt><trkpt lat="40.7634717" lon="8.1871617"><ele>192.39999999999998</ele><time>2026-04-16T08:48:28.848Z</time></trkpt><trkpt lat="40.7634467" lon="8.1870567"><ele>193.2</ele><time>2026-04-16T08:48:29.848Z</time></trkpt><trkpt lat="40.763435" lon="8.18694"><ele>194.0</ele><time>2026-04-16T08:48:30.847Z</time></trkpt><trkpt lat="40.7634217" lon="8.1868"><ele>194.0</ele><time>2026-04-16T08:48:31.848Z</time></trkpt><trkpt lat="40.7633983" lon="8.18665"><ele>194.0</ele><time>2026-04-16T08:48:32.848Z</time></trkpt><trkpt lat="40.7633783" lon="8.186485"><ele>194.0</ele><time>2026-04-16T08:48:33.848Z</time></trkpt><trkpt lat="40.7633533" lon="8.18631"><ele>194.0</ele><time>2026-04-16T08:48:34.848Z</time></trkpt><trkpt lat="40.7633367" lon="8.1861317"><ele>195.0</ele><time>2026-04-16T08:48:35.848Z</time></trkpt><trkpt lat="40.763335" lon="8.1859533"><ele>196.0</ele><time>2026-04-16T08:48:36.847Z</time></trkpt><trkpt lat="40.7633383" lon="8.185785"><ele>197.0</ele><time>2026-04-16T08:48:37.848Z</time></trkpt><trkpt lat="40.7633417" lon="8.18565"><ele>198.0</ele><time>2026-04-16T08:48:38.848Z</time></trkpt><trkpt lat="40.7633367" lon="8.1855383"><ele>198.60000000000002</ele><time>2026-04-16T08:48:39.847Z</time></trkpt><trkpt lat="40.7633117" lon="8.1854417"><ele>199.20000000000002</ele><time>2026-04-16T08:48:40.847Z</time></trkpt><trkpt lat="40.7632583" lon="8.185355"><ele>199.8</ele><time>2026-04-16T08:48:41.848Z</time></trkpt><trkpt lat="40.76318" lon="8.1852933"><ele>200.4</ele><time>2026-04-16T08:48:42.848Z</time></trkpt><trkpt lat="40.76307" lon="8.185245"><ele>201.0</ele><time>2026-04-16T08:48:43.847Z</time></trkpt><trkpt lat="40.7629567" lon="8.1852083"><ele>201.0</ele><time>2026-04-16T08:48:44.848Z</time></trkpt><trkpt lat="40.7628583" lon="8.1851767"><ele>201.0</ele><time>2026-04-16T08:48:45.848Z</time></trkpt><trkpt lat="40.7627933" lon="8.1851317"><ele>201.0</ele><time>2026-04-16T08:48:46.847Z</time></trkpt><trkpt lat="40.7627583" lon="8.1850467"><ele>201.0</ele><time>2026-04-16T08:48:47.847Z</time></trkpt><trkpt lat="40.76273" lon="8.18492"><ele>201.0</ele><time>2026-04-16T08:48:48.847Z</time></trkpt><trkpt lat="40.7627067" lon="8.1847667"><ele>202.25</ele><time>2026-04-16T08:48:49.848Z</time></trkpt><trkpt lat="40.7626867" lon="8.1846"><ele>203.5</ele><time>2026-04-16T08:48:50.848Z</time></trkpt><trkpt lat="40.7626667" lon="8.184415"><ele>204.75</ele><time>2026-04-16T08:48:51.848Z</time></trkpt><trkpt lat="40.7626467" lon="8.1842133"><ele>206.0</ele><time>2026-04-16T08:48:52.847Z</time></trkpt><trkpt lat="40.7626283" lon="8.184005"><ele>207.75</ele><time>2026-04-16T08:48:53.848Z</time></trkpt><trkpt lat="40.7626083" lon="8.1838117"><ele>209.5</ele><time>2026-04-16T08:48:54.847Z</time></trkpt><trkpt lat="40.76259" lon="8.1836417"><ele>211.25</ele><time>2026-04-16T08:48:55.848Z</time></trkpt><trkpt lat="40.76256" lon="8.1834833"><ele>213.0</ele><time>2026-04-16T08:48:56.848Z</time></trkpt><trkpt lat="40.7625033" lon="8.1833433"><ele>213.0</ele><time>2026-04-16T08:48:57.848Z</time></trkpt><trkpt lat="40.7624133" lon="8.183205"><ele>213.0</ele><time>2026-04-16T08:48:58.848Z</time></trkpt><trkpt lat="40.7623117" lon="8.18307"><ele>213.0</ele><time>2026-04-16T08:48:59.847Z</time></trkpt><trkpt lat="40.762215" lon="8.1829517"><ele>213.0</ele><time>2026-04-16T08:49:00.847Z</time></trkpt><trkpt lat="40.7621133" lon="8.1828567"><ele>214.25</ele><time>2026-04-16T08:49:01.848Z</time></trkpt><trkpt lat="40.762" lon="8.1827967"><ele>215.5</ele><time>2026-04-16T08:49:02.847Z</time></trkpt><trkpt lat="40.7618733" lon="8.1827883"><ele>216.75</ele><time>2026-04-16T08:49:03.847Z</time></trkpt><trkpt lat="40.7617533" lon="8.18279"><ele>218.0</ele><time>2026-04-16T08:49:04.847Z</time></trkpt><trkpt lat="40.7616267" lon="8.18279"><ele>215.25</ele><time>2026-04-16T08:49:05.848Z</time></trkpt><trkpt lat="40.7615033" lon="8.18278"><ele>212.5</ele><time>2026-04-16T08:49:06.848Z</time></trkpt><trkpt lat="40.7613717" lon="8.1827517"><ele>209.75</ele><time>2026-04-16T08:49:07.847Z</time></trkpt><trkpt lat="40.7612317" lon="8.18272"><ele>207.0</ele><time>2026-04-16T08:49:08.848Z</time></trkpt><trkpt lat="40.761095" lon="8.1827017"><ele>205.5</ele><time>2026-04-16T08:49:09.847Z</time></trkpt><trkpt lat="40.7609517" lon="8.182705"><ele>204.0</ele><time>2026-04-16T08:49:10.847Z</time></trkpt><trkpt lat="40.76081" lon="8.1827033"><ele>202.5</ele><time>2026-04-16T08:49:11.847Z</time></trkpt><trkpt lat="40.7606667" lon="8.18269"><ele>201.0</ele><time>2026-04-16T08:49:12.848Z</time></trkpt><trkpt lat="40.7605217" lon="8.182665"><ele>201.0</ele><time>2026-04-16T08:49:13.847Z</time></trkpt><trkpt lat="40.7603633" lon="8.1826567"><ele>201.0</ele><time>2026-04-16T08:49:14.847Z</time></trkpt><trkpt lat="40.7602017" lon="8.1826583"><ele>201.0</ele><time>2026-04-16T08:49:15.847Z</time></trkpt><trkpt lat="40.7600683" lon="8.1826733"><ele>199.5</ele><time>2026-04-16T08:49:16.848Z</time></trkpt><trkpt lat="40.7599533" lon="8.1826817"><ele>198.0</ele><time>2026-04-16T08:49:17.847Z</time></trkpt><trkpt lat="40.7598267" lon="8.18269"><ele>196.5</ele><time>2026-04-16T08:49:18.848Z</time></trkpt><trkpt lat="40.7597083" lon="8.182715"><ele>195.0</ele><time>2026-04-16T08:49:19.847Z</time></trkpt><trkpt lat="40.7596067" lon="8.1827367"><ele>195.0</ele><time>2026-04-16T08:49:20.847Z</time></trkpt><trkpt lat="40.7595067" lon="8.1827283"><ele>195.0</ele><time>2026-04-16T08:49:21.847Z</time></trkpt><trkpt lat="40.7593783" lon="8.1826933"><ele>195.0</ele><time>2026-04-16T08:49:22.847Z</time></trkpt><trkpt lat="40.7592217" lon="8.182655"><ele>195.0</ele><time>2026-04-16T08:49:23.847Z</time></trkpt><trkpt lat="40.7590633" lon="8.182625"><ele>193.75</ele><time>2026-04-16T08:49:24.848Z</time></trkpt><trkpt lat="40.7589267" lon="8.182595"><ele>192.5</ele><time>2026-04-16T08:49:25.848Z</time></trkpt><trkpt lat="40.7587983" lon="8.182555"><ele>191.25</ele><time>2026-04-16T08:49:26.847Z</time></trkpt><trkpt lat="40.7586683" lon="8.1824983"><ele>190.0</ele><time>2026-04-16T08:49:27.848Z</time></trkpt><trkpt lat="40.758545" lon="8.18246"><ele>190.0</ele><time>2026-04-16T08:49:28.847Z</time></trkpt><trkpt lat="40.7584483" lon="8.18247"><ele>190.0</ele><time>2026-04-16T08:49:29.848Z</time></trkpt><trkpt lat="40.7583567" lon="8.1825267"><ele>190.0</ele><time>2026-04-16T08:49:30.847Z</time></trkpt><trkpt lat="40.7582667" lon="8.1826067"><ele>190.0</ele><time>2026-04-16T08:49:31.848Z</time></trkpt><trkpt lat="40.7581717" lon="8.1826717"><ele>190.0</ele><time>2026-04-16T08:49:32.847Z</time></trkpt><trkpt lat="40.7580667" lon="8.1827233"><ele>190.0</ele><time>2026-04-16T08:49:33.847Z</time></trkpt><trkpt lat="40.7579417" lon="8.18275"><ele>190.0</ele><time>2026-04-16T08:49:34.848Z</time></trkpt><trkpt lat="40.7578083" lon="8.18277"><ele>190.0</ele><time>2026-04-16T08:49:35.848Z</time></trkpt><trkpt lat="40.7576783" lon="8.182785"><ele>190.0</ele><time>2026-04-16T08:49:36.847Z</time></trkpt><trkpt lat="40.7575783" lon="8.1827917"><ele>189.33333333333334</ele><time>2026-04-16T08:49:37.847Z</time></trkpt><trkpt lat="40.7575033" lon="8.1827867"><ele>188.66666666666669</ele><time>2026-04-16T08:49:38.848Z</time></trkpt><trkpt lat="40.7574383" lon="8.1827517"><ele>188.0</ele><time>2026-04-16T08:49:39.847Z</time></trkpt><trkpt lat="40.7573717" lon="8.1826983"><ele>187.33333333333334</ele><time>2026-04-16T08:49:40.847Z</time></trkpt><trkpt lat="40.7572983" lon="8.1826133"><ele>186.66666666666666</ele><time>2026-04-16T08:49:41.848Z</time></trkpt><trkpt lat="40.757215" lon="8.18251"><ele>186.0</ele><time>2026-04-16T08:49:42.847Z</time></trkpt><trkpt lat="40.7571067" lon="8.1824217"><ele>186.0</ele><time>2026-04-16T08:49:43.846Z</time></trkpt><trkpt lat="40.7569767" lon="8.18237"><ele>186.0</ele><time>2026-04-16T08:49:44.847Z</time></trkpt><trkpt lat="40.7568433" lon="8.1823533"><ele>186.0</ele><time>2026-04-16T08:49:45.847Z</time></trkpt><trkpt lat="40.7567217" lon="8.1823667"><ele>186.0</ele><time>2026-04-16T08:49:46.847Z</time></trkpt><trkpt lat="40.7565983" lon="8.1824167"><ele>183.66666666666666</ele><time>2026-04-16T08:49:47.847Z</time></trkpt><trkpt lat="40.7564567" lon="8.1824883"><ele>181.33333333333331</ele><time>2026-04-16T08:49:48.846Z</time></trkpt><trkpt lat="40.7563067" lon="8.18257"><ele>179.0</ele><time>2026-04-16T08:49:49.847Z</time></trkpt><trkpt lat="40.756175" lon="8.182655"><ele>179.0</ele><time>2026-04-16T08:49:50.847Z</time></trkpt><trkpt lat="40.7560583" lon="8.182725"><ele>179.0</ele><time>2026-04-16T08:49:51.846Z</time></trkpt><trkpt lat="40.7559667" lon="8.1827817"><ele>179.0</ele><time>2026-04-16T08:49:52.847Z</time></trkpt><trkpt lat="40.75588" lon="8.18281"><ele>179.0</ele><time>2026-04-16T08:49:53.847Z</time></trkpt><trkpt lat="40.7558033" lon="8.1828117"><ele>179.0</ele><time>2026-04-16T08:49:54.847Z</time></trkpt><trkpt lat="40.7557117" lon="8.1827933"><ele>178.75</ele><time>2026-04-16T08:49:55.847Z</time></trkpt><trkpt lat="40.7556067" lon="8.18276"><ele>178.5</ele><time>2026-04-16T08:49:56.847Z</time></trkpt><trkpt lat="40.755485" lon="8.1827417"><ele>178.25</ele><time>2026-04-16T08:49:57.847Z</time></trkpt><trkpt lat="40.75536" lon="8.1827517"><ele>178.0</ele><time>2026-04-16T08:49:58.847Z</time></trkpt><trkpt lat="40.7552467" lon="8.18278"><ele>175.2</ele><time>2026-04-16T08:49:59.846Z</time></trkpt><trkpt lat="40.7551467" lon="8.1827983"><ele>172.4</ele><time>2026-04-16T08:50:00.847Z</time></trkpt><trkpt lat="40.7550533" lon="8.1828033"><ele>169.6</ele><time>2026-04-16T08:50:01.847Z</time></trkpt><trkpt lat="40.7549583" lon="8.182795"><ele>166.79999999999998</ele><time>2026-04-16T08:50:02.846Z</time></trkpt><trkpt lat="40.75486" lon="8.1827767"><ele>164.0</ele><time>2026-04-16T08:50:03.846Z</time></trkpt><trkpt lat="40.7547567" lon="8.182755"><ele>164.0</ele><time>2026-04-16T08:50:04.846Z</time></trkpt><trkpt lat="40.7546617" lon="8.1827367"><ele>164.0</ele><time>2026-04-16T08:50:05.847Z</time></trkpt><trkpt lat="40.754585" lon="8.182725"><ele>164.0</ele><time>2026-04-16T08:50:06.846Z</time></trkpt><trkpt lat="40.7544833" lon="8.1826533"><ele>164.0</ele><time>2026-04-16T08:50:08.847Z</time></trkpt><trkpt lat="40.7544333" lon="8.1825633"><ele>164.0</ele><time>2026-04-16T08:50:09.846Z</time></trkpt><trkpt lat="40.754385" lon="8.18246"><ele>162.2</ele><time>2026-04-16T08:50:10.847Z</time></trkpt><trkpt lat="40.7543267" lon="8.182365"><ele>160.39999999999998</ele><time>2026-04-16T08:50:11.847Z</time></trkpt><trkpt lat="40.7542533" lon="8.1823083"><ele>158.6</ele><time>2026-04-16T08:50:12.847Z</time></trkpt><trkpt lat="40.7541817" lon="8.182285"><ele>156.8</ele><time>2026-04-16T08:50:13.846Z</time></trkpt><trkpt lat="40.7540733" lon="8.1822783"><ele>155.0</ele><time>2026-04-16T08:50:15.847Z</time></trkpt><trkpt lat="40.753985" lon="8.1822117"><ele>152.8</ele><time>2026-04-16T08:50:17.846Z</time></trkpt><trkpt lat="40.7539383" lon="8.1820817"><ele>150.6</ele><time>2026-04-16T08:50:19.847Z</time></trkpt><trkpt lat="40.7539417" lon="8.1819483"><ele>148.4</ele><time>2026-04-16T08:50:21.847Z</time></trkpt><trkpt lat="40.7540133" lon="8.18181"><ele>146.2</ele><time>2026-04-16T08:50:23.846Z</time></trkpt><trkpt lat="40.7540783" lon="8.18175"><ele>144.0</ele><time>2026-04-16T08:50:24.847Z</time></trkpt><trkpt lat="40.7541617" lon="8.181715"><ele>144.0</ele><time>2026-04-16T08:50:25.847Z</time></trkpt><trkpt lat="40.7542517" lon="8.181705"><ele>144.0</ele><time>2026-04-16T08:50:26.847Z</time></trkpt><trkpt lat="40.7543583" lon="8.181715"><ele>144.0</ele><time>2026-04-16T08:50:27.847Z</time></trkpt><trkpt lat="40.7544767" lon="8.18174"><ele>144.0</ele><time>2026-04-16T08:50:28.846Z</time></trkpt><trkpt lat="40.7545933" lon="8.1817567"><ele>144.0</ele><time>2026-04-16T08:50:29.847Z</time></trkpt><trkpt lat="40.7546817" lon="8.1817517"><ele>143.66666666666666</ele><time>2026-04-16T08:50:30.846Z</time></trkpt><trkpt lat="40.7547483" lon="8.1817267"><ele>143.33333333333334</ele><time>2026-04-16T08:50:31.847Z</time></trkpt><trkpt lat="40.754805" lon="8.1816633"><ele>143.0</ele><time>2026-04-16T08:50:32.847Z</time></trkpt><trkpt lat="40.7548433" lon="8.181575"><ele>142.66666666666669</ele><time>2026-04-16T08:50:33.847Z</time></trkpt><trkpt lat="40.75486" lon="8.1814567"><ele>142.33333333333334</ele><time>2026-04-16T08:50:34.846Z</time></trkpt><trkpt lat="40.7548667" lon="8.181315"><ele>142.0</ele><time>2026-04-16T08:50:35.846Z</time></trkpt><trkpt lat="40.75487" lon="8.1811417"><ele>142.0</ele><time>2026-04-16T08:50:36.847Z</time></trkpt><trkpt lat="40.7548683" lon="8.1809483"><ele>142.0</ele><time>2026-04-16T08:50:37.847Z</time></trkpt><trkpt lat="40.7548533" lon="8.1807533"><ele>142.0</ele><time>2026-04-16T08:50:38.847Z</time></trkpt><trkpt lat="40.7548417" lon="8.1805833"><ele>142.0</ele><time>2026-04-16T08:50:39.846Z</time></trkpt><trkpt lat="40.7548483" lon="8.180435"><ele>139.75</ele><time>2026-04-16T08:50:40.846Z</time></trkpt><trkpt lat="40.7548567" lon="8.1803117"><ele>137.5</ele><time>2026-04-16T08:50:41.847Z</time></trkpt><trkpt lat="40.754855" lon="8.1801683"><ele>135.25</ele><time>2026-04-16T08:50:42.847Z</time></trkpt><trkpt lat="40.754825" lon="8.18"><ele>133.0</ele><time>2026-04-16T08:50:43.846Z</time></trkpt><trkpt lat="40.7547733" lon="8.1798017"><ele>132.0</ele><time>2026-04-16T08:50:44.847Z</time></trkpt><trkpt lat="40.7547" lon="8.1796017"><ele>131.0</ele><time>2026-04-16T08:50:45.847Z</time></trkpt><trkpt lat="40.7546117" lon="8.1794033"><ele>130.0</ele><time>2026-04-16T08:50:46.847Z</time></trkpt><trkpt lat="40.7545217" lon="8.1792333"><ele>130.0</ele><time>2026-04-16T08:50:47.846Z</time></trkpt><trkpt lat="40.7544333" lon="8.179085"><ele>130.0</ele><time>2026-04-16T08:50:48.847Z</time></trkpt><trkpt lat="40.75432" lon="8.1789433"><ele>130.0</ele><time>2026-04-16T08:50:49.847Z</time></trkpt><trkpt lat="40.7541933" lon="8.1788167"><ele>131.0</ele><time>2026-04-16T08:50:50.847Z</time></trkpt><trkpt lat="40.7540667" lon="8.1786883"><ele>132.0</ele><time>2026-04-16T08:50:51.847Z</time></trkpt><trkpt lat="40.75394" lon="8.178595"><ele>133.0</ele><time>2026-04-16T08:50:52.846Z</time></trkpt><trkpt lat="40.7538167" lon="8.1785067"><ele>134.0</ele><time>2026-04-16T08:50:53.847Z</time></trkpt><trkpt lat="40.7537083" lon="8.1784233"><ele>134.0</ele><time>2026-04-16T08:50:54.847Z</time></trkpt><trkpt lat="40.7536233" lon="8.178355"><ele>134.0</ele><time>2026-04-16T08:50:55.847Z</time></trkpt><trkpt lat="40.7535717" lon="8.1782967"><ele>134.0</ele><time>2026-04-16T08:50:56.847Z</time></trkpt><trkpt lat="40.7535417" lon="8.1782183"><ele>134.0</ele><time>2026-04-16T08:50:57.847Z</time></trkpt><trkpt lat="40.7535283" lon="8.17811"><ele>134.0</ele><time>2026-04-16T08:50:58.847Z</time></trkpt><trkpt lat="40.7535433" lon="8.17797"><ele>134.0</ele><time>2026-04-16T08:50:59.847Z</time></trkpt><trkpt lat="40.7535717" lon="8.1778217"><ele>133.25</ele><time>2026-04-16T08:51:00.846Z</time></trkpt><trkpt lat="40.75356" lon="8.1776683"><ele>132.5</ele><time>2026-04-16T08:51:01.846Z</time></trkpt><trkpt lat="40.7535133" lon="8.1775233"><ele>131.75</ele><time>2026-04-16T08:51:02.846Z</time></trkpt><trkpt lat="40.7534383" lon="8.177375"><ele>131.0</ele><time>2026-04-16T08:51:03.847Z</time></trkpt><trkpt lat="40.7533583" lon="8.1772217"><ele>128.0</ele><time>2026-04-16T08:51:04.847Z</time></trkpt><trkpt lat="40.753265" lon="8.1770567"><ele>125.0</ele><time>2026-04-16T08:51:05.846Z</time></trkpt><trkpt lat="40.753175" lon="8.1769217"><ele>122.0</ele><time>2026-04-16T08:51:06.847Z</time></trkpt><trkpt lat="40.753085" lon="8.1768117"><ele>119.0</ele><time>2026-04-16T08:51:07.846Z</time></trkpt><trkpt lat="40.7529833" lon="8.176715"><ele>119.0</ele><time>2026-04-16T08:51:08.847Z</time></trkpt><trkpt lat="40.7528767" lon="8.1766267"><ele>119.0</ele><time>2026-04-16T08:51:09.847Z</time></trkpt><trkpt lat="40.7527817" lon="8.1765333"><ele>119.0</ele><time>2026-04-16T08:51:10.847Z</time></trkpt><trkpt lat="40.7527067" lon="8.176425"><ele>119.0</ele><time>2026-04-16T08:51:11.847Z</time></trkpt><trkpt lat="40.7526433" lon="8.1762983"><ele>117.80000000000001</ele><time>2026-04-16T08:51:12.846Z</time></trkpt><trkpt lat="40.7525933" lon="8.17616"><ele>116.60000000000001</ele><time>2026-04-16T08:51:13.847Z</time></trkpt><trkpt lat="40.7525617" lon="8.1760333"><ele>115.4</ele><time>2026-04-16T08:51:14.847Z</time></trkpt><trkpt lat="40.752545" lon="8.1759033"><ele>114.2</ele><time>2026-04-16T08:51:15.846Z</time></trkpt><trkpt lat="40.7525267" lon="8.17579"><ele>113.0</ele><time>2026-04-16T08:51:16.846Z</time></trkpt><trkpt lat="40.75249" lon="8.175695"><ele>110.66666666666666</ele><time>2026-04-16T08:51:17.847Z</time></trkpt><trkpt lat="40.7524333" lon="8.175625"><ele>108.33333333333333</ele><time>2026-04-16T08:51:18.847Z</time></trkpt><trkpt lat="40.752365" lon="8.1755817"><ele>106.0</ele><time>2026-04-16T08:51:19.847Z</time></trkpt><trkpt lat="40.7522833" lon="8.1755717"><ele>103.66666666666666</ele><time>2026-04-16T08:51:20.847Z</time></trkpt><trkpt lat="40.7521983" lon="8.1755933"><ele>101.33333333333333</ele><time>2026-04-16T08:51:21.847Z</time></trkpt><trkpt lat="40.7521233" lon="8.17561"><ele>99.0</ele><time>2026-04-16T08:51:22.847Z</time></trkpt><trkpt lat="40.7520067" lon="8.1755367"><ele>99.0</ele><time>2026-04-16T08:51:24.847Z</time></trkpt><trkpt lat="40.75196" lon="8.17544"><ele>99.0</ele><time>2026-04-16T08:51:25.847Z</time></trkpt><trkpt lat="40.7519433" lon="8.1753283"><ele>99.0</ele><time>2026-04-16T08:51:26.847Z</time></trkpt><trkpt lat="40.75195" lon="8.1751883"><ele>99.0</ele><time>2026-04-16T08:51:27.847Z</time></trkpt><trkpt lat="40.7519617" lon="8.175045"><ele>99.0</ele><time>2026-04-16T08:51:28.847Z</time></trkpt><trkpt lat="40.7519517" lon="8.1748883"><ele>95.5</ele><time>2026-04-16T08:51:29.846Z</time></trkpt><trkpt lat="40.7519317" lon="8.174725"><ele>92.0</ele><time>2026-04-16T08:51:30.847Z</time></trkpt><trkpt lat="40.75192" lon="8.1745683"><ele>88.5</ele><time>2026-04-16T08:51:31.846Z</time></trkpt><trkpt lat="40.7519167" lon="8.1744133"><ele>85.0</ele><time>2026-04-16T08:51:32.846Z</time></trkpt><trkpt lat="40.7519067" lon="8.1742467"><ele>85.0</ele><time>2026-04-16T08:51:33.847Z</time></trkpt><trkpt lat="40.7518917" lon="8.1741"><ele>85.0</ele><time>2026-04-16T08:51:34.847Z</time></trkpt><trkpt lat="40.7518733" lon="8.1739667"><ele>85.0</ele><time>2026-04-16T08:51:35.847Z</time></trkpt><trkpt lat="40.751865" lon="8.17386"><ele>85.0</ele><time>2026-04-16T08:51:36.847Z</time></trkpt><trkpt lat="40.751865" lon="8.1737567"><ele>85.0</ele><time>2026-04-16T08:51:37.847Z</time></trkpt><trkpt lat="40.751885" lon="8.17363"><ele>83.0</ele><time>2026-04-16T08:51:38.846Z</time></trkpt><trkpt lat="40.7519283" lon="8.1734683"><ele>81.0</ele><time>2026-04-16T08:51:39.846Z</time></trkpt><trkpt lat="40.7519833" lon="8.173275"><ele>79.0</ele><time>2026-04-16T08:51:40.847Z</time></trkpt><trkpt lat="40.75203" lon="8.1730733"><ele>77.0</ele><time>2026-04-16T08:51:41.847Z</time></trkpt><trkpt lat="40.7520617" lon="8.17288"><ele>77.0</ele><time>2026-04-16T08:51:42.846Z</time></trkpt><trkpt lat="40.7520833" lon="8.1727017"><ele>77.0</ele><time>2026-04-16T08:51:43.847Z</time></trkpt><trkpt lat="40.7520967" lon="8.17252"><ele>77.0</ele><time>2026-04-16T08:51:44.847Z</time></trkpt><trkpt lat="40.752095" lon="8.1723283"><ele>77.0</ele><time>2026-04-16T08:51:45.847Z</time></trkpt><trkpt lat="40.7520817" lon="8.1721383"><ele>76.75</ele><time>2026-04-16T08:51:46.846Z</time></trkpt><trkpt lat="40.7520633" lon="8.1719633"><ele>76.5</ele><time>2026-04-16T08:51:47.847Z</time></trkpt><trkpt lat="40.75205" lon="8.1717917"><ele>76.25</ele><time>2026-04-16T08:51:48.846Z</time></trkpt><trkpt lat="40.75206" lon="8.1716083"><ele>76.0</ele><time>2026-04-16T08:51:49.847Z</time></trkpt><trkpt lat="40.7520717" lon="8.1714267"><ele>76.0</ele><time>2026-04-16T08:51:50.847Z</time></trkpt><trkpt lat="40.752065" lon="8.17127"><ele>76.0</ele><time>2026-04-16T08:51:51.846Z</time></trkpt><trkpt lat="40.7520333" lon="8.17111"><ele>76.0</ele><time>2026-04-16T08:51:52.846Z</time></trkpt><trkpt lat="40.75198" lon="8.1709733"><ele>76.0</ele><time>2026-04-16T08:51:53.847Z</time></trkpt><trkpt lat="40.7519067" lon="8.1708433"><ele>76.25</ele><time>2026-04-16T08:51:54.847Z</time></trkpt><trkpt lat="40.7518267" lon="8.17071"><ele>76.5</ele><time>2026-04-16T08:51:55.847Z</time></trkpt><trkpt lat="40.7517583" lon="8.1705533"><ele>76.75</ele><time>2026-04-16T08:51:56.847Z</time></trkpt><trkpt lat="40.7516983" lon="8.1703933"><ele>77.0</ele><time>2026-04-16T08:51:57.847Z</time></trkpt><trkpt lat="40.7516383" lon="8.1702417"><ele>75.5</ele><time>2026-04-16T08:51:58.847Z</time></trkpt><trkpt lat="40.75159" lon="8.1700933"><ele>74.0</ele><time>2026-04-16T08:51:59.847Z</time></trkpt><trkpt lat="40.7515583" lon="8.1699217"><ele>72.5</ele><time>2026-04-16T08:52:00.846Z</time></trkpt><trkpt lat="40.75153" lon="8.1697167"><ele>71.0</ele><time>2026-04-16T08:52:01.847Z</time></trkpt><trkpt lat="40.751505" lon="8.1695167"><ele>69.66666666666667</ele><time>2026-04-16T08:52:02.846Z</time></trkpt><trkpt lat="40.75148" lon="8.1693217"><ele>68.33333333333333</ele><time>2026-04-16T08:52:03.846Z</time></trkpt><trkpt lat="40.7514467" lon="8.1691183"><ele>67.0</ele><time>2026-04-16T08:52:04.847Z</time></trkpt><trkpt lat="40.7514083" lon="8.1689017"><ele>65.66666666666666</ele><time>2026-04-16T08:52:05.847Z</time></trkpt><trkpt lat="40.7513583" lon="8.16869"><ele>64.33333333333333</ele><time>2026-04-16T08:52:06.847Z</time></trkpt><trkpt lat="40.7513133" lon="8.1684967"><ele>63.0</ele><time>2026-04-16T08:52:07.846Z</time></trkpt><trkpt lat="40.7512817" lon="8.1683167"><ele>62.4</ele><time>2026-04-16T08:52:08.847Z</time></trkpt><trkpt lat="40.7512433" lon="8.1681667"><ele>61.8</ele><time>2026-04-16T08:52:09.847Z</time></trkpt><trkpt lat="40.751195" lon="8.1680533"><ele>61.2</ele><time>2026-04-16T08:52:10.847Z</time></trkpt><trkpt lat="40.751145" lon="8.1679783"><ele>60.6</ele><time>2026-04-16T08:52:11.846Z</time></trkpt><trkpt lat="40.7510567" lon="8.1679383"><ele>60.0</ele><time>2026-04-16T08:52:13.846Z</time></trkpt><trkpt lat="40.7509783" lon="8.1678233"><ele>59.666666666666664</ele><time>2026-04-16T08:52:15.847Z</time></trkpt><trkpt lat="40.7509433" lon="8.1677117"><ele>59.33333333333333</ele><time>2026-04-16T08:52:16.847Z</time></trkpt><trkpt lat="40.7509067" lon="8.1675883"><ele>59.0</ele><time>2026-04-16T08:52:17.846Z</time></trkpt><trkpt lat="40.7508733" lon="8.1674883"><ele>58.666666666666664</ele><time>2026-04-16T08:52:18.847Z</time></trkpt><trkpt lat="40.7508517" lon="8.16739"><ele>58.33333333333333</ele><time>2026-04-16T08:52:19.846Z</time></trkpt><trkpt lat="40.7508267" lon="8.1672783"><ele>58.0</ele><time>2026-04-16T08:52:20.847Z</time></trkpt><trkpt lat="40.750805" lon="8.1671567"><ele>58.0</ele><time>2026-04-16T08:52:21.846Z</time></trkpt><trkpt lat="40.7507883" lon="8.167025"><ele>58.0</ele><time>2026-04-16T08:52:22.846Z</time></trkpt><trkpt lat="40.750775" lon="8.166895"><ele>58.0</ele><time>2026-04-16T08:52:23.847Z</time></trkpt><trkpt lat="40.750765" lon="8.166775"><ele>58.0</ele><time>2026-04-16T08:52:24.846Z</time></trkpt><trkpt lat="40.75075" lon="8.1666583"><ele>58.0</ele><time>2026-04-16T08:52:25.847Z</time></trkpt><trkpt lat="40.7507367" lon="8.166545"><ele>57.666666666666664</ele><time>2026-04-16T08:52:26.846Z</time></trkpt><trkpt lat="40.750735" lon="8.166425"><ele>57.33333333333333</ele><time>2026-04-16T08:52:27.847Z</time></trkpt><trkpt lat="40.7507383" lon="8.1663033"><ele>57.0</ele><time>2026-04-16T08:52:28.846Z</time></trkpt><trkpt lat="40.7507433" lon="8.1661867"><ele>56.66666666666667</ele><time>2026-04-16T08:52:29.846Z</time></trkpt><trkpt lat="40.750745" lon="8.1660767"><ele>56.333333333333336</ele><time>2026-04-16T08:52:30.846Z</time></trkpt><trkpt lat="40.7507417" lon="8.16596"><ele>56.0</ele><time>2026-04-16T08:52:31.846Z</time></trkpt><trkpt lat="40.7507417" lon="8.1658533"><ele>56.00000000000001</ele><time>2026-04-16T08:52:32.846Z</time></trkpt><trkpt lat="40.75075" lon="8.1657533"><ele>56.0</ele><time>2026-04-16T08:52:33.847Z</time></trkpt><trkpt lat="40.7507633" lon="8.1656583"><ele>56.0</ele><time>2026-04-16T08:52:34.846Z</time></trkpt><trkpt lat="40.7507867" lon="8.1655683"><ele>56.0</ele><time>2026-04-16T08:52:35.847Z</time></trkpt><trkpt lat="40.750815" lon="8.1654783"><ele>56.00000000000001</ele><time>2026-04-16T08:52:36.845Z</time></trkpt><trkpt lat="40.750845" lon="8.16538"><ele>56.0</ele><time>2026-04-16T08:52:37.846Z</time></trkpt><trkpt lat="40.7508783" lon="8.1652817"><ele>54.599999999999994</ele><time>2026-04-16T08:52:38.846Z</time></trkpt><trkpt lat="40.75091" lon="8.1651683"><ele>53.199999999999996</ele><time>2026-04-16T08:52:39.845Z</time></trkpt><trkpt lat="40.7509367" lon="8.1650417"><ele>51.8</ele><time>2026-04-16T08:52:40.845Z</time></trkpt><trkpt lat="40.7509583" lon="8.1649117"><ele>50.400000000000006</ele><time>2026-04-16T08:52:41.845Z</time></trkpt><trkpt lat="40.7509783" lon="8.16478"><ele>49.0</ele><time>2026-04-16T08:52:42.846Z</time></trkpt><trkpt lat="40.75099" lon="8.1646467"><ele>48.6</ele><time>2026-04-16T08:52:43.845Z</time></trkpt><trkpt lat="40.7509983" lon="8.164525"><ele>48.2</ele><time>2026-04-16T08:52:44.845Z</time></trkpt><trkpt lat="40.7509917" lon="8.164415"><ele>47.800000000000004</ele><time>2026-04-16T08:52:45.846Z</time></trkpt><trkpt lat="40.7509667" lon="8.1642917"><ele>47.400000000000006</ele><time>2026-04-16T08:52:46.846Z</time></trkpt><trkpt lat="40.7509133" lon="8.164165"><ele>47.0</ele><time>2026-04-16T08:52:47.846Z</time></trkpt><trkpt lat="40.7508433" lon="8.1640517"><ele>46.400000000000006</ele><time>2026-04-16T08:52:48.846Z</time></trkpt><trkpt lat="40.7507683" lon="8.16394"><ele>45.800000000000004</ele><time>2026-04-16T08:52:49.846Z</time></trkpt><trkpt lat="40.7507067" lon="8.163835"><ele>45.2</ele><time>2026-04-16T08:52:50.845Z</time></trkpt><trkpt lat="40.7506583" lon="8.1637233"><ele>44.6</ele><time>2026-04-16T08:52:51.846Z</time></trkpt><trkpt lat="40.7506217" lon="8.1636133"><ele>44.0</ele><time>2026-04-16T08:52:52.845Z</time></trkpt><trkpt lat="40.7505867" lon="8.16348"><ele>44.0</ele><time>2026-04-16T08:52:53.846Z</time></trkpt><trkpt lat="40.750545" lon="8.1633233"><ele>44.0</ele><time>2026-04-16T08:52:54.846Z</time></trkpt><trkpt lat="40.7505017" lon="8.1631567"><ele>44.0</ele><time>2026-04-16T08:52:55.846Z</time></trkpt><trkpt lat="40.7504567" lon="8.162995"><ele>44.0</ele><time>2026-04-16T08:52:56.846Z</time></trkpt><trkpt lat="40.7504133" lon="8.1628383"><ele>42.25</ele><time>2026-04-16T08:52:57.845Z</time></trkpt><trkpt lat="40.7503683" lon="8.1626817"><ele>40.5</ele><time>2026-04-16T08:52:58.846Z</time></trkpt><trkpt lat="40.7503417" lon="8.1625267"><ele>38.75</ele><time>2026-04-16T08:52:59.846Z</time></trkpt><trkpt lat="40.7503317" lon="8.1623633"><ele>37.0</ele><time>2026-04-16T08:53:00.845Z</time></trkpt><trkpt lat="40.750315" lon="8.162205"><ele>38.5</ele><time>2026-04-16T08:53:01.846Z</time></trkpt><trkpt lat="40.7502833" lon="8.1620467"><ele>40.0</ele><time>2026-04-16T08:53:02.846Z</time></trkpt><trkpt lat="40.750245" lon="8.161895"><ele>41.5</ele><time>2026-04-16T08:53:03.845Z</time></trkpt><trkpt lat="40.750205" lon="8.161745"><ele>43.0</ele><time>2026-04-16T08:53:04.845Z</time></trkpt><trkpt lat="40.7501667" lon="8.1615983"><ele>42.0</ele><time>2026-04-16T08:53:05.845Z</time></trkpt><trkpt lat="40.750135" lon="8.1614533"><ele>41.0</ele><time>2026-04-16T08:53:06.845Z</time></trkpt><trkpt lat="40.7501017" lon="8.1613117"><ele>40.0</ele><time>2026-04-16T08:53:07.846Z</time></trkpt><trkpt lat="40.7500683" lon="8.1611783"><ele>39.0</ele><time>2026-04-16T08:53:08.846Z</time></trkpt><trkpt lat="40.7500417" lon="8.16106"><ele>38.0</ele><time>2026-04-16T08:53:09.846Z</time></trkpt><trkpt lat="40.7500167" lon="8.1609267"><ele>38.0</ele><time>2026-04-16T08:53:10.845Z</time></trkpt><trkpt lat="40.7499883" lon="8.1607783"><ele>38.0</ele><time>2026-04-16T08:53:11.845Z</time></trkpt><trkpt lat="40.7499583" lon="8.1606217"><ele>38.0</ele><time>2026-04-16T08:53:12.846Z</time></trkpt><trkpt lat="40.7499183" lon="8.16046"><ele>38.0</ele><time>2026-04-16T08:53:13.846Z</time></trkpt><trkpt lat="40.7498683" lon="8.160285"><ele>37.0</ele><time>2026-04-16T08:53:14.846Z</time></trkpt><trkpt lat="40.7498133" lon="8.16012"><ele>36.0</ele><time>2026-04-16T08:53:15.846Z</time></trkpt><trkpt lat="40.7497633" lon="8.1599583"><ele>35.0</ele><time>2026-04-16T08:53:16.846Z</time></trkpt><trkpt lat="40.74973" lon="8.1598033"><ele>34.0</ele><time>2026-04-16T08:53:17.846Z</time></trkpt><trkpt lat="40.7497117" lon="8.1596633"><ele>33.16666666666667</ele><time>2026-04-16T08:53:18.846Z</time></trkpt><trkpt lat="40.7497" lon="8.1595333"><ele>32.333333333333336</ele><time>2026-04-16T08:53:19.845Z</time></trkpt><trkpt lat="40.7496833" lon="8.1594133"><ele>31.5</ele><time>2026-04-16T08:53:20.845Z</time></trkpt><trkpt lat="40.7496633" lon="8.1593017"><ele>30.666666666666664</ele><time>2026-04-16T08:53:21.845Z</time></trkpt><trkpt lat="40.74964" lon="8.1591967"><ele>29.833333333333332</ele><time>2026-04-16T08:53:22.846Z</time></trkpt><trkpt lat="40.7496217" lon="8.1591117"><ele>29.0</ele><time>2026-04-16T08:53:23.845Z</time></trkpt><trkpt lat="40.7496833" lon="8.1590483"><ele>28.999999999999996</ele><time>2026-04-16T08:53:36.845Z</time></trkpt><trkpt lat="40.7497667" lon="8.1590967"><ele>29.0</ele><time>2026-04-16T08:53:38.845Z</time></trkpt><trkpt lat="40.749855" lon="8.1591583"><ele>29.0</ele><time>2026-04-16T09:05:15.841Z</time></trkpt><trkpt lat="40.7499517" lon="8.159245"><ele>29.0</ele><time>2026-04-16T09:05:17.841Z</time></trkpt><trkpt lat="40.75001" lon="8.15928"><ele>28.999999999999996</ele><time>2026-04-16T09:05:18.841Z</time></trkpt><trkpt lat="40.7500717" lon="8.1593083"><ele>29.0</ele><time>2026-04-16T09:05:19.842Z</time></trkpt><trkpt lat="40.7501383" lon="8.1593317"><ele>27.6</ele><time>2026-04-16T09:05:20.841Z</time></trkpt><trkpt lat="40.7502083" lon="8.159365"><ele>26.2</ele><time>2026-04-16T09:05:21.841Z</time></trkpt><trkpt lat="40.7503133" lon="8.15945"><ele>24.8</ele><time>2026-04-16T09:05:23.842Z</time></trkpt><trkpt lat="40.750405" lon="8.1594733"><ele>23.400000000000002</ele><time>2026-04-16T09:05:25.841Z</time></trkpt><trkpt lat="40.7504567" lon="8.1594033"><ele>22.0</ele><time>2026-04-16T09:05:27.841Z</time></trkpt><trkpt lat="40.750465" lon="8.1592633"><ele>22.0</ele><time>2026-04-16T09:05:29.841Z</time></trkpt><trkpt lat="40.7505" lon="8.1591617"><ele>22.0</ele><time>2026-04-16T09:05:31.842Z</time></trkpt><trkpt lat="40.7505233" lon="8.1590467"><ele>22.0</ele><time>2026-04-16T09:05:43.842Z</time></trkpt><trkpt lat="40.7505183" lon="8.1589183"><ele>22.0</ele><time>2026-04-16T09:05:45.841Z</time></trkpt><trkpt lat="40.7505117" lon="8.15876"><ele>22.0</ele><time>2026-04-16T09:05:47.842Z</time></trkpt><trkpt lat="40.7505367" lon="8.158615"><ele>21.400000000000002</ele><time>2026-04-16T09:05:49.841Z</time></trkpt><trkpt lat="40.750595" lon="8.1585267"><ele>20.8</ele><time>2026-04-16T09:05:51.842Z</time></trkpt><trkpt lat="40.75068" lon="8.1585367"><ele>20.2</ele><time>2026-04-16T09:05:53.842Z</time></trkpt><trkpt lat="40.75079" lon="8.1586283"><ele>19.6</ele><time>2026-04-16T09:05:55.842Z</time></trkpt><trkpt lat="40.7508567" lon="8.15868"><ele>19.0</ele><time>2026-04-16T09:05:56.842Z</time></trkpt><trkpt lat="40.75093" lon="8.1587183"><ele>19.0</ele><time>2026-04-16T09:05:57.841Z</time></trkpt><trkpt lat="40.7510167" lon="8.1587383"><ele>19.0</ele><time>2026-04-16T09:05:58.841Z</time></trkpt><trkpt lat="40.7511083" lon="8.1587567"><ele>19.0</ele><time>2026-04-16T09:05:59.841Z</time></trkpt><trkpt lat="40.7512" lon="8.1587733"><ele>19.0</ele><time>2026-04-16T09:06:00.841Z</time></trkpt><trkpt lat="40.75129" lon="8.1587933"><ele>19.0</ele><time>2026-04-16T09:06:01.841Z</time></trkpt><trkpt lat="40.7513817" lon="8.158815"><ele>21.0</ele><time>2026-04-16T09:06:02.842Z</time></trkpt><trkpt lat="40.7514733" lon="8.1588433"><ele>23.0</ele><time>2026-04-16T09:06:03.842Z</time></trkpt><trkpt lat="40.7515567" lon="8.1588883"><ele>25.0</ele><time>2026-04-16T09:06:04.842Z</time></trkpt><trkpt lat="40.7516267" lon="8.1589417"><ele>27.0</ele><time>2026-04-16T09:06:05.842Z</time></trkpt><trkpt lat="40.751675" lon="8.1590083"><ele>29.000000000000004</ele><time>2026-04-16T09:06:06.842Z</time></trkpt><trkpt lat="40.7517333" lon="8.1591367"><ele>31.0</ele><time>2026-04-16T09:06:08.842Z</time></trkpt><trkpt lat="40.7518067" lon="8.159275"><ele>35.2</ele><time>2026-04-16T09:06:10.842Z</time></trkpt><trkpt lat="40.7518817" lon="8.159415"><ele>39.400000000000006</ele><time>2026-04-16T09:06:12.842Z</time></trkpt><trkpt lat="40.7519283" lon="8.1594867"><ele>43.6</ele><time>2026-04-16T09:06:13.842Z</time></trkpt><trkpt lat="40.7519767" lon="8.1595683"><ele>47.800000000000004</ele><time>2026-04-16T09:06:14.842Z</time></trkpt><trkpt lat="40.75203" lon="8.1596633"><ele>52.0</ele><time>2026-04-16T09:06:15.842Z</time></trkpt><trkpt lat="40.7520783" lon="8.1597617"><ele>51.8</ele><time>2026-04-16T09:06:16.842Z</time></trkpt><trkpt lat="40.7521317" lon="8.15987"><ele>51.6</ele><time>2026-04-16T09:06:17.842Z</time></trkpt><trkpt lat="40.7521867" lon="8.159985"><ele>51.4</ele><time>2026-04-16T09:06:18.841Z</time></trkpt><trkpt lat="40.75224" lon="8.1600967"><ele>51.199999999999996</ele><time>2026-04-16T09:06:19.841Z</time></trkpt><trkpt lat="40.7523017" lon="8.1602067"><ele>51.0</ele><time>2026-04-16T09:06:20.842Z</time></trkpt><trkpt lat="40.7523683" lon="8.1603167"><ele>51.0</ele><time>2026-04-16T09:06:21.842Z</time></trkpt><trkpt lat="40.75243" lon="8.160425"><ele>51.0</ele><time>2026-04-16T09:06:22.841Z</time></trkpt><trkpt lat="40.7524967" lon="8.1605333"><ele>51.0</ele><time>2026-04-16T09:06:23.842Z</time></trkpt><trkpt lat="40.75256" lon="8.1606417"><ele>51.0</ele><time>2026-04-16T09:06:24.841Z</time></trkpt><trkpt lat="40.75262" lon="8.1607383"><ele>51.0</ele><time>2026-04-16T09:06:25.841Z</time></trkpt><trkpt lat="40.7526783" lon="8.1608117"><ele>51.0</ele><time>2026-04-16T09:06:26.842Z</time></trkpt><trkpt lat="40.7527467" lon="8.1608583"><ele>51.0</ele><time>2026-04-16T09:06:27.842Z</time></trkpt><trkpt lat="40.75282" lon="8.160915"><ele>51.0</ele><time>2026-04-16T09:06:28.841Z</time></trkpt><trkpt lat="40.7528933" lon="8.1609867"><ele>51.0</ele><time>2026-04-16T09:06:29.841Z</time></trkpt><trkpt lat="40.7529567" lon="8.1610683"><ele>51.0</ele><time>2026-04-16T09:06:30.842Z</time></trkpt><trkpt lat="40.752995" lon="8.161145"><ele>51.0</ele><time>2026-04-16T09:06:31.841Z</time></trkpt><trkpt lat="40.7530433" lon="8.1612817"><ele>51.0</ele><time>2026-04-16T09:06:33.842Z</time></trkpt><trkpt lat="40.7530717" lon="8.1613617"><ele>51.0</ele><time>2026-04-16T09:06:34.841Z</time></trkpt><trkpt lat="40.75311" lon="8.1614517"><ele>51.0</ele><time>2026-04-16T09:06:35.842Z</time></trkpt><trkpt lat="40.753155" lon="8.1615433"><ele>51.0</ele><time>2026-04-16T09:06:36.841Z</time></trkpt><trkpt lat="40.7532083" lon="8.161645"><ele>51.0</ele><time>2026-04-16T09:06:37.841Z</time></trkpt><trkpt lat="40.753265" lon="8.16175"><ele>51.0</ele><time>2026-04-16T09:06:38.842Z</time></trkpt><trkpt lat="40.753325" lon="8.1618717"><ele>51.4</ele><time>2026-04-16T09:06:39.841Z</time></trkpt><trkpt lat="40.7533883" lon="8.161995"><ele>51.8</ele><time>2026-04-16T09:06:40.842Z</time></trkpt><trkpt lat="40.7534483" lon="8.16212"><ele>52.199999999999996</ele><time>2026-04-16T09:06:41.842Z</time></trkpt><trkpt lat="40.7535033" lon="8.162245"><ele>52.599999999999994</ele><time>2026-04-16T09:06:42.841Z</time></trkpt><trkpt lat="40.7535567" lon="8.162365"><ele>53.0</ele><time>2026-04-16T09:06:43.842Z</time></trkpt><trkpt lat="40.7536117" lon="8.16246"><ele>54.833333333333336</ele><time>2026-04-16T09:06:44.842Z</time></trkpt><trkpt lat="40.7536767" lon="8.16254"><ele>56.66666666666667</ele><time>2026-04-16T09:06:45.842Z</time></trkpt><trkpt lat="40.7537467" lon="8.162615"><ele>58.5</ele><time>2026-04-16T09:06:46.842Z</time></trkpt><trkpt lat="40.753815" lon="8.16267"><ele>60.33333333333333</ele><time>2026-04-16T09:06:47.84Z</time></trkpt><trkpt lat="40.7538783" lon="8.1627283"><ele>62.166666666666664</ele><time>2026-04-16T09:06:48.84Z</time></trkpt><trkpt lat="40.7539483" lon="8.1627783"><ele>64.0</ele><time>2026-04-16T09:06:49.841Z</time></trkpt><trkpt lat="40.75403" lon="8.1627967"><ele>64.0</ele><time>2026-04-16T09:06:50.84Z</time></trkpt><trkpt lat="40.754115" lon="8.16279"><ele>64.0</ele><time>2026-04-16T09:06:51.84Z</time></trkpt><trkpt lat="40.7542067" lon="8.1627633"><ele>64.0</ele><time>2026-04-16T09:06:52.841Z</time></trkpt><trkpt lat="40.7542983" lon="8.1627383"><ele>64.0</ele><time>2026-04-16T09:06:53.841Z</time></trkpt><trkpt lat="40.7543883" lon="8.1627283"><ele>64.0</ele><time>2026-04-16T09:06:54.841Z</time></trkpt><trkpt lat="40.7544833" lon="8.1627367"><ele>64.4</ele><time>2026-04-16T09:06:55.84Z</time></trkpt><trkpt lat="40.7545783" lon="8.1627383"><ele>64.80000000000001</ele><time>2026-04-16T09:06:56.841Z</time></trkpt><trkpt lat="40.754675" lon="8.1627367"><ele>65.19999999999999</ele><time>2026-04-16T09:06:57.841Z</time></trkpt><trkpt lat="40.7547733" lon="8.1627433"><ele>65.6</ele><time>2026-04-16T09:06:58.84Z</time></trkpt><trkpt lat="40.7548767" lon="8.162755"><ele>66.0</ele><time>2026-04-16T09:06:59.84Z</time></trkpt><trkpt lat="40.7549817" lon="8.16278"><ele>66.0</ele><time>2026-04-16T09:07:00.841Z</time></trkpt><trkpt lat="40.755085" lon="8.1627983"><ele>66.0</ele><time>2026-04-16T09:07:01.841Z</time></trkpt><trkpt lat="40.7551967" lon="8.162805"><ele>66.0</ele><time>2026-04-16T09:07:02.841Z</time></trkpt><trkpt lat="40.755315" lon="8.16281"><ele>66.0</ele><time>2026-04-16T09:07:03.841Z</time></trkpt><trkpt lat="40.755435" lon="8.1628283"><ele>66.6</ele><time>2026-04-16T09:07:04.84Z</time></trkpt><trkpt lat="40.75554" lon="8.1628567"><ele>67.19999999999999</ele><time>2026-04-16T09:07:05.84Z</time></trkpt><trkpt lat="40.75562" lon="8.162895"><ele>67.80000000000001</ele><time>2026-04-16T09:07:06.841Z</time></trkpt><trkpt lat="40.7556767" lon="8.1629383"><ele>68.4</ele><time>2026-04-16T09:07:07.841Z</time></trkpt><trkpt lat="40.7557517" lon="8.1630483"><ele>69.0</ele><time>2026-04-16T09:07:09.841Z</time></trkpt><trkpt lat="40.7558233" lon="8.163175"><ele>69.4</ele><time>2026-04-16T09:07:11.841Z</time></trkpt><trkpt lat="40.755915" lon="8.1632683"><ele>69.80000000000001</ele><time>2026-04-16T09:07:13.841Z</time></trkpt><trkpt lat="40.75602" lon="8.1633583"><ele>70.19999999999999</ele><time>2026-04-16T09:07:15.84Z</time></trkpt><trkpt lat="40.75608" lon="8.1634117"><ele>70.6</ele><time>2026-04-16T09:07:16.84Z</time></trkpt><trkpt lat="40.7561417" lon="8.1634783"><ele>71.0</ele><time>2026-04-16T09:07:17.841Z</time></trkpt><trkpt lat="40.756215" lon="8.1635433"><ele>71.0</ele><time>2026-04-16T09:07:18.841Z</time></trkpt><trkpt lat="40.7562917" lon="8.1635783"><ele>71.0</ele><time>2026-04-16T09:07:19.841Z</time></trkpt><trkpt lat="40.75638" lon="8.1635983"><ele>71.0</ele><time>2026-04-16T09:07:20.84Z</time></trkpt><trkpt lat="40.7564817" lon="8.1636217"><ele>71.0</ele><time>2026-04-16T09:07:21.841Z</time></trkpt><trkpt lat="40.7565817" lon="8.1636583"><ele>71.0</ele><time>2026-04-16T09:07:22.84Z</time></trkpt><trkpt lat="40.7566883" lon="8.1637067"><ele>71.0</ele><time>2026-04-16T09:07:23.841Z</time></trkpt><trkpt lat="40.7567817" lon="8.1637517"><ele>71.0</ele><time>2026-04-16T09:07:24.84Z</time></trkpt><trkpt lat="40.75686" lon="8.16379"><ele>71.0</ele><time>2026-04-16T09:07:25.841Z</time></trkpt><trkpt lat="40.75696" lon="8.1638"><ele>71.0</ele><time>2026-04-16T09:07:27.84Z</time></trkpt><trkpt lat="40.756975" lon="8.16371"><ele>71.0</ele><time>2026-04-16T09:07:29.84Z</time></trkpt><trkpt lat="40.756935" lon="8.1636267"><ele>71.0</ele><time>2026-04-16T09:07:31.841Z</time></trkpt><trkpt lat="40.7568617" lon="8.16351"><ele>71.0</ele><time>2026-04-16T09:07:33.84Z</time></trkpt><trkpt lat="40.7567967" lon="8.163375"><ele>71.0</ele><time>2026-04-16T09:07:35.841Z</time></trkpt><trkpt lat="40.756725" lon="8.163255"><ele>71.0</ele><time>2026-04-16T09:07:37.841Z</time></trkpt><trkpt lat="40.75666" lon="8.1631067"><ele>71.0</ele><time>2026-04-16T09:07:39.841Z</time></trkpt><trkpt lat="40.7566317" lon="8.1630233"><ele>71.0</ele><time>2026-04-16T09:07:40.841Z</time></trkpt><trkpt lat="40.756605" lon="8.162945"><ele>69.0</ele><time>2026-04-16T09:07:41.841Z</time></trkpt><trkpt lat="40.7565917" lon="8.16286"><ele>67.0</ele><time>2026-04-16T09:07:42.84Z</time></trkpt><trkpt lat="40.7565817" lon="8.1627767"><ele>65.0</ele><time>2026-04-16T09:07:43.84Z</time></trkpt><trkpt lat="40.75658" lon="8.162685"><ele>63.0</ele><time>2026-04-16T09:07:44.841Z</time></trkpt><trkpt lat="40.7565933" lon="8.1625883"><ele>60.99999999999999</ele><time>2026-04-16T09:07:45.841Z</time></trkpt><trkpt lat="40.7566133" lon="8.16249"><ele>59.0</ele><time>2026-04-16T09:07:46.841Z</time></trkpt><trkpt lat="40.75663" lon="8.16239"><ele>57.0</ele><time>2026-04-16T09:07:47.841Z</time></trkpt><trkpt lat="40.75664" lon="8.1622917"><ele>55.166666666666664</ele><time>2026-04-16T09:07:48.841Z</time></trkpt><trkpt lat="40.7566367" lon="8.1621967"><ele>53.333333333333336</ele><time>2026-04-16T09:07:49.841Z</time></trkpt><trkpt lat="40.75663" lon="8.1620983"><ele>51.5</ele><time>2026-04-16T09:07:50.841Z</time></trkpt><trkpt lat="40.7566283" lon="8.1619883"><ele>49.66666666666667</ele><time>2026-04-16T09:07:51.841Z</time></trkpt><trkpt lat="40.75664" lon="8.16186"><ele>47.833333333333336</ele><time>2026-04-16T09:07:52.84Z</time></trkpt><trkpt lat="40.7566633" lon="8.1617183"><ele>46.0</ele><time>2026-04-16T09:07:53.841Z</time></trkpt><trkpt lat="40.75669" lon="8.1615717"><ele>44.0</ele><time>2026-04-16T09:07:54.841Z</time></trkpt><trkpt lat="40.7567083" lon="8.1614417"><ele>42.0</ele><time>2026-04-16T09:07:55.84Z</time></trkpt><trkpt lat="40.7567233" lon="8.1613083"><ele>40.0</ele><time>2026-04-16T09:07:56.84Z</time></trkpt><trkpt lat="40.7567283" lon="8.1611917"><ele>38.0</ele><time>2026-04-16T09:07:57.841Z</time></trkpt><trkpt lat="40.7567283" lon="8.1610983"><ele>36.0</ele><time>2026-04-16T09:07:58.84Z</time></trkpt><trkpt lat="40.7567367" lon="8.1610067"><ele>34.0</ele><time>2026-04-16T09:07:59.84Z</time></trkpt><trkpt lat="40.7567833" lon="8.1608583"><ele>33.99999999999999</ele><time>2026-04-16T09:08:01.84Z</time></trkpt><trkpt lat="40.7568283" lon="8.1607967"><ele>34.0</ele><time>2026-04-16T09:08:02.841Z</time></trkpt><trkpt lat="40.75688" lon="8.1607383"><ele>34.0</ele><time>2026-04-16T09:08:03.841Z</time></trkpt><trkpt lat="40.7569433" lon="8.1606867"><ele>34.0</ele><time>2026-04-16T09:08:04.84Z</time></trkpt><trkpt lat="40.7570133" lon="8.1606667"><ele>34.0</ele><time>2026-04-16T09:08:05.841Z</time></trkpt><trkpt lat="40.7570917" lon="8.160665"><ele>33.99999999999999</ele><time>2026-04-16T09:08:06.841Z</time></trkpt><trkpt lat="40.7571683" lon="8.1606733"><ele>34.0</ele><time>2026-04-16T09:08:07.84Z</time></trkpt><trkpt lat="40.7572367" lon="8.1606933"><ele>32.16666666666667</ele><time>2026-04-16T09:08:08.841Z</time></trkpt><trkpt lat="40.7573117" lon="8.1606983"><ele>30.333333333333336</ele><time>2026-04-16T09:08:09.841Z</time></trkpt><trkpt lat="40.7574" lon="8.16069"><ele>28.5</ele><time>2026-04-16T09:08:10.84Z</time></trkpt><trkpt lat="40.757495" lon="8.1606883"><ele>26.666666666666668</ele><time>2026-04-16T09:08:11.841Z</time></trkpt><trkpt lat="40.7575783" lon="8.160705"><ele>24.833333333333336</ele><time>2026-04-16T09:08:12.841Z</time></trkpt><trkpt lat="40.75765" lon="8.160735"><ele>23.0</ele><time>2026-04-16T09:08:13.841Z</time></trkpt><trkpt lat="40.75771" lon="8.1607617"><ele>21.4</ele><time>2026-04-16T09:08:14.841Z</time></trkpt><trkpt lat="40.7578217" lon="8.16075"><ele>19.799999999999997</ele><time>2026-04-16T09:08:16.841Z</time></trkpt><trkpt lat="40.7579183" lon="8.1607"><ele>18.2</ele><time>2026-04-16T09:08:18.841Z</time></trkpt><trkpt lat="40.75801" lon="8.16074"><ele>16.6</ele><time>2026-04-16T09:08:20.84Z</time></trkpt><trkpt lat="40.7580983" lon="8.1608483"><ele>15.0</ele><time>2026-04-16T09:08:22.84Z</time></trkpt><trkpt lat="40.75814" lon="8.1609183"><ele>15.0</ele><time>2026-04-16T09:08:23.84Z</time></trkpt><trkpt lat="40.75818" lon="8.1610783"><ele>15.0</ele><time>2026-04-16T09:08:25.841Z</time></trkpt><trkpt lat="40.7581867" lon="8.1611717"><ele>15.0</ele><time>2026-04-16T09:08:26.84Z</time></trkpt><trkpt lat="40.7581867" lon="8.1612633"><ele>15.0</ele><time>2026-04-16T09:08:27.84Z</time></trkpt><trkpt lat="40.7581967" lon="8.16136"><ele>15.0</ele><time>2026-04-16T09:08:28.841Z</time></trkpt><trkpt lat="40.758225" lon="8.1614617"><ele>15.0</ele><time>2026-04-16T09:08:29.84Z</time></trkpt><trkpt lat="40.758255" lon="8.161545"><ele>15.0</ele><time>2026-04-16T09:08:30.841Z</time></trkpt><trkpt lat="40.75835" lon="8.1616267"><ele>15.0</ele><time>2026-04-16T09:08:32.841Z</time></trkpt><trkpt lat="40.7584433" lon="8.1615767"><ele>15.0</ele><time>2026-04-16T09:08:34.84Z</time></trkpt><trkpt lat="40.7584517" lon="8.1614117"><ele>15.0</ele><time>2026-04-16T09:08:36.841Z</time></trkpt><trkpt lat="40.7584533" lon="8.161315"><ele>15.0</ele><time>2026-04-16T09:08:37.841Z</time></trkpt><trkpt lat="40.7584683" lon="8.1612233"><ele>15.0</ele><time>2026-04-16T09:08:38.841Z</time></trkpt><trkpt lat="40.7584917" lon="8.1611417"><ele>15.0</ele><time>2026-04-16T09:08:39.841Z</time></trkpt><trkpt lat="40.7585417" lon="8.1610067"><ele>15.0</ele><time>2026-04-16T09:08:41.841Z</time></trkpt><trkpt lat="40.75857" lon="8.1609083"><ele>15.0</ele><time>2026-04-16T09:08:43.84Z</time></trkpt><trkpt lat="40.758575" lon="8.1608217"><ele>15.0</ele><time>2026-04-16T09:08:46.84Z</time></trkpt><trkpt lat="40.75865" lon="8.1608367"><ele>15.0</ele><time>2026-04-16T09:09:17.84Z</time></trkpt><trkpt lat="40.7587367" lon="8.1609383"><ele>13.666666666666666</ele><time>2026-04-16T09:09:19.841Z</time></trkpt><trkpt lat="40.758785" lon="8.1610017"><ele>12.333333333333334</ele><time>2026-04-16T09:09:20.84Z</time></trkpt><trkpt lat="40.7588383" lon="8.1610767"><ele>11.0</ele><time>2026-04-16T09:09:21.841Z</time></trkpt><trkpt lat="40.7588967" lon="8.1611517"><ele>9.666666666666668</ele><time>2026-04-16T09:09:22.84Z</time></trkpt><trkpt lat="40.7589633" lon="8.161215"><ele>8.333333333333334</ele><time>2026-04-16T09:09:23.841Z</time></trkpt><trkpt lat="40.759025" lon="8.1612667"><ele>7.0</ele><time>2026-04-16T09:09:24.841Z</time></trkpt><trkpt lat="40.7590833" lon="8.1613167"><ele>7.000000000000001</ele><time>2026-04-16T09:09:25.84Z</time></trkpt><trkpt lat="40.759145" lon="8.1613667"><ele>7.0</ele><time>2026-04-16T09:09:26.84Z</time></trkpt><trkpt lat="40.75921" lon="8.1614283"><ele>7.0</ele><time>2026-04-16T09:09:27.84Z</time></trkpt><trkpt lat="40.75928" lon="8.1615"><ele>7.0</ele><time>2026-04-16T09:09:28.839Z</time></trkpt><trkpt lat="40.759355" lon="8.1615733"><ele>7.000000000000001</ele><time>2026-04-16T09:09:29.839Z</time></trkpt><trkpt lat="40.7594433" lon="8.16164"><ele>7.0</ele><time>2026-04-16T09:09:30.839Z</time></trkpt><trkpt lat="40.759535" lon="8.1616917"><ele>7.6</ele><time>2026-04-16T09:09:31.839Z</time></trkpt><trkpt lat="40.7596267" lon="8.1617333"><ele>8.2</ele><time>2026-04-16T09:09:32.84Z</time></trkpt><trkpt lat="40.759715" lon="8.1617783"><ele>8.8</ele><time>2026-04-16T09:09:33.84Z</time></trkpt><trkpt lat="40.7597933" lon="8.16183"><ele>9.4</ele><time>2026-04-16T09:09:34.839Z</time></trkpt><trkpt lat="40.75987" lon="8.1618867"><ele>10.0</ele><time>2026-04-16T09:09:35.84Z</time></trkpt><trkpt lat="40.7599417" lon="8.16195"><ele>10.0</ele><time>2026-04-16T09:09:36.84Z</time></trkpt><trkpt lat="40.7600117" lon="8.1620017"><ele>10.0</ele><time>2026-04-16T09:09:37.84Z</time></trkpt><trkpt lat="40.76009" lon="8.16205"><ele>10.0</ele><time>2026-04-16T09:09:38.84Z</time></trkpt><trkpt lat="40.7601733" lon="8.1620833"><ele>10.0</ele><time>2026-04-16T09:09:39.84Z</time></trkpt><trkpt lat="40.760265" lon="8.162115"><ele>10.0</ele><time>2026-04-16T09:09:40.839Z</time></trkpt><trkpt lat="40.7603617" lon="8.16215"><ele>10.0</ele><time>2026-04-16T09:09:41.84Z</time></trkpt><trkpt lat="40.7604583" lon="8.1621833"><ele>9.6</ele><time>2026-04-16T09:09:42.84Z</time></trkpt><trkpt lat="40.760555" lon="8.1622167"><ele>9.2</ele><time>2026-04-16T09:09:43.84Z</time></trkpt><trkpt lat="40.7606567" lon="8.1622483"><ele>8.8</ele><time>2026-04-16T09:09:44.84Z</time></trkpt><trkpt lat="40.7607567" lon="8.1622767"><ele>8.4</ele><time>2026-04-16T09:09:45.84Z</time></trkpt><trkpt lat="40.760865" lon="8.1622917"><ele>8.0</ele><time>2026-04-16T09:09:46.84Z</time></trkpt><trkpt lat="40.7609767" lon="8.162285"><ele>7.2</ele><time>2026-04-16T09:09:47.84Z</time></trkpt><trkpt lat="40.76109" lon="8.1622583"><ele>6.4</ele><time>2026-04-16T09:09:48.839Z</time></trkpt><trkpt lat="40.7612033" lon="8.1622317"><ele>5.6000000000000005</ele><time>2026-04-16T09:09:49.84Z</time></trkpt><trkpt lat="40.761315" lon="8.1622167"><ele>4.800000000000001</ele><time>2026-04-16T09:09:50.84Z</time></trkpt><trkpt lat="40.761415" lon="8.1622017"><ele>4.0</ele><time>2026-04-16T09:09:51.839Z</time></trkpt><trkpt lat="40.7614983" lon="8.1621833"><ele>3.9999999999999996</ele><time>2026-04-16T09:09:52.839Z</time></trkpt><trkpt lat="40.7615633" lon="8.1621683"><ele>4.0</ele><time>2026-04-16T09:09:53.839Z</time></trkpt><trkpt lat="40.7616533" lon="8.1622283"><ele>4.0</ele><time>2026-04-16T09:09:55.84Z</time></trkpt><trkpt lat="40.7617033" lon="8.1623033"><ele>4.0</ele><time>2026-04-16T09:09:56.839Z</time></trkpt><trkpt lat="40.7617633" lon="8.1623967"><ele>3.9999999999999996</ele><time>2026-04-16T09:09:57.839Z</time></trkpt><trkpt lat="40.7618217" lon="8.1625033"><ele>4.0</ele><time>2026-04-16T09:09:58.839Z</time></trkpt><trkpt lat="40.7618817" lon="8.1626133"><ele>7.0</ele><time>2026-04-16T09:09:59.84Z</time></trkpt><trkpt lat="40.7619517" lon="8.162725"><ele>10.0</ele><time>2026-04-16T09:10:00.84Z</time></trkpt><trkpt lat="40.7620283" lon="8.1628233"><ele>12.999999999999998</ele><time>2026-04-16T09:10:01.839Z</time></trkpt><trkpt lat="40.762115" lon="8.16291"><ele>16.0</ele><time>2026-04-16T09:10:02.84Z</time></trkpt><trkpt lat="40.7621917" lon="8.1629767"><ele>19.0</ele><time>2026-04-16T09:10:03.839Z</time></trkpt><trkpt lat="40.7622617" lon="8.1630367"><ele>19.0</ele><time>2026-04-16T09:10:04.84Z</time></trkpt><trkpt lat="40.7623183" lon="8.1631183"><ele>19.0</ele><time>2026-04-16T09:10:05.839Z</time></trkpt><trkpt lat="40.7623583" lon="8.1632217"><ele>19.0</ele><time>2026-04-16T09:10:06.839Z</time></trkpt><trkpt lat="40.7623883" lon="8.1633333"><ele>19.0</ele><time>2026-04-16T09:10:07.839Z</time></trkpt><trkpt lat="40.762415" lon="8.1634683"><ele>19.0</ele><time>2026-04-16T09:10:08.84Z</time></trkpt><trkpt lat="40.762445" lon="8.1636133"><ele>19.5</ele><time>2026-04-16T09:10:09.84Z</time></trkpt><trkpt lat="40.7624817" lon="8.16376"><ele>20.0</ele><time>2026-04-16T09:10:10.839Z</time></trkpt><trkpt lat="40.7625283" lon="8.1639017"><ele>20.5</ele><time>2026-04-16T09:10:11.84Z</time></trkpt><trkpt lat="40.7625717" lon="8.1640383"><ele>21.0</ele><time>2026-04-16T09:10:12.84Z</time></trkpt><trkpt lat="40.762625" lon="8.1641767"><ele>22.4</ele><time>2026-04-16T09:10:13.84Z</time></trkpt><trkpt lat="40.7626883" lon="8.1643117"><ele>23.8</ele><time>2026-04-16T09:10:14.84Z</time></trkpt><trkpt lat="40.7627567" lon="8.1644217"><ele>25.199999999999996</ele><time>2026-04-16T09:10:15.84Z</time></trkpt><trkpt lat="40.7628117" lon="8.1645217"><ele>26.599999999999998</ele><time>2026-04-16T09:10:16.839Z</time></trkpt><trkpt lat="40.7628567" lon="8.164615"><ele>28.0</ele><time>2026-04-16T09:10:17.839Z</time></trkpt><trkpt lat="40.762895" lon="8.1647083"><ele>27.142857142857142</ele><time>2026-04-16T09:10:18.839Z</time></trkpt><trkpt lat="40.76293" lon="8.1648"><ele>26.285714285714285</ele><time>2026-04-16T09:10:19.839Z</time></trkpt><trkpt lat="40.7629583" lon="8.1649017"><ele>25.42857142857143</ele><time>2026-04-16T09:10:20.839Z</time></trkpt><trkpt lat="40.7629867" lon="8.164995"><ele>24.57142857142857</ele><time>2026-04-16T09:10:21.84Z</time></trkpt><trkpt lat="40.7630233" lon="8.1650817"><ele>23.714285714285715</ele><time>2026-04-16T09:10:22.839Z</time></trkpt><trkpt lat="40.7630717" lon="8.1651417"><ele>22.857142857142858</ele><time>2026-04-16T09:10:23.84Z</time></trkpt><trkpt lat="40.7631267" lon="8.1651833"><ele>22.0</ele><time>2026-04-16T09:10:24.839Z</time></trkpt><trkpt lat="40.7631933" lon="8.1652167"><ele>22.0</ele><time>2026-04-16T09:10:25.84Z</time></trkpt><trkpt lat="40.7632617" lon="8.1652433"><ele>22.0</ele><time>2026-04-16T09:10:26.84Z</time></trkpt><trkpt lat="40.76333" lon="8.1652533"><ele>22.0</ele><time>2026-04-16T09:10:27.84Z</time></trkpt><trkpt lat="40.763395" lon="8.1652483"><ele>22.0</ele><time>2026-04-16T09:10:28.839Z</time></trkpt><trkpt lat="40.76349" lon="8.1651883"><ele>22.0</ele><time>2026-04-16T09:10:30.839Z</time></trkpt><trkpt lat="40.7635683" lon="8.1651333"><ele>22.0</ele><time>2026-04-16T09:10:32.84Z</time></trkpt><trkpt lat="40.7634883" lon="8.1651767"><ele>22.0</ele><time>2026-04-16T09:13:03.838Z</time></trkpt><trkpt lat="40.7634217" lon="8.1652133"><ele>22.0</ele><time>2026-04-16T09:15:16.838Z</time></trkpt><trkpt lat="40.7633467" lon="8.1652117"><ele>22.0</ele><time>2026-04-16T09:15:17.838Z</time></trkpt><trkpt lat="40.7632667" lon="8.165205"><ele>22.0</ele><time>2026-04-16T09:15:18.838Z</time></trkpt><trkpt lat="40.7631917" lon="8.1651883"><ele>22.0</ele><time>2026-04-16T09:15:19.838Z</time></trkpt><trkpt lat="40.7631283" lon="8.1651683"><ele>22.0</ele><time>2026-04-16T09:15:20.838Z</time></trkpt><trkpt lat="40.7630317" lon="8.165075"><ele>22.0</ele><time>2026-04-16T09:15:22.838Z</time></trkpt><trkpt lat="40.7629767" lon="8.1649333"><ele>22.0</ele><time>2026-04-16T09:15:24.837Z</time></trkpt><trkpt lat="40.76291" lon="8.1647667"><ele>22.0</ele><time>2026-04-16T09:15:27.837Z</time></trkpt><trkpt lat="40.7626967" lon="8.1642833"><ele>21.833333333333332</ele><time>2026-04-16T09:15:33.838Z</time></trkpt><trkpt lat="40.7626533" lon="8.1642017"><ele>21.666666666666664</ele><time>2026-04-16T09:15:34.838Z</time></trkpt><trkpt lat="40.76261" lon="8.1641083"><ele>21.5</ele><time>2026-04-16T09:15:35.837Z</time></trkpt><trkpt lat="40.762575" lon="8.1640067"><ele>21.333333333333332</ele><time>2026-04-16T09:15:36.838Z</time></trkpt><trkpt lat="40.7625383" lon="8.1639017"><ele>21.166666666666668</ele><time>2026-04-16T09:15:37.838Z</time></trkpt><trkpt lat="40.7625067" lon="8.1637917"><ele>21.0</ele><time>2026-04-16T09:15:38.838Z</time></trkpt><trkpt lat="40.7624733" lon="8.163685"><ele>21.0</ele><time>2026-04-16T09:15:39.837Z</time></trkpt><trkpt lat="40.762445" lon="8.1635817"><ele>21.0</ele><time>2026-04-16T09:15:40.837Z</time></trkpt><trkpt lat="40.7624167" lon="8.16348"><ele>21.0</ele><time>2026-04-16T09:15:41.838Z</time></trkpt><trkpt lat="40.7623967" lon="8.1633833"><ele>21.0</ele><time>2026-04-16T09:15:42.837Z</time></trkpt><trkpt lat="40.7623733" lon="8.1632883"><ele>21.0</ele><time>2026-04-16T09:15:43.837Z</time></trkpt><trkpt lat="40.7623467" lon="8.16319"><ele>21.0</ele><time>2026-04-16T09:15:44.838Z</time></trkpt><trkpt lat="40.7623133" lon="8.1630933"><ele>20.666666666666668</ele><time>2026-04-16T09:15:45.837Z</time></trkpt><trkpt lat="40.7622733" lon="8.1630083"><ele>20.333333333333332</ele><time>2026-04-16T09:15:46.838Z</time></trkpt><trkpt lat="40.7622183" lon="8.16294"><ele>20.0</ele><time>2026-04-16T09:15:47.837Z</time></trkpt><trkpt lat="40.762145" lon="8.1628767"><ele>19.666666666666664</ele><time>2026-04-16T09:15:48.837Z</time></trkpt><trkpt lat="40.76206" lon="8.1628133"><ele>19.333333333333332</ele><time>2026-04-16T09:15:49.837Z</time></trkpt><trkpt lat="40.7619883" lon="8.1627367"><ele>19.0</ele><time>2026-04-16T09:15:50.837Z</time></trkpt><trkpt lat="40.7619267" lon="8.162655"><ele>19.0</ele><time>2026-04-16T09:15:51.838Z</time></trkpt><trkpt lat="40.7618683" lon="8.1625667"><ele>19.0</ele><time>2026-04-16T09:15:52.838Z</time></trkpt><trkpt lat="40.7618083" lon="8.1624733"><ele>19.0</ele><time>2026-04-16T09:15:53.838Z</time></trkpt><trkpt lat="40.7617467" lon="8.1623833"><ele>19.0</ele><time>2026-04-16T09:15:54.838Z</time></trkpt><trkpt lat="40.7616933" lon="8.1623017"><ele>19.0</ele><time>2026-04-16T09:15:55.838Z</time></trkpt><trkpt lat="40.7616483" lon="8.1622367"><ele>19.0</ele><time>2026-04-16T09:15:56.837Z</time></trkpt><trkpt lat="40.7615667" lon="8.1621417"><ele>16.5</ele><time>2026-04-16T09:15:58.837Z</time></trkpt><trkpt lat="40.7614683" lon="8.162155"><ele>14.0</ele><time>2026-04-16T09:16:00.838Z</time></trkpt><trkpt lat="40.761405" lon="8.1621783"><ele>11.5</ele><time>2026-04-16T09:16:01.838Z</time></trkpt><trkpt lat="40.76134" lon="8.1622017"><ele>9.0</ele><time>2026-04-16T09:16:02.837Z</time></trkpt><trkpt lat="40.7612683" lon="8.1622083"><ele>6.5</ele><time>2026-04-16T09:16:03.837Z</time></trkpt><trkpt lat="40.7611917" lon="8.1622117"><ele>4.0</ele><time>2026-04-16T09:16:04.838Z</time></trkpt><trkpt lat="40.7611133" lon="8.1622233"><ele>4.666666666666666</ele><time>2026-04-16T09:16:05.837Z</time></trkpt><trkpt lat="40.76103" lon="8.1622417"><ele>5.333333333333333</ele><time>2026-04-16T09:16:06.838Z</time></trkpt><trkpt lat="40.760945" lon="8.162255"><ele>6.0</ele><time>2026-04-16T09:16:07.837Z</time></trkpt><trkpt lat="40.760855" lon="8.1622567"><ele>6.666666666666666</ele><time>2026-04-16T09:16:08.838Z</time></trkpt><trkpt lat="40.7607717" lon="8.16225"><ele>7.333333333333333</ele><time>2026-04-16T09:16:09.838Z</time></trkpt><trkpt lat="40.7606967" lon="8.16224"><ele>8.0</ele><time>2026-04-16T09:16:10.838Z</time></trkpt><trkpt lat="40.760635" lon="8.1622233"><ele>7.999999999999999</ele><time>2026-04-16T09:16:12.837Z</time></trkpt><trkpt lat="40.7605383" lon="8.16218"><ele>8.0</ele><time>2026-04-16T09:16:23.838Z</time></trkpt><trkpt lat="40.7604733" lon="8.1621583"><ele>8.0</ele><time>2026-04-16T09:16:24.838Z</time></trkpt><trkpt lat="40.7604033" lon="8.16214"><ele>8.0</ele><time>2026-04-16T09:16:25.837Z</time></trkpt><trkpt lat="40.76033" lon="8.1621183"><ele>7.999999999999999</ele><time>2026-04-16T09:16:26.838Z</time></trkpt><trkpt lat="40.760255" lon="8.1620983"><ele>8.0</ele><time>2026-04-16T09:16:27.838Z</time></trkpt><trkpt lat="40.7601833" lon="8.162065"><ele>8.333333333333332</ele><time>2026-04-16T09:16:28.838Z</time></trkpt><trkpt lat="40.76011" lon="8.16204"><ele>8.666666666666666</ele><time>2026-04-16T09:16:29.837Z</time></trkpt><trkpt lat="40.76004" lon="8.16201"><ele>9.0</ele><time>2026-04-16T09:16:30.838Z</time></trkpt><trkpt lat="40.7599783" lon="8.1619767"><ele>9.333333333333334</ele><time>2026-04-16T09:16:31.838Z</time></trkpt><trkpt lat="40.759915" lon="8.161935"><ele>9.666666666666668</ele><time>2026-04-16T09:16:32.837Z</time></trkpt><trkpt lat="40.759845" lon="8.1618833"><ele>10.0</ele><time>2026-04-16T09:16:33.837Z</time></trkpt><trkpt lat="40.75977" lon="8.1618283"><ele>10.0</ele><time>2026-04-16T09:16:34.837Z</time></trkpt><trkpt lat="40.7596883" lon="8.16177"><ele>10.0</ele><time>2026-04-16T09:16:35.837Z</time></trkpt><trkpt lat="40.7596083" lon="8.161725"><ele>10.0</ele><time>2026-04-16T09:16:36.838Z</time></trkpt><trkpt lat="40.7595383" lon="8.161685"><ele>10.0</ele><time>2026-04-16T09:16:37.837Z</time></trkpt><trkpt lat="40.7594633" lon="8.1616383"><ele>10.0</ele><time>2026-04-16T09:16:38.838Z</time></trkpt><trkpt lat="40.7593833" lon="8.1615867"><ele>10.0</ele><time>2026-04-16T09:16:39.838Z</time></trkpt><trkpt lat="40.759305" lon="8.1615283"><ele>9.5</ele><time>2026-04-16T09:16:40.838Z</time></trkpt><trkpt lat="40.7592367" lon="8.1614567"><ele>9.0</ele><time>2026-04-16T09:16:41.838Z</time></trkpt><trkpt lat="40.7591733" lon="8.161385"><ele>8.5</ele><time>2026-04-16T09:16:42.838Z</time></trkpt><trkpt lat="40.759115" lon="8.1613133"><ele>8.0</ele><time>2026-04-16T09:16:43.838Z</time></trkpt><trkpt lat="40.7590467" lon="8.1612483"><ele>7.500000000000001</ele><time>2026-04-16T09:16:44.838Z</time></trkpt><trkpt lat="40.75897" lon="8.16119"><ele>7.0</ele><time>2026-04-16T09:16:45.838Z</time></trkpt><trkpt lat="40.7588917" lon="8.1611217"><ele>7.0</ele><time>2026-04-16T09:16:46.838Z</time></trkpt><trkpt lat="40.7588167" lon="8.1610333"><ele>6.999999999999999</ele><time>2026-04-16T09:16:47.838Z</time></trkpt><trkpt lat="40.758745" lon="8.1609433"><ele>6.999999999999999</ele><time>2026-04-16T09:16:48.838Z</time></trkpt><trkpt lat="40.758675" lon="8.1608533"><ele>7.0</ele><time>2026-04-16T09:16:49.837Z</time></trkpt><trkpt lat="40.7586067" lon="8.1607667"><ele>7.0</ele><time>2026-04-16T09:16:50.838Z</time></trkpt><trkpt lat="40.7585417" lon="8.1606867"><ele>7.199999999999999</ele><time>2026-04-16T09:16:51.838Z</time></trkpt><trkpt lat="40.75847" lon="8.1606083"><ele>7.3999999999999995</ele><time>2026-04-16T09:16:52.837Z</time></trkpt><trkpt lat="40.7583917" lon="8.1605333"><ele>7.6000000000000005</ele><time>2026-04-16T09:16:53.837Z</time></trkpt><trkpt lat="40.7583133" lon="8.1604717"><ele>7.800000000000001</ele><time>2026-04-16T09:16:54.838Z</time></trkpt><trkpt lat="40.7582417" lon="8.1603933"><ele>8.0</ele><time>2026-04-16T09:16:55.837Z</time></trkpt><trkpt lat="40.7581783" lon="8.1603017"><ele>8.0</ele><time>2026-04-16T09:16:56.838Z</time></trkpt><trkpt lat="40.75811" lon="8.160215"><ele>8.0</ele><time>2026-04-16T09:16:57.838Z</time></trkpt><trkpt lat="40.7580267" lon="8.1601467"><ele>8.0</ele><time>2026-04-16T09:16:58.837Z</time></trkpt><trkpt lat="40.7579333" lon="8.16009"><ele>8.0</ele><time>2026-04-16T09:16:59.838Z</time></trkpt><trkpt lat="40.7578333" lon="8.1600283"><ele>8.0</ele><time>2026-04-16T09:17:00.838Z</time></trkpt><trkpt lat="40.7577333" lon="8.1599483"><ele>7.75</ele><time>2026-04-16T09:17:01.837Z</time></trkpt><trkpt lat="40.7576383" lon="8.1598583"><ele>7.5</ele><time>2026-04-16T09:17:02.837Z</time></trkpt><trkpt lat="40.7575467" lon="8.159765"><ele>7.25</ele><time>2026-04-16T09:17:03.838Z</time></trkpt><trkpt lat="40.7574583" lon="8.1596733"><ele>7.0</ele><time>2026-04-16T09:17:04.837Z</time></trkpt><trkpt lat="40.75737" lon="8.1595867"><ele>7.000000000000001</ele><time>2026-04-16T09:17:05.837Z</time></trkpt><trkpt lat="40.7572883" lon="8.1595067"><ele>7.0</ele><time>2026-04-16T09:17:06.838Z</time></trkpt><trkpt lat="40.75722" lon="8.15944"><ele>7.0</ele><time>2026-04-16T09:17:07.838Z</time></trkpt><trkpt lat="40.7571483" lon="8.1593817"><ele>7.0</ele><time>2026-04-16T09:17:08.838Z</time></trkpt><trkpt lat="40.7570717" lon="8.1593383"><ele>7.000000000000001</ele><time>2026-04-16T09:17:09.838Z</time></trkpt><trkpt lat="40.7569833" lon="8.15932"><ele>7.0</ele><time>2026-04-16T09:17:10.838Z</time></trkpt><trkpt lat="40.756885" lon="8.1593167"><ele>8.0</ele><time>2026-04-16T09:17:11.837Z</time></trkpt><trkpt lat="40.7567867" lon="8.15932"><ele>9.0</ele><time>2026-04-16T09:17:12.838Z</time></trkpt><trkpt lat="40.75669" lon="8.159325"><ele>10.0</ele><time>2026-04-16T09:17:13.838Z</time></trkpt><trkpt lat="40.7566" lon="8.1593167"><ele>11.0</ele><time>2026-04-16T09:17:14.838Z</time></trkpt><trkpt lat="40.7565183" lon="8.1592767"><ele>12.0</ele><time>2026-04-16T09:17:15.838Z</time></trkpt><trkpt lat="40.7564283" lon="8.159215"><ele>12.0</ele><time>2026-04-16T09:17:16.837Z</time></trkpt><trkpt lat="40.7563267" lon="8.1591583"><ele>12.0</ele><time>2026-04-16T09:17:17.837Z</time></trkpt><trkpt lat="40.7562133" lon="8.1591117"><ele>12.0</ele><time>2026-04-16T09:17:18.838Z</time></trkpt><trkpt lat="40.7561033" lon="8.1590533"><ele>12.0</ele><time>2026-04-16T09:17:19.837Z</time></trkpt><trkpt lat="40.756" lon="8.1589717"><ele>10.75</ele><time>2026-04-16T09:17:20.837Z</time></trkpt><trkpt lat="40.755895" lon="8.1588767"><ele>9.5</ele><time>2026-04-16T09:17:21.837Z</time></trkpt><trkpt lat="40.7557867" lon="8.15878"><ele>8.25</ele><time>2026-04-16T09:17:22.838Z</time></trkpt><trkpt lat="40.755675" lon="8.1586783"><ele>7.0</ele><time>2026-04-16T09:17:23.836Z</time></trkpt><trkpt lat="40.75556" lon="8.1585733"><ele>7.0</ele><time>2026-04-16T09:17:24.837Z</time></trkpt><trkpt lat="40.7554417" lon="8.1584733"><ele>7.0</ele><time>2026-04-16T09:17:25.836Z</time></trkpt><trkpt lat="40.75533" lon="8.1583783"><ele>7.0</ele><time>2026-04-16T09:17:26.837Z</time></trkpt><trkpt lat="40.7552217" lon="8.15828"><ele>7.0</ele><time>2026-04-16T09:17:27.837Z</time></trkpt><trkpt lat="40.755115" lon="8.1581883"><ele>6.75</ele><time>2026-04-16T09:17:28.836Z</time></trkpt><trkpt lat="40.7550033" lon="8.1581"><ele>6.5</ele><time>2026-04-16T09:17:29.836Z</time></trkpt><trkpt lat="40.754895" lon="8.1580083"><ele>6.25</ele><time>2026-04-16T09:17:30.837Z</time></trkpt><trkpt lat="40.7547833" lon="8.1579017"><ele>6.0</ele><time>2026-04-16T09:17:31.837Z</time></trkpt><trkpt lat="40.7546633" lon="8.1578017"><ele>6.0</ele><time>2026-04-16T09:17:32.837Z</time></trkpt><trkpt lat="40.7545467" lon="8.1577"><ele>6.0</ele><time>2026-04-16T09:17:33.837Z</time></trkpt><trkpt lat="40.7544333" lon="8.157605"><ele>6.0</ele><time>2026-04-16T09:17:34.837Z</time></trkpt><trkpt lat="40.7543233" lon="8.1575233"><ele>6.0</ele><time>2026-04-16T09:17:35.837Z</time></trkpt><trkpt lat="40.7542083" lon="8.1574533"><ele>5.8</ele><time>2026-04-16T09:17:36.837Z</time></trkpt><trkpt lat="40.7541033" lon="8.1573867"><ele>5.6</ele><time>2026-04-16T09:17:37.837Z</time></trkpt><trkpt lat="40.7540133" lon="8.1573183"><ele>5.4</ele><time>2026-04-16T09:17:38.837Z</time></trkpt><trkpt lat="40.753935" lon="8.157255"><ele>5.2</ele><time>2026-04-16T09:17:39.836Z</time></trkpt><trkpt lat="40.7538633" lon="8.1571983"><ele>5.0</ele><time>2026-04-16T09:17:40.836Z</time></trkpt><trkpt lat="40.7537983" lon="8.1571483"><ele>5.0</ele><time>2026-04-16T09:17:41.837Z</time></trkpt><trkpt lat="40.7537383" lon="8.157105"><ele>5.0</ele><time>2026-04-16T09:17:42.836Z</time></trkpt><trkpt lat="40.7536417" lon="8.1570267"><ele>5.0</ele><time>2026-04-16T09:17:44.837Z</time></trkpt><trkpt lat="40.753575" lon="8.1569833"><ele>5.0</ele><time>2026-04-16T09:17:46.837Z</time></trkpt><trkpt lat="40.7534783" lon="8.1569383"><ele>5.0</ele><time>2026-04-16T09:17:57.837Z</time></trkpt><trkpt lat="40.7533683" lon="8.1569167"><ele>5.571428571428571</ele><time>2026-04-16T09:17:59.836Z</time></trkpt><trkpt lat="40.7533033" lon="8.1569183"><ele>6.142857142857143</ele><time>2026-04-16T09:18:00.836Z</time></trkpt><trkpt lat="40.75324" lon="8.15692"><ele>6.714285714285715</ele><time>2026-04-16T09:18:01.837Z</time></trkpt><trkpt lat="40.7531767" lon="8.1569267"><ele>7.2857142857142865</ele><time>2026-04-16T09:18:02.837Z</time></trkpt><trkpt lat="40.7531067" lon="8.1569317"><ele>7.857142857142858</ele><time>2026-04-16T09:18:03.836Z</time></trkpt><trkpt lat="40.7530267" lon="8.1569283"><ele>8.428571428571429</ele><time>2026-04-16T09:18:04.837Z</time></trkpt><trkpt lat="40.7529433" lon="8.1569183"><ele>9.0</ele><time>2026-04-16T09:18:05.837Z</time></trkpt><trkpt lat="40.7528517" lon="8.1569033"><ele>9.0</ele><time>2026-04-16T09:18:06.836Z</time></trkpt><trkpt lat="40.7527583" lon="8.15688"><ele>9.0</ele><time>2026-04-16T09:18:07.837Z</time></trkpt><trkpt lat="40.752665" lon="8.1568617"><ele>9.0</ele><time>2026-04-16T09:18:08.836Z</time></trkpt><trkpt lat="40.75256" lon="8.15686"><ele>9.0</ele><time>2026-04-16T09:18:09.836Z</time></trkpt><trkpt lat="40.752455" lon="8.1568667"><ele>9.0</ele><time>2026-04-16T09:18:10.836Z</time></trkpt><trkpt lat="40.7523417" lon="8.15688"><ele>9.0</ele><time>2026-04-16T09:18:11.837Z</time></trkpt><trkpt lat="40.75223" lon="8.1568867"><ele>9.0</ele><time>2026-04-16T09:18:12.837Z</time></trkpt><trkpt lat="40.7521283" lon="8.156885"><ele>9.0</ele><time>2026-04-16T09:18:13.837Z</time></trkpt><trkpt lat="40.75203" lon="8.156875"><ele>9.0</ele><time>2026-04-16T09:18:14.837Z</time></trkpt><trkpt lat="40.75193" lon="8.15686"><ele>9.0</ele><time>2026-04-16T09:18:15.837Z</time></trkpt><trkpt lat="40.751825" lon="8.15685"><ele>8.6</ele><time>2026-04-16T09:18:16.836Z</time></trkpt><trkpt lat="40.7517217" lon="8.1568533"><ele>8.2</ele><time>2026-04-16T09:18:17.837Z</time></trkpt><trkpt lat="40.7516217" lon="8.1568717"><ele>7.799999999999999</ele><time>2026-04-16T09:18:18.837Z</time></trkpt><trkpt lat="40.75152" lon="8.1568833"><ele>7.3999999999999995</ele><time>2026-04-16T09:18:19.837Z</time></trkpt><trkpt lat="40.7514133" lon="8.1568967"><ele>7.0</ele><time>2026-04-16T09:18:20.837Z</time></trkpt><trkpt lat="40.7513067" lon="8.1569267"><ele>7.0</ele><time>2026-04-16T09:18:21.837Z</time></trkpt><trkpt lat="40.75121" lon="8.1569617"><ele>6.999999999999999</ele><time>2026-04-16T09:18:22.837Z</time></trkpt><trkpt lat="40.751125" lon="8.156995"><ele>6.999999999999999</ele><time>2026-04-16T09:18:23.836Z</time></trkpt><trkpt lat="40.7510467" lon="8.1570567"><ele>7.0</ele><time>2026-04-16T09:18:24.836Z</time></trkpt><trkpt lat="40.7509783" lon="8.1571283"><ele>7.0</ele><time>2026-04-16T09:18:25.836Z</time></trkpt><trkpt lat="40.7509167" lon="8.15722"><ele>6.500000000000001</ele><time>2026-04-16T09:18:26.836Z</time></trkpt><trkpt lat="40.750865" lon="8.1573167"><ele>6.0</ele><time>2026-04-16T09:18:27.837Z</time></trkpt><trkpt lat="40.7508083" lon="8.15741"><ele>5.5</ele><time>2026-04-16T09:18:28.836Z</time></trkpt><trkpt lat="40.7507533" lon="8.1574933"><ele>5.0</ele><time>2026-04-16T09:18:29.836Z</time></trkpt><trkpt lat="40.7506883" lon="8.1575783"><ele>4.5</ele><time>2026-04-16T09:18:30.837Z</time></trkpt><trkpt lat="40.7506283" lon="8.157665"><ele>4.0</ele><time>2026-04-16T09:18:31.837Z</time></trkpt><trkpt lat="40.7505667" lon="8.1577483"><ele>5.666666666666666</ele><time>2026-04-16T09:18:32.837Z</time></trkpt><trkpt lat="40.7505167" lon="8.1578267"><ele>7.333333333333334</ele><time>2026-04-16T09:18:33.837Z</time></trkpt><trkpt lat="40.7504717" lon="8.1578917"><ele>9.0</ele><time>2026-04-16T09:18:34.837Z</time></trkpt><trkpt lat="40.75043" lon="8.157965"><ele>10.666666666666668</ele><time>2026-04-16T09:18:35.837Z</time></trkpt><trkpt lat="40.7503883" lon="8.15804"><ele>12.333333333333334</ele><time>2026-04-16T09:18:36.837Z</time></trkpt><trkpt lat="40.7502933" lon="8.1581133"><ele>14.0</ele><time>2026-04-16T09:18:38.837Z</time></trkpt><trkpt lat="40.750195" lon="8.158055"><ele>14.0</ele><time>2026-04-16T09:18:40.836Z</time></trkpt><trkpt lat="40.750145" lon="8.1579917"><ele>14.0</ele><time>2026-04-16T09:18:41.837Z</time></trkpt><trkpt lat="40.75009" lon="8.1579283"><ele>14.0</ele><time>2026-04-16T09:18:42.837Z</time></trkpt><trkpt lat="40.750035" lon="8.1578717"><ele>14.0</ele><time>2026-04-16T09:18:43.836Z</time></trkpt><trkpt lat="40.749975" lon="8.1578133"><ele>14.0</ele><time>2026-04-16T09:18:44.837Z</time></trkpt><trkpt lat="40.74991" lon="8.1577483"><ele>14.0</ele><time>2026-04-16T09:18:45.837Z</time></trkpt><trkpt lat="40.7498533" lon="8.1576817"><ele>14.0</ele><time>2026-04-16T09:18:46.837Z</time></trkpt><trkpt lat="40.7498067" lon="8.1576133"><ele>14.0</ele><time>2026-04-16T09:18:47.837Z</time></trkpt><trkpt lat="40.7497617" lon="8.1575517"><ele>13.999999999999998</ele><time>2026-04-16T09:18:48.836Z</time></trkpt><trkpt lat="40.749655" lon="8.1574717"><ele>13.999999999999998</ele><time>2026-04-16T09:18:50.836Z</time></trkpt><trkpt lat="40.7495517" lon="8.1574667"><ele>14.0</ele><time>2026-04-16T09:18:52.836Z</time></trkpt><trkpt lat="40.74944" lon="8.1575667"><ele>14.0</ele><time>2026-04-16T09:18:54.837Z</time></trkpt><trkpt lat="40.7493867" lon="8.1576533"><ele>12.799999999999999</ele><time>2026-04-16T09:18:55.836Z</time></trkpt><trkpt lat="40.7493317" lon="8.1577483"><ele>11.599999999999998</ele><time>2026-04-16T09:18:56.837Z</time></trkpt><trkpt lat="40.74928" lon="8.1578517"><ele>10.4</ele><time>2026-04-16T09:18:57.837Z</time></trkpt><trkpt lat="40.749225" lon="8.157965"><ele>9.2</ele><time>2026-04-16T09:18:58.837Z</time></trkpt><trkpt lat="40.749175" lon="8.1580767"><ele>8.0</ele><time>2026-04-16T09:18:59.836Z</time></trkpt><trkpt lat="40.7491233" lon="8.15819"><ele>9.4</ele><time>2026-04-16T09:19:00.837Z</time></trkpt><trkpt lat="40.7490717" lon="8.1583033"><ele>10.8</ele><time>2026-04-16T09:19:01.837Z</time></trkpt><trkpt lat="40.749015" lon="8.1584167"><ele>12.2</ele><time>2026-04-16T09:19:02.836Z</time></trkpt><trkpt lat="40.748955" lon="8.1585267"><ele>13.6</ele><time>2026-04-16T09:19:03.837Z</time></trkpt><trkpt lat="40.7488933" lon="8.15864"><ele>15.0</ele><time>2026-04-16T09:19:04.837Z</time></trkpt><trkpt lat="40.7488233" lon="8.1587567"><ele>15.0</ele><time>2026-04-16T09:19:05.837Z</time></trkpt><trkpt lat="40.7487583" lon="8.1588417"><ele>15.0</ele><time>2026-04-16T09:19:06.837Z</time></trkpt><trkpt lat="40.7486917" lon="8.1589083"><ele>15.0</ele><time>2026-04-16T09:19:07.836Z</time></trkpt><trkpt lat="40.7486267" lon="8.1589583"><ele>15.0</ele><time>2026-04-16T09:19:08.837Z</time></trkpt><trkpt lat="40.7485417" lon="8.1589817"><ele>15.0</ele><time>2026-04-16T09:19:09.836Z</time></trkpt><trkpt lat="40.748465" lon="8.158995"><ele>15.0</ele><time>2026-04-16T09:19:10.836Z</time></trkpt><trkpt lat="40.7483817" lon="8.1590267"><ele>13.2</ele><time>2026-04-16T09:19:11.837Z</time></trkpt><trkpt lat="40.7483" lon="8.1590767"><ele>11.4</ele><time>2026-04-16T09:19:12.837Z</time></trkpt><trkpt lat="40.748215" lon="8.15915"><ele>9.6</ele><time>2026-04-16T09:19:13.837Z</time></trkpt><trkpt lat="40.7481367" lon="8.1592283"><ele>7.8</ele><time>2026-04-16T09:19:14.837Z</time></trkpt><trkpt lat="40.7480617" lon="8.1593117"><ele>6.0</ele><time>2026-04-16T09:19:15.836Z</time></trkpt><trkpt lat="40.74799" lon="8.1593833"><ele>6.0</ele><time>2026-04-16T09:19:16.837Z</time></trkpt><trkpt lat="40.747925" lon="8.1594533"><ele>6.0</ele><time>2026-04-16T09:19:17.836Z</time></trkpt><trkpt lat="40.74787" lon="8.1595033"><ele>6.0</ele><time>2026-04-16T09:19:18.836Z</time></trkpt><trkpt lat="40.7478083" lon="8.1595667"><ele>6.0</ele><time>2026-04-16T09:19:20.837Z</time></trkpt><trkpt lat="40.747715" lon="8.1596433"><ele>6.0</ele><time>2026-04-16T09:19:33.837Z</time></trkpt><trkpt lat="40.7476633" lon="8.15971"><ele>6.0</ele><time>2026-04-16T09:19:34.836Z</time></trkpt><trkpt lat="40.7476083" lon="8.159795"><ele>6.6</ele><time>2026-04-16T09:19:35.836Z</time></trkpt><trkpt lat="40.7475533" lon="8.1599"><ele>7.199999999999999</ele><time>2026-04-16T09:19:36.837Z</time></trkpt><trkpt lat="40.747485" lon="8.1600117"><ele>7.800000000000001</ele><time>2026-04-16T09:19:37.837Z</time></trkpt><trkpt lat="40.7474133" lon="8.16013"><ele>8.4</ele><time>2026-04-16T09:19:38.837Z</time></trkpt><trkpt lat="40.747345" lon="8.1602533"><ele>9.0</ele><time>2026-04-16T09:19:39.837Z</time></trkpt><trkpt lat="40.7472767" lon="8.1603867"><ele>9.0</ele><time>2026-04-16T09:19:40.837Z</time></trkpt><trkpt lat="40.7472033" lon="8.1605283"><ele>9.0</ele><time>2026-04-16T09:19:41.836Z</time></trkpt><trkpt lat="40.74715" lon="8.16068"><ele>9.0</ele><time>2026-04-16T09:19:42.837Z</time></trkpt><trkpt lat="40.7471083" lon="8.1608433"><ele>9.0</ele><time>2026-04-16T09:19:43.836Z</time></trkpt><trkpt lat="40.74708" lon="8.1610183"><ele>8.75</ele><time>2026-04-16T09:19:44.837Z</time></trkpt><trkpt lat="40.7470683" lon="8.1611967"><ele>8.5</ele><time>2026-04-16T09:19:45.837Z</time></trkpt><trkpt lat="40.747075" lon="8.16138"><ele>8.25</ele><time>2026-04-16T09:19:46.837Z</time></trkpt><trkpt lat="40.7471" lon="8.1615567"><ele>8.0</ele><time>2026-04-16T09:19:47.837Z</time></trkpt><trkpt lat="40.7471467" lon="8.1617333"><ele>9.0</ele><time>2026-04-16T09:19:48.836Z</time></trkpt><trkpt lat="40.7472033" lon="8.1619167"><ele>10.0</ele><time>2026-04-16T09:19:49.836Z</time></trkpt><trkpt lat="40.74726" lon="8.162095"><ele>11.0</ele><time>2026-04-16T09:19:50.837Z</time></trkpt><trkpt lat="40.7473117" lon="8.1622867"><ele>12.5</ele><time>2026-04-16T09:19:51.837Z</time></trkpt><trkpt lat="40.74736" lon="8.162475"><ele>14.0</ele><time>2026-04-16T09:19:52.837Z</time></trkpt><trkpt lat="40.7474083" lon="8.1626633"><ele>15.5</ele><time>2026-04-16T09:19:53.837Z</time></trkpt><trkpt lat="40.7474583" lon="8.1628467"><ele>17.0</ele><time>2026-04-16T09:19:54.837Z</time></trkpt><trkpt lat="40.7475033" lon="8.1630283"><ele>18.0</ele><time>2026-04-16T09:19:55.837Z</time></trkpt><trkpt lat="40.74754" lon="8.1632133"><ele>19.0</ele><time>2026-04-16T09:19:56.836Z</time></trkpt><trkpt lat="40.747555" lon="8.1634117"><ele>20.0</ele><time>2026-04-16T09:19:57.837Z</time></trkpt><trkpt lat="40.74756" lon="8.1636183"><ele>20.0</ele><time>2026-04-16T09:19:58.837Z</time></trkpt><trkpt lat="40.7475683" lon="8.16382"><ele>20.0</ele><time>2026-04-16T09:19:59.837Z</time></trkpt><trkpt lat="40.7475683" lon="8.1640283"><ele>20.0</ele><time>2026-04-16T09:20:00.837Z</time></trkpt><trkpt lat="40.74757" lon="8.16424"><ele>20.333333333333336</ele><time>2026-04-16T09:20:01.836Z</time></trkpt><trkpt lat="40.747565" lon="8.1644583"><ele>20.666666666666668</ele><time>2026-04-16T09:20:02.835Z</time></trkpt><trkpt lat="40.7475567" lon="8.1646767"><ele>21.0</ele><time>2026-04-16T09:20:03.836Z</time></trkpt><trkpt lat="40.747545" lon="8.1649033"><ele>21.666666666666668</ele><time>2026-04-16T09:20:04.835Z</time></trkpt><trkpt lat="40.747535" lon="8.16513"><ele>22.333333333333336</ele><time>2026-04-16T09:20:05.836Z</time></trkpt><trkpt lat="40.747525" lon="8.16536"><ele>23.0</ele><time>2026-04-16T09:20:06.836Z</time></trkpt><trkpt lat="40.747505" lon="8.1655883"><ele>23.0</ele><time>2026-04-16T09:20:07.836Z</time></trkpt><trkpt lat="40.7474833" lon="8.1658183"><ele>23.0</ele><time>2026-04-16T09:20:08.836Z</time></trkpt><trkpt lat="40.7474567" lon="8.1660567"><ele>23.0</ele><time>2026-04-16T09:20:09.835Z</time></trkpt><trkpt lat="40.7474267" lon="8.1662933"><ele>23.333333333333336</ele><time>2026-04-16T09:20:10.836Z</time></trkpt><trkpt lat="40.7473883" lon="8.1665283"><ele>23.666666666666668</ele><time>2026-04-16T09:20:11.836Z</time></trkpt><trkpt lat="40.7473467" lon="8.1667617"><ele>24.0</ele><time>2026-04-16T09:20:12.835Z</time></trkpt><trkpt lat="40.7473067" lon="8.1669917"><ele>24.0</ele><time>2026-04-16T09:20:13.836Z</time></trkpt><trkpt lat="40.747265" lon="8.1672017"><ele>24.0</ele><time>2026-04-16T09:20:14.836Z</time></trkpt><trkpt lat="40.7472283" lon="8.167385"><ele>24.0</ele><time>2026-04-16T09:20:15.836Z</time></trkpt><trkpt lat="40.7471983" lon="8.16754"><ele>24.0</ele><time>2026-04-16T09:20:16.836Z</time></trkpt><trkpt lat="40.747195" lon="8.1676717"><ele>24.5</ele><time>2026-04-16T09:20:17.836Z</time></trkpt><trkpt lat="40.7472217" lon="8.1677817"><ele>25.0</ele><time>2026-04-16T09:20:18.835Z</time></trkpt><trkpt lat="40.7472783" lon="8.16786"><ele>25.5</ele><time>2026-04-16T09:20:19.836Z</time></trkpt><trkpt lat="40.7473533" lon="8.1678983"><ele>26.0</ele><time>2026-04-16T09:20:20.835Z</time></trkpt><trkpt lat="40.7474383" lon="8.1678817"><ele>26.5</ele><time>2026-04-16T09:20:21.836Z</time></trkpt><trkpt lat="40.7475133" lon="8.1678033"><ele>27.0</ele><time>2026-04-16T09:20:22.836Z</time></trkpt><trkpt lat="40.7475683" lon="8.1676617"><ele>27.0</ele><time>2026-04-16T09:20:23.836Z</time></trkpt><trkpt lat="40.7476" lon="8.1675"><ele>27.0</ele><time>2026-04-16T09:20:24.835Z</time></trkpt><trkpt lat="40.7476233" lon="8.167335"><ele>27.0</ele><time>2026-04-16T09:20:25.836Z</time></trkpt><trkpt lat="40.7476667" lon="8.167185"><ele>27.0</ele><time>2026-04-16T09:20:26.836Z</time></trkpt><trkpt lat="40.7477383" lon="8.1670533"><ele>29.0</ele><time>2026-04-16T09:20:27.836Z</time></trkpt><trkpt lat="40.7478317" lon="8.166935"><ele>31.0</ele><time>2026-04-16T09:20:28.836Z</time></trkpt><trkpt lat="40.7479267" lon="8.1668167"><ele>33.0</ele><time>2026-04-16T09:20:29.836Z</time></trkpt><trkpt lat="40.7480117" lon="8.166675"><ele>35.0</ele><time>2026-04-16T09:20:30.835Z</time></trkpt><trkpt lat="40.7480683" lon="8.1665167"><ele>35.0</ele><time>2026-04-16T09:20:31.835Z</time></trkpt><trkpt lat="40.7481033" lon="8.1663433"><ele>35.0</ele><time>2026-04-16T09:20:32.836Z</time></trkpt><trkpt lat="40.748135" lon="8.16616"><ele>35.0</ele><time>2026-04-16T09:20:33.835Z</time></trkpt><trkpt lat="40.7481667" lon="8.1659883"><ele>35.0</ele><time>2026-04-16T09:20:34.835Z</time></trkpt><trkpt lat="40.74821" lon="8.16582"><ele>32.0</ele><time>2026-04-16T09:20:35.835Z</time></trkpt><trkpt lat="40.74826" lon="8.1656583"><ele>29.0</ele><time>2026-04-16T09:20:36.836Z</time></trkpt><trkpt lat="40.748315" lon="8.1655217"><ele>26.0</ele><time>2026-04-16T09:20:37.836Z</time></trkpt><trkpt lat="40.7483967" lon="8.165405"><ele>23.0</ele><time>2026-04-16T09:20:38.836Z</time></trkpt><trkpt lat="40.7485" lon="8.1653283"><ele>23.0</ele><time>2026-04-16T09:20:39.835Z</time></trkpt><trkpt lat="40.748615" lon="8.1653067"><ele>23.0</ele><time>2026-04-16T09:20:40.836Z</time></trkpt><trkpt lat="40.7487317" lon="8.1653483"><ele>23.0</ele><time>2026-04-16T09:20:41.835Z</time></trkpt><trkpt lat="40.748835" lon="8.165435"><ele>23.0</ele><time>2026-04-16T09:20:42.836Z</time></trkpt><trkpt lat="40.748925" lon="8.1655483"><ele>23.0</ele><time>2026-04-16T09:20:43.835Z</time></trkpt><trkpt lat="40.748995" lon="8.1656883"><ele>23.0</ele><time>2026-04-16T09:20:44.836Z</time></trkpt><trkpt lat="40.7490483" lon="8.16585"><ele>23.0</ele><time>2026-04-16T09:20:45.836Z</time></trkpt><trkpt lat="40.7490767" lon="8.1660333"><ele>23.0</ele><time>2026-04-16T09:20:46.836Z</time></trkpt><trkpt lat="40.74908" lon="8.16622"><ele>25.5</ele><time>2026-04-16T09:20:47.835Z</time></trkpt><trkpt lat="40.749065" lon="8.1664067"><ele>28.0</ele><time>2026-04-16T09:20:48.835Z</time></trkpt><trkpt lat="40.7490133" lon="8.1665867"><ele>30.5</ele><time>2026-04-16T09:20:49.835Z</time></trkpt><trkpt lat="40.7489433" lon="8.1667617"><ele>33.0</ele><time>2026-04-16T09:20:50.836Z</time></trkpt><trkpt lat="40.74887" lon="8.1669383"><ele>33.666666666666664</ele><time>2026-04-16T09:20:51.836Z</time></trkpt><trkpt lat="40.7487817" lon="8.16712"><ele>34.33333333333333</ele><time>2026-04-16T09:20:52.836Z</time></trkpt><trkpt lat="40.74869" lon="8.1673033"><ele>35.0</ele><time>2026-04-16T09:20:53.835Z</time></trkpt><trkpt lat="40.7486083" lon="8.167495"><ele>38.0</ele><time>2026-04-16T09:20:54.836Z</time></trkpt><trkpt lat="40.74852" lon="8.1676767"><ele>41.0</ele><time>2026-04-16T09:20:55.836Z</time></trkpt><trkpt lat="40.748435" lon="8.167865"><ele>44.0</ele><time>2026-04-16T09:20:56.836Z</time></trkpt><trkpt lat="40.7483517" lon="8.1680467"><ele>46.666666666666664</ele><time>2026-04-16T09:20:57.836Z</time></trkpt><trkpt lat="40.7482783" lon="8.16823"><ele>49.33333333333333</ele><time>2026-04-16T09:20:58.835Z</time></trkpt><trkpt lat="40.74823" lon="8.168415"><ele>52.0</ele><time>2026-04-16T09:20:59.835Z</time></trkpt><trkpt lat="40.7482017" lon="8.1686067"><ele>52.0</ele><time>2026-04-16T09:21:00.836Z</time></trkpt><trkpt lat="40.74819" lon="8.1688017"><ele>52.0</ele><time>2026-04-16T09:21:01.835Z</time></trkpt><trkpt lat="40.7481783" lon="8.1690033"><ele>52.0</ele><time>2026-04-16T09:21:02.835Z</time></trkpt><trkpt lat="40.7481667" lon="8.16921"><ele>53.33333333333333</ele><time>2026-04-16T09:21:03.835Z</time></trkpt><trkpt lat="40.748155" lon="8.16942"><ele>54.66666666666667</ele><time>2026-04-16T09:21:04.835Z</time></trkpt><trkpt lat="40.7481367" lon="8.1696367"><ele>56.0</ele><time>2026-04-16T09:21:05.836Z</time></trkpt><trkpt lat="40.74812" lon="8.16985"><ele>57.66666666666667</ele><time>2026-04-16T09:21:06.835Z</time></trkpt><trkpt lat="40.7481017" lon="8.1700683"><ele>59.33333333333333</ele><time>2026-04-16T09:21:07.835Z</time></trkpt><trkpt lat="40.7480767" lon="8.1703017"><ele>61.0</ele><time>2026-04-16T09:21:08.835Z</time></trkpt><trkpt lat="40.7480633" lon="8.1705233"><ele>61.0</ele><time>2026-04-16T09:21:09.835Z</time></trkpt><trkpt lat="40.7480533" lon="8.170745"><ele>61.0</ele><time>2026-04-16T09:21:10.836Z</time></trkpt><trkpt lat="40.7480383" lon="8.1709733"><ele>61.0</ele><time>2026-04-16T09:21:11.836Z</time></trkpt><trkpt lat="40.748025" lon="8.1712033"><ele>61.0</ele><time>2026-04-16T09:21:12.836Z</time></trkpt><trkpt lat="40.7480133" lon="8.1714367"><ele>61.0</ele><time>2026-04-16T09:21:13.835Z</time></trkpt><trkpt lat="40.7480033" lon="8.1716683"><ele>61.0</ele><time>2026-04-16T09:21:14.836Z</time></trkpt><trkpt lat="40.748" lon="8.1719033"><ele>63.0</ele><time>2026-04-16T09:21:15.836Z</time></trkpt><trkpt lat="40.7479967" lon="8.1721433"><ele>65.0</ele><time>2026-04-16T09:21:16.836Z</time></trkpt><trkpt lat="40.7479917" lon="8.1723817"><ele>67.0</ele><time>2026-04-16T09:21:17.835Z</time></trkpt><trkpt lat="40.74799" lon="8.1726183"><ele>68.0</ele><time>2026-04-16T09:21:18.835Z</time></trkpt><trkpt lat="40.7479883" lon="8.1728417"><ele>69.0</ele><time>2026-04-16T09:21:19.835Z</time></trkpt><trkpt lat="40.7479983" lon="8.1730433"><ele>70.0</ele><time>2026-04-16T09:21:20.836Z</time></trkpt><trkpt lat="40.7480283" lon="8.17324"><ele>71.5</ele><time>2026-04-16T09:21:21.835Z</time></trkpt><trkpt lat="40.7480917" lon="8.1734183"><ele>73.0</ele><time>2026-04-16T09:21:22.836Z</time></trkpt><trkpt lat="40.7481617" lon="8.17357"><ele>74.5</ele><time>2026-04-16T09:21:23.836Z</time></trkpt><trkpt lat="40.74822" lon="8.1737033"><ele>76.0</ele><time>2026-04-16T09:21:24.836Z</time></trkpt><trkpt lat="40.7482517" lon="8.1738483"><ele>76.0</ele><time>2026-04-16T09:21:25.836Z</time></trkpt><trkpt lat="40.74824" lon="8.1740117"><ele>76.0</ele><time>2026-04-16T09:21:26.836Z</time></trkpt><trkpt lat="40.7481967" lon="8.1741817"><ele>76.0</ele><time>2026-04-16T09:21:27.835Z</time></trkpt><trkpt lat="40.7481383" lon="8.1743483"><ele>76.0</ele><time>2026-04-16T09:21:28.836Z</time></trkpt><trkpt lat="40.7480767" lon="8.1745217"><ele>78.66666666666666</ele><time>2026-04-16T09:21:29.836Z</time></trkpt><trkpt lat="40.7480167" lon="8.1746983"><ele>81.33333333333333</ele><time>2026-04-16T09:21:30.835Z</time></trkpt><trkpt lat="40.7479517" lon="8.1748883"><ele>84.0</ele><time>2026-04-16T09:21:31.835Z</time></trkpt><trkpt lat="40.7478967" lon="8.1750833"><ele>84.0</ele><time>2026-04-16T09:21:32.835Z</time></trkpt><trkpt lat="40.7478533" lon="8.1752833"><ele>84.0</ele><time>2026-04-16T09:21:33.836Z</time></trkpt><trkpt lat="40.7478217" lon="8.1754867"><ele>84.0</ele><time>2026-04-16T09:21:34.836Z</time></trkpt><trkpt lat="40.7478067" lon="8.1756967"><ele>86.66666666666667</ele><time>2026-04-16T09:21:35.835Z</time></trkpt><trkpt lat="40.7477967" lon="8.1759083"><ele>89.33333333333334</ele><time>2026-04-16T09:21:36.836Z</time></trkpt><trkpt lat="40.7477883" lon="8.17612"><ele>92.0</ele><time>2026-04-16T09:21:37.835Z</time></trkpt><trkpt lat="40.7477767" lon="8.1763217"><ele>92.0</ele><time>2026-04-16T09:21:38.835Z</time></trkpt><trkpt lat="40.7477783" lon="8.1765067"><ele>92.0</ele><time>2026-04-16T09:21:39.835Z</time></trkpt><trkpt lat="40.7478017" lon="8.1766867"><ele>92.0</ele><time>2026-04-16T09:21:40.836Z</time></trkpt><trkpt lat="40.7478483" lon="8.1768517"><ele>92.0</ele><time>2026-04-16T09:21:41.836Z</time></trkpt><trkpt lat="40.747915" lon="8.17701"><ele>93.5</ele><time>2026-04-16T09:21:42.836Z</time></trkpt><trkpt lat="40.7479817" lon="8.17718"><ele>95.0</ele><time>2026-04-16T09:21:43.836Z</time></trkpt><trkpt lat="40.7480483" lon="8.17735"><ele>96.5</ele><time>2026-04-16T09:21:44.835Z</time></trkpt><trkpt lat="40.7481133" lon="8.1775333"><ele>98.0</ele><time>2026-04-16T09:21:45.835Z</time></trkpt><trkpt lat="40.7481833" lon="8.1777267"><ele>98.0</ele><time>2026-04-16T09:21:46.835Z</time></trkpt><trkpt lat="40.7482717" lon="8.1779167"><ele>98.0</ele><time>2026-04-16T09:21:47.835Z</time></trkpt><trkpt lat="40.7483567" lon="8.178095"><ele>98.0</ele><time>2026-04-16T09:21:48.836Z</time></trkpt><trkpt lat="40.7484367" lon="8.1782767"><ele>101.33333333333333</ele><time>2026-04-16T09:21:49.836Z</time></trkpt><trkpt lat="40.7485033" lon="8.1784633"><ele>104.66666666666666</ele><time>2026-04-16T09:21:50.836Z</time></trkpt><trkpt lat="40.7485333" lon="8.1786567"><ele>108.0</ele><time>2026-04-16T09:21:51.835Z</time></trkpt><trkpt lat="40.7485233" lon="8.17886"><ele>109.0</ele><time>2026-04-16T09:21:52.835Z</time></trkpt><trkpt lat="40.748485" lon="8.179065"><ele>110.0</ele><time>2026-04-16T09:21:53.835Z</time></trkpt><trkpt lat="40.7484333" lon="8.179255"><ele>111.0</ele><time>2026-04-16T09:21:54.835Z</time></trkpt><trkpt lat="40.7483533" lon="8.17944"><ele>111.0</ele><time>2026-04-16T09:21:55.835Z</time></trkpt><trkpt lat="40.7482683" lon="8.1796183"><ele>111.0</ele><time>2026-04-16T09:21:56.836Z</time></trkpt><trkpt lat="40.7481917" lon="8.1797967"><ele>111.0</ele><time>2026-04-16T09:21:57.835Z</time></trkpt><trkpt lat="40.7481267" lon="8.1799767"><ele>110.5</ele><time>2026-04-16T09:21:58.836Z</time></trkpt><trkpt lat="40.748075" lon="8.180155"><ele>110.0</ele><time>2026-04-16T09:21:59.835Z</time></trkpt><trkpt lat="40.7480567" lon="8.180325"><ele>109.5</ele><time>2026-04-16T09:22:00.836Z</time></trkpt><trkpt lat="40.7480617" lon="8.1805083"><ele>109.0</ele><time>2026-04-16T09:22:01.835Z</time></trkpt><trkpt lat="40.7480683" lon="8.1806867"><ele>109.0</ele><time>2026-04-16T09:22:02.835Z</time></trkpt><trkpt lat="40.7480733" lon="8.1808683"><ele>109.0</ele><time>2026-04-16T09:22:03.835Z</time></trkpt><trkpt lat="40.748075" lon="8.18104"><ele>109.0</ele><time>2026-04-16T09:22:04.836Z</time></trkpt><trkpt lat="40.748075" lon="8.181205"><ele>109.0</ele><time>2026-04-16T09:22:05.836Z</time></trkpt><trkpt lat="40.748075" lon="8.181375"><ele>111.0</ele><time>2026-04-16T09:22:06.835Z</time></trkpt><trkpt lat="40.7480767" lon="8.1815517"><ele>113.0</ele><time>2026-04-16T09:22:07.836Z</time></trkpt><trkpt lat="40.74809" lon="8.1817267"><ele>115.0</ele><time>2026-04-16T09:22:08.836Z</time></trkpt><trkpt lat="40.74812" lon="8.1819033"><ele>117.0</ele><time>2026-04-16T09:22:09.836Z</time></trkpt><trkpt lat="40.748175" lon="8.1820717"><ele>117.0</ele><time>2026-04-16T09:22:10.836Z</time></trkpt><trkpt lat="40.748255" lon="8.1822267"><ele>117.0</ele><time>2026-04-16T09:22:11.836Z</time></trkpt><trkpt lat="40.74834" lon="8.1823717"><ele>117.0</ele><time>2026-04-16T09:22:12.836Z</time></trkpt><trkpt lat="40.7484317" lon="8.1825167"><ele>117.0</ele><time>2026-04-16T09:22:13.835Z</time></trkpt><trkpt lat="40.74852" lon="8.18266"><ele>117.25</ele><time>2026-04-16T09:22:14.836Z</time></trkpt><trkpt lat="40.7485983" lon="8.1828"><ele>117.5</ele><time>2026-04-16T09:22:15.836Z</time></trkpt><trkpt lat="40.748655" lon="8.18296"><ele>117.75</ele><time>2026-04-16T09:22:16.836Z</time></trkpt><trkpt lat="40.7486917" lon="8.1831317"><ele>118.0</ele><time>2026-04-16T09:22:17.836Z</time></trkpt><trkpt lat="40.7487133" lon="8.1833083"><ele>120.0</ele><time>2026-04-16T09:22:18.835Z</time></trkpt><trkpt lat="40.748745" lon="8.1834733"><ele>122.0</ele><time>2026-04-16T09:22:19.836Z</time></trkpt><trkpt lat="40.7488033" lon="8.183605"><ele>124.0</ele><time>2026-04-16T09:22:20.836Z</time></trkpt><trkpt lat="40.7488883" lon="8.1836933"><ele>126.0</ele><time>2026-04-16T09:22:21.836Z</time></trkpt><trkpt lat="40.7489983" lon="8.183735"><ele>126.0</ele><time>2026-04-16T09:22:22.836Z</time></trkpt><trkpt lat="40.749115" lon="8.1837567"><ele>126.0</ele><time>2026-04-16T09:22:23.836Z</time></trkpt><trkpt lat="40.7492283" lon="8.18381"><ele>126.0</ele><time>2026-04-16T09:22:24.836Z</time></trkpt><trkpt lat="40.7493233" lon="8.1838983"><ele>126.0</ele><time>2026-04-16T09:22:25.836Z</time></trkpt><trkpt lat="40.74938" lon="8.1840183"><ele>127.19999999999999</ele><time>2026-04-16T09:22:26.836Z</time></trkpt><trkpt lat="40.749395" lon="8.184155"><ele>128.39999999999998</ele><time>2026-04-16T09:22:27.836Z</time></trkpt><trkpt lat="40.749375" lon="8.184295"><ele>129.6</ele><time>2026-04-16T09:22:28.836Z</time></trkpt><trkpt lat="40.74933" lon="8.1844317"><ele>130.79999999999998</ele><time>2026-04-16T09:22:29.836Z</time></trkpt><trkpt lat="40.749265" lon="8.1845583"><ele>132.0</ele><time>2026-04-16T09:22:30.836Z</time></trkpt><trkpt lat="40.749195" lon="8.184695"><ele>133.0</ele><time>2026-04-16T09:22:31.835Z</time></trkpt><trkpt lat="40.7491167" lon="8.18482"><ele>134.0</ele><time>2026-04-16T09:22:32.835Z</time></trkpt><trkpt lat="40.7490467" lon="8.184955"><ele>135.0</ele><time>2026-04-16T09:22:33.835Z</time></trkpt><trkpt lat="40.748985" lon="8.1851117"><ele>136.0</ele><time>2026-04-16T09:22:34.836Z</time></trkpt><trkpt lat="40.7489233" lon="8.1852733"><ele>136.0</ele><time>2026-04-16T09:22:35.836Z</time></trkpt><trkpt lat="40.7488617" lon="8.185455"><ele>136.0</ele><time>2026-04-16T09:22:36.835Z</time></trkpt><trkpt lat="40.7487933" lon="8.1856217"><ele>136.0</ele><time>2026-04-16T09:22:37.836Z</time></trkpt><trkpt lat="40.7487417" lon="8.18579"><ele>136.0</ele><time>2026-04-16T09:22:38.835Z</time></trkpt><trkpt lat="40.7486783" lon="8.1859633"><ele>136.0</ele><time>2026-04-16T09:22:39.835Z</time></trkpt><trkpt lat="40.7486183" lon="8.1861417"><ele>136.0</ele><time>2026-04-16T09:22:40.836Z</time></trkpt><trkpt lat="40.74857" lon="8.1863083"><ele>136.0</ele><time>2026-04-16T09:22:41.836Z</time></trkpt><trkpt lat="40.7485483" lon="8.1864767"><ele>136.0</ele><time>2026-04-16T09:22:42.835Z</time></trkpt><trkpt lat="40.74853" lon="8.18665"><ele>136.0</ele><time>2026-04-16T09:22:43.835Z</time></trkpt><trkpt lat="40.748525" lon="8.18682"><ele>136.0</ele><time>2026-04-16T09:22:44.835Z</time></trkpt><trkpt lat="40.74851" lon="8.1869967"><ele>136.0</ele><time>2026-04-16T09:22:45.834Z</time></trkpt><trkpt lat="40.748495" lon="8.1871717"><ele>136.0</ele><time>2026-04-16T09:22:46.835Z</time></trkpt><trkpt lat="40.748475" lon="8.1873467"><ele>135.5</ele><time>2026-04-16T09:22:47.834Z</time></trkpt><trkpt lat="40.748455" lon="8.1875217"><ele>135.0</ele><time>2026-04-16T09:22:48.835Z</time></trkpt><trkpt lat="40.7484267" lon="8.1876933"><ele>134.5</ele><time>2026-04-16T09:22:49.834Z</time></trkpt><trkpt lat="40.7484" lon="8.1878683"><ele>134.0</ele><time>2026-04-16T09:22:50.835Z</time></trkpt><trkpt lat="40.7483817" lon="8.1880467"><ele>134.0</ele><time>2026-04-16T09:22:51.834Z</time></trkpt><trkpt lat="40.7483583" lon="8.18821"><ele>134.0</ele><time>2026-04-16T09:22:52.834Z</time></trkpt><trkpt lat="40.7483317" lon="8.1883667"><ele>134.0</ele><time>2026-04-16T09:22:53.835Z</time></trkpt><trkpt lat="40.7483083" lon="8.1885267"><ele>134.0</ele><time>2026-04-16T09:22:54.834Z</time></trkpt><trkpt lat="40.7482817" lon="8.18868"><ele>134.0</ele><time>2026-04-16T09:22:55.835Z</time></trkpt><trkpt lat="40.74825" lon="8.1888133"><ele>134.0</ele><time>2026-04-16T09:22:56.835Z</time></trkpt><trkpt lat="40.7482217" lon="8.188935"><ele>134.0</ele><time>2026-04-16T09:22:57.835Z</time></trkpt><trkpt lat="40.74819" lon="8.1890517"><ele>134.0</ele><time>2026-04-16T09:22:58.835Z</time></trkpt><trkpt lat="40.7481483" lon="8.1891783"><ele>134.0</ele><time>2026-04-16T09:22:59.835Z</time></trkpt><trkpt lat="40.7480883" lon="8.1892983"><ele>134.75</ele><time>2026-04-16T09:23:00.834Z</time></trkpt><trkpt lat="40.7480183" lon="8.1894167"><ele>135.5</ele><time>2026-04-16T09:23:01.834Z</time></trkpt><trkpt lat="40.74793" lon="8.189535"><ele>136.25</ele><time>2026-04-16T09:23:02.835Z</time></trkpt><trkpt lat="40.7478333" lon="8.1896533"><ele>137.0</ele><time>2026-04-16T09:23:03.835Z</time></trkpt><trkpt lat="40.7477283" lon="8.1897683"><ele>138.0</ele><time>2026-04-16T09:23:04.835Z</time></trkpt><trkpt lat="40.74762" lon="8.1898867"><ele>139.0</ele><time>2026-04-16T09:23:05.835Z</time></trkpt><trkpt lat="40.74751" lon="8.190005"><ele>140.0</ele><time>2026-04-16T09:23:06.835Z</time></trkpt><trkpt lat="40.7474033" lon="8.1901233"><ele>141.0</ele><time>2026-04-16T09:23:07.835Z</time></trkpt><trkpt lat="40.747295" lon="8.1902483"><ele>141.0</ele><time>2026-04-16T09:23:08.835Z</time></trkpt><trkpt lat="40.747185" lon="8.19036"><ele>141.0</ele><time>2026-04-16T09:23:09.834Z</time></trkpt><trkpt lat="40.74708" lon="8.1904783"><ele>141.0</ele><time>2026-04-16T09:23:10.834Z</time></trkpt><trkpt lat="40.7469767" lon="8.1905883"><ele>141.0</ele><time>2026-04-16T09:23:11.834Z</time></trkpt><trkpt lat="40.7468733" lon="8.1906933"><ele>142.25</ele><time>2026-04-16T09:23:12.835Z</time></trkpt><trkpt lat="40.7467733" lon="8.1907983"><ele>143.5</ele><time>2026-04-16T09:23:13.835Z</time></trkpt><trkpt lat="40.746675" lon="8.1909017"><ele>144.75</ele><time>2026-04-16T09:23:14.835Z</time></trkpt><trkpt lat="40.7465833" lon="8.1910083"><ele>146.0</ele><time>2026-04-16T09:23:15.835Z</time></trkpt><trkpt lat="40.7464933" lon="8.1911217"><ele>146.0</ele><time>2026-04-16T09:23:16.835Z</time></trkpt><trkpt lat="40.7463883" lon="8.1912233"><ele>146.0</ele><time>2026-04-16T09:23:17.835Z</time></trkpt><trkpt lat="40.7462817" lon="8.1913317"><ele>146.0</ele><time>2026-04-16T09:23:18.834Z</time></trkpt><trkpt lat="40.7461867" lon="8.1914383"><ele>146.0</ele><time>2026-04-16T09:23:19.834Z</time></trkpt><trkpt lat="40.7460867" lon="8.19155"><ele>145.5</ele><time>2026-04-16T09:23:20.835Z</time></trkpt><trkpt lat="40.745985" lon="8.1916617"><ele>145.0</ele><time>2026-04-16T09:23:21.834Z</time></trkpt><trkpt lat="40.7458767" lon="8.1917733"><ele>144.5</ele><time>2026-04-16T09:23:22.834Z</time></trkpt><trkpt lat="40.7457817" lon="8.1919033"><ele>144.0</ele><time>2026-04-16T09:23:23.835Z</time></trkpt><trkpt lat="40.745685" lon="8.1920383"><ele>144.0</ele><time>2026-04-16T09:23:24.835Z</time></trkpt><trkpt lat="40.7455983" lon="8.19219"><ele>144.0</ele><time>2026-04-16T09:23:25.834Z</time></trkpt><trkpt lat="40.7455117" lon="8.19235"><ele>144.0</ele><time>2026-04-16T09:23:26.834Z</time></trkpt><trkpt lat="40.7454267" lon="8.192515"><ele>144.0</ele><time>2026-04-16T09:23:27.835Z</time></trkpt><trkpt lat="40.74534" lon="8.192665"><ele>144.0</ele><time>2026-04-16T09:23:28.834Z</time></trkpt><trkpt lat="40.7452633" lon="8.192815"><ele>144.0</ele><time>2026-04-16T09:23:29.834Z</time></trkpt><trkpt lat="40.74521" lon="8.1929667"><ele>144.0</ele><time>2026-04-16T09:23:30.835Z</time></trkpt><trkpt lat="40.7451867" lon="8.1931233"><ele>144.0</ele><time>2026-04-16T09:23:31.834Z</time></trkpt><trkpt lat="40.7452033" lon="8.19328"><ele>142.5</ele><time>2026-04-16T09:23:32.834Z</time></trkpt><trkpt lat="40.7452467" lon="8.193435"><ele>141.0</ele><time>2026-04-16T09:23:33.834Z</time></trkpt><trkpt lat="40.7453" lon="8.193595"><ele>139.5</ele><time>2026-04-16T09:23:34.834Z</time></trkpt><trkpt lat="40.7453583" lon="8.19376"><ele>138.0</ele><time>2026-04-16T09:23:35.835Z</time></trkpt><trkpt lat="40.7454267" lon="8.1939367"><ele>138.0</ele><time>2026-04-16T09:23:36.835Z</time></trkpt><trkpt lat="40.7454767" lon="8.1941217"><ele>138.0</ele><time>2026-04-16T09:23:37.835Z</time></trkpt><trkpt lat="40.74549" lon="8.1943117"><ele>138.0</ele><time>2026-04-16T09:23:38.835Z</time></trkpt><trkpt lat="40.7454917" lon="8.194505"><ele>138.0</ele><time>2026-04-16T09:23:39.835Z</time></trkpt><trkpt lat="40.7454617" lon="8.194705"><ele>138.0</ele><time>2026-04-16T09:23:40.835Z</time></trkpt><trkpt lat="40.7454317" lon="8.1949167"><ele>138.0</ele><time>2026-04-16T09:23:41.835Z</time></trkpt><trkpt lat="40.7454083" lon="8.1951317"><ele>138.0</ele><time>2026-04-16T09:23:42.834Z</time></trkpt><trkpt lat="40.7453883" lon="8.1953433"><ele>138.0</ele><time>2026-04-16T09:23:43.835Z</time></trkpt><trkpt lat="40.7453733" lon="8.1955617"><ele>138.0</ele><time>2026-04-16T09:23:44.835Z</time></trkpt><trkpt lat="40.74538" lon="8.195775"><ele>138.0</ele><time>2026-04-16T09:23:45.835Z</time></trkpt><trkpt lat="40.7453917" lon="8.196"><ele>138.0</ele><time>2026-04-16T09:23:46.834Z</time></trkpt><trkpt lat="40.7454183" lon="8.19622"><ele>138.0</ele><time>2026-04-16T09:23:47.835Z</time></trkpt><trkpt lat="40.7454417" lon="8.1964317"><ele>138.0</ele><time>2026-04-16T09:23:48.835Z</time></trkpt><trkpt lat="40.7454767" lon="8.1966333"><ele>139.33333333333334</ele><time>2026-04-16T09:23:49.835Z</time></trkpt><trkpt lat="40.74553" lon="8.19685"><ele>140.66666666666669</ele><time>2026-04-16T09:23:50.835Z</time></trkpt><trkpt lat="40.7456067" lon="8.1970467"><ele>142.0</ele><time>2026-04-16T09:23:51.835Z</time></trkpt><trkpt lat="40.7456967" lon="8.1972283"><ele>143.33333333333334</ele><time>2026-04-16T09:23:52.834Z</time></trkpt><trkpt lat="40.7457833" lon="8.1974183"><ele>144.66666666666666</ele><time>2026-04-16T09:23:53.834Z</time></trkpt><trkpt lat="40.7458567" lon="8.1976133"><ele>146.0</ele><time>2026-04-16T09:23:54.835Z</time></trkpt><trkpt lat="40.74591" lon="8.1978083"><ele>146.0</ele><time>2026-04-16T09:23:55.835Z</time></trkpt><trkpt lat="40.7459517" lon="8.1980117"><ele>146.0</ele><time>2026-04-16T09:23:56.835Z</time></trkpt><trkpt lat="40.7459767" lon="8.1982233"><ele>146.0</ele><time>2026-04-16T09:23:57.834Z</time></trkpt><trkpt lat="40.745995" lon="8.1984467"><ele>146.66666666666666</ele><time>2026-04-16T09:23:58.835Z</time></trkpt><trkpt lat="40.74601" lon="8.19867"><ele>147.33333333333334</ele><time>2026-04-16T09:23:59.834Z</time></trkpt><trkpt lat="40.7460183" lon="8.1989017"><ele>148.0</ele><time>2026-04-16T09:24:00.835Z</time></trkpt><trkpt lat="40.7460133" lon="8.19914"><ele>148.0</ele><time>2026-04-16T09:24:01.835Z</time></trkpt><trkpt lat="40.7459883" lon="8.19938"><ele>148.0</ele><time>2026-04-16T09:24:02.835Z</time></trkpt><trkpt lat="40.7459617" lon="8.1996167"><ele>148.0</ele><time>2026-04-16T09:24:03.834Z</time></trkpt><trkpt lat="40.7459367" lon="8.1998517"><ele>146.33333333333334</ele><time>2026-04-16T09:24:04.834Z</time></trkpt><trkpt lat="40.7459267" lon="8.2000767"><ele>144.66666666666666</ele><time>2026-04-16T09:24:05.835Z</time></trkpt><trkpt lat="40.745945" lon="8.20029"><ele>143.0</ele><time>2026-04-16T09:24:06.835Z</time></trkpt><trkpt lat="40.7459967" lon="8.2005"><ele>140.66666666666666</ele><time>2026-04-16T09:24:07.834Z</time></trkpt><trkpt lat="40.7460767" lon="8.200695"><ele>138.33333333333334</ele><time>2026-04-16T09:24:08.834Z</time></trkpt><trkpt lat="40.7461667" lon="8.2008883"><ele>136.0</ele><time>2026-04-16T09:24:09.835Z</time></trkpt><trkpt lat="40.74626" lon="8.2010733"><ele>136.0</ele><time>2026-04-16T09:24:10.834Z</time></trkpt><trkpt lat="40.7463433" lon="8.201255"><ele>136.0</ele><time>2026-04-16T09:24:11.835Z</time></trkpt><trkpt lat="40.746415" lon="8.2014317"><ele>136.0</ele><time>2026-04-16T09:24:12.834Z</time></trkpt><trkpt lat="40.74647" lon="8.2015983"><ele>135.75</ele><time>2026-04-16T09:24:13.834Z</time></trkpt><trkpt lat="40.7465083" lon="8.201765"><ele>135.5</ele><time>2026-04-16T09:24:14.835Z</time></trkpt><trkpt lat="40.74651" lon="8.2019467"><ele>135.25</ele><time>2026-04-16T09:24:15.835Z</time></trkpt><trkpt lat="40.7464867" lon="8.202135"><ele>135.0</ele><time>2026-04-16T09:24:16.835Z</time></trkpt><trkpt lat="40.746445" lon="8.2023283"><ele>135.0</ele><time>2026-04-16T09:24:17.834Z</time></trkpt><trkpt lat="40.7463883" lon="8.20253"><ele>135.0</ele><time>2026-04-16T09:24:18.834Z</time></trkpt><trkpt lat="40.7463383" lon="8.202745"><ele>135.0</ele><time>2026-04-16T09:24:19.835Z</time></trkpt><trkpt lat="40.7462933" lon="8.2029617"><ele>136.33333333333334</ele><time>2026-04-16T09:24:20.835Z</time></trkpt><trkpt lat="40.7462417" lon="8.203175"><ele>137.66666666666669</ele><time>2026-04-16T09:24:21.835Z</time></trkpt><trkpt lat="40.7461883" lon="8.20339"><ele>139.0</ele><time>2026-04-16T09:24:22.835Z</time></trkpt><trkpt lat="40.7461383" lon="8.2036"><ele>139.0</ele><time>2026-04-16T09:24:23.834Z</time></trkpt><trkpt lat="40.746085" lon="8.2038117"><ele>139.0</ele><time>2026-04-16T09:24:24.835Z</time></trkpt><trkpt lat="40.74603" lon="8.2040333"><ele>139.0</ele><time>2026-04-16T09:24:25.834Z</time></trkpt><trkpt lat="40.7459783" lon="8.2042533"><ele>140.0</ele><time>2026-04-16T09:24:26.835Z</time></trkpt><trkpt lat="40.7459267" lon="8.2044733"><ele>141.0</ele><time>2026-04-16T09:24:27.834Z</time></trkpt><trkpt lat="40.74587" lon="8.2046817"><ele>142.0</ele><time>2026-04-16T09:24:28.835Z</time></trkpt><trkpt lat="40.745815" lon="8.2048733"><ele>142.0</ele><time>2026-04-16T09:24:29.834Z</time></trkpt><trkpt lat="40.7457367" lon="8.2050617"><ele>142.0</ele><time>2026-04-16T09:24:30.835Z</time></trkpt><trkpt lat="40.745645" lon="8.2052317"><ele>142.0</ele><time>2026-04-16T09:24:31.835Z</time></trkpt><trkpt lat="40.745555" lon="8.2053733"><ele>142.0</ele><time>2026-04-16T09:24:32.835Z</time></trkpt><trkpt lat="40.74548" lon="8.205485"><ele>142.0</ele><time>2026-04-16T09:24:33.834Z</time></trkpt><trkpt lat="40.7454233" lon="8.2055567"><ele>142.0</ele><time>2026-04-16T09:24:34.834Z</time></trkpt><trkpt lat="40.7453633" lon="8.2055883"><ele>142.0</ele><time>2026-04-16T09:24:35.835Z</time></trkpt><trkpt lat="40.7452767" lon="8.2056033"><ele>142.0</ele><time>2026-04-16T09:24:36.835Z</time></trkpt><trkpt lat="40.7451783" lon="8.2055967"><ele>142.0</ele><time>2026-04-16T09:24:37.835Z</time></trkpt><trkpt lat="40.7450633" lon="8.205605"><ele>141.5</ele><time>2026-04-16T09:24:38.834Z</time></trkpt><trkpt lat="40.7449383" lon="8.2056417"><ele>141.0</ele><time>2026-04-16T09:24:39.835Z</time></trkpt><trkpt lat="40.7447983" lon="8.205695"><ele>140.5</ele><time>2026-04-16T09:24:40.834Z</time></trkpt><trkpt lat="40.7446633" lon="8.2057633"><ele>140.0</ele><time>2026-04-16T09:24:41.834Z</time></trkpt><trkpt lat="40.7445267" lon="8.2058233"><ele>139.25</ele><time>2026-04-16T09:24:42.835Z</time></trkpt><trkpt lat="40.744385" lon="8.205875"><ele>138.5</ele><time>2026-04-16T09:24:43.835Z</time></trkpt><trkpt lat="40.7442433" lon="8.2059317"><ele>137.75</ele><time>2026-04-16T09:24:44.834Z</time></trkpt><trkpt lat="40.7440983" lon="8.205995"><ele>137.0</ele><time>2026-04-16T09:24:45.834Z</time></trkpt><trkpt lat="40.743955" lon="8.20606"><ele>137.0</ele><time>2026-04-16T09:24:46.834Z</time></trkpt><trkpt lat="40.74381" lon="8.20612"><ele>137.0</ele><time>2026-04-16T09:24:47.835Z</time></trkpt><trkpt lat="40.74366" lon="8.20618"><ele>137.0</ele><time>2026-04-16T09:24:48.835Z</time></trkpt><trkpt lat="40.7435017" lon="8.2062383"><ele>139.0</ele><time>2026-04-16T09:24:49.835Z</time></trkpt><trkpt lat="40.7433367" lon="8.20628"><ele>141.0</ele><time>2026-04-16T09:24:50.834Z</time></trkpt><trkpt lat="40.743175" lon="8.20631"><ele>143.0</ele><time>2026-04-16T09:24:51.835Z</time></trkpt><trkpt lat="40.74301" lon="8.20634"><ele>143.0</ele><time>2026-04-16T09:24:52.835Z</time></trkpt><trkpt lat="40.7428433" lon="8.2063733"><ele>143.0</ele><time>2026-04-16T09:24:53.834Z</time></trkpt><trkpt lat="40.7426667" lon="8.2064117"><ele>143.0</ele><time>2026-04-16T09:24:54.834Z</time></trkpt><trkpt lat="40.7424917" lon="8.2064417"><ele>143.33333333333331</ele><time>2026-04-16T09:24:55.834Z</time></trkpt><trkpt lat="40.7423083" lon="8.2064783"><ele>143.66666666666666</ele><time>2026-04-16T09:24:56.834Z</time></trkpt><trkpt lat="40.7421233" lon="8.2065117"><ele>144.0</ele><time>2026-04-16T09:24:57.835Z</time></trkpt><trkpt lat="40.74194" lon="8.2065433"><ele>143.0</ele><time>2026-04-16T09:24:58.835Z</time></trkpt><trkpt lat="40.7417633" lon="8.206575"><ele>142.0</ele><time>2026-04-16T09:24:59.835Z</time></trkpt><trkpt lat="40.7415867" lon="8.206615"><ele>141.0</ele><time>2026-04-16T09:25:00.835Z</time></trkpt><trkpt lat="40.74141" lon="8.2066517"><ele>141.0</ele><time>2026-04-16T09:25:01.835Z</time></trkpt><trkpt lat="40.7412433" lon="8.20668"><ele>141.0</ele><time>2026-04-16T09:25:02.835Z</time></trkpt><trkpt lat="40.7410667" lon="8.2067133"><ele>141.0</ele><time>2026-04-16T09:25:03.835Z</time></trkpt><trkpt lat="40.7408983" lon="8.2067483"><ele>141.0</ele><time>2026-04-16T09:25:04.835Z</time></trkpt><trkpt lat="40.7407317" lon="8.20679"><ele>141.0</ele><time>2026-04-16T09:25:05.835Z</time></trkpt><trkpt lat="40.74056" lon="8.2068467"><ele>141.0</ele><time>2026-04-16T09:25:06.835Z</time></trkpt><trkpt lat="40.740385" lon="8.20691"><ele>140.66666666666666</ele><time>2026-04-16T09:25:07.834Z</time></trkpt><trkpt lat="40.740205" lon="8.20698"><ele>140.33333333333331</ele><time>2026-04-16T09:25:08.834Z</time></trkpt><trkpt lat="40.740025" lon="8.207045"><ele>140.0</ele><time>2026-04-16T09:25:09.835Z</time></trkpt><trkpt lat="40.7398483" lon="8.20711"><ele>140.0</ele><time>2026-04-16T09:25:10.835Z</time></trkpt><trkpt lat="40.7396667" lon="8.20718"><ele>140.0</ele><time>2026-04-16T09:25:11.835Z</time></trkpt><trkpt lat="40.7394917" lon="8.2072533"><ele>140.0</ele><time>2026-04-16T09:25:12.835Z</time></trkpt><trkpt lat="40.7393067" lon="8.2073233"><ele>138.66666666666666</ele><time>2026-04-16T09:25:13.835Z</time></trkpt><trkpt lat="40.739125" lon="8.20738"><ele>137.33333333333334</ele><time>2026-04-16T09:25:14.835Z</time></trkpt><trkpt lat="40.7389467" lon="8.20744"><ele>136.0</ele><time>2026-04-16T09:25:15.835Z</time></trkpt><trkpt lat="40.738765" lon="8.2075083"><ele>136.0</ele><time>2026-04-16T09:25:16.834Z</time></trkpt><trkpt lat="40.7385917" lon="8.207575"><ele>136.0</ele><time>2026-04-16T09:25:17.835Z</time></trkpt><trkpt lat="40.7384183" lon="8.2076417"><ele>136.0</ele><time>2026-04-16T09:25:18.835Z</time></trkpt><trkpt lat="40.738245" lon="8.207705"><ele>136.0</ele><time>2026-04-16T09:25:19.835Z</time></trkpt><trkpt lat="40.7380767" lon="8.2077833"><ele>136.0</ele><time>2026-04-16T09:25:20.834Z</time></trkpt><trkpt lat="40.7379183" lon="8.20786"><ele>136.0</ele><time>2026-04-16T09:25:21.835Z</time></trkpt><trkpt lat="40.7377717" lon="8.2079567"><ele>136.0</ele><time>2026-04-16T09:25:22.835Z</time></trkpt><trkpt lat="40.7376267" lon="8.2080767"><ele>136.0</ele><time>2026-04-16T09:25:23.834Z</time></trkpt><trkpt lat="40.73749" lon="8.2082133"><ele>136.0</ele><time>2026-04-16T09:25:24.835Z</time></trkpt><trkpt lat="40.7373533" lon="8.2083717"><ele>134.66666666666669</ele><time>2026-04-16T09:25:25.835Z</time></trkpt><trkpt lat="40.7372183" lon="8.208535"><ele>133.33333333333334</ele><time>2026-04-16T09:25:26.834Z</time></trkpt><trkpt lat="40.73709" lon="8.2087033"><ele>132.0</ele><time>2026-04-16T09:25:27.833Z</time></trkpt><trkpt lat="40.7369433" lon="8.2088617"><ele>131.33333333333334</ele><time>2026-04-16T09:25:28.833Z</time></trkpt><trkpt lat="40.7368033" lon="8.2090217"><ele>130.66666666666669</ele><time>2026-04-16T09:25:29.833Z</time></trkpt><trkpt lat="40.7366667" lon="8.2091917"><ele>130.0</ele><time>2026-04-16T09:25:30.834Z</time></trkpt><trkpt lat="40.73653" lon="8.2093533"><ele>130.0</ele><time>2026-04-16T09:25:31.834Z</time></trkpt><trkpt lat="40.7363983" lon="8.2095167"><ele>130.0</ele><time>2026-04-16T09:25:32.834Z</time></trkpt><trkpt lat="40.73627" lon="8.2096667"><ele>130.0</ele><time>2026-04-16T09:25:33.834Z</time></trkpt><trkpt lat="40.7361333" lon="8.2098183"><ele>131.66666666666669</ele><time>2026-04-16T09:25:34.833Z</time></trkpt><trkpt lat="40.7359983" lon="8.209975"><ele>133.33333333333334</ele><time>2026-04-16T09:25:35.833Z</time></trkpt><trkpt lat="40.7358717" lon="8.2101183"><ele>135.0</ele><time>2026-04-16T09:25:36.833Z</time></trkpt><trkpt lat="40.7357417" lon="8.21026"><ele>135.0</ele><time>2026-04-16T09:25:37.834Z</time></trkpt><trkpt lat="40.7356017" lon="8.2103933"><ele>135.0</ele><time>2026-04-16T09:25:38.834Z</time></trkpt><trkpt lat="40.73546" lon="8.2105183"><ele>135.0</ele><time>2026-04-16T09:25:39.833Z</time></trkpt><trkpt lat="40.7353233" lon="8.2106333"><ele>136.0</ele><time>2026-04-16T09:25:40.834Z</time></trkpt><trkpt lat="40.7351817" lon="8.2107383"><ele>137.0</ele><time>2026-04-16T09:25:41.834Z</time></trkpt><trkpt lat="40.73504" lon="8.2108467"><ele>138.0</ele><time>2026-04-16T09:25:42.834Z</time></trkpt><trkpt lat="40.7348983" lon="8.2109533"><ele>138.0</ele><time>2026-04-16T09:25:43.833Z</time></trkpt><trkpt lat="40.7347567" lon="8.2110583"><ele>138.0</ele><time>2026-04-16T09:25:44.833Z</time></trkpt><trkpt lat="40.73462" lon="8.2111717"><ele>138.0</ele><time>2026-04-16T09:25:45.833Z</time></trkpt><trkpt lat="40.7344933" lon="8.2113"><ele>139.0</ele><time>2026-04-16T09:25:46.834Z</time></trkpt><trkpt lat="40.7343733" lon="8.2114383"><ele>140.0</ele><time>2026-04-16T09:25:47.834Z</time></trkpt><trkpt lat="40.7342467" lon="8.2115767"><ele>141.0</ele><time>2026-04-16T09:25:48.834Z</time></trkpt><trkpt lat="40.73412" lon="8.211705"><ele>139.0</ele><time>2026-04-16T09:25:49.833Z</time></trkpt><trkpt lat="40.7339883" lon="8.2118417"><ele>137.0</ele><time>2026-04-16T09:25:50.834Z</time></trkpt><trkpt lat="40.73386" lon="8.2119833"><ele>135.0</ele><time>2026-04-16T09:25:51.834Z</time></trkpt><trkpt lat="40.73374" lon="8.2121317"><ele>135.0</ele><time>2026-04-16T09:25:52.834Z</time></trkpt><trkpt lat="40.73362" lon="8.212285"><ele>135.0</ele><time>2026-04-16T09:25:53.834Z</time></trkpt><trkpt lat="40.733505" lon="8.2124417"><ele>135.0</ele><time>2026-04-16T09:25:54.834Z</time></trkpt><trkpt lat="40.7333933" lon="8.212605"><ele>134.0</ele><time>2026-04-16T09:25:55.834Z</time></trkpt><trkpt lat="40.733285" lon="8.21276"><ele>133.0</ele><time>2026-04-16T09:25:56.834Z</time></trkpt><trkpt lat="40.7331733" lon="8.2129183"><ele>132.0</ele><time>2026-04-16T09:25:57.834Z</time></trkpt><trkpt lat="40.7330667" lon="8.213085"><ele>131.66666666666666</ele><time>2026-04-16T09:25:58.834Z</time></trkpt><trkpt lat="40.7329633" lon="8.2132533"><ele>131.33333333333331</ele><time>2026-04-16T09:25:59.834Z</time></trkpt><trkpt lat="40.73286" lon="8.2134267"><ele>131.0</ele><time>2026-04-16T09:26:00.833Z</time></trkpt><trkpt lat="40.732755" lon="8.213595"><ele>132.0</ele><time>2026-04-16T09:26:01.833Z</time></trkpt><trkpt lat="40.7326533" lon="8.2137617"><ele>133.0</ele><time>2026-04-16T09:26:02.833Z</time></trkpt><trkpt lat="40.7325433" lon="8.2139183"><ele>134.0</ele><time>2026-04-16T09:26:03.833Z</time></trkpt><trkpt lat="40.7324167" lon="8.2140617"><ele>135.0</ele><time>2026-04-16T09:26:04.834Z</time></trkpt><trkpt lat="40.7322733" lon="8.2141967"><ele>136.0</ele><time>2026-04-16T09:26:05.833Z</time></trkpt><trkpt lat="40.7321283" lon="8.214315"><ele>137.0</ele><time>2026-04-16T09:26:06.834Z</time></trkpt><trkpt lat="40.731975" lon="8.2144217"><ele>137.0</ele><time>2026-04-16T09:26:07.834Z</time></trkpt><trkpt lat="40.73181" lon="8.214515"><ele>137.0</ele><time>2026-04-16T09:26:08.834Z</time></trkpt><trkpt lat="40.7316417" lon="8.2145983"><ele>137.0</ele><time>2026-04-16T09:26:09.834Z</time></trkpt><trkpt lat="40.7314717" lon="8.214665"><ele>137.0</ele><time>2026-04-16T09:26:10.834Z</time></trkpt><trkpt lat="40.7313083" lon="8.2147433"><ele>137.0</ele><time>2026-04-16T09:26:11.834Z</time></trkpt><trkpt lat="40.7311583" lon="8.214855"><ele>137.0</ele><time>2026-04-16T09:26:12.834Z</time></trkpt><trkpt lat="40.7310183" lon="8.2149883"><ele>137.0</ele><time>2026-04-16T09:26:13.834Z</time></trkpt><trkpt lat="40.7308833" lon="8.21513"><ele>137.0</ele><time>2026-04-16T09:26:14.834Z</time></trkpt><trkpt lat="40.7307367" lon="8.2152433"><ele>137.0</ele><time>2026-04-16T09:26:15.833Z</time></trkpt><trkpt lat="40.7305833" lon="8.21533"><ele>137.0</ele><time>2026-04-16T09:26:16.834Z</time></trkpt><trkpt lat="40.73042" lon="8.2153833"><ele>137.0</ele><time>2026-04-16T09:26:17.834Z</time></trkpt><trkpt lat="40.73025" lon="8.2154333"><ele>137.0</ele><time>2026-04-16T09:26:18.833Z</time></trkpt><trkpt lat="40.730075" lon="8.2154717"><ele>137.66666666666666</ele><time>2026-04-16T09:26:19.834Z</time></trkpt><trkpt lat="40.7299083" lon="8.2154917"><ele>138.33333333333334</ele><time>2026-04-16T09:26:20.834Z</time></trkpt><trkpt lat="40.7297433" lon="8.2154967"><ele>139.0</ele><time>2026-04-16T09:26:21.834Z</time></trkpt><trkpt lat="40.7295783" lon="8.2154817"><ele>139.0</ele><time>2026-04-16T09:26:22.834Z</time></trkpt><trkpt lat="40.7294167" lon="8.2154467"><ele>139.0</ele><time>2026-04-16T09:26:23.833Z</time></trkpt><trkpt lat="40.7292517" lon="8.215405"><ele>139.0</ele><time>2026-04-16T09:26:24.833Z</time></trkpt><trkpt lat="40.7290917" lon="8.2153533"><ele>140.66666666666669</ele><time>2026-04-16T09:26:25.834Z</time></trkpt><trkpt lat="40.7289283" lon="8.2153"><ele>142.33333333333334</ele><time>2026-04-16T09:26:26.833Z</time></trkpt><trkpt lat="40.7287633" lon="8.2152433"><ele>144.0</ele><time>2026-04-16T09:26:27.833Z</time></trkpt><trkpt lat="40.7286067" lon="8.2151917"><ele>145.0</ele><time>2026-04-16T09:26:28.833Z</time></trkpt><trkpt lat="40.7284383" lon="8.2151467"><ele>146.0</ele><time>2026-04-16T09:26:29.834Z</time></trkpt><trkpt lat="40.728275" lon="8.21512"><ele>147.0</ele><time>2026-04-16T09:26:30.833Z</time></trkpt><trkpt lat="40.7281117" lon="8.21511"><ele>147.0</ele><time>2026-04-16T09:26:31.833Z</time></trkpt><trkpt lat="40.7279417" lon="8.2151383"><ele>147.0</ele><time>2026-04-16T09:26:32.834Z</time></trkpt><trkpt lat="40.727775" lon="8.2151867"><ele>147.0</ele><time>2026-04-16T09:26:33.834Z</time></trkpt><trkpt lat="40.7276067" lon="8.2152433"><ele>148.66666666666666</ele><time>2026-04-16T09:26:34.833Z</time></trkpt><trkpt lat="40.727435" lon="8.2153067"><ele>150.33333333333331</ele><time>2026-04-16T09:26:35.834Z</time></trkpt><trkpt lat="40.7272633" lon="8.2153517"><ele>152.0</ele><time>2026-04-16T09:26:36.834Z</time></trkpt><trkpt lat="40.7270867" lon="8.2153983"><ele>152.0</ele><time>2026-04-16T09:26:37.833Z</time></trkpt><trkpt lat="40.7269083" lon="8.21546"><ele>152.0</ele><time>2026-04-16T09:26:38.833Z</time></trkpt><trkpt lat="40.7267433" lon="8.215515"><ele>152.0</ele><time>2026-04-16T09:26:39.834Z</time></trkpt><trkpt lat="40.7265767" lon="8.2155733"><ele>153.33333333333331</ele><time>2026-04-16T09:26:40.834Z</time></trkpt><trkpt lat="40.72642" lon="8.2156283"><ele>154.66666666666666</ele><time>2026-04-16T09:26:41.833Z</time></trkpt><trkpt lat="40.7262617" lon="8.2156767"><ele>156.0</ele><time>2026-04-16T09:26:42.833Z</time></trkpt><trkpt lat="40.7261067" lon="8.21569"><ele>158.0</ele><time>2026-04-16T09:26:43.833Z</time></trkpt><trkpt lat="40.7259583" lon="8.2156667"><ele>160.0</ele><time>2026-04-16T09:26:44.834Z</time></trkpt><trkpt lat="40.7258183" lon="8.215645"><ele>162.0</ele><time>2026-04-16T09:26:45.834Z</time></trkpt><trkpt lat="40.7256817" lon="8.21566"><ele>164.0</ele><time>2026-04-16T09:26:46.834Z</time></trkpt><trkpt lat="40.7255533" lon="8.2157117"><ele>164.0</ele><time>2026-04-16T09:26:47.834Z</time></trkpt><trkpt lat="40.7254433" lon="8.215815"><ele>164.0</ele><time>2026-04-16T09:26:48.834Z</time></trkpt><trkpt lat="40.72535" lon="8.215955"><ele>164.0</ele><time>2026-04-16T09:26:49.833Z</time></trkpt><trkpt lat="40.7252633" lon="8.2160817"><ele>164.0</ele><time>2026-04-16T09:26:50.834Z</time></trkpt><trkpt lat="40.7251567" lon="8.2161717"><ele>162.0</ele><time>2026-04-16T09:26:51.833Z</time></trkpt><trkpt lat="40.7250217" lon="8.216225"><ele>160.0</ele><time>2026-04-16T09:26:52.834Z</time></trkpt><trkpt lat="40.724865" lon="8.2162583"><ele>158.0</ele><time>2026-04-16T09:26:53.833Z</time></trkpt><trkpt lat="40.7246933" lon="8.2163017"><ele>158.0</ele><time>2026-04-16T09:26:54.834Z</time></trkpt><trkpt lat="40.7245267" lon="8.2163383"><ele>158.0</ele><time>2026-04-16T09:26:55.834Z</time></trkpt><trkpt lat="40.7243517" lon="8.21638"><ele>158.0</ele><time>2026-04-16T09:26:56.834Z</time></trkpt><trkpt lat="40.7241917" lon="8.2164333"><ele>154.66666666666666</ele><time>2026-04-16T09:26:57.834Z</time></trkpt><trkpt lat="40.724035" lon="8.2165117"><ele>151.33333333333334</ele><time>2026-04-16T09:26:58.834Z</time></trkpt><trkpt lat="40.7238883" lon="8.2166183"><ele>148.0</ele><time>2026-04-16T09:26:59.834Z</time></trkpt><trkpt lat="40.723775" lon="8.2167133"><ele>148.0</ele><time>2026-04-16T09:27:00.834Z</time></trkpt><trkpt lat="40.72368" lon="8.21677"><ele>148.0</ele><time>2026-04-16T09:27:01.834Z</time></trkpt><trkpt lat="40.7235717" lon="8.2167833"><ele>148.0</ele><time>2026-04-16T09:27:02.834Z</time></trkpt><trkpt lat="40.723455" lon="8.216755"><ele>148.0</ele><time>2026-04-16T09:27:03.833Z</time></trkpt><trkpt lat="40.72333" lon="8.21668"><ele>147.0</ele><time>2026-04-16T09:27:04.833Z</time></trkpt><trkpt lat="40.723195" lon="8.2166083"><ele>146.0</ele><time>2026-04-16T09:27:05.833Z</time></trkpt><trkpt lat="40.723055" lon="8.2165783"><ele>145.0</ele><time>2026-04-16T09:27:06.833Z</time></trkpt><trkpt lat="40.7229067" lon="8.21659"><ele>144.0</ele><time>2026-04-16T09:27:07.834Z</time></trkpt><trkpt lat="40.7227533" lon="8.216635"><ele>143.0</ele><time>2026-04-16T09:27:08.834Z</time></trkpt><trkpt lat="40.722575" lon="8.216655"><ele>142.0</ele><time>2026-04-16T09:27:09.834Z</time></trkpt><trkpt lat="40.7224133" lon="8.2166617"><ele>141.0</ele><time>2026-04-16T09:27:10.833Z</time></trkpt><trkpt lat="40.7222633" lon="8.2166617"><ele>141.0</ele><time>2026-04-16T09:27:11.833Z</time></trkpt><trkpt lat="40.722115" lon="8.2166833"><ele>141.0</ele><time>2026-04-16T09:27:12.833Z</time></trkpt><trkpt lat="40.7219767" lon="8.21674"><ele>141.0</ele><time>2026-04-16T09:27:13.834Z</time></trkpt><trkpt lat="40.7218567" lon="8.2168033"><ele>141.0</ele><time>2026-04-16T09:27:14.833Z</time></trkpt><trkpt lat="40.7217533" lon="8.2168667"><ele>139.25</ele><time>2026-04-16T09:27:15.834Z</time></trkpt><trkpt lat="40.7216533" lon="8.2169183"><ele>137.5</ele><time>2026-04-16T09:27:16.834Z</time></trkpt><trkpt lat="40.72154" lon="8.2169233"><ele>135.75</ele><time>2026-04-16T09:27:17.833Z</time></trkpt><trkpt lat="40.7214267" lon="8.21686"><ele>134.0</ele><time>2026-04-16T09:27:18.834Z</time></trkpt><trkpt lat="40.72132" lon="8.2167583"><ele>134.0</ele><time>2026-04-16T09:27:19.833Z</time></trkpt><trkpt lat="40.7212117" lon="8.2166383"><ele>134.0</ele><time>2026-04-16T09:27:20.834Z</time></trkpt><trkpt lat="40.7211117" lon="8.2165117"><ele>134.0</ele><time>2026-04-16T09:27:21.834Z</time></trkpt><trkpt lat="40.7210117" lon="8.2164183"><ele>134.0</ele><time>2026-04-16T09:27:22.833Z</time></trkpt><trkpt lat="40.720895" lon="8.21635"><ele>134.0</ele><time>2026-04-16T09:27:23.834Z</time></trkpt><trkpt lat="40.7207683" lon="8.216335"><ele>134.0</ele><time>2026-04-16T09:27:24.834Z</time></trkpt><trkpt lat="40.7206483" lon="8.2163717"><ele>134.0</ele><time>2026-04-16T09:27:25.833Z</time></trkpt><trkpt lat="40.7205317" lon="8.2164433"><ele>134.0</ele><time>2026-04-16T09:27:26.834Z</time></trkpt><trkpt lat="40.7204217" lon="8.2165617"><ele>133.33333333333331</ele><time>2026-04-16T09:27:27.834Z</time></trkpt><trkpt lat="40.72031" lon="8.21669"><ele>132.66666666666666</ele><time>2026-04-16T09:27:28.833Z</time></trkpt><trkpt lat="40.720195" lon="8.2168383"><ele>132.0</ele><time>2026-04-16T09:27:29.834Z</time></trkpt><trkpt lat="40.720095" lon="8.217"><ele>131.66666666666666</ele><time>2026-04-16T09:27:30.834Z</time></trkpt><trkpt lat="40.72" lon="8.2171817"><ele>131.33333333333331</ele><time>2026-04-16T09:27:31.834Z</time></trkpt><trkpt lat="40.7199167" lon="8.2173783"><ele>131.0</ele><time>2026-04-16T09:27:32.834Z</time></trkpt><trkpt lat="40.7198383" lon="8.217575"><ele>131.0</ele><time>2026-04-16T09:27:33.833Z</time></trkpt><trkpt lat="40.7197567" lon="8.2177633"><ele>131.0</ele><time>2026-04-16T09:27:34.834Z</time></trkpt><trkpt lat="40.7196633" lon="8.21794"><ele>131.0</ele><time>2026-04-16T09:27:35.834Z</time></trkpt><trkpt lat="40.7195483" lon="8.2180867"><ele>128.33333333333331</ele><time>2026-04-16T09:27:36.834Z</time></trkpt><trkpt lat="40.719415" lon="8.2182"><ele>125.66666666666666</ele><time>2026-04-16T09:27:37.834Z</time></trkpt><trkpt lat="40.7192733" lon="8.2182917"><ele>123.0</ele><time>2026-04-16T09:27:38.834Z</time></trkpt><trkpt lat="40.7191267" lon="8.218355"><ele>123.0</ele><time>2026-04-16T09:27:39.834Z</time></trkpt><trkpt lat="40.7189767" lon="8.21839"><ele>123.0</ele><time>2026-04-16T09:27:40.834Z</time></trkpt><trkpt lat="40.7188217" lon="8.2183917"><ele>123.0</ele><time>2026-04-16T09:27:41.834Z</time></trkpt><trkpt lat="40.7186683" lon="8.2183583"><ele>123.0</ele><time>2026-04-16T09:27:42.833Z</time></trkpt><trkpt lat="40.718525" lon="8.218275"><ele>123.0</ele><time>2026-04-16T09:27:43.834Z</time></trkpt><trkpt lat="40.7183883" lon="8.2181817"><ele>123.0</ele><time>2026-04-16T09:27:44.834Z</time></trkpt><trkpt lat="40.7182517" lon="8.2181067"><ele>123.0</ele><time>2026-04-16T09:27:45.833Z</time></trkpt><trkpt lat="40.7181233" lon="8.218075"><ele>123.0</ele><time>2026-04-16T09:27:46.834Z</time></trkpt><trkpt lat="40.7179867" lon="8.218105"><ele>123.0</ele><time>2026-04-16T09:27:47.833Z</time></trkpt><trkpt lat="40.7178567" lon="8.2181617"><ele>123.0</ele><time>2026-04-16T09:27:48.834Z</time></trkpt><trkpt lat="40.7177283" lon="8.2182667"><ele>120.66666666666666</ele><time>2026-04-16T09:27:49.834Z</time></trkpt><trkpt lat="40.7175933" lon="8.2183817"><ele>118.33333333333333</ele><time>2026-04-16T09:27:50.834Z</time></trkpt><trkpt lat="40.7174517" lon="8.2185033"><ele>116.0</ele><time>2026-04-16T09:27:51.834Z</time></trkpt><trkpt lat="40.7173083" lon="8.2186317"><ele>116.0</ele><time>2026-04-16T09:27:52.834Z</time></trkpt><trkpt lat="40.7171717" lon="8.2187517"><ele>116.0</ele><time>2026-04-16T09:27:53.834Z</time></trkpt><trkpt lat="40.7170367" lon="8.2188517"><ele>116.0</ele><time>2026-04-16T09:27:54.834Z</time></trkpt><trkpt lat="40.7169033" lon="8.2189267"><ele>115.75</ele><time>2026-04-16T09:27:55.834Z</time></trkpt><trkpt lat="40.71677" lon="8.2189683"><ele>115.5</ele><time>2026-04-16T09:27:56.834Z</time></trkpt><trkpt lat="40.7166217" lon="8.2189733"><ele>115.25</ele><time>2026-04-16T09:27:57.834Z</time></trkpt><trkpt lat="40.71648" lon="8.2189567"><ele>115.0</ele><time>2026-04-16T09:27:58.834Z</time></trkpt><trkpt lat="40.7163433" lon="8.218945"><ele>115.0</ele><time>2026-04-16T09:27:59.834Z</time></trkpt><trkpt lat="40.716225" lon="8.2189583"><ele>115.0</ele><time>2026-04-16T09:28:00.834Z</time></trkpt><trkpt lat="40.7161233" lon="8.219015"><ele>115.0</ele><time>2026-04-16T09:28:01.834Z</time></trkpt><trkpt lat="40.71604" lon="8.219115"><ele>115.0</ele><time>2026-04-16T09:28:02.834Z</time></trkpt><trkpt lat="40.7159883" lon="8.2192567"><ele>115.25</ele><time>2026-04-16T09:28:03.834Z</time></trkpt><trkpt lat="40.7159567" lon="8.2194233"><ele>115.5</ele><time>2026-04-16T09:28:04.834Z</time></trkpt><trkpt lat="40.7159333" lon="8.2196067"><ele>115.75</ele><time>2026-04-16T09:28:05.833Z</time></trkpt><trkpt lat="40.7158883" lon="8.2197883"><ele>116.0</ele><time>2026-04-16T09:28:06.834Z</time></trkpt><trkpt lat="40.7158183" lon="8.2199583"><ele>115.33333333333333</ele><time>2026-04-16T09:28:07.834Z</time></trkpt><trkpt lat="40.7157133" lon="8.2201117"><ele>114.66666666666666</ele><time>2026-04-16T09:28:08.833Z</time></trkpt><trkpt lat="40.7155767" lon="8.22025"><ele>114.0</ele><time>2026-04-16T09:28:09.834Z</time></trkpt><trkpt lat="40.715435" lon="8.2203783"><ele>114.0</ele><time>2026-04-16T09:28:10.834Z</time></trkpt><trkpt lat="40.715285" lon="8.2204967"><ele>114.0</ele><time>2026-04-16T09:28:11.834Z</time></trkpt><trkpt lat="40.7151383" lon="8.2206183"><ele>114.0</ele><time>2026-04-16T09:28:12.834Z</time></trkpt><trkpt lat="40.7150033" lon="8.22073"><ele>112.66666666666666</ele><time>2026-04-16T09:28:13.834Z</time></trkpt><trkpt lat="40.7148783" lon="8.220845"><ele>111.33333333333333</ele><time>2026-04-16T09:28:14.833Z</time></trkpt><trkpt lat="40.7147667" lon="8.2209717"><ele>110.0</ele><time>2026-04-16T09:28:15.833Z</time></trkpt><trkpt lat="40.7146717" lon="8.2211283"><ele>110.0</ele><time>2026-04-16T09:28:16.833Z</time></trkpt><trkpt lat="40.7146133" lon="8.2213033"><ele>110.0</ele><time>2026-04-16T09:28:17.833Z</time></trkpt><trkpt lat="40.7145867" lon="8.2214967"><ele>110.0</ele><time>2026-04-16T09:28:18.832Z</time></trkpt><trkpt lat="40.71459" lon="8.2217117"><ele>109.75</ele><time>2026-04-16T09:28:19.833Z</time></trkpt><trkpt lat="40.7145883" lon="8.2219117"><ele>109.5</ele><time>2026-04-16T09:28:20.832Z</time></trkpt><trkpt lat="40.7145883" lon="8.2220967"><ele>109.25</ele><time>2026-04-16T09:28:21.832Z</time></trkpt><trkpt lat="40.7145783" lon="8.2222567"><ele>109.0</ele><time>2026-04-16T09:28:22.833Z</time></trkpt><trkpt lat="40.714545" lon="8.222395"><ele>109.5</ele><time>2026-04-16T09:28:23.833Z</time></trkpt><trkpt lat="40.7145" lon="8.2225117"><ele>110.0</ele><time>2026-04-16T09:28:24.832Z</time></trkpt><trkpt lat="40.714415" lon="8.222615"><ele>110.5</ele><time>2026-04-16T09:28:25.833Z</time></trkpt><trkpt lat="40.7142983" lon="8.2226783"><ele>111.0</ele><time>2026-04-16T09:28:26.833Z</time></trkpt><trkpt lat="40.7141683" lon="8.2226883"><ele>109.33333333333334</ele><time>2026-04-16T09:28:27.833Z</time></trkpt><trkpt lat="40.7140183" lon="8.22266"><ele>107.66666666666667</ele><time>2026-04-16T09:28:28.832Z</time></trkpt><trkpt lat="40.7138633" lon="8.2226033"><ele>106.0</ele><time>2026-04-16T09:28:29.832Z</time></trkpt><trkpt lat="40.7136983" lon="8.2225433"><ele>107.0</ele><time>2026-04-16T09:28:30.832Z</time></trkpt><trkpt lat="40.7135317" lon="8.2225017"><ele>108.0</ele><time>2026-04-16T09:28:31.833Z</time></trkpt><trkpt lat="40.7133617" lon="8.2224917"><ele>109.0</ele><time>2026-04-16T09:28:32.832Z</time></trkpt><trkpt lat="40.71319" lon="8.2225217"><ele>109.0</ele><time>2026-04-16T09:28:33.833Z</time></trkpt><trkpt lat="40.7130217" lon="8.2225833"><ele>109.0</ele><time>2026-04-16T09:28:34.832Z</time></trkpt><trkpt lat="40.7128767" lon="8.222675"><ele>109.0</ele><time>2026-04-16T09:28:35.833Z</time></trkpt><trkpt lat="40.7127367" lon="8.2227683"><ele>112.0</ele><time>2026-04-16T09:28:36.832Z</time></trkpt><trkpt lat="40.7125867" lon="8.222815"><ele>115.0</ele><time>2026-04-16T09:28:37.833Z</time></trkpt><trkpt lat="40.71243" lon="8.2228183"><ele>118.0</ele><time>2026-04-16T09:28:38.833Z</time></trkpt><trkpt lat="40.7122767" lon="8.222825"><ele>118.0</ele><time>2026-04-16T09:28:39.833Z</time></trkpt><trkpt lat="40.71213" lon="8.2228683"><ele>118.0</ele><time>2026-04-16T09:28:40.833Z</time></trkpt><trkpt lat="40.7119917" lon="8.2229567"><ele>118.0</ele><time>2026-04-16T09:28:41.833Z</time></trkpt><trkpt lat="40.7118533" lon="8.2230583"><ele>115.0</ele><time>2026-04-16T09:28:42.832Z</time></trkpt><trkpt lat="40.7117133" lon="8.2231583"><ele>112.0</ele><time>2026-04-16T09:28:43.832Z</time></trkpt><trkpt lat="40.71158" lon="8.2232583"><ele>109.0</ele><time>2026-04-16T09:28:44.832Z</time></trkpt><trkpt lat="40.7114567" lon="8.2233567"><ele>109.0</ele><time>2026-04-16T09:28:45.832Z</time></trkpt><trkpt lat="40.7113483" lon="8.2234333"><ele>109.0</ele><time>2026-04-16T09:28:46.833Z</time></trkpt><trkpt lat="40.711255" lon="8.22349"><ele>109.0</ele><time>2026-04-16T09:28:47.833Z</time></trkpt><trkpt lat="40.7111867" lon="8.2235167"><ele>109.0</ele><time>2026-04-16T09:28:48.832Z</time></trkpt><trkpt lat="40.7111217" lon="8.2234667"><ele>109.0</ele><time>2026-04-16T09:28:51.833Z</time></trkpt><trkpt lat="40.711045" lon="8.22341"><ele>109.16666666666667</ele><time>2026-04-16T09:29:05.832Z</time></trkpt><trkpt lat="40.7109983" lon="8.2232867"><ele>109.33333333333334</ele><time>2026-04-16T09:29:25.832Z</time></trkpt><trkpt lat="40.7109767" lon="8.2232083"><ele>109.5</ele><time>2026-04-16T09:29:26.832Z</time></trkpt><trkpt lat="40.710955" lon="8.22312"><ele>109.66666666666666</ele><time>2026-04-16T09:29:27.833Z</time></trkpt><trkpt lat="40.7108817" lon="8.2230133"><ele>109.83333333333333</ele><time>2026-04-16T09:29:29.832Z</time></trkpt><trkpt lat="40.710815" lon="8.2229933"><ele>110.0</ele><time>2026-04-16T09:29:30.833Z</time></trkpt><trkpt lat="40.7107383" lon="8.22299"><ele>109.49999999999999</ele><time>2026-04-16T09:29:31.832Z</time></trkpt><trkpt lat="40.7106517" lon="8.2229867"><ele>109.0</ele><time>2026-04-16T09:29:32.832Z</time></trkpt><trkpt lat="40.7105683" lon="8.2229717"><ele>108.5</ele><time>2026-04-16T09:29:33.833Z</time></trkpt><trkpt lat="40.710485" lon="8.2229533"><ele>108.0</ele><time>2026-04-16T09:29:34.833Z</time></trkpt><trkpt lat="40.71041" lon="8.222925"><ele>107.49999999999999</ele><time>2026-04-16T09:29:35.832Z</time></trkpt><trkpt lat="40.7103367" lon="8.2228717"><ele>107.0</ele><time>2026-04-16T09:29:36.833Z</time></trkpt><trkpt lat="40.71027" lon="8.2228"><ele>105.0</ele><time>2026-04-16T09:29:37.832Z</time></trkpt><trkpt lat="40.7102083" lon="8.2226983"><ele>103.0</ele><time>2026-04-16T09:29:38.833Z</time></trkpt><trkpt lat="40.7101467" lon="8.2225717"><ele>101.0</ele><time>2026-04-16T09:29:39.833Z</time></trkpt><trkpt lat="40.7100817" lon="8.222435"><ele>99.0</ele><time>2026-04-16T09:29:40.832Z</time></trkpt><trkpt lat="40.7100217" lon="8.2222917"><ele>99.0</ele><time>2026-04-16T09:29:41.833Z</time></trkpt><trkpt lat="40.709965" lon="8.22216"><ele>99.0</ele><time>2026-04-16T09:29:42.832Z</time></trkpt><trkpt lat="40.7099033" lon="8.2220367"><ele>99.0</ele><time>2026-04-16T09:29:43.833Z</time></trkpt><trkpt lat="40.7098483" lon="8.2219217"><ele>99.0</ele><time>2026-04-16T09:29:44.833Z</time></trkpt><trkpt lat="40.7097917" lon="8.221815"><ele>99.0</ele><time>2026-04-16T09:29:45.833Z</time></trkpt><trkpt lat="40.709735" lon="8.221715"><ele>99.0</ele><time>2026-04-16T09:29:46.833Z</time></trkpt><trkpt lat="40.709665" lon="8.2216167"><ele>99.0</ele><time>2026-04-16T09:29:47.833Z</time></trkpt><trkpt lat="40.709585" lon="8.2215117"><ele>99.0</ele><time>2026-04-16T09:29:48.833Z</time></trkpt><trkpt lat="40.7095017" lon="8.2214117"><ele>99.0</ele><time>2026-04-16T09:29:49.832Z</time></trkpt><trkpt lat="40.70942" lon="8.2212983"><ele>99.0</ele><time>2026-04-16T09:29:50.832Z</time></trkpt><trkpt lat="40.7093383" lon="8.2211767"><ele>98.0</ele><time>2026-04-16T09:29:51.833Z</time></trkpt><trkpt lat="40.7092633" lon="8.2210583"><ele>97.0</ele><time>2026-04-16T09:29:52.832Z</time></trkpt><trkpt lat="40.709185" lon="8.2209333"><ele>96.0</ele><time>2026-04-16T09:29:53.832Z</time></trkpt><trkpt lat="40.7090983" lon="8.2208117"><ele>95.0</ele><time>2026-04-16T09:29:54.833Z</time></trkpt><trkpt lat="40.709005" lon="8.2206933"><ele>95.5</ele><time>2026-04-16T09:29:55.833Z</time></trkpt><trkpt lat="40.7089067" lon="8.22057"><ele>96.0</ele><time>2026-04-16T09:29:56.833Z</time></trkpt><trkpt lat="40.7088167" lon="8.2204483"><ele>96.5</ele><time>2026-04-16T09:29:57.833Z</time></trkpt><trkpt lat="40.7087283" lon="8.2203167"><ele>97.0</ele><time>2026-04-16T09:29:58.833Z</time></trkpt><trkpt lat="40.70866" lon="8.2201817"><ele>97.0</ele><time>2026-04-16T09:29:59.833Z</time></trkpt><trkpt lat="40.7086" lon="8.2200633"><ele>97.0</ele><time>2026-04-16T09:30:00.833Z</time></trkpt><trkpt lat="40.7085533" lon="8.2199483"><ele>97.0</ele><time>2026-04-16T09:30:01.833Z</time></trkpt><trkpt lat="40.7085" lon="8.2198567"><ele>97.0</ele><time>2026-04-16T09:30:02.832Z</time></trkpt><trkpt lat="40.708425" lon="8.2197933"><ele>97.0</ele><time>2026-04-16T09:30:03.833Z</time></trkpt><trkpt lat="40.7083417" lon="8.2197667"><ele>96.5</ele><time>2026-04-16T09:30:04.833Z</time></trkpt><trkpt lat="40.7082433" lon="8.219765"><ele>96.0</ele><time>2026-04-16T09:30:05.833Z</time></trkpt><trkpt lat="40.7081267" lon="8.2197833"><ele>95.5</ele><time>2026-04-16T09:30:06.833Z</time></trkpt><trkpt lat="40.7079967" lon="8.2197883"><ele>95.0</ele><time>2026-04-16T09:30:07.832Z</time></trkpt><trkpt lat="40.70787" lon="8.219775"><ele>94.25</ele><time>2026-04-16T09:30:08.833Z</time></trkpt><trkpt lat="40.7077267" lon="8.2197733"><ele>93.5</ele><time>2026-04-16T09:30:09.833Z</time></trkpt><trkpt lat="40.7075783" lon="8.2197817"><ele>92.75</ele><time>2026-04-16T09:30:10.832Z</time></trkpt><trkpt lat="40.7074417" lon="8.219795"><ele>92.0</ele><time>2026-04-16T09:30:11.833Z</time></trkpt><trkpt lat="40.707305" lon="8.2198117"><ele>92.0</ele><time>2026-04-16T09:30:12.833Z</time></trkpt><trkpt lat="40.70717" lon="8.2198183"><ele>92.0</ele><time>2026-04-16T09:30:13.832Z</time></trkpt><trkpt lat="40.7070433" lon="8.2198083"><ele>92.0</ele><time>2026-04-16T09:30:14.833Z</time></trkpt><trkpt lat="40.7069467" lon="8.21978"><ele>92.0</ele><time>2026-04-16T09:30:15.832Z</time></trkpt><trkpt lat="40.7068717" lon="8.2197317"><ele>92.0</ele><time>2026-04-16T09:30:16.833Z</time></trkpt><trkpt lat="40.70681" lon="8.2196583"><ele>91.0</ele><time>2026-04-16T09:30:17.832Z</time></trkpt><trkpt lat="40.70677" lon="8.219545"><ele>90.0</ele><time>2026-04-16T09:30:18.833Z</time></trkpt><trkpt lat="40.7067367" lon="8.2194267"><ele>89.0</ele><time>2026-04-16T09:30:19.833Z</time></trkpt><trkpt lat="40.706685" lon="8.219335"><ele>88.0</ele><time>2026-04-16T09:30:20.832Z</time></trkpt><trkpt lat="40.7066083" lon="8.2192717"><ele>87.0</ele><time>2026-04-16T09:30:21.833Z</time></trkpt><trkpt lat="40.7065067" lon="8.219225"><ele>87.0</ele><time>2026-04-16T09:30:22.833Z</time></trkpt><trkpt lat="40.7063833" lon="8.2191783"><ele>87.0</ele><time>2026-04-16T09:30:23.833Z</time></trkpt><trkpt lat="40.7062433" lon="8.219135"><ele>87.0</ele><time>2026-04-16T09:30:24.833Z</time></trkpt><trkpt lat="40.7061033" lon="8.21909"><ele>87.0</ele><time>2026-04-16T09:30:25.833Z</time></trkpt><trkpt lat="40.705965" lon="8.2190617"><ele>86.75</ele><time>2026-04-16T09:30:26.832Z</time></trkpt><trkpt lat="40.7058183" lon="8.21903"><ele>86.5</ele><time>2026-04-16T09:30:27.832Z</time></trkpt><trkpt lat="40.705675" lon="8.2189817"><ele>86.25</ele><time>2026-04-16T09:30:28.832Z</time></trkpt><trkpt lat="40.7055383" lon="8.2189367"><ele>86.0</ele><time>2026-04-16T09:30:29.833Z</time></trkpt><trkpt lat="40.7054133" lon="8.2188933"><ele>86.0</ele><time>2026-04-16T09:30:30.833Z</time></trkpt><trkpt lat="40.70531" lon="8.218845"><ele>86.0</ele><time>2026-04-16T09:30:31.833Z</time></trkpt><trkpt lat="40.7052033" lon="8.2187867"><ele>86.0</ele><time>2026-04-16T09:30:32.833Z</time></trkpt><trkpt lat="40.70509" lon="8.2187133"><ele>86.0</ele><time>2026-04-16T09:30:33.832Z</time></trkpt><trkpt lat="40.7049533" lon="8.2186667"><ele>86.0</ele><time>2026-04-16T09:30:34.833Z</time></trkpt><trkpt lat="40.7048133" lon="8.2186233"><ele>86.0</ele><time>2026-04-16T09:30:35.833Z</time></trkpt><trkpt lat="40.70467" lon="8.2185917"><ele>86.0</ele><time>2026-04-16T09:30:36.833Z</time></trkpt><trkpt lat="40.7045367" lon="8.2185817"><ele>86.0</ele><time>2026-04-16T09:30:37.832Z</time></trkpt><trkpt lat="40.704425" lon="8.2185717"><ele>85.75</ele><time>2026-04-16T09:30:38.833Z</time></trkpt><trkpt lat="40.7043167" lon="8.218555"><ele>85.5</ele><time>2026-04-16T09:30:39.833Z</time></trkpt><trkpt lat="40.704195" lon="8.2185383"><ele>85.25</ele><time>2026-04-16T09:30:40.833Z</time></trkpt><trkpt lat="40.70407" lon="8.2185467"><ele>85.0</ele><time>2026-04-16T09:30:41.832Z</time></trkpt><trkpt lat="40.7039533" lon="8.218575"><ele>85.0</ele><time>2026-04-16T09:30:42.833Z</time></trkpt><trkpt lat="40.7038417" lon="8.2186283"><ele>85.0</ele><time>2026-04-16T09:30:43.832Z</time></trkpt><trkpt lat="40.7037367" lon="8.2187067"><ele>85.0</ele><time>2026-04-16T09:30:44.833Z</time></trkpt><trkpt lat="40.7036417" lon="8.2188"><ele>85.0</ele><time>2026-04-16T09:30:45.833Z</time></trkpt><trkpt lat="40.703535" lon="8.2189033"><ele>84.0</ele><time>2026-04-16T09:30:46.833Z</time></trkpt><trkpt lat="40.70343" lon="8.219015"><ele>83.0</ele><time>2026-04-16T09:30:47.832Z</time></trkpt><trkpt lat="40.7033233" lon="8.21912"><ele>82.0</ele><time>2026-04-16T09:30:48.832Z</time></trkpt><trkpt lat="40.70321" lon="8.2192333"><ele>81.0</ele><time>2026-04-16T09:30:49.833Z</time></trkpt><trkpt lat="40.7030933" lon="8.21936"><ele>81.0</ele><time>2026-04-16T09:30:50.833Z</time></trkpt><trkpt lat="40.70297" lon="8.219485"><ele>81.0</ele><time>2026-04-16T09:30:51.832Z</time></trkpt><trkpt lat="40.7028383" lon="8.219605"><ele>81.0</ele><time>2026-04-16T09:30:52.833Z</time></trkpt><trkpt lat="40.7027133" lon="8.2196917"><ele>80.25</ele><time>2026-04-16T09:30:53.833Z</time></trkpt><trkpt lat="40.7025867" lon="8.21977"><ele>79.5</ele><time>2026-04-16T09:30:54.833Z</time></trkpt><trkpt lat="40.7024633" lon="8.2198367"><ele>78.75</ele><time>2026-04-16T09:30:55.832Z</time></trkpt><trkpt lat="40.702345" lon="8.2199017"><ele>78.0</ele><time>2026-04-16T09:30:56.832Z</time></trkpt><trkpt lat="40.702225" lon="8.2199833"><ele>78.0</ele><time>2026-04-16T09:30:57.832Z</time></trkpt><trkpt lat="40.7021033" lon="8.2200817"><ele>78.0</ele><time>2026-04-16T09:30:58.833Z</time></trkpt><trkpt lat="40.7019833" lon="8.2201717"><ele>78.0</ele><time>2026-04-16T09:30:59.833Z</time></trkpt><trkpt lat="40.70186" lon="8.2202383"><ele>78.0</ele><time>2026-04-16T09:31:00.833Z</time></trkpt><trkpt lat="40.701735" lon="8.2203033"><ele>75.0</ele><time>2026-04-16T09:31:01.833Z</time></trkpt><trkpt lat="40.7016067" lon="8.2203917"><ele>72.0</ele><time>2026-04-16T09:31:02.833Z</time></trkpt><trkpt lat="40.70147" lon="8.2204833"><ele>69.0</ele><time>2026-04-16T09:31:03.832Z</time></trkpt><trkpt lat="40.7013233" lon="8.2205783"><ele>70.5</ele><time>2026-04-16T09:31:04.833Z</time></trkpt><trkpt lat="40.70118" lon="8.2206567"><ele>72.0</ele><time>2026-04-16T09:31:05.833Z</time></trkpt><trkpt lat="40.7010633" lon="8.2207183"><ele>73.5</ele><time>2026-04-16T09:31:06.833Z</time></trkpt><trkpt lat="40.70096" lon="8.220775"><ele>75.0</ele><time>2026-04-16T09:31:07.833Z</time></trkpt><trkpt lat="40.7008617" lon="8.2208417"><ele>75.0</ele><time>2026-04-16T09:31:08.832Z</time></trkpt><trkpt lat="40.7007683" lon="8.2209367"><ele>75.0</ele><time>2026-04-16T09:31:09.831Z</time></trkpt><trkpt lat="40.700665" lon="8.2210533"><ele>75.0</ele><time>2026-04-16T09:31:10.832Z</time></trkpt><trkpt lat="40.7005567" lon="8.2211783"><ele>75.0</ele><time>2026-04-16T09:31:11.832Z</time></trkpt><trkpt lat="40.7004467" lon="8.2212867"><ele>75.0</ele><time>2026-04-16T09:31:12.832Z</time></trkpt><trkpt lat="40.7003283" lon="8.2214017"><ele>75.0</ele><time>2026-04-16T09:31:13.831Z</time></trkpt><trkpt lat="40.7002117" lon="8.2215233"><ele>75.0</ele><time>2026-04-16T09:31:14.832Z</time></trkpt><trkpt lat="40.7000933" lon="8.2216483"><ele>75.0</ele><time>2026-04-16T09:31:15.831Z</time></trkpt><trkpt lat="40.6999767" lon="8.2217733"><ele>74.0</ele><time>2026-04-16T09:31:16.831Z</time></trkpt><trkpt lat="40.6998517" lon="8.2219"><ele>73.0</ele><time>2026-04-16T09:31:17.832Z</time></trkpt><trkpt lat="40.69973" lon="8.2220083"><ele>72.0</ele><time>2026-04-16T09:31:18.831Z</time></trkpt><trkpt lat="40.6996067" lon="8.222115"><ele>72.0</ele><time>2026-04-16T09:31:19.832Z</time></trkpt><trkpt lat="40.6994883" lon="8.22219"><ele>72.0</ele><time>2026-04-16T09:31:20.832Z</time></trkpt><trkpt lat="40.69936" lon="8.2222483"><ele>72.0</ele><time>2026-04-16T09:31:21.832Z</time></trkpt><trkpt lat="40.6992267" lon="8.2222817"><ele>72.0</ele><time>2026-04-16T09:31:22.832Z</time></trkpt><trkpt lat="40.6990867" lon="8.2222917"><ele>71.5</ele><time>2026-04-16T09:31:23.832Z</time></trkpt><trkpt lat="40.6989433" lon="8.2222917"><ele>71.0</ele><time>2026-04-16T09:31:24.831Z</time></trkpt><trkpt lat="40.6988" lon="8.2222733"><ele>70.5</ele><time>2026-04-16T09:31:25.832Z</time></trkpt><trkpt lat="40.6986617" lon="8.2222433"><ele>70.0</ele><time>2026-04-16T09:31:26.832Z</time></trkpt><trkpt lat="40.6985267" lon="8.2222217"><ele>70.0</ele><time>2026-04-16T09:31:27.831Z</time></trkpt><trkpt lat="40.6984017" lon="8.2222117"><ele>70.0</ele><time>2026-04-16T09:31:28.832Z</time></trkpt><trkpt lat="40.6982867" lon="8.2221867"><ele>70.0</ele><time>2026-04-16T09:31:29.831Z</time></trkpt><trkpt lat="40.6981817" lon="8.222145"><ele>70.0</ele><time>2026-04-16T09:31:30.831Z</time></trkpt><trkpt lat="40.6980867" lon="8.222085"><ele>70.0</ele><time>2026-04-16T09:31:31.832Z</time></trkpt><trkpt lat="40.698005" lon="8.2220083"><ele>70.0</ele><time>2026-04-16T09:31:32.831Z</time></trkpt><trkpt lat="40.697935" lon="8.221905"><ele>70.0</ele><time>2026-04-16T09:31:33.832Z</time></trkpt><trkpt lat="40.6978833" lon="8.2217767"><ele>70.0</ele><time>2026-04-16T09:31:34.832Z</time></trkpt><trkpt lat="40.697835" lon="8.2216533"><ele>70.0</ele><time>2026-04-16T09:31:35.831Z</time></trkpt><trkpt lat="40.6977633" lon="8.2215483"><ele>69.5</ele><time>2026-04-16T09:31:36.832Z</time></trkpt><trkpt lat="40.6976733" lon="8.2214433"><ele>69.0</ele><time>2026-04-16T09:31:37.831Z</time></trkpt><trkpt lat="40.6975867" lon="8.22134"><ele>68.5</ele><time>2026-04-16T09:31:38.831Z</time></trkpt><trkpt lat="40.6974917" lon="8.221265"><ele>68.0</ele><time>2026-04-16T09:31:39.832Z</time></trkpt><trkpt lat="40.6973767" lon="8.2212233"><ele>68.0</ele><time>2026-04-16T09:31:40.832Z</time></trkpt><trkpt lat="40.6972433" lon="8.2211817"><ele>68.0</ele><time>2026-04-16T09:31:41.831Z</time></trkpt><trkpt lat="40.6971017" lon="8.2211417"><ele>68.0</ele><time>2026-04-16T09:31:42.832Z</time></trkpt><trkpt lat="40.6969467" lon="8.221105"><ele>68.0</ele><time>2026-04-16T09:31:43.832Z</time></trkpt><trkpt lat="40.6968" lon="8.2210833"><ele>68.25</ele><time>2026-04-16T09:31:44.831Z</time></trkpt><trkpt lat="40.6966483" lon="8.2210683"><ele>68.5</ele><time>2026-04-16T09:31:45.831Z</time></trkpt><trkpt lat="40.6964917" lon="8.2210767"><ele>68.75</ele><time>2026-04-16T09:31:46.831Z</time></trkpt><trkpt lat="40.6963533" lon="8.2210983"><ele>69.0</ele><time>2026-04-16T09:31:47.832Z</time></trkpt><trkpt lat="40.696225" lon="8.2211183"><ele>69.0</ele><time>2026-04-16T09:31:48.832Z</time></trkpt><trkpt lat="40.69611" lon="8.2211583"><ele>69.0</ele><time>2026-04-16T09:31:49.832Z</time></trkpt><trkpt lat="40.6959833" lon="8.2211867"><ele>69.0</ele><time>2026-04-16T09:31:50.832Z</time></trkpt><trkpt lat="40.6958467" lon="8.2212017"><ele>69.0</ele><time>2026-04-16T09:31:51.831Z</time></trkpt><trkpt lat="40.6957233" lon="8.2212017"><ele>68.75</ele><time>2026-04-16T09:31:52.832Z</time></trkpt><trkpt lat="40.6956017" lon="8.2211817"><ele>68.5</ele><time>2026-04-16T09:31:53.832Z</time></trkpt><trkpt lat="40.6954783" lon="8.2211367"><ele>68.25</ele><time>2026-04-16T09:31:54.831Z</time></trkpt><trkpt lat="40.69536" lon="8.2211"><ele>68.0</ele><time>2026-04-16T09:31:55.831Z</time></trkpt><trkpt lat="40.695255" lon="8.2210733"><ele>68.4</ele><time>2026-04-16T09:31:56.832Z</time></trkpt><trkpt lat="40.6951617" lon="8.221035"><ele>68.8</ele><time>2026-04-16T09:31:57.832Z</time></trkpt><trkpt lat="40.695065" lon="8.22097"><ele>69.2</ele><time>2026-04-16T09:31:58.832Z</time></trkpt><trkpt lat="40.6949783" lon="8.2208783"><ele>69.6</ele><time>2026-04-16T09:31:59.832Z</time></trkpt><trkpt lat="40.694885" lon="8.2207783"><ele>70.0</ele><time>2026-04-16T09:32:00.831Z</time></trkpt><trkpt lat="40.6947817" lon="8.220685"><ele>70.0</ele><time>2026-04-16T09:32:01.832Z</time></trkpt><trkpt lat="40.6946867" lon="8.220605"><ele>70.0</ele><time>2026-04-16T09:32:02.832Z</time></trkpt><trkpt lat="40.694605" lon="8.22053"><ele>70.0</ele><time>2026-04-16T09:32:03.831Z</time></trkpt><trkpt lat="40.6945333" lon="8.2204217"><ele>70.0</ele><time>2026-04-16T09:32:04.832Z</time></trkpt><trkpt lat="40.6944633" lon="8.22029"><ele>70.0</ele><time>2026-04-16T09:32:05.832Z</time></trkpt><trkpt lat="40.6943933" lon="8.220145"><ele>70.0</ele><time>2026-04-16T09:32:06.832Z</time></trkpt><trkpt lat="40.6943133" lon="8.2200017"><ele>70.0</ele><time>2026-04-16T09:32:07.831Z</time></trkpt><trkpt lat="40.694215" lon="8.2198583"><ele>70.0</ele><time>2026-04-16T09:32:08.832Z</time></trkpt><trkpt lat="40.6941067" lon="8.2197467"><ele>70.0</ele><time>2026-04-16T09:32:09.832Z</time></trkpt><trkpt lat="40.6939867" lon="8.2196483"><ele>69.0</ele><time>2026-04-16T09:32:10.832Z</time></trkpt><trkpt lat="40.6938467" lon="8.2195633"><ele>68.0</ele><time>2026-04-16T09:32:11.831Z</time></trkpt><trkpt lat="40.69371" lon="8.219485"><ele>67.0</ele><time>2026-04-16T09:32:12.832Z</time></trkpt><trkpt lat="40.69358" lon="8.2194183"><ele>66.0</ele><time>2026-04-16T09:32:13.832Z</time></trkpt><trkpt lat="40.6934433" lon="8.21935"><ele>66.0</ele><time>2026-04-16T09:32:14.832Z</time></trkpt><trkpt lat="40.6933" lon="8.2192683"><ele>66.0</ele><time>2026-04-16T09:32:15.831Z</time></trkpt><trkpt lat="40.6931583" lon="8.219185"><ele>66.0</ele><time>2026-04-16T09:32:16.832Z</time></trkpt><trkpt lat="40.6930133" lon="8.2190917"><ele>66.0</ele><time>2026-04-16T09:32:17.831Z</time></trkpt><trkpt lat="40.6928683" lon="8.219005"><ele>66.0</ele><time>2026-04-16T09:32:18.832Z</time></trkpt><trkpt lat="40.69273" lon="8.218925"><ele>66.0</ele><time>2026-04-16T09:32:19.832Z</time></trkpt><trkpt lat="40.692595" lon="8.2188483"><ele>65.66666666666667</ele><time>2026-04-16T09:32:20.832Z</time></trkpt><trkpt lat="40.692445" lon="8.21878"><ele>65.33333333333334</ele><time>2026-04-16T09:32:21.832Z</time></trkpt><trkpt lat="40.6922933" lon="8.2187367"><ele>65.0</ele><time>2026-04-16T09:32:22.832Z</time></trkpt><trkpt lat="40.6921383" lon="8.218705"><ele>65.0</ele><time>2026-04-16T09:32:23.832Z</time></trkpt><trkpt lat="40.69198" lon="8.21868"><ele>65.0</ele><time>2026-04-16T09:32:24.831Z</time></trkpt><trkpt lat="40.6918383" lon="8.2186467"><ele>65.0</ele><time>2026-04-16T09:32:25.831Z</time></trkpt><trkpt lat="40.6917033" lon="8.2186117"><ele>65.0</ele><time>2026-04-16T09:32:26.831Z</time></trkpt><trkpt lat="40.691595" lon="8.218585"><ele>65.33333333333334</ele><time>2026-04-16T09:32:27.832Z</time></trkpt><trkpt lat="40.691515" lon="8.2185783"><ele>65.66666666666667</ele><time>2026-04-16T09:32:28.831Z</time></trkpt><trkpt lat="40.691455" lon="8.21861"><ele>66.0</ele><time>2026-04-16T09:32:29.832Z</time></trkpt><trkpt lat="40.6914117" lon="8.218675"><ele>66.33333333333333</ele><time>2026-04-16T09:32:30.832Z</time></trkpt><trkpt lat="40.691375" lon="8.2187717"><ele>66.66666666666666</ele><time>2026-04-16T09:32:31.832Z</time></trkpt><trkpt lat="40.6913217" lon="8.2189"><ele>67.0</ele><time>2026-04-16T09:32:32.832Z</time></trkpt><trkpt lat="40.6912533" lon="8.2190483"><ele>67.0</ele><time>2026-04-16T09:32:33.832Z</time></trkpt><trkpt lat="40.6911767" lon="8.2192117"><ele>67.0</ele><time>2026-04-16T09:32:34.832Z</time></trkpt><trkpt lat="40.6910983" lon="8.2193733"><ele>67.0</ele><time>2026-04-16T09:32:35.831Z</time></trkpt><trkpt lat="40.6910317" lon="8.2195133"><ele>67.0</ele><time>2026-04-16T09:32:36.832Z</time></trkpt><trkpt lat="40.6909667" lon="8.2196433"><ele>65.6</ele><time>2026-04-16T09:32:37.831Z</time></trkpt><trkpt lat="40.69089" lon="8.2197617"><ele>64.2</ele><time>2026-04-16T09:32:38.832Z</time></trkpt><trkpt lat="40.6908133" lon="8.2198633"><ele>62.8</ele><time>2026-04-16T09:32:39.832Z</time></trkpt><trkpt lat="40.690735" lon="8.2199417"><ele>61.4</ele><time>2026-04-16T09:32:40.832Z</time></trkpt><trkpt lat="40.690635" lon="8.2200017"><ele>60.0</ele><time>2026-04-16T09:32:41.832Z</time></trkpt><trkpt lat="40.6905133" lon="8.22004"><ele>60.0</ele><time>2026-04-16T09:32:42.832Z</time></trkpt><trkpt lat="40.6903983" lon="8.2200767"><ele>60.0</ele><time>2026-04-16T09:32:43.831Z</time></trkpt><trkpt lat="40.6902967" lon="8.22014"><ele>60.0</ele><time>2026-04-16T09:32:44.832Z</time></trkpt><trkpt lat="40.6901867" lon="8.2202183"><ele>60.0</ele><time>2026-04-16T09:32:45.832Z</time></trkpt><trkpt lat="40.6900567" lon="8.220305"><ele>58.0</ele><time>2026-04-16T09:32:46.831Z</time></trkpt><trkpt lat="40.6899267" lon="8.220375"><ele>56.0</ele><time>2026-04-16T09:32:47.832Z</time></trkpt><trkpt lat="40.68981" lon="8.2204183"><ele>54.0</ele><time>2026-04-16T09:32:48.831Z</time></trkpt><trkpt lat="40.6897083" lon="8.22045"><ele>52.0</ele><time>2026-04-16T09:32:49.831Z</time></trkpt><trkpt lat="40.6896067" lon="8.2204667"><ele>52.0</ele><time>2026-04-16T09:32:50.831Z</time></trkpt><trkpt lat="40.6894983" lon="8.2204683"><ele>52.0</ele><time>2026-04-16T09:32:51.831Z</time></trkpt><trkpt lat="40.68938" lon="8.2204567"><ele>52.0</ele><time>2026-04-16T09:32:52.831Z</time></trkpt><trkpt lat="40.6892633" lon="8.2203967"><ele>52.0</ele><time>2026-04-16T09:32:53.831Z</time></trkpt><trkpt lat="40.68914" lon="8.2203183"><ele>51.0</ele><time>2026-04-16T09:32:54.832Z</time></trkpt><trkpt lat="40.6890167" lon="8.220255"><ele>50.0</ele><time>2026-04-16T09:32:55.832Z</time></trkpt><trkpt lat="40.6888833" lon="8.22021"><ele>49.0</ele><time>2026-04-16T09:32:56.831Z</time></trkpt><trkpt lat="40.6887317" lon="8.2201917"><ele>48.0</ele><time>2026-04-16T09:32:57.831Z</time></trkpt><trkpt lat="40.688565" lon="8.22018"><ele>48.0</ele><time>2026-04-16T09:32:58.831Z</time></trkpt><trkpt lat="40.6883967" lon="8.2201583"><ele>48.0</ele><time>2026-04-16T09:32:59.832Z</time></trkpt><trkpt lat="40.6882183" lon="8.2201283"><ele>48.0</ele><time>2026-04-16T09:33:00.831Z</time></trkpt><trkpt lat="40.6880433" lon="8.2200833"><ele>48.0</ele><time>2026-04-16T09:33:01.832Z</time></trkpt><trkpt lat="40.6878783" lon="8.22004"><ele>48.0</ele><time>2026-04-16T09:33:02.832Z</time></trkpt><trkpt lat="40.6877367" lon="8.2200217"><ele>48.0</ele><time>2026-04-16T09:33:03.831Z</time></trkpt><trkpt lat="40.6876267" lon="8.2200083"><ele>48.0</ele><time>2026-04-16T09:33:04.832Z</time></trkpt><trkpt lat="40.68753" lon="8.2199833"><ele>48.2</ele><time>2026-04-16T09:33:05.832Z</time></trkpt><trkpt lat="40.687435" lon="8.2199433"><ele>48.4</ele><time>2026-04-16T09:33:06.832Z</time></trkpt><trkpt lat="40.6873383" lon="8.21988"><ele>48.6</ele><time>2026-04-16T09:33:07.832Z</time></trkpt><trkpt lat="40.6872417" lon="8.2197967"><ele>48.800000000000004</ele><time>2026-04-16T09:33:08.831Z</time></trkpt><trkpt lat="40.6871467" lon="8.219725"><ele>49.0</ele><time>2026-04-16T09:33:09.832Z</time></trkpt><trkpt lat="40.687055" lon="8.2196783"><ele>48.49999999999999</ele><time>2026-04-16T09:33:10.832Z</time></trkpt><trkpt lat="40.68697" lon="8.2196417"><ele>48.0</ele><time>2026-04-16T09:33:11.832Z</time></trkpt><trkpt lat="40.6868933" lon="8.219615"><ele>47.5</ele><time>2026-04-16T09:33:12.831Z</time></trkpt><trkpt lat="40.6868283" lon="8.2195733"><ele>47.0</ele><time>2026-04-16T09:33:13.832Z</time></trkpt><trkpt lat="40.6867717" lon="8.2195183"><ele>46.5</ele><time>2026-04-16T09:33:14.831Z</time></trkpt><trkpt lat="40.6867083" lon="8.2194533"><ele>46.0</ele><time>2026-04-16T09:33:15.832Z</time></trkpt><trkpt lat="40.6866367" lon="8.2193817"><ele>46.0</ele><time>2026-04-16T09:33:16.831Z</time></trkpt><trkpt lat="40.6865567" lon="8.2193283"><ele>46.0</ele><time>2026-04-16T09:33:17.832Z</time></trkpt><trkpt lat="40.6864567" lon="8.2193"><ele>46.0</ele><time>2026-04-16T09:33:18.831Z</time></trkpt><trkpt lat="40.6863383" lon="8.2192733"><ele>46.0</ele><time>2026-04-16T09:33:19.831Z</time></trkpt><trkpt lat="40.6862167" lon="8.2192417"><ele>46.0</ele><time>2026-04-16T09:33:20.831Z</time></trkpt><trkpt lat="40.6860917" lon="8.2192233"><ele>45.75</ele><time>2026-04-16T09:33:21.832Z</time></trkpt><trkpt lat="40.685975" lon="8.2192367"><ele>45.5</ele><time>2026-04-16T09:33:22.831Z</time></trkpt><trkpt lat="40.6858683" lon="8.2192583"><ele>45.25</ele><time>2026-04-16T09:33:23.832Z</time></trkpt><trkpt lat="40.68575" lon="8.2192733"><ele>45.0</ele><time>2026-04-16T09:33:24.831Z</time></trkpt><trkpt lat="40.6856167" lon="8.2192767"><ele>45.0</ele><time>2026-04-16T09:33:25.831Z</time></trkpt><trkpt lat="40.68548" lon="8.2192717"><ele>45.0</ele><time>2026-04-16T09:33:26.832Z</time></trkpt><trkpt lat="40.6853417" lon="8.2192867"><ele>45.0</ele><time>2026-04-16T09:33:27.832Z</time></trkpt><trkpt lat="40.6852183" lon="8.2193017"><ele>45.0</ele><time>2026-04-16T09:33:28.832Z</time></trkpt><trkpt lat="40.6851133" lon="8.219305"><ele>45.75</ele><time>2026-04-16T09:33:29.832Z</time></trkpt><trkpt lat="40.68502" lon="8.219295"><ele>46.5</ele><time>2026-04-16T09:33:30.831Z</time></trkpt><trkpt lat="40.68492" lon="8.219255"><ele>47.25</ele><time>2026-04-16T09:33:31.831Z</time></trkpt><trkpt lat="40.6848067" lon="8.2191867"><ele>48.0</ele><time>2026-04-16T09:33:32.831Z</time></trkpt><trkpt lat="40.6846767" lon="8.2191217"><ele>48.0</ele><time>2026-04-16T09:33:33.832Z</time></trkpt><trkpt lat="40.6845433" lon="8.21906"><ele>48.0</ele><time>2026-04-16T09:33:34.831Z</time></trkpt><trkpt lat="40.68439" lon="8.218995"><ele>48.0</ele><time>2026-04-16T09:33:35.831Z</time></trkpt><trkpt lat="40.684235" lon="8.2189183"><ele>47.0</ele><time>2026-04-16T09:33:36.832Z</time></trkpt><trkpt lat="40.6840917" lon="8.21886"><ele>46.0</ele><time>2026-04-16T09:33:37.832Z</time></trkpt><trkpt lat="40.6839383" lon="8.2188117"><ele>45.0</ele><time>2026-04-16T09:33:38.831Z</time></trkpt><trkpt lat="40.68378" lon="8.21878"><ele>45.0</ele><time>2026-04-16T09:33:39.832Z</time></trkpt><trkpt lat="40.683625" lon="8.2187667"><ele>45.0</ele><time>2026-04-16T09:33:40.831Z</time></trkpt><trkpt lat="40.683485" lon="8.2187417"><ele>45.0</ele><time>2026-04-16T09:33:41.832Z</time></trkpt><trkpt lat="40.68335" lon="8.218715"><ele>45.0</ele><time>2026-04-16T09:33:42.831Z</time></trkpt><trkpt lat="40.6832367" lon="8.21868"><ele>45.6</ele><time>2026-04-16T09:33:43.831Z</time></trkpt><trkpt lat="40.68314" lon="8.2186417"><ele>46.2</ele><time>2026-04-16T09:33:44.832Z</time></trkpt><trkpt lat="40.6830583" lon="8.2185917"><ele>46.8</ele><time>2026-04-16T09:33:45.831Z</time></trkpt><trkpt lat="40.6829767" lon="8.2185483"><ele>47.4</ele><time>2026-04-16T09:33:46.831Z</time></trkpt><trkpt lat="40.6828933" lon="8.2185033"><ele>48.0</ele><time>2026-04-16T09:33:47.831Z</time></trkpt><trkpt lat="40.6828133" lon="8.21845"><ele>48.8</ele><time>2026-04-16T09:33:48.831Z</time></trkpt><trkpt lat="40.682735" lon="8.2184017"><ele>49.599999999999994</ele><time>2026-04-16T09:33:49.831Z</time></trkpt><trkpt lat="40.68265" lon="8.2183683"><ele>50.400000000000006</ele><time>2026-04-16T09:33:50.832Z</time></trkpt><trkpt lat="40.6825583" lon="8.2183683"><ele>51.2</ele><time>2026-04-16T09:33:51.832Z</time></trkpt><trkpt lat="40.68246" lon="8.21837"><ele>52.0</ele><time>2026-04-16T09:33:52.832Z</time></trkpt><trkpt lat="40.68236" lon="8.218365"><ele>51.99999999999999</ele><time>2026-04-16T09:33:53.831Z</time></trkpt><trkpt lat="40.68226" lon="8.2183617"><ele>52.0</ele><time>2026-04-16T09:33:54.832Z</time></trkpt><trkpt lat="40.6821667" lon="8.2183667"><ele>52.0</ele><time>2026-04-16T09:33:55.831Z</time></trkpt><trkpt lat="40.682085" lon="8.218385"><ele>52.0</ele><time>2026-04-16T09:33:56.832Z</time></trkpt><trkpt lat="40.682005" lon="8.2184133"><ele>51.99999999999999</ele><time>2026-04-16T09:33:57.832Z</time></trkpt><trkpt lat="40.68194" lon="8.21845"><ele>52.0</ele><time>2026-04-16T09:33:58.832Z</time></trkpt><trkpt lat="40.6818433" lon="8.218505"><ele>52.166666666666664</ele><time>2026-04-16T09:34:00.83Z</time></trkpt><trkpt lat="40.6817767" lon="8.2184783"><ele>52.33333333333333</ele><time>2026-04-16T09:34:02.83Z</time></trkpt><trkpt lat="40.68174" lon="8.2184083"><ele>52.5</ele><time>2026-04-16T09:34:04.83Z</time></trkpt><trkpt lat="40.6816817" lon="8.21835"><ele>52.66666666666667</ele><time>2026-04-16T09:34:26.831Z</time></trkpt><trkpt lat="40.681625" lon="8.2182667"><ele>52.833333333333336</ele><time>2026-04-16T09:34:28.83Z</time></trkpt><trkpt lat="40.681595" lon="8.21813"><ele>53.0</ele><time>2026-04-16T09:34:30.831Z</time></trkpt><trkpt lat="40.6815667" lon="8.217975"><ele>53.4</ele><time>2026-04-16T09:34:32.83Z</time></trkpt><trkpt lat="40.681585" lon="8.2178017"><ele>53.8</ele><time>2026-04-16T09:34:34.831Z</time></trkpt><trkpt lat="40.68162" lon="8.217705"><ele>54.2</ele><time>2026-04-16T09:34:35.83Z</time></trkpt><trkpt lat="40.6816583" lon="8.2175933"><ele>54.6</ele><time>2026-04-16T09:34:36.831Z</time></trkpt><trkpt lat="40.681705" lon="8.2174833"><ele>55.0</ele><time>2026-04-16T09:34:37.831Z</time></trkpt><trkpt lat="40.6817567" lon="8.2173533"><ele>55.0</ele><time>2026-04-16T09:34:38.83Z</time></trkpt><trkpt lat="40.6818133" lon="8.21723"><ele>55.0</ele><time>2026-04-16T09:34:39.83Z</time></trkpt><trkpt lat="40.6818783" lon="8.217095"><ele>55.0</ele><time>2026-04-16T09:34:40.831Z</time></trkpt><trkpt lat="40.6819433" lon="8.2169633"><ele>55.0</ele><time>2026-04-16T09:34:41.831Z</time></trkpt><trkpt lat="40.6819983" lon="8.2168233"><ele>53.8</ele><time>2026-04-16T09:34:42.831Z</time></trkpt><trkpt lat="40.682055" lon="8.216685"><ele>52.6</ele><time>2026-04-16T09:34:43.83Z</time></trkpt><trkpt lat="40.6821083" lon="8.2165683"><ele>51.400000000000006</ele><time>2026-04-16T09:34:44.831Z</time></trkpt><trkpt lat="40.682165" lon="8.2164517"><ele>50.2</ele><time>2026-04-16T09:34:45.831Z</time></trkpt><trkpt lat="40.6822217" lon="8.216335"><ele>49.0</ele><time>2026-04-16T09:34:46.831Z</time></trkpt><trkpt lat="40.6822917" lon="8.2161983"><ele>48.75</ele><time>2026-04-16T09:34:47.831Z</time></trkpt><trkpt lat="40.6823617" lon="8.216065"><ele>48.5</ele><time>2026-04-16T09:34:48.831Z</time></trkpt><trkpt lat="40.6824267" lon="8.2159283"><ele>48.25</ele><time>2026-04-16T09:34:49.83Z</time></trkpt><trkpt lat="40.6824883" lon="8.215785"><ele>48.0</ele><time>2026-04-16T09:34:50.83Z</time></trkpt><trkpt lat="40.6825533" lon="8.2156433"><ele>48.0</ele><time>2026-04-16T09:34:51.831Z</time></trkpt><trkpt lat="40.68263" lon="8.2154983"><ele>48.0</ele><time>2026-04-16T09:34:52.831Z</time></trkpt><trkpt lat="40.6827" lon="8.2153533"><ele>48.0</ele><time>2026-04-16T09:34:53.831Z</time></trkpt><trkpt lat="40.682775" lon="8.2152267"><ele>48.0</ele><time>2026-04-16T09:34:54.83Z</time></trkpt><trkpt lat="40.68284" lon="8.2151267"><ele>46.833333333333336</ele><time>2026-04-16T09:34:55.83Z</time></trkpt><trkpt lat="40.68289" lon="8.2150217"><ele>45.666666666666664</ele><time>2026-04-16T09:34:56.831Z</time></trkpt><trkpt lat="40.6829367" lon="8.2149267"><ele>44.5</ele><time>2026-04-16T09:34:57.831Z</time></trkpt><trkpt lat="40.68298" lon="8.21482"><ele>43.33333333333333</ele><time>2026-04-16T09:34:58.83Z</time></trkpt><trkpt lat="40.68302" lon="8.214725"><ele>42.166666666666664</ele><time>2026-04-16T09:34:59.831Z</time></trkpt><trkpt lat="40.683055" lon="8.2146317"><ele>41.0</ele><time>2026-04-16T09:35:00.83Z</time></trkpt><trkpt lat="40.6830917" lon="8.2145333"><ele>41.0</ele><time>2026-04-16T09:35:01.83Z</time></trkpt><trkpt lat="40.6831367" lon="8.2144333"><ele>41.0</ele><time>2026-04-16T09:35:02.831Z</time></trkpt><trkpt lat="40.68318" lon="8.214355"><ele>41.0</ele><time>2026-04-16T09:35:03.831Z</time></trkpt><trkpt lat="40.683225" lon="8.2142667"><ele>41.0</ele><time>2026-04-16T09:35:04.831Z</time></trkpt><trkpt lat="40.683265" lon="8.2141917"><ele>41.0</ele><time>2026-04-16T09:35:05.83Z</time></trkpt><trkpt lat="40.6833017" lon="8.214115"><ele>41.0</ele><time>2026-04-16T09:35:06.83Z</time></trkpt><trkpt lat="40.6833333" lon="8.2140317"><ele>40.83333333333333</ele><time>2026-04-16T09:35:07.83Z</time></trkpt><trkpt lat="40.6833733" lon="8.2139633"><ele>40.666666666666664</ele><time>2026-04-16T09:35:08.831Z</time></trkpt><trkpt lat="40.68341" lon="8.2138867"><ele>40.5</ele><time>2026-04-16T09:35:09.831Z</time></trkpt><trkpt lat="40.6834467" lon="8.2138083"><ele>40.333333333333336</ele><time>2026-04-16T09:35:10.831Z</time></trkpt><trkpt lat="40.6835117" lon="8.21366"><ele>40.16666666666667</ele><time>2026-04-16T09:35:12.831Z</time></trkpt><trkpt lat="40.683555" lon="8.2135583"><ele>40.0</ele><time>2026-04-16T09:35:13.831Z</time></trkpt><trkpt lat="40.6836" lon="8.2134533"><ele>36.6</ele><time>2026-04-16T09:35:14.83Z</time></trkpt><trkpt lat="40.6836567" lon="8.213345"><ele>33.2</ele><time>2026-04-16T09:35:15.83Z</time></trkpt><trkpt lat="40.6837117" lon="8.213235"><ele>29.799999999999997</ele><time>2026-04-16T09:35:16.83Z</time></trkpt><trkpt lat="40.683765" lon="8.2131233"><ele>26.4</ele><time>2026-04-16T09:35:17.831Z</time></trkpt><trkpt lat="40.68382" lon="8.2130183"><ele>23.0</ele><time>2026-04-16T09:35:18.831Z</time></trkpt><trkpt lat="40.6838717" lon="8.2129083"><ele>22.857142857142858</ele><time>2026-04-16T09:35:19.83Z</time></trkpt><trkpt lat="40.6839267" lon="8.2128067"><ele>22.71428571428571</ele><time>2026-04-16T09:35:20.83Z</time></trkpt><trkpt lat="40.6839667" lon="8.212725"><ele>22.57142857142857</ele><time>2026-04-16T09:35:21.83Z</time></trkpt><trkpt lat="40.6839967" lon="8.2126467"><ele>22.42857142857143</ele><time>2026-04-16T09:35:22.831Z</time></trkpt><trkpt lat="40.6840333" lon="8.21256"><ele>22.285714285714285</ele><time>2026-04-16T09:35:23.831Z</time></trkpt><trkpt lat="40.68407" lon="8.212485"><ele>22.142857142857142</ele><time>2026-04-16T09:35:24.83Z</time></trkpt><trkpt lat="40.68411" lon="8.2124117"><ele>22.0</ele><time>2026-04-16T09:35:25.831Z</time></trkpt><trkpt lat="40.6841883" lon="8.2122917"><ele>22.0</ele><time>2026-04-16T09:35:27.83Z</time></trkpt><trkpt lat="40.6842583" lon="8.212145"><ele>22.0</ele><time>2026-04-16T09:35:29.83Z</time></trkpt><trkpt lat="40.6842967" lon="8.2120733"><ele>22.0</ele><time>2026-04-16T09:35:30.831Z</time></trkpt><trkpt lat="40.6843217" lon="8.2119917"><ele>22.0</ele><time>2026-04-16T09:35:31.831Z</time></trkpt><trkpt lat="40.6843567" lon="8.2119033"><ele>22.0</ele><time>2026-04-16T09:35:32.831Z</time></trkpt><trkpt lat="40.684405" lon="8.2118083"><ele>22.0</ele><time>2026-04-16T09:35:33.83Z</time></trkpt><trkpt lat="40.6844583" lon="8.2117117"><ele>20.8</ele><time>2026-04-16T09:35:34.831Z</time></trkpt><trkpt lat="40.6845067" lon="8.2116067"><ele>19.6</ele><time>2026-04-16T09:35:35.831Z</time></trkpt><trkpt lat="40.6845417" lon="8.2115033"><ele>18.400000000000002</ele><time>2026-04-16T09:35:36.831Z</time></trkpt><trkpt lat="40.6845783" lon="8.2114083"><ele>17.200000000000003</ele><time>2026-04-16T09:35:37.831Z</time></trkpt><trkpt lat="40.68466" lon="8.2112767"><ele>16.0</ele><time>2026-04-16T09:35:39.83Z</time></trkpt><trkpt lat="40.684705" lon="8.211215"><ele>16.0</ele><time>2026-04-16T09:35:40.831Z</time></trkpt><trkpt lat="40.6847567" lon="8.2111383"><ele>16.0</ele><time>2026-04-16T09:35:41.83Z</time></trkpt><trkpt lat="40.684805" lon="8.2110467"><ele>16.0</ele><time>2026-04-16T09:35:42.831Z</time></trkpt><trkpt lat="40.6848617" lon="8.21094"><ele>16.0</ele><time>2026-04-16T09:35:43.83Z</time></trkpt><trkpt lat="40.6849133" lon="8.21083"><ele>16.0</ele><time>2026-04-16T09:35:44.831Z</time></trkpt><trkpt lat="40.6849567" lon="8.2107067"><ele>16.0</ele><time>2026-04-16T09:35:45.83Z</time></trkpt><trkpt lat="40.68501" lon="8.2105817"><ele>16.0</ele><time>2026-04-16T09:35:46.831Z</time></trkpt><trkpt lat="40.6850667" lon="8.21046"><ele>16.0</ele><time>2026-04-16T09:35:47.83Z</time></trkpt><trkpt lat="40.68511" lon="8.2103683"><ele>16.0</ele><time>2026-04-16T09:35:48.83Z</time></trkpt><trkpt lat="40.68514" lon="8.21025"><ele>16.0</ele><time>2026-04-16T09:35:50.831Z</time></trkpt><trkpt lat="40.6850917" lon="8.2101817"><ele>15.999999999999998</ele><time>2026-04-16T09:36:07.83Z</time></trkpt><trkpt lat="40.6850083" lon="8.2101533"><ele>16.0</ele><time>2026-04-16T09:36:10.831Z</time></trkpt><trkpt lat="40.684935" lon="8.210125"><ele>16.0</ele><time>2026-04-16T09:36:13.83Z</time></trkpt><trkpt lat="40.6850017" lon="8.21017"><ele>16.0</ele><time>2026-04-16T09:36:52.83Z</time></trkpt><trkpt lat="40.685065" lon="8.2102167"><ele>15.999999999999998</ele><time>2026-04-16T09:36:54.83Z</time></trkpt><trkpt lat="40.6851167" lon="8.2102917"><ele>16.0</ele><time>2026-04-16T09:37:15.829Z</time></trkpt><trkpt lat="40.6850933" lon="8.21042"><ele>15.999999999999998</ele><time>2026-04-16T09:37:17.83Z</time></trkpt><trkpt lat="40.6850383" lon="8.2105583"><ele>16.0</ele><time>2026-04-16T09:37:19.83Z</time></trkpt><trkpt lat="40.684975" lon="8.2107017"><ele>16.0</ele><time>2026-04-16T09:37:21.83Z</time></trkpt><trkpt lat="40.68493" lon="8.2107817"><ele>16.0</ele><time>2026-04-16T09:37:22.829Z</time></trkpt><trkpt lat="40.68489" lon="8.21085"><ele>15.999999999999998</ele><time>2026-04-16T09:37:23.829Z</time></trkpt><trkpt lat="40.6848583" lon="8.2109233"><ele>16.0</ele><time>2026-04-16T09:37:24.829Z</time></trkpt><trkpt lat="40.6848083" lon="8.2110533"><ele>16.0</ele><time>2026-04-16T09:37:26.829Z</time></trkpt><trkpt lat="40.6847733" lon="8.211155"><ele>16.0</ele><time>2026-04-16T09:37:28.83Z</time></trkpt><trkpt lat="40.68473" lon="8.211245"><ele>16.0</ele><time>2026-04-16T09:37:30.829Z</time></trkpt><trkpt lat="40.6846567" lon="8.21132"><ele>16.0</ele><time>2026-04-16T09:37:33.83Z</time></trkpt><trkpt lat="40.6845983" lon="8.2114083"><ele>16.0</ele><time>2026-04-16T09:37:35.83Z</time></trkpt><trkpt lat="40.6845483" lon="8.2115433"><ele>15.4</ele><time>2026-04-16T09:37:37.83Z</time></trkpt><trkpt lat="40.6844983" lon="8.2116633"><ele>14.8</ele><time>2026-04-16T09:37:39.83Z</time></trkpt><trkpt lat="40.6844317" lon="8.2117833"><ele>14.200000000000001</ele><time>2026-04-16T09:37:41.83Z</time></trkpt><trkpt lat="40.68437" lon="8.2118867"><ele>13.600000000000001</ele><time>2026-04-16T09:37:43.83Z</time></trkpt><trkpt lat="40.6843317" lon="8.2119883"><ele>13.0</ele><time>2026-04-16T09:37:54.83Z</time></trkpt><trkpt lat="40.6842833" lon="8.21211"><ele>14.333333333333332</ele><time>2026-04-16T09:37:57.829Z</time></trkpt><trkpt lat="40.68423" lon="8.2122117"><ele>15.666666666666666</ele><time>2026-04-16T09:37:59.83Z</time></trkpt><trkpt lat="40.684185" lon="8.21233"><ele>17.0</ele><time>2026-04-16T09:38:01.829Z</time></trkpt><trkpt lat="40.6841417" lon="8.2124467"><ele>18.333333333333332</ele><time>2026-04-16T09:38:03.83Z</time></trkpt><trkpt lat="40.6841" lon="8.2125233"><ele>19.666666666666668</ele><time>2026-04-16T09:38:05.829Z</time></trkpt><trkpt lat="40.6840483" lon="8.21258"><ele>21.0</ele><time>2026-04-16T09:38:07.83Z</time></trkpt><trkpt lat="40.683965" lon="8.2125967"><ele>21.0</ele><time>2026-04-16T09:38:18.83Z</time></trkpt><trkpt lat="40.6838983" lon="8.2125117"><ele>21.0</ele><time>2026-04-16T09:38:45.829Z</time></trkpt><trkpt lat="40.68382" lon="8.212465"><ele>21.0</ele><time>2026-04-16T09:38:47.829Z</time></trkpt><trkpt lat="40.68372" lon="8.2124167"><ele>21.0</ele><time>2026-04-16T09:38:49.83Z</time></trkpt><trkpt lat="40.6836083" lon="8.2123517"><ele>21.0</ele><time>2026-04-16T09:38:51.829Z</time></trkpt><trkpt lat="40.6833817" lon="8.2122617"><ele>22.4</ele><time>2026-04-16T09:38:55.829Z</time></trkpt><trkpt lat="40.683275" lon="8.2122117"><ele>23.8</ele><time>2026-04-16T09:38:57.83Z</time></trkpt><trkpt lat="40.6832017" lon="8.2121683"><ele>25.199999999999996</ele><time>2026-04-16T09:38:59.83Z</time></trkpt><trkpt lat="40.683125" lon="8.212135"><ele>26.599999999999998</ele><time>2026-04-16T09:39:02.829Z</time></trkpt><trkpt lat="40.68301" lon="8.21208"><ele>28.0</ele><time>2026-04-16T09:39:05.829Z</time></trkpt><trkpt lat="40.6828917" lon="8.2120283"><ele>28.000000000000004</ele><time>2026-04-16T09:39:07.83Z</time></trkpt><trkpt lat="40.68282" lon="8.2120017"><ele>28.0</ele><time>2026-04-16T09:39:08.83Z</time></trkpt><trkpt lat="40.6827433" lon="8.2119667"><ele>28.0</ele><time>2026-04-16T09:39:09.829Z</time></trkpt><trkpt lat="40.68266" lon="8.2119317"><ele>28.0</ele><time>2026-04-16T09:39:10.83Z</time></trkpt><trkpt lat="40.6825767" lon="8.2118967"><ele>28.000000000000004</ele><time>2026-04-16T09:39:11.83Z</time></trkpt><trkpt lat="40.6824917" lon="8.2118717"><ele>28.0</ele><time>2026-04-16T09:39:12.83Z</time></trkpt><trkpt lat="40.6824167" lon="8.2118417"><ele>28.2</ele><time>2026-04-16T09:39:13.83Z</time></trkpt><trkpt lat="40.68234" lon="8.2118133"><ele>28.4</ele><time>2026-04-16T09:39:14.83Z</time></trkpt><trkpt lat="40.68217" lon="8.211715"><ele>28.599999999999998</ele><time>2026-04-16T09:39:16.83Z</time></trkpt><trkpt lat="40.682085" lon="8.2116733"><ele>28.799999999999997</ele><time>2026-04-16T09:39:17.83Z</time></trkpt><trkpt lat="40.682" lon="8.2116283"><ele>29.0</ele><time>2026-04-16T09:39:18.83Z</time></trkpt><trkpt lat="40.6819083" lon="8.2115917"><ele>29.0</ele><time>2026-04-16T09:39:19.83Z</time></trkpt><trkpt lat="40.6818283" lon="8.2115633"><ele>29.0</ele><time>2026-04-16T09:39:20.83Z</time></trkpt><trkpt lat="40.681755" lon="8.21154"><ele>29.0</ele><time>2026-04-16T09:39:21.83Z</time></trkpt><trkpt lat="40.6816867" lon="8.21151"><ele>29.0</ele><time>2026-04-16T09:39:22.829Z</time></trkpt><trkpt lat="40.6815517" lon="8.2114333"><ele>29.0</ele><time>2026-04-16T09:39:24.83Z</time></trkpt><trkpt lat="40.6814733" lon="8.2113867"><ele>29.0</ele><time>2026-04-16T09:39:25.83Z</time></trkpt><trkpt lat="40.6813917" lon="8.21135"><ele>29.0</ele><time>2026-04-16T09:39:26.829Z</time></trkpt><trkpt lat="40.6813067" lon="8.21132"><ele>29.0</ele><time>2026-04-16T09:39:27.83Z</time></trkpt><trkpt lat="40.681225" lon="8.2112867"><ele>29.0</ele><time>2026-04-16T09:39:28.83Z</time></trkpt><trkpt lat="40.6811333" lon="8.2112533"><ele>29.0</ele><time>2026-04-16T09:39:29.829Z</time></trkpt><trkpt lat="40.6810367" lon="8.21121"><ele>28.4</ele><time>2026-04-16T09:39:30.829Z</time></trkpt><trkpt lat="40.6809383" lon="8.2111583"><ele>27.799999999999997</ele><time>2026-04-16T09:39:31.83Z</time></trkpt><trkpt lat="40.6808433" lon="8.2111083"><ele>27.200000000000003</ele><time>2026-04-16T09:39:32.829Z</time></trkpt><trkpt lat="40.6807483" lon="8.21106"><ele>26.6</ele><time>2026-04-16T09:39:33.83Z</time></trkpt><trkpt lat="40.6806567" lon="8.21101"><ele>26.0</ele><time>2026-04-16T09:39:34.829Z</time></trkpt><trkpt lat="40.6805733" lon="8.2109683"><ele>25.999999999999996</ele><time>2026-04-16T09:39:35.83Z</time></trkpt><trkpt lat="40.6804933" lon="8.21093"><ele>26.0</ele><time>2026-04-16T09:39:36.829Z</time></trkpt><trkpt lat="40.6804117" lon="8.2109017"><ele>26.0</ele><time>2026-04-16T09:39:37.829Z</time></trkpt><trkpt lat="40.680325" lon="8.2108783"><ele>26.0</ele><time>2026-04-16T09:39:38.829Z</time></trkpt><trkpt lat="40.68024" lon="8.2108483"><ele>25.999999999999996</ele><time>2026-04-16T09:39:39.83Z</time></trkpt><trkpt lat="40.6801717" lon="8.2108117"><ele>26.0</ele><time>2026-04-16T09:39:40.83Z</time></trkpt><trkpt lat="40.6800683" lon="8.2107283"><ele>24.400000000000002</ele><time>2026-04-16T09:39:42.828Z</time></trkpt><trkpt lat="40.6799567" lon="8.2106567"><ele>22.8</ele><time>2026-04-16T09:39:44.828Z</time></trkpt><trkpt lat="40.6798917" lon="8.21065"><ele>21.200000000000003</ele><time>2026-04-16T09:39:45.828Z</time></trkpt><trkpt lat="40.6797783" lon="8.2106183"><ele>19.6</ele><time>2026-04-16T09:39:47.828Z</time></trkpt><trkpt lat="40.6796817" lon="8.2105717"><ele>18.0</ele><time>2026-04-16T09:39:49.829Z</time></trkpt><trkpt lat="40.67962" lon="8.210535"><ele>18.0</ele><time>2026-04-16T09:39:50.829Z</time></trkpt><trkpt lat="40.6795517" lon="8.21049"><ele>18.0</ele><time>2026-04-16T09:39:51.828Z</time></trkpt><trkpt lat="40.6794833" lon="8.210445"><ele>18.0</ele><time>2026-04-16T09:39:52.828Z</time></trkpt><trkpt lat="40.6794217" lon="8.2103967"><ele>18.0</ele><time>2026-04-16T09:39:53.829Z</time></trkpt><trkpt lat="40.679355" lon="8.2103667"><ele>18.0</ele><time>2026-04-16T09:39:54.829Z</time></trkpt><trkpt lat="40.67927" lon="8.2103467"><ele>18.0</ele><time>2026-04-16T09:39:56.829Z</time></trkpt><trkpt lat="40.6792067" lon="8.2102983"><ele>18.5</ele><time>2026-04-16T09:40:02.828Z</time></trkpt><trkpt lat="40.6790967" lon="8.2102633"><ele>19.0</ele><time>2026-04-16T09:40:04.829Z</time></trkpt><trkpt lat="40.6790283" lon="8.2102267"><ele>19.5</ele><time>2026-04-16T09:40:05.829Z</time></trkpt><trkpt lat="40.6789583" lon="8.2101917"><ele>20.0</ele><time>2026-04-16T09:40:06.828Z</time></trkpt><trkpt lat="40.6788817" lon="8.21016"><ele>20.5</ele><time>2026-04-16T09:40:07.829Z</time></trkpt><trkpt lat="40.6788167" lon="8.2101317"><ele>21.0</ele><time>2026-04-16T09:40:08.828Z</time></trkpt><trkpt lat="40.6787567" lon="8.2101033"><ele>21.0</ele><time>2026-04-16T09:40:09.829Z</time></trkpt><trkpt lat="40.678665" lon="8.210035"><ele>21.0</ele><time>2026-04-16T09:40:11.829Z</time></trkpt><trkpt lat="40.6786183" lon="8.2099617"><ele>21.0</ele><time>2026-04-16T09:40:13.828Z</time></trkpt><trkpt lat="40.6785967" lon="8.2098683"><ele>21.0</ele><time>2026-04-16T09:40:15.829Z</time></trkpt><trkpt lat="40.6786" lon="8.2097317"><ele>21.0</ele><time>2026-04-16T09:40:17.829Z</time></trkpt><trkpt lat="40.6785833" lon="8.2095683"><ele>20.6</ele><time>2026-04-16T09:40:19.829Z</time></trkpt><trkpt lat="40.6785517" lon="8.209425"><ele>20.200000000000003</ele><time>2026-04-16T09:40:21.829Z</time></trkpt><trkpt lat="40.6785317" lon="8.2093033"><ele>19.799999999999997</ele><time>2026-04-16T09:40:23.828Z</time></trkpt><trkpt lat="40.6784933" lon="8.2091983"><ele>19.4</ele><time>2026-04-16T09:40:25.828Z</time></trkpt><trkpt lat="40.6784033" lon="8.2091433"><ele>19.0</ele><time>2026-04-16T09:40:27.829Z</time></trkpt><trkpt lat="40.6783283" lon="8.2090367"><ele>18.599999999999998</ele><time>2026-04-16T09:40:29.829Z</time></trkpt><trkpt lat="40.6783167" lon="8.2089"><ele>18.2</ele><time>2026-04-16T09:40:31.828Z</time></trkpt><trkpt lat="40.678355" lon="8.2087733"><ele>17.799999999999997</ele><time>2026-04-16T09:40:33.829Z</time></trkpt><trkpt lat="40.6783917" lon="8.20863"><ele>17.4</ele><time>2026-04-16T09:40:35.829Z</time></trkpt><trkpt lat="40.6783967" lon="8.2084683"><ele>17.0</ele><time>2026-04-16T09:40:37.829Z</time></trkpt><trkpt lat="40.6784" lon="8.20833"><ele>17.0</ele><time>2026-04-16T09:40:39.828Z</time></trkpt><trkpt lat="40.678425" lon="8.208185"><ele>17.0</ele><time>2026-04-16T09:40:41.828Z</time></trkpt><trkpt lat="40.6784167" lon="8.2080367"><ele>17.0</ele><time>2026-04-16T09:40:43.828Z</time></trkpt><trkpt lat="40.678385" lon="8.2078967"><ele>17.0</ele><time>2026-04-16T09:40:45.829Z</time></trkpt><trkpt lat="40.678365" lon="8.2077567"><ele>17.0</ele><time>2026-04-16T09:40:47.829Z</time></trkpt><trkpt lat="40.678395" lon="8.2076083"><ele>17.0</ele><time>2026-04-16T09:40:49.828Z</time></trkpt><trkpt lat="40.6784567" lon="8.2074667"><ele>17.0</ele><time>2026-04-16T09:40:51.829Z</time></trkpt><trkpt lat="40.6784717" lon="8.207345"><ele>17.0</ele><time>2026-04-16T09:40:53.829Z</time></trkpt><trkpt lat="40.6784383" lon="8.20727"><ele>17.0</ele><time>2026-04-16T09:40:55.829Z</time></trkpt><trkpt lat="40.6783617" lon="8.20721"><ele>17.0</ele><time>2026-04-16T09:41:26.828Z</time></trkpt><trkpt lat="40.6782367" lon="8.2071567"><ele>16.999999999999996</ele><time>2026-04-16T09:41:28.828Z</time></trkpt><trkpt lat="40.67817" lon="8.2071317"><ele>17.0</ele><time>2026-04-16T09:41:29.829Z</time></trkpt><trkpt lat="40.6781067" lon="8.2071167"><ele>17.0</ele><time>2026-04-16T09:41:30.828Z</time></trkpt><trkpt lat="40.6780367" lon="8.2071017"><ele>17.0</ele><time>2026-04-16T09:41:31.828Z</time></trkpt><trkpt lat="40.67797" lon="8.207075"><ele>17.0</ele><time>2026-04-16T09:41:32.829Z</time></trkpt><trkpt lat="40.6779017" lon="8.2070517"><ele>16.999999999999996</ele><time>2026-04-16T09:41:33.829Z</time></trkpt><trkpt lat="40.6778333" lon="8.2070183"><ele>17.0</ele><time>2026-04-16T09:41:34.829Z</time></trkpt><trkpt lat="40.67776" lon="8.2069833"><ele>18.0</ele><time>2026-04-16T09:41:35.829Z</time></trkpt><trkpt lat="40.6776783" lon="8.20694"><ele>19.0</ele><time>2026-04-16T09:41:36.829Z</time></trkpt><trkpt lat="40.677595" lon="8.20689"><ele>20.0</ele><time>2026-04-16T09:41:37.829Z</time></trkpt><trkpt lat="40.6775017" lon="8.20683"><ele>21.0</ele><time>2026-04-16T09:41:38.829Z</time></trkpt><trkpt lat="40.6773933" lon="8.2067683"><ele>22.0</ele><time>2026-04-16T09:41:39.829Z</time></trkpt><trkpt lat="40.6772933" lon="8.206715"><ele>22.0</ele><time>2026-04-16T09:41:40.829Z</time></trkpt><trkpt lat="40.677195" lon="8.2066667"><ele>22.0</ele><time>2026-04-16T09:41:41.829Z</time></trkpt><trkpt lat="40.6771083" lon="8.2066367"><ele>22.0</ele><time>2026-04-16T09:41:42.829Z</time></trkpt><trkpt lat="40.6770167" lon="8.2066033"><ele>22.0</ele><time>2026-04-16T09:41:43.828Z</time></trkpt><trkpt lat="40.6769133" lon="8.2065583"><ele>22.0</ele><time>2026-04-16T09:41:44.828Z</time></trkpt><trkpt lat="40.6768233" lon="8.2065167"><ele>22.6</ele><time>2026-04-16T09:41:45.829Z</time></trkpt><trkpt lat="40.6767433" lon="8.2064817"><ele>23.200000000000003</ele><time>2026-04-16T09:41:46.829Z</time></trkpt><trkpt lat="40.6766767" lon="8.2064683"><ele>23.8</ele><time>2026-04-16T09:41:47.829Z</time></trkpt><trkpt lat="40.6765917" lon="8.2064017"><ele>24.4</ele><time>2026-04-16T09:41:49.828Z</time></trkpt><trkpt lat="40.6765367" lon="8.2062283"><ele>25.0</ele><time>2026-04-16T09:41:51.829Z</time></trkpt><trkpt lat="40.6764967" lon="8.206115"><ele>25.0</ele><time>2026-04-16T09:41:52.829Z</time></trkpt><trkpt lat="40.6764433" lon="8.2059933"><ele>25.0</ele><time>2026-04-16T09:41:53.828Z</time></trkpt><trkpt lat="40.6763883" lon="8.2058683"><ele>25.0</ele><time>2026-04-16T09:41:54.828Z</time></trkpt><trkpt lat="40.6763283" lon="8.2057517"><ele>25.0</ele><time>2026-04-16T09:41:55.829Z</time></trkpt><trkpt lat="40.6762683" lon="8.2056467"><ele>25.0</ele><time>2026-04-16T09:41:56.829Z</time></trkpt><trkpt lat="40.67622" lon="8.2055367"><ele>25.2</ele><time>2026-04-16T09:41:57.828Z</time></trkpt><trkpt lat="40.67617" lon="8.2054217"><ele>25.4</ele><time>2026-04-16T09:41:58.828Z</time></trkpt><trkpt lat="40.6761183" lon="8.2053033"><ele>25.6</ele><time>2026-04-16T09:41:59.829Z</time></trkpt><trkpt lat="40.676055" lon="8.205185"><ele>25.8</ele><time>2026-04-16T09:42:00.829Z</time></trkpt><trkpt lat="40.6759833" lon="8.20506"><ele>26.0</ele><time>2026-04-16T09:42:01.829Z</time></trkpt><trkpt lat="40.675905" lon="8.2049467"><ele>26.200000000000003</ele><time>2026-04-16T09:42:02.828Z</time></trkpt><trkpt lat="40.67583" lon="8.2048533"><ele>26.400000000000002</ele><time>2026-04-16T09:42:03.829Z</time></trkpt><trkpt lat="40.6757633" lon="8.204755"><ele>26.6</ele><time>2026-04-16T09:42:04.829Z</time></trkpt><trkpt lat="40.6756967" lon="8.2046567"><ele>26.8</ele><time>2026-04-16T09:42:05.829Z</time></trkpt><trkpt lat="40.6756367" lon="8.2045567"><ele>27.0</ele><time>2026-04-16T09:42:06.829Z</time></trkpt><trkpt lat="40.6755717" lon="8.2044517"><ele>27.333333333333332</ele><time>2026-04-16T09:42:07.829Z</time></trkpt><trkpt lat="40.6755033" lon="8.2043517"><ele>27.666666666666664</ele><time>2026-04-16T09:42:08.829Z</time></trkpt><trkpt lat="40.6754383" lon="8.2042617"><ele>28.0</ele><time>2026-04-16T09:42:09.828Z</time></trkpt><trkpt lat="40.6754017" lon="8.20419"><ele>28.333333333333332</ele><time>2026-04-16T09:42:10.829Z</time></trkpt><trkpt lat="40.6753617" lon="8.2040867"><ele>28.666666666666664</ele><time>2026-04-16T09:42:12.829Z</time></trkpt><trkpt lat="40.6753333" lon="8.20398"><ele>29.0</ele><time>2026-04-16T09:42:37.827Z</time></trkpt><trkpt lat="40.6752967" lon="8.20386"><ele>28.999999999999996</ele><time>2026-04-16T09:42:39.827Z</time></trkpt><trkpt lat="40.67525" lon="8.2037383"><ele>29.0</ele><time>2026-04-16T09:42:41.828Z</time></trkpt><trkpt lat="40.6751983" lon="8.20363"><ele>29.0</ele><time>2026-04-16T09:42:43.828Z</time></trkpt><trkpt lat="40.67517" lon="8.2035467"><ele>29.0</ele><time>2026-04-16T09:42:45.827Z</time></trkpt><trkpt lat="40.6751383" lon="8.2034317"><ele>28.999999999999996</ele><time>2026-04-16T09:42:48.828Z</time></trkpt><trkpt lat="40.675105" lon="8.2033383"><ele>29.0</ele><time>2026-04-16T09:43:16.828Z</time></trkpt><trkpt lat="40.67515" lon="8.20341"><ele>28.999999999999996</ele><time>2026-04-16T10:18:17.82Z</time></trkpt><trkpt lat="40.6751283" lon="8.2035067"><ele>29.0</ele><time>2026-04-16T10:18:27.82Z</time></trkpt><trkpt lat="40.6750767" lon="8.2035867"><ele>29.0</ele><time>2026-04-16T10:18:29.82Z</time></trkpt><trkpt lat="40.6749983" lon="8.20368"><ele>29.0</ele><time>2026-04-16T10:18:31.82Z</time></trkpt><trkpt lat="40.674915" lon="8.2037967"><ele>28.999999999999996</ele><time>2026-04-16T10:18:33.819Z</time></trkpt><trkpt lat="40.6748767" lon="8.203865"><ele>29.0</ele><time>2026-04-16T10:18:34.819Z</time></trkpt><trkpt lat="40.6748217" lon="8.2039267"><ele>28.999999999999996</ele><time>2026-04-16T10:18:35.819Z</time></trkpt><trkpt lat="40.674765" lon="8.2039933"><ele>29.0</ele><time>2026-04-16T10:18:36.82Z</time></trkpt><trkpt lat="40.6747067" lon="8.2040667"><ele>29.0</ele><time>2026-04-16T10:18:37.82Z</time></trkpt><trkpt lat="40.6746433" lon="8.20414"><ele>29.0</ele><time>2026-04-16T10:18:38.82Z</time></trkpt><trkpt lat="40.6745767" lon="8.2042133"><ele>28.999999999999996</ele><time>2026-04-16T10:18:39.82Z</time></trkpt><trkpt lat="40.6745133" lon="8.204285"><ele>29.0</ele><time>2026-04-16T10:18:40.82Z</time></trkpt><trkpt lat="40.6744517" lon="8.2043583"><ele>29.0</ele><time>2026-04-16T10:18:41.819Z</time></trkpt><trkpt lat="40.6743833" lon="8.2044383"><ele>29.0</ele><time>2026-04-16T10:18:42.819Z</time></trkpt><trkpt lat="40.6743117" lon="8.2045267"><ele>29.0</ele><time>2026-04-16T10:18:43.819Z</time></trkpt><trkpt lat="40.6742367" lon="8.2046167"><ele>29.0</ele><time>2026-04-16T10:18:44.82Z</time></trkpt><trkpt lat="40.67416" lon="8.2047117"><ele>29.0</ele><time>2026-04-16T10:18:45.82Z</time></trkpt><trkpt lat="40.67408" lon="8.2048083"><ele>28.5</ele><time>2026-04-16T10:18:46.82Z</time></trkpt><trkpt lat="40.673995" lon="8.204905"><ele>28.0</ele><time>2026-04-16T10:18:47.819Z</time></trkpt><trkpt lat="40.6739117" lon="8.2050067"><ele>27.5</ele><time>2026-04-16T10:18:48.82Z</time></trkpt><trkpt lat="40.6738183" lon="8.2051117"><ele>27.0</ele><time>2026-04-16T10:18:49.819Z</time></trkpt><trkpt lat="40.6737233" lon="8.205215"><ele>27.0</ele><time>2026-04-16T10:18:50.819Z</time></trkpt><trkpt lat="40.6736317" lon="8.2053333"><ele>27.0</ele><time>2026-04-16T10:18:51.82Z</time></trkpt><trkpt lat="40.6735417" lon="8.205445"><ele>27.0</ele><time>2026-04-16T10:18:52.82Z</time></trkpt><trkpt lat="40.6734433" lon="8.2055567"><ele>27.0</ele><time>2026-04-16T10:18:53.82Z</time></trkpt><trkpt lat="40.6733483" lon="8.2056783"><ele>27.5</ele><time>2026-04-16T10:18:54.819Z</time></trkpt><trkpt lat="40.67325" lon="8.2058117"><ele>28.0</ele><time>2026-04-16T10:18:55.819Z</time></trkpt><trkpt lat="40.6731517" lon="8.2059433"><ele>28.5</ele><time>2026-04-16T10:18:56.82Z</time></trkpt><trkpt lat="40.673055" lon="8.2060717"><ele>29.0</ele><time>2026-04-16T10:18:57.82Z</time></trkpt><trkpt lat="40.6729483" lon="8.2061883"><ele>29.0</ele><time>2026-04-16T10:18:58.82Z</time></trkpt><trkpt lat="40.6728367" lon="8.206315"><ele>29.0</ele><time>2026-04-16T10:18:59.819Z</time></trkpt><trkpt lat="40.67273" lon="8.20645"><ele>29.0</ele><time>2026-04-16T10:19:00.819Z</time></trkpt><trkpt lat="40.672625" lon="8.2065867"><ele>29.0</ele><time>2026-04-16T10:19:01.82Z</time></trkpt><trkpt lat="40.6725167" lon="8.2067233"><ele>29.0</ele><time>2026-04-16T10:19:02.819Z</time></trkpt><trkpt lat="40.67241" lon="8.2068583"><ele>29.0</ele><time>2026-04-16T10:19:03.82Z</time></trkpt><trkpt lat="40.6722967" lon="8.2069917"><ele>29.0</ele><time>2026-04-16T10:19:04.819Z</time></trkpt><trkpt lat="40.672185" lon="8.2071233"><ele>29.0</ele><time>2026-04-16T10:19:05.82Z</time></trkpt><trkpt lat="40.6720733" lon="8.2072517"><ele>29.0</ele><time>2026-04-16T10:19:06.82Z</time></trkpt><trkpt lat="40.6719583" lon="8.2073833"><ele>29.0</ele><time>2026-04-16T10:19:07.819Z</time></trkpt><trkpt lat="40.6718433" lon="8.2075217"><ele>29.0</ele><time>2026-04-16T10:19:08.819Z</time></trkpt><trkpt lat="40.67173" lon="8.2076617"><ele>29.0</ele><time>2026-04-16T10:19:09.819Z</time></trkpt><trkpt lat="40.6716133" lon="8.2078"><ele>29.0</ele><time>2026-04-16T10:19:10.819Z</time></trkpt><trkpt lat="40.6714933" lon="8.207945"><ele>29.0</ele><time>2026-04-16T10:19:11.82Z</time></trkpt><trkpt lat="40.6713733" lon="8.20809"><ele>29.0</ele><time>2026-04-16T10:19:12.819Z</time></trkpt><trkpt lat="40.671255" lon="8.2082383"><ele>29.0</ele><time>2026-04-16T10:19:13.82Z</time></trkpt><trkpt lat="40.6711333" lon="8.208385"><ele>29.666666666666664</ele><time>2026-04-16T10:19:14.82Z</time></trkpt><trkpt lat="40.671015" lon="8.2085333"><ele>30.333333333333336</ele><time>2026-04-16T10:19:15.82Z</time></trkpt><trkpt lat="40.6708967" lon="8.208685"><ele>31.0</ele><time>2026-04-16T10:19:16.82Z</time></trkpt><trkpt lat="40.6707817" lon="8.2088283"><ele>31.0</ele><time>2026-04-16T10:19:17.819Z</time></trkpt><trkpt lat="40.6706633" lon="8.2089717"><ele>31.0</ele><time>2026-04-16T10:19:18.82Z</time></trkpt><trkpt lat="40.6705467" lon="8.2091133"><ele>31.0</ele><time>2026-04-16T10:19:19.819Z</time></trkpt><trkpt lat="40.670435" lon="8.209255"><ele>31.333333333333336</ele><time>2026-04-16T10:19:20.82Z</time></trkpt><trkpt lat="40.6703217" lon="8.2093883"><ele>31.666666666666664</ele><time>2026-04-16T10:19:21.82Z</time></trkpt><trkpt lat="40.670205" lon="8.209525"><ele>32.0</ele><time>2026-04-16T10:19:22.819Z</time></trkpt><trkpt lat="40.67009" lon="8.2096567"><ele>32.0</ele><time>2026-04-16T10:19:23.819Z</time></trkpt><trkpt lat="40.6699767" lon="8.2097883"><ele>32.0</ele><time>2026-04-16T10:19:24.82Z</time></trkpt><trkpt lat="40.6698567" lon="8.2099233"><ele>32.0</ele><time>2026-04-16T10:19:25.82Z</time></trkpt><trkpt lat="40.66973" lon="8.2100483"><ele>32.33333333333333</ele><time>2026-04-16T10:19:26.819Z</time></trkpt><trkpt lat="40.6695983" lon="8.2101567"><ele>32.666666666666664</ele><time>2026-04-16T10:19:27.819Z</time></trkpt><trkpt lat="40.6694533" lon="8.2102533"><ele>33.0</ele><time>2026-04-16T10:19:28.82Z</time></trkpt><trkpt lat="40.6693067" lon="8.210325"><ele>33.666666666666664</ele><time>2026-04-16T10:19:29.82Z</time></trkpt><trkpt lat="40.6691517" lon="8.2103883"><ele>34.33333333333333</ele><time>2026-04-16T10:19:30.82Z</time></trkpt><trkpt lat="40.6689883" lon="8.2104383"><ele>35.0</ele><time>2026-04-16T10:19:31.819Z</time></trkpt><trkpt lat="40.6688267" lon="8.2104717"><ele>35.0</ele><time>2026-04-16T10:19:32.819Z</time></trkpt><trkpt lat="40.66866" lon="8.2104983"><ele>35.0</ele><time>2026-04-16T10:19:33.82Z</time></trkpt><trkpt lat="40.66849" lon="8.2105183"><ele>35.0</ele><time>2026-04-16T10:19:34.82Z</time></trkpt><trkpt lat="40.6683183" lon="8.2105333"><ele>35.33333333333333</ele><time>2026-04-16T10:19:35.819Z</time></trkpt><trkpt lat="40.6681483" lon="8.2105483"><ele>35.666666666666664</ele><time>2026-04-16T10:19:36.819Z</time></trkpt><trkpt lat="40.667975" lon="8.2105717"><ele>36.0</ele><time>2026-04-16T10:19:37.819Z</time></trkpt><trkpt lat="40.667805" lon="8.2105833"><ele>36.0</ele><time>2026-04-16T10:19:38.819Z</time></trkpt><trkpt lat="40.6676333" lon="8.2106067"><ele>36.0</ele><time>2026-04-16T10:19:39.82Z</time></trkpt><trkpt lat="40.6674567" lon="8.21062"><ele>36.0</ele><time>2026-04-16T10:19:40.82Z</time></trkpt><trkpt lat="40.6672867" lon="8.21063"><ele>36.0</ele><time>2026-04-16T10:19:41.82Z</time></trkpt><trkpt lat="40.667115" lon="8.21065"><ele>36.0</ele><time>2026-04-16T10:19:42.82Z</time></trkpt><trkpt lat="40.6669383" lon="8.2106683"><ele>36.0</ele><time>2026-04-16T10:19:43.82Z</time></trkpt><trkpt lat="40.666765" lon="8.21069"><ele>36.0</ele><time>2026-04-16T10:19:44.819Z</time></trkpt><trkpt lat="40.666595" lon="8.2107117"><ele>36.0</ele><time>2026-04-16T10:19:45.819Z</time></trkpt><trkpt lat="40.666425" lon="8.2107217"><ele>36.0</ele><time>2026-04-16T10:19:46.82Z</time></trkpt><trkpt lat="40.666255" lon="8.2107333"><ele>36.0</ele><time>2026-04-16T10:19:47.819Z</time></trkpt><trkpt lat="40.6660817" lon="8.2107517"><ele>36.0</ele><time>2026-04-16T10:19:48.819Z</time></trkpt><trkpt lat="40.6659083" lon="8.2107767"><ele>36.0</ele><time>2026-04-16T10:19:49.819Z</time></trkpt><trkpt lat="40.6657283" lon="8.2107917"><ele>36.0</ele><time>2026-04-16T10:19:50.82Z</time></trkpt><trkpt lat="40.66555" lon="8.2108033"><ele>36.0</ele><time>2026-04-16T10:19:51.82Z</time></trkpt><trkpt lat="40.6653683" lon="8.2108183"><ele>36.0</ele><time>2026-04-16T10:19:52.82Z</time></trkpt><trkpt lat="40.6651883" lon="8.2108317"><ele>36.0</ele><time>2026-04-16T10:19:53.82Z</time></trkpt><trkpt lat="40.6650117" lon="8.2108483"><ele>36.0</ele><time>2026-04-16T10:19:54.82Z</time></trkpt><trkpt lat="40.6648367" lon="8.2108633"><ele>36.0</ele><time>2026-04-16T10:19:55.819Z</time></trkpt><trkpt lat="40.6646617" lon="8.2108833"><ele>36.0</ele><time>2026-04-16T10:19:56.82Z</time></trkpt><trkpt lat="40.6644867" lon="8.2109017"><ele>36.0</ele><time>2026-04-16T10:19:57.819Z</time></trkpt><trkpt lat="40.66431" lon="8.2109217"><ele>36.0</ele><time>2026-04-16T10:19:58.819Z</time></trkpt><trkpt lat="40.66413" lon="8.2109433"><ele>36.333333333333336</ele><time>2026-04-16T10:19:59.819Z</time></trkpt><trkpt lat="40.663955" lon="8.2109517"><ele>36.66666666666667</ele><time>2026-04-16T10:20:00.819Z</time></trkpt><trkpt lat="40.66378" lon="8.2109683"><ele>37.0</ele><time>2026-04-16T10:20:01.82Z</time></trkpt><trkpt lat="40.6636067" lon="8.2109833"><ele>37.0</ele><time>2026-04-16T10:20:02.82Z</time></trkpt><trkpt lat="40.6634317" lon="8.211005"><ele>37.0</ele><time>2026-04-16T10:20:03.82Z</time></trkpt><trkpt lat="40.6632583" lon="8.2110283"><ele>37.0</ele><time>2026-04-16T10:20:04.819Z</time></trkpt><trkpt lat="40.6630867" lon="8.21105"><ele>37.0</ele><time>2026-04-16T10:20:05.82Z</time></trkpt><trkpt lat="40.6629083" lon="8.2110783"><ele>37.0</ele><time>2026-04-16T10:20:06.819Z</time></trkpt><trkpt lat="40.6627267" lon="8.211095"><ele>37.0</ele><time>2026-04-16T10:20:07.82Z</time></trkpt><trkpt lat="40.6625483" lon="8.2111067"><ele>36.66666666666667</ele><time>2026-04-16T10:20:08.819Z</time></trkpt><trkpt lat="40.6623667" lon="8.2111233"><ele>36.333333333333336</ele><time>2026-04-16T10:20:09.819Z</time></trkpt><trkpt lat="40.66219" lon="8.21114"><ele>36.0</ele><time>2026-04-16T10:20:10.819Z</time></trkpt><trkpt lat="40.6620067" lon="8.211155"><ele>35.666666666666664</ele><time>2026-04-16T10:20:11.819Z</time></trkpt><trkpt lat="40.6618317" lon="8.21118"><ele>35.33333333333333</ele><time>2026-04-16T10:20:12.819Z</time></trkpt><trkpt lat="40.6616517" lon="8.2112017"><ele>35.0</ele><time>2026-04-16T10:20:13.82Z</time></trkpt><trkpt lat="40.6614717" lon="8.2112183"><ele>35.0</ele><time>2026-04-16T10:20:14.82Z</time></trkpt><trkpt lat="40.66129" lon="8.211235"><ele>35.0</ele><time>2026-04-16T10:20:15.82Z</time></trkpt><trkpt lat="40.66111" lon="8.2112483"><ele>35.0</ele><time>2026-04-16T10:20:16.82Z</time></trkpt><trkpt lat="40.660935" lon="8.2112683"><ele>35.666666666666664</ele><time>2026-04-16T10:20:17.819Z</time></trkpt><trkpt lat="40.6607533" lon="8.2112883"><ele>36.333333333333336</ele><time>2026-04-16T10:20:18.82Z</time></trkpt><trkpt lat="40.660575" lon="8.2113067"><ele>37.0</ele><time>2026-04-16T10:20:19.82Z</time></trkpt><trkpt lat="40.6604033" lon="8.21132"><ele>36.333333333333336</ele><time>2026-04-16T10:20:20.82Z</time></trkpt><trkpt lat="40.6602217" lon="8.211335"><ele>35.666666666666664</ele><time>2026-04-16T10:20:21.82Z</time></trkpt><trkpt lat="40.66005" lon="8.2113533"><ele>35.0</ele><time>2026-04-16T10:20:22.82Z</time></trkpt><trkpt lat="40.6598783" lon="8.2113767"><ele>35.0</ele><time>2026-04-16T10:20:23.819Z</time></trkpt><trkpt lat="40.6597067" lon="8.2113983"><ele>35.0</ele><time>2026-04-16T10:20:24.82Z</time></trkpt><trkpt lat="40.659535" lon="8.2114167"><ele>35.0</ele><time>2026-04-16T10:20:25.819Z</time></trkpt><trkpt lat="40.6593667" lon="8.2114367"><ele>35.0</ele><time>2026-04-16T10:20:26.82Z</time></trkpt><trkpt lat="40.6591917" lon="8.2114567"><ele>35.0</ele><time>2026-04-16T10:20:27.82Z</time></trkpt><trkpt lat="40.6590183" lon="8.211475"><ele>35.0</ele><time>2026-04-16T10:20:28.82Z</time></trkpt><trkpt lat="40.6588367" lon="8.2114917"><ele>35.0</ele><time>2026-04-16T10:20:29.82Z</time></trkpt><trkpt lat="40.6586683" lon="8.2115183"><ele>35.0</ele><time>2026-04-16T10:20:30.819Z</time></trkpt><trkpt lat="40.6584917" lon="8.211535"><ele>35.0</ele><time>2026-04-16T10:20:31.82Z</time></trkpt><trkpt lat="40.658315" lon="8.2115517"><ele>35.666666666666664</ele><time>2026-04-16T10:20:32.819Z</time></trkpt><trkpt lat="40.6581383" lon="8.211575"><ele>36.333333333333336</ele><time>2026-04-16T10:20:33.82Z</time></trkpt><trkpt lat="40.657965" lon="8.2115933"><ele>37.0</ele><time>2026-04-16T10:20:34.819Z</time></trkpt><trkpt lat="40.657785" lon="8.211605"><ele>37.0</ele><time>2026-04-16T10:20:35.82Z</time></trkpt><trkpt lat="40.6574267" lon="8.2116283"><ele>37.0</ele><time>2026-04-16T10:20:37.819Z</time></trkpt><trkpt lat="40.657245" lon="8.2116467"><ele>37.0</ele><time>2026-04-16T10:20:38.82Z</time></trkpt><trkpt lat="40.6570583" lon="8.2116683"><ele>37.0</ele><time>2026-04-16T10:20:39.82Z</time></trkpt><trkpt lat="40.6568683" lon="8.2116867"><ele>37.0</ele><time>2026-04-16T10:20:40.82Z</time></trkpt><trkpt lat="40.656685" lon="8.21171"><ele>37.0</ele><time>2026-04-16T10:20:41.82Z</time></trkpt><trkpt lat="40.6564967" lon="8.2117317"><ele>37.0</ele><time>2026-04-16T10:20:42.819Z</time></trkpt><trkpt lat="40.6563133" lon="8.2117517"><ele>37.0</ele><time>2026-04-16T10:20:43.82Z</time></trkpt><trkpt lat="40.6561317" lon="8.2117617"><ele>37.333333333333336</ele><time>2026-04-16T10:20:44.82Z</time></trkpt><trkpt lat="40.6559583" lon="8.2117817"><ele>37.666666666666664</ele><time>2026-04-16T10:20:45.819Z</time></trkpt><trkpt lat="40.6557917" lon="8.2117917"><ele>38.0</ele><time>2026-04-16T10:20:46.82Z</time></trkpt><trkpt lat="40.6556333" lon="8.2118033"><ele>38.0</ele><time>2026-04-16T10:20:47.82Z</time></trkpt><trkpt lat="40.655475" lon="8.21181"><ele>38.0</ele><time>2026-04-16T10:20:48.819Z</time></trkpt><trkpt lat="40.6553317" lon="8.21183"><ele>38.0</ele><time>2026-04-16T10:20:49.82Z</time></trkpt><trkpt lat="40.6552" lon="8.2118483"><ele>38.0</ele><time>2026-04-16T10:20:50.819Z</time></trkpt><trkpt lat="40.655075" lon="8.2118583"><ele>37.83333333333333</ele><time>2026-04-16T10:20:51.819Z</time></trkpt><trkpt lat="40.6549867" lon="8.2118617"><ele>37.666666666666664</ele><time>2026-04-16T10:20:52.82Z</time></trkpt><trkpt lat="40.6549017" lon="8.211825"><ele>37.5</ele><time>2026-04-16T10:20:53.82Z</time></trkpt><trkpt lat="40.654845" lon="8.2117583"><ele>37.333333333333336</ele><time>2026-04-16T10:20:54.82Z</time></trkpt><trkpt lat="40.65481" lon="8.2116633"><ele>37.16666666666667</ele><time>2026-04-16T10:20:55.82Z</time></trkpt><trkpt lat="40.6547883" lon="8.2115517"><ele>37.0</ele><time>2026-04-16T10:20:56.82Z</time></trkpt><trkpt lat="40.6547783" lon="8.2114267"><ele>37.0</ele><time>2026-04-16T10:20:57.82Z</time></trkpt><trkpt lat="40.654765" lon="8.21129"><ele>37.0</ele><time>2026-04-16T10:20:58.819Z</time></trkpt><trkpt lat="40.6547583" lon="8.2111417"><ele>37.0</ele><time>2026-04-16T10:20:59.819Z</time></trkpt><trkpt lat="40.654755" lon="8.210995"><ele>37.0</ele><time>2026-04-16T10:21:00.82Z</time></trkpt><trkpt lat="40.6547483" lon="8.2108483"><ele>37.0</ele><time>2026-04-16T10:21:01.819Z</time></trkpt><trkpt lat="40.6547367" lon="8.210705"><ele>37.25</ele><time>2026-04-16T10:21:02.82Z</time></trkpt><trkpt lat="40.654715" lon="8.210555"><ele>37.5</ele><time>2026-04-16T10:21:03.82Z</time></trkpt><trkpt lat="40.6546933" lon="8.21041"><ele>37.75</ele><time>2026-04-16T10:21:04.819Z</time></trkpt><trkpt lat="40.6546567" lon="8.2102583"><ele>38.0</ele><time>2026-04-16T10:21:05.819Z</time></trkpt><trkpt lat="40.6546117" lon="8.2101067"><ele>38.0</ele><time>2026-04-16T10:21:06.819Z</time></trkpt><trkpt lat="40.6545567" lon="8.2099617"><ele>38.0</ele><time>2026-04-16T10:21:07.819Z</time></trkpt><trkpt lat="40.6544417" lon="8.20969"><ele>38.0</ele><time>2026-04-16T10:21:09.82Z</time></trkpt><trkpt lat="40.6543767" lon="8.2095583"><ele>38.25</ele><time>2026-04-16T10:21:10.82Z</time></trkpt><trkpt lat="40.6542967" lon="8.2094217"><ele>38.5</ele><time>2026-04-16T10:21:11.82Z</time></trkpt><trkpt lat="40.6542" lon="8.2092817"><ele>38.75</ele><time>2026-04-16T10:21:12.82Z</time></trkpt><trkpt lat="40.6540967" lon="8.2091433"><ele>39.0</ele><time>2026-04-16T10:21:13.82Z</time></trkpt><trkpt lat="40.65399" lon="8.2089967"><ele>38.666666666666664</ele><time>2026-04-16T10:21:14.82Z</time></trkpt><trkpt lat="40.6538817" lon="8.2088467"><ele>38.33333333333333</ele><time>2026-04-16T10:21:15.819Z</time></trkpt><trkpt lat="40.6537717" lon="8.208695"><ele>38.0</ele><time>2026-04-16T10:21:16.819Z</time></trkpt><trkpt lat="40.6536667" lon="8.20854"><ele>37.33333333333333</ele><time>2026-04-16T10:21:17.818Z</time></trkpt><trkpt lat="40.65356" lon="8.2083883"><ele>36.666666666666664</ele><time>2026-04-16T10:21:18.819Z</time></trkpt><trkpt lat="40.65345" lon="8.20823"><ele>36.0</ele><time>2026-04-16T10:21:19.819Z</time></trkpt><trkpt lat="40.6533383" lon="8.208075"><ele>36.0</ele><time>2026-04-16T10:21:20.819Z</time></trkpt><trkpt lat="40.6532233" lon="8.20792"><ele>36.0</ele><time>2026-04-16T10:21:21.819Z</time></trkpt><trkpt lat="40.6531083" lon="8.207755"><ele>36.0</ele><time>2026-04-16T10:21:22.819Z</time></trkpt><trkpt lat="40.65299" lon="8.20759"><ele>36.0</ele><time>2026-04-16T10:21:23.819Z</time></trkpt><trkpt lat="40.65287" lon="8.2074333"><ele>36.0</ele><time>2026-04-16T10:21:24.819Z</time></trkpt><trkpt lat="40.6527433" lon="8.2072667"><ele>36.0</ele><time>2026-04-16T10:21:25.818Z</time></trkpt><trkpt lat="40.652625" lon="8.2070967"><ele>36.0</ele><time>2026-04-16T10:21:26.819Z</time></trkpt><trkpt lat="40.6524983" lon="8.2069267"><ele>36.0</ele><time>2026-04-16T10:21:27.818Z</time></trkpt><trkpt lat="40.6523717" lon="8.206755"><ele>36.0</ele><time>2026-04-16T10:21:28.818Z</time></trkpt><trkpt lat="40.6522483" lon="8.206585"><ele>35.666666666666664</ele><time>2026-04-16T10:21:29.819Z</time></trkpt><trkpt lat="40.6521183" lon="8.206425"><ele>35.33333333333333</ele><time>2026-04-16T10:21:30.819Z</time></trkpt><trkpt lat="40.651995" lon="8.20625"><ele>35.0</ele><time>2026-04-16T10:21:31.819Z</time></trkpt><trkpt lat="40.65187" lon="8.2060733"><ele>35.0</ele><time>2026-04-16T10:21:32.819Z</time></trkpt><trkpt lat="40.6517417" lon="8.2058933"><ele>35.0</ele><time>2026-04-16T10:21:33.818Z</time></trkpt><trkpt lat="40.6516167" lon="8.205715"><ele>35.0</ele><time>2026-04-16T10:21:34.818Z</time></trkpt><trkpt lat="40.65149" lon="8.2055383"><ele>34.666666666666664</ele><time>2026-04-16T10:21:35.818Z</time></trkpt><trkpt lat="40.6513583" lon="8.20536"><ele>34.333333333333336</ele><time>2026-04-16T10:21:36.819Z</time></trkpt><trkpt lat="40.6512317" lon="8.2051817"><ele>34.0</ele><time>2026-04-16T10:21:37.819Z</time></trkpt><trkpt lat="40.6511017" lon="8.2049983"><ele>34.333333333333336</ele><time>2026-04-16T10:21:38.819Z</time></trkpt><trkpt lat="40.6509683" lon="8.2048217"><ele>34.666666666666664</ele><time>2026-04-16T10:21:39.819Z</time></trkpt><trkpt lat="40.650835" lon="8.204645"><ele>35.0</ele><time>2026-04-16T10:21:40.818Z</time></trkpt><trkpt lat="40.6507033" lon="8.2044667"><ele>35.0</ele><time>2026-04-16T10:21:41.819Z</time></trkpt><trkpt lat="40.6505767" lon="8.2042883"><ele>35.0</ele><time>2026-04-16T10:21:42.818Z</time></trkpt><trkpt lat="40.65045" lon="8.204115"><ele>35.0</ele><time>2026-04-16T10:21:43.818Z</time></trkpt><trkpt lat="40.6503217" lon="8.2039417"><ele>34.33333333333333</ele><time>2026-04-16T10:21:44.819Z</time></trkpt><trkpt lat="40.6501933" lon="8.203765"><ele>33.666666666666664</ele><time>2026-04-16T10:21:45.818Z</time></trkpt><trkpt lat="40.6500683" lon="8.2035867"><ele>33.0</ele><time>2026-04-16T10:21:46.819Z</time></trkpt><trkpt lat="40.6499417" lon="8.2034083"><ele>33.0</ele><time>2026-04-16T10:21:47.819Z</time></trkpt><trkpt lat="40.6498133" lon="8.2032383"><ele>33.0</ele><time>2026-04-16T10:21:48.818Z</time></trkpt><trkpt lat="40.6496817" lon="8.2030667"><ele>33.0</ele><time>2026-04-16T10:21:49.819Z</time></trkpt><trkpt lat="40.6495533" lon="8.2028917"><ele>33.0</ele><time>2026-04-16T10:21:50.819Z</time></trkpt><trkpt lat="40.649425" lon="8.2027183"><ele>33.0</ele><time>2026-04-16T10:21:51.819Z</time></trkpt><trkpt lat="40.6493" lon="8.202545"><ele>33.0</ele><time>2026-04-16T10:21:52.818Z</time></trkpt><trkpt lat="40.6491733" lon="8.2023667"><ele>32.666666666666664</ele><time>2026-04-16T10:21:53.819Z</time></trkpt><trkpt lat="40.6490483" lon="8.2021883"><ele>32.33333333333333</ele><time>2026-04-16T10:21:54.819Z</time></trkpt><trkpt lat="40.648925" lon="8.202015"><ele>32.0</ele><time>2026-04-16T10:21:55.819Z</time></trkpt><trkpt lat="40.6488033" lon="8.2018467"><ele>32.0</ele><time>2026-04-16T10:21:56.819Z</time></trkpt><trkpt lat="40.6486767" lon="8.2016783"><ele>32.0</ele><time>2026-04-16T10:21:57.819Z</time></trkpt><trkpt lat="40.6485483" lon="8.2015017"><ele>32.0</ele><time>2026-04-16T10:21:58.819Z</time></trkpt><trkpt lat="40.6484167" lon="8.20134"><ele>32.0</ele><time>2026-04-16T10:21:59.818Z</time></trkpt><trkpt lat="40.6482683" lon="8.201205"><ele>32.0</ele><time>2026-04-16T10:22:00.819Z</time></trkpt><trkpt lat="40.648105" lon="8.2010917"><ele>32.0</ele><time>2026-04-16T10:22:01.818Z</time></trkpt><trkpt lat="40.6479333" lon="8.201"><ele>31.666666666666664</ele><time>2026-04-16T10:22:02.819Z</time></trkpt><trkpt lat="40.6477533" lon="8.20093"><ele>31.333333333333336</ele><time>2026-04-16T10:22:03.819Z</time></trkpt><trkpt lat="40.647565" lon="8.200875"><ele>31.0</ele><time>2026-04-16T10:22:04.819Z</time></trkpt><trkpt lat="40.6473733" lon="8.2008317"><ele>31.0</ele><time>2026-04-16T10:22:05.818Z</time></trkpt><trkpt lat="40.647175" lon="8.2007933"><ele>31.0</ele><time>2026-04-16T10:22:06.819Z</time></trkpt><trkpt lat="40.6469783" lon="8.2007567"><ele>31.0</ele><time>2026-04-16T10:22:07.818Z</time></trkpt><trkpt lat="40.64678" lon="8.20072"><ele>31.0</ele><time>2026-04-16T10:22:08.819Z</time></trkpt><trkpt lat="40.64658" lon="8.2006817"><ele>31.0</ele><time>2026-04-16T10:22:09.819Z</time></trkpt><trkpt lat="40.6463817" lon="8.2006417"><ele>31.0</ele><time>2026-04-16T10:22:10.818Z</time></trkpt><trkpt lat="40.6461883" lon="8.2006033"><ele>30.666666666666668</ele><time>2026-04-16T10:22:11.819Z</time></trkpt><trkpt lat="40.6459917" lon="8.200575"><ele>30.333333333333336</ele><time>2026-04-16T10:22:12.819Z</time></trkpt><trkpt lat="40.6457933" lon="8.200535"><ele>30.0</ele><time>2026-04-16T10:22:13.819Z</time></trkpt><trkpt lat="40.645595" lon="8.200495"><ele>30.0</ele><time>2026-04-16T10:22:14.819Z</time></trkpt><trkpt lat="40.6453967" lon="8.20046"><ele>30.0</ele><time>2026-04-16T10:22:15.818Z</time></trkpt><trkpt lat="40.6451983" lon="8.200425"><ele>30.0</ele><time>2026-04-16T10:22:16.819Z</time></trkpt><trkpt lat="40.645" lon="8.2003867"><ele>29.5</ele><time>2026-04-16T10:22:17.819Z</time></trkpt><trkpt lat="40.644615" lon="8.2003133"><ele>29.0</ele><time>2026-04-16T10:22:19.819Z</time></trkpt><trkpt lat="40.64442" lon="8.2002783"><ele>29.0</ele><time>2026-04-16T10:22:20.818Z</time></trkpt><trkpt lat="40.6442267" lon="8.2002433"><ele>29.0</ele><time>2026-04-16T10:22:21.819Z</time></trkpt><trkpt lat="40.644035" lon="8.2002067"><ele>29.0</ele><time>2026-04-16T10:22:22.818Z</time></trkpt><trkpt lat="40.6438417" lon="8.2001683"><ele>29.0</ele><time>2026-04-16T10:22:23.819Z</time></trkpt><trkpt lat="40.6436483" lon="8.200125"><ele>29.0</ele><time>2026-04-16T10:22:24.819Z</time></trkpt><trkpt lat="40.6434617" lon="8.2000833"><ele>29.0</ele><time>2026-04-16T10:22:25.819Z</time></trkpt><trkpt lat="40.64327" lon="8.2000467"><ele>28.666666666666664</ele><time>2026-04-16T10:22:26.818Z</time></trkpt><trkpt lat="40.6430817" lon="8.2000117"><ele>28.333333333333336</ele><time>2026-04-16T10:22:27.819Z</time></trkpt><trkpt lat="40.6428933" lon="8.1999717"><ele>28.0</ele><time>2026-04-16T10:22:28.819Z</time></trkpt><trkpt lat="40.642705" lon="8.1999317"><ele>28.0</ele><time>2026-04-16T10:22:29.819Z</time></trkpt><trkpt lat="40.642515" lon="8.1999033"><ele>28.0</ele><time>2026-04-16T10:22:30.818Z</time></trkpt><trkpt lat="40.642325" lon="8.19987"><ele>28.0</ele><time>2026-04-16T10:22:31.818Z</time></trkpt><trkpt lat="40.642135" lon="8.1998383"><ele>27.333333333333336</ele><time>2026-04-16T10:22:32.819Z</time></trkpt><trkpt lat="40.6419467" lon="8.1997967"><ele>26.666666666666664</ele><time>2026-04-16T10:22:33.818Z</time></trkpt><trkpt lat="40.641755" lon="8.199755"><ele>26.0</ele><time>2026-04-16T10:22:34.819Z</time></trkpt><trkpt lat="40.6415633" lon="8.1997233"><ele>26.0</ele><time>2026-04-16T10:22:35.818Z</time></trkpt><trkpt lat="40.6413733" lon="8.199685"><ele>26.0</ele><time>2026-04-16T10:22:36.819Z</time></trkpt><trkpt lat="40.6411833" lon="8.1996533"><ele>26.0</ele><time>2026-04-16T10:22:37.819Z</time></trkpt><trkpt lat="40.6409933" lon="8.199615"><ele>26.0</ele><time>2026-04-16T10:22:38.818Z</time></trkpt><trkpt lat="40.640805" lon="8.199585"><ele>26.0</ele><time>2026-04-16T10:22:39.819Z</time></trkpt><trkpt lat="40.64062" lon="8.1995483"><ele>26.0</ele><time>2026-04-16T10:22:40.819Z</time></trkpt><trkpt lat="40.6404317" lon="8.1995083"><ele>26.0</ele><time>2026-04-16T10:22:41.819Z</time></trkpt><trkpt lat="40.6402433" lon="8.1994767"><ele>26.0</ele><time>2026-04-16T10:22:42.818Z</time></trkpt><trkpt lat="40.640055" lon="8.199435"><ele>26.0</ele><time>2026-04-16T10:22:43.818Z</time></trkpt><trkpt lat="40.639865" lon="8.199395"><ele>26.0</ele><time>2026-04-16T10:22:44.818Z</time></trkpt><trkpt lat="40.639675" lon="8.19936"><ele>26.0</ele><time>2026-04-16T10:22:45.819Z</time></trkpt><trkpt lat="40.639485" lon="8.1993217"><ele>26.0</ele><time>2026-04-16T10:22:46.819Z</time></trkpt><trkpt lat="40.6392917" lon="8.199285"><ele>26.0</ele><time>2026-04-16T10:22:47.818Z</time></trkpt><trkpt lat="40.6391" lon="8.1992567"><ele>26.0</ele><time>2026-04-16T10:22:48.818Z</time></trkpt><trkpt lat="40.63891" lon="8.1992133"><ele>26.0</ele><time>2026-04-16T10:22:49.819Z</time></trkpt><trkpt lat="40.6387217" lon="8.19918"><ele>25.666666666666664</ele><time>2026-04-16T10:22:50.818Z</time></trkpt><trkpt lat="40.6385267" lon="8.1991467"><ele>25.333333333333336</ele><time>2026-04-16T10:22:51.819Z</time></trkpt><trkpt lat="40.6383367" lon="8.1991167"><ele>25.0</ele><time>2026-04-16T10:22:52.819Z</time></trkpt><trkpt lat="40.6381483" lon="8.1990833"><ele>25.0</ele><time>2026-04-16T10:22:53.818Z</time></trkpt><trkpt lat="40.6379617" lon="8.19904"><ele>25.0</ele><time>2026-04-16T10:22:54.818Z</time></trkpt><trkpt lat="40.637775" lon="8.199"><ele>25.0</ele><time>2026-04-16T10:22:55.818Z</time></trkpt><trkpt lat="40.63759" lon="8.19896"><ele>25.0</ele><time>2026-04-16T10:22:56.819Z</time></trkpt><trkpt lat="40.637395" lon="8.198925"><ele>25.0</ele><time>2026-04-16T10:22:57.818Z</time></trkpt><trkpt lat="40.6372" lon="8.198885"><ele>25.0</ele><time>2026-04-16T10:22:58.819Z</time></trkpt><trkpt lat="40.6370067" lon="8.1988483"><ele>24.666666666666668</ele><time>2026-04-16T10:22:59.819Z</time></trkpt><trkpt lat="40.6368117" lon="8.19881"><ele>24.333333333333336</ele><time>2026-04-16T10:23:00.819Z</time></trkpt><trkpt lat="40.636615" lon="8.1987817"><ele>24.0</ele><time>2026-04-16T10:23:01.819Z</time></trkpt><trkpt lat="40.6364183" lon="8.198755"><ele>24.0</ele><time>2026-04-16T10:23:02.818Z</time></trkpt><trkpt lat="40.6362217" lon="8.19872"><ele>24.0</ele><time>2026-04-16T10:23:03.819Z</time></trkpt><trkpt lat="40.63603" lon="8.198685"><ele>24.0</ele><time>2026-04-16T10:23:04.818Z</time></trkpt><trkpt lat="40.6358317" lon="8.1986383"><ele>23.666666666666668</ele><time>2026-04-16T10:23:05.819Z</time></trkpt><trkpt lat="40.6356417" lon="8.198605"><ele>23.333333333333336</ele><time>2026-04-16T10:23:06.819Z</time></trkpt><trkpt lat="40.6354533" lon="8.198575"><ele>23.0</ele><time>2026-04-16T10:23:07.819Z</time></trkpt><trkpt lat="40.6352617" lon="8.1985417"><ele>22.333333333333336</ele><time>2026-04-16T10:23:08.819Z</time></trkpt><trkpt lat="40.6350717" lon="8.1984967"><ele>21.666666666666668</ele><time>2026-04-16T10:23:09.818Z</time></trkpt><trkpt lat="40.6348817" lon="8.1984567"><ele>21.0</ele><time>2026-04-16T10:23:10.818Z</time></trkpt><trkpt lat="40.6346883" lon="8.1984083"><ele>21.0</ele><time>2026-04-16T10:23:11.819Z</time></trkpt><trkpt lat="40.6344967" lon="8.198375"><ele>21.0</ele><time>2026-04-16T10:23:12.819Z</time></trkpt><trkpt lat="40.63431" lon="8.1983483"><ele>21.0</ele><time>2026-04-16T10:23:13.818Z</time></trkpt><trkpt lat="40.6341183" lon="8.1983183"><ele>20.666666666666668</ele><time>2026-04-16T10:23:14.818Z</time></trkpt><trkpt lat="40.6339283" lon="8.1982867"><ele>20.333333333333336</ele><time>2026-04-16T10:23:15.818Z</time></trkpt><trkpt lat="40.63374" lon="8.1982417"><ele>20.0</ele><time>2026-04-16T10:23:16.818Z</time></trkpt><trkpt lat="40.63355" lon="8.1982017"><ele>19.333333333333336</ele><time>2026-04-16T10:23:17.818Z</time></trkpt><trkpt lat="40.6333633" lon="8.1981633"><ele>18.666666666666668</ele><time>2026-04-16T10:23:18.819Z</time></trkpt><trkpt lat="40.633175" lon="8.198135"><ele>18.0</ele><time>2026-04-16T10:23:19.819Z</time></trkpt><trkpt lat="40.6329883" lon="8.1981017"><ele>17.666666666666668</ele><time>2026-04-16T10:23:20.819Z</time></trkpt><trkpt lat="40.6327967" lon="8.1980683"><ele>17.333333333333336</ele><time>2026-04-16T10:23:21.819Z</time></trkpt><trkpt lat="40.6326033" lon="8.1980317"><ele>17.0</ele><time>2026-04-16T10:23:22.818Z</time></trkpt><trkpt lat="40.6324117" lon="8.1979933"><ele>17.0</ele><time>2026-04-16T10:23:23.819Z</time></trkpt><trkpt lat="40.6322183" lon="8.1979583"><ele>17.0</ele><time>2026-04-16T10:23:24.819Z</time></trkpt><trkpt lat="40.632025" lon="8.1979133"><ele>17.0</ele><time>2026-04-16T10:23:25.818Z</time></trkpt><trkpt lat="40.6318267" lon="8.19788"><ele>16.666666666666668</ele><time>2026-04-16T10:23:26.819Z</time></trkpt><trkpt lat="40.6316267" lon="8.1978433"><ele>16.333333333333332</ele><time>2026-04-16T10:23:27.819Z</time></trkpt><trkpt lat="40.631425" lon="8.1978"><ele>16.0</ele><time>2026-04-16T10:23:28.818Z</time></trkpt><trkpt lat="40.6312217" lon="8.197765"><ele>15.333333333333332</ele><time>2026-04-16T10:23:29.819Z</time></trkpt><trkpt lat="40.63102" lon="8.1977317"><ele>14.666666666666668</ele><time>2026-04-16T10:23:30.818Z</time></trkpt><trkpt lat="40.6308167" lon="8.1976883"><ele>14.0</ele><time>2026-04-16T10:23:31.819Z</time></trkpt><trkpt lat="40.6306133" lon="8.1976433"><ele>14.0</ele><time>2026-04-16T10:23:32.819Z</time></trkpt><trkpt lat="40.630415" lon="8.1976083"><ele>14.0</ele><time>2026-04-16T10:23:33.818Z</time></trkpt><trkpt lat="40.6302183" lon="8.19757"><ele>14.0</ele><time>2026-04-16T10:23:34.819Z</time></trkpt><trkpt lat="40.6300217" lon="8.19753"><ele>14.0</ele><time>2026-04-16T10:23:35.819Z</time></trkpt><trkpt lat="40.6298233" lon="8.197495"><ele>14.0</ele><time>2026-04-16T10:23:36.819Z</time></trkpt><trkpt lat="40.6296267" lon="8.1974583"><ele>14.0</ele><time>2026-04-16T10:23:37.819Z</time></trkpt><trkpt lat="40.62943" lon="8.19742"><ele>13.666666666666668</ele><time>2026-04-16T10:23:38.819Z</time></trkpt><trkpt lat="40.629235" lon="8.197385"><ele>13.333333333333332</ele><time>2026-04-16T10:23:39.819Z</time></trkpt><trkpt lat="40.6290383" lon="8.197355"><ele>13.0</ele><time>2026-04-16T10:23:40.818Z</time></trkpt><trkpt lat="40.6288417" lon="8.197315"><ele>12.333333333333332</ele><time>2026-04-16T10:23:41.819Z</time></trkpt><trkpt lat="40.6286417" lon="8.1972833"><ele>11.666666666666666</ele><time>2026-04-16T10:23:42.819Z</time></trkpt><trkpt lat="40.6284367" lon="8.1972417"><ele>11.0</ele><time>2026-04-16T10:23:43.819Z</time></trkpt><trkpt lat="40.62824" lon="8.1971917"><ele>11.0</ele><time>2026-04-16T10:23:44.819Z</time></trkpt><trkpt lat="40.6280367" lon="8.1971483"><ele>11.0</ele><time>2026-04-16T10:23:45.819Z</time></trkpt><trkpt lat="40.62784" lon="8.1971117"><ele>11.0</ele><time>2026-04-16T10:23:46.818Z</time></trkpt><trkpt lat="40.62764" lon="8.19708"><ele>10.0</ele><time>2026-04-16T10:23:47.819Z</time></trkpt><trkpt lat="40.6274367" lon="8.1970433"><ele>9.0</ele><time>2026-04-16T10:23:48.819Z</time></trkpt><trkpt lat="40.6272367" lon="8.1970033"><ele>8.0</ele><time>2026-04-16T10:23:49.819Z</time></trkpt><trkpt lat="40.6270383" lon="8.19697"><ele>7.666666666666666</ele><time>2026-04-16T10:23:50.819Z</time></trkpt><trkpt lat="40.6268433" lon="8.196935"><ele>7.333333333333334</ele><time>2026-04-16T10:23:51.818Z</time></trkpt><trkpt lat="40.6266517" lon="8.1969"><ele>7.0</ele><time>2026-04-16T10:23:52.819Z</time></trkpt><trkpt lat="40.6264617" lon="8.196865"><ele>7.0</ele><time>2026-04-16T10:23:53.819Z</time></trkpt><trkpt lat="40.6262767" lon="8.19683"><ele>7.0</ele><time>2026-04-16T10:23:54.818Z</time></trkpt><trkpt lat="40.62609" lon="8.1968033"><ele>7.0</ele><time>2026-04-16T10:23:55.819Z</time></trkpt><trkpt lat="40.625905" lon="8.1967617"><ele>7.0</ele><time>2026-04-16T10:23:56.818Z</time></trkpt><trkpt lat="40.6257267" lon="8.1967183"><ele>7.0</ele><time>2026-04-16T10:23:57.818Z</time></trkpt><trkpt lat="40.6255433" lon="8.1966833"><ele>7.0</ele><time>2026-04-16T10:23:58.819Z</time></trkpt><trkpt lat="40.625365" lon="8.1966467"><ele>6.333333333333334</ele><time>2026-04-16T10:23:59.819Z</time></trkpt><trkpt lat="40.6251867" lon="8.196615"><ele>5.666666666666667</ele><time>2026-04-16T10:24:00.818Z</time></trkpt><trkpt lat="40.62501" lon="8.1965883"><ele>5.0</ele><time>2026-04-16T10:24:01.818Z</time></trkpt><trkpt lat="40.6248417" lon="8.19656"><ele>5.0</ele><time>2026-04-16T10:24:02.819Z</time></trkpt><trkpt lat="40.62469" lon="8.1965233"><ele>5.0</ele><time>2026-04-16T10:24:03.819Z</time></trkpt><trkpt lat="40.6245417" lon="8.1964933"><ele>5.0</ele><time>2026-04-16T10:24:04.819Z</time></trkpt><trkpt lat="40.624405" lon="8.196465"><ele>5.0</ele><time>2026-04-16T10:24:05.818Z</time></trkpt><trkpt lat="40.6242817" lon="8.196435"><ele>4.833333333333334</ele><time>2026-04-16T10:24:06.819Z</time></trkpt><trkpt lat="40.6241767" lon="8.1963967"><ele>4.666666666666667</ele><time>2026-04-16T10:24:07.818Z</time></trkpt><trkpt lat="40.6240917" lon="8.1963767"><ele>4.5</ele><time>2026-04-16T10:24:08.819Z</time></trkpt><trkpt lat="40.6240183" lon="8.1963917"><ele>4.333333333333333</ele><time>2026-04-16T10:24:09.819Z</time></trkpt><trkpt lat="40.62396" lon="8.19644"><ele>4.166666666666666</ele><time>2026-04-16T10:24:10.819Z</time></trkpt><trkpt lat="40.6239217" lon="8.1965183"><ele>4.0</ele><time>2026-04-16T10:24:11.819Z</time></trkpt><trkpt lat="40.6239117" lon="8.196625"><ele>3.75</ele><time>2026-04-16T10:24:12.818Z</time></trkpt><trkpt lat="40.623915" lon="8.1967567"><ele>3.5</ele><time>2026-04-16T10:24:13.818Z</time></trkpt><trkpt lat="40.6239067" lon="8.196905"><ele>3.25</ele><time>2026-04-16T10:24:14.819Z</time></trkpt><trkpt lat="40.6238767" lon="8.19707"><ele>3.0</ele><time>2026-04-16T10:24:15.819Z</time></trkpt><trkpt lat="40.6238267" lon="8.1972367"><ele>3.333333333333333</ele><time>2026-04-16T10:24:16.819Z</time></trkpt><trkpt lat="40.6237683" lon="8.1974183"><ele>3.6666666666666665</ele><time>2026-04-16T10:24:17.819Z</time></trkpt><trkpt lat="40.6237083" lon="8.1976133"><ele>4.0</ele><time>2026-04-16T10:24:18.819Z</time></trkpt><trkpt lat="40.6236517" lon="8.19781"><ele>4.0</ele><time>2026-04-16T10:24:19.819Z</time></trkpt><trkpt lat="40.6235917" lon="8.198015"><ele>4.0</ele><time>2026-04-16T10:24:20.819Z</time></trkpt><trkpt lat="40.6235283" lon="8.1982333"><ele>4.0</ele><time>2026-04-16T10:24:21.819Z</time></trkpt><trkpt lat="40.6234633" lon="8.1984583"><ele>4.333333333333333</ele><time>2026-04-16T10:24:22.819Z</time></trkpt><trkpt lat="40.6234017" lon="8.19867"><ele>4.666666666666667</ele><time>2026-04-16T10:24:23.819Z</time></trkpt><trkpt lat="40.6233417" lon="8.1988967"><ele>5.0</ele><time>2026-04-16T10:24:24.819Z</time></trkpt><trkpt lat="40.6232733" lon="8.1991233"><ele>5.0</ele><time>2026-04-16T10:24:25.818Z</time></trkpt><trkpt lat="40.623205" lon="8.1993517"><ele>5.0</ele><time>2026-04-16T10:24:26.818Z</time></trkpt><trkpt lat="40.62314" lon="8.199575"><ele>5.0</ele><time>2026-04-16T10:24:27.819Z</time></trkpt><trkpt lat="40.623075" lon="8.1998"><ele>5.0</ele><time>2026-04-16T10:24:28.818Z</time></trkpt><trkpt lat="40.6230117" lon="8.2000267"><ele>5.0</ele><time>2026-04-16T10:24:29.819Z</time></trkpt><trkpt lat="40.6229533" lon="8.20025"><ele>5.0</ele><time>2026-04-16T10:24:30.819Z</time></trkpt><trkpt lat="40.6228883" lon="8.20048"><ele>5.333333333333334</ele><time>2026-04-16T10:24:31.819Z</time></trkpt><trkpt lat="40.6228217" lon="8.2007017"><ele>5.666666666666667</ele><time>2026-04-16T10:24:32.819Z</time></trkpt><trkpt lat="40.62276" lon="8.200915"><ele>6.0</ele><time>2026-04-16T10:24:33.818Z</time></trkpt><trkpt lat="40.6226933" lon="8.201135"><ele>6.333333333333334</ele><time>2026-04-16T10:24:34.819Z</time></trkpt><trkpt lat="40.6226233" lon="8.201355"><ele>6.666666666666667</ele><time>2026-04-16T10:24:35.818Z</time></trkpt><trkpt lat="40.622555" lon="8.20158"><ele>7.0</ele><time>2026-04-16T10:24:36.819Z</time></trkpt><trkpt lat="40.622495" lon="8.2018017"><ele>7.0</ele><time>2026-04-16T10:24:37.818Z</time></trkpt><trkpt lat="40.62243" lon="8.202025"><ele>7.0</ele><time>2026-04-16T10:24:38.819Z</time></trkpt><trkpt lat="40.6223683" lon="8.2022433"><ele>7.0</ele><time>2026-04-16T10:24:39.819Z</time></trkpt><trkpt lat="40.6223" lon="8.20246"><ele>7.0</ele><time>2026-04-16T10:24:40.819Z</time></trkpt><trkpt lat="40.622235" lon="8.2026833"><ele>7.0</ele><time>2026-04-16T10:24:41.818Z</time></trkpt><trkpt lat="40.62217" lon="8.2029083"><ele>7.0</ele><time>2026-04-16T10:24:42.819Z</time></trkpt><trkpt lat="40.6221067" lon="8.203135"><ele>7.0</ele><time>2026-04-16T10:24:43.819Z</time></trkpt><trkpt lat="40.62204" lon="8.2033567"><ele>7.0</ele><time>2026-04-16T10:24:44.818Z</time></trkpt><trkpt lat="40.621975" lon="8.203585"><ele>7.0</ele><time>2026-04-16T10:24:45.817Z</time></trkpt><trkpt lat="40.621915" lon="8.2038167"><ele>7.333333333333334</ele><time>2026-04-16T10:24:46.818Z</time></trkpt><trkpt lat="40.6218517" lon="8.20404"><ele>7.666666666666666</ele><time>2026-04-16T10:24:47.817Z</time></trkpt><trkpt lat="40.62179" lon="8.20426"><ele>8.0</ele><time>2026-04-16T10:24:48.818Z</time></trkpt><trkpt lat="40.62173" lon="8.2044917"><ele>8.0</ele><time>2026-04-16T10:24:49.817Z</time></trkpt><trkpt lat="40.62167" lon="8.2047133"><ele>8.0</ele><time>2026-04-16T10:24:50.818Z</time></trkpt><trkpt lat="40.6216083" lon="8.20494"><ele>8.0</ele><time>2026-04-16T10:24:51.818Z</time></trkpt><trkpt lat="40.6215417" lon="8.20516"><ele>8.0</ele><time>2026-04-16T10:24:52.818Z</time></trkpt><trkpt lat="40.6214767" lon="8.20538"><ele>8.0</ele><time>2026-04-16T10:24:53.817Z</time></trkpt><trkpt lat="40.6214167" lon="8.2055967"><ele>8.0</ele><time>2026-04-16T10:24:54.817Z</time></trkpt><trkpt lat="40.6213567" lon="8.20581"><ele>8.0</ele><time>2026-04-16T10:24:55.817Z</time></trkpt><trkpt lat="40.6213" lon="8.206025"><ele>8.0</ele><time>2026-04-16T10:24:56.817Z</time></trkpt><trkpt lat="40.621245" lon="8.2062367"><ele>8.0</ele><time>2026-04-16T10:24:57.818Z</time></trkpt><trkpt lat="40.6211817" lon="8.2064367"><ele>8.0</ele><time>2026-04-16T10:24:58.818Z</time></trkpt><trkpt lat="40.6211217" lon="8.20663"><ele>8.0</ele><time>2026-04-16T10:24:59.818Z</time></trkpt><trkpt lat="40.6210667" lon="8.2068333"><ele>8.0</ele><time>2026-04-16T10:25:00.817Z</time></trkpt><trkpt lat="40.6210083" lon="8.20703"><ele>8.0</ele><time>2026-04-16T10:25:01.818Z</time></trkpt><trkpt lat="40.6209483" lon="8.2072233"><ele>8.0</ele><time>2026-04-16T10:25:02.817Z</time></trkpt><trkpt lat="40.62088" lon="8.20741"><ele>8.0</ele><time>2026-04-16T10:25:03.818Z</time></trkpt><trkpt lat="40.6208083" lon="8.2075917"><ele>7.666666666666666</ele><time>2026-04-16T10:25:04.818Z</time></trkpt><trkpt lat="40.620715" lon="8.2077683"><ele>7.333333333333334</ele><time>2026-04-16T10:25:05.817Z</time></trkpt><trkpt lat="40.620605" lon="8.207935"><ele>7.0</ele><time>2026-04-16T10:25:06.818Z</time></trkpt><trkpt lat="40.6204933" lon="8.2080967"><ele>7.333333333333334</ele><time>2026-04-16T10:25:07.817Z</time></trkpt><trkpt lat="40.6203717" lon="8.2082533"><ele>7.666666666666666</ele><time>2026-04-16T10:25:08.818Z</time></trkpt><trkpt lat="40.6202467" lon="8.2084133"><ele>8.0</ele><time>2026-04-16T10:25:09.818Z</time></trkpt><trkpt lat="40.62012" lon="8.20858"><ele>8.0</ele><time>2026-04-16T10:25:10.817Z</time></trkpt><trkpt lat="40.6199933" lon="8.2087533"><ele>8.0</ele><time>2026-04-16T10:25:11.818Z</time></trkpt><trkpt lat="40.6198617" lon="8.2089283"><ele>8.0</ele><time>2026-04-16T10:25:12.818Z</time></trkpt><trkpt lat="40.6197267" lon="8.20911"><ele>8.333333333333332</ele><time>2026-04-16T10:25:13.818Z</time></trkpt><trkpt lat="40.6195917" lon="8.209295"><ele>8.666666666666666</ele><time>2026-04-16T10:25:14.817Z</time></trkpt><trkpt lat="40.6194583" lon="8.2094817"><ele>9.0</ele><time>2026-04-16T10:25:15.818Z</time></trkpt><trkpt lat="40.6193217" lon="8.2096717"><ele>9.333333333333334</ele><time>2026-04-16T10:25:16.817Z</time></trkpt><trkpt lat="40.6191833" lon="8.209855"><ele>9.666666666666668</ele><time>2026-04-16T10:25:17.818Z</time></trkpt><trkpt lat="40.6190417" lon="8.2100417"><ele>10.0</ele><time>2026-04-16T10:25:18.818Z</time></trkpt><trkpt lat="40.6189017" lon="8.2102317"><ele>10.0</ele><time>2026-04-16T10:25:19.817Z</time></trkpt><trkpt lat="40.6187633" lon="8.210425"><ele>10.0</ele><time>2026-04-16T10:25:20.817Z</time></trkpt><trkpt lat="40.6186267" lon="8.2106067"><ele>10.0</ele><time>2026-04-16T10:25:21.817Z</time></trkpt><trkpt lat="40.6184883" lon="8.210795"><ele>10.333333333333334</ele><time>2026-04-16T10:25:22.818Z</time></trkpt><trkpt lat="40.618355" lon="8.2109783"><ele>10.666666666666666</ele><time>2026-04-16T10:25:23.818Z</time></trkpt><trkpt lat="40.6182183" lon="8.2111633"><ele>11.0</ele><time>2026-04-16T10:25:24.818Z</time></trkpt><trkpt lat="40.6180817" lon="8.21135"><ele>12.0</ele><time>2026-04-16T10:25:25.818Z</time></trkpt><trkpt lat="40.6179467" lon="8.2115317"><ele>13.0</ele><time>2026-04-16T10:25:26.818Z</time></trkpt><trkpt lat="40.6178083" lon="8.2117083"><ele>14.0</ele><time>2026-04-16T10:25:27.818Z</time></trkpt><trkpt lat="40.6176733" lon="8.21189"><ele>14.0</ele><time>2026-04-16T10:25:28.817Z</time></trkpt><trkpt lat="40.61754" lon="8.2120667"><ele>14.0</ele><time>2026-04-16T10:25:29.818Z</time></trkpt><trkpt lat="40.6174067" lon="8.212245"><ele>14.0</ele><time>2026-04-16T10:25:30.818Z</time></trkpt><trkpt lat="40.617275" lon="8.2124167"><ele>15.0</ele><time>2026-04-16T10:25:31.818Z</time></trkpt><trkpt lat="40.61714" lon="8.2126"><ele>16.0</ele><time>2026-04-16T10:25:32.818Z</time></trkpt><trkpt lat="40.6170067" lon="8.2127833"><ele>17.0</ele><time>2026-04-16T10:25:33.818Z</time></trkpt><trkpt lat="40.616875" lon="8.212965"><ele>17.0</ele><time>2026-04-16T10:25:34.817Z</time></trkpt><trkpt lat="40.6167483" lon="8.21315"><ele>17.0</ele><time>2026-04-16T10:25:35.818Z</time></trkpt><trkpt lat="40.6166133" lon="8.213335"><ele>17.0</ele><time>2026-04-16T10:25:36.818Z</time></trkpt><trkpt lat="40.6164817" lon="8.2135183"><ele>18.0</ele><time>2026-04-16T10:25:37.817Z</time></trkpt><trkpt lat="40.6163483" lon="8.213695"><ele>19.0</ele><time>2026-04-16T10:25:38.818Z</time></trkpt><trkpt lat="40.6162117" lon="8.213885"><ele>20.0</ele><time>2026-04-16T10:25:39.817Z</time></trkpt><trkpt lat="40.6160733" lon="8.214065"><ele>20.333333333333336</ele><time>2026-04-16T10:25:40.817Z</time></trkpt><trkpt lat="40.6159333" lon="8.2142367"><ele>20.666666666666668</ele><time>2026-04-16T10:25:41.818Z</time></trkpt><trkpt lat="40.6157933" lon="8.2144317"><ele>21.0</ele><time>2026-04-16T10:25:42.818Z</time></trkpt><trkpt lat="40.6156567" lon="8.2146217"><ele>21.0</ele><time>2026-04-16T10:25:43.818Z</time></trkpt><trkpt lat="40.6155217" lon="8.21481"><ele>21.0</ele><time>2026-04-16T10:25:44.818Z</time></trkpt><trkpt lat="40.6153833" lon="8.2149967"><ele>21.0</ele><time>2026-04-16T10:25:45.817Z</time></trkpt><trkpt lat="40.6152567" lon="8.2151817"><ele>20.666666666666668</ele><time>2026-04-16T10:25:46.818Z</time></trkpt><trkpt lat="40.6151283" lon="8.2153567"><ele>20.333333333333336</ele><time>2026-04-16T10:25:47.817Z</time></trkpt><trkpt lat="40.6149983" lon="8.215525"><ele>20.0</ele><time>2026-04-16T10:25:48.818Z</time></trkpt><trkpt lat="40.6148517" lon="8.2156733"><ele>20.0</ele><time>2026-04-16T10:25:49.818Z</time></trkpt><trkpt lat="40.6146967" lon="8.2157917"><ele>20.0</ele><time>2026-04-16T10:25:50.817Z</time></trkpt><trkpt lat="40.614535" lon="8.2158733"><ele>20.0</ele><time>2026-04-16T10:25:51.818Z</time></trkpt><trkpt lat="40.6143517" lon="8.2159467"><ele>19.333333333333336</ele><time>2026-04-16T10:25:52.817Z</time></trkpt><trkpt lat="40.6141717" lon="8.2160117"><ele>18.666666666666668</ele><time>2026-04-16T10:25:53.817Z</time></trkpt><trkpt lat="40.6139883" lon="8.21608"><ele>18.0</ele><time>2026-04-16T10:25:54.818Z</time></trkpt><trkpt lat="40.6137983" lon="8.216145"><ele>17.333333333333332</ele><time>2026-04-16T10:25:55.817Z</time></trkpt><trkpt lat="40.61361" lon="8.2162117"><ele>16.666666666666664</ele><time>2026-04-16T10:25:56.817Z</time></trkpt><trkpt lat="40.6134283" lon="8.2162883"><ele>16.0</ele><time>2026-04-16T10:25:57.818Z</time></trkpt><trkpt lat="40.6132433" lon="8.2163667"><ele>16.0</ele><time>2026-04-16T10:25:58.817Z</time></trkpt><trkpt lat="40.6130583" lon="8.2164433"><ele>16.0</ele><time>2026-04-16T10:25:59.817Z</time></trkpt><trkpt lat="40.612875" lon="8.2165117"><ele>16.0</ele><time>2026-04-16T10:26:00.817Z</time></trkpt><trkpt lat="40.6126983" lon="8.2165867"><ele>16.333333333333332</ele><time>2026-04-16T10:26:01.818Z</time></trkpt><trkpt lat="40.61252" lon="8.216655"><ele>16.666666666666668</ele><time>2026-04-16T10:26:02.818Z</time></trkpt><trkpt lat="40.6123367" lon="8.216725"><ele>17.0</ele><time>2026-04-16T10:26:03.817Z</time></trkpt><trkpt lat="40.6121517" lon="8.2168067"><ele>16.666666666666668</ele><time>2026-04-16T10:26:04.817Z</time></trkpt><trkpt lat="40.6119633" lon="8.2168883"><ele>16.333333333333332</ele><time>2026-04-16T10:26:05.818Z</time></trkpt><trkpt lat="40.61177" lon="8.2169633"><ele>16.0</ele><time>2026-04-16T10:26:06.818Z</time></trkpt><trkpt lat="40.6115733" lon="8.2170267"><ele>16.0</ele><time>2026-04-16T10:26:07.818Z</time></trkpt><trkpt lat="40.6111817" lon="8.21716"><ele>16.0</ele><time>2026-04-16T10:26:09.818Z</time></trkpt><trkpt lat="40.6109883" lon="8.2172233"><ele>16.0</ele><time>2026-04-16T10:26:10.817Z</time></trkpt><trkpt lat="40.6107933" lon="8.217295"><ele>16.0</ele><time>2026-04-16T10:26:11.818Z</time></trkpt><trkpt lat="40.610605" lon="8.21737"><ele>16.0</ele><time>2026-04-16T10:26:12.817Z</time></trkpt><trkpt lat="40.610415" lon="8.2174467"><ele>15.666666666666666</ele><time>2026-04-16T10:26:13.818Z</time></trkpt><trkpt lat="40.6102283" lon="8.21752"><ele>15.333333333333332</ele><time>2026-04-16T10:26:14.818Z</time></trkpt><trkpt lat="40.6100433" lon="8.21759"><ele>15.0</ele><time>2026-04-16T10:26:15.818Z</time></trkpt><trkpt lat="40.6098567" lon="8.2176617"><ele>15.0</ele><time>2026-04-16T10:26:16.818Z</time></trkpt><trkpt lat="40.6096767" lon="8.217735"><ele>15.0</ele><time>2026-04-16T10:26:17.817Z</time></trkpt><trkpt lat="40.609495" lon="8.2178"><ele>15.0</ele><time>2026-04-16T10:26:18.818Z</time></trkpt><trkpt lat="40.6093133" lon="8.2178717"><ele>15.0</ele><time>2026-04-16T10:26:19.817Z</time></trkpt><trkpt lat="40.6091283" lon="8.21794"><ele>15.0</ele><time>2026-04-16T10:26:20.817Z</time></trkpt><trkpt lat="40.6089467" lon="8.21801"><ele>15.0</ele><time>2026-04-16T10:26:21.817Z</time></trkpt><trkpt lat="40.6087633" lon="8.2180833"><ele>15.0</ele><time>2026-04-16T10:26:22.818Z</time></trkpt><trkpt lat="40.60858" lon="8.2181517"><ele>15.0</ele><time>2026-04-16T10:26:23.818Z</time></trkpt><trkpt lat="40.608395" lon="8.218215"><ele>15.0</ele><time>2026-04-16T10:26:24.818Z</time></trkpt><trkpt lat="40.60821" lon="8.2182783"><ele>15.0</ele><time>2026-04-16T10:26:25.818Z</time></trkpt><trkpt lat="40.6080217" lon="8.218345"><ele>15.0</ele><time>2026-04-16T10:26:26.818Z</time></trkpt><trkpt lat="40.6078317" lon="8.2184217"><ele>15.0</ele><time>2026-04-16T10:26:27.818Z</time></trkpt><trkpt lat="40.6076433" lon="8.218495"><ele>15.333333333333332</ele><time>2026-04-16T10:26:28.818Z</time></trkpt><trkpt lat="40.607455" lon="8.2185717"><ele>15.666666666666666</ele><time>2026-04-16T10:26:29.818Z</time></trkpt><trkpt lat="40.607265" lon="8.2186467"><ele>16.0</ele><time>2026-04-16T10:26:30.818Z</time></trkpt><trkpt lat="40.6070767" lon="8.2187233"><ele>15.666666666666666</ele><time>2026-04-16T10:26:31.818Z</time></trkpt><trkpt lat="40.60689" lon="8.2187983"><ele>15.333333333333332</ele><time>2026-04-16T10:26:32.818Z</time></trkpt><trkpt lat="40.6067033" lon="8.2188717"><ele>15.0</ele><time>2026-04-16T10:26:33.817Z</time></trkpt><trkpt lat="40.6065183" lon="8.218945"><ele>15.333333333333332</ele><time>2026-04-16T10:26:34.817Z</time></trkpt><trkpt lat="40.60633" lon="8.2190117"><ele>15.666666666666666</ele><time>2026-04-16T10:26:35.818Z</time></trkpt><trkpt lat="40.6061367" lon="8.2190817"><ele>16.0</ele><time>2026-04-16T10:26:36.818Z</time></trkpt><trkpt lat="40.605945" lon="8.2191583"><ele>15.333333333333332</ele><time>2026-04-16T10:26:37.818Z</time></trkpt><trkpt lat="40.6057533" lon="8.2192283"><ele>14.666666666666668</ele><time>2026-04-16T10:26:38.818Z</time></trkpt><trkpt lat="40.6055667" lon="8.219305"><ele>14.0</ele><time>2026-04-16T10:26:39.817Z</time></trkpt><trkpt lat="40.60538" lon="8.21938"><ele>13.0</ele><time>2026-04-16T10:26:40.818Z</time></trkpt><trkpt lat="40.6051917" lon="8.21945"><ele>12.0</ele><time>2026-04-16T10:26:41.817Z</time></trkpt><trkpt lat="40.6050017" lon="8.2195233"><ele>11.0</ele><time>2026-04-16T10:26:42.818Z</time></trkpt><trkpt lat="40.6048117" lon="8.2196"><ele>11.0</ele><time>2026-04-16T10:26:43.818Z</time></trkpt><trkpt lat="40.6046233" lon="8.2196717"><ele>11.0</ele><time>2026-04-16T10:26:44.818Z</time></trkpt><trkpt lat="40.6044367" lon="8.2197367"><ele>11.0</ele><time>2026-04-16T10:26:45.817Z</time></trkpt><trkpt lat="40.6042467" lon="8.2198083"><ele>10.333333333333332</ele><time>2026-04-16T10:26:46.818Z</time></trkpt><trkpt lat="40.6040633" lon="8.2198783"><ele>9.666666666666666</ele><time>2026-04-16T10:26:47.817Z</time></trkpt><trkpt lat="40.6038767" lon="8.2199467"><ele>9.0</ele><time>2026-04-16T10:26:48.817Z</time></trkpt><trkpt lat="40.6036933" lon="8.2200183"><ele>8.666666666666666</ele><time>2026-04-16T10:26:49.818Z</time></trkpt><trkpt lat="40.6035083" lon="8.2200867"><ele>8.333333333333332</ele><time>2026-04-16T10:26:50.817Z</time></trkpt><trkpt lat="40.6033233" lon="8.2201583"><ele>8.0</ele><time>2026-04-16T10:26:51.818Z</time></trkpt><trkpt lat="40.6031367" lon="8.2202183"><ele>8.0</ele><time>2026-04-16T10:26:52.818Z</time></trkpt><trkpt lat="40.6029483" lon="8.22029"><ele>8.0</ele><time>2026-04-16T10:26:53.818Z</time></trkpt><trkpt lat="40.6027617" lon="8.220365"><ele>8.0</ele><time>2026-04-16T10:26:54.818Z</time></trkpt><trkpt lat="40.6025783" lon="8.220435"><ele>8.0</ele><time>2026-04-16T10:26:55.818Z</time></trkpt><trkpt lat="40.602395" lon="8.220505"><ele>8.0</ele><time>2026-04-16T10:26:56.818Z</time></trkpt><trkpt lat="40.6022117" lon="8.22058"><ele>8.0</ele><time>2026-04-16T10:26:57.817Z</time></trkpt><trkpt lat="40.6020317" lon="8.2206517"><ele>7.333333333333333</ele><time>2026-04-16T10:26:58.817Z</time></trkpt><trkpt lat="40.6018533" lon="8.2207217"><ele>6.666666666666666</ele><time>2026-04-16T10:26:59.818Z</time></trkpt><trkpt lat="40.6016717" lon="8.2207917"><ele>6.0</ele><time>2026-04-16T10:27:00.818Z</time></trkpt><trkpt lat="40.6014983" lon="8.22086"><ele>6.0</ele><time>2026-04-16T10:27:01.818Z</time></trkpt><trkpt lat="40.6013217" lon="8.2209317"><ele>6.0</ele><time>2026-04-16T10:27:02.818Z</time></trkpt><trkpt lat="40.6011467" lon="8.2209967"><ele>6.0</ele><time>2026-04-16T10:27:03.818Z</time></trkpt><trkpt lat="40.60097" lon="8.221065"><ele>7.333333333333334</ele><time>2026-04-16T10:27:04.818Z</time></trkpt><trkpt lat="40.6007933" lon="8.22114"><ele>8.666666666666668</ele><time>2026-04-16T10:27:05.817Z</time></trkpt><trkpt lat="40.6006167" lon="8.2212"><ele>10.0</ele><time>2026-04-16T10:27:06.817Z</time></trkpt><trkpt lat="40.6004433" lon="8.2212633"><ele>10.333333333333334</ele><time>2026-04-16T10:27:07.818Z</time></trkpt><trkpt lat="40.6002733" lon="8.2213183"><ele>10.666666666666666</ele><time>2026-04-16T10:27:08.818Z</time></trkpt><trkpt lat="40.600095" lon="8.2213817"><ele>11.0</ele><time>2026-04-16T10:27:09.818Z</time></trkpt><trkpt lat="40.5999217" lon="8.2214467"><ele>10.333333333333332</ele><time>2026-04-16T10:27:10.817Z</time></trkpt><trkpt lat="40.5997533" lon="8.2215167"><ele>9.666666666666666</ele><time>2026-04-16T10:27:11.818Z</time></trkpt><trkpt lat="40.599585" lon="8.221585"><ele>9.0</ele><time>2026-04-16T10:27:12.818Z</time></trkpt><trkpt lat="40.59942" lon="8.22165"><ele>9.0</ele><time>2026-04-16T10:27:13.818Z</time></trkpt><trkpt lat="40.599255" lon="8.221715"><ele>9.0</ele><time>2026-04-16T10:27:14.818Z</time></trkpt><trkpt lat="40.5990917" lon="8.2217783"><ele>9.0</ele><time>2026-04-16T10:27:15.818Z</time></trkpt><trkpt lat="40.5989317" lon="8.2218417"><ele>9.0</ele><time>2026-04-16T10:27:16.818Z</time></trkpt><trkpt lat="40.5987833" lon="8.22189"><ele>9.0</ele><time>2026-04-16T10:27:17.818Z</time></trkpt><trkpt lat="40.59865" lon="8.2219483"><ele>9.0</ele><time>2026-04-16T10:27:18.818Z</time></trkpt><trkpt lat="40.5985283" lon="8.221995"><ele>9.0</ele><time>2026-04-16T10:27:19.818Z</time></trkpt><trkpt lat="40.5984267" lon="8.222025"><ele>9.333333333333334</ele><time>2026-04-16T10:27:20.818Z</time></trkpt><trkpt lat="40.5983417" lon="8.2220417"><ele>9.666666666666666</ele><time>2026-04-16T10:27:21.818Z</time></trkpt><trkpt lat="40.59826" lon="8.2220317"><ele>10.0</ele><time>2026-04-16T10:27:22.818Z</time></trkpt><trkpt lat="40.5981817" lon="8.222015"><ele>10.333333333333332</ele><time>2026-04-16T10:27:23.817Z</time></trkpt><trkpt lat="40.5981133" lon="8.221995"><ele>10.666666666666666</ele><time>2026-04-16T10:27:24.817Z</time></trkpt><trkpt lat="40.5980483" lon="8.22198"><ele>11.0</ele><time>2026-04-16T10:27:25.818Z</time></trkpt><trkpt lat="40.597975" lon="8.2219483"><ele>11.0</ele><time>2026-04-16T10:27:26.817Z</time></trkpt><trkpt lat="40.597895" lon="8.2219033"><ele>11.0</ele><time>2026-04-16T10:27:27.817Z</time></trkpt><trkpt lat="40.5978083" lon="8.2218417"><ele>11.0</ele><time>2026-04-16T10:27:28.817Z</time></trkpt><trkpt lat="40.5977183" lon="8.2217667"><ele>11.0</ele><time>2026-04-16T10:27:29.818Z</time></trkpt><trkpt lat="40.5976183" lon="8.2216867"><ele>11.0</ele><time>2026-04-16T10:27:30.817Z</time></trkpt><trkpt lat="40.5975133" lon="8.2216083"><ele>11.5</ele><time>2026-04-16T10:27:31.817Z</time></trkpt><trkpt lat="40.5974017" lon="8.22153"><ele>12.0</ele><time>2026-04-16T10:27:32.817Z</time></trkpt><trkpt lat="40.5972833" lon="8.2214483"><ele>12.5</ele><time>2026-04-16T10:27:33.817Z</time></trkpt><trkpt lat="40.5971617" lon="8.22136"><ele>13.0</ele><time>2026-04-16T10:27:34.818Z</time></trkpt><trkpt lat="40.597035" lon="8.221265"><ele>12.5</ele><time>2026-04-16T10:27:35.818Z</time></trkpt><trkpt lat="40.59691" lon="8.2211783"><ele>12.0</ele><time>2026-04-16T10:27:36.817Z</time></trkpt><trkpt lat="40.5967883" lon="8.22108"><ele>11.5</ele><time>2026-04-16T10:27:37.817Z</time></trkpt><trkpt lat="40.59666" lon="8.2209867"><ele>11.0</ele><time>2026-04-16T10:27:38.818Z</time></trkpt><trkpt lat="40.596525" lon="8.2208933"><ele>11.0</ele><time>2026-04-16T10:27:39.818Z</time></trkpt><trkpt lat="40.59639" lon="8.2207967"><ele>11.0</ele><time>2026-04-16T10:27:40.818Z</time></trkpt><trkpt lat="40.5962517" lon="8.2206933"><ele>11.0</ele><time>2026-04-16T10:27:41.818Z</time></trkpt><trkpt lat="40.596115" lon="8.2205867"><ele>9.666666666666666</ele><time>2026-04-16T10:27:42.817Z</time></trkpt><trkpt lat="40.5959717" lon="8.2204867"><ele>8.333333333333334</ele><time>2026-04-16T10:27:43.818Z</time></trkpt><trkpt lat="40.595825" lon="8.2203883"><ele>7.0</ele><time>2026-04-16T10:27:44.817Z</time></trkpt><trkpt lat="40.59568" lon="8.220285"><ele>7.0</ele><time>2026-04-16T10:27:45.818Z</time></trkpt><trkpt lat="40.595535" lon="8.2201867"><ele>7.0</ele><time>2026-04-16T10:27:46.818Z</time></trkpt><trkpt lat="40.5953917" lon="8.2200833"><ele>7.0</ele><time>2026-04-16T10:27:47.817Z</time></trkpt><trkpt lat="40.59525" lon="8.219975"><ele>6.333333333333334</ele><time>2026-04-16T10:27:48.817Z</time></trkpt><trkpt lat="40.59511" lon="8.2198733"><ele>5.666666666666667</ele><time>2026-04-16T10:27:49.817Z</time></trkpt><trkpt lat="40.594975" lon="8.2197717"><ele>5.0</ele><time>2026-04-16T10:27:50.817Z</time></trkpt><trkpt lat="40.5948467" lon="8.21968"><ele>5.0</ele><time>2026-04-16T10:27:51.817Z</time></trkpt><trkpt lat="40.59473" lon="8.2195967"><ele>5.0</ele><time>2026-04-16T10:27:52.818Z</time></trkpt><trkpt lat="40.5946217" lon="8.2195183"><ele>5.0</ele><time>2026-04-16T10:27:53.818Z</time></trkpt><trkpt lat="40.59453" lon="8.2194517"><ele>5.0</ele><time>2026-04-16T10:27:54.817Z</time></trkpt><trkpt lat="40.5944467" lon="8.2193917"><ele>5.0</ele><time>2026-04-16T10:27:55.818Z</time></trkpt><trkpt lat="40.594375" lon="8.21934"><ele>5.0</ele><time>2026-04-16T10:27:56.817Z</time></trkpt><trkpt lat="40.5943117" lon="8.2193067"><ele>5.0</ele><time>2026-04-16T10:27:57.818Z</time></trkpt><trkpt lat="40.594225" lon="8.2192883"><ele>5.0</ele><time>2026-04-16T10:27:59.818Z</time></trkpt><trkpt lat="40.5941717" lon="8.2194033"><ele>5.0</ele><time>2026-04-16T10:28:02.818Z</time></trkpt><trkpt lat="40.5941083" lon="8.2195467"><ele>5.0</ele><time>2026-04-16T10:28:04.818Z</time></trkpt><trkpt lat="40.5940667" lon="8.2196383"><ele>5.0</ele><time>2026-04-16T10:28:05.817Z</time></trkpt><trkpt lat="40.5940183" lon="8.2197417"><ele>5.0</ele><time>2026-04-16T10:28:06.817Z</time></trkpt><trkpt lat="40.5939683" lon="8.21986"><ele>5.0</ele><time>2026-04-16T10:28:07.818Z</time></trkpt><trkpt lat="40.5939117" lon="8.2199783"><ele>5.0</ele><time>2026-04-16T10:28:08.818Z</time></trkpt><trkpt lat="40.593855" lon="8.2201067"><ele>5.0</ele><time>2026-04-16T10:28:09.818Z</time></trkpt><trkpt lat="40.5938033" lon="8.2202383"><ele>5.0</ele><time>2026-04-16T10:28:10.817Z</time></trkpt><trkpt lat="40.5937467" lon="8.2203767"><ele>5.0</ele><time>2026-04-16T10:28:11.817Z</time></trkpt><trkpt lat="40.5936883" lon="8.22051"><ele>5.0</ele><time>2026-04-16T10:28:12.817Z</time></trkpt><trkpt lat="40.5936233" lon="8.2206467"><ele>5.0</ele><time>2026-04-16T10:28:13.818Z</time></trkpt><trkpt lat="40.5935567" lon="8.220785"><ele>5.0</ele><time>2026-04-16T10:28:14.817Z</time></trkpt><trkpt lat="40.5934917" lon="8.2209267"><ele>5.0</ele><time>2026-04-16T10:28:15.818Z</time></trkpt><trkpt lat="40.5934317" lon="8.22107"><ele>5.0</ele><time>2026-04-16T10:28:16.817Z</time></trkpt><trkpt lat="40.5933667" lon="8.2212133"><ele>5.0</ele><time>2026-04-16T10:28:17.818Z</time></trkpt><trkpt lat="40.5933067" lon="8.2213517"><ele>5.0</ele><time>2026-04-16T10:28:18.817Z</time></trkpt><trkpt lat="40.5932467" lon="8.2214783"><ele>5.0</ele><time>2026-04-16T10:28:19.817Z</time></trkpt><trkpt lat="40.593195" lon="8.2216"><ele>5.0</ele><time>2026-04-16T10:28:20.818Z</time></trkpt><trkpt lat="40.5931433" lon="8.2217167"><ele>5.0</ele><time>2026-04-16T10:28:21.817Z</time></trkpt><trkpt lat="40.59309" lon="8.2218433"><ele>5.2</ele><time>2026-04-16T10:28:22.817Z</time></trkpt><trkpt lat="40.5930417" lon="8.22197"><ele>5.4</ele><time>2026-04-16T10:28:23.818Z</time></trkpt><trkpt lat="40.5929883" lon="8.2220883"><ele>5.6</ele><time>2026-04-16T10:28:24.818Z</time></trkpt><trkpt lat="40.592935" lon="8.222205"><ele>5.8</ele><time>2026-04-16T10:28:25.818Z</time></trkpt><trkpt lat="40.5928733" lon="8.2223133"><ele>6.0</ele><time>2026-04-16T10:28:26.817Z</time></trkpt><trkpt lat="40.5928067" lon="8.2224233"><ele>6.5</ele><time>2026-04-16T10:28:27.818Z</time></trkpt><trkpt lat="40.592735" lon="8.2225333"><ele>7.0</ele><time>2026-04-16T10:28:28.818Z</time></trkpt><trkpt lat="40.5926533" lon="8.2226317"><ele>7.5</ele><time>2026-04-16T10:28:29.816Z</time></trkpt><trkpt lat="40.59257" lon="8.2227333"><ele>8.0</ele><time>2026-04-16T10:28:30.816Z</time></trkpt><trkpt lat="40.5924767" lon="8.2228333"><ele>8.0</ele><time>2026-04-16T10:28:31.816Z</time></trkpt><trkpt lat="40.5923817" lon="8.222925"><ele>8.0</ele><time>2026-04-16T10:28:32.817Z</time></trkpt><trkpt lat="40.592285" lon="8.22302"><ele>8.0</ele><time>2026-04-16T10:28:33.817Z</time></trkpt><trkpt lat="40.59218" lon="8.2231033"><ele>8.0</ele><time>2026-04-16T10:28:34.817Z</time></trkpt><trkpt lat="40.59207" lon="8.223165"><ele>8.0</ele><time>2026-04-16T10:28:35.817Z</time></trkpt><trkpt lat="40.5919633" lon="8.223225"><ele>8.0</ele><time>2026-04-16T10:28:36.817Z</time></trkpt><trkpt lat="40.5918567" lon="8.2232783"><ele>8.0</ele><time>2026-04-16T10:28:37.817Z</time></trkpt><trkpt lat="40.5917433" lon="8.223325"><ele>8.0</ele><time>2026-04-16T10:28:38.816Z</time></trkpt><trkpt lat="40.5916333" lon="8.2233633"><ele>8.0</ele><time>2026-04-16T10:28:39.817Z</time></trkpt><trkpt lat="40.5915167" lon="8.2233883"><ele>8.0</ele><time>2026-04-16T10:28:40.817Z</time></trkpt><trkpt lat="40.5913933" lon="8.2234067"><ele>8.0</ele><time>2026-04-16T10:28:41.817Z</time></trkpt><trkpt lat="40.59127" lon="8.2234133"><ele>8.0</ele><time>2026-04-16T10:28:42.816Z</time></trkpt><trkpt lat="40.5911433" lon="8.22341"><ele>8.200000000000001</ele><time>2026-04-16T10:28:43.816Z</time></trkpt><trkpt lat="40.5910233" lon="8.223395"><ele>8.4</ele><time>2026-04-16T10:28:44.817Z</time></trkpt><trkpt lat="40.590915" lon="8.2233783"><ele>8.600000000000001</ele><time>2026-04-16T10:28:45.817Z</time></trkpt><trkpt lat="40.5908133" lon="8.2233483"><ele>8.8</ele><time>2026-04-16T10:28:46.816Z</time></trkpt><trkpt lat="40.5907183" lon="8.22331"><ele>9.0</ele><time>2026-04-16T10:28:47.817Z</time></trkpt><trkpt lat="40.59064" lon="8.2232833"><ele>9.0</ele><time>2026-04-16T10:28:48.816Z</time></trkpt><trkpt lat="40.5905683" lon="8.223265"><ele>9.0</ele><time>2026-04-16T10:28:50.817Z</time></trkpt><trkpt lat="40.5904733" lon="8.2232417"><ele>9.0</ele><time>2026-04-16T10:28:53.817Z</time></trkpt><trkpt lat="40.59037" lon="8.2231767"><ele>9.0</ele><time>2026-04-16T10:28:55.817Z</time></trkpt><trkpt lat="40.5903067" lon="8.2231333"><ele>9.0</ele><time>2026-04-16T10:28:56.816Z</time></trkpt><trkpt lat="40.5902333" lon="8.2230833"><ele>9.0</ele><time>2026-04-16T10:28:57.816Z</time></trkpt><trkpt lat="40.590155" lon="8.223035"><ele>9.8</ele><time>2026-04-16T10:28:58.816Z</time></trkpt><trkpt lat="40.5900733" lon="8.2229867"><ele>10.600000000000001</ele><time>2026-04-16T10:28:59.816Z</time></trkpt><trkpt lat="40.5899933" lon="8.2229217"><ele>11.4</ele><time>2026-04-16T10:29:00.817Z</time></trkpt><trkpt lat="40.589915" lon="8.2228483"><ele>12.200000000000001</ele><time>2026-04-16T10:29:01.817Z</time></trkpt><trkpt lat="40.5898417" lon="8.222775"><ele>13.0</ele><time>2026-04-16T10:29:02.816Z</time></trkpt><trkpt lat="40.5897617" lon="8.2227117"><ele>13.0</ele><time>2026-04-16T10:29:03.817Z</time></trkpt><trkpt lat="40.589675" lon="8.2226667"><ele>13.0</ele><time>2026-04-16T10:29:04.817Z</time></trkpt><trkpt lat="40.589585" lon="8.222645"><ele>13.0</ele><time>2026-04-16T10:29:05.817Z</time></trkpt><trkpt lat="40.589485" lon="8.2226367"><ele>13.0</ele><time>2026-04-16T10:29:06.816Z</time></trkpt><trkpt lat="40.5893783" lon="8.2226417"><ele>13.0</ele><time>2026-04-16T10:29:07.816Z</time></trkpt><trkpt lat="40.58927" lon="8.22263"><ele>13.2</ele><time>2026-04-16T10:29:08.816Z</time></trkpt><trkpt lat="40.58916" lon="8.22262"><ele>13.4</ele><time>2026-04-16T10:29:09.817Z</time></trkpt><trkpt lat="40.5890517" lon="8.222595"><ele>13.599999999999998</ele><time>2026-04-16T10:29:10.816Z</time></trkpt><trkpt lat="40.5889467" lon="8.222565"><ele>13.799999999999999</ele><time>2026-04-16T10:29:11.817Z</time></trkpt><trkpt lat="40.5888433" lon="8.2225217"><ele>14.0</ele><time>2026-04-16T10:29:12.817Z</time></trkpt><trkpt lat="40.588735" lon="8.2224717"><ele>14.6</ele><time>2026-04-16T10:29:13.816Z</time></trkpt><trkpt lat="40.58863" lon="8.2224217"><ele>15.2</ele><time>2026-04-16T10:29:14.816Z</time></trkpt><trkpt lat="40.58853" lon="8.222365"><ele>15.799999999999999</ele><time>2026-04-16T10:29:15.816Z</time></trkpt><trkpt lat="40.5884367" lon="8.2223133"><ele>16.4</ele><time>2026-04-16T10:29:16.817Z</time></trkpt><trkpt lat="40.5883483" lon="8.22226"><ele>17.0</ele><time>2026-04-16T10:29:17.817Z</time></trkpt><trkpt lat="40.5882733" lon="8.2222183"><ele>17.5</ele><time>2026-04-16T10:29:18.816Z</time></trkpt><trkpt lat="40.5881933" lon="8.222185"><ele>18.0</ele><time>2026-04-16T10:29:19.817Z</time></trkpt><trkpt lat="40.588115" lon="8.2221517"><ele>18.5</ele><time>2026-04-16T10:29:20.816Z</time></trkpt><trkpt lat="40.5880317" lon="8.2221217"><ele>19.0</ele><time>2026-04-16T10:29:21.817Z</time></trkpt><trkpt lat="40.58794" lon="8.2221033"><ele>19.5</ele><time>2026-04-16T10:29:22.816Z</time></trkpt><trkpt lat="40.587845" lon="8.2220867"><ele>20.0</ele><time>2026-04-16T10:29:23.817Z</time></trkpt><trkpt lat="40.5877433" lon="8.2220817"><ele>21.75</ele><time>2026-04-16T10:29:24.817Z</time></trkpt><trkpt lat="40.5876367" lon="8.2220967"><ele>23.5</ele><time>2026-04-16T10:29:25.817Z</time></trkpt><trkpt lat="40.587425" lon="8.2221467"><ele>25.25</ele><time>2026-04-16T10:29:27.817Z</time></trkpt><trkpt lat="40.5873133" lon="8.2221767"><ele>27.0</ele><time>2026-04-16T10:29:28.817Z</time></trkpt><trkpt lat="40.5872" lon="8.2222167"><ele>27.0</ele><time>2026-04-16T10:29:29.816Z</time></trkpt><trkpt lat="40.58709" lon="8.222265"><ele>27.0</ele><time>2026-04-16T10:29:30.816Z</time></trkpt><trkpt lat="40.5869783" lon="8.22232"><ele>27.0</ele><time>2026-04-16T10:29:31.816Z</time></trkpt><trkpt lat="40.5868633" lon="8.2223933"><ele>27.0</ele><time>2026-04-16T10:29:32.816Z</time></trkpt><trkpt lat="40.586755" lon="8.222475"><ele>27.0</ele><time>2026-04-16T10:29:33.816Z</time></trkpt><trkpt lat="40.586645" lon="8.2225583"><ele>27.0</ele><time>2026-04-16T10:29:34.816Z</time></trkpt><trkpt lat="40.5865367" lon="8.2226517"><ele>27.0</ele><time>2026-04-16T10:29:35.817Z</time></trkpt><trkpt lat="40.58643" lon="8.22275"><ele>27.0</ele><time>2026-04-16T10:29:36.817Z</time></trkpt><trkpt lat="40.5863183" lon="8.2228433"><ele>27.0</ele><time>2026-04-16T10:29:37.816Z</time></trkpt><trkpt lat="40.5862083" lon="8.2229433"><ele>27.0</ele><time>2026-04-16T10:29:38.816Z</time></trkpt><trkpt lat="40.5860983" lon="8.2230317"><ele>27.0</ele><time>2026-04-16T10:29:39.817Z</time></trkpt><trkpt lat="40.58599" lon="8.2231267"><ele>27.0</ele><time>2026-04-16T10:29:40.817Z</time></trkpt><trkpt lat="40.5858867" lon="8.2232367"><ele>27.0</ele><time>2026-04-16T10:29:41.817Z</time></trkpt><trkpt lat="40.5857967" lon="8.2233567"><ele>27.0</ele><time>2026-04-16T10:29:42.817Z</time></trkpt><trkpt lat="40.5857067" lon="8.223475"><ele>27.0</ele><time>2026-04-16T10:29:43.816Z</time></trkpt><trkpt lat="40.5856183" lon="8.2235967"><ele>27.0</ele><time>2026-04-16T10:29:44.816Z</time></trkpt><trkpt lat="40.5855267" lon="8.2237133"><ele>27.0</ele><time>2026-04-16T10:29:45.817Z</time></trkpt><trkpt lat="40.5854333" lon="8.22383"><ele>27.0</ele><time>2026-04-16T10:29:46.817Z</time></trkpt><trkpt lat="40.5853533" lon="8.22394"><ele>27.0</ele><time>2026-04-16T10:29:47.817Z</time></trkpt><trkpt lat="40.5852717" lon="8.2240533"><ele>27.0</ele><time>2026-04-16T10:29:48.817Z</time></trkpt><trkpt lat="40.585185" lon="8.22416"><ele>27.5</ele><time>2026-04-16T10:29:49.816Z</time></trkpt><trkpt lat="40.5850967" lon="8.2242733"><ele>28.0</ele><time>2026-04-16T10:29:50.817Z</time></trkpt><trkpt lat="40.5850083" lon="8.22439"><ele>28.5</ele><time>2026-04-16T10:29:51.817Z</time></trkpt><trkpt lat="40.5849183" lon="8.22451"><ele>29.0</ele><time>2026-04-16T10:29:52.817Z</time></trkpt><trkpt lat="40.5848267" lon="8.2246317"><ele>29.0</ele><time>2026-04-16T10:29:53.817Z</time></trkpt><trkpt lat="40.584735" lon="8.2247583"><ele>29.0</ele><time>2026-04-16T10:29:54.817Z</time></trkpt><trkpt lat="40.5846433" lon="8.2248883"><ele>29.0</ele><time>2026-04-16T10:29:55.817Z</time></trkpt><trkpt lat="40.58455" lon="8.225025"><ele>29.0</ele><time>2026-04-16T10:29:56.816Z</time></trkpt><trkpt lat="40.584455" lon="8.2251583"><ele>29.0</ele><time>2026-04-16T10:29:57.817Z</time></trkpt><trkpt lat="40.5843567" lon="8.225295"><ele>29.0</ele><time>2026-04-16T10:29:58.817Z</time></trkpt><trkpt lat="40.5842567" lon="8.2254333"><ele>29.0</ele><time>2026-04-16T10:29:59.816Z</time></trkpt><trkpt lat="40.58416" lon="8.2255717"><ele>29.0</ele><time>2026-04-16T10:30:00.816Z</time></trkpt><trkpt lat="40.5840617" lon="8.2257067"><ele>29.0</ele><time>2026-04-16T10:30:01.817Z</time></trkpt><trkpt lat="40.583965" lon="8.225835"><ele>29.0</ele><time>2026-04-16T10:30:02.816Z</time></trkpt><trkpt lat="40.5838667" lon="8.2259617"><ele>29.0</ele><time>2026-04-16T10:30:03.816Z</time></trkpt><trkpt lat="40.5837733" lon="8.22609"><ele>29.0</ele><time>2026-04-16T10:30:04.817Z</time></trkpt><trkpt lat="40.5836917" lon="8.2262167"><ele>30.0</ele><time>2026-04-16T10:30:05.817Z</time></trkpt><trkpt lat="40.5836067" lon="8.22633"><ele>31.0</ele><time>2026-04-16T10:30:06.816Z</time></trkpt><trkpt lat="40.5835283" lon="8.2264433"><ele>32.0</ele><time>2026-04-16T10:30:07.817Z</time></trkpt><trkpt lat="40.5834417" lon="8.2265583"><ele>33.0</ele><time>2026-04-16T10:30:08.816Z</time></trkpt><trkpt lat="40.58336" lon="8.2266717"><ele>33.0</ele><time>2026-04-16T10:30:09.817Z</time></trkpt><trkpt lat="40.5832717" lon="8.2267933"><ele>33.0</ele><time>2026-04-16T10:30:10.816Z</time></trkpt><trkpt lat="40.5831783" lon="8.22691"><ele>33.0</ele><time>2026-04-16T10:30:11.817Z</time></trkpt><trkpt lat="40.5830867" lon="8.227025"><ele>33.0</ele><time>2026-04-16T10:30:12.816Z</time></trkpt><trkpt lat="40.5829967" lon="8.227145"><ele>33.0</ele><time>2026-04-16T10:30:13.817Z</time></trkpt><trkpt lat="40.582905" lon="8.2272633"><ele>33.0</ele><time>2026-04-16T10:30:14.817Z</time></trkpt><trkpt lat="40.5828217" lon="8.2273933"><ele>33.0</ele><time>2026-04-16T10:30:15.816Z</time></trkpt><trkpt lat="40.582735" lon="8.2275217"><ele>33.0</ele><time>2026-04-16T10:30:16.817Z</time></trkpt><trkpt lat="40.582645" lon="8.2276483"><ele>35.0</ele><time>2026-04-16T10:30:17.817Z</time></trkpt><trkpt lat="40.5825567" lon="8.2277733"><ele>37.0</ele><time>2026-04-16T10:30:18.816Z</time></trkpt><trkpt lat="40.5824667" lon="8.2279017"><ele>39.0</ele><time>2026-04-16T10:30:19.816Z</time></trkpt><trkpt lat="40.58238" lon="8.228035"><ele>41.0</ele><time>2026-04-16T10:30:20.817Z</time></trkpt><trkpt lat="40.5822867" lon="8.22816"><ele>41.0</ele><time>2026-04-16T10:30:21.816Z</time></trkpt><trkpt lat="40.5821917" lon="8.22829"><ele>41.0</ele><time>2026-04-16T10:30:22.817Z</time></trkpt><trkpt lat="40.582095" lon="8.2284217"><ele>41.0</ele><time>2026-04-16T10:30:23.817Z</time></trkpt><trkpt lat="40.582" lon="8.22855"><ele>41.0</ele><time>2026-04-16T10:30:24.816Z</time></trkpt><trkpt lat="40.58191" lon="8.2286783"><ele>41.0</ele><time>2026-04-16T10:30:25.816Z</time></trkpt><trkpt lat="40.5818167" lon="8.2288"><ele>41.0</ele><time>2026-04-16T10:30:26.816Z</time></trkpt><trkpt lat="40.5817317" lon="8.22892"><ele>41.0</ele><time>2026-04-16T10:30:27.816Z</time></trkpt><trkpt lat="40.58164" lon="8.229045"><ele>41.0</ele><time>2026-04-16T10:30:28.817Z</time></trkpt><trkpt lat="40.581545" lon="8.2291717"><ele>41.0</ele><time>2026-04-16T10:30:29.816Z</time></trkpt><trkpt lat="40.581445" lon="8.2292983"><ele>41.0</ele><time>2026-04-16T10:30:30.816Z</time></trkpt><trkpt lat="40.5813483" lon="8.2294317"><ele>41.0</ele><time>2026-04-16T10:30:31.817Z</time></trkpt><trkpt lat="40.5812517" lon="8.2295583"><ele>41.0</ele><time>2026-04-16T10:30:32.817Z</time></trkpt><trkpt lat="40.58116" lon="8.22969"><ele>40.25</ele><time>2026-04-16T10:30:33.816Z</time></trkpt><trkpt lat="40.5810583" lon="8.2298233"><ele>39.5</ele><time>2026-04-16T10:30:34.816Z</time></trkpt><trkpt lat="40.5809567" lon="8.229955"><ele>38.75</ele><time>2026-04-16T10:30:35.816Z</time></trkpt><trkpt lat="40.58086" lon="8.2300833"><ele>38.0</ele><time>2026-04-16T10:30:36.816Z</time></trkpt><trkpt lat="40.5807567" lon="8.2302117"><ele>38.0</ele><time>2026-04-16T10:30:37.816Z</time></trkpt><trkpt lat="40.5806533" lon="8.23035"><ele>38.0</ele><time>2026-04-16T10:30:38.816Z</time></trkpt><trkpt lat="40.5805517" lon="8.2304767"><ele>38.0</ele><time>2026-04-16T10:30:39.816Z</time></trkpt><trkpt lat="40.5804533" lon="8.2306017"><ele>38.0</ele><time>2026-04-16T10:30:40.817Z</time></trkpt><trkpt lat="40.5803617" lon="8.230715"><ele>37.0</ele><time>2026-04-16T10:30:41.817Z</time></trkpt><trkpt lat="40.5802817" lon="8.2308233"><ele>36.0</ele><time>2026-04-16T10:30:42.817Z</time></trkpt><trkpt lat="40.5802" lon="8.23093"><ele>35.0</ele><time>2026-04-16T10:30:43.817Z</time></trkpt><trkpt lat="40.58013" lon="8.2310383"><ele>34.0</ele><time>2026-04-16T10:30:44.816Z</time></trkpt><trkpt lat="40.580075" lon="8.231155"><ele>33.0</ele><time>2026-04-16T10:30:45.816Z</time></trkpt><trkpt lat="40.5800283" lon="8.2312833"><ele>33.0</ele><time>2026-04-16T10:30:46.817Z</time></trkpt><trkpt lat="40.5799933" lon="8.2314183"><ele>33.0</ele><time>2026-04-16T10:30:47.817Z</time></trkpt><trkpt lat="40.5799533" lon="8.23155"><ele>33.0</ele><time>2026-04-16T10:30:48.817Z</time></trkpt><trkpt lat="40.5799317" lon="8.2316767"><ele>33.0</ele><time>2026-04-16T10:30:49.817Z</time></trkpt><trkpt lat="40.5799133" lon="8.2318217"><ele>33.0</ele><time>2026-04-16T10:30:50.817Z</time></trkpt><trkpt lat="40.5799133" lon="8.2319667"><ele>32.5</ele><time>2026-04-16T10:30:51.817Z</time></trkpt><trkpt lat="40.5799183" lon="8.2321267"><ele>32.0</ele><time>2026-04-16T10:30:52.816Z</time></trkpt><trkpt lat="40.5799333" lon="8.2322733"><ele>31.5</ele><time>2026-04-16T10:30:53.816Z</time></trkpt><trkpt lat="40.579965" lon="8.23242"><ele>31.0</ele><time>2026-04-16T10:30:54.817Z</time></trkpt><trkpt lat="40.5800083" lon="8.2325633"><ele>31.0</ele><time>2026-04-16T10:30:55.817Z</time></trkpt><trkpt lat="40.58006" lon="8.232695"><ele>31.0</ele><time>2026-04-16T10:30:56.817Z</time></trkpt><trkpt lat="40.5801083" lon="8.2328217"><ele>31.0</ele><time>2026-04-16T10:30:57.816Z</time></trkpt><trkpt lat="40.580145" lon="8.2329417"><ele>31.0</ele><time>2026-04-16T10:30:58.817Z</time></trkpt><trkpt lat="40.58017" lon="8.233065"><ele>31.0</ele><time>2026-04-16T10:30:59.817Z</time></trkpt><trkpt lat="40.5801717" lon="8.2331883"><ele>31.8</ele><time>2026-04-16T10:31:00.816Z</time></trkpt><trkpt lat="40.58016" lon="8.2333183"><ele>32.6</ele><time>2026-04-16T10:31:01.816Z</time></trkpt><trkpt lat="40.5801483" lon="8.233445"><ele>33.4</ele><time>2026-04-16T10:31:02.817Z</time></trkpt><trkpt lat="40.58013" lon="8.2335867"><ele>34.2</ele><time>2026-04-16T10:31:03.817Z</time></trkpt><trkpt lat="40.580095" lon="8.2337083"><ele>35.0</ele><time>2026-04-16T10:31:04.817Z</time></trkpt><trkpt lat="40.5800467" lon="8.233815"><ele>35.0</ele><time>2026-04-16T10:31:05.816Z</time></trkpt><trkpt lat="40.57998" lon="8.2339167"><ele>35.0</ele><time>2026-04-16T10:31:06.817Z</time></trkpt><trkpt lat="40.57991" lon="8.2340283"><ele>35.0</ele><time>2026-04-16T10:31:07.817Z</time></trkpt><trkpt lat="40.579835" lon="8.2341433"><ele>35.0</ele><time>2026-04-16T10:31:08.817Z</time></trkpt><trkpt lat="40.5797583" lon="8.2342617"><ele>35.0</ele><time>2026-04-16T10:31:09.816Z</time></trkpt><trkpt lat="40.579675" lon="8.2343883"><ele>34.75</ele><time>2026-04-16T10:31:10.816Z</time></trkpt><trkpt lat="40.5795967" lon="8.234525"><ele>34.5</ele><time>2026-04-16T10:31:11.816Z</time></trkpt><trkpt lat="40.5795167" lon="8.234665"><ele>34.25</ele><time>2026-04-16T10:31:12.816Z</time></trkpt><trkpt lat="40.5794367" lon="8.2348067"><ele>34.0</ele><time>2026-04-16T10:31:13.817Z</time></trkpt><trkpt lat="40.5793517" lon="8.2349433"><ele>34.75</ele><time>2026-04-16T10:31:14.816Z</time></trkpt><trkpt lat="40.5792683" lon="8.2350833"><ele>35.5</ele><time>2026-04-16T10:31:15.817Z</time></trkpt><trkpt lat="40.579185" lon="8.235215"><ele>36.25</ele><time>2026-04-16T10:31:16.817Z</time></trkpt><trkpt lat="40.5791033" lon="8.2353467"><ele>37.0</ele><time>2026-04-16T10:31:17.817Z</time></trkpt><trkpt lat="40.579025" lon="8.2354817"><ele>37.0</ele><time>2026-04-16T10:31:18.816Z</time></trkpt><trkpt lat="40.5789433" lon="8.2356183"><ele>37.0</ele><time>2026-04-16T10:31:19.816Z</time></trkpt><trkpt lat="40.578865" lon="8.2357583"><ele>37.0</ele><time>2026-04-16T10:31:20.817Z</time></trkpt><trkpt lat="40.578785" lon="8.2358867"><ele>37.0</ele><time>2026-04-16T10:31:21.817Z</time></trkpt><trkpt lat="40.578705" lon="8.2360167"><ele>37.0</ele><time>2026-04-16T10:31:22.817Z</time></trkpt><trkpt lat="40.5786217" lon="8.23615"><ele>37.0</ele><time>2026-04-16T10:31:23.816Z</time></trkpt><trkpt lat="40.5785383" lon="8.2362883"><ele>37.0</ele><time>2026-04-16T10:31:24.817Z</time></trkpt><trkpt lat="40.57846" lon="8.2364267"><ele>37.0</ele><time>2026-04-16T10:31:25.817Z</time></trkpt><trkpt lat="40.5783767" lon="8.2365633"><ele>37.0</ele><time>2026-04-16T10:31:26.817Z</time></trkpt><trkpt lat="40.5782933" lon="8.2366983"><ele>37.0</ele><time>2026-04-16T10:31:27.817Z</time></trkpt><trkpt lat="40.5782117" lon="8.2368317"><ele>37.0</ele><time>2026-04-16T10:31:28.816Z</time></trkpt><trkpt lat="40.57813" lon="8.236965"><ele>37.0</ele><time>2026-04-16T10:31:29.816Z</time></trkpt><trkpt lat="40.57805" lon="8.237105"><ele>37.0</ele><time>2026-04-16T10:31:30.816Z</time></trkpt><trkpt lat="40.5779683" lon="8.2372317"><ele>37.0</ele><time>2026-04-16T10:31:31.817Z</time></trkpt><trkpt lat="40.57788" lon="8.23736"><ele>37.0</ele><time>2026-04-16T10:31:32.817Z</time></trkpt><trkpt lat="40.5777983" lon="8.2374883"><ele>37.0</ele><time>2026-04-16T10:31:33.817Z</time></trkpt><trkpt lat="40.57772" lon="8.2376233"><ele>36.5</ele><time>2026-04-16T10:31:34.817Z</time></trkpt><trkpt lat="40.5776383" lon="8.2377633"><ele>36.0</ele><time>2026-04-16T10:31:35.816Z</time></trkpt><trkpt lat="40.5775533" lon="8.2379067"><ele>35.5</ele><time>2026-04-16T10:31:36.817Z</time></trkpt><trkpt lat="40.57747" lon="8.2380433"><ele>35.0</ele><time>2026-04-16T10:31:37.816Z</time></trkpt><trkpt lat="40.5773883" lon="8.2381833"><ele>35.0</ele><time>2026-04-16T10:31:38.816Z</time></trkpt><trkpt lat="40.5773067" lon="8.238325"><ele>35.0</ele><time>2026-04-16T10:31:39.817Z</time></trkpt><trkpt lat="40.57722" lon="8.2384683"><ele>35.0</ele><time>2026-04-16T10:31:40.816Z</time></trkpt><trkpt lat="40.577135" lon="8.2386067"><ele>35.0</ele><time>2026-04-16T10:31:41.816Z</time></trkpt><trkpt lat="40.5770467" lon="8.2387467"><ele>34.0</ele><time>2026-04-16T10:31:42.816Z</time></trkpt><trkpt lat="40.5769617" lon="8.2388933"><ele>33.0</ele><time>2026-04-16T10:31:43.816Z</time></trkpt><trkpt lat="40.5768733" lon="8.2390283"><ele>32.0</ele><time>2026-04-16T10:31:44.817Z</time></trkpt><trkpt lat="40.5767917" lon="8.23917"><ele>31.0</ele><time>2026-04-16T10:31:45.817Z</time></trkpt><trkpt lat="40.5767117" lon="8.239315"><ele>31.0</ele><time>2026-04-16T10:31:46.816Z</time></trkpt><trkpt lat="40.5766217" lon="8.23945"><ele>31.0</ele><time>2026-04-16T10:31:47.816Z</time></trkpt><trkpt lat="40.5765367" lon="8.2395883"><ele>31.0</ele><time>2026-04-16T10:31:48.816Z</time></trkpt><trkpt lat="40.5764533" lon="8.23973"><ele>31.0</ele><time>2026-04-16T10:31:49.817Z</time></trkpt><trkpt lat="40.5763683" lon="8.23987"><ele>31.25</ele><time>2026-04-16T10:31:50.817Z</time></trkpt><trkpt lat="40.5762833" lon="8.24001"><ele>31.5</ele><time>2026-04-16T10:31:51.817Z</time></trkpt><trkpt lat="40.5761967" lon="8.2401567"><ele>31.75</ele><time>2026-04-16T10:31:52.817Z</time></trkpt><trkpt lat="40.5761133" lon="8.2402967"><ele>32.0</ele><time>2026-04-16T10:31:53.816Z</time></trkpt><trkpt lat="40.576025" lon="8.240435"><ele>31.25</ele><time>2026-04-16T10:31:54.817Z</time></trkpt><trkpt lat="40.5759433" lon="8.2405783"><ele>30.5</ele><time>2026-04-16T10:31:55.817Z</time></trkpt><trkpt lat="40.575865" lon="8.2407"><ele>29.75</ele><time>2026-04-16T10:31:56.816Z</time></trkpt><trkpt lat="40.5757933" lon="8.2408183"><ele>29.0</ele><time>2026-04-16T10:31:57.817Z</time></trkpt><trkpt lat="40.57572" lon="8.2409433"><ele>29.0</ele><time>2026-04-16T10:31:58.816Z</time></trkpt><trkpt lat="40.5756367" lon="8.2410633"><ele>29.0</ele><time>2026-04-16T10:31:59.816Z</time></trkpt><trkpt lat="40.5755633" lon="8.2411933"><ele>29.0</ele><time>2026-04-16T10:32:00.817Z</time></trkpt><trkpt lat="40.5754867" lon="8.2413267"><ele>29.0</ele><time>2026-04-16T10:32:01.817Z</time></trkpt><trkpt lat="40.575415" lon="8.2414633"><ele>28.0</ele><time>2026-04-16T10:32:02.817Z</time></trkpt><trkpt lat="40.5753317" lon="8.2415767"><ele>27.0</ele><time>2026-04-16T10:32:03.816Z</time></trkpt><trkpt lat="40.5752483" lon="8.2416867"><ele>26.0</ele><time>2026-04-16T10:32:04.817Z</time></trkpt><trkpt lat="40.5751517" lon="8.2417617"><ele>25.0</ele><time>2026-04-16T10:32:05.816Z</time></trkpt><trkpt lat="40.5750483" lon="8.2418267"><ele>25.0</ele><time>2026-04-16T10:32:06.816Z</time></trkpt><trkpt lat="40.5749317" lon="8.24188"><ele>25.0</ele><time>2026-04-16T10:32:07.817Z</time></trkpt><trkpt lat="40.5748183" lon="8.2419517"><ele>25.0</ele><time>2026-04-16T10:32:08.817Z</time></trkpt><trkpt lat="40.5747017" lon="8.2420283"><ele>25.0</ele><time>2026-04-16T10:32:09.817Z</time></trkpt><trkpt lat="40.57459" lon="8.2421217"><ele>24.5</ele><time>2026-04-16T10:32:10.817Z</time></trkpt><trkpt lat="40.57448" lon="8.2422217"><ele>24.0</ele><time>2026-04-16T10:32:11.816Z</time></trkpt><trkpt lat="40.5743817" lon="8.2423283"><ele>23.5</ele><time>2026-04-16T10:32:12.817Z</time></trkpt><trkpt lat="40.5742933" lon="8.2424533"><ele>23.0</ele><time>2026-04-16T10:32:13.816Z</time></trkpt><trkpt lat="40.574215" lon="8.2425867"><ele>24.2</ele><time>2026-04-16T10:32:14.817Z</time></trkpt><trkpt lat="40.57415" lon="8.2427217"><ele>25.4</ele><time>2026-04-16T10:32:15.816Z</time></trkpt><trkpt lat="40.574105" lon="8.2428517"><ele>26.599999999999998</ele><time>2026-04-16T10:32:16.816Z</time></trkpt><trkpt lat="40.5740917" lon="8.2429733"><ele>27.799999999999997</ele><time>2026-04-16T10:32:17.816Z</time></trkpt><trkpt lat="40.5740917" lon="8.243075"><ele>29.0</ele><time>2026-04-16T10:32:18.816Z</time></trkpt><trkpt lat="40.5740817" lon="8.2431933"><ele>29.4</ele><time>2026-04-16T10:32:20.815Z</time></trkpt><trkpt lat="40.5739983" lon="8.243215"><ele>29.799999999999997</ele><time>2026-04-16T10:32:28.815Z</time></trkpt><trkpt lat="40.573905" lon="8.2431967"><ele>30.200000000000003</ele><time>2026-04-16T10:32:30.816Z</time></trkpt><trkpt lat="40.57378" lon="8.2431817"><ele>30.6</ele><time>2026-04-16T10:32:32.816Z</time></trkpt><trkpt lat="40.57371" lon="8.243175"><ele>31.0</ele><time>2026-04-16T10:32:33.816Z</time></trkpt><trkpt lat="40.573625" lon="8.2431617"><ele>30.333333333333336</ele><time>2026-04-16T10:32:34.815Z</time></trkpt><trkpt lat="40.573535" lon="8.243155"><ele>29.666666666666668</ele><time>2026-04-16T10:32:35.816Z</time></trkpt><trkpt lat="40.5734533" lon="8.243155"><ele>29.0</ele><time>2026-04-16T10:32:36.815Z</time></trkpt><trkpt lat="40.5733733" lon="8.2431567"><ele>28.333333333333336</ele><time>2026-04-16T10:32:37.816Z</time></trkpt><trkpt lat="40.573285" lon="8.243145"><ele>27.666666666666668</ele><time>2026-04-16T10:32:38.816Z</time></trkpt><trkpt lat="40.5731917" lon="8.243125"><ele>27.0</ele><time>2026-04-16T10:32:39.816Z</time></trkpt><trkpt lat="40.5731017" lon="8.2431"><ele>26.833333333333332</ele><time>2026-04-16T10:32:40.816Z</time></trkpt><trkpt lat="40.5730167" lon="8.24308"><ele>26.666666666666664</ele><time>2026-04-16T10:32:41.816Z</time></trkpt><trkpt lat="40.5729383" lon="8.24305"><ele>26.5</ele><time>2026-04-16T10:32:42.816Z</time></trkpt><trkpt lat="40.5728617" lon="8.243005"><ele>26.333333333333332</ele><time>2026-04-16T10:32:43.815Z</time></trkpt><trkpt lat="40.572785" lon="8.2429717"><ele>26.166666666666664</ele><time>2026-04-16T10:32:44.815Z</time></trkpt><trkpt lat="40.572695" lon="8.242925"><ele>26.0</ele><time>2026-04-16T10:32:45.815Z</time></trkpt><trkpt lat="40.5726017" lon="8.2428783"><ele>25.25</ele><time>2026-04-16T10:32:46.815Z</time></trkpt><trkpt lat="40.5724917" lon="8.2428383"><ele>24.5</ele><time>2026-04-16T10:32:47.816Z</time></trkpt><trkpt lat="40.5723767" lon="8.242795"><ele>23.75</ele><time>2026-04-16T10:32:48.816Z</time></trkpt><trkpt lat="40.572255" lon="8.2427383"><ele>23.0</ele><time>2026-04-16T10:32:49.816Z</time></trkpt><trkpt lat="40.572125" lon="8.2426783"><ele>22.0</ele><time>2026-04-16T10:32:50.815Z</time></trkpt><trkpt lat="40.5720017" lon="8.2426"><ele>21.0</ele><time>2026-04-16T10:32:51.816Z</time></trkpt><trkpt lat="40.5718767" lon="8.2425417"><ele>20.0</ele><time>2026-04-16T10:32:52.815Z</time></trkpt><trkpt lat="40.5717567" lon="8.24247"><ele>19.0</ele><time>2026-04-16T10:32:53.816Z</time></trkpt><trkpt lat="40.57165" lon="8.242415"><ele>19.0</ele><time>2026-04-16T10:32:54.815Z</time></trkpt><trkpt lat="40.5715467" lon="8.2423667"><ele>19.0</ele><time>2026-04-16T10:32:55.816Z</time></trkpt><trkpt lat="40.57145" lon="8.2423167"><ele>19.0</ele><time>2026-04-16T10:32:56.816Z</time></trkpt><trkpt lat="40.5713633" lon="8.24228"><ele>19.0</ele><time>2026-04-16T10:32:57.816Z</time></trkpt><trkpt lat="40.5712917" lon="8.24227"><ele>19.0</ele><time>2026-04-16T10:32:58.816Z</time></trkpt><trkpt lat="40.5712217" lon="8.242275"><ele>19.0</ele><time>2026-04-16T10:32:59.816Z</time></trkpt><trkpt lat="40.57111" lon="8.242325"><ele>18.25</ele><time>2026-04-16T10:33:01.816Z</time></trkpt><trkpt lat="40.5710317" lon="8.2423683"><ele>17.5</ele><time>2026-04-16T10:33:03.816Z</time></trkpt><trkpt lat="40.5708683" lon="8.242455"><ele>16.75</ele><time>2026-04-16T10:33:40.815Z</time></trkpt><trkpt lat="40.57076" lon="8.2425183"><ele>16.0</ele><time>2026-04-16T10:33:42.815Z</time></trkpt><trkpt lat="40.57065" lon="8.2425867"><ele>16.0</ele><time>2026-04-16T10:33:44.815Z</time></trkpt><trkpt lat="40.570545" lon="8.2426417"><ele>16.0</ele><time>2026-04-16T10:33:46.815Z</time></trkpt><trkpt lat="40.5704417" lon="8.2426833"><ele>16.0</ele><time>2026-04-16T10:33:48.816Z</time></trkpt><trkpt lat="40.5703633" lon="8.242735"><ele>16.0</ele><time>2026-04-16T10:33:50.815Z</time></trkpt><trkpt lat="40.570285" lon="8.2427983"><ele>16.0</ele><time>2026-04-16T10:33:52.815Z</time></trkpt><trkpt lat="40.5702517" lon="8.2428817"><ele>15.999999999999998</ele><time>2026-04-16T10:33:54.815Z</time></trkpt><trkpt lat="40.5702467" lon="8.2429867"><ele>16.0</ele><time>2026-04-16T10:33:57.815Z</time></trkpt><trkpt lat="40.5702683" lon="8.2428917"><ele>16.0</ele><time>2026-04-16T11:05:29.812Z</time></trkpt><trkpt lat="40.5703033" lon="8.242795"><ele>16.0</ele><time>2026-04-16T11:05:31.811Z</time></trkpt><trkpt lat="40.5703633" lon="8.242735"><ele>15.999999999999998</ele><time>2026-04-16T11:05:33.812Z</time></trkpt><trkpt lat="40.5704717" lon="8.24267"><ele>16.0</ele><time>2026-04-16T11:05:35.812Z</time></trkpt><trkpt lat="40.570545" lon="8.2426383"><ele>15.999999999999998</ele><time>2026-04-16T11:05:36.811Z</time></trkpt><trkpt lat="40.5706167" lon="8.2426117"><ele>16.0</ele><time>2026-04-16T11:05:37.811Z</time></trkpt><trkpt lat="40.5706917" lon="8.2425683"><ele>16.0</ele><time>2026-04-16T11:05:38.812Z</time></trkpt><trkpt lat="40.57077" lon="8.2425267"><ele>16.0</ele><time>2026-04-16T11:05:39.811Z</time></trkpt><trkpt lat="40.570845" lon="8.242485"><ele>15.999999999999998</ele><time>2026-04-16T11:05:40.812Z</time></trkpt><trkpt lat="40.570905" lon="8.2424483"><ele>16.0</ele><time>2026-04-16T11:05:41.812Z</time></trkpt><trkpt lat="40.5710017" lon="8.2424"><ele>16.0</ele><time>2026-04-16T11:05:43.811Z</time></trkpt><trkpt lat="40.571105" lon="8.2423383"><ele>16.0</ele><time>2026-04-16T11:05:45.812Z</time></trkpt><trkpt lat="40.5712267" lon="8.2422867"><ele>16.0</ele><time>2026-04-16T11:05:47.812Z</time></trkpt><trkpt lat="40.57136" lon="8.2422967"><ele>16.0</ele><time>2026-04-16T11:05:49.811Z</time></trkpt><trkpt lat="40.57143" lon="8.24232"><ele>16.0</ele><time>2026-04-16T11:05:50.812Z</time></trkpt><trkpt lat="40.5714983" lon="8.2423517"><ele>16.5</ele><time>2026-04-16T11:05:51.812Z</time></trkpt><trkpt lat="40.5715683" lon="8.2423883"><ele>17.0</ele><time>2026-04-16T11:05:52.812Z</time></trkpt><trkpt lat="40.5716383" lon="8.24243"><ele>17.5</ele><time>2026-04-16T11:05:53.812Z</time></trkpt><trkpt lat="40.5717083" lon="8.2424717"><ele>18.0</ele><time>2026-04-16T11:05:54.811Z</time></trkpt><trkpt lat="40.5717767" lon="8.2425067"><ele>18.5</ele><time>2026-04-16T11:05:55.811Z</time></trkpt><trkpt lat="40.5718433" lon="8.2425333"><ele>19.0</ele><time>2026-04-16T11:05:56.812Z</time></trkpt><trkpt lat="40.5719317" lon="8.2425817"><ele>19.0</ele><time>2026-04-16T11:05:58.811Z</time></trkpt><trkpt lat="40.57201" lon="8.2426217"><ele>19.0</ele><time>2026-04-16T11:06:00.811Z</time></trkpt><trkpt lat="40.5721133" lon="8.24267"><ele>19.0</ele><time>2026-04-16T11:06:02.811Z</time></trkpt><trkpt lat="40.57218" lon="8.2427"><ele>19.0</ele><time>2026-04-16T11:06:03.812Z</time></trkpt><trkpt lat="40.5722533" lon="8.2427383"><ele>19.0</ele><time>2026-04-16T11:06:04.812Z</time></trkpt><trkpt lat="40.5723317" lon="8.2427733"><ele>19.0</ele><time>2026-04-16T11:06:05.812Z</time></trkpt><trkpt lat="40.5724133" lon="8.2428033"><ele>19.666666666666664</ele><time>2026-04-16T11:06:06.812Z</time></trkpt><trkpt lat="40.5724917" lon="8.2428383"><ele>20.333333333333332</ele><time>2026-04-16T11:06:07.812Z</time></trkpt><trkpt lat="40.5725733" lon="8.2428717"><ele>21.0</ele><time>2026-04-16T11:06:08.812Z</time></trkpt><trkpt lat="40.5726533" lon="8.2429083"><ele>21.666666666666668</ele><time>2026-04-16T11:06:09.811Z</time></trkpt><trkpt lat="40.57273" lon="8.242945"><ele>22.333333333333336</ele><time>2026-04-16T11:06:10.811Z</time></trkpt><trkpt lat="40.5728" lon="8.2429883"><ele>23.0</ele><time>2026-04-16T11:06:11.811Z</time></trkpt><trkpt lat="40.5728733" lon="8.243025"><ele>23.5</ele><time>2026-04-16T11:06:12.811Z</time></trkpt><trkpt lat="40.5729467" lon="8.2430567"><ele>24.0</ele><time>2026-04-16T11:06:13.811Z</time></trkpt><trkpt lat="40.5730233" lon="8.243085"><ele>24.5</ele><time>2026-04-16T11:06:14.812Z</time></trkpt><trkpt lat="40.5731033" lon="8.24311"><ele>25.0</ele><time>2026-04-16T11:06:15.811Z</time></trkpt><trkpt lat="40.57319" lon="8.2431367"><ele>25.499999999999996</ele><time>2026-04-16T11:06:16.812Z</time></trkpt><trkpt lat="40.5732717" lon="8.2431467"><ele>26.0</ele><time>2026-04-16T11:06:17.812Z</time></trkpt><trkpt lat="40.57335" lon="8.24316"><ele>26.142857142857142</ele><time>2026-04-16T11:06:18.811Z</time></trkpt><trkpt lat="40.57342" lon="8.2431683"><ele>26.28571428571429</ele><time>2026-04-16T11:06:19.812Z</time></trkpt><trkpt lat="40.57349" lon="8.2431767"><ele>26.42857142857143</ele><time>2026-04-16T11:06:20.811Z</time></trkpt><trkpt lat="40.5735633" lon="8.24319"><ele>26.57142857142857</ele><time>2026-04-16T11:06:21.812Z</time></trkpt><trkpt lat="40.5736367" lon="8.243195"><ele>26.714285714285715</ele><time>2026-04-16T11:06:22.811Z</time></trkpt><trkpt lat="40.5737067" lon="8.2432033"><ele>26.857142857142858</ele><time>2026-04-16T11:06:23.812Z</time></trkpt><trkpt lat="40.573775" lon="8.243205"><ele>27.0</ele><time>2026-04-16T11:06:24.811Z</time></trkpt><trkpt lat="40.5738383" lon="8.24321"><ele>27.400000000000002</ele><time>2026-04-16T11:06:25.812Z</time></trkpt><trkpt lat="40.5739517" lon="8.243215"><ele>27.800000000000004</ele><time>2026-04-16T11:06:27.811Z</time></trkpt><trkpt lat="40.5740467" lon="8.2432083"><ele>28.2</ele><time>2026-04-16T11:06:29.812Z</time></trkpt><trkpt lat="40.5740967" lon="8.24315"><ele>28.6</ele><time>2026-04-16T11:06:31.812Z</time></trkpt><trkpt lat="40.5741117" lon="8.243005"><ele>29.0</ele><time>2026-04-16T11:06:33.812Z</time></trkpt><trkpt lat="40.5741233" lon="8.242905"><ele>29.0</ele><time>2026-04-16T11:06:34.811Z</time></trkpt><trkpt lat="40.5741417" lon="8.2427883"><ele>29.0</ele><time>2026-04-16T11:06:35.812Z</time></trkpt><trkpt lat="40.57418" lon="8.2426767"><ele>29.0</ele><time>2026-04-16T11:06:36.811Z</time></trkpt><trkpt lat="40.5742333" lon="8.2425717"><ele>29.0</ele><time>2026-04-16T11:06:37.811Z</time></trkpt><trkpt lat="40.574305" lon="8.2424733"><ele>29.0</ele><time>2026-04-16T11:06:38.812Z</time></trkpt><trkpt lat="40.5743783" lon="8.242375"><ele>28.2</ele><time>2026-04-16T11:06:39.812Z</time></trkpt><trkpt lat="40.5744567" lon="8.2422817"><ele>27.4</ele><time>2026-04-16T11:06:40.812Z</time></trkpt><trkpt lat="40.5745333" lon="8.2422033"><ele>26.6</ele><time>2026-04-16T11:06:41.812Z</time></trkpt><trkpt lat="40.57461" lon="8.2421317"><ele>25.8</ele><time>2026-04-16T11:06:42.812Z</time></trkpt><trkpt lat="40.5746883" lon="8.2420633"><ele>25.0</ele><time>2026-04-16T11:06:43.812Z</time></trkpt><trkpt lat="40.5747767" lon="8.241995"><ele>25.0</ele><time>2026-04-16T11:06:44.811Z</time></trkpt><trkpt lat="40.5748717" lon="8.2419417"><ele>25.0</ele><time>2026-04-16T11:06:45.811Z</time></trkpt><trkpt lat="40.5749767" lon="8.2418783"><ele>25.0</ele><time>2026-04-16T11:06:46.81Z</time></trkpt><trkpt lat="40.57508" lon="8.241815"><ele>25.0</ele><time>2026-04-16T11:06:47.81Z</time></trkpt><trkpt lat="40.5751833" lon="8.2417483"><ele>25.0</ele><time>2026-04-16T11:06:48.811Z</time></trkpt><trkpt lat="40.575285" lon="8.24166"><ele>26.0</ele><time>2026-04-16T11:06:49.811Z</time></trkpt><trkpt lat="40.5753767" lon="8.2415483"><ele>27.0</ele><time>2026-04-16T11:06:50.81Z</time></trkpt><trkpt lat="40.5754633" lon="8.24142"><ele>28.0</ele><time>2026-04-16T11:06:51.811Z</time></trkpt><trkpt lat="40.57554" lon="8.241285"><ele>29.0</ele><time>2026-04-16T11:06:52.81Z</time></trkpt><trkpt lat="40.5756217" lon="8.241145"><ele>29.0</ele><time>2026-04-16T11:06:53.81Z</time></trkpt><trkpt lat="40.5757017" lon="8.2410117"><ele>29.0</ele><time>2026-04-16T11:06:54.81Z</time></trkpt><trkpt lat="40.5757833" lon="8.240875"><ele>29.0</ele><time>2026-04-16T11:06:55.811Z</time></trkpt><trkpt lat="40.575865" lon="8.24073"><ele>29.0</ele><time>2026-04-16T11:06:56.811Z</time></trkpt><trkpt lat="40.5759467" lon="8.24059"><ele>28.75</ele><time>2026-04-16T11:06:57.811Z</time></trkpt><trkpt lat="40.5760333" lon="8.24046"><ele>28.5</ele><time>2026-04-16T11:06:58.811Z</time></trkpt><trkpt lat="40.5761167" lon="8.2403217"><ele>28.25</ele><time>2026-04-16T11:06:59.81Z</time></trkpt><trkpt lat="40.5762017" lon="8.2401883"><ele>28.0</ele><time>2026-04-16T11:07:00.811Z</time></trkpt><trkpt lat="40.576285" lon="8.2400483"><ele>28.75</ele><time>2026-04-16T11:07:01.811Z</time></trkpt><trkpt lat="40.5763617" lon="8.2399117"><ele>29.5</ele><time>2026-04-16T11:07:02.81Z</time></trkpt><trkpt lat="40.5764467" lon="8.2397833"><ele>30.25</ele><time>2026-04-16T11:07:03.81Z</time></trkpt><trkpt lat="40.5765267" lon="8.239645"><ele>31.0</ele><time>2026-04-16T11:07:04.811Z</time></trkpt><trkpt lat="40.5766083" lon="8.2395117"><ele>31.0</ele><time>2026-04-16T11:07:05.81Z</time></trkpt><trkpt lat="40.57669" lon="8.2393767"><ele>31.0</ele><time>2026-04-16T11:07:06.81Z</time></trkpt><trkpt lat="40.576765" lon="8.23924"><ele>31.0</ele><time>2026-04-16T11:07:07.81Z</time></trkpt><trkpt lat="40.5768483" lon="8.23911"><ele>31.0</ele><time>2026-04-16T11:07:08.81Z</time></trkpt><trkpt lat="40.5769333" lon="8.2389767"><ele>32.0</ele><time>2026-04-16T11:07:09.81Z</time></trkpt><trkpt lat="40.5770217" lon="8.2388333"><ele>33.0</ele><time>2026-04-16T11:07:10.811Z</time></trkpt><trkpt lat="40.5771033" lon="8.23869"><ele>34.0</ele><time>2026-04-16T11:07:11.81Z</time></trkpt><trkpt lat="40.5771917" lon="8.2385367"><ele>35.0</ele><time>2026-04-16T11:07:12.811Z</time></trkpt><trkpt lat="40.57729" lon="8.2383833"><ele>35.0</ele><time>2026-04-16T11:07:13.811Z</time></trkpt><trkpt lat="40.5773867" lon="8.23823"><ele>35.0</ele><time>2026-04-16T11:07:14.81Z</time></trkpt><trkpt lat="40.5774733" lon="8.2380733"><ele>35.0</ele><time>2026-04-16T11:07:15.81Z</time></trkpt><trkpt lat="40.5775683" lon="8.23792"><ele>35.0</ele><time>2026-04-16T11:07:16.81Z</time></trkpt><trkpt lat="40.5776617" lon="8.237765"><ele>34.75</ele><time>2026-04-16T11:07:17.81Z</time></trkpt><trkpt lat="40.5777583" lon="8.2376117"><ele>34.5</ele><time>2026-04-16T11:07:18.81Z</time></trkpt><trkpt lat="40.57785" lon="8.2374583"><ele>34.25</ele><time>2026-04-16T11:07:19.811Z</time></trkpt><trkpt lat="40.5779433" lon="8.2373083"><ele>34.0</ele><time>2026-04-16T11:07:20.811Z</time></trkpt><trkpt lat="40.5780383" lon="8.2371567"><ele>35.0</ele><time>2026-04-16T11:07:21.811Z</time></trkpt><trkpt lat="40.5781367" lon="8.23701"><ele>36.0</ele><time>2026-04-16T11:07:22.811Z</time></trkpt><trkpt lat="40.5782283" lon="8.2368483"><ele>37.0</ele><time>2026-04-16T11:07:23.811Z</time></trkpt><trkpt lat="40.5783083" lon="8.2366717"><ele>37.0</ele><time>2026-04-16T11:07:24.81Z</time></trkpt><trkpt lat="40.5784067" lon="8.236525"><ele>37.0</ele><time>2026-04-16T11:07:25.811Z</time></trkpt><trkpt lat="40.5785033" lon="8.2363717"><ele>37.0</ele><time>2026-04-16T11:07:26.81Z</time></trkpt><trkpt lat="40.578595" lon="8.2362167"><ele>37.0</ele><time>2026-04-16T11:07:27.811Z</time></trkpt><trkpt lat="40.578695" lon="8.236065"><ele>37.0</ele><time>2026-04-16T11:07:28.811Z</time></trkpt><trkpt lat="40.5787983" lon="8.23591"><ele>37.0</ele><time>2026-04-16T11:07:29.811Z</time></trkpt><trkpt lat="40.5788983" lon="8.23575"><ele>37.0</ele><time>2026-04-16T11:07:30.811Z</time></trkpt><trkpt lat="40.5789983" lon="8.2355767"><ele>37.0</ele><time>2026-04-16T11:07:31.811Z</time></trkpt><trkpt lat="40.5790967" lon="8.2354083"><ele>37.0</ele><time>2026-04-16T11:07:32.811Z</time></trkpt><trkpt lat="40.579195" lon="8.2352467"><ele>37.0</ele><time>2026-04-16T11:07:33.81Z</time></trkpt><trkpt lat="40.5792933" lon="8.2350883"><ele>37.0</ele><time>2026-04-16T11:07:34.811Z</time></trkpt><trkpt lat="40.5793917" lon="8.23492"><ele>37.0</ele><time>2026-04-16T11:07:35.81Z</time></trkpt><trkpt lat="40.57949" lon="8.23475"><ele>37.0</ele><time>2026-04-16T11:07:36.811Z</time></trkpt><trkpt lat="40.5795883" lon="8.2345817"><ele>37.333333333333336</ele><time>2026-04-16T11:07:37.81Z</time></trkpt><trkpt lat="40.5796867" lon="8.234415"><ele>37.666666666666664</ele><time>2026-04-16T11:07:38.811Z</time></trkpt><trkpt lat="40.57979" lon="8.2342583"><ele>38.0</ele><time>2026-04-16T11:07:39.811Z</time></trkpt><trkpt lat="40.5798867" lon="8.2341017"><ele>37.25</ele><time>2026-04-16T11:07:40.81Z</time></trkpt><trkpt lat="40.5799833" lon="8.23394"><ele>36.5</ele><time>2026-04-16T11:07:41.81Z</time></trkpt><trkpt lat="40.580065" lon="8.2337883"><ele>35.75</ele><time>2026-04-16T11:07:42.81Z</time></trkpt><trkpt lat="40.58013" lon="8.2336267"><ele>35.0</ele><time>2026-04-16T11:07:43.811Z</time></trkpt><trkpt lat="40.580165" lon="8.2334583"><ele>35.0</ele><time>2026-04-16T11:07:44.811Z</time></trkpt><trkpt lat="40.580175" lon="8.2332783"><ele>35.0</ele><time>2026-04-16T11:07:45.81Z</time></trkpt><trkpt lat="40.5801733" lon="8.2331033"><ele>35.0</ele><time>2026-04-16T11:07:46.81Z</time></trkpt><trkpt lat="40.5801483" lon="8.2329333"><ele>35.0</ele><time>2026-04-16T11:07:47.81Z</time></trkpt><trkpt lat="40.5801033" lon="8.232775"><ele>34.0</ele><time>2026-04-16T11:07:48.811Z</time></trkpt><trkpt lat="40.5800483" lon="8.2326283"><ele>33.0</ele><time>2026-04-16T11:07:49.81Z</time></trkpt><trkpt lat="40.5800017" lon="8.2324833"><ele>32.0</ele><time>2026-04-16T11:07:50.811Z</time></trkpt><trkpt lat="40.5799717" lon="8.2323433"><ele>31.0</ele><time>2026-04-16T11:07:51.81Z</time></trkpt><trkpt lat="40.5799467" lon="8.2322"><ele>31.0</ele><time>2026-04-16T11:07:52.81Z</time></trkpt><trkpt lat="40.5799367" lon="8.2320383"><ele>31.0</ele><time>2026-04-16T11:07:53.811Z</time></trkpt><trkpt lat="40.5799367" lon="8.231875"><ele>31.0</ele><time>2026-04-16T11:07:54.811Z</time></trkpt><trkpt lat="40.5799417" lon="8.2317083"><ele>31.0</ele><time>2026-04-16T11:07:55.811Z</time></trkpt><trkpt lat="40.5799717" lon="8.2315483"><ele>31.5</ele><time>2026-04-16T11:07:56.81Z</time></trkpt><trkpt lat="40.58001" lon="8.23139"><ele>32.0</ele><time>2026-04-16T11:07:57.811Z</time></trkpt><trkpt lat="40.5800567" lon="8.231245"><ele>32.5</ele><time>2026-04-16T11:07:58.811Z</time></trkpt><trkpt lat="40.5801167" lon="8.23111"><ele>33.0</ele><time>2026-04-16T11:07:59.81Z</time></trkpt><trkpt lat="40.5801917" lon="8.2309833"><ele>33.0</ele><time>2026-04-16T11:08:00.811Z</time></trkpt><trkpt lat="40.5802733" lon="8.230865"><ele>33.0</ele><time>2026-04-16T11:08:01.811Z</time></trkpt><trkpt lat="40.5803617" lon="8.2307433"><ele>33.0</ele><time>2026-04-16T11:08:02.811Z</time></trkpt><trkpt lat="40.5804567" lon="8.2306283"><ele>33.0</ele><time>2026-04-16T11:08:03.811Z</time></trkpt><trkpt lat="40.58055" lon="8.23051"><ele>34.25</ele><time>2026-04-16T11:08:04.81Z</time></trkpt><trkpt lat="40.5806417" lon="8.23039"><ele>35.5</ele><time>2026-04-16T11:08:05.81Z</time></trkpt><trkpt lat="40.5807417" lon="8.230265"><ele>36.75</ele><time>2026-04-16T11:08:06.811Z</time></trkpt><trkpt lat="40.5808383" lon="8.23014"><ele>38.0</ele><time>2026-04-16T11:08:07.81Z</time></trkpt><trkpt lat="40.5809383" lon="8.2300167"><ele>38.0</ele><time>2026-04-16T11:08:08.81Z</time></trkpt><trkpt lat="40.581035" lon="8.2298867"><ele>38.0</ele><time>2026-04-16T11:08:09.811Z</time></trkpt><trkpt lat="40.5811317" lon="8.2297533"><ele>38.0</ele><time>2026-04-16T11:08:10.811Z</time></trkpt><trkpt lat="40.5812283" lon="8.2296267"><ele>38.0</ele><time>2026-04-16T11:08:11.811Z</time></trkpt><trkpt lat="40.581325" lon="8.2295"><ele>38.75</ele><time>2026-04-16T11:08:12.811Z</time></trkpt><trkpt lat="40.5814217" lon="8.2293667"><ele>39.5</ele><time>2026-04-16T11:08:13.811Z</time></trkpt><trkpt lat="40.5815267" lon="8.2292417"><ele>40.25</ele><time>2026-04-16T11:08:14.81Z</time></trkpt><trkpt lat="40.581625" lon="8.2291083"><ele>41.0</ele><time>2026-04-16T11:08:15.811Z</time></trkpt><trkpt lat="40.58172" lon="8.2289833"><ele>41.0</ele><time>2026-04-16T11:08:16.81Z</time></trkpt><trkpt lat="40.581815" lon="8.22885"><ele>41.0</ele><time>2026-04-16T11:08:17.81Z</time></trkpt><trkpt lat="40.5819117" lon="8.228715"><ele>41.0</ele><time>2026-04-16T11:08:18.811Z</time></trkpt><trkpt lat="40.58201" lon="8.2285767"><ele>41.0</ele><time>2026-04-16T11:08:19.811Z</time></trkpt><trkpt lat="40.5821117" lon="8.2284417"><ele>41.0</ele><time>2026-04-16T11:08:20.81Z</time></trkpt><trkpt lat="40.582215" lon="8.2283017"><ele>41.0</ele><time>2026-04-16T11:08:21.811Z</time></trkpt><trkpt lat="40.582315" lon="8.22816"><ele>41.0</ele><time>2026-04-16T11:08:22.81Z</time></trkpt><trkpt lat="40.5824167" lon="8.2280183"><ele>41.0</ele><time>2026-04-16T11:08:23.811Z</time></trkpt><trkpt lat="40.5825183" lon="8.2278683"><ele>41.666666666666664</ele><time>2026-04-16T11:08:24.811Z</time></trkpt><trkpt lat="40.58262" lon="8.2277167"><ele>42.333333333333336</ele><time>2026-04-16T11:08:25.811Z</time></trkpt><trkpt lat="40.5827217" lon="8.2275683"><ele>43.0</ele><time>2026-04-16T11:08:26.81Z</time></trkpt><trkpt lat="40.5828233" lon="8.2274117"><ele>39.66666666666667</ele><time>2026-04-16T11:08:27.811Z</time></trkpt><trkpt lat="40.5829367" lon="8.2272633"><ele>36.333333333333336</ele><time>2026-04-16T11:08:28.811Z</time></trkpt><trkpt lat="40.5830517" lon="8.2271117"><ele>33.0</ele><time>2026-04-16T11:08:29.811Z</time></trkpt><trkpt lat="40.5831667" lon="8.226965"><ele>33.0</ele><time>2026-04-16T11:08:30.811Z</time></trkpt><trkpt lat="40.5832817" lon="8.22681"><ele>33.0</ele><time>2026-04-16T11:08:31.811Z</time></trkpt><trkpt lat="40.5833933" lon="8.2266567"><ele>33.0</ele><time>2026-04-16T11:08:32.811Z</time></trkpt><trkpt lat="40.5835017" lon="8.226495"><ele>31.666666666666664</ele><time>2026-04-16T11:08:33.811Z</time></trkpt><trkpt lat="40.58361" lon="8.2263417"><ele>30.333333333333332</ele><time>2026-04-16T11:08:34.811Z</time></trkpt><trkpt lat="40.583725" lon="8.2261917"><ele>29.0</ele><time>2026-04-16T11:08:35.811Z</time></trkpt><trkpt lat="40.5838367" lon="8.2260417"><ele>29.0</ele><time>2026-04-16T11:08:36.81Z</time></trkpt><trkpt lat="40.5839433" lon="8.2258917"><ele>29.0</ele><time>2026-04-16T11:08:37.81Z</time></trkpt><trkpt lat="40.58405" lon="8.2257467"><ele>29.0</ele><time>2026-04-16T11:08:38.811Z</time></trkpt><trkpt lat="40.5841633" lon="8.2255967"><ele>31.0</ele><time>2026-04-16T11:08:39.81Z</time></trkpt><trkpt lat="40.5842783" lon="8.2254483"><ele>33.0</ele><time>2026-04-16T11:08:40.811Z</time></trkpt><trkpt lat="40.5843817" lon="8.2253"><ele>35.0</ele><time>2026-04-16T11:08:41.81Z</time></trkpt><trkpt lat="40.5844867" lon="8.225155"><ele>33.0</ele><time>2026-04-16T11:08:42.811Z</time></trkpt><trkpt lat="40.5845883" lon="8.2250033"><ele>31.0</ele><time>2026-04-16T11:08:43.81Z</time></trkpt><trkpt lat="40.5846933" lon="8.22485"><ele>29.0</ele><time>2026-04-16T11:08:44.811Z</time></trkpt><trkpt lat="40.5848" lon="8.2247"><ele>29.0</ele><time>2026-04-16T11:08:45.81Z</time></trkpt><trkpt lat="40.5849117" lon="8.22455"><ele>29.0</ele><time>2026-04-16T11:08:46.811Z</time></trkpt><trkpt lat="40.58502" lon="8.224405"><ele>29.0</ele><time>2026-04-16T11:08:47.81Z</time></trkpt><trkpt lat="40.58513" lon="8.22426"><ele>29.0</ele><time>2026-04-16T11:08:48.81Z</time></trkpt><trkpt lat="40.5852417" lon="8.2241167"><ele>29.0</ele><time>2026-04-16T11:08:49.811Z</time></trkpt><trkpt lat="40.5853533" lon="8.223965"><ele>29.0</ele><time>2026-04-16T11:08:50.81Z</time></trkpt><trkpt lat="40.5854633" lon="8.2238183"><ele>28.333333333333332</ele><time>2026-04-16T11:08:51.81Z</time></trkpt><trkpt lat="40.5855717" lon="8.2236733"><ele>27.666666666666664</ele><time>2026-04-16T11:08:52.81Z</time></trkpt><trkpt lat="40.5856817" lon="8.223535"><ele>27.0</ele><time>2026-04-16T11:08:53.81Z</time></trkpt><trkpt lat="40.585785" lon="8.2234017"><ele>27.0</ele><time>2026-04-16T11:08:54.81Z</time></trkpt><trkpt lat="40.5858933" lon="8.223265"><ele>27.0</ele><time>2026-04-16T11:08:55.81Z</time></trkpt><trkpt lat="40.5860067" lon="8.2231417"><ele>27.0</ele><time>2026-04-16T11:08:56.811Z</time></trkpt><trkpt lat="40.5861233" lon="8.2230317"><ele>27.0</ele><time>2026-04-16T11:08:57.811Z</time></trkpt><trkpt lat="40.586245" lon="8.2229183"><ele>27.0</ele><time>2026-04-16T11:08:58.81Z</time></trkpt><trkpt lat="40.5863717" lon="8.2228117"><ele>27.0</ele><time>2026-04-16T11:08:59.811Z</time></trkpt><trkpt lat="40.586495" lon="8.22271"><ele>27.0</ele><time>2026-04-16T11:09:00.81Z</time></trkpt><trkpt lat="40.5866233" lon="8.2226117"><ele>27.0</ele><time>2026-04-16T11:09:01.81Z</time></trkpt><trkpt lat="40.5867533" lon="8.2225067"><ele>27.0</ele><time>2026-04-16T11:09:02.81Z</time></trkpt><trkpt lat="40.586885" lon="8.222405"><ele>27.0</ele><time>2026-04-16T11:09:03.811Z</time></trkpt><trkpt lat="40.5870183" lon="8.2223133"><ele>27.0</ele><time>2026-04-16T11:09:04.811Z</time></trkpt><trkpt lat="40.5871533" lon="8.2222483"><ele>27.0</ele><time>2026-04-16T11:09:05.811Z</time></trkpt><trkpt lat="40.587295" lon="8.2221867"><ele>27.0</ele><time>2026-04-16T11:09:06.811Z</time></trkpt><trkpt lat="40.5874433" lon="8.2221467"><ele>27.0</ele><time>2026-04-16T11:09:07.81Z</time></trkpt><trkpt lat="40.5875917" lon="8.2221183"><ele>27.0</ele><time>2026-04-16T11:09:08.81Z</time></trkpt><trkpt lat="40.5877333" lon="8.2221033"><ele>27.0</ele><time>2026-04-16T11:09:09.81Z</time></trkpt><trkpt lat="40.5878683" lon="8.2221"><ele>25.25</ele><time>2026-04-16T11:09:10.81Z</time></trkpt><trkpt lat="40.588005" lon="8.222125"><ele>23.5</ele><time>2026-04-16T11:09:11.811Z</time></trkpt><trkpt lat="40.5881383" lon="8.2221767"><ele>21.75</ele><time>2026-04-16T11:09:12.811Z</time></trkpt><trkpt lat="40.5882717" lon="8.2222383"><ele>20.0</ele><time>2026-04-16T11:09:13.81Z</time></trkpt><trkpt lat="40.5884083" lon="8.2223083"><ele>19.25</ele><time>2026-04-16T11:09:14.81Z</time></trkpt><trkpt lat="40.58854" lon="8.22239"><ele>18.5</ele><time>2026-04-16T11:09:15.81Z</time></trkpt><trkpt lat="40.58867" lon="8.222455"><ele>17.75</ele><time>2026-04-16T11:09:16.811Z</time></trkpt><trkpt lat="40.588795" lon="8.2225183"><ele>17.0</ele><time>2026-04-16T11:09:17.81Z</time></trkpt><trkpt lat="40.5889267" lon="8.2225717"><ele>16.25</ele><time>2026-04-16T11:09:18.811Z</time></trkpt><trkpt lat="40.5890633" lon="8.2226117"><ele>15.5</ele><time>2026-04-16T11:09:19.81Z</time></trkpt><trkpt lat="40.5891917" lon="8.2226417"><ele>14.75</ele><time>2026-04-16T11:09:20.811Z</time></trkpt><trkpt lat="40.58932" lon="8.2226633"><ele>14.0</ele><time>2026-04-16T11:09:21.81Z</time></trkpt><trkpt lat="40.5894483" lon="8.2226783"><ele>13.75</ele><time>2026-04-16T11:09:22.81Z</time></trkpt><trkpt lat="40.589575" lon="8.2226933"><ele>13.5</ele><time>2026-04-16T11:09:23.811Z</time></trkpt><trkpt lat="40.589695" lon="8.2227"><ele>13.25</ele><time>2026-04-16T11:09:24.811Z</time></trkpt><trkpt lat="40.5898083" lon="8.222705"><ele>13.0</ele><time>2026-04-16T11:09:25.811Z</time></trkpt><trkpt lat="40.5899183" lon="8.2227067"><ele>13.0</ele><time>2026-04-16T11:09:26.81Z</time></trkpt><trkpt lat="40.59003" lon="8.2227183"><ele>13.0</ele><time>2026-04-16T11:09:27.81Z</time></trkpt><trkpt lat="40.590135" lon="8.2227267"><ele>13.0</ele><time>2026-04-16T11:09:28.811Z</time></trkpt><trkpt lat="40.5902333" lon="8.2227317"><ele>13.0</ele><time>2026-04-16T11:09:29.811Z</time></trkpt><trkpt lat="40.59033" lon="8.222735"><ele>13.0</ele><time>2026-04-16T11:09:30.811Z</time></trkpt><trkpt lat="40.5904217" lon="8.2227433"><ele>12.999999999999998</ele><time>2026-04-16T11:09:31.811Z</time></trkpt><trkpt lat="40.590515" lon="8.22274"><ele>13.0</ele><time>2026-04-16T11:09:32.81Z</time></trkpt><trkpt lat="40.5905917" lon="8.2227467"><ele>13.0</ele><time>2026-04-16T11:09:33.81Z</time></trkpt><trkpt lat="40.59066" lon="8.22275"><ele>13.0</ele><time>2026-04-16T11:09:34.811Z</time></trkpt><trkpt lat="40.5907483" lon="8.2227617"><ele>12.999999999999998</ele><time>2026-04-16T11:09:36.81Z</time></trkpt><trkpt lat="40.5908417" lon="8.2227467"><ele>13.0</ele><time>2026-04-16T11:09:39.811Z</time></trkpt><trkpt lat="40.590945" lon="8.2226467"><ele>12.999999999999998</ele><time>2026-04-16T11:09:41.811Z</time></trkpt><trkpt lat="40.5910017" lon="8.2225683"><ele>13.0</ele><time>2026-04-16T11:09:42.81Z</time></trkpt><trkpt lat="40.59106" lon="8.2224883"><ele>13.0</ele><time>2026-04-16T11:09:43.811Z</time></trkpt><trkpt lat="40.5911133" lon="8.2224133"><ele>13.0</ele><time>2026-04-16T11:09:44.811Z</time></trkpt><trkpt lat="40.591165" lon="8.2223417"><ele>12.999999999999998</ele><time>2026-04-16T11:09:45.811Z</time></trkpt><trkpt lat="40.5912133" lon="8.22227"><ele>13.0</ele><time>2026-04-16T11:09:46.81Z</time></trkpt><trkpt lat="40.59127" lon="8.222195"><ele>12.8</ele><time>2026-04-16T11:09:47.811Z</time></trkpt><trkpt lat="40.59133" lon="8.222115"><ele>12.600000000000001</ele><time>2026-04-16T11:09:48.811Z</time></trkpt><trkpt lat="40.5914" lon="8.2220233"><ele>12.399999999999999</ele><time>2026-04-16T11:09:49.811Z</time></trkpt><trkpt lat="40.59147" lon="8.2219233"><ele>12.2</ele><time>2026-04-16T11:09:50.811Z</time></trkpt><trkpt lat="40.5915383" lon="8.2218167"><ele>12.0</ele><time>2026-04-16T11:09:51.811Z</time></trkpt><trkpt lat="40.5916033" lon="8.2217033"><ele>12.0</ele><time>2026-04-16T11:09:52.811Z</time></trkpt><trkpt lat="40.591665" lon="8.2215767"><ele>12.0</ele><time>2026-04-16T11:09:53.811Z</time></trkpt><trkpt lat="40.5917267" lon="8.2214517"><ele>12.0</ele><time>2026-04-16T11:09:54.811Z</time></trkpt><trkpt lat="40.5917833" lon="8.22132"><ele>12.0</ele><time>2026-04-16T11:09:55.81Z</time></trkpt><trkpt lat="40.5918433" lon="8.221185"><ele>12.2</ele><time>2026-04-16T11:09:56.81Z</time></trkpt><trkpt lat="40.5919" lon="8.2210467"><ele>12.399999999999999</ele><time>2026-04-16T11:09:57.811Z</time></trkpt><trkpt lat="40.591955" lon="8.22092"><ele>12.600000000000001</ele><time>2026-04-16T11:09:58.81Z</time></trkpt><trkpt lat="40.59201" lon="8.2208017"><ele>12.8</ele><time>2026-04-16T11:09:59.81Z</time></trkpt><trkpt lat="40.592065" lon="8.2206817"><ele>13.0</ele><time>2026-04-16T11:10:00.81Z</time></trkpt><trkpt lat="40.5921217" lon="8.220555"><ele>12.0</ele><time>2026-04-16T11:10:01.811Z</time></trkpt><trkpt lat="40.5921817" lon="8.220425"><ele>11.0</ele><time>2026-04-16T11:10:02.81Z</time></trkpt><trkpt lat="40.5922417" lon="8.2202983"><ele>10.0</ele><time>2026-04-16T11:10:03.81Z</time></trkpt><trkpt lat="40.5923" lon="8.22017"><ele>9.0</ele><time>2026-04-16T11:10:04.811Z</time></trkpt><trkpt lat="40.5923567" lon="8.220035"><ele>9.0</ele><time>2026-04-16T11:10:05.811Z</time></trkpt><trkpt lat="40.592405" lon="8.2199083"><ele>9.0</ele><time>2026-04-16T11:10:06.811Z</time></trkpt><trkpt lat="40.5924617" lon="8.219785"><ele>9.0</ele><time>2026-04-16T11:10:07.811Z</time></trkpt><trkpt lat="40.5925133" lon="8.2196683"><ele>9.0</ele><time>2026-04-16T11:10:08.811Z</time></trkpt><trkpt lat="40.5925633" lon="8.2195483"><ele>9.0</ele><time>2026-04-16T11:10:09.811Z</time></trkpt><trkpt lat="40.5926233" lon="8.2194233"><ele>8.833333333333334</ele><time>2026-04-16T11:10:10.811Z</time></trkpt><trkpt lat="40.5926817" lon="8.2193133"><ele>8.666666666666666</ele><time>2026-04-16T11:10:11.81Z</time></trkpt><trkpt lat="40.5927283" lon="8.2192083"><ele>8.5</ele><time>2026-04-16T11:10:12.811Z</time></trkpt><trkpt lat="40.59277" lon="8.2191083"><ele>8.333333333333332</ele><time>2026-04-16T11:10:13.811Z</time></trkpt><trkpt lat="40.5928067" lon="8.2190117"><ele>8.166666666666666</ele><time>2026-04-16T11:10:14.81Z</time></trkpt><trkpt lat="40.59285" lon="8.2189183"><ele>8.0</ele><time>2026-04-16T11:10:15.81Z</time></trkpt><trkpt lat="40.592895" lon="8.2188283"><ele>7.666666666666666</ele><time>2026-04-16T11:10:16.811Z</time></trkpt><trkpt lat="40.5929367" lon="8.218735"><ele>7.333333333333333</ele><time>2026-04-16T11:10:17.81Z</time></trkpt><trkpt lat="40.59298" lon="8.2186467"><ele>7.0</ele><time>2026-04-16T11:10:18.811Z</time></trkpt><trkpt lat="40.5930183" lon="8.2185717"><ele>6.666666666666666</ele><time>2026-04-16T11:10:19.811Z</time></trkpt><trkpt lat="40.5930617" lon="8.2184633"><ele>6.333333333333333</ele><time>2026-04-16T11:10:21.811Z</time></trkpt><trkpt lat="40.5931017" lon="8.2183817"><ele>6.0</ele><time>2026-04-16T11:10:23.811Z</time></trkpt><trkpt lat="40.5931833" lon="8.218395"><ele>6.0</ele><time>2026-04-16T11:10:26.811Z</time></trkpt><trkpt lat="40.5932567" lon="8.2185267"><ele>6.0</ele><time>2026-04-16T11:10:28.811Z</time></trkpt><trkpt lat="40.5933183" lon="8.2186033"><ele>6.0</ele><time>2026-04-16T11:10:29.811Z</time></trkpt><trkpt lat="40.593395" lon="8.21868"><ele>6.0</ele><time>2026-04-16T11:10:30.81Z</time></trkpt><trkpt lat="40.593485" lon="8.21875"><ele>6.0</ele><time>2026-04-16T11:10:31.811Z</time></trkpt><trkpt lat="40.5935867" lon="8.21882"><ele>5.75</ele><time>2026-04-16T11:10:32.811Z</time></trkpt><trkpt lat="40.5937" lon="8.2189017"><ele>5.5</ele><time>2026-04-16T11:10:33.81Z</time></trkpt><trkpt lat="40.5938067" lon="8.21898"><ele>5.25</ele><time>2026-04-16T11:10:34.81Z</time></trkpt><trkpt lat="40.593925" lon="8.2190567"><ele>5.0</ele><time>2026-04-16T11:10:35.81Z</time></trkpt><trkpt lat="40.59405" lon="8.219145"><ele>5.0</ele><time>2026-04-16T11:10:36.81Z</time></trkpt><trkpt lat="40.5941683" lon="8.2192367"><ele>5.0</ele><time>2026-04-16T11:10:37.811Z</time></trkpt><trkpt lat="40.594295" lon="8.2193417"><ele>5.0</ele><time>2026-04-16T11:10:38.81Z</time></trkpt><trkpt lat="40.59443" lon="8.21944"><ele>5.0</ele><time>2026-04-16T11:10:39.811Z</time></trkpt><trkpt lat="40.5945583" lon="8.2195233"><ele>5.0</ele><time>2026-04-16T11:10:40.811Z</time></trkpt><trkpt lat="40.59469" lon="8.21962"><ele>5.0</ele><time>2026-04-16T11:10:41.811Z</time></trkpt><trkpt lat="40.5948317" lon="8.2197233"><ele>5.0</ele><time>2026-04-16T11:10:42.81Z</time></trkpt><trkpt lat="40.5949717" lon="8.21983"><ele>5.0</ele><time>2026-04-16T11:10:43.811Z</time></trkpt><trkpt lat="40.5951067" lon="8.2199267"><ele>5.0</ele><time>2026-04-16T11:10:44.811Z</time></trkpt><trkpt lat="40.5952417" lon="8.2200183"><ele>5.0</ele><time>2026-04-16T11:10:45.81Z</time></trkpt><trkpt lat="40.5953733" lon="8.2201183"><ele>5.5</ele><time>2026-04-16T11:10:46.811Z</time></trkpt><trkpt lat="40.5955033" lon="8.2202183"><ele>6.0</ele><time>2026-04-16T11:10:47.81Z</time></trkpt><trkpt lat="40.595635" lon="8.2203083"><ele>6.5</ele><time>2026-04-16T11:10:48.81Z</time></trkpt><trkpt lat="40.5957567" lon="8.2203983"><ele>7.0</ele><time>2026-04-16T11:10:49.809Z</time></trkpt><trkpt lat="40.59588" lon="8.220495"><ele>7.0</ele><time>2026-04-16T11:10:50.809Z</time></trkpt><trkpt lat="40.596" lon="8.2205867"><ele>7.0</ele><time>2026-04-16T11:10:51.81Z</time></trkpt><trkpt lat="40.5961267" lon="8.22067"><ele>7.0</ele><time>2026-04-16T11:10:52.809Z</time></trkpt><trkpt lat="40.5962517" lon="8.2207533"><ele>7.0</ele><time>2026-04-16T11:10:53.81Z</time></trkpt><trkpt lat="40.5963733" lon="8.2208417"><ele>8.0</ele><time>2026-04-16T11:10:54.81Z</time></trkpt><trkpt lat="40.596495" lon="8.2209317"><ele>9.0</ele><time>2026-04-16T11:10:55.809Z</time></trkpt><trkpt lat="40.5966217" lon="8.221025"><ele>10.0</ele><time>2026-04-16T11:10:56.81Z</time></trkpt><trkpt lat="40.596755" lon="8.2211233"><ele>11.0</ele><time>2026-04-16T11:10:57.809Z</time></trkpt><trkpt lat="40.5968833" lon="8.221215"><ele>11.666666666666666</ele><time>2026-04-16T11:10:58.809Z</time></trkpt><trkpt lat="40.5970217" lon="8.2213083"><ele>12.333333333333332</ele><time>2026-04-16T11:10:59.809Z</time></trkpt><trkpt lat="40.59716" lon="8.2214083"><ele>13.0</ele><time>2026-04-16T11:11:00.81Z</time></trkpt><trkpt lat="40.5972967" lon="8.2215167"><ele>13.25</ele><time>2026-04-16T11:11:01.81Z</time></trkpt><trkpt lat="40.5974317" lon="8.2216133"><ele>13.5</ele><time>2026-04-16T11:11:02.81Z</time></trkpt><trkpt lat="40.5975567" lon="8.221705"><ele>13.75</ele><time>2026-04-16T11:11:03.809Z</time></trkpt><trkpt lat="40.597665" lon="8.2217833"><ele>14.0</ele><time>2026-04-16T11:11:04.81Z</time></trkpt><trkpt lat="40.5977683" lon="8.2218533"><ele>13.399999999999999</ele><time>2026-04-16T11:11:05.81Z</time></trkpt><trkpt lat="40.5978617" lon="8.221935"><ele>12.799999999999999</ele><time>2026-04-16T11:11:06.809Z</time></trkpt><trkpt lat="40.5979467" lon="8.2220117"><ele>12.2</ele><time>2026-04-16T11:11:07.809Z</time></trkpt><trkpt lat="40.5980167" lon="8.2220883"><ele>11.600000000000001</ele><time>2026-04-16T11:11:08.81Z</time></trkpt><trkpt lat="40.5980667" lon="8.22217"><ele>11.0</ele><time>2026-04-16T11:11:09.809Z</time></trkpt><trkpt lat="40.5981217" lon="8.22224"><ele>11.0</ele><time>2026-04-16T11:11:10.809Z</time></trkpt><trkpt lat="40.5981883" lon="8.2222817"><ele>11.0</ele><time>2026-04-16T11:11:11.81Z</time></trkpt><trkpt lat="40.5982617" lon="8.2222783"><ele>11.0</ele><time>2026-04-16T11:11:12.809Z</time></trkpt><trkpt lat="40.5983317" lon="8.2222233"><ele>11.0</ele><time>2026-04-16T11:11:13.81Z</time></trkpt><trkpt lat="40.598405" lon="8.2221483"><ele>11.0</ele><time>2026-04-16T11:11:14.809Z</time></trkpt><trkpt lat="40.59849" lon="8.222075"><ele>11.0</ele><time>2026-04-16T11:11:15.81Z</time></trkpt><trkpt lat="40.5985967" lon="8.222035"><ele>10.5</ele><time>2026-04-16T11:11:16.809Z</time></trkpt><trkpt lat="40.5987117" lon="8.2219883"><ele>10.0</ele><time>2026-04-16T11:11:17.81Z</time></trkpt><trkpt lat="40.5988283" lon="8.221935"><ele>9.5</ele><time>2026-04-16T11:11:18.809Z</time></trkpt><trkpt lat="40.5989533" lon="8.2218883"><ele>9.0</ele><time>2026-04-16T11:11:19.81Z</time></trkpt><trkpt lat="40.5990817" lon="8.221845"><ele>9.0</ele><time>2026-04-16T11:11:20.81Z</time></trkpt><trkpt lat="40.5992183" lon="8.2217983"><ele>9.0</ele><time>2026-04-16T11:11:21.81Z</time></trkpt><trkpt lat="40.5993517" lon="8.2217467"><ele>9.0</ele><time>2026-04-16T11:11:22.81Z</time></trkpt><trkpt lat="40.5994867" lon="8.2216817"><ele>9.0</ele><time>2026-04-16T11:11:23.81Z</time></trkpt><trkpt lat="40.5996283" lon="8.22163"><ele>9.0</ele><time>2026-04-16T11:11:24.81Z</time></trkpt><trkpt lat="40.599765" lon="8.2215683"><ele>9.0</ele><time>2026-04-16T11:11:25.809Z</time></trkpt><trkpt lat="40.5999133" lon="8.22151"><ele>9.0</ele><time>2026-04-16T11:11:26.809Z</time></trkpt><trkpt lat="40.6000617" lon="8.2214533"><ele>9.333333333333334</ele><time>2026-04-16T11:11:27.809Z</time></trkpt><trkpt lat="40.600215" lon="8.22141"><ele>9.666666666666668</ele><time>2026-04-16T11:11:28.809Z</time></trkpt><trkpt lat="40.6003683" lon="8.221355"><ele>10.0</ele><time>2026-04-16T11:11:29.81Z</time></trkpt><trkpt lat="40.6005217" lon="8.221305"><ele>10.0</ele><time>2026-04-16T11:11:30.809Z</time></trkpt><trkpt lat="40.6006783" lon="8.221245"><ele>10.0</ele><time>2026-04-16T11:11:31.81Z</time></trkpt><trkpt lat="40.6008333" lon="8.22118"><ele>10.0</ele><time>2026-04-16T11:11:32.81Z</time></trkpt><trkpt lat="40.6009833" lon="8.22112"><ele>10.0</ele><time>2026-04-16T11:11:33.81Z</time></trkpt><trkpt lat="40.6011383" lon="8.2210683"><ele>10.0</ele><time>2026-04-16T11:11:34.81Z</time></trkpt><trkpt lat="40.60129" lon="8.2210167"><ele>10.0</ele><time>2026-04-16T11:11:35.809Z</time></trkpt><trkpt lat="40.60144" lon="8.2209583"><ele>8.666666666666668</ele><time>2026-04-16T11:11:36.809Z</time></trkpt><trkpt lat="40.6015967" lon="8.220895"><ele>7.333333333333334</ele><time>2026-04-16T11:11:37.81Z</time></trkpt><trkpt lat="40.6017483" lon="8.2208317"><ele>6.0</ele><time>2026-04-16T11:11:38.81Z</time></trkpt><trkpt lat="40.6019017" lon="8.2207683"><ele>6.666666666666666</ele><time>2026-04-16T11:11:39.809Z</time></trkpt><trkpt lat="40.6020533" lon="8.2207083"><ele>7.333333333333333</ele><time>2026-04-16T11:11:40.81Z</time></trkpt><trkpt lat="40.6022083" lon="8.22065"><ele>8.0</ele><time>2026-04-16T11:11:41.81Z</time></trkpt><trkpt lat="40.6023633" lon="8.2205833"><ele>8.0</ele><time>2026-04-16T11:11:42.809Z</time></trkpt><trkpt lat="40.60252" lon="8.2205167"><ele>8.0</ele><time>2026-04-16T11:11:43.809Z</time></trkpt><trkpt lat="40.6026733" lon="8.2204517"><ele>8.0</ele><time>2026-04-16T11:11:44.809Z</time></trkpt><trkpt lat="40.6028283" lon="8.2203933"><ele>8.0</ele><time>2026-04-16T11:11:45.809Z</time></trkpt><trkpt lat="40.6029867" lon="8.2203433"><ele>8.0</ele><time>2026-04-16T11:11:46.809Z</time></trkpt><trkpt lat="40.603145" lon="8.22029"><ele>8.0</ele><time>2026-04-16T11:11:47.809Z</time></trkpt><trkpt lat="40.603305" lon="8.2202267"><ele>8.0</ele><time>2026-04-16T11:11:48.81Z</time></trkpt><trkpt lat="40.6034633" lon="8.220165"><ele>8.0</ele><time>2026-04-16T11:11:49.809Z</time></trkpt><trkpt lat="40.6036217" lon="8.2201067"><ele>8.0</ele><time>2026-04-16T11:11:50.809Z</time></trkpt><trkpt lat="40.60378" lon="8.22005"><ele>8.333333333333332</ele><time>2026-04-16T11:11:51.809Z</time></trkpt><trkpt lat="40.6039417" lon="8.2199867"><ele>8.666666666666666</ele><time>2026-04-16T11:11:52.809Z</time></trkpt><trkpt lat="40.6041" lon="8.2199217"><ele>9.0</ele><time>2026-04-16T11:11:53.809Z</time></trkpt><trkpt lat="40.6042667" lon="8.2198467"><ele>8.666666666666666</ele><time>2026-04-16T11:11:54.81Z</time></trkpt><trkpt lat="40.60443" lon="8.2197833"><ele>8.333333333333332</ele><time>2026-04-16T11:11:55.81Z</time></trkpt><trkpt lat="40.60458" lon="8.219725"><ele>8.0</ele><time>2026-04-16T11:11:56.809Z</time></trkpt><trkpt lat="40.604735" lon="8.219675"><ele>9.0</ele><time>2026-04-16T11:11:57.809Z</time></trkpt><trkpt lat="40.604895" lon="8.2196167"><ele>10.0</ele><time>2026-04-16T11:11:58.81Z</time></trkpt><trkpt lat="40.6050517" lon="8.2195633"><ele>11.0</ele><time>2026-04-16T11:11:59.81Z</time></trkpt><trkpt lat="40.6052067" lon="8.2195133"><ele>12.0</ele><time>2026-04-16T11:12:00.809Z</time></trkpt><trkpt lat="40.6053583" lon="8.2194567"><ele>13.0</ele><time>2026-04-16T11:12:01.809Z</time></trkpt><trkpt lat="40.6055067" lon="8.2193967"><ele>14.0</ele><time>2026-04-16T11:12:02.809Z</time></trkpt><trkpt lat="40.60566" lon="8.2193283"><ele>14.0</ele><time>2026-04-16T11:12:03.81Z</time></trkpt><trkpt lat="40.6058117" lon="8.2192667"><ele>14.0</ele><time>2026-04-16T11:12:04.81Z</time></trkpt><trkpt lat="40.6059633" lon="8.21921"><ele>14.0</ele><time>2026-04-16T11:12:05.81Z</time></trkpt><trkpt lat="40.60612" lon="8.2191517"><ele>14.333333333333334</ele><time>2026-04-16T11:12:06.809Z</time></trkpt><trkpt lat="40.606275" lon="8.219095"><ele>14.666666666666668</ele><time>2026-04-16T11:12:07.81Z</time></trkpt><trkpt lat="40.6064317" lon="8.2190383"><ele>15.0</ele><time>2026-04-16T11:12:08.809Z</time></trkpt><trkpt lat="40.60659" lon="8.2189783"><ele>15.0</ele><time>2026-04-16T11:12:09.809Z</time></trkpt><trkpt lat="40.6067533" lon="8.2189167"><ele>15.0</ele><time>2026-04-16T11:12:10.809Z</time></trkpt><trkpt lat="40.6069133" lon="8.2188517"><ele>15.0</ele><time>2026-04-16T11:12:11.809Z</time></trkpt><trkpt lat="40.6070717" lon="8.21878"><ele>15.333333333333332</ele><time>2026-04-16T11:12:12.809Z</time></trkpt><trkpt lat="40.60723" lon="8.2187167"><ele>15.666666666666666</ele><time>2026-04-16T11:12:13.81Z</time></trkpt><trkpt lat="40.607395" lon="8.218645"><ele>16.0</ele><time>2026-04-16T11:12:14.81Z</time></trkpt><trkpt lat="40.6075633" lon="8.2185833"><ele>16.0</ele><time>2026-04-16T11:12:15.81Z</time></trkpt><trkpt lat="40.607735" lon="8.21852"><ele>16.0</ele><time>2026-04-16T11:12:16.81Z</time></trkpt><trkpt lat="40.6079033" lon="8.21846"><ele>16.0</ele><time>2026-04-16T11:12:17.81Z</time></trkpt><trkpt lat="40.608065" lon="8.2184067"><ele>15.666666666666666</ele><time>2026-04-16T11:12:18.809Z</time></trkpt><trkpt lat="40.608235" lon="8.2183417"><ele>15.333333333333332</ele><time>2026-04-16T11:12:19.81Z</time></trkpt><trkpt lat="40.6084" lon="8.2182733"><ele>15.0</ele><time>2026-04-16T11:12:20.81Z</time></trkpt><trkpt lat="40.6085633" lon="8.2182067"><ele>15.0</ele><time>2026-04-16T11:12:21.809Z</time></trkpt><trkpt lat="40.6087283" lon="8.2181417"><ele>15.0</ele><time>2026-04-16T11:12:22.81Z</time></trkpt><trkpt lat="40.6088883" lon="8.218085"><ele>15.0</ele><time>2026-04-16T11:12:23.81Z</time></trkpt><trkpt lat="40.6090467" lon="8.2180183"><ele>15.0</ele><time>2026-04-16T11:12:24.81Z</time></trkpt><trkpt lat="40.6091983" lon="8.2179583"><ele>15.0</ele><time>2026-04-16T11:12:25.81Z</time></trkpt><trkpt lat="40.6093567" lon="8.2179017"><ele>15.0</ele><time>2026-04-16T11:12:26.809Z</time></trkpt><trkpt lat="40.6095083" lon="8.217845"><ele>15.0</ele><time>2026-04-16T11:12:27.81Z</time></trkpt><trkpt lat="40.60966" lon="8.2177867"><ele>15.0</ele><time>2026-04-16T11:12:28.81Z</time></trkpt><trkpt lat="40.6098133" lon="8.2177317"><ele>15.0</ele><time>2026-04-16T11:12:29.809Z</time></trkpt><trkpt lat="40.6099617" lon="8.2176733"><ele>15.0</ele><time>2026-04-16T11:12:30.81Z</time></trkpt><trkpt lat="40.6101133" lon="8.2176217"><ele>15.0</ele><time>2026-04-16T11:12:31.81Z</time></trkpt><trkpt lat="40.6102683" lon="8.2175633"><ele>15.0</ele><time>2026-04-16T11:12:32.81Z</time></trkpt><trkpt lat="40.6104233" lon="8.2175083"><ele>15.333333333333332</ele><time>2026-04-16T11:12:33.81Z</time></trkpt><trkpt lat="40.6105767" lon="8.2174483"><ele>15.666666666666666</ele><time>2026-04-16T11:12:34.809Z</time></trkpt><trkpt lat="40.6107283" lon="8.21739"><ele>16.0</ele><time>2026-04-16T11:12:35.809Z</time></trkpt><trkpt lat="40.6108817" lon="8.217335"><ele>16.0</ele><time>2026-04-16T11:12:36.809Z</time></trkpt><trkpt lat="40.6110317" lon="8.2172733"><ele>16.0</ele><time>2026-04-16T11:12:37.81Z</time></trkpt><trkpt lat="40.611185" lon="8.217215"><ele>16.0</ele><time>2026-04-16T11:12:38.809Z</time></trkpt><trkpt lat="40.61134" lon="8.2171483"><ele>16.0</ele><time>2026-04-16T11:12:39.81Z</time></trkpt><trkpt lat="40.6116583" lon="8.21703"><ele>16.0</ele><time>2026-04-16T11:12:41.809Z</time></trkpt><trkpt lat="40.6118233" lon="8.2169717"><ele>16.0</ele><time>2026-04-16T11:12:42.81Z</time></trkpt><trkpt lat="40.6119783" lon="8.21691"><ele>16.0</ele><time>2026-04-16T11:12:43.81Z</time></trkpt><trkpt lat="40.61214" lon="8.21685"><ele>16.0</ele><time>2026-04-16T11:12:44.809Z</time></trkpt><trkpt lat="40.6123033" lon="8.2167883"><ele>16.333333333333332</ele><time>2026-04-16T11:12:45.81Z</time></trkpt><trkpt lat="40.6124617" lon="8.21673"><ele>16.666666666666668</ele><time>2026-04-16T11:12:46.81Z</time></trkpt><trkpt lat="40.6126217" lon="8.216665"><ele>17.0</ele><time>2026-04-16T11:12:47.809Z</time></trkpt><trkpt lat="40.61278" lon="8.2166017"><ele>17.333333333333336</ele><time>2026-04-16T11:12:48.809Z</time></trkpt><trkpt lat="40.61294" lon="8.2165367"><ele>17.666666666666668</ele><time>2026-04-16T11:12:49.81Z</time></trkpt><trkpt lat="40.6131" lon="8.2164767"><ele>18.0</ele><time>2026-04-16T11:12:50.809Z</time></trkpt><trkpt lat="40.6132667" lon="8.216415"><ele>18.0</ele><time>2026-04-16T11:12:51.81Z</time></trkpt><trkpt lat="40.6134283" lon="8.2163483"><ele>18.0</ele><time>2026-04-16T11:12:52.809Z</time></trkpt><trkpt lat="40.61359" lon="8.2162883"><ele>18.0</ele><time>2026-04-16T11:12:53.81Z</time></trkpt><trkpt lat="40.613755" lon="8.2162233"><ele>18.0</ele><time>2026-04-16T11:12:54.81Z</time></trkpt><trkpt lat="40.6139217" lon="8.2161583"><ele>18.0</ele><time>2026-04-16T11:12:55.81Z</time></trkpt><trkpt lat="40.6140817" lon="8.2161033"><ele>18.0</ele><time>2026-04-16T11:12:56.81Z</time></trkpt><trkpt lat="40.6142433" lon="8.2160367"><ele>18.0</ele><time>2026-04-16T11:12:57.81Z</time></trkpt><trkpt lat="40.614405" lon="8.2159817"><ele>18.0</ele><time>2026-04-16T11:12:58.81Z</time></trkpt><trkpt lat="40.6145583" lon="8.2159133"><ele>18.0</ele><time>2026-04-16T11:12:59.81Z</time></trkpt><trkpt lat="40.6147133" lon="8.2158333"><ele>18.0</ele><time>2026-04-16T11:13:00.81Z</time></trkpt><trkpt lat="40.6148533" lon="8.2157283"><ele>18.0</ele><time>2026-04-16T11:13:01.81Z</time></trkpt><trkpt lat="40.6149833" lon="8.2155983"><ele>18.0</ele><time>2026-04-16T11:13:02.809Z</time></trkpt><trkpt lat="40.6151033" lon="8.2154567"><ele>18.0</ele><time>2026-04-16T11:13:03.81Z</time></trkpt><trkpt lat="40.6152183" lon="8.2153067"><ele>18.0</ele><time>2026-04-16T11:13:04.81Z</time></trkpt><trkpt lat="40.6153317" lon="8.2151583"><ele>18.0</ele><time>2026-04-16T11:13:05.809Z</time></trkpt><trkpt lat="40.6154417" lon="8.2149983"><ele>19.0</ele><time>2026-04-16T11:13:06.809Z</time></trkpt><trkpt lat="40.615555" lon="8.2148433"><ele>20.0</ele><time>2026-04-16T11:13:07.81Z</time></trkpt><trkpt lat="40.6156733" lon="8.2146833"><ele>21.0</ele><time>2026-04-16T11:13:08.81Z</time></trkpt><trkpt lat="40.6157983" lon="8.2145283"><ele>21.0</ele><time>2026-04-16T11:13:09.809Z</time></trkpt><trkpt lat="40.6159183" lon="8.2143683"><ele>21.0</ele><time>2026-04-16T11:13:10.81Z</time></trkpt><trkpt lat="40.61603" lon="8.2142017"><ele>21.0</ele><time>2026-04-16T11:13:11.81Z</time></trkpt><trkpt lat="40.6161467" lon="8.2140417"><ele>20.666666666666668</ele><time>2026-04-16T11:13:12.809Z</time></trkpt><trkpt lat="40.6162617" lon="8.213885"><ele>20.333333333333336</ele><time>2026-04-16T11:13:13.809Z</time></trkpt><trkpt lat="40.616375" lon="8.2137317"><ele>20.0</ele><time>2026-04-16T11:13:14.81Z</time></trkpt><trkpt lat="40.6164867" lon="8.2135867"><ele>20.0</ele><time>2026-04-16T11:13:15.809Z</time></trkpt><trkpt lat="40.6165983" lon="8.2134317"><ele>20.0</ele><time>2026-04-16T11:13:16.809Z</time></trkpt><trkpt lat="40.6167067" lon="8.21328"><ele>20.0</ele><time>2026-04-16T11:13:17.809Z</time></trkpt><trkpt lat="40.6168083" lon="8.21313"><ele>19.666666666666668</ele><time>2026-04-16T11:13:18.809Z</time></trkpt><trkpt lat="40.6169133" lon="8.2129767"><ele>19.333333333333332</ele><time>2026-04-16T11:13:19.81Z</time></trkpt><trkpt lat="40.6170283" lon="8.21283"><ele>19.0</ele><time>2026-04-16T11:13:20.81Z</time></trkpt><trkpt lat="40.6171367" lon="8.2126817"><ele>19.0</ele><time>2026-04-16T11:13:21.809Z</time></trkpt><trkpt lat="40.6172433" lon="8.2125383"><ele>19.0</ele><time>2026-04-16T11:13:22.81Z</time></trkpt><trkpt lat="40.6173467" lon="8.2123933"><ele>19.0</ele><time>2026-04-16T11:13:23.81Z</time></trkpt><trkpt lat="40.617455" lon="8.21225"><ele>18.25</ele><time>2026-04-16T11:13:24.809Z</time></trkpt><trkpt lat="40.6175567" lon="8.2121083"><ele>17.5</ele><time>2026-04-16T11:13:25.81Z</time></trkpt><trkpt lat="40.6176683" lon="8.2119617"><ele>16.75</ele><time>2026-04-16T11:13:26.81Z</time></trkpt><trkpt lat="40.6177633" lon="8.211845"><ele>16.0</ele><time>2026-04-16T11:13:27.81Z</time></trkpt><trkpt lat="40.6178467" lon="8.2117283"><ele>16.0</ele><time>2026-04-16T11:13:28.81Z</time></trkpt><trkpt lat="40.6179333" lon="8.2116183"><ele>16.0</ele><time>2026-04-16T11:13:29.809Z</time></trkpt><trkpt lat="40.6180117" lon="8.21151"><ele>16.0</ele><time>2026-04-16T11:13:30.809Z</time></trkpt><trkpt lat="40.61809" lon="8.21141"><ele>16.0</ele><time>2026-04-16T11:13:31.809Z</time></trkpt><trkpt lat="40.6181583" lon="8.2113133"><ele>16.0</ele><time>2026-04-16T11:13:32.81Z</time></trkpt><trkpt lat="40.618225" lon="8.211225"><ele>15.166666666666666</ele><time>2026-04-16T11:13:33.81Z</time></trkpt><trkpt lat="40.6182867" lon="8.2111483"><ele>14.333333333333332</ele><time>2026-04-16T11:13:34.81Z</time></trkpt><trkpt lat="40.6183383" lon="8.21108"><ele>13.5</ele><time>2026-04-16T11:13:35.81Z</time></trkpt><trkpt lat="40.6184083" lon="8.2109933"><ele>12.666666666666666</ele><time>2026-04-16T11:13:37.81Z</time></trkpt><trkpt lat="40.6184583" lon="8.210925"><ele>11.833333333333332</ele><time>2026-04-16T11:13:39.809Z</time></trkpt><trkpt lat="40.618525" lon="8.2108283"><ele>11.0</ele><time>2026-04-16T11:13:41.809Z</time></trkpt><trkpt lat="40.6186183" lon="8.2107017"><ele>10.833333333333332</ele><time>2026-04-16T11:13:43.809Z</time></trkpt><trkpt lat="40.6186733" lon="8.210635"><ele>10.666666666666666</ele><time>2026-04-16T11:13:44.809Z</time></trkpt><trkpt lat="40.6187267" lon="8.2105583"><ele>10.5</ele><time>2026-04-16T11:13:45.81Z</time></trkpt><trkpt lat="40.61878" lon="8.210475"><ele>10.333333333333334</ele><time>2026-04-16T11:13:46.809Z</time></trkpt><trkpt lat="40.618835" lon="8.2104"><ele>10.166666666666668</ele><time>2026-04-16T11:13:47.809Z</time></trkpt><trkpt lat="40.6188883" lon="8.210325"><ele>10.0</ele><time>2026-04-16T11:13:48.81Z</time></trkpt><trkpt lat="40.6189417" lon="8.2102583"><ele>10.0</ele><time>2026-04-16T11:13:49.809Z</time></trkpt><trkpt lat="40.6189917" lon="8.210185"><ele>10.0</ele><time>2026-04-16T11:13:50.81Z</time></trkpt><trkpt lat="40.6190383" lon="8.2101183"><ele>10.0</ele><time>2026-04-16T11:13:51.809Z</time></trkpt><trkpt lat="40.6191233" lon="8.2100167"><ele>10.0</ele><time>2026-04-16T11:13:53.809Z</time></trkpt><trkpt lat="40.6191767" lon="8.2099417"><ele>10.0</ele><time>2026-04-16T11:13:55.81Z</time></trkpt><trkpt lat="40.6192433" lon="8.209885"><ele>10.0</ele><time>2026-04-16T11:13:58.81Z</time></trkpt><trkpt lat="40.6191667" lon="8.209885"><ele>10.0</ele><time>2026-04-16T11:14:40.809Z</time></trkpt><trkpt lat="40.61908" lon="8.2100067"><ele>10.0</ele><time>2026-04-16T11:14:42.809Z</time></trkpt><trkpt lat="40.6190283" lon="8.2100767"><ele>10.0</ele><time>2026-04-16T11:14:43.809Z</time></trkpt><trkpt lat="40.618975" lon="8.2101467"><ele>10.0</ele><time>2026-04-16T11:14:44.809Z</time></trkpt><trkpt lat="40.61892" lon="8.2102217"><ele>10.0</ele><time>2026-04-16T11:14:45.809Z</time></trkpt><trkpt lat="40.6188633" lon="8.2102983"><ele>10.0</ele><time>2026-04-16T11:14:46.808Z</time></trkpt><trkpt lat="40.61881" lon="8.21037"><ele>10.0</ele><time>2026-04-16T11:14:47.809Z</time></trkpt><trkpt lat="40.6187517" lon="8.21044"><ele>10.0</ele><time>2026-04-16T11:14:48.808Z</time></trkpt><trkpt lat="40.6186967" lon="8.2105167"><ele>10.0</ele><time>2026-04-16T11:14:49.808Z</time></trkpt><trkpt lat="40.6186433" lon="8.21059"><ele>10.0</ele><time>2026-04-16T11:14:50.809Z</time></trkpt><trkpt lat="40.6185867" lon="8.2106683"><ele>10.0</ele><time>2026-04-16T11:14:51.809Z</time></trkpt><trkpt lat="40.6185233" lon="8.2107517"><ele>10.0</ele><time>2026-04-16T11:14:52.808Z</time></trkpt><trkpt lat="40.618455" lon="8.21084"><ele>10.2</ele><time>2026-04-16T11:14:53.808Z</time></trkpt><trkpt lat="40.6183883" lon="8.2109333"><ele>10.4</ele><time>2026-04-16T11:14:54.809Z</time></trkpt><trkpt lat="40.618325" lon="8.2110217"><ele>10.600000000000001</ele><time>2026-04-16T11:14:55.809Z</time></trkpt><trkpt lat="40.61826" lon="8.2111117"><ele>10.8</ele><time>2026-04-16T11:14:56.808Z</time></trkpt><trkpt lat="40.6181933" lon="8.2112067"><ele>11.0</ele><time>2026-04-16T11:14:57.808Z</time></trkpt><trkpt lat="40.6181283" lon="8.2113033"><ele>11.0</ele><time>2026-04-16T11:14:58.809Z</time></trkpt><trkpt lat="40.6180633" lon="8.2113933"><ele>11.0</ele><time>2026-04-16T11:14:59.809Z</time></trkpt><trkpt lat="40.6179983" lon="8.2114783"><ele>11.0</ele><time>2026-04-16T11:15:00.809Z</time></trkpt><trkpt lat="40.6179283" lon="8.2115567"><ele>11.0</ele><time>2026-04-16T11:15:01.809Z</time></trkpt><trkpt lat="40.6178567" lon="8.2116567"><ele>11.0</ele><time>2026-04-16T11:15:02.809Z</time></trkpt><trkpt lat="40.6177833" lon="8.2117633"><ele>11.75</ele><time>2026-04-16T11:15:03.809Z</time></trkpt><trkpt lat="40.61771" lon="8.2118767"><ele>12.5</ele><time>2026-04-16T11:15:04.808Z</time></trkpt><trkpt lat="40.617625" lon="8.2119917"><ele>13.25</ele><time>2026-04-16T11:15:05.808Z</time></trkpt><trkpt lat="40.6175417" lon="8.2121"><ele>14.0</ele><time>2026-04-16T11:15:06.809Z</time></trkpt><trkpt lat="40.6174467" lon="8.212215"><ele>15.25</ele><time>2026-04-16T11:15:07.809Z</time></trkpt><trkpt lat="40.617365" lon="8.2123333"><ele>16.5</ele><time>2026-04-16T11:15:08.808Z</time></trkpt><trkpt lat="40.6172733" lon="8.21246"><ele>17.75</ele><time>2026-04-16T11:15:09.808Z</time></trkpt><trkpt lat="40.6171867" lon="8.212565"><ele>19.0</ele><time>2026-04-16T11:15:10.809Z</time></trkpt><trkpt lat="40.6171" lon="8.2126817"><ele>19.0</ele><time>2026-04-16T11:15:11.809Z</time></trkpt><trkpt lat="40.617015" lon="8.212795"><ele>19.0</ele><time>2026-04-16T11:15:12.808Z</time></trkpt><trkpt lat="40.616925" lon="8.2129117"><ele>19.0</ele><time>2026-04-16T11:15:13.809Z</time></trkpt><trkpt lat="40.6168317" lon="8.2130333"><ele>19.0</ele><time>2026-04-16T11:15:14.809Z</time></trkpt><trkpt lat="40.6167383" lon="8.2131617"><ele>19.25</ele><time>2026-04-16T11:15:15.809Z</time></trkpt><trkpt lat="40.616645" lon="8.2132967"><ele>19.5</ele><time>2026-04-16T11:15:16.809Z</time></trkpt><trkpt lat="40.6165467" lon="8.21343"><ele>19.75</ele><time>2026-04-16T11:15:17.808Z</time></trkpt><trkpt lat="40.616445" lon="8.2135633"><ele>20.0</ele><time>2026-04-16T11:15:18.809Z</time></trkpt><trkpt lat="40.6163433" lon="8.2137033"><ele>20.0</ele><time>2026-04-16T11:15:19.808Z</time></trkpt><trkpt lat="40.6162417" lon="8.21384"><ele>20.0</ele><time>2026-04-16T11:15:20.809Z</time></trkpt><trkpt lat="40.6161367" lon="8.2139783"><ele>20.0</ele><time>2026-04-16T11:15:21.808Z</time></trkpt><trkpt lat="40.61603" lon="8.214115"><ele>20.0</ele><time>2026-04-16T11:15:22.809Z</time></trkpt><trkpt lat="40.6159283" lon="8.21426"><ele>20.25</ele><time>2026-04-16T11:15:23.808Z</time></trkpt><trkpt lat="40.6158283" lon="8.2143933"><ele>20.5</ele><time>2026-04-16T11:15:24.808Z</time></trkpt><trkpt lat="40.6157283" lon="8.2145317"><ele>20.75</ele><time>2026-04-16T11:15:25.809Z</time></trkpt><trkpt lat="40.615625" lon="8.214675"><ele>21.0</ele><time>2026-04-16T11:15:26.808Z</time></trkpt><trkpt lat="40.615525" lon="8.2148117"><ele>21.0</ele><time>2026-04-16T11:15:27.809Z</time></trkpt><trkpt lat="40.6154283" lon="8.2149533"><ele>21.0</ele><time>2026-04-16T11:15:28.809Z</time></trkpt><trkpt lat="40.6153283" lon="8.2150867"><ele>21.0</ele><time>2026-04-16T11:15:29.808Z</time></trkpt><trkpt lat="40.6152367" lon="8.21522"><ele>21.0</ele><time>2026-04-16T11:15:30.808Z</time></trkpt><trkpt lat="40.6151417" lon="8.2153467"><ele>20.75</ele><time>2026-04-16T11:15:31.808Z</time></trkpt><trkpt lat="40.615045" lon="8.2154683"><ele>20.5</ele><time>2026-04-16T11:15:32.808Z</time></trkpt><trkpt lat="40.6149417" lon="8.2155817"><ele>20.25</ele><time>2026-04-16T11:15:33.809Z</time></trkpt><trkpt lat="40.6148383" lon="8.21569"><ele>20.0</ele><time>2026-04-16T11:15:34.809Z</time></trkpt><trkpt lat="40.61472" lon="8.2157783"><ele>20.0</ele><time>2026-04-16T11:15:35.809Z</time></trkpt><trkpt lat="40.6146" lon="8.2158517"><ele>20.0</ele><time>2026-04-16T11:15:36.809Z</time></trkpt><trkpt lat="40.6144733" lon="8.2159083"><ele>20.0</ele><time>2026-04-16T11:15:37.808Z</time></trkpt><trkpt lat="40.614335" lon="8.2159567"><ele>20.0</ele><time>2026-04-16T11:15:38.809Z</time></trkpt><trkpt lat="40.614195" lon="8.216015"><ele>19.333333333333336</ele><time>2026-04-16T11:15:39.809Z</time></trkpt><trkpt lat="40.6140417" lon="8.2160733"><ele>18.666666666666668</ele><time>2026-04-16T11:15:40.809Z</time></trkpt><trkpt lat="40.613885" lon="8.2161217"><ele>18.0</ele><time>2026-04-16T11:15:41.809Z</time></trkpt><trkpt lat="40.61373" lon="8.2161817"><ele>17.333333333333332</ele><time>2026-04-16T11:15:42.809Z</time></trkpt><trkpt lat="40.613575" lon="8.21624"><ele>16.666666666666664</ele><time>2026-04-16T11:15:43.808Z</time></trkpt><trkpt lat="40.6134133" lon="8.216305"><ele>16.0</ele><time>2026-04-16T11:15:44.808Z</time></trkpt><trkpt lat="40.613245" lon="8.2163733"><ele>16.0</ele><time>2026-04-16T11:15:45.809Z</time></trkpt><trkpt lat="40.613075" lon="8.2164383"><ele>16.0</ele><time>2026-04-16T11:15:46.808Z</time></trkpt><trkpt lat="40.6129083" lon="8.216505"><ele>16.0</ele><time>2026-04-16T11:15:47.809Z</time></trkpt><trkpt lat="40.6127383" lon="8.216575"><ele>16.333333333333332</ele><time>2026-04-16T11:15:48.809Z</time></trkpt><trkpt lat="40.6125733" lon="8.216635"><ele>16.666666666666668</ele><time>2026-04-16T11:15:49.808Z</time></trkpt><trkpt lat="40.6124" lon="8.2167"><ele>17.0</ele><time>2026-04-16T11:15:50.809Z</time></trkpt><trkpt lat="40.6122283" lon="8.2167617"><ele>17.0</ele><time>2026-04-16T11:15:51.809Z</time></trkpt><trkpt lat="40.6120567" lon="8.21682"><ele>17.0</ele><time>2026-04-16T11:15:52.809Z</time></trkpt><trkpt lat="40.6118817" lon="8.216885"><ele>17.0</ele><time>2026-04-16T11:15:53.808Z</time></trkpt><trkpt lat="40.6117117" lon="8.2169483"><ele>16.666666666666668</ele><time>2026-04-16T11:15:54.809Z</time></trkpt><trkpt lat="40.6115467" lon="8.217015"><ele>16.333333333333332</ele><time>2026-04-16T11:15:55.808Z</time></trkpt><trkpt lat="40.61138" lon="8.2170733"><ele>16.0</ele><time>2026-04-16T11:15:56.808Z</time></trkpt><trkpt lat="40.611215" lon="8.2171367"><ele>16.0</ele><time>2026-04-16T11:15:57.808Z</time></trkpt><trkpt lat="40.611045" lon="8.2172033"><ele>16.0</ele><time>2026-04-16T11:15:58.809Z</time></trkpt><trkpt lat="40.6107067" lon="8.217335"><ele>16.0</ele><time>2026-04-16T11:16:00.809Z</time></trkpt><trkpt lat="40.6105417" lon="8.217395"><ele>16.0</ele><time>2026-04-16T11:16:01.809Z</time></trkpt><trkpt lat="40.610375" lon="8.21746"><ele>16.0</ele><time>2026-04-16T11:16:02.808Z</time></trkpt><trkpt lat="40.610215" lon="8.2175217"><ele>15.666666666666666</ele><time>2026-04-16T11:16:03.809Z</time></trkpt><trkpt lat="40.61006" lon="8.2175817"><ele>15.333333333333332</ele><time>2026-04-16T11:16:04.809Z</time></trkpt><trkpt lat="40.6099133" lon="8.2176317"><ele>15.0</ele><time>2026-04-16T11:16:05.808Z</time></trkpt><trkpt lat="40.6097817" lon="8.2176867"><ele>15.0</ele><time>2026-04-16T11:16:06.808Z</time></trkpt><trkpt lat="40.6096567" lon="8.217735"><ele>15.0</ele><time>2026-04-16T11:16:07.809Z</time></trkpt><trkpt lat="40.6095383" lon="8.2177817"><ele>15.0</ele><time>2026-04-16T11:16:08.809Z</time></trkpt><trkpt lat="40.6094283" lon="8.2178283"><ele>15.0</ele><time>2026-04-16T11:16:09.809Z</time></trkpt><trkpt lat="40.609325" lon="8.2178717"><ele>15.0</ele><time>2026-04-16T11:16:10.808Z</time></trkpt><trkpt lat="40.6092317" lon="8.217915"><ele>15.0</ele><time>2026-04-16T11:16:11.808Z</time></trkpt><trkpt lat="40.6091633" lon="8.2179533"><ele>15.0</ele><time>2026-04-16T11:16:12.809Z</time></trkpt><trkpt lat="40.6090917" lon="8.2180267"><ele>15.0</ele><time>2026-04-16T11:16:14.809Z</time></trkpt><trkpt lat="40.609035" lon="8.218095"><ele>15.0</ele><time>2026-04-16T11:16:36.808Z</time></trkpt><trkpt lat="40.6090033" lon="8.2181867"><ele>15.0</ele><time>2026-04-16T11:17:01.807Z</time></trkpt><trkpt lat="40.608945" lon="8.2183233"><ele>15.0</ele><time>2026-04-16T11:17:03.808Z</time></trkpt><trkpt lat="40.6088917" lon="8.2183933"><ele>15.0</ele><time>2026-04-16T11:17:04.808Z</time></trkpt><trkpt lat="40.6088333" lon="8.2184583"><ele>15.0</ele><time>2026-04-16T11:17:05.807Z</time></trkpt><trkpt lat="40.6087683" lon="8.2185317"><ele>15.0</ele><time>2026-04-16T11:17:06.807Z</time></trkpt><trkpt lat="40.6087067" lon="8.2186133"><ele>15.0</ele><time>2026-04-16T11:17:07.808Z</time></trkpt><trkpt lat="40.60864" lon="8.2187083"><ele>15.0</ele><time>2026-04-16T11:17:08.808Z</time></trkpt><trkpt lat="40.6085733" lon="8.2188067"><ele>15.0</ele><time>2026-04-16T11:17:09.807Z</time></trkpt><trkpt lat="40.6084983" lon="8.2189017"><ele>15.0</ele><time>2026-04-16T11:17:10.808Z</time></trkpt><trkpt lat="40.60842" lon="8.2190017"><ele>15.0</ele><time>2026-04-16T11:17:11.807Z</time></trkpt><trkpt lat="40.60834" lon="8.2191067"><ele>15.0</ele><time>2026-04-16T11:17:12.807Z</time></trkpt><trkpt lat="40.6082617" lon="8.2192133"><ele>15.0</ele><time>2026-04-16T11:17:13.808Z</time></trkpt><trkpt lat="40.608185" lon="8.219315"><ele>15.333333333333334</ele><time>2026-04-16T11:17:14.807Z</time></trkpt><trkpt lat="40.6081067" lon="8.2194133"><ele>15.666666666666668</ele><time>2026-04-16T11:17:15.808Z</time></trkpt><trkpt lat="40.60804" lon="8.2195"><ele>16.0</ele><time>2026-04-16T11:17:16.808Z</time></trkpt><trkpt lat="40.6079817" lon="8.2195733"><ele>16.333333333333336</ele><time>2026-04-16T11:17:17.808Z</time></trkpt><trkpt lat="40.6079417" lon="8.2196517"><ele>16.666666666666668</ele><time>2026-04-16T11:17:18.808Z</time></trkpt><trkpt lat="40.6079167" lon="8.2197367"><ele>17.0</ele><time>2026-04-16T11:17:19.807Z</time></trkpt><trkpt lat="40.60791" lon="8.21984"><ele>17.4</ele><time>2026-04-16T11:17:20.808Z</time></trkpt><trkpt lat="40.6079217" lon="8.2199617"><ele>17.799999999999997</ele><time>2026-04-16T11:17:21.807Z</time></trkpt><trkpt lat="40.607935" lon="8.2200917"><ele>18.2</ele><time>2026-04-16T11:17:22.807Z</time></trkpt><trkpt lat="40.60795" lon="8.2202367"><ele>18.599999999999998</ele><time>2026-04-16T11:17:23.807Z</time></trkpt><trkpt lat="40.6079667" lon="8.22039"><ele>19.0</ele><time>2026-04-16T11:17:24.807Z</time></trkpt><trkpt lat="40.6079883" lon="8.2205583"><ele>19.75</ele><time>2026-04-16T11:17:25.807Z</time></trkpt><trkpt lat="40.6080067" lon="8.2207317"><ele>20.5</ele><time>2026-04-16T11:17:26.807Z</time></trkpt><trkpt lat="40.608025" lon="8.2209083"><ele>21.25</ele><time>2026-04-16T11:17:27.808Z</time></trkpt><trkpt lat="40.60804" lon="8.2210783"><ele>22.0</ele><time>2026-04-16T11:17:28.808Z</time></trkpt><trkpt lat="40.6080583" lon="8.2212483"><ele>22.0</ele><time>2026-04-16T11:17:29.808Z</time></trkpt><trkpt lat="40.608075" lon="8.221415"><ele>22.0</ele><time>2026-04-16T11:17:30.808Z</time></trkpt><trkpt lat="40.60809" lon="8.2215833"><ele>22.0</ele><time>2026-04-16T11:17:31.808Z</time></trkpt><trkpt lat="40.6081017" lon="8.2217417"><ele>22.0</ele><time>2026-04-16T11:17:32.807Z</time></trkpt><trkpt lat="40.6081133" lon="8.2219033"><ele>22.25</ele><time>2026-04-16T11:17:33.807Z</time></trkpt><trkpt lat="40.6081317" lon="8.2220617"><ele>22.5</ele><time>2026-04-16T11:17:34.807Z</time></trkpt><trkpt lat="40.6081517" lon="8.2222267"><ele>22.75</ele><time>2026-04-16T11:17:35.808Z</time></trkpt><trkpt lat="40.6081733" lon="8.22238"><ele>23.0</ele><time>2026-04-16T11:17:36.808Z</time></trkpt><trkpt lat="40.6081917" lon="8.222535"><ele>24.0</ele><time>2026-04-16T11:17:37.808Z</time></trkpt><trkpt lat="40.6082217" lon="8.2226867"><ele>25.0</ele><time>2026-04-16T11:17:38.808Z</time></trkpt><trkpt lat="40.608235" lon="8.2228583"><ele>26.0</ele><time>2026-04-16T11:17:39.808Z</time></trkpt><trkpt lat="40.6082517" lon="8.2230267"><ele>27.0</ele><time>2026-04-16T11:17:40.808Z</time></trkpt><trkpt lat="40.6082667" lon="8.2231867"><ele>28.0</ele><time>2026-04-16T11:17:41.808Z</time></trkpt><trkpt lat="40.6082817" lon="8.2233467"><ele>29.0</ele><time>2026-04-16T11:17:42.807Z</time></trkpt><trkpt lat="40.608295" lon="8.2235033"><ele>30.0</ele><time>2026-04-16T11:17:43.808Z</time></trkpt><trkpt lat="40.6083183" lon="8.2236567"><ele>31.0</ele><time>2026-04-16T11:17:44.808Z</time></trkpt><trkpt lat="40.6083517" lon="8.2237833"><ele>31.0</ele><time>2026-04-16T11:17:45.807Z</time></trkpt><trkpt lat="40.6083767" lon="8.2239083"><ele>31.0</ele><time>2026-04-16T11:17:46.807Z</time></trkpt><trkpt lat="40.6083867" lon="8.2240483"><ele>31.0</ele><time>2026-04-16T11:17:47.808Z</time></trkpt><trkpt lat="40.6083917" lon="8.2241983"><ele>31.0</ele><time>2026-04-16T11:17:48.807Z</time></trkpt><trkpt lat="40.608395" lon="8.2243517"><ele>31.0</ele><time>2026-04-16T11:17:49.807Z</time></trkpt><trkpt lat="40.6084033" lon="8.2245067"><ele>32.66666666666667</ele><time>2026-04-16T11:17:50.807Z</time></trkpt><trkpt lat="40.608415" lon="8.2246633"><ele>34.333333333333336</ele><time>2026-04-16T11:17:51.807Z</time></trkpt><trkpt lat="40.6084283" lon="8.22482"><ele>36.0</ele><time>2026-04-16T11:17:52.808Z</time></trkpt><trkpt lat="40.60844" lon="8.2251267"><ele>37.25</ele><time>2026-04-16T11:17:54.808Z</time></trkpt><trkpt lat="40.60844" lon="8.2252817"><ele>38.5</ele><time>2026-04-16T11:17:55.808Z</time></trkpt><trkpt lat="40.608445" lon="8.2254383"><ele>39.75</ele><time>2026-04-16T11:17:56.808Z</time></trkpt><trkpt lat="40.6084517" lon="8.2255967"><ele>41.0</ele><time>2026-04-16T11:17:57.808Z</time></trkpt><trkpt lat="40.60846" lon="8.2257467"><ele>42.4</ele><time>2026-04-16T11:17:58.807Z</time></trkpt><trkpt lat="40.6084733" lon="8.2258933"><ele>43.8</ele><time>2026-04-16T11:17:59.808Z</time></trkpt><trkpt lat="40.6084883" lon="8.22605"><ele>45.199999999999996</ele><time>2026-04-16T11:18:00.808Z</time></trkpt><trkpt lat="40.608495" lon="8.2261967"><ele>46.599999999999994</ele><time>2026-04-16T11:18:01.808Z</time></trkpt><trkpt lat="40.6084883" lon="8.2263183"><ele>48.0</ele><time>2026-04-16T11:18:02.808Z</time></trkpt><trkpt lat="40.6084833" lon="8.2264183"><ele>49.333333333333336</ele><time>2026-04-16T11:18:03.808Z</time></trkpt><trkpt lat="40.6085217" lon="8.22654"><ele>50.66666666666667</ele><time>2026-04-16T11:18:05.808Z</time></trkpt><trkpt lat="40.6085" lon="8.2266317"><ele>52.0</ele><time>2026-04-16T11:18:07.808Z</time></trkpt><trkpt lat="40.6084733" lon="8.2267383"><ele>53.333333333333336</ele><time>2026-04-16T11:18:09.808Z</time></trkpt><trkpt lat="40.60848" lon="8.2268867"><ele>54.66666666666667</ele><time>2026-04-16T11:18:11.807Z</time></trkpt><trkpt lat="40.6084833" lon="8.226985"><ele>56.0</ele><time>2026-04-16T11:18:12.808Z</time></trkpt><trkpt lat="40.6084717" lon="8.2271"><ele>56.00000000000001</ele><time>2026-04-16T11:18:13.808Z</time></trkpt><trkpt lat="40.6084517" lon="8.2272067"><ele>56.0</ele><time>2026-04-16T11:18:14.807Z</time></trkpt><trkpt lat="40.6084233" lon="8.227315"><ele>56.0</ele><time>2026-04-16T11:18:15.808Z</time></trkpt><trkpt lat="40.6083917" lon="8.227425"><ele>56.0</ele><time>2026-04-16T11:18:16.808Z</time></trkpt><trkpt lat="40.60836" lon="8.2275333"><ele>56.00000000000001</ele><time>2026-04-16T11:18:17.808Z</time></trkpt><trkpt lat="40.608325" lon="8.2276383"><ele>56.0</ele><time>2026-04-16T11:18:18.808Z</time></trkpt><trkpt lat="40.6083033" lon="8.2277433"><ele>57.16666666666667</ele><time>2026-04-16T11:18:19.808Z</time></trkpt><trkpt lat="40.6082917" lon="8.2278583"><ele>58.333333333333336</ele><time>2026-04-16T11:18:20.807Z</time></trkpt><trkpt lat="40.60828" lon="8.22796"><ele>59.5</ele><time>2026-04-16T11:18:21.808Z</time></trkpt><trkpt lat="40.6082817" lon="8.22807"><ele>60.66666666666667</ele><time>2026-04-16T11:18:22.808Z</time></trkpt><trkpt lat="40.6082833" lon="8.228175"><ele>61.833333333333336</ele><time>2026-04-16T11:18:23.808Z</time></trkpt><trkpt lat="40.6082783" lon="8.2282833"><ele>63.0</ele><time>2026-04-16T11:18:24.807Z</time></trkpt><trkpt lat="40.6082767" lon="8.2283883"><ele>64.16666666666667</ele><time>2026-04-16T11:18:25.808Z</time></trkpt><trkpt lat="40.6082667" lon="8.2284983"><ele>65.33333333333333</ele><time>2026-04-16T11:18:26.807Z</time></trkpt><trkpt lat="40.6082617" lon="8.2286033"><ele>66.5</ele><time>2026-04-16T11:18:27.807Z</time></trkpt><trkpt lat="40.608245" lon="8.2286983"><ele>67.66666666666666</ele><time>2026-04-16T11:18:28.807Z</time></trkpt><trkpt lat="40.6082167" lon="8.228855"><ele>68.83333333333333</ele><time>2026-04-16T11:18:30.808Z</time></trkpt><trkpt lat="40.60821" lon="8.228945"><ele>70.0</ele><time>2026-04-16T11:18:31.807Z</time></trkpt><trkpt lat="40.608205" lon="8.229045"><ele>71.28571428571429</ele><time>2026-04-16T11:18:32.808Z</time></trkpt><trkpt lat="40.6082083" lon="8.2291433"><ele>72.57142857142857</ele><time>2026-04-16T11:18:33.808Z</time></trkpt><trkpt lat="40.60821" lon="8.2292417"><ele>73.85714285714286</ele><time>2026-04-16T11:18:34.807Z</time></trkpt><trkpt lat="40.608195" lon="8.22934"><ele>75.14285714285714</ele><time>2026-04-16T11:18:35.808Z</time></trkpt><trkpt lat="40.608185" lon="8.2294317"><ele>76.42857142857143</ele><time>2026-04-16T11:18:36.808Z</time></trkpt><trkpt lat="40.608185" lon="8.229535"><ele>77.71428571428572</ele><time>2026-04-16T11:18:37.808Z</time></trkpt><trkpt lat="40.6081883" lon="8.2296333"><ele>79.0</ele><time>2026-04-16T11:18:38.807Z</time></trkpt><trkpt lat="40.608185" lon="8.2297317"><ele>80.5</ele><time>2026-04-16T11:18:39.807Z</time></trkpt><trkpt lat="40.6081917" lon="8.22983"><ele>82.0</ele><time>2026-04-16T11:18:40.808Z</time></trkpt><trkpt lat="40.6082133" lon="8.2299217"><ele>83.5</ele><time>2026-04-16T11:18:41.807Z</time></trkpt><trkpt lat="40.60823" lon="8.2300083"><ele>85.0</ele><time>2026-04-16T11:18:42.807Z</time></trkpt><trkpt lat="40.60824" lon="8.2301133"><ele>86.5</ele><time>2026-04-16T11:18:43.808Z</time></trkpt><trkpt lat="40.6082367" lon="8.2302233"><ele>88.0</ele><time>2026-04-16T11:18:44.807Z</time></trkpt><trkpt lat="40.6082283" lon="8.2303217"><ele>88.0</ele><time>2026-04-16T11:18:45.808Z</time></trkpt><trkpt lat="40.6082217" lon="8.2304183"><ele>88.0</ele><time>2026-04-16T11:18:46.807Z</time></trkpt><trkpt lat="40.6082217" lon="8.23051"><ele>88.0</ele><time>2026-04-16T11:18:47.807Z</time></trkpt><trkpt lat="40.60822" lon="8.2306067"><ele>88.0</ele><time>2026-04-16T11:18:48.808Z</time></trkpt><trkpt lat="40.6082333" lon="8.23071"><ele>88.0</ele><time>2026-04-16T11:18:49.808Z</time></trkpt><trkpt lat="40.60825" lon="8.23081"><ele>88.0</ele><time>2026-04-16T11:18:50.807Z</time></trkpt><trkpt lat="40.608275" lon="8.23091"><ele>90.0</ele><time>2026-04-16T11:18:51.807Z</time></trkpt><trkpt lat="40.6083083" lon="8.23099"><ele>92.0</ele><time>2026-04-16T11:18:52.808Z</time></trkpt><trkpt lat="40.6083933" lon="8.2310583"><ele>94.0</ele><time>2026-04-16T11:18:54.807Z</time></trkpt><trkpt lat="40.60851" lon="8.2310783"><ele>96.0</ele><time>2026-04-16T11:18:56.807Z</time></trkpt><trkpt lat="40.608575" lon="8.2310967"><ele>98.00000000000001</ele><time>2026-04-16T11:18:57.807Z</time></trkpt><trkpt lat="40.6086433" lon="8.2311267"><ele>100.0</ele><time>2026-04-16T11:18:58.808Z</time></trkpt><trkpt lat="40.60872" lon="8.23117"><ele>100.8</ele><time>2026-04-16T11:18:59.808Z</time></trkpt><trkpt lat="40.6087817" lon="8.2312"><ele>101.6</ele><time>2026-04-16T11:19:00.807Z</time></trkpt><trkpt lat="40.6088967" lon="8.23125"><ele>102.4</ele><time>2026-04-16T11:19:02.808Z</time></trkpt><trkpt lat="40.6090133" lon="8.2313233"><ele>103.2</ele><time>2026-04-16T11:19:04.807Z</time></trkpt><trkpt lat="40.60907" lon="8.2313617"><ele>104.0</ele><time>2026-04-16T11:19:05.807Z</time></trkpt><trkpt lat="40.60916" lon="8.231435"><ele>106.83333333333333</ele><time>2026-04-16T11:19:07.808Z</time></trkpt><trkpt lat="40.60922" lon="8.2314767"><ele>109.66666666666666</ele><time>2026-04-16T11:19:08.808Z</time></trkpt><trkpt lat="40.60929" lon="8.2315267"><ele>112.5</ele><time>2026-04-16T11:19:09.807Z</time></trkpt><trkpt lat="40.6093567" lon="8.2315667"><ele>115.33333333333334</ele><time>2026-04-16T11:19:10.807Z</time></trkpt><trkpt lat="40.60942" lon="8.2316067"><ele>118.16666666666667</ele><time>2026-04-16T11:19:11.807Z</time></trkpt><trkpt lat="40.60948" lon="8.2316333"><ele>121.0</ele><time>2026-04-16T11:19:12.807Z</time></trkpt><trkpt lat="40.6095917" lon="8.2316733"><ele>121.14285714285714</ele><time>2026-04-16T11:19:14.808Z</time></trkpt><trkpt lat="40.60965" lon="8.231705"><ele>121.28571428571428</ele><time>2026-04-16T11:19:15.807Z</time></trkpt><trkpt lat="40.6097108" lon="8.2317448"><ele>121.42857142857142</ele><time>2026-04-16T11:19:16.807Z</time></trkpt><trkpt lat="40.6097718" lon="8.2317873"><ele>121.57142857142856</ele><time>2026-04-16T11:19:17.808Z</time></trkpt><trkpt lat="40.6098312" lon="8.2318266"><ele>121.71428571428571</ele><time>2026-04-16T11:19:18.807Z</time></trkpt><trkpt lat="40.6098951" lon="8.2318698"><ele>121.85714285714283</ele><time>2026-04-16T11:19:19.807Z</time></trkpt><trkpt lat="40.6099582" lon="8.2319219"><ele>121.99999999999999</ele><time>2026-04-16T11:19:20.808Z</time></trkpt><trkpt lat="40.6100198" lon="8.231971"><ele>121.99999999999999</ele><time>2026-04-16T11:19:21.808Z</time></trkpt><trkpt lat="40.6100752" lon="8.2320164"><ele>122.0</ele><time>2026-04-16T11:19:22.808Z</time></trkpt><trkpt lat="40.6101358" lon="8.2320641"><ele>122.0</ele><time>2026-04-16T11:19:23.807Z</time></trkpt><trkpt lat="40.6102044" lon="8.2321136"><ele>122.0</ele><time>2026-04-16T11:19:24.808Z</time></trkpt><trkpt lat="40.610281" lon="8.2321628"><ele>121.99999999999999</ele><time>2026-04-16T11:19:25.807Z</time></trkpt><trkpt lat="40.6103653" lon="8.2322173"><ele>122.0</ele><time>2026-04-16T11:19:26.807Z</time></trkpt><trkpt lat="40.6104469" lon="8.2322728"><ele>126.0</ele><time>2026-04-16T11:19:27.807Z</time></trkpt><trkpt lat="40.6105318" lon="8.2323357"><ele>130.0</ele><time>2026-04-16T11:19:28.808Z</time></trkpt><trkpt lat="40.6106187" lon="8.2324013"><ele>134.0</ele><time>2026-04-16T11:19:29.808Z</time></trkpt><trkpt lat="40.6107073" lon="8.2324676"><ele>138.0</ele><time>2026-04-16T11:19:30.808Z</time></trkpt><trkpt lat="40.6107985" lon="8.2325315"><ele>142.0</ele><time>2026-04-16T11:19:31.808Z</time></trkpt><trkpt lat="40.6108914" lon="8.2325996"><ele>142.0</ele><time>2026-04-16T11:19:32.808Z</time></trkpt><trkpt lat="40.6109806" lon="8.232664"><ele>142.0</ele><time>2026-04-16T11:19:33.808Z</time></trkpt><trkpt lat="40.6110681" lon="8.2327256"><ele>142.0</ele><time>2026-04-16T11:19:34.808Z</time></trkpt><trkpt lat="40.6111534" lon="8.232773"><ele>142.0</ele><time>2026-04-16T11:19:35.808Z</time></trkpt><trkpt lat="40.6112409" lon="8.2328159"><ele>142.0</ele><time>2026-04-16T11:19:36.808Z</time></trkpt><trkpt lat="40.6113313" lon="8.2328522"><ele>141.79999999999998</ele><time>2026-04-16T11:19:37.808Z</time></trkpt><trkpt lat="40.6114137" lon="8.2328935"><ele>141.6</ele><time>2026-04-16T11:19:38.807Z</time></trkpt><trkpt lat="40.6114882" lon="8.2329372"><ele>141.39999999999998</ele><time>2026-04-16T11:19:39.807Z</time></trkpt><trkpt lat="40.6115854" lon="8.2330142"><ele>141.2</ele><time>2026-04-16T11:19:41.808Z</time></trkpt><trkpt lat="40.6116792" lon="8.2330887"><ele>141.0</ele><time>2026-04-16T11:19:43.808Z</time></trkpt><trkpt lat="40.6117472" lon="8.2331263"><ele>142.5</ele><time>2026-04-16T11:19:44.806Z</time></trkpt><trkpt lat="40.6118207" lon="8.2331682"><ele>144.0</ele><time>2026-04-16T11:19:45.807Z</time></trkpt><trkpt lat="40.6118916" lon="8.23321"><ele>145.5</ele><time>2026-04-16T11:19:46.807Z</time></trkpt><trkpt lat="40.6119649" lon="8.2332509"><ele>147.0</ele><time>2026-04-16T11:19:47.806Z</time></trkpt><trkpt lat="40.6120352" lon="8.2332879"><ele>148.5</ele><time>2026-04-16T11:19:48.807Z</time></trkpt><trkpt lat="40.6120967" lon="8.2333133"><ele>150.0</ele><time>2026-04-16T11:19:49.806Z</time></trkpt><trkpt lat="40.61217" lon="8.23336"><ele>150.0</ele><time>2026-04-16T11:19:50.806Z</time></trkpt><trkpt lat="40.6122483" lon="8.2334033"><ele>150.0</ele><time>2026-04-16T11:19:51.807Z</time></trkpt><trkpt lat="40.6123333" lon="8.23345"><ele>150.0</ele><time>2026-04-16T11:19:52.807Z</time></trkpt><trkpt lat="40.6124217" lon="8.2334983"><ele>150.0</ele><time>2026-04-16T11:19:53.806Z</time></trkpt><trkpt lat="40.6125017" lon="8.23353"><ele>150.0</ele><time>2026-04-16T11:19:54.806Z</time></trkpt><trkpt lat="40.61259" lon="8.2335617"><ele>150.0</ele><time>2026-04-16T11:19:55.806Z</time></trkpt><trkpt lat="40.6126717" lon="8.2335883"><ele>150.0</ele><time>2026-04-16T11:19:56.806Z</time></trkpt><trkpt lat="40.6127467" lon="8.23363"><ele>150.0</ele><time>2026-04-16T11:19:57.807Z</time></trkpt><trkpt lat="40.6128167" lon="8.2336617"><ele>150.0</ele><time>2026-04-16T11:19:58.806Z</time></trkpt><trkpt lat="40.61289" lon="8.2336917"><ele>150.0</ele><time>2026-04-16T11:19:59.807Z</time></trkpt><trkpt lat="40.61296" lon="8.233725"><ele>150.0</ele><time>2026-04-16T11:20:00.807Z</time></trkpt><trkpt lat="40.6130367" lon="8.233755"><ele>150.0</ele><time>2026-04-16T11:20:01.807Z</time></trkpt><trkpt lat="40.6131167" lon="8.2337967"><ele>150.28571428571428</ele><time>2026-04-16T11:20:02.807Z</time></trkpt><trkpt lat="40.6131833" lon="8.2338333"><ele>150.57142857142856</ele><time>2026-04-16T11:20:03.807Z</time></trkpt><trkpt lat="40.6132483" lon="8.2338633"><ele>150.85714285714283</ele><time>2026-04-16T11:20:04.806Z</time></trkpt><trkpt lat="40.6133117" lon="8.2338917"><ele>151.14285714285714</ele><time>2026-04-16T11:20:05.806Z</time></trkpt><trkpt lat="40.6133733" lon="8.233925"><ele>151.42857142857144</ele><time>2026-04-16T11:20:06.807Z</time></trkpt><trkpt lat="40.6134317" lon="8.233965"><ele>151.7142857142857</ele><time>2026-04-16T11:20:07.807Z</time></trkpt><trkpt lat="40.61349" lon="8.2339983"><ele>152.0</ele><time>2026-04-16T11:20:08.806Z</time></trkpt><trkpt lat="40.613555" lon="8.23403"><ele>152.0</ele><time>2026-04-16T11:20:09.807Z</time></trkpt><trkpt lat="40.6136233" lon="8.23406"><ele>152.0</ele><time>2026-04-16T11:20:10.806Z</time></trkpt><trkpt lat="40.6136933" lon="8.2340867"><ele>152.0</ele><time>2026-04-16T11:20:11.807Z</time></trkpt><trkpt lat="40.6137633" lon="8.2341217"><ele>152.0</ele><time>2026-04-16T11:20:12.807Z</time></trkpt><trkpt lat="40.6138333" lon="8.2341617"><ele>152.0</ele><time>2026-04-16T11:20:13.806Z</time></trkpt><trkpt lat="40.61391" lon="8.2341983"><ele>152.0</ele><time>2026-04-16T11:20:14.806Z</time></trkpt><trkpt lat="40.6139917" lon="8.2342417"><ele>151.33333333333331</ele><time>2026-04-16T11:20:15.807Z</time></trkpt><trkpt lat="40.6140717" lon="8.2342833"><ele>150.66666666666666</ele><time>2026-04-16T11:20:16.807Z</time></trkpt><trkpt lat="40.6141517" lon="8.2343233"><ele>150.0</ele><time>2026-04-16T11:20:17.807Z</time></trkpt><trkpt lat="40.6142283" lon="8.23437"><ele>149.33333333333334</ele><time>2026-04-16T11:20:18.807Z</time></trkpt><trkpt lat="40.6143" lon="8.23442"><ele>148.66666666666669</ele><time>2026-04-16T11:20:19.807Z</time></trkpt><trkpt lat="40.6143783" lon="8.2344767"><ele>148.0</ele><time>2026-04-16T11:20:20.807Z</time></trkpt><trkpt lat="40.6144567" lon="8.2345333"><ele>149.5</ele><time>2026-04-16T11:20:21.807Z</time></trkpt><trkpt lat="40.614525" lon="8.23459"><ele>151.0</ele><time>2026-04-16T11:20:22.807Z</time></trkpt><trkpt lat="40.6145883" lon="8.2346467"><ele>152.5</ele><time>2026-04-16T11:20:23.807Z</time></trkpt><trkpt lat="40.6146483" lon="8.2346883"><ele>154.0</ele><time>2026-04-16T11:20:24.807Z</time></trkpt><trkpt lat="40.6147283" lon="8.2347567"><ele>155.5</ele><time>2026-04-16T11:20:26.806Z</time></trkpt><trkpt lat="40.6147667" lon="8.2348233"><ele>157.0</ele><time>2026-04-16T11:20:28.807Z</time></trkpt><trkpt lat="40.614785" lon="8.234915"><ele>160.8</ele><time>2026-04-16T11:20:30.806Z</time></trkpt><trkpt lat="40.6148217" lon="8.23502"><ele>164.6</ele><time>2026-04-16T11:20:32.807Z</time></trkpt><trkpt lat="40.6149083" lon="8.2351133"><ele>168.4</ele><time>2026-04-16T11:20:34.806Z</time></trkpt><trkpt lat="40.6149617" lon="8.23516"><ele>172.20000000000002</ele><time>2026-04-16T11:20:35.806Z</time></trkpt><trkpt lat="40.61503" lon="8.235255"><ele>176.0</ele><time>2026-04-16T11:20:37.806Z</time></trkpt><trkpt lat="40.6150517" lon="8.2353783"><ele>176.0</ele><time>2026-04-16T11:20:39.807Z</time></trkpt><trkpt lat="40.6150683" lon="8.2355467"><ele>176.0</ele><time>2026-04-16T11:20:41.807Z</time></trkpt><trkpt lat="40.6150783" lon="8.235635"><ele>176.0</ele><time>2026-04-16T11:20:42.807Z</time></trkpt><trkpt lat="40.615085" lon="8.23572"><ele>176.0</ele><time>2026-04-16T11:20:43.807Z</time></trkpt><trkpt lat="40.6150967" lon="8.2358717"><ele>176.0</ele><time>2026-04-16T11:20:45.806Z</time></trkpt><trkpt lat="40.61509" lon="8.236005"><ele>179.5</ele><time>2026-04-16T11:20:47.807Z</time></trkpt><trkpt lat="40.61506" lon="8.23616"><ele>183.0</ele><time>2026-04-16T11:20:49.807Z</time></trkpt><trkpt lat="40.615045" lon="8.2362433"><ele>186.5</ele><time>2026-04-16T11:20:50.807Z</time></trkpt><trkpt lat="40.6150383" lon="8.2363383"><ele>190.0</ele><time>2026-04-16T11:20:51.807Z</time></trkpt><trkpt lat="40.61503" lon="8.2364367"><ele>193.50000000000003</ele><time>2026-04-16T11:20:52.806Z</time></trkpt><trkpt lat="40.6150317" lon="8.2365367"><ele>197.0</ele><time>2026-04-16T11:20:53.807Z</time></trkpt><trkpt lat="40.6150233" lon="8.2366333"><ele>200.00000000000003</ele><time>2026-04-16T11:20:54.807Z</time></trkpt><trkpt lat="40.6150167" lon="8.2367333"><ele>203.0</ele><time>2026-04-16T11:20:55.807Z</time></trkpt><trkpt lat="40.61501" lon="8.2368283"><ele>206.0</ele><time>2026-04-16T11:20:56.807Z</time></trkpt><trkpt lat="40.6149983" lon="8.2369233"><ele>209.0</ele><time>2026-04-16T11:20:57.807Z</time></trkpt><trkpt lat="40.6149883" lon="8.2370217"><ele>212.00000000000003</ele><time>2026-04-16T11:20:58.806Z</time></trkpt><trkpt lat="40.6149733" lon="8.2371283"><ele>215.0</ele><time>2026-04-16T11:20:59.806Z</time></trkpt><trkpt lat="40.6149583" lon="8.2372283"><ele>216.66666666666669</ele><time>2026-04-16T11:21:00.807Z</time></trkpt><trkpt lat="40.6149417" lon="8.237325"><ele>218.33333333333334</ele><time>2026-04-16T11:21:01.806Z</time></trkpt><trkpt lat="40.6149267" lon="8.23743"><ele>220.0</ele><time>2026-04-16T11:21:02.806Z</time></trkpt><trkpt lat="40.614915" lon="8.2375233"><ele>221.66666666666669</ele><time>2026-04-16T11:21:03.806Z</time></trkpt><trkpt lat="40.61491" lon="8.2376633"><ele>223.33333333333334</ele><time>2026-04-16T11:21:05.806Z</time></trkpt><trkpt lat="40.6149067" lon="8.23777"><ele>225.0</ele><time>2026-04-16T11:21:07.807Z</time></trkpt><trkpt lat="40.6149183" lon="8.2378683"><ele>225.0</ele><time>2026-04-16T11:21:09.807Z</time></trkpt><trkpt lat="40.614955" lon="8.2379783"><ele>225.0</ele><time>2026-04-16T11:21:11.807Z</time></trkpt><trkpt lat="40.6150117" lon="8.2381067"><ele>225.0</ele><time>2026-04-16T11:21:28.806Z</time></trkpt><trkpt lat="40.6150667" lon="8.2382367"><ele>225.0</ele><time>2026-04-16T11:21:30.806Z</time></trkpt><trkpt lat="40.6150983" lon="8.238315"><ele>225.0</ele><time>2026-04-16T11:21:31.807Z</time></trkpt><trkpt lat="40.6151333" lon="8.238405"><ele>225.16666666666666</ele><time>2026-04-16T11:21:32.806Z</time></trkpt><trkpt lat="40.61517" lon="8.23851"><ele>225.33333333333331</ele><time>2026-04-16T11:21:33.806Z</time></trkpt><trkpt lat="40.6152017" lon="8.2386167"><ele>225.5</ele><time>2026-04-16T11:21:34.806Z</time></trkpt><trkpt lat="40.6152433" lon="8.23872"><ele>225.66666666666666</ele><time>2026-04-16T11:21:35.806Z</time></trkpt><trkpt lat="40.615285" lon="8.2388233"><ele>225.83333333333331</ele><time>2026-04-16T11:21:36.807Z</time></trkpt><trkpt lat="40.6153267" lon="8.2389217"><ele>226.0</ele><time>2026-04-16T11:21:37.807Z</time></trkpt><trkpt lat="40.6153667" lon="8.2390183"><ele>224.33333333333331</ele><time>2026-04-16T11:21:38.806Z</time></trkpt><trkpt lat="40.6154" lon="8.2391"><ele>222.66666666666666</ele><time>2026-04-16T11:21:39.807Z</time></trkpt><trkpt lat="40.6154283" lon="8.239195"><ele>221.0</ele><time>2026-04-16T11:21:40.806Z</time></trkpt><trkpt lat="40.61546" lon="8.239275"><ele>219.33333333333331</ele><time>2026-04-16T11:21:41.806Z</time></trkpt><trkpt lat="40.6154917" lon="8.2393667"><ele>217.66666666666666</ele><time>2026-04-16T11:21:42.806Z</time></trkpt><trkpt lat="40.6155217" lon="8.2394667"><ele>216.0</ele><time>2026-04-16T11:21:43.807Z</time></trkpt><trkpt lat="40.6155517" lon="8.2395633"><ele>216.0</ele><time>2026-04-16T11:21:44.807Z</time></trkpt><trkpt lat="40.615585" lon="8.2396467"><ele>216.0</ele><time>2026-04-16T11:21:45.807Z</time></trkpt><trkpt lat="40.615615" lon="8.23973"><ele>216.0</ele><time>2026-04-16T11:21:46.806Z</time></trkpt><trkpt lat="40.6156517" lon="8.2398283"><ele>216.0</ele><time>2026-04-16T11:21:47.807Z</time></trkpt><trkpt lat="40.6156883" lon="8.239925"><ele>216.0</ele><time>2026-04-16T11:21:48.806Z</time></trkpt><trkpt lat="40.61572" lon="8.2400067"><ele>216.0</ele><time>2026-04-16T11:21:49.807Z</time></trkpt><trkpt lat="40.6157767" lon="8.240115"><ele>214.4</ele><time>2026-04-16T11:21:51.806Z</time></trkpt><trkpt lat="40.61586" lon="8.2401317"><ele>212.8</ele><time>2026-04-16T11:21:54.807Z</time></trkpt><trkpt lat="40.6159267" lon="8.240135"><ele>211.20000000000002</ele><time>2026-04-16T11:22:04.807Z</time></trkpt><trkpt lat="40.616025" lon="8.240195"><ele>209.60000000000002</ele><time>2026-04-16T11:22:06.806Z</time></trkpt><trkpt lat="40.6161017" lon="8.2402533"><ele>208.0</ele><time>2026-04-16T11:22:08.807Z</time></trkpt><trkpt lat="40.6161983" lon="8.2403233"><ele>207.33333333333331</ele><time>2026-04-16T11:22:10.806Z</time></trkpt><trkpt lat="40.61626" lon="8.2403767"><ele>206.66666666666666</ele><time>2026-04-16T11:22:11.807Z</time></trkpt><trkpt lat="40.616325" lon="8.24044"><ele>206.0</ele><time>2026-04-16T11:22:12.806Z</time></trkpt><trkpt lat="40.6164033" lon="8.24052"><ele>205.33333333333331</ele><time>2026-04-16T11:22:13.807Z</time></trkpt><trkpt lat="40.6164717" lon="8.240605"><ele>204.66666666666666</ele><time>2026-04-16T11:22:14.807Z</time></trkpt><trkpt lat="40.61654" lon="8.2406833"><ele>204.0</ele><time>2026-04-16T11:22:15.807Z</time></trkpt><trkpt lat="40.6165983" lon="8.2407467"><ele>202.33333333333334</ele><time>2026-04-16T11:22:16.806Z</time></trkpt><trkpt lat="40.6166517" lon="8.2407917"><ele>200.66666666666669</ele><time>2026-04-16T11:22:17.806Z</time></trkpt><trkpt lat="40.6167217" lon="8.24081"><ele>199.0</ele><time>2026-04-16T11:22:18.807Z</time></trkpt><trkpt lat="40.6168133" lon="8.2408133"><ele>197.33333333333334</ele><time>2026-04-16T11:22:19.807Z</time></trkpt><trkpt lat="40.6169133" lon="8.2408183"><ele>195.66666666666669</ele><time>2026-04-16T11:22:20.807Z</time></trkpt><trkpt lat="40.6170217" lon="8.2408167"><ele>194.0</ele><time>2026-04-16T11:22:21.807Z</time></trkpt><trkpt lat="40.617135" lon="8.2408083"><ele>192.79999999999998</ele><time>2026-04-16T11:22:22.807Z</time></trkpt><trkpt lat="40.6172433" lon="8.240795"><ele>191.6</ele><time>2026-04-16T11:22:23.807Z</time></trkpt><trkpt lat="40.6173483" lon="8.2407917"><ele>190.4</ele><time>2026-04-16T11:22:24.806Z</time></trkpt><trkpt lat="40.617455" lon="8.2407933"><ele>189.2</ele><time>2026-04-16T11:22:25.807Z</time></trkpt><trkpt lat="40.6175567" lon="8.2407983"><ele>188.0</ele><time>2026-04-16T11:22:26.807Z</time></trkpt><trkpt lat="40.6176717" lon="8.2408183"><ele>188.0</ele><time>2026-04-16T11:22:27.807Z</time></trkpt><trkpt lat="40.6177933" lon="8.2408333"><ele>188.0</ele><time>2026-04-16T11:22:28.807Z</time></trkpt><trkpt lat="40.6179083" lon="8.2408617"><ele>188.0</ele><time>2026-04-16T11:22:29.807Z</time></trkpt><trkpt lat="40.6180133" lon="8.24087"><ele>188.0</ele><time>2026-04-16T11:22:30.806Z</time></trkpt><trkpt lat="40.6181133" lon="8.2408917"><ele>188.0</ele><time>2026-04-16T11:22:31.805Z</time></trkpt><trkpt lat="40.6182083" lon="8.2409267"><ele>187.33333333333331</ele><time>2026-04-16T11:22:32.806Z</time></trkpt><trkpt lat="40.6182917" lon="8.2409833"><ele>186.66666666666666</ele><time>2026-04-16T11:22:33.806Z</time></trkpt><trkpt lat="40.618375" lon="8.2410383"><ele>186.0</ele><time>2026-04-16T11:22:34.805Z</time></trkpt><trkpt lat="40.6184483" lon="8.241065"><ele>185.33333333333334</ele><time>2026-04-16T11:22:35.806Z</time></trkpt><trkpt lat="40.6185267" lon="8.2410917"><ele>184.66666666666669</ele><time>2026-04-16T11:22:36.806Z</time></trkpt><trkpt lat="40.6185867" lon="8.2411283"><ele>184.0</ele><time>2026-04-16T11:22:37.805Z</time></trkpt><trkpt lat="40.6186433" lon="8.241165"><ele>184.66666666666669</ele><time>2026-04-16T11:22:38.806Z</time></trkpt><trkpt lat="40.6186933" lon="8.241225"><ele>185.33333333333334</ele><time>2026-04-16T11:22:39.806Z</time></trkpt><trkpt lat="40.6187383" lon="8.241325"><ele>186.0</ele><time>2026-04-16T11:22:41.806Z</time></trkpt><trkpt lat="40.6187017" lon="8.2414233"><ele>186.66666666666666</ele><time>2026-04-16T11:22:43.805Z</time></trkpt><trkpt lat="40.6186083" lon="8.2415367"><ele>187.33333333333331</ele><time>2026-04-16T11:22:45.806Z</time></trkpt><trkpt lat="40.6185483" lon="8.241605"><ele>188.0</ele><time>2026-04-16T11:22:46.805Z</time></trkpt><trkpt lat="40.6184883" lon="8.241675"><ele>184.66666666666666</ele><time>2026-04-16T11:22:47.806Z</time></trkpt><trkpt lat="40.6184217" lon="8.2417617"><ele>181.33333333333331</ele><time>2026-04-16T11:22:48.806Z</time></trkpt><trkpt lat="40.61835" lon="8.2418333"><ele>178.0</ele><time>2026-04-16T11:22:49.806Z</time></trkpt><trkpt lat="40.618275" lon="8.2419017"><ele>174.66666666666666</ele><time>2026-04-16T11:22:50.805Z</time></trkpt><trkpt lat="40.6182033" lon="8.2419667"><ele>171.33333333333334</ele><time>2026-04-16T11:22:51.806Z</time></trkpt><trkpt lat="40.61813" lon="8.24201"><ele>168.0</ele><time>2026-04-16T11:22:52.805Z</time></trkpt><trkpt lat="40.6180517" lon="8.2420483"><ele>168.0</ele><time>2026-04-16T11:22:53.806Z</time></trkpt><trkpt lat="40.6179817" lon="8.242085"><ele>168.0</ele><time>2026-04-16T11:22:54.806Z</time></trkpt><trkpt lat="40.6179083" lon="8.2421633"><ele>168.0</ele><time>2026-04-16T11:22:56.806Z</time></trkpt><trkpt lat="40.6179367" lon="8.2422483"><ele>168.0</ele><time>2026-04-16T11:22:58.805Z</time></trkpt><trkpt lat="40.6180533" lon="8.2422967"><ele>168.0</ele><time>2026-04-16T11:23:00.805Z</time></trkpt><trkpt lat="40.6181283" lon="8.2423317"><ele>168.0</ele><time>2026-04-16T11:23:01.806Z</time></trkpt><trkpt lat="40.6181983" lon="8.2423867"><ele>165.66666666666666</ele><time>2026-04-16T11:23:02.806Z</time></trkpt><trkpt lat="40.6182567" lon="8.2424217"><ele>163.33333333333334</ele><time>2026-04-16T11:23:03.806Z</time></trkpt><trkpt lat="40.6183667" lon="8.2424117"><ele>161.0</ele><time>2026-04-16T11:23:05.805Z</time></trkpt><trkpt lat="40.6184383" lon="8.2423933"><ele>158.66666666666669</ele><time>2026-04-16T11:23:06.806Z</time></trkpt><trkpt lat="40.6185033" lon="8.24238"><ele>156.33333333333334</ele><time>2026-04-16T11:23:07.806Z</time></trkpt><trkpt lat="40.61858" lon="8.2424"><ele>154.0</ele><time>2026-04-16T11:23:09.806Z</time></trkpt><trkpt lat="40.6185833" lon="8.24255"><ele>154.0</ele><time>2026-04-16T11:23:11.805Z</time></trkpt><trkpt lat="40.6185633" lon="8.24268"><ele>154.0</ele><time>2026-04-16T11:23:12.806Z</time></trkpt><trkpt lat="40.61855" lon="8.2428033"><ele>154.0</ele><time>2026-04-16T11:23:13.805Z</time></trkpt><trkpt lat="40.6185417" lon="8.2429167"><ele>154.0</ele><time>2026-04-16T11:23:14.805Z</time></trkpt><trkpt lat="40.61854" lon="8.24303"><ele>154.0</ele><time>2026-04-16T11:23:15.806Z</time></trkpt><trkpt lat="40.61855" lon="8.2431467"><ele>153.0</ele><time>2026-04-16T11:23:16.806Z</time></trkpt><trkpt lat="40.61857" lon="8.2432783"><ele>152.0</ele><time>2026-04-16T11:23:17.806Z</time></trkpt><trkpt lat="40.6185867" lon="8.243415"><ele>151.0</ele><time>2026-04-16T11:23:18.805Z</time></trkpt><trkpt lat="40.618605" lon="8.2435267"><ele>150.0</ele><time>2026-04-16T11:23:19.806Z</time></trkpt><trkpt lat="40.6186233" lon="8.2436283"><ele>149.0</ele><time>2026-04-16T11:23:20.805Z</time></trkpt><trkpt lat="40.6186367" lon="8.2437233"><ele>148.0</ele><time>2026-04-16T11:23:21.806Z</time></trkpt><trkpt lat="40.6186467" lon="8.2438233"><ele>147.0</ele><time>2026-04-16T11:23:22.805Z</time></trkpt><trkpt lat="40.6186617" lon="8.24396"><ele>146.0</ele><time>2026-04-16T11:23:24.806Z</time></trkpt><trkpt lat="40.6186883" lon="8.2441283"><ele>145.0</ele><time>2026-04-16T11:23:26.806Z</time></trkpt><trkpt lat="40.6187133" lon="8.24423"><ele>144.0</ele><time>2026-04-16T11:23:27.805Z</time></trkpt><trkpt lat="40.6187433" lon="8.244345"><ele>143.0</ele><time>2026-04-16T11:23:28.805Z</time></trkpt><trkpt lat="40.6187733" lon="8.24447"><ele>143.0</ele><time>2026-04-16T11:23:29.806Z</time></trkpt><trkpt lat="40.6188017" lon="8.2445867"><ele>143.0</ele><time>2026-04-16T11:23:30.806Z</time></trkpt><trkpt lat="40.618835" lon="8.244715"><ele>143.0</ele><time>2026-04-16T11:23:31.806Z</time></trkpt><trkpt lat="40.61886" lon="8.24482"><ele>143.0</ele><time>2026-04-16T11:23:32.805Z</time></trkpt><trkpt lat="40.6188733" lon="8.2449317"><ele>143.0</ele><time>2026-04-16T11:23:33.805Z</time></trkpt><trkpt lat="40.6188883" lon="8.2450633"><ele>140.8</ele><time>2026-04-16T11:23:34.805Z</time></trkpt><trkpt lat="40.6189117" lon="8.245195"><ele>138.60000000000002</ele><time>2026-04-16T11:23:35.806Z</time></trkpt><trkpt lat="40.6189317" lon="8.2453283"><ele>136.39999999999998</ele><time>2026-04-16T11:23:36.805Z</time></trkpt><trkpt lat="40.61894" lon="8.24546"><ele>134.2</ele><time>2026-04-16T11:23:37.805Z</time></trkpt><trkpt lat="40.61894" lon="8.24558"><ele>132.0</ele><time>2026-04-16T11:23:38.806Z</time></trkpt><trkpt lat="40.6189367" lon="8.2456967"><ele>130.66666666666666</ele><time>2026-04-16T11:23:39.806Z</time></trkpt><trkpt lat="40.6189317" lon="8.24582"><ele>129.33333333333334</ele><time>2026-04-16T11:23:40.806Z</time></trkpt><trkpt lat="40.6189333" lon="8.24593"><ele>128.0</ele><time>2026-04-16T11:23:41.805Z</time></trkpt><trkpt lat="40.6189267" lon="8.2460417"><ele>126.66666666666667</ele><time>2026-04-16T11:23:42.806Z</time></trkpt><trkpt lat="40.6189233" lon="8.2461483"><ele>125.33333333333334</ele><time>2026-04-16T11:23:43.806Z</time></trkpt><trkpt lat="40.6189183" lon="8.24626"><ele>124.0</ele><time>2026-04-16T11:23:44.806Z</time></trkpt><trkpt lat="40.6189133" lon="8.2463767"><ele>123.4</ele><time>2026-04-16T11:23:45.805Z</time></trkpt><trkpt lat="40.6189067" lon="8.2464967"><ele>122.80000000000001</ele><time>2026-04-16T11:23:46.806Z</time></trkpt><trkpt lat="40.61889" lon="8.2466133"><ele>122.19999999999999</ele><time>2026-04-16T11:23:47.806Z</time></trkpt><trkpt lat="40.6188617" lon="8.2467433"><ele>121.6</ele><time>2026-04-16T11:23:48.806Z</time></trkpt><trkpt lat="40.61883" lon="8.2468667"><ele>121.0</ele><time>2026-04-16T11:23:49.806Z</time></trkpt><trkpt lat="40.6188" lon="8.2469867"><ele>121.00000000000001</ele><time>2026-04-16T11:23:50.806Z</time></trkpt><trkpt lat="40.61877" lon="8.2471"><ele>121.0</ele><time>2026-04-16T11:23:51.805Z</time></trkpt><trkpt lat="40.6187517" lon="8.2471983"><ele>121.0</ele><time>2026-04-16T11:23:52.805Z</time></trkpt><trkpt lat="40.6187433" lon="8.2472967"><ele>121.0</ele><time>2026-04-16T11:23:53.806Z</time></trkpt><trkpt lat="40.618755" lon="8.2474017"><ele>121.00000000000001</ele><time>2026-04-16T11:23:54.806Z</time></trkpt><trkpt lat="40.61878" lon="8.24752"><ele>121.0</ele><time>2026-04-16T11:23:55.806Z</time></trkpt><trkpt lat="40.6188033" lon="8.2476317"><ele>120.19999999999999</ele><time>2026-04-16T11:23:56.806Z</time></trkpt><trkpt lat="40.6188217" lon="8.24775"><ele>119.39999999999999</ele><time>2026-04-16T11:23:57.806Z</time></trkpt><trkpt lat="40.6188483" lon="8.2478867"><ele>118.6</ele><time>2026-04-16T11:23:58.805Z</time></trkpt><trkpt lat="40.6188717" lon="8.24802"><ele>117.8</ele><time>2026-04-16T11:23:59.806Z</time></trkpt><trkpt lat="40.6189017" lon="8.248155"><ele>117.0</ele><time>2026-04-16T11:24:00.806Z</time></trkpt><trkpt lat="40.6189367" lon="8.2482917"><ele>115.8</ele><time>2026-04-16T11:24:01.806Z</time></trkpt><trkpt lat="40.6189717" lon="8.248425"><ele>114.6</ele><time>2026-04-16T11:24:02.805Z</time></trkpt><trkpt lat="40.6189933" lon="8.2485517"><ele>113.39999999999999</ele><time>2026-04-16T11:24:03.805Z</time></trkpt><trkpt lat="40.6190167" lon="8.2486733"><ele>112.19999999999999</ele><time>2026-04-16T11:24:04.806Z</time></trkpt><trkpt lat="40.6190433" lon="8.2488"><ele>111.0</ele><time>2026-04-16T11:24:05.806Z</time></trkpt><trkpt lat="40.6190783" lon="8.2489283"><ele>110.0</ele><time>2026-04-16T11:24:06.806Z</time></trkpt><trkpt lat="40.6191083" lon="8.2490667"><ele>109.0</ele><time>2026-04-16T11:24:07.805Z</time></trkpt><trkpt lat="40.619135" lon="8.249205"><ele>108.0</ele><time>2026-04-16T11:24:08.805Z</time></trkpt><trkpt lat="40.619165" lon="8.249335"><ele>107.0</ele><time>2026-04-16T11:24:09.806Z</time></trkpt><trkpt lat="40.6191917" lon="8.2494517"><ele>106.0</ele><time>2026-04-16T11:24:10.806Z</time></trkpt><trkpt lat="40.6192233" lon="8.2495633"><ele>106.00000000000001</ele><time>2026-04-16T11:24:11.805Z</time></trkpt><trkpt lat="40.6192467" lon="8.249665"><ele>106.0</ele><time>2026-04-16T11:24:12.805Z</time></trkpt><trkpt lat="40.619265" lon="8.249755"><ele>106.0</ele><time>2026-04-16T11:24:13.806Z</time></trkpt><trkpt lat="40.6193083" lon="8.24988"><ele>106.0</ele><time>2026-04-16T11:24:15.805Z</time></trkpt><trkpt lat="40.619365" lon="8.2499467"><ele>106.00000000000001</ele><time>2026-04-16T11:24:18.806Z</time></trkpt><trkpt lat="40.6194383" lon="8.2499833"><ele>106.0</ele><time>2026-04-16T11:24:20.806Z</time></trkpt><trkpt lat="40.61953" lon="8.2500367"><ele>104.66666666666667</ele><time>2026-04-16T11:24:22.806Z</time></trkpt><trkpt lat="40.6196317" lon="8.2501267"><ele>103.33333333333334</ele><time>2026-04-16T11:24:24.805Z</time></trkpt><trkpt lat="40.61968" lon="8.250195"><ele>102.0</ele><time>2026-04-16T11:24:25.806Z</time></trkpt><trkpt lat="40.61973" lon="8.2502783"><ele>100.66666666666666</ele><time>2026-04-16T11:24:26.805Z</time></trkpt><trkpt lat="40.6197867" lon="8.2503533"><ele>99.33333333333333</ele><time>2026-04-16T11:24:27.806Z</time></trkpt><trkpt lat="40.619835" lon="8.2504233"><ele>98.0</ele><time>2026-04-16T11:24:28.806Z</time></trkpt><trkpt lat="40.619905" lon="8.250515"><ele>97.99999999999999</ele><time>2026-04-16T11:24:30.805Z</time></trkpt><trkpt lat="40.6199583" lon="8.2506217"><ele>98.0</ele><time>2026-04-16T11:24:33.805Z</time></trkpt><trkpt lat="40.6200017" lon="8.2507067"><ele>98.0</ele><time>2026-04-16T11:24:35.806Z</time></trkpt><trkpt lat="40.6200417" lon="8.2508083"><ele>98.0</ele><time>2026-04-16T11:24:37.806Z</time></trkpt><trkpt lat="40.6200817" lon="8.2509067"><ele>97.99999999999999</ele><time>2026-04-16T11:24:39.805Z</time></trkpt><trkpt lat="40.6201167" lon="8.2509917"><ele>98.0</ele><time>2026-04-16T11:24:41.806Z</time></trkpt><trkpt lat="40.62017" lon="8.251085"><ele>98.0</ele><time>2026-04-16T11:24:44.805Z</time></trkpt><trkpt lat="40.6201133" lon="8.251"><ele>98.0</ele><time>2026-04-16T11:24:57.806Z</time></trkpt><trkpt lat="40.6200733" lon="8.2508783"><ele>98.0</ele><time>2026-04-16T11:24:59.806Z</time></trkpt><trkpt lat="40.6200167" lon="8.2507333"><ele>98.0</ele><time>2026-04-16T11:25:01.806Z</time></trkpt><trkpt lat="40.6199817" lon="8.2506533"><ele>98.0</ele><time>2026-04-16T11:25:02.805Z</time></trkpt><trkpt lat="40.6199417" lon="8.250575"><ele>97.99999999999999</ele><time>2026-04-16T11:25:03.806Z</time></trkpt><trkpt lat="40.6198933" lon="8.2505133"><ele>98.0</ele><time>2026-04-16T11:25:04.805Z</time></trkpt><trkpt lat="40.6198483" lon="8.250445"><ele>98.0</ele><time>2026-04-16T11:25:05.806Z</time></trkpt><trkpt lat="40.6197983" lon="8.2503767"><ele>98.0</ele><time>2026-04-16T11:25:06.805Z</time></trkpt><trkpt lat="40.6197517" lon="8.25031"><ele>97.99999999999999</ele><time>2026-04-16T11:25:07.806Z</time></trkpt><trkpt lat="40.6196567" lon="8.250155"><ele>98.0</ele><time>2026-04-16T11:25:09.805Z</time></trkpt><trkpt lat="40.619605" lon="8.25009"><ele>97.99999999999999</ele><time>2026-04-16T11:25:10.805Z</time></trkpt><trkpt lat="40.6195617" lon="8.250025"><ele>98.0</ele><time>2026-04-16T11:25:11.804Z</time></trkpt><trkpt lat="40.6195233" lon="8.2499517"><ele>98.0</ele><time>2026-04-16T11:25:12.805Z</time></trkpt><trkpt lat="40.6194833" lon="8.2498783"><ele>98.0</ele><time>2026-04-16T11:25:13.805Z</time></trkpt><trkpt lat="40.61944" lon="8.2498067"><ele>97.99999999999999</ele><time>2026-04-16T11:25:14.805Z</time></trkpt><trkpt lat="40.6193617" lon="8.24969"><ele>98.0</ele><time>2026-04-16T11:25:16.805Z</time></trkpt><trkpt lat="40.6193017" lon="8.2496133"><ele>99.33333333333333</ele><time>2026-04-16T11:25:18.804Z</time></trkpt><trkpt lat="40.61926" lon="8.2495467"><ele>100.66666666666666</ele><time>2026-04-16T11:25:27.804Z</time></trkpt><trkpt lat="40.619325" lon="8.24954"><ele>102.0</ele><time>2026-04-16T11:25:30.805Z</time></trkpt><trkpt lat="40.6193967" lon="8.2495617"><ele>103.33333333333334</ele><time>2026-04-16T11:25:33.805Z</time></trkpt><trkpt lat="40.6194617" lon="8.2496133"><ele>104.66666666666667</ele><time>2026-04-16T11:27:05.805Z</time></trkpt><trkpt lat="40.6195467" lon="8.24965"><ele>106.0</ele><time>2026-04-16T11:27:07.804Z</time></trkpt><trkpt lat="40.6196133" lon="8.2497283"><ele>104.4</ele><time>2026-04-16T11:27:09.805Z</time></trkpt><trkpt lat="40.61966" lon="8.2498183"><ele>102.8</ele><time>2026-04-16T11:27:11.805Z</time></trkpt><trkpt lat="40.6197217" lon="8.2499533"><ele>101.2</ele><time>2026-04-16T11:27:13.805Z</time></trkpt><trkpt lat="40.61975" lon="8.2500333"><ele>99.60000000000001</ele><time>2026-04-16T11:27:14.805Z</time></trkpt><trkpt lat="40.6198017" lon="8.2501583"><ele>98.0</ele><time>2026-04-16T11:27:16.805Z</time></trkpt><trkpt lat="40.6198717" lon="8.25024"><ele>98.0</ele><time>2026-04-16T11:27:18.805Z</time></trkpt><trkpt lat="40.6199667" lon="8.2503083"><ele>98.0</ele><time>2026-04-16T11:27:20.805Z</time></trkpt><trkpt lat="40.6200217" lon="8.25036"><ele>98.0</ele><time>2026-04-16T11:27:21.804Z</time></trkpt><trkpt lat="40.6201083" lon="8.2504517"><ele>98.0</ele><time>2026-04-16T11:27:23.805Z</time></trkpt><trkpt lat="40.62019" lon="8.250575"><ele>98.0</ele><time>2026-04-16T11:27:25.805Z</time></trkpt><trkpt lat="40.6202667" lon="8.2506967"><ele>97.0</ele><time>2026-04-16T11:27:27.804Z</time></trkpt><trkpt lat="40.620355" lon="8.2508183"><ele>96.0</ele><time>2026-04-16T11:27:29.805Z</time></trkpt><trkpt lat="40.6204083" lon="8.2508767"><ele>95.0</ele><time>2026-04-16T11:27:30.805Z</time></trkpt><trkpt lat="40.62048" lon="8.2509917"><ele>94.0</ele><time>2026-04-16T11:27:32.805Z</time></trkpt><trkpt lat="40.6205267" lon="8.251105"><ele>93.0</ele><time>2026-04-16T11:27:34.804Z</time></trkpt><trkpt lat="40.6205433" lon="8.2511917"><ele>93.0</ele><time>2026-04-16T11:27:36.805Z</time></trkpt><trkpt lat="40.6205567" lon="8.2512767"><ele>93.0</ele><time>2026-04-16T11:27:41.804Z</time></trkpt><trkpt lat="40.6205683" lon="8.25136"><ele>93.0</ele><time>2026-04-16T11:27:43.805Z</time></trkpt><trkpt lat="40.620575" lon="8.2514517"><ele>93.0</ele><time>2026-04-16T11:27:45.805Z</time></trkpt><trkpt lat="40.6205683" lon="8.25156"><ele>93.0</ele><time>2026-04-16T11:27:47.805Z</time></trkpt><trkpt lat="40.6205617" lon="8.2516967"><ele>93.0</ele><time>2026-04-16T11:27:49.805Z</time></trkpt><trkpt lat="40.62056" lon="8.2518183"><ele>92.0</ele><time>2026-04-16T11:27:51.805Z</time></trkpt><trkpt lat="40.6205517" lon="8.25191"><ele>91.0</ele><time>2026-04-16T11:27:53.803Z</time></trkpt><trkpt lat="40.62055" lon="8.2520217"><ele>90.0</ele><time>2026-04-16T11:27:56.804Z</time></trkpt><trkpt lat="40.62056" lon="8.2521333"><ele>89.0</ele><time>2026-04-16T11:27:58.803Z</time></trkpt><trkpt lat="40.62056" lon="8.252235"><ele>88.0</ele><time>2026-04-16T11:28:00.804Z</time></trkpt><trkpt lat="40.6205717" lon="8.2523767"><ele>87.0</ele><time>2026-04-16T11:28:02.804Z</time></trkpt><trkpt lat="40.6205767" lon="8.2525083"><ele>86.39999999999999</ele><time>2026-04-16T11:28:04.804Z</time></trkpt><trkpt lat="40.6205783" lon="8.2526633"><ele>85.8</ele><time>2026-04-16T11:28:06.803Z</time></trkpt><trkpt lat="40.6205817" lon="8.2528067"><ele>85.2</ele><time>2026-04-16T11:28:08.803Z</time></trkpt><trkpt lat="40.6205833" lon="8.2529383"><ele>84.6</ele><time>2026-04-16T11:28:10.804Z</time></trkpt><trkpt lat="40.6205967" lon="8.253075"><ele>84.0</ele><time>2026-04-16T11:28:12.803Z</time></trkpt><trkpt lat="40.6205983" lon="8.2532433"><ele>83.2</ele><time>2026-04-16T11:28:14.804Z</time></trkpt><trkpt lat="40.6205983" lon="8.2533267"><ele>82.4</ele><time>2026-04-16T11:28:15.804Z</time></trkpt><trkpt lat="40.6205917" lon="8.2534883"><ele>81.6</ele><time>2026-04-16T11:28:17.803Z</time></trkpt><trkpt lat="40.6205917" lon="8.2536283"><ele>80.8</ele><time>2026-04-16T11:28:19.803Z</time></trkpt><trkpt lat="40.6206017" lon="8.2537517"><ele>80.0</ele><time>2026-04-16T11:28:21.804Z</time></trkpt><trkpt lat="40.6206117" lon="8.2538417"><ele>80.0</ele><time>2026-04-16T11:28:23.803Z</time></trkpt><trkpt lat="40.620645" lon="8.2539417"><ele>80.0</ele><time>2026-04-16T11:28:25.803Z</time></trkpt><trkpt lat="40.62066" lon="8.2540483"><ele>80.0</ele><time>2026-04-16T11:28:27.804Z</time></trkpt><trkpt lat="40.6206367" lon="8.25415"><ele>80.0</ele><time>2026-04-16T11:28:29.804Z</time></trkpt><trkpt lat="40.6206067" lon="8.2542417"><ele>80.0</ele><time>2026-04-16T11:28:31.803Z</time></trkpt><trkpt lat="40.6205333" lon="8.254335"><ele>80.0</ele><time>2026-04-16T11:29:04.803Z</time></trkpt><trkpt lat="40.620475" lon="8.254465"><ele>79.83333333333334</ele><time>2026-04-16T11:29:06.803Z</time></trkpt><trkpt lat="40.6204483" lon="8.2545517"><ele>79.66666666666667</ele><time>2026-04-16T11:29:07.804Z</time></trkpt><trkpt lat="40.62042" lon="8.25465"><ele>79.5</ele><time>2026-04-16T11:29:08.804Z</time></trkpt><trkpt lat="40.6203933" lon="8.2547367"><ele>79.33333333333333</ele><time>2026-04-16T11:29:09.804Z</time></trkpt><trkpt lat="40.6203667" lon="8.2548233"><ele>79.16666666666666</ele><time>2026-04-16T11:29:10.804Z</time></trkpt><trkpt lat="40.620345" lon="8.2549017"><ele>79.0</ele><time>2026-04-16T11:29:11.804Z</time></trkpt><trkpt lat="40.6202867" lon="8.2550583"><ele>77.60000000000001</ele><time>2026-04-16T11:29:13.804Z</time></trkpt><trkpt lat="40.6202433" lon="8.2551483"><ele>76.2</ele><time>2026-04-16T11:29:14.804Z</time></trkpt><trkpt lat="40.6201983" lon="8.2552383"><ele>74.80000000000001</ele><time>2026-04-16T11:29:15.803Z</time></trkpt><trkpt lat="40.620155" lon="8.25534"><ele>73.4</ele><time>2026-04-16T11:29:16.804Z</time></trkpt><trkpt lat="40.620105" lon="8.2554583"><ele>72.0</ele><time>2026-04-16T11:29:17.804Z</time></trkpt><trkpt lat="40.620055" lon="8.2555783"><ele>71.4</ele><time>2026-04-16T11:29:18.804Z</time></trkpt><trkpt lat="40.6200033" lon="8.2557017"><ele>70.80000000000001</ele><time>2026-04-16T11:29:19.803Z</time></trkpt><trkpt lat="40.61995" lon="8.255825"><ele>70.2</ele><time>2026-04-16T11:29:20.803Z</time></trkpt><trkpt lat="40.619895" lon="8.255955"><ele>69.60000000000001</ele><time>2026-04-16T11:29:21.804Z</time></trkpt><trkpt lat="40.61984" lon="8.2560783"><ele>69.0</ele><time>2026-04-16T11:29:22.804Z</time></trkpt><trkpt lat="40.6197767" lon="8.2561933"><ele>69.0</ele><time>2026-04-16T11:29:23.803Z</time></trkpt><trkpt lat="40.6197017" lon="8.2563"><ele>69.0</ele><time>2026-04-16T11:29:24.804Z</time></trkpt><trkpt lat="40.6196267" lon="8.2564133"><ele>69.0</ele><time>2026-04-16T11:29:25.803Z</time></trkpt><trkpt lat="40.61956" lon="8.2565283"><ele>69.0</ele><time>2026-04-16T11:29:26.804Z</time></trkpt><trkpt lat="40.6194933" lon="8.2566333"><ele>69.0</ele><time>2026-04-16T11:29:27.804Z</time></trkpt><trkpt lat="40.6194433" lon="8.25674"><ele>69.2</ele><time>2026-04-16T11:29:28.804Z</time></trkpt><trkpt lat="40.619405" lon="8.2568417"><ele>69.4</ele><time>2026-04-16T11:29:29.803Z</time></trkpt><trkpt lat="40.6193533" lon="8.2569417"><ele>69.6</ele><time>2026-04-16T11:29:30.804Z</time></trkpt><trkpt lat="40.6192983" lon="8.2570367"><ele>69.8</ele><time>2026-04-16T11:29:31.804Z</time></trkpt><trkpt lat="40.6192333" lon="8.257125"><ele>70.0</ele><time>2026-04-16T11:29:32.804Z</time></trkpt><trkpt lat="40.61917" lon="8.25721"><ele>70.0</ele><time>2026-04-16T11:29:33.804Z</time></trkpt><trkpt lat="40.6190983" lon="8.25728"><ele>70.0</ele><time>2026-04-16T11:29:34.803Z</time></trkpt><trkpt lat="40.6190267" lon="8.2573383"><ele>70.0</ele><time>2026-04-16T11:29:35.804Z</time></trkpt><trkpt lat="40.6189633" lon="8.2573683"><ele>70.0</ele><time>2026-04-16T11:29:36.803Z</time></trkpt><trkpt lat="40.6189067" lon="8.257405"><ele>70.0</ele><time>2026-04-16T11:29:37.803Z</time></trkpt><trkpt lat="40.6187967" lon="8.25749"><ele>70.0</ele><time>2026-04-16T11:29:39.804Z</time></trkpt><trkpt lat="40.6187567" lon="8.2575567"><ele>70.16666666666666</ele><time>2026-04-16T11:29:40.804Z</time></trkpt><trkpt lat="40.6187167" lon="8.2576267"><ele>70.33333333333333</ele><time>2026-04-16T11:29:41.803Z</time></trkpt><trkpt lat="40.6186767" lon="8.2577033"><ele>70.5</ele><time>2026-04-16T11:29:42.804Z</time></trkpt><trkpt lat="40.618615" lon="8.2577533"><ele>70.66666666666667</ele><time>2026-04-16T11:29:43.804Z</time></trkpt><trkpt lat="40.61854" lon="8.257785"><ele>70.83333333333334</ele><time>2026-04-16T11:29:44.804Z</time></trkpt><trkpt lat="40.61846" lon="8.257815"><ele>71.0</ele><time>2026-04-16T11:29:45.803Z</time></trkpt><trkpt lat="40.6183817" lon="8.25785"><ele>71.39999999999999</ele><time>2026-04-16T11:29:46.803Z</time></trkpt><trkpt lat="40.6182983" lon="8.2578883"><ele>71.8</ele><time>2026-04-16T11:29:47.804Z</time></trkpt><trkpt lat="40.6182083" lon="8.2579267"><ele>72.19999999999999</ele><time>2026-04-16T11:29:48.804Z</time></trkpt><trkpt lat="40.6181317" lon="8.2579867"><ele>72.6</ele><time>2026-04-16T11:29:49.804Z</time></trkpt><trkpt lat="40.6180583" lon="8.258065"><ele>73.0</ele><time>2026-04-16T11:29:50.803Z</time></trkpt><trkpt lat="40.6179867" lon="8.2581367"><ele>72.0</ele><time>2026-04-16T11:29:51.804Z</time></trkpt><trkpt lat="40.6179117" lon="8.2582167"><ele>71.0</ele><time>2026-04-16T11:29:52.804Z</time></trkpt><trkpt lat="40.6178367" lon="8.2582983"><ele>70.0</ele><time>2026-04-16T11:29:53.804Z</time></trkpt><trkpt lat="40.6177617" lon="8.2583833"><ele>69.0</ele><time>2026-04-16T11:29:54.803Z</time></trkpt><trkpt lat="40.6176933" lon="8.2584567"><ele>68.0</ele><time>2026-04-16T11:29:55.803Z</time></trkpt><trkpt lat="40.61763" lon="8.2585317"><ele>67.6</ele><time>2026-04-16T11:29:56.804Z</time></trkpt><trkpt lat="40.6175717" lon="8.2586033"><ele>67.19999999999999</ele><time>2026-04-16T11:29:57.803Z</time></trkpt><trkpt lat="40.617515" lon="8.258675"><ele>66.8</ele><time>2026-04-16T11:29:58.804Z</time></trkpt><trkpt lat="40.6174517" lon="8.258765"><ele>66.39999999999999</ele><time>2026-04-16T11:29:59.803Z</time></trkpt><trkpt lat="40.61739" lon="8.2588717"><ele>66.0</ele><time>2026-04-16T11:30:00.804Z</time></trkpt><trkpt lat="40.6173233" lon="8.2589767"><ele>66.0</ele><time>2026-04-16T11:30:01.804Z</time></trkpt><trkpt lat="40.6172583" lon="8.2590817"><ele>66.0</ele><time>2026-04-16T11:30:02.804Z</time></trkpt><trkpt lat="40.6171983" lon="8.2591917"><ele>66.0</ele><time>2026-04-16T11:30:03.803Z</time></trkpt><trkpt lat="40.61714" lon="8.259295"><ele>66.0</ele><time>2026-04-16T11:30:04.804Z</time></trkpt><trkpt lat="40.6170817" lon="8.2593967"><ele>66.0</ele><time>2026-04-16T11:30:05.804Z</time></trkpt><trkpt lat="40.6170217" lon="8.2595"><ele>65.8</ele><time>2026-04-16T11:30:06.804Z</time></trkpt><trkpt lat="40.61696" lon="8.2596033"><ele>65.6</ele><time>2026-04-16T11:30:07.804Z</time></trkpt><trkpt lat="40.6168933" lon="8.2596967"><ele>65.4</ele><time>2026-04-16T11:30:08.803Z</time></trkpt><trkpt lat="40.6168283" lon="8.2598033"><ele>65.2</ele><time>2026-04-16T11:30:09.803Z</time></trkpt><trkpt lat="40.6167583" lon="8.2599067"><ele>65.0</ele><time>2026-04-16T11:30:10.804Z</time></trkpt><trkpt lat="40.616695" lon="8.2600017"><ele>65.0</ele><time>2026-04-16T11:30:11.803Z</time></trkpt><trkpt lat="40.6166317" lon="8.2601033"><ele>65.0</ele><time>2026-04-16T11:30:12.804Z</time></trkpt><trkpt lat="40.61657" lon="8.2601933"><ele>65.0</ele><time>2026-04-16T11:30:13.804Z</time></trkpt><trkpt lat="40.6165083" lon="8.26029"><ele>65.0</ele><time>2026-04-16T11:30:14.803Z</time></trkpt><trkpt lat="40.616445" lon="8.2603933"><ele>65.0</ele><time>2026-04-16T11:30:15.804Z</time></trkpt><trkpt lat="40.6163733" lon="8.260475"><ele>65.0</ele><time>2026-04-16T11:30:16.804Z</time></trkpt><trkpt lat="40.6162967" lon="8.260545"><ele>65.0</ele><time>2026-04-16T11:30:17.803Z</time></trkpt><trkpt lat="40.616215" lon="8.2606183"><ele>65.0</ele><time>2026-04-16T11:30:18.804Z</time></trkpt><trkpt lat="40.6161383" lon="8.2606783"><ele>65.0</ele><time>2026-04-16T11:30:19.804Z</time></trkpt><trkpt lat="40.616075" lon="8.2607317"><ele>65.0</ele><time>2026-04-16T11:30:20.803Z</time></trkpt><trkpt lat="40.6160183" lon="8.2607783"><ele>65.0</ele><time>2026-04-16T11:30:21.804Z</time></trkpt><trkpt lat="40.615945" lon="8.26081"><ele>64.5</ele><time>2026-04-16T11:30:22.803Z</time></trkpt><trkpt lat="40.6158667" lon="8.260835"><ele>64.0</ele><time>2026-04-16T11:30:23.803Z</time></trkpt><trkpt lat="40.6157767" lon="8.26086"><ele>63.5</ele><time>2026-04-16T11:30:24.803Z</time></trkpt><trkpt lat="40.61569" lon="8.2608817"><ele>63.0</ele><time>2026-04-16T11:30:25.804Z</time></trkpt><trkpt lat="40.615595" lon="8.2609083"><ele>62.50000000000001</ele><time>2026-04-16T11:30:26.804Z</time></trkpt><trkpt lat="40.615505" lon="8.2609283"><ele>62.0</ele><time>2026-04-16T11:30:27.804Z</time></trkpt><trkpt lat="40.6154117" lon="8.2609467"><ele>62.2</ele><time>2026-04-16T11:30:28.803Z</time></trkpt><trkpt lat="40.6153183" lon="8.2609667"><ele>62.400000000000006</ele><time>2026-04-16T11:30:29.802Z</time></trkpt><trkpt lat="40.6152183" lon="8.2609917"><ele>62.599999999999994</ele><time>2026-04-16T11:30:30.802Z</time></trkpt><trkpt lat="40.6151167" lon="8.2610317"><ele>62.8</ele><time>2026-04-16T11:30:31.803Z</time></trkpt><trkpt lat="40.6150117" lon="8.2610583"><ele>63.0</ele><time>2026-04-16T11:30:32.803Z</time></trkpt><trkpt lat="40.6149233" lon="8.2610767"><ele>63.0</ele><time>2026-04-16T11:30:33.802Z</time></trkpt><trkpt lat="40.61484" lon="8.2610867"><ele>63.0</ele><time>2026-04-16T11:30:34.803Z</time></trkpt><trkpt lat="40.6147583" lon="8.2610983"><ele>63.0</ele><time>2026-04-16T11:30:35.802Z</time></trkpt><trkpt lat="40.614685" lon="8.2611183"><ele>63.0</ele><time>2026-04-16T11:30:36.802Z</time></trkpt><trkpt lat="40.6145933" lon="8.2611417"><ele>63.0</ele><time>2026-04-16T11:30:38.802Z</time></trkpt><trkpt lat="40.6144683" lon="8.2611783"><ele>62.833333333333336</ele><time>2026-04-16T11:31:03.803Z</time></trkpt><trkpt lat="40.6143883" lon="8.261195"><ele>62.66666666666667</ele><time>2026-04-16T11:31:04.803Z</time></trkpt><trkpt lat="40.6143067" lon="8.261215"><ele>62.5</ele><time>2026-04-16T11:31:05.803Z</time></trkpt><trkpt lat="40.6142217" lon="8.2612417"><ele>62.333333333333336</ele><time>2026-04-16T11:31:06.803Z</time></trkpt><trkpt lat="40.6141283" lon="8.2612617"><ele>62.16666666666667</ele><time>2026-04-16T11:31:07.802Z</time></trkpt><trkpt lat="40.6140383" lon="8.2612883"><ele>62.0</ele><time>2026-04-16T11:31:08.803Z</time></trkpt><trkpt lat="40.6139467" lon="8.2613183"><ele>62.00000000000001</ele><time>2026-04-16T11:31:09.803Z</time></trkpt><trkpt lat="40.61386" lon="8.2613583"><ele>62.0</ele><time>2026-04-16T11:31:10.803Z</time></trkpt><trkpt lat="40.6137833" lon="8.2614167"><ele>62.0</ele><time>2026-04-16T11:31:11.803Z</time></trkpt><trkpt lat="40.6137183" lon="8.2614967"><ele>62.0</ele><time>2026-04-16T11:31:12.803Z</time></trkpt><trkpt lat="40.6136717" lon="8.2615917"><ele>62.00000000000001</ele><time>2026-04-16T11:31:13.803Z</time></trkpt><trkpt lat="40.613645" lon="8.2617"><ele>62.0</ele><time>2026-04-16T11:31:14.802Z</time></trkpt><trkpt lat="40.6136433" lon="8.2618183"><ele>60.50000000000001</ele><time>2026-04-16T11:31:15.803Z</time></trkpt><trkpt lat="40.6136583" lon="8.26194"><ele>59.0</ele><time>2026-04-16T11:31:16.803Z</time></trkpt><trkpt lat="40.61368" lon="8.2620517"><ele>57.5</ele><time>2026-04-16T11:31:17.802Z</time></trkpt><trkpt lat="40.6137017" lon="8.26216"><ele>56.0</ele><time>2026-04-16T11:31:18.803Z</time></trkpt><trkpt lat="40.6137133" lon="8.26227"><ele>54.50000000000001</ele><time>2026-04-16T11:31:19.803Z</time></trkpt><trkpt lat="40.613705" lon="8.2624"><ele>53.0</ele><time>2026-04-16T11:31:20.803Z</time></trkpt><trkpt lat="40.6136817" lon="8.2625267"><ele>52.0</ele><time>2026-04-16T11:31:21.803Z</time></trkpt><trkpt lat="40.6136567" lon="8.2626433"><ele>51.0</ele><time>2026-04-16T11:31:22.803Z</time></trkpt><trkpt lat="40.613655" lon="8.2627683"><ele>50.0</ele><time>2026-04-16T11:31:23.803Z</time></trkpt><trkpt lat="40.6136733" lon="8.2628867"><ele>49.0</ele><time>2026-04-16T11:31:24.802Z</time></trkpt><trkpt lat="40.6136967" lon="8.2630233"><ele>48.0</ele><time>2026-04-16T11:31:25.803Z</time></trkpt><trkpt lat="40.61372" lon="8.26317"><ele>46.75</ele><time>2026-04-16T11:31:26.803Z</time></trkpt><trkpt lat="40.613745" lon="8.263315"><ele>45.5</ele><time>2026-04-16T11:31:27.802Z</time></trkpt><trkpt lat="40.6137733" lon="8.2634617"><ele>44.25</ele><time>2026-04-16T11:31:28.803Z</time></trkpt><trkpt lat="40.6137967" lon="8.2636117"><ele>43.0</ele><time>2026-04-16T11:31:29.803Z</time></trkpt><trkpt lat="40.6138233" lon="8.263765"><ele>43.0</ele><time>2026-04-16T11:31:30.803Z</time></trkpt><trkpt lat="40.6138533" lon="8.2639283"><ele>43.0</ele><time>2026-04-16T11:31:31.802Z</time></trkpt><trkpt lat="40.6138817" lon="8.2640933"><ele>43.0</ele><time>2026-04-16T11:31:32.802Z</time></trkpt><trkpt lat="40.6139083" lon="8.264255"><ele>43.0</ele><time>2026-04-16T11:31:33.802Z</time></trkpt><trkpt lat="40.6139367" lon="8.2644233"><ele>41.75</ele><time>2026-04-16T11:31:34.803Z</time></trkpt><trkpt lat="40.6139633" lon="8.26459"><ele>40.5</ele><time>2026-04-16T11:31:35.802Z</time></trkpt><trkpt lat="40.6139917" lon="8.2647617"><ele>39.25</ele><time>2026-04-16T11:31:36.803Z</time></trkpt><trkpt lat="40.61402" lon="8.26493"><ele>38.0</ele><time>2026-04-16T11:31:37.802Z</time></trkpt><trkpt lat="40.6140417" lon="8.2650983"><ele>37.75</ele><time>2026-04-16T11:31:38.803Z</time></trkpt><trkpt lat="40.6140733" lon="8.265275"><ele>37.5</ele><time>2026-04-16T11:31:39.803Z</time></trkpt><trkpt lat="40.6141033" lon="8.265445"><ele>37.25</ele><time>2026-04-16T11:31:40.803Z</time></trkpt><trkpt lat="40.6141283" lon="8.2656"><ele>37.0</ele><time>2026-04-16T11:31:41.802Z</time></trkpt><trkpt lat="40.6141517" lon="8.2657467"><ele>36.5</ele><time>2026-04-16T11:31:42.803Z</time></trkpt><trkpt lat="40.6141783" lon="8.265895"><ele>36.0</ele><time>2026-04-16T11:31:43.802Z</time></trkpt><trkpt lat="40.614205" lon="8.2660383"><ele>35.5</ele><time>2026-04-16T11:31:44.803Z</time></trkpt><trkpt lat="40.6142283" lon="8.26619"><ele>35.0</ele><time>2026-04-16T11:31:45.803Z</time></trkpt><trkpt lat="40.6142533" lon="8.2663417"><ele>34.5</ele><time>2026-04-16T11:31:46.803Z</time></trkpt><trkpt lat="40.6142783" lon="8.2664917"><ele>34.0</ele><time>2026-04-16T11:31:47.803Z</time></trkpt><trkpt lat="40.6143" lon="8.266635"><ele>33.5</ele><time>2026-04-16T11:31:48.802Z</time></trkpt><trkpt lat="40.6143283" lon="8.26679"><ele>33.0</ele><time>2026-04-16T11:31:49.803Z</time></trkpt><trkpt lat="40.6143567" lon="8.2669467"><ele>33.0</ele><time>2026-04-16T11:31:50.802Z</time></trkpt><trkpt lat="40.614385" lon="8.2671117"><ele>33.0</ele><time>2026-04-16T11:31:51.803Z</time></trkpt><trkpt lat="40.6144133" lon="8.2672767"><ele>33.0</ele><time>2026-04-16T11:31:52.803Z</time></trkpt><trkpt lat="40.61444" lon="8.2674433"><ele>33.0</ele><time>2026-04-16T11:31:53.803Z</time></trkpt><trkpt lat="40.614465" lon="8.2676067"><ele>32.75</ele><time>2026-04-16T11:31:54.803Z</time></trkpt><trkpt lat="40.614485" lon="8.26777"><ele>32.5</ele><time>2026-04-16T11:31:55.803Z</time></trkpt><trkpt lat="40.614515" lon="8.26794"><ele>32.25</ele><time>2026-04-16T11:31:56.803Z</time></trkpt><trkpt lat="40.61455" lon="8.26811"><ele>32.0</ele><time>2026-04-16T11:31:57.802Z</time></trkpt><trkpt lat="40.6145783" lon="8.2682917"><ele>31.5</ele><time>2026-04-16T11:31:58.803Z</time></trkpt><trkpt lat="40.61461" lon="8.2684783"><ele>31.0</ele><time>2026-04-16T11:31:59.803Z</time></trkpt><trkpt lat="40.6146433" lon="8.26866"><ele>30.5</ele><time>2026-04-16T11:32:00.803Z</time></trkpt><trkpt lat="40.61467" lon="8.2688267"><ele>30.0</ele><time>2026-04-16T11:32:01.802Z</time></trkpt><trkpt lat="40.6146933" lon="8.2689867"><ele>29.6</ele><time>2026-04-16T11:32:02.802Z</time></trkpt><trkpt lat="40.61472" lon="8.2691433"><ele>29.2</ele><time>2026-04-16T11:32:03.802Z</time></trkpt><trkpt lat="40.614745" lon="8.269275"><ele>28.799999999999997</ele><time>2026-04-16T11:32:04.802Z</time></trkpt><trkpt lat="40.6147667" lon="8.2693867"><ele>28.4</ele><time>2026-04-16T11:32:05.803Z</time></trkpt><trkpt lat="40.614785" lon="8.2694667"><ele>28.0</ele><time>2026-04-16T11:32:06.803Z</time></trkpt><trkpt lat="40.614775" lon="8.2695833"><ele>28.000000000000004</ele><time>2026-04-16T11:33:24.801Z</time></trkpt><trkpt lat="40.6146933" lon="8.2696467"><ele>28.0</ele><time>2026-04-16T11:33:26.801Z</time></trkpt><trkpt lat="40.61458" lon="8.2696783"><ele>28.0</ele><time>2026-04-16T11:33:28.802Z</time></trkpt><trkpt lat="40.6145133" lon="8.2696983"><ele>28.0</ele><time>2026-04-16T11:33:29.801Z</time></trkpt><trkpt lat="40.614435" lon="8.26972"><ele>28.000000000000004</ele><time>2026-04-16T11:33:30.801Z</time></trkpt><trkpt lat="40.6143517" lon="8.26975"><ele>28.0</ele><time>2026-04-16T11:33:31.801Z</time></trkpt><trkpt lat="40.6142667" lon="8.2697833"><ele>28.0</ele><time>2026-04-16T11:33:32.801Z</time></trkpt><trkpt lat="40.6141733" lon="8.2698117"><ele>27.999999999999996</ele><time>2026-04-16T11:33:33.802Z</time></trkpt><trkpt lat="40.6140767" lon="8.2698483"><ele>27.999999999999996</ele><time>2026-04-16T11:33:34.802Z</time></trkpt><trkpt lat="40.6139767" lon="8.26989"><ele>28.0</ele><time>2026-04-16T11:33:35.802Z</time></trkpt><trkpt lat="40.613875" lon="8.26992"><ele>28.0</ele><time>2026-04-16T11:33:36.801Z</time></trkpt><trkpt lat="40.613765" lon="8.2699617"><ele>27.75</ele><time>2026-04-16T11:33:37.802Z</time></trkpt><trkpt lat="40.6136533" lon="8.27"><ele>27.5</ele><time>2026-04-16T11:33:38.802Z</time></trkpt><trkpt lat="40.6135333" lon="8.27004"><ele>27.25</ele><time>2026-04-16T11:33:39.802Z</time></trkpt><trkpt lat="40.6134133" lon="8.2700867"><ele>27.0</ele><time>2026-04-16T11:33:40.801Z</time></trkpt><trkpt lat="40.6132933" lon="8.2701333"><ele>27.0</ele><time>2026-04-16T11:33:41.802Z</time></trkpt><trkpt lat="40.613175" lon="8.2701767"><ele>27.0</ele><time>2026-04-16T11:33:42.802Z</time></trkpt><trkpt lat="40.613055" lon="8.27022"><ele>27.0</ele><time>2026-04-16T11:33:43.801Z</time></trkpt><trkpt lat="40.61293" lon="8.2702733"><ele>27.0</ele><time>2026-04-16T11:33:44.801Z</time></trkpt><trkpt lat="40.612805" lon="8.2703217"><ele>27.0</ele><time>2026-04-16T11:33:45.802Z</time></trkpt><trkpt lat="40.6126833" lon="8.270375"><ele>27.0</ele><time>2026-04-16T11:33:46.802Z</time></trkpt><trkpt lat="40.612555" lon="8.2704183"><ele>27.0</ele><time>2026-04-16T11:33:47.802Z</time></trkpt><trkpt lat="40.6124333" lon="8.2704633"><ele>27.0</ele><time>2026-04-16T11:33:48.802Z</time></trkpt><trkpt lat="40.6123167" lon="8.2705067"><ele>27.0</ele><time>2026-04-16T11:33:49.802Z</time></trkpt><trkpt lat="40.6122033" lon="8.2705483"><ele>27.000000000000004</ele><time>2026-04-16T11:33:50.801Z</time></trkpt><trkpt lat="40.6120933" lon="8.2705883"><ele>27.000000000000004</ele><time>2026-04-16T11:33:51.802Z</time></trkpt><trkpt lat="40.6119883" lon="8.2706267"><ele>27.0</ele><time>2026-04-16T11:33:52.801Z</time></trkpt><trkpt lat="40.6118867" lon="8.27067"><ele>27.0</ele><time>2026-04-16T11:33:53.802Z</time></trkpt><trkpt lat="40.6117833" lon="8.270705"><ele>26.200000000000003</ele><time>2026-04-16T11:33:54.801Z</time></trkpt><trkpt lat="40.61168" lon="8.270745"><ele>25.400000000000002</ele><time>2026-04-16T11:33:55.802Z</time></trkpt><trkpt lat="40.6115817" lon="8.2707883"><ele>24.6</ele><time>2026-04-16T11:33:56.801Z</time></trkpt><trkpt lat="40.6114733" lon="8.2708283"><ele>23.799999999999997</ele><time>2026-04-16T11:33:57.802Z</time></trkpt><trkpt lat="40.611355" lon="8.27087"><ele>23.0</ele><time>2026-04-16T11:33:58.801Z</time></trkpt><trkpt lat="40.6112367" lon="8.27091"><ele>23.0</ele><time>2026-04-16T11:33:59.802Z</time></trkpt><trkpt lat="40.61112" lon="8.2709517"><ele>23.0</ele><time>2026-04-16T11:34:00.802Z</time></trkpt><trkpt lat="40.6109983" lon="8.2710033"><ele>23.0</ele><time>2026-04-16T11:34:01.802Z</time></trkpt><trkpt lat="40.61087" lon="8.2710583"><ele>23.0</ele><time>2026-04-16T11:34:02.802Z</time></trkpt><trkpt lat="40.6107417" lon="8.2711067"><ele>23.0</ele><time>2026-04-16T11:34:03.801Z</time></trkpt><trkpt lat="40.61062" lon="8.271155"><ele>23.0</ele><time>2026-04-16T11:34:04.802Z</time></trkpt><trkpt lat="40.610485" lon="8.2712067"><ele>23.0</ele><time>2026-04-16T11:34:05.802Z</time></trkpt><trkpt lat="40.6103533" lon="8.271255"><ele>23.0</ele><time>2026-04-16T11:34:06.802Z</time></trkpt><trkpt lat="40.6102183" lon="8.2713033"><ele>22.75</ele><time>2026-04-16T11:34:07.801Z</time></trkpt><trkpt lat="40.6100933" lon="8.2713467"><ele>22.5</ele><time>2026-04-16T11:34:08.802Z</time></trkpt><trkpt lat="40.6099633" lon="8.2713833"><ele>22.25</ele><time>2026-04-16T11:34:09.802Z</time></trkpt><trkpt lat="40.6098267" lon="8.2714317"><ele>22.0</ele><time>2026-04-16T11:34:10.802Z</time></trkpt><trkpt lat="40.6097017" lon="8.2714917"><ele>22.0</ele><time>2026-04-16T11:34:11.801Z</time></trkpt><trkpt lat="40.60957" lon="8.27154"><ele>22.0</ele><time>2026-04-16T11:34:12.801Z</time></trkpt><trkpt lat="40.6094417" lon="8.2715833"><ele>22.0</ele><time>2026-04-16T11:34:13.801Z</time></trkpt><trkpt lat="40.6093117" lon="8.271635"><ele>22.0</ele><time>2026-04-16T11:34:14.802Z</time></trkpt><trkpt lat="40.6091767" lon="8.2716883"><ele>21.25</ele><time>2026-04-16T11:34:15.801Z</time></trkpt><trkpt lat="40.6090417" lon="8.2717417"><ele>20.5</ele><time>2026-04-16T11:34:16.801Z</time></trkpt><trkpt lat="40.6089083" lon="8.271795"><ele>19.75</ele><time>2026-04-16T11:34:17.802Z</time></trkpt><trkpt lat="40.6087767" lon="8.2718433"><ele>19.0</ele><time>2026-04-16T11:34:18.801Z</time></trkpt><trkpt lat="40.6086433" lon="8.2718917"><ele>18.75</ele><time>2026-04-16T11:34:19.802Z</time></trkpt><trkpt lat="40.608515" lon="8.2719383"><ele>18.5</ele><time>2026-04-16T11:34:20.802Z</time></trkpt><trkpt lat="40.60838" lon="8.27199"><ele>18.25</ele><time>2026-04-16T11:34:21.802Z</time></trkpt><trkpt lat="40.6082517" lon="8.2720417"><ele>18.0</ele><time>2026-04-16T11:34:22.802Z</time></trkpt><trkpt lat="40.6081233" lon="8.2720933"><ele>18.0</ele><time>2026-04-16T11:34:23.802Z</time></trkpt><trkpt lat="40.6079917" lon="8.2721367"><ele>18.0</ele><time>2026-04-16T11:34:24.802Z</time></trkpt><trkpt lat="40.60785" lon="8.2721767"><ele>18.0</ele><time>2026-04-16T11:34:25.801Z</time></trkpt><trkpt lat="40.60771" lon="8.27222"><ele>18.0</ele><time>2026-04-16T11:34:26.801Z</time></trkpt><trkpt lat="40.60757" lon="8.2722683"><ele>17.75</ele><time>2026-04-16T11:34:27.802Z</time></trkpt><trkpt lat="40.6074367" lon="8.2723233"><ele>17.5</ele><time>2026-04-16T11:34:28.802Z</time></trkpt><trkpt lat="40.6073" lon="8.27237"><ele>17.25</ele><time>2026-04-16T11:34:29.802Z</time></trkpt><trkpt lat="40.6071733" lon="8.2724233"><ele>17.0</ele><time>2026-04-16T11:34:30.802Z</time></trkpt><trkpt lat="40.60705" lon="8.2724683"><ele>16.6</ele><time>2026-04-16T11:34:31.802Z</time></trkpt><trkpt lat="40.60693" lon="8.272505"><ele>16.2</ele><time>2026-04-16T11:34:32.802Z</time></trkpt><trkpt lat="40.6068183" lon="8.2725483"><ele>15.8</ele><time>2026-04-16T11:34:33.802Z</time></trkpt><trkpt lat="40.6067183" lon="8.272585"><ele>15.4</ele><time>2026-04-16T11:34:34.802Z</time></trkpt><trkpt lat="40.6066367" lon="8.2726217"><ele>15.0</ele><time>2026-04-16T11:34:35.802Z</time></trkpt><trkpt lat="40.606555" lon="8.2727033"><ele>15.0</ele><time>2026-04-16T11:34:37.801Z</time></trkpt><trkpt lat="40.6065517" lon="8.272845"><ele>15.0</ele><time>2026-04-16T11:34:39.802Z</time></trkpt><trkpt lat="40.60657" lon="8.272945"><ele>15.0</ele><time>2026-04-16T11:34:40.802Z</time></trkpt><trkpt lat="40.6065967" lon="8.2730567"><ele>15.0</ele><time>2026-04-16T11:34:41.802Z</time></trkpt><trkpt lat="40.6066267" lon="8.2731967"><ele>15.0</ele><time>2026-04-16T11:34:42.802Z</time></trkpt><trkpt lat="40.6066583" lon="8.27333"><ele>15.0</ele><time>2026-04-16T11:34:43.802Z</time></trkpt><trkpt lat="40.6066883" lon="8.2734717"><ele>15.0</ele><time>2026-04-16T11:34:44.801Z</time></trkpt><trkpt lat="40.6067167" lon="8.2736183"><ele>15.0</ele><time>2026-04-16T11:34:45.801Z</time></trkpt><trkpt lat="40.6067483" lon="8.2737783"><ele>15.0</ele><time>2026-04-16T11:34:46.802Z</time></trkpt><trkpt lat="40.6067817" lon="8.27393"><ele>14.75</ele><time>2026-04-16T11:34:47.802Z</time></trkpt><trkpt lat="40.6068183" lon="8.27409"><ele>14.5</ele><time>2026-04-16T11:34:48.801Z</time></trkpt><trkpt lat="40.6068517" lon="8.2742517"><ele>14.25</ele><time>2026-04-16T11:34:49.802Z</time></trkpt><trkpt lat="40.60688" lon="8.274415"><ele>14.0</ele><time>2026-04-16T11:34:50.802Z</time></trkpt><trkpt lat="40.6069317" lon="8.2745883"><ele>14.0</ele><time>2026-04-16T11:34:51.802Z</time></trkpt><trkpt lat="40.6069717" lon="8.2747633"><ele>14.0</ele><time>2026-04-16T11:34:52.802Z</time></trkpt><trkpt lat="40.60701" lon="8.2749317"><ele>14.0</ele><time>2026-04-16T11:34:53.802Z</time></trkpt><trkpt lat="40.6070467" lon="8.275105"><ele>14.0</ele><time>2026-04-16T11:34:54.801Z</time></trkpt><trkpt lat="40.6070817" lon="8.2752767"><ele>14.0</ele><time>2026-04-16T11:34:55.801Z</time></trkpt><trkpt lat="40.6071217" lon="8.2754533"><ele>14.0</ele><time>2026-04-16T11:34:56.802Z</time></trkpt><trkpt lat="40.6071617" lon="8.2756283"><ele>14.0</ele><time>2026-04-16T11:34:57.802Z</time></trkpt><trkpt lat="40.6072" lon="8.2758017"><ele>14.0</ele><time>2026-04-16T11:34:58.801Z</time></trkpt><trkpt lat="40.6072317" lon="8.2759733"><ele>14.0</ele><time>2026-04-16T11:34:59.801Z</time></trkpt><trkpt lat="40.6072717" lon="8.27614"><ele>14.0</ele><time>2026-04-16T11:35:00.802Z</time></trkpt><trkpt lat="40.6073083" lon="8.27631"><ele>14.0</ele><time>2026-04-16T11:35:01.801Z</time></trkpt><trkpt lat="40.6073483" lon="8.2764733"><ele>14.0</ele><time>2026-04-16T11:35:02.802Z</time></trkpt><trkpt lat="40.6073867" lon="8.2766383"><ele>14.0</ele><time>2026-04-16T11:35:03.802Z</time></trkpt><trkpt lat="40.6074233" lon="8.2768067"><ele>14.0</ele><time>2026-04-16T11:35:04.801Z</time></trkpt><trkpt lat="40.6074617" lon="8.2769717"><ele>14.0</ele><time>2026-04-16T11:35:05.802Z</time></trkpt><trkpt lat="40.6075" lon="8.2771367"><ele>14.0</ele><time>2026-04-16T11:35:06.802Z</time></trkpt><trkpt lat="40.6075367" lon="8.2773017"><ele>14.0</ele><time>2026-04-16T11:35:07.801Z</time></trkpt><trkpt lat="40.6075733" lon="8.2774667"><ele>14.0</ele><time>2026-04-16T11:35:08.801Z</time></trkpt><trkpt lat="40.6076017" lon="8.2776133"><ele>14.0</ele><time>2026-04-16T11:35:09.802Z</time></trkpt><trkpt lat="40.6076333" lon="8.27775"><ele>14.0</ele><time>2026-04-16T11:35:10.801Z</time></trkpt><trkpt lat="40.60766" lon="8.2778717"><ele>14.000000000000002</ele><time>2026-04-16T11:35:11.802Z</time></trkpt><trkpt lat="40.6076833" lon="8.277975"><ele>14.0</ele><time>2026-04-16T11:35:12.802Z</time></trkpt><trkpt lat="40.607705" lon="8.2780583"><ele>14.0</ele><time>2026-04-16T11:35:13.802Z</time></trkpt><trkpt lat="40.6076833" lon="8.2781767"><ele>14.0</ele><time>2026-04-16T11:35:15.802Z</time></trkpt><trkpt lat="40.6076" lon="8.2782483"><ele>14.000000000000002</ele><time>2026-04-16T11:35:17.802Z</time></trkpt><trkpt lat="40.60753" lon="8.2782683"><ele>14.0</ele><time>2026-04-16T11:35:18.802Z</time></trkpt><trkpt lat="40.6074367" lon="8.2782933"><ele>14.0</ele><time>2026-04-16T11:35:19.802Z</time></trkpt><trkpt lat="40.60734" lon="8.27832"><ele>13.999999999999998</ele><time>2026-04-16T11:35:20.802Z</time></trkpt><trkpt lat="40.6072417" lon="8.2783533"><ele>13.999999999999998</ele><time>2026-04-16T11:35:21.802Z</time></trkpt><trkpt lat="40.6071333" lon="8.2783967"><ele>14.0</ele><time>2026-04-16T11:35:22.802Z</time></trkpt><trkpt lat="40.6070183" lon="8.2784383"><ele>14.0</ele><time>2026-04-16T11:35:23.801Z</time></trkpt><trkpt lat="40.6068983" lon="8.2784783"><ele>14.0</ele><time>2026-04-16T11:35:24.801Z</time></trkpt><trkpt lat="40.6067833" lon="8.2785233"><ele>14.0</ele><time>2026-04-16T11:35:25.801Z</time></trkpt><trkpt lat="40.6066617" lon="8.278565"><ele>14.0</ele><time>2026-04-16T11:35:26.801Z</time></trkpt><trkpt lat="40.606535" lon="8.2786117"><ele>14.0</ele><time>2026-04-16T11:35:27.802Z</time></trkpt><trkpt lat="40.6064" lon="8.278665"><ele>14.0</ele><time>2026-04-16T11:35:28.802Z</time></trkpt><trkpt lat="40.6062667" lon="8.27871"><ele>14.0</ele><time>2026-04-16T11:35:29.801Z</time></trkpt><trkpt lat="40.6061217" lon="8.2787617"><ele>14.0</ele><time>2026-04-16T11:35:30.802Z</time></trkpt><trkpt lat="40.6059767" lon="8.2788217"><ele>14.0</ele><time>2026-04-16T11:35:31.801Z</time></trkpt><trkpt lat="40.6058417" lon="8.2788817"><ele>14.333333333333334</ele><time>2026-04-16T11:35:32.801Z</time></trkpt><trkpt lat="40.605695" lon="8.278935"><ele>14.666666666666668</ele><time>2026-04-16T11:35:33.802Z</time></trkpt><trkpt lat="40.6055483" lon="8.2789917"><ele>15.0</ele><time>2026-04-16T11:35:34.801Z</time></trkpt><trkpt lat="40.6053983" lon="8.27905"><ele>15.0</ele><time>2026-04-16T11:35:35.802Z</time></trkpt><trkpt lat="40.6052517" lon="8.279105"><ele>15.0</ele><time>2026-04-16T11:35:36.802Z</time></trkpt><trkpt lat="40.6050967" lon="8.2791633"><ele>15.0</ele><time>2026-04-16T11:35:37.801Z</time></trkpt><trkpt lat="40.6049417" lon="8.2792117"><ele>15.0</ele><time>2026-04-16T11:35:38.802Z</time></trkpt><trkpt lat="40.6047917" lon="8.2792667"><ele>15.0</ele><time>2026-04-16T11:35:39.801Z</time></trkpt><trkpt lat="40.6046333" lon="8.279325"><ele>15.0</ele><time>2026-04-16T11:35:40.802Z</time></trkpt><trkpt lat="40.6044833" lon="8.2793767"><ele>14.5</ele><time>2026-04-16T11:35:41.801Z</time></trkpt><trkpt lat="40.6043333" lon="8.2794367"><ele>14.0</ele><time>2026-04-16T11:35:42.8Z</time></trkpt><trkpt lat="40.604205" lon="8.279485"><ele>13.5</ele><time>2026-04-16T11:35:43.8Z</time></trkpt><trkpt lat="40.6041" lon="8.27953"><ele>13.0</ele><time>2026-04-16T11:35:44.801Z</time></trkpt><trkpt lat="40.603995" lon="8.2795717"><ele>13.0</ele><time>2026-04-16T11:35:45.8Z</time></trkpt><trkpt lat="40.60389" lon="8.27961"><ele>13.0</ele><time>2026-04-16T11:35:46.801Z</time></trkpt><trkpt lat="40.6037817" lon="8.2796533"><ele>13.0</ele><time>2026-04-16T11:35:47.8Z</time></trkpt><trkpt lat="40.60366" lon="8.2796967"><ele>13.0</ele><time>2026-04-16T11:35:48.801Z</time></trkpt><trkpt lat="40.603535" lon="8.2797417"><ele>13.25</ele><time>2026-04-16T11:35:49.8Z</time></trkpt><trkpt lat="40.6034067" lon="8.27979"><ele>13.5</ele><time>2026-04-16T11:35:50.801Z</time></trkpt><trkpt lat="40.6032717" lon="8.2798383"><ele>13.75</ele><time>2026-04-16T11:35:51.801Z</time></trkpt><trkpt lat="40.6031333" lon="8.2798917"><ele>14.0</ele><time>2026-04-16T11:35:52.801Z</time></trkpt><trkpt lat="40.6029933" lon="8.27995"><ele>14.0</ele><time>2026-04-16T11:35:53.8Z</time></trkpt><trkpt lat="40.6028633" lon="8.2799983"><ele>14.0</ele><time>2026-04-16T11:35:54.801Z</time></trkpt><trkpt lat="40.602745" lon="8.2800517"><ele>14.0</ele><time>2026-04-16T11:35:55.8Z</time></trkpt><trkpt lat="40.602635" lon="8.2800967"><ele>14.0</ele><time>2026-04-16T11:35:56.8Z</time></trkpt><trkpt lat="40.6025367" lon="8.28014"><ele>13.833333333333334</ele><time>2026-04-16T11:35:57.8Z</time></trkpt><trkpt lat="40.6024533" lon="8.2801883"><ele>13.666666666666668</ele><time>2026-04-16T11:35:58.801Z</time></trkpt><trkpt lat="40.60239" lon="8.2802417"><ele>13.5</ele><time>2026-04-16T11:35:59.801Z</time></trkpt><trkpt lat="40.60235" lon="8.2803167"><ele>13.333333333333332</ele><time>2026-04-16T11:36:00.801Z</time></trkpt><trkpt lat="40.6023467" lon="8.280415"><ele>13.166666666666666</ele><time>2026-04-16T11:36:01.801Z</time></trkpt><trkpt lat="40.602385" lon="8.2805167"><ele>13.0</ele><time>2026-04-16T11:36:02.801Z</time></trkpt><trkpt lat="40.6024383" lon="8.280625"><ele>13.0</ele><time>2026-04-16T11:36:03.801Z</time></trkpt><trkpt lat="40.6024917" lon="8.280755"><ele>13.0</ele><time>2026-04-16T11:36:04.801Z</time></trkpt><trkpt lat="40.6025417" lon="8.2809"><ele>13.0</ele><time>2026-04-16T11:36:05.8Z</time></trkpt><trkpt lat="40.60258" lon="8.2810567"><ele>13.0</ele><time>2026-04-16T11:36:06.8Z</time></trkpt><trkpt lat="40.6026067" lon="8.281225"><ele>13.0</ele><time>2026-04-16T11:36:07.8Z</time></trkpt><trkpt lat="40.6026383" lon="8.281395"><ele>13.0</ele><time>2026-04-16T11:36:08.801Z</time></trkpt><trkpt lat="40.6026733" lon="8.28157"><ele>13.0</ele><time>2026-04-16T11:36:09.801Z</time></trkpt><trkpt lat="40.602715" lon="8.2817567"><ele>13.0</ele><time>2026-04-16T11:36:10.801Z</time></trkpt><trkpt lat="40.602755" lon="8.2819467"><ele>13.25</ele><time>2026-04-16T11:36:11.801Z</time></trkpt><trkpt lat="40.6027967" lon="8.2821333"><ele>13.5</ele><time>2026-04-16T11:36:12.8Z</time></trkpt><trkpt lat="40.6028383" lon="8.2823183"><ele>13.75</ele><time>2026-04-16T11:36:13.801Z</time></trkpt><trkpt lat="40.602885" lon="8.282505"><ele>14.0</ele><time>2026-04-16T11:36:14.8Z</time></trkpt><trkpt lat="40.6029233" lon="8.2826817"><ele>14.0</ele><time>2026-04-16T11:36:15.8Z</time></trkpt><trkpt lat="40.60297" lon="8.2828583"><ele>14.0</ele><time>2026-04-16T11:36:16.801Z</time></trkpt><trkpt lat="40.603015" lon="8.2830283"><ele>14.0</ele><time>2026-04-16T11:36:17.801Z</time></trkpt><trkpt lat="40.6030517" lon="8.2831867"><ele>14.0</ele><time>2026-04-16T11:36:18.801Z</time></trkpt><trkpt lat="40.6030783" lon="8.2833233"><ele>14.0</ele><time>2026-04-16T11:36:19.8Z</time></trkpt><trkpt lat="40.603105" lon="8.2834617"><ele>13.999999999999998</ele><time>2026-04-16T11:36:20.801Z</time></trkpt><trkpt lat="40.6031233" lon="8.2835917"><ele>13.999999999999998</ele><time>2026-04-16T11:36:21.801Z</time></trkpt><trkpt lat="40.60314" lon="8.2837267"><ele>14.0</ele><time>2026-04-16T11:36:22.801Z</time></trkpt><trkpt lat="40.6031667" lon="8.2838733"><ele>14.0</ele><time>2026-04-16T11:36:23.8Z</time></trkpt><trkpt lat="40.6032133" lon="8.2840183"><ele>13.5</ele><time>2026-04-16T11:36:24.801Z</time></trkpt><trkpt lat="40.6032633" lon="8.28416"><ele>13.0</ele><time>2026-04-16T11:36:25.8Z</time></trkpt><trkpt lat="40.6033033" lon="8.284315"><ele>12.5</ele><time>2026-04-16T11:36:26.8Z</time></trkpt><trkpt lat="40.603335" lon="8.2844783"><ele>12.0</ele><time>2026-04-16T11:36:27.801Z</time></trkpt><trkpt lat="40.6033583" lon="8.2846433"><ele>11.5</ele><time>2026-04-16T11:36:28.8Z</time></trkpt><trkpt lat="40.6033867" lon="8.28481"><ele>11.0</ele><time>2026-04-16T11:36:29.8Z</time></trkpt><trkpt lat="40.60342" lon="8.28497"><ele>10.5</ele><time>2026-04-16T11:36:30.801Z</time></trkpt><trkpt lat="40.6034483" lon="8.2851183"><ele>10.0</ele><time>2026-04-16T11:36:31.8Z</time></trkpt><trkpt lat="40.6034833" lon="8.2852467"><ele>10.0</ele><time>2026-04-16T11:36:32.801Z</time></trkpt><trkpt lat="40.6035083" lon="8.2853617"><ele>10.0</ele><time>2026-04-16T11:36:33.8Z</time></trkpt><trkpt lat="40.60353" lon="8.2854533"><ele>10.0</ele><time>2026-04-16T11:36:34.8Z</time></trkpt><trkpt lat="40.60356" lon="8.2855933"><ele>10.0</ele><time>2026-04-16T11:36:36.801Z</time></trkpt><trkpt lat="40.6035817" lon="8.2856733"><ele>10.0</ele><time>2026-04-16T11:36:38.801Z</time></trkpt><trkpt lat="40.60352" lon="8.28569"><ele>10.0</ele><time>2026-04-16T11:36:54.8Z</time></trkpt><trkpt lat="40.6035067" lon="8.2855883"><ele>10.0</ele><time>2026-04-16T11:36:56.801Z</time></trkpt><trkpt lat="40.6035117" lon="8.2854467"><ele>10.0</ele><time>2026-04-16T11:36:58.801Z</time></trkpt><trkpt lat="40.603505" lon="8.2853483"><ele>10.0</ele><time>2026-04-16T11:36:59.801Z</time></trkpt><trkpt lat="40.6034967" lon="8.2852367"><ele>10.0</ele><time>2026-04-16T11:37:00.801Z</time></trkpt><trkpt lat="40.6034783" lon="8.285125"><ele>10.0</ele><time>2026-04-16T11:37:01.801Z</time></trkpt><trkpt lat="40.6034567" lon="8.28499"><ele>10.0</ele><time>2026-04-16T11:37:02.8Z</time></trkpt><trkpt lat="40.6034367" lon="8.2848833"><ele>10.0</ele><time>2026-04-16T11:37:03.8Z</time></trkpt><trkpt lat="40.6034117" lon="8.2847583"><ele>10.0</ele><time>2026-04-16T11:37:04.8Z</time></trkpt><trkpt lat="40.6033783" lon="8.2846217"><ele>10.0</ele><time>2026-04-16T11:37:05.8Z</time></trkpt><trkpt lat="40.6033383" lon="8.28448"><ele>10.0</ele><time>2026-04-16T11:37:06.801Z</time></trkpt><trkpt lat="40.6033" lon="8.2843217"><ele>10.666666666666668</ele><time>2026-04-16T11:37:07.801Z</time></trkpt><trkpt lat="40.6032133" lon="8.28402"><ele>11.333333333333334</ele><time>2026-04-16T11:37:09.801Z</time></trkpt><trkpt lat="40.6031717" lon="8.2838633"><ele>12.0</ele><time>2026-04-16T11:37:10.801Z</time></trkpt><trkpt lat="40.60314" lon="8.2836933"><ele>12.5</ele><time>2026-04-16T11:37:11.801Z</time></trkpt><trkpt lat="40.6031133" lon="8.2835233"><ele>13.0</ele><time>2026-04-16T11:37:12.8Z</time></trkpt><trkpt lat="40.6030817" lon="8.28335"><ele>13.5</ele><time>2026-04-16T11:37:13.8Z</time></trkpt><trkpt lat="40.6030467" lon="8.2831717"><ele>14.0</ele><time>2026-04-16T11:37:14.801Z</time></trkpt><trkpt lat="40.60301" lon="8.2829933"><ele>14.25</ele><time>2026-04-16T11:37:15.801Z</time></trkpt><trkpt lat="40.6029683" lon="8.2828167"><ele>14.5</ele><time>2026-04-16T11:37:16.8Z</time></trkpt><trkpt lat="40.6029267" lon="8.2826317"><ele>14.75</ele><time>2026-04-16T11:37:17.8Z</time></trkpt><trkpt lat="40.602885" lon="8.2824533"><ele>15.0</ele><time>2026-04-16T11:37:18.8Z</time></trkpt><trkpt lat="40.6028467" lon="8.2822667"><ele>14.75</ele><time>2026-04-16T11:37:19.801Z</time></trkpt><trkpt lat="40.6028117" lon="8.2820867"><ele>14.5</ele><time>2026-04-16T11:37:20.801Z</time></trkpt><trkpt lat="40.6027733" lon="8.281915"><ele>14.25</ele><time>2026-04-16T11:37:21.801Z</time></trkpt><trkpt lat="40.6027333" lon="8.28175"><ele>14.0</ele><time>2026-04-16T11:37:22.801Z</time></trkpt><trkpt lat="40.6027017" lon="8.2815883"><ele>14.0</ele><time>2026-04-16T11:37:23.801Z</time></trkpt><trkpt lat="40.6026733" lon="8.2814367"><ele>13.999999999999998</ele><time>2026-04-16T11:37:24.801Z</time></trkpt><trkpt lat="40.602645" lon="8.2813033"><ele>13.999999999999998</ele><time>2026-04-16T11:37:25.801Z</time></trkpt><trkpt lat="40.6026217" lon="8.2811717"><ele>14.0</ele><time>2026-04-16T11:37:26.801Z</time></trkpt><trkpt lat="40.6025867" lon="8.2810467"><ele>14.0</ele><time>2026-04-16T11:37:27.8Z</time></trkpt><trkpt lat="40.6025583" lon="8.2809283"><ele>13.833333333333334</ele><time>2026-04-16T11:37:28.8Z</time></trkpt><trkpt lat="40.6025383" lon="8.2808167"><ele>13.666666666666668</ele><time>2026-04-16T11:37:29.8Z</time></trkpt><trkpt lat="40.6025217" lon="8.28071"><ele>13.5</ele><time>2026-04-16T11:37:30.801Z</time></trkpt><trkpt lat="40.6025167" lon="8.2806083"><ele>13.333333333333332</ele><time>2026-04-16T11:37:31.801Z</time></trkpt><trkpt lat="40.60251" lon="8.2805233"><ele>13.166666666666666</ele><time>2026-04-16T11:37:32.801Z</time></trkpt><trkpt lat="40.6025" lon="8.2804367"><ele>13.0</ele><time>2026-04-16T11:37:33.801Z</time></trkpt><trkpt lat="40.6024767" lon="8.2803"><ele>12.833333333333332</ele><time>2026-04-16T11:37:35.801Z</time></trkpt><trkpt lat="40.6024167" lon="8.2802267"><ele>12.666666666666666</ele><time>2026-04-16T11:37:38.8Z</time></trkpt><trkpt lat="40.6023583" lon="8.2801567"><ele>12.5</ele><time>2026-04-16T11:37:40.801Z</time></trkpt><trkpt lat="40.60228" lon="8.2801367"><ele>12.333333333333332</ele><time>2026-04-16T11:37:43.801Z</time></trkpt><trkpt lat="40.60221" lon="8.2802283"><ele>12.166666666666666</ele><time>2026-04-16T11:38:16.801Z</time></trkpt><trkpt lat="40.60211" lon="8.2802883"><ele>12.0</ele><time>2026-04-16T11:38:18.8Z</time></trkpt><trkpt lat="40.601985" lon="8.280325"><ele>11.833333333333334</ele><time>2026-04-16T11:38:20.8Z</time></trkpt><trkpt lat="40.6019117" lon="8.2803583"><ele>11.666666666666666</ele><time>2026-04-16T11:38:21.799Z</time></trkpt><trkpt lat="40.6018383" lon="8.2803917"><ele>11.5</ele><time>2026-04-16T11:38:22.799Z</time></trkpt><trkpt lat="40.6017667" lon="8.2804183"><ele>11.333333333333332</ele><time>2026-04-16T11:38:23.799Z</time></trkpt><trkpt lat="40.6016867" lon="8.2804467"><ele>11.166666666666666</ele><time>2026-04-16T11:38:24.8Z</time></trkpt><trkpt lat="40.6016033" lon="8.2804783"><ele>11.0</ele><time>2026-04-16T11:38:25.799Z</time></trkpt><trkpt lat="40.6014367" lon="8.2805367"><ele>11.0</ele><time>2026-04-16T11:38:27.8Z</time></trkpt><trkpt lat="40.6013433" lon="8.2805683"><ele>11.0</ele><time>2026-04-16T11:38:28.799Z</time></trkpt><trkpt lat="40.6012383" lon="8.2806033"><ele>11.0</ele><time>2026-04-16T11:38:29.8Z</time></trkpt><trkpt lat="40.6011333" lon="8.28065"><ele>11.0</ele><time>2026-04-16T11:38:30.8Z</time></trkpt><trkpt lat="40.6010133" lon="8.2806883"><ele>11.0</ele><time>2026-04-16T11:38:31.8Z</time></trkpt><trkpt lat="40.6009017" lon="8.2807333"><ele>12.333333333333332</ele><time>2026-04-16T11:38:32.799Z</time></trkpt><trkpt lat="40.6007767" lon="8.28078"><ele>13.666666666666666</ele><time>2026-04-16T11:38:33.799Z</time></trkpt><trkpt lat="40.6006467" lon="8.2808267"><ele>15.0</ele><time>2026-04-16T11:38:34.8Z</time></trkpt><trkpt lat="40.60039" lon="8.2809267"><ele>15.75</ele><time>2026-04-16T11:38:36.8Z</time></trkpt><trkpt lat="40.6002583" lon="8.28098"><ele>16.5</ele><time>2026-04-16T11:38:37.799Z</time></trkpt><trkpt lat="40.60012" lon="8.2810333"><ele>17.25</ele><time>2026-04-16T11:38:38.8Z</time></trkpt><trkpt lat="40.5999867" lon="8.2810867"><ele>18.0</ele><time>2026-04-16T11:38:39.8Z</time></trkpt><trkpt lat="40.5998567" lon="8.2811383"><ele>18.0</ele><time>2026-04-16T11:38:40.8Z</time></trkpt><trkpt lat="40.599725" lon="8.28119"><ele>18.0</ele><time>2026-04-16T11:38:41.8Z</time></trkpt><trkpt lat="40.5995883" lon="8.2812383"><ele>18.0</ele><time>2026-04-16T11:38:42.8Z</time></trkpt><trkpt lat="40.599445" lon="8.2812833"><ele>18.0</ele><time>2026-04-16T11:38:43.8Z</time></trkpt><trkpt lat="40.5993083" lon="8.2813383"><ele>17.666666666666668</ele><time>2026-04-16T11:38:44.799Z</time></trkpt><trkpt lat="40.5991667" lon="8.281395"><ele>17.333333333333336</ele><time>2026-04-16T11:38:45.8Z</time></trkpt><trkpt lat="40.5990167" lon="8.2814583"><ele>17.0</ele><time>2026-04-16T11:38:46.8Z</time></trkpt><trkpt lat="40.59887" lon="8.281515"><ele>16.333333333333336</ele><time>2026-04-16T11:38:47.799Z</time></trkpt><trkpt lat="40.598725" lon="8.281575"><ele>15.666666666666668</ele><time>2026-04-16T11:38:48.8Z</time></trkpt><trkpt lat="40.5985733" lon="8.2816317"><ele>15.0</ele><time>2026-04-16T11:38:49.799Z</time></trkpt><trkpt lat="40.5984217" lon="8.2816883"><ele>14.666666666666668</ele><time>2026-04-16T11:38:50.8Z</time></trkpt><trkpt lat="40.5982667" lon="8.28175"><ele>14.333333333333334</ele><time>2026-04-16T11:38:51.799Z</time></trkpt><trkpt lat="40.5981133" lon="8.2818083"><ele>14.0</ele><time>2026-04-16T11:38:52.8Z</time></trkpt><trkpt lat="40.59796" lon="8.2818683"><ele>13.333333333333334</ele><time>2026-04-16T11:38:53.8Z</time></trkpt><trkpt lat="40.5978067" lon="8.2819233"><ele>12.666666666666668</ele><time>2026-04-16T11:38:54.8Z</time></trkpt><trkpt lat="40.59765" lon="8.2819683"><ele>12.0</ele><time>2026-04-16T11:38:55.8Z</time></trkpt><trkpt lat="40.597335" lon="8.2820933"><ele>12.0</ele><time>2026-04-16T11:38:57.799Z</time></trkpt><trkpt lat="40.597025" lon="8.28222"><ele>12.0</ele><time>2026-04-16T11:38:59.8Z</time></trkpt><trkpt lat="40.5968767" lon="8.2822883"><ele>11.333333333333334</ele><time>2026-04-16T11:39:00.8Z</time></trkpt><trkpt lat="40.596725" lon="8.28235"><ele>10.666666666666668</ele><time>2026-04-16T11:39:01.8Z</time></trkpt><trkpt lat="40.5965733" lon="8.2824067"><ele>10.0</ele><time>2026-04-16T11:39:02.8Z</time></trkpt><trkpt lat="40.59643" lon="8.2824617"><ele>10.0</ele><time>2026-04-16T11:39:03.8Z</time></trkpt><trkpt lat="40.5962933" lon="8.28251"><ele>10.0</ele><time>2026-04-16T11:39:04.8Z</time></trkpt><trkpt lat="40.5961633" lon="8.2825567"><ele>10.0</ele><time>2026-04-16T11:39:05.8Z</time></trkpt><trkpt lat="40.5960433" lon="8.2826017"><ele>10.0</ele><time>2026-04-16T11:39:06.8Z</time></trkpt><trkpt lat="40.5959317" lon="8.2826417"><ele>10.25</ele><time>2026-04-16T11:39:07.8Z</time></trkpt><trkpt lat="40.5957567" lon="8.282715"><ele>10.5</ele><time>2026-04-16T11:39:09.799Z</time></trkpt><trkpt lat="40.59566" lon="8.28274"><ele>10.75</ele><time>2026-04-16T11:39:11.799Z</time></trkpt><trkpt lat="40.5955817" lon="8.2827733"><ele>11.0</ele><time>2026-04-16T11:39:15.8Z</time></trkpt><trkpt lat="40.5955567" lon="8.2829133"><ele>11.0</ele><time>2026-04-16T11:39:18.8Z</time></trkpt><trkpt lat="40.59557" lon="8.2830067"><ele>11.0</ele><time>2026-04-16T11:39:19.799Z</time></trkpt><trkpt lat="40.5955867" lon="8.2831183"><ele>11.0</ele><time>2026-04-16T11:39:20.8Z</time></trkpt><trkpt lat="40.5955967" lon="8.283235"><ele>11.0</ele><time>2026-04-16T11:39:21.799Z</time></trkpt><trkpt lat="40.5955917" lon="8.2833683"><ele>11.0</ele><time>2026-04-16T11:39:22.799Z</time></trkpt><trkpt lat="40.59558" lon="8.2835117"><ele>11.0</ele><time>2026-04-16T11:39:23.8Z</time></trkpt><trkpt lat="40.59556" lon="8.283665"><ele>11.0</ele><time>2026-04-16T11:39:24.799Z</time></trkpt><trkpt lat="40.5955433" lon="8.2838267"><ele>11.0</ele><time>2026-04-16T11:39:25.799Z</time></trkpt><trkpt lat="40.5955267" lon="8.28398"><ele>11.0</ele><time>2026-04-16T11:39:26.8Z</time></trkpt><trkpt lat="40.5955117" lon="8.28412"><ele>10.4</ele><time>2026-04-16T11:39:27.799Z</time></trkpt><trkpt lat="40.5954933" lon="8.2842567"><ele>9.8</ele><time>2026-04-16T11:39:28.8Z</time></trkpt><trkpt lat="40.5954867" lon="8.284375"><ele>9.200000000000001</ele><time>2026-04-16T11:39:29.8Z</time></trkpt><trkpt lat="40.59548" lon="8.284465"><ele>8.600000000000001</ele><time>2026-04-16T11:39:30.8Z</time></trkpt><trkpt lat="40.5954933" lon="8.28461"><ele>8.0</ele><time>2026-04-16T11:39:32.799Z</time></trkpt><trkpt lat="40.5955517" lon="8.28472"><ele>7.833333333333333</ele><time>2026-04-16T11:39:34.799Z</time></trkpt><trkpt lat="40.595535" lon="8.2849"><ele>7.666666666666666</ele><time>2026-04-16T11:47:36.797Z</time></trkpt><trkpt lat="40.5955117" lon="8.2849983"><ele>7.5</ele><time>2026-04-16T11:57:57.793Z</time></trkpt><trkpt lat="40.595465" lon="8.285085"><ele>7.333333333333334</ele><time>2026-04-16T11:58:00.794Z</time></trkpt><trkpt lat="40.5954017" lon="8.2850883"><ele>7.166666666666667</ele><time>2026-04-16T11:58:05.794Z</time></trkpt><trkpt lat="40.5953733" lon="8.2851867"><ele>7.0</ele><time>2026-04-16T11:58:07.794Z</time></trkpt><trkpt lat="40.5953583" lon="8.2853183"><ele>7.0</ele><time>2026-04-16T11:58:09.793Z</time></trkpt><trkpt lat="40.595345" lon="8.2854233"><ele>6.999999999999999</ele><time>2026-04-16T11:58:11.794Z</time></trkpt><trkpt lat="40.595325" lon="8.2855767"><ele>6.999999999999999</ele><time>2026-04-16T11:58:17.793Z</time></trkpt><trkpt lat="40.5953133" lon="8.285665"><ele>7.0</ele><time>2026-04-16T11:58:18.793Z</time></trkpt><trkpt lat="40.5953" lon="8.2858483"><ele>7.0</ele><time>2026-04-16T11:58:20.794Z</time></trkpt><trkpt lat="40.59529" lon="8.28595"><ele>6.666666666666667</ele><time>2026-04-16T11:58:21.794Z</time></trkpt><trkpt lat="40.5952717" lon="8.286055"><ele>6.333333333333334</ele><time>2026-04-16T11:58:22.794Z</time></trkpt><trkpt lat="40.5952583" lon="8.2861667"><ele>6.0</ele><time>2026-04-16T11:58:23.794Z</time></trkpt><trkpt lat="40.5952433" lon="8.2862817"><ele>5.666666666666667</ele><time>2026-04-16T11:58:24.794Z</time></trkpt><trkpt lat="40.595235" lon="8.2864017"><ele>5.333333333333334</ele><time>2026-04-16T11:58:25.794Z</time></trkpt><trkpt lat="40.59522" lon="8.2865317"><ele>5.0</ele><time>2026-04-16T11:58:26.793Z</time></trkpt><trkpt lat="40.5952033" lon="8.28666"><ele>5.0</ele><time>2026-04-16T11:58:27.793Z</time></trkpt><trkpt lat="40.5951867" lon="8.2867867"><ele>5.0</ele><time>2026-04-16T11:58:28.794Z</time></trkpt><trkpt lat="40.59517" lon="8.2869083"><ele>5.0</ele><time>2026-04-16T11:58:29.794Z</time></trkpt><trkpt lat="40.595155" lon="8.2870417"><ele>5.0</ele><time>2026-04-16T11:58:30.793Z</time></trkpt><trkpt lat="40.5951367" lon="8.2871833"><ele>5.0</ele><time>2026-04-16T11:58:31.793Z</time></trkpt><trkpt lat="40.5951217" lon="8.2873233"><ele>4.4</ele><time>2026-04-16T11:58:32.793Z</time></trkpt><trkpt lat="40.5951067" lon="8.287455"><ele>3.8</ele><time>2026-04-16T11:58:33.794Z</time></trkpt><trkpt lat="40.595095" lon="8.287575"><ele>3.2</ele><time>2026-04-16T11:58:34.794Z</time></trkpt><trkpt lat="40.5950817" lon="8.28769"><ele>2.6</ele><time>2026-04-16T11:58:35.794Z</time></trkpt><trkpt lat="40.5950717" lon="8.2878033"><ele>2.0</ele><time>2026-04-16T11:58:36.794Z</time></trkpt><trkpt lat="40.5950583" lon="8.2879133"><ele>2.0</ele><time>2026-04-16T11:58:37.793Z</time></trkpt><trkpt lat="40.59504" lon="8.2880333"><ele>2.0</ele><time>2026-04-16T11:58:38.794Z</time></trkpt><trkpt lat="40.5950217" lon="8.288165"><ele>2.0</ele><time>2026-04-16T11:58:39.793Z</time></trkpt><trkpt lat="40.5950067" lon="8.2883"><ele>2.0</ele><time>2026-04-16T11:58:40.794Z</time></trkpt><trkpt lat="40.5949867" lon="8.28844"><ele>2.0</ele><time>2026-04-16T11:58:41.794Z</time></trkpt><trkpt lat="40.5949667" lon="8.2885833"><ele>2.25</ele><time>2026-04-16T11:58:42.793Z</time></trkpt><trkpt lat="40.594945" lon="8.28873"><ele>2.5</ele><time>2026-04-16T11:58:43.794Z</time></trkpt><trkpt lat="40.5949267" lon="8.2888867"><ele>2.75</ele><time>2026-04-16T11:58:44.794Z</time></trkpt><trkpt lat="40.5949033" lon="8.2890517"><ele>3.0</ele><time>2026-04-16T11:58:45.794Z</time></trkpt><trkpt lat="40.5948833" lon="8.2892167"><ele>3.5</ele><time>2026-04-16T11:58:46.793Z</time></trkpt><trkpt lat="40.59486" lon="8.2893867"><ele>4.0</ele><time>2026-04-16T11:58:47.793Z</time></trkpt><trkpt lat="40.5948433" lon="8.2895583"><ele>4.5</ele><time>2026-04-16T11:58:48.794Z</time></trkpt><trkpt lat="40.5948217" lon="8.2897333"><ele>5.0</ele><time>2026-04-16T11:58:49.794Z</time></trkpt><trkpt lat="40.5947983" lon="8.2899083"><ele>5.75</ele><time>2026-04-16T11:58:50.794Z</time></trkpt><trkpt lat="40.59478" lon="8.290085"><ele>6.5</ele><time>2026-04-16T11:58:51.794Z</time></trkpt><trkpt lat="40.5947617" lon="8.2902533"><ele>7.25</ele><time>2026-04-16T11:58:52.794Z</time></trkpt><trkpt lat="40.5947383" lon="8.290415"><ele>8.0</ele><time>2026-04-16T11:58:53.794Z</time></trkpt><trkpt lat="40.5947183" lon="8.2905783"><ele>8.25</ele><time>2026-04-16T11:58:54.793Z</time></trkpt><trkpt lat="40.5946983" lon="8.2907433"><ele>8.5</ele><time>2026-04-16T11:58:55.794Z</time></trkpt><trkpt lat="40.5946733" lon="8.2909117"><ele>8.75</ele><time>2026-04-16T11:58:56.793Z</time></trkpt><trkpt lat="40.594645" lon="8.2910817"><ele>9.0</ele><time>2026-04-16T11:58:57.793Z</time></trkpt><trkpt lat="40.5946067" lon="8.29125"><ele>9.0</ele><time>2026-04-16T11:58:58.794Z</time></trkpt><trkpt lat="40.59457" lon="8.291415"><ele>9.0</ele><time>2026-04-16T11:58:59.794Z</time></trkpt><trkpt lat="40.59453" lon="8.2915783"><ele>9.0</ele><time>2026-04-16T11:59:00.794Z</time></trkpt><trkpt lat="40.5944883" lon="8.29174"><ele>9.0</ele><time>2026-04-16T11:59:01.793Z</time></trkpt><trkpt lat="40.594445" lon="8.2919117"><ele>7.666666666666667</ele><time>2026-04-16T11:59:02.794Z</time></trkpt><trkpt lat="40.594365" lon="8.2922317"><ele>6.333333333333334</ele><time>2026-04-16T11:59:04.794Z</time></trkpt><trkpt lat="40.5943267" lon="8.2923883"><ele>5.0</ele><time>2026-04-16T11:59:05.794Z</time></trkpt><trkpt lat="40.5942933" lon="8.29254"><ele>4.6</ele><time>2026-04-16T11:59:06.794Z</time></trkpt><trkpt lat="40.59426" lon="8.2926867"><ele>4.2</ele><time>2026-04-16T11:59:07.793Z</time></trkpt><trkpt lat="40.5942267" lon="8.2928283"><ele>3.8</ele><time>2026-04-16T11:59:08.794Z</time></trkpt><trkpt lat="40.59419" lon="8.29297"><ele>3.4</ele><time>2026-04-16T11:59:09.794Z</time></trkpt><trkpt lat="40.5941617" lon="8.2931017"><ele>3.0</ele><time>2026-04-16T11:59:10.794Z</time></trkpt><trkpt lat="40.5941383" lon="8.2932333"><ele>2.8333333333333335</ele><time>2026-04-16T11:59:11.794Z</time></trkpt><trkpt lat="40.5941133" lon="8.2933517"><ele>2.6666666666666665</ele><time>2026-04-16T11:59:12.793Z</time></trkpt><trkpt lat="40.5940783" lon="8.2934683"><ele>2.5</ele><time>2026-04-16T11:59:13.794Z</time></trkpt><trkpt lat="40.5940417" lon="8.293575"><ele>2.333333333333333</ele><time>2026-04-16T11:59:14.794Z</time></trkpt><trkpt lat="40.594005" lon="8.2936767"><ele>2.1666666666666665</ele><time>2026-04-16T11:59:15.794Z</time></trkpt><trkpt lat="40.593985" lon="8.29378"><ele>2.0</ele><time>2026-04-16T11:59:16.794Z</time></trkpt><trkpt lat="40.5939917" lon="8.2938967"><ele>2.0</ele><time>2026-04-16T11:59:17.794Z</time></trkpt><trkpt lat="40.5940283" lon="8.2940183"><ele>2.0</ele><time>2026-04-16T11:59:18.793Z</time></trkpt><trkpt lat="40.5940917" lon="8.294115"><ele>2.0</ele><time>2026-04-16T11:59:19.794Z</time></trkpt><trkpt lat="40.5941817" lon="8.2941933"><ele>2.0</ele><time>2026-04-16T11:59:20.794Z</time></trkpt><trkpt lat="40.5942767" lon="8.294275"><ele>2.0</ele><time>2026-04-16T11:59:21.793Z</time></trkpt><trkpt lat="40.5943633" lon="8.2943717"><ele>2.0</ele><time>2026-04-16T11:59:22.793Z</time></trkpt><trkpt lat="40.5944367" lon="8.2944917"><ele>2.0</ele><time>2026-04-16T11:59:23.794Z</time></trkpt><trkpt lat="40.5944967" lon="8.29464"><ele>2.0</ele><time>2026-04-16T11:59:24.794Z</time></trkpt><trkpt lat="40.5945517" lon="8.2948017"><ele>2.0</ele><time>2026-04-16T11:59:25.794Z</time></trkpt><trkpt lat="40.5946117" lon="8.2949733"><ele>2.75</ele><time>2026-04-16T11:59:26.794Z</time></trkpt><trkpt lat="40.5946717" lon="8.2951517"><ele>3.5</ele><time>2026-04-16T11:59:27.793Z</time></trkpt><trkpt lat="40.5947367" lon="8.2953233"><ele>4.25</ele><time>2026-04-16T11:59:28.794Z</time></trkpt><trkpt lat="40.5948033" lon="8.2954933"><ele>5.0</ele><time>2026-04-16T11:59:29.794Z</time></trkpt><trkpt lat="40.59487" lon="8.2956667"><ele>5.25</ele><time>2026-04-16T11:59:30.794Z</time></trkpt><trkpt lat="40.5949317" lon="8.29584"><ele>5.5</ele><time>2026-04-16T11:59:31.794Z</time></trkpt><trkpt lat="40.594995" lon="8.2960183"><ele>5.75</ele><time>2026-04-16T11:59:32.794Z</time></trkpt><trkpt lat="40.595055" lon="8.296195"><ele>6.0</ele><time>2026-04-16T11:59:33.794Z</time></trkpt><trkpt lat="40.5951167" lon="8.2963783"><ele>6.0</ele><time>2026-04-16T11:59:34.794Z</time></trkpt><trkpt lat="40.5951783" lon="8.2965567"><ele>6.0</ele><time>2026-04-16T11:59:35.793Z</time></trkpt><trkpt lat="40.5952383" lon="8.29672"><ele>6.0</ele><time>2026-04-16T11:59:36.794Z</time></trkpt><trkpt lat="40.5952917" lon="8.2968717"><ele>6.0</ele><time>2026-04-16T11:59:37.794Z</time></trkpt><trkpt lat="40.5953283" lon="8.29702"><ele>5.75</ele><time>2026-04-16T11:59:38.793Z</time></trkpt><trkpt lat="40.5953567" lon="8.2971633"><ele>5.5</ele><time>2026-04-16T11:59:39.793Z</time></trkpt><trkpt lat="40.5953617" lon="8.29732"><ele>5.25</ele><time>2026-04-16T11:59:40.794Z</time></trkpt><trkpt lat="40.5953533" lon="8.2974767"><ele>5.0</ele><time>2026-04-16T11:59:41.794Z</time></trkpt><trkpt lat="40.5953317" lon="8.2976417"><ele>5.5</ele><time>2026-04-16T11:59:42.794Z</time></trkpt><trkpt lat="40.595295" lon="8.29781"><ele>6.0</ele><time>2026-04-16T11:59:43.794Z</time></trkpt><trkpt lat="40.595245" lon="8.2979833"><ele>6.5</ele><time>2026-04-16T11:59:44.794Z</time></trkpt><trkpt lat="40.59519" lon="8.2981483"><ele>7.0</ele><time>2026-04-16T11:59:45.794Z</time></trkpt><trkpt lat="40.5951233" lon="8.2983183"><ele>7.0</ele><time>2026-04-16T11:59:46.794Z</time></trkpt><trkpt lat="40.5950483" lon="8.298485"><ele>7.0</ele><time>2026-04-16T11:59:47.793Z</time></trkpt><trkpt lat="40.594965" lon="8.298645"><ele>7.0</ele><time>2026-04-16T11:59:48.793Z</time></trkpt><trkpt lat="40.594875" lon="8.298795"><ele>7.0</ele><time>2026-04-16T11:59:49.794Z</time></trkpt><trkpt lat="40.5947817" lon="8.2989433"><ele>6.333333333333334</ele><time>2026-04-16T11:59:50.794Z</time></trkpt><trkpt lat="40.5946817" lon="8.2990917"><ele>5.666666666666667</ele><time>2026-04-16T11:59:51.794Z</time></trkpt><trkpt lat="40.594585" lon="8.2992533"><ele>5.0</ele><time>2026-04-16T11:59:52.794Z</time></trkpt><trkpt lat="40.594485" lon="8.2994133"><ele>5.0</ele><time>2026-04-16T11:59:53.794Z</time></trkpt><trkpt lat="40.5943917" lon="8.2995733"><ele>5.0</ele><time>2026-04-16T11:59:54.793Z</time></trkpt><trkpt lat="40.5942917" lon="8.299735"><ele>5.0</ele><time>2026-04-16T11:59:55.794Z</time></trkpt><trkpt lat="40.5941917" lon="8.2998983"><ele>5.666666666666667</ele><time>2026-04-16T11:59:56.793Z</time></trkpt><trkpt lat="40.594095" lon="8.30006"><ele>6.333333333333334</ele><time>2026-04-16T11:59:57.794Z</time></trkpt><trkpt lat="40.593995" lon="8.300225"><ele>7.0</ele><time>2026-04-16T11:59:58.794Z</time></trkpt><trkpt lat="40.5939" lon="8.3003867"><ele>7.0</ele><time>2026-04-16T11:59:59.794Z</time></trkpt><trkpt lat="40.5938067" lon="8.3005533"><ele>7.0</ele><time>2026-04-16T12:00:00.793Z</time></trkpt><trkpt lat="40.5937167" lon="8.3007217"><ele>7.0</ele><time>2026-04-16T12:00:01.794Z</time></trkpt><trkpt lat="40.5936317" lon="8.3008967"><ele>7.0</ele><time>2026-04-16T12:00:02.794Z</time></trkpt><trkpt lat="40.5935617" lon="8.30108"><ele>7.0</ele><time>2026-04-16T12:00:03.794Z</time></trkpt><trkpt lat="40.5934983" lon="8.3012717"><ele>7.0</ele><time>2026-04-16T12:00:04.793Z</time></trkpt><trkpt lat="40.593445" lon="8.30147"><ele>7.0</ele><time>2026-04-16T12:00:05.793Z</time></trkpt><trkpt lat="40.5933883" lon="8.30167"><ele>7.0</ele><time>2026-04-16T12:00:06.793Z</time></trkpt><trkpt lat="40.5933267" lon="8.3018717"><ele>7.0</ele><time>2026-04-16T12:00:07.793Z</time></trkpt><trkpt lat="40.5932683" lon="8.3020717"><ele>7.666666666666667</ele><time>2026-04-16T12:00:08.793Z</time></trkpt><trkpt lat="40.5932" lon="8.3022783"><ele>8.333333333333334</ele><time>2026-04-16T12:00:09.793Z</time></trkpt><trkpt lat="40.5931283" lon="8.3024817"><ele>9.0</ele><time>2026-04-16T12:00:10.794Z</time></trkpt><trkpt lat="40.593055" lon="8.3026867"><ele>9.0</ele><time>2026-04-16T12:00:11.794Z</time></trkpt><trkpt lat="40.5929867" lon="8.3028867"><ele>9.0</ele><time>2026-04-16T12:00:12.793Z</time></trkpt><trkpt lat="40.5929217" lon="8.3030867"><ele>9.0</ele><time>2026-04-16T12:00:13.794Z</time></trkpt><trkpt lat="40.5928583" lon="8.3032833"><ele>7.666666666666667</ele><time>2026-04-16T12:00:14.794Z</time></trkpt><trkpt lat="40.592795" lon="8.3034783"><ele>6.333333333333334</ele><time>2026-04-16T12:00:15.793Z</time></trkpt><trkpt lat="40.5927333" lon="8.3036717"><ele>5.0</ele><time>2026-04-16T12:00:16.794Z</time></trkpt><trkpt lat="40.5926683" lon="8.303875"><ele>5.666666666666667</ele><time>2026-04-16T12:00:17.793Z</time></trkpt><trkpt lat="40.592595" lon="8.30407"><ele>6.333333333333334</ele><time>2026-04-16T12:00:18.794Z</time></trkpt><trkpt lat="40.5925133" lon="8.3042617"><ele>7.0</ele><time>2026-04-16T12:00:19.794Z</time></trkpt><trkpt lat="40.59243" lon="8.30444"><ele>7.0</ele><time>2026-04-16T12:00:20.793Z</time></trkpt><trkpt lat="40.59233" lon="8.3046217"><ele>7.0</ele><time>2026-04-16T12:00:21.793Z</time></trkpt><trkpt lat="40.5922367" lon="8.3048017"><ele>7.0</ele><time>2026-04-16T12:00:22.794Z</time></trkpt><trkpt lat="40.5921367" lon="8.3049817"><ele>6.333333333333334</ele><time>2026-04-16T12:00:23.794Z</time></trkpt><trkpt lat="40.5920383" lon="8.3051717"><ele>5.666666666666667</ele><time>2026-04-16T12:00:24.793Z</time></trkpt><trkpt lat="40.5919367" lon="8.3053533"><ele>5.0</ele><time>2026-04-16T12:00:25.794Z</time></trkpt><trkpt lat="40.5918417" lon="8.3055483"><ele>4.666666666666667</ele><time>2026-04-16T12:00:26.793Z</time></trkpt><trkpt lat="40.5917433" lon="8.3057383"><ele>4.333333333333333</ele><time>2026-04-16T12:00:27.794Z</time></trkpt><trkpt lat="40.5916433" lon="8.3059267"><ele>4.0</ele><time>2026-04-16T12:00:28.794Z</time></trkpt><trkpt lat="40.59154" lon="8.306125"><ele>4.0</ele><time>2026-04-16T12:00:29.793Z</time></trkpt><trkpt lat="40.5914367" lon="8.306315"><ele>4.0</ele><time>2026-04-16T12:00:30.793Z</time></trkpt><trkpt lat="40.5913383" lon="8.30651"><ele>4.0</ele><time>2026-04-16T12:00:31.794Z</time></trkpt><trkpt lat="40.5912367" lon="8.306705"><ele>4.0</ele><time>2026-04-16T12:00:32.793Z</time></trkpt><trkpt lat="40.5911333" lon="8.3069017"><ele>4.0</ele><time>2026-04-16T12:00:33.793Z</time></trkpt><trkpt lat="40.5910283" lon="8.3070983"><ele>4.0</ele><time>2026-04-16T12:00:34.793Z</time></trkpt><trkpt lat="40.5909233" lon="8.3073017"><ele>4.0</ele><time>2026-04-16T12:00:35.794Z</time></trkpt><trkpt lat="40.5908167" lon="8.3075033"><ele>4.0</ele><time>2026-04-16T12:00:36.794Z</time></trkpt><trkpt lat="40.590715" lon="8.3076983"><ele>4.0</ele><time>2026-04-16T12:00:37.794Z</time></trkpt><trkpt lat="40.59061" lon="8.3078933"><ele>4.0</ele><time>2026-04-16T12:00:38.793Z</time></trkpt><trkpt lat="40.5905033" lon="8.30808"><ele>4.0</ele><time>2026-04-16T12:00:39.794Z</time></trkpt><trkpt lat="40.5903883" lon="8.3082533"><ele>4.0</ele><time>2026-04-16T12:00:40.792Z</time></trkpt><trkpt lat="40.5902667" lon="8.308425"><ele>4.333333333333333</ele><time>2026-04-16T12:00:41.792Z</time></trkpt><trkpt lat="40.59015" lon="8.308595"><ele>4.666666666666667</ele><time>2026-04-16T12:00:42.792Z</time></trkpt><trkpt lat="40.59003" lon="8.3087667"><ele>5.0</ele><time>2026-04-16T12:00:43.793Z</time></trkpt><trkpt lat="40.5899083" lon="8.3089417"><ele>5.666666666666667</ele><time>2026-04-16T12:00:44.793Z</time></trkpt><trkpt lat="40.5897867" lon="8.3091117"><ele>6.333333333333334</ele><time>2026-04-16T12:00:45.793Z</time></trkpt><trkpt lat="40.5896667" lon="8.309285"><ele>7.0</ele><time>2026-04-16T12:00:46.793Z</time></trkpt><trkpt lat="40.5895483" lon="8.3094617"><ele>7.333333333333334</ele><time>2026-04-16T12:00:47.793Z</time></trkpt><trkpt lat="40.5894267" lon="8.3096367"><ele>7.666666666666666</ele><time>2026-04-16T12:00:48.792Z</time></trkpt><trkpt lat="40.589305" lon="8.3098183"><ele>8.0</ele><time>2026-04-16T12:00:49.793Z</time></trkpt><trkpt lat="40.58918" lon="8.3099967"><ele>8.0</ele><time>2026-04-16T12:00:50.792Z</time></trkpt><trkpt lat="40.589055" lon="8.3101683"><ele>8.0</ele><time>2026-04-16T12:00:51.793Z</time></trkpt><trkpt lat="40.58893" lon="8.310345"><ele>8.0</ele><time>2026-04-16T12:00:52.792Z</time></trkpt><trkpt lat="40.5888117" lon="8.3105283"><ele>6.666666666666666</ele><time>2026-04-16T12:00:53.793Z</time></trkpt><trkpt lat="40.588685" lon="8.3107133"><ele>5.333333333333333</ele><time>2026-04-16T12:00:54.793Z</time></trkpt><trkpt lat="40.588565" lon="8.3109017"><ele>4.0</ele><time>2026-04-16T12:00:55.792Z</time></trkpt><trkpt lat="40.5884367" lon="8.3110817"><ele>4.0</ele><time>2026-04-16T12:00:56.793Z</time></trkpt><trkpt lat="40.58832" lon="8.3112583"><ele>4.0</ele><time>2026-04-16T12:00:57.792Z</time></trkpt><trkpt lat="40.5882033" lon="8.311425"><ele>4.0</ele><time>2026-04-16T12:00:58.793Z</time></trkpt><trkpt lat="40.5880917" lon="8.311585"><ele>4.333333333333333</ele><time>2026-04-16T12:00:59.793Z</time></trkpt><trkpt lat="40.587975" lon="8.3117583"><ele>4.666666666666667</ele><time>2026-04-16T12:01:00.792Z</time></trkpt><trkpt lat="40.5878567" lon="8.3119317"><ele>5.0</ele><time>2026-04-16T12:01:01.792Z</time></trkpt><trkpt lat="40.5877317" lon="8.3121067"><ele>5.333333333333334</ele><time>2026-04-16T12:01:02.793Z</time></trkpt><trkpt lat="40.5876083" lon="8.3122817"><ele>5.666666666666667</ele><time>2026-04-16T12:01:03.793Z</time></trkpt><trkpt lat="40.5874833" lon="8.3124567"><ele>6.0</ele><time>2026-04-16T12:01:04.793Z</time></trkpt><trkpt lat="40.5873567" lon="8.3126333"><ele>6.0</ele><time>2026-04-16T12:01:05.792Z</time></trkpt><trkpt lat="40.5872317" lon="8.3128083"><ele>6.0</ele><time>2026-04-16T12:01:06.792Z</time></trkpt><trkpt lat="40.5871083" lon="8.3129817"><ele>6.0</ele><time>2026-04-16T12:01:07.793Z</time></trkpt><trkpt lat="40.5869817" lon="8.3131517"><ele>7.666666666666666</ele><time>2026-04-16T12:01:08.793Z</time></trkpt><trkpt lat="40.58686" lon="8.3133283"><ele>9.333333333333332</ele><time>2026-04-16T12:01:09.792Z</time></trkpt><trkpt lat="40.5867383" lon="8.3135067"><ele>11.0</ele><time>2026-04-16T12:01:10.793Z</time></trkpt><trkpt lat="40.5866167" lon="8.3136833"><ele>11.0</ele><time>2026-04-16T12:01:11.792Z</time></trkpt><trkpt lat="40.5864883" lon="8.3138567"><ele>11.0</ele><time>2026-04-16T12:01:12.793Z</time></trkpt><trkpt lat="40.5863667" lon="8.31403"><ele>11.0</ele><time>2026-04-16T12:01:13.793Z</time></trkpt><trkpt lat="40.5862483" lon="8.314205"><ele>11.666666666666666</ele><time>2026-04-16T12:01:14.792Z</time></trkpt><trkpt lat="40.5861267" lon="8.3143817"><ele>12.333333333333332</ele><time>2026-04-16T12:01:15.792Z</time></trkpt><trkpt lat="40.586005" lon="8.31455"><ele>13.0</ele><time>2026-04-16T12:01:16.793Z</time></trkpt><trkpt lat="40.5858733" lon="8.3147233"><ele>12.333333333333332</ele><time>2026-04-16T12:01:17.792Z</time></trkpt><trkpt lat="40.5857433" lon="8.3148867"><ele>11.666666666666666</ele><time>2026-04-16T12:01:18.792Z</time></trkpt><trkpt lat="40.585605" lon="8.3150367"><ele>11.0</ele><time>2026-04-16T12:01:19.792Z</time></trkpt><trkpt lat="40.5854617" lon="8.3151783"><ele>11.333333333333332</ele><time>2026-04-16T12:01:20.793Z</time></trkpt><trkpt lat="40.5853267" lon="8.3153167"><ele>11.666666666666666</ele><time>2026-04-16T12:01:21.793Z</time></trkpt><trkpt lat="40.5852017" lon="8.3154583"><ele>12.0</ele><time>2026-04-16T12:01:22.792Z</time></trkpt><trkpt lat="40.5850783" lon="8.3155917"><ele>12.5</ele><time>2026-04-16T12:01:23.792Z</time></trkpt><trkpt lat="40.584965" lon="8.315715"><ele>13.0</ele><time>2026-04-16T12:01:24.793Z</time></trkpt><trkpt lat="40.5848567" lon="8.3158283"><ele>13.5</ele><time>2026-04-16T12:01:25.792Z</time></trkpt><trkpt lat="40.5847533" lon="8.3159367"><ele>14.0</ele><time>2026-04-16T12:01:26.793Z</time></trkpt><trkpt lat="40.5846517" lon="8.3160433"><ele>14.0</ele><time>2026-04-16T12:01:27.793Z</time></trkpt><trkpt lat="40.584555" lon="8.3161533"><ele>14.0</ele><time>2026-04-16T12:01:28.792Z</time></trkpt><trkpt lat="40.5844617" lon="8.3162617"><ele>14.0</ele><time>2026-04-16T12:01:29.793Z</time></trkpt><trkpt lat="40.5843767" lon="8.3163617"><ele>14.0</ele><time>2026-04-16T12:01:30.793Z</time></trkpt><trkpt lat="40.5843067" lon="8.31646"><ele>14.0</ele><time>2026-04-16T12:01:31.793Z</time></trkpt><trkpt lat="40.58424" lon="8.3165467"><ele>13.999999999999998</ele><time>2026-04-16T12:01:32.793Z</time></trkpt><trkpt lat="40.5841817" lon="8.31661"><ele>13.999999999999998</ele><time>2026-04-16T12:01:33.793Z</time></trkpt><trkpt lat="40.5840967" lon="8.3166917"><ele>14.0</ele><time>2026-04-16T12:01:35.792Z</time></trkpt><trkpt lat="40.5840067" lon="8.3167367"><ele>14.0</ele><time>2026-04-16T12:01:41.793Z</time></trkpt><trkpt lat="40.58391" lon="8.3167167"><ele>14.000000000000002</ele><time>2026-04-16T12:01:43.793Z</time></trkpt><trkpt lat="40.583785" lon="8.3167317"><ele>14.0</ele><time>2026-04-16T12:01:45.792Z</time></trkpt><trkpt lat="40.583725" lon="8.3167767"><ele>14.0</ele><time>2026-04-16T12:01:46.793Z</time></trkpt><trkpt lat="40.5836883" lon="8.3168467"><ele>14.0</ele><time>2026-04-16T12:01:47.792Z</time></trkpt><trkpt lat="40.5836467" lon="8.3169333"><ele>14.000000000000002</ele><time>2026-04-16T12:01:48.792Z</time></trkpt><trkpt lat="40.5836167" lon="8.3170467"><ele>14.0</ele><time>2026-04-16T12:01:49.792Z</time></trkpt><trkpt lat="40.5835933" lon="8.317165"><ele>13.833333333333334</ele><time>2026-04-16T12:01:50.792Z</time></trkpt><trkpt lat="40.5835683" lon="8.31725"><ele>13.666666666666668</ele><time>2026-04-16T12:01:51.793Z</time></trkpt><trkpt lat="40.5835133" lon="8.3173233"><ele>13.5</ele><time>2026-04-16T12:01:53.793Z</time></trkpt><trkpt lat="40.58344" lon="8.31739"><ele>13.333333333333332</ele><time>2026-04-16T12:01:55.793Z</time></trkpt><trkpt lat="40.5833467" lon="8.3174817"><ele>13.166666666666666</ele><time>2026-04-16T12:01:57.793Z</time></trkpt><trkpt lat="40.583285" lon="8.3175433"><ele>13.0</ele><time>2026-04-16T12:01:58.793Z</time></trkpt><trkpt lat="40.5832067" lon="8.3176083"><ele>13.0</ele><time>2026-04-16T12:01:59.793Z</time></trkpt><trkpt lat="40.5831117" lon="8.317665"><ele>13.0</ele><time>2026-04-16T12:02:00.793Z</time></trkpt><trkpt lat="40.583005" lon="8.3177167"><ele>13.0</ele><time>2026-04-16T12:02:01.793Z</time></trkpt><trkpt lat="40.5828983" lon="8.3177633"><ele>13.0</ele><time>2026-04-16T12:02:02.792Z</time></trkpt><trkpt lat="40.5827833" lon="8.3178033"><ele>13.0</ele><time>2026-04-16T12:02:03.793Z</time></trkpt><trkpt lat="40.5826633" lon="8.31785"><ele>12.75</ele><time>2026-04-16T12:02:04.792Z</time></trkpt><trkpt lat="40.5825417" lon="8.3178867"><ele>12.5</ele><time>2026-04-16T12:02:05.792Z</time></trkpt><trkpt lat="40.5824167" lon="8.31792"><ele>12.25</ele><time>2026-04-16T12:02:06.793Z</time></trkpt><trkpt lat="40.582295" lon="8.3179617"><ele>12.0</ele><time>2026-04-16T12:02:07.792Z</time></trkpt><trkpt lat="40.58217" lon="8.318005"><ele>12.0</ele><time>2026-04-16T12:02:08.792Z</time></trkpt><trkpt lat="40.5820583" lon="8.3180333"><ele>12.0</ele><time>2026-04-16T12:02:09.793Z</time></trkpt><trkpt lat="40.5819567" lon="8.3180633"><ele>12.0</ele><time>2026-04-16T12:02:10.792Z</time></trkpt><trkpt lat="40.581865" lon="8.3180883"><ele>12.0</ele><time>2026-04-16T12:02:11.793Z</time></trkpt><trkpt lat="40.581785" lon="8.3181167"><ele>12.0</ele><time>2026-04-16T12:02:12.793Z</time></trkpt><trkpt lat="40.5817083" lon="8.3181467"><ele>12.0</ele><time>2026-04-16T12:02:13.792Z</time></trkpt><trkpt lat="40.5816333" lon="8.3181867"><ele>12.0</ele><time>2026-04-16T12:02:14.793Z</time></trkpt><trkpt lat="40.581545" lon="8.3182217"><ele>12.0</ele><time>2026-04-16T12:02:15.792Z</time></trkpt><trkpt lat="40.5814483" lon="8.3182567"><ele>12.0</ele><time>2026-04-16T12:02:16.792Z</time></trkpt><trkpt lat="40.5813433" lon="8.3182917"><ele>12.0</ele><time>2026-04-16T12:02:17.792Z</time></trkpt><trkpt lat="40.5812233" lon="8.3183283"><ele>12.0</ele><time>2026-04-16T12:02:18.792Z</time></trkpt><trkpt lat="40.5810983" lon="8.3183583"><ele>12.0</ele><time>2026-04-16T12:02:19.793Z</time></trkpt><trkpt lat="40.5809683" lon="8.3183933"><ele>12.0</ele><time>2026-04-16T12:02:20.793Z</time></trkpt><trkpt lat="40.5808233" lon="8.3184333"><ele>12.0</ele><time>2026-04-16T12:02:21.793Z</time></trkpt><trkpt lat="40.5806767" lon="8.3184833"><ele>12.0</ele><time>2026-04-16T12:02:22.793Z</time></trkpt><trkpt lat="40.5805217" lon="8.3185283"><ele>12.0</ele><time>2026-04-16T12:02:23.793Z</time></trkpt><trkpt lat="40.5803667" lon="8.318575"><ele>12.0</ele><time>2026-04-16T12:02:24.793Z</time></trkpt><trkpt lat="40.580215" lon="8.3186217"><ele>11.0</ele><time>2026-04-16T12:02:25.793Z</time></trkpt><trkpt lat="40.5800617" lon="8.3186733"><ele>10.0</ele><time>2026-04-16T12:02:26.793Z</time></trkpt><trkpt lat="40.5799117" lon="8.3187233"><ele>9.0</ele><time>2026-04-16T12:02:27.792Z</time></trkpt><trkpt lat="40.57977" lon="8.318775"><ele>9.0</ele><time>2026-04-16T12:02:28.792Z</time></trkpt><trkpt lat="40.5796483" lon="8.3188083"><ele>9.0</ele><time>2026-04-16T12:02:29.793Z</time></trkpt><trkpt lat="40.57954" lon="8.3188467"><ele>9.0</ele><time>2026-04-16T12:02:30.792Z</time></trkpt><trkpt lat="40.579445" lon="8.318875"><ele>9.0</ele><time>2026-04-16T12:02:31.793Z</time></trkpt><trkpt lat="40.5793667" lon="8.3189033"><ele>9.0</ele><time>2026-04-16T12:02:32.793Z</time></trkpt><trkpt lat="40.579295" lon="8.3189267"><ele>9.5</ele><time>2026-04-16T12:02:33.793Z</time></trkpt><trkpt lat="40.5791833" lon="8.3189633"><ele>10.0</ele><time>2026-04-16T12:02:35.792Z</time></trkpt><trkpt lat="40.5791183" lon="8.31899"><ele>10.5</ele><time>2026-04-16T12:02:36.793Z</time></trkpt><trkpt lat="40.579045" lon="8.3190133"><ele>11.0</ele><time>2026-04-16T12:02:37.792Z</time></trkpt><trkpt lat="40.5789667" lon="8.31903"><ele>11.5</ele><time>2026-04-16T12:02:38.793Z</time></trkpt><trkpt lat="40.5788833" lon="8.3190517"><ele>12.0</ele><time>2026-04-16T12:02:39.792Z</time></trkpt><trkpt lat="40.5788033" lon="8.3190783"><ele>12.0</ele><time>2026-04-16T12:02:40.792Z</time></trkpt><trkpt lat="40.5787233" lon="8.3191067"><ele>12.0</ele><time>2026-04-16T12:02:41.792Z</time></trkpt><trkpt lat="40.5786417" lon="8.3191367"><ele>12.0</ele><time>2026-04-16T12:02:42.793Z</time></trkpt><trkpt lat="40.57856" lon="8.319165"><ele>12.0</ele><time>2026-04-16T12:02:43.793Z</time></trkpt><trkpt lat="40.5784733" lon="8.3191933"><ele>12.0</ele><time>2026-04-16T12:02:44.793Z</time></trkpt><trkpt lat="40.5783717" lon="8.3192217"><ele>12.0</ele><time>2026-04-16T12:02:45.793Z</time></trkpt><trkpt lat="40.57826" lon="8.3192533"><ele>11.25</ele><time>2026-04-16T12:02:46.792Z</time></trkpt><trkpt lat="40.5781433" lon="8.319295"><ele>10.5</ele><time>2026-04-16T12:02:47.793Z</time></trkpt><trkpt lat="40.5780283" lon="8.31933"><ele>9.75</ele><time>2026-04-16T12:02:48.793Z</time></trkpt><trkpt lat="40.5779083" lon="8.319375"><ele>9.0</ele><time>2026-04-16T12:02:49.793Z</time></trkpt><trkpt lat="40.5777867" lon="8.3194267"><ele>8.25</ele><time>2026-04-16T12:02:50.792Z</time></trkpt><trkpt lat="40.577655" lon="8.3194783"><ele>7.5</ele><time>2026-04-16T12:02:51.793Z</time></trkpt><trkpt lat="40.5775317" lon="8.3195367"><ele>6.75</ele><time>2026-04-16T12:02:52.792Z</time></trkpt><trkpt lat="40.5774083" lon="8.3196067"><ele>6.0</ele><time>2026-04-16T12:02:53.793Z</time></trkpt><trkpt lat="40.5772933" lon="8.3196833"><ele>6.75</ele><time>2026-04-16T12:02:54.792Z</time></trkpt><trkpt lat="40.577185" lon="8.319765"><ele>7.5</ele><time>2026-04-16T12:02:55.792Z</time></trkpt><trkpt lat="40.5770917" lon="8.3198383"><ele>8.25</ele><time>2026-04-16T12:02:56.793Z</time></trkpt><trkpt lat="40.5769967" lon="8.3199067"><ele>9.0</ele><time>2026-04-16T12:02:57.793Z</time></trkpt><trkpt lat="40.5768983" lon="8.3199683"><ele>9.0</ele><time>2026-04-16T12:02:58.792Z</time></trkpt><trkpt lat="40.5768067" lon="8.3200283"><ele>9.0</ele><time>2026-04-16T12:02:59.793Z</time></trkpt><trkpt lat="40.5767183" lon="8.32009"><ele>9.0</ele><time>2026-04-16T12:03:00.792Z</time></trkpt><trkpt lat="40.5766317" lon="8.320155"><ele>9.0</ele><time>2026-04-16T12:03:01.793Z</time></trkpt><trkpt lat="40.5765433" lon="8.3202133"><ele>9.0</ele><time>2026-04-16T12:03:02.792Z</time></trkpt><trkpt lat="40.57646" lon="8.3202717"><ele>9.0</ele><time>2026-04-16T12:03:03.792Z</time></trkpt><trkpt lat="40.5763833" lon="8.3203283"><ele>9.0</ele><time>2026-04-16T12:03:04.793Z</time></trkpt><trkpt lat="40.5763117" lon="8.3203817"><ele>9.0</ele><time>2026-04-16T12:03:05.792Z</time></trkpt><trkpt lat="40.576245" lon="8.3204367"><ele>9.0</ele><time>2026-04-16T12:03:06.792Z</time></trkpt><trkpt lat="40.57617" lon="8.3204867"><ele>9.0</ele><time>2026-04-16T12:03:07.792Z</time></trkpt><trkpt lat="40.57609" lon="8.320545"><ele>9.0</ele><time>2026-04-16T12:03:08.793Z</time></trkpt><trkpt lat="40.5760183" lon="8.320605"><ele>9.0</ele><time>2026-04-16T12:03:09.793Z</time></trkpt><trkpt lat="40.57595" lon="8.3206583"><ele>9.0</ele><time>2026-04-16T12:03:10.793Z</time></trkpt><trkpt lat="40.575885" lon="8.3207067"><ele>9.0</ele><time>2026-04-16T12:03:11.793Z</time></trkpt><trkpt lat="40.5758217" lon="8.3207417"><ele>9.0</ele><time>2026-04-16T12:03:12.792Z</time></trkpt><trkpt lat="40.5757167" lon="8.32082"><ele>9.0</ele><time>2026-04-16T12:03:14.793Z</time></trkpt><trkpt lat="40.575615" lon="8.3208933"><ele>9.0</ele><time>2026-04-16T12:03:16.793Z</time></trkpt><trkpt lat="40.5755017" lon="8.3209767"><ele>9.0</ele><time>2026-04-16T12:03:18.793Z</time></trkpt><trkpt lat="40.57544" lon="8.3210167"><ele>9.0</ele><time>2026-04-16T12:03:19.793Z</time></trkpt><trkpt lat="40.575345" lon="8.32109"><ele>9.0</ele><time>2026-04-16T12:03:21.793Z</time></trkpt><trkpt lat="40.575245" lon="8.3211617"><ele>9.0</ele><time>2026-04-16T12:03:23.792Z</time></trkpt><trkpt lat="40.5751517" lon="8.3212417"><ele>9.0</ele><time>2026-04-16T12:03:25.793Z</time></trkpt><trkpt lat="40.5750483" lon="8.3213117"><ele>9.0</ele><time>2026-04-16T12:03:27.792Z</time></trkpt><trkpt lat="40.5749867" lon="8.321355"><ele>9.0</ele><time>2026-04-16T12:03:28.792Z</time></trkpt><trkpt lat="40.57493" lon="8.321395"><ele>9.0</ele><time>2026-04-16T12:03:29.792Z</time></trkpt><trkpt lat="40.5748633" lon="8.3214417"><ele>9.0</ele><time>2026-04-16T12:03:30.792Z</time></trkpt><trkpt lat="40.5747867" lon="8.3215017"><ele>9.0</ele><time>2026-04-16T12:03:31.792Z</time></trkpt><trkpt lat="40.5747083" lon="8.32156"><ele>8.833333333333334</ele><time>2026-04-16T12:03:32.792Z</time></trkpt><trkpt lat="40.574625" lon="8.3216067"><ele>8.666666666666666</ele><time>2026-04-16T12:03:33.791Z</time></trkpt><trkpt lat="40.5745467" lon="8.321655"><ele>8.5</ele><time>2026-04-16T12:03:34.792Z</time></trkpt><trkpt lat="40.5744717" lon="8.321705"><ele>8.333333333333332</ele><time>2026-04-16T12:03:35.791Z</time></trkpt><trkpt lat="40.5744" lon="8.3217583"><ele>8.166666666666666</ele><time>2026-04-16T12:03:36.791Z</time></trkpt><trkpt lat="40.574315" lon="8.32182"><ele>8.0</ele><time>2026-04-16T12:03:37.792Z</time></trkpt><trkpt lat="40.5742317" lon="8.32188"><ele>8.4</ele><time>2026-04-16T12:03:38.792Z</time></trkpt><trkpt lat="40.5741383" lon="8.3219417"><ele>8.8</ele><time>2026-04-16T12:03:39.791Z</time></trkpt><trkpt lat="40.574035" lon="8.3219917"><ele>9.2</ele><time>2026-04-16T12:03:40.791Z</time></trkpt><trkpt lat="40.5739367" lon="8.3220333"><ele>9.6</ele><time>2026-04-16T12:03:41.791Z</time></trkpt><trkpt lat="40.5738467" lon="8.3220533"><ele>10.0</ele><time>2026-04-16T12:03:42.791Z</time></trkpt><trkpt lat="40.5737517" lon="8.3220633"><ele>9.8</ele><time>2026-04-16T12:03:43.792Z</time></trkpt><trkpt lat="40.5736567" lon="8.3220867"><ele>9.6</ele><time>2026-04-16T12:03:44.792Z</time></trkpt><trkpt lat="40.5735683" lon="8.3220983"><ele>9.4</ele><time>2026-04-16T12:03:45.792Z</time></trkpt><trkpt lat="40.5734867" lon="8.3221"><ele>9.2</ele><time>2026-04-16T12:03:46.792Z</time></trkpt><trkpt lat="40.5734183" lon="8.322105"><ele>9.0</ele><time>2026-04-16T12:03:47.792Z</time></trkpt><trkpt lat="40.573295" lon="8.322115"><ele>9.0</ele><time>2026-04-16T12:03:49.791Z</time></trkpt><trkpt lat="40.573225" lon="8.3221217"><ele>9.0</ele><time>2026-04-16T12:03:50.792Z</time></trkpt><trkpt lat="40.57316" lon="8.3221383"><ele>9.0</ele><time>2026-04-16T12:03:51.792Z</time></trkpt><trkpt lat="40.5730983" lon="8.322155"><ele>9.0</ele><time>2026-04-16T12:03:52.791Z</time></trkpt><trkpt lat="40.5729933" lon="8.3221983"><ele>9.0</ele><time>2026-04-16T12:03:54.791Z</time></trkpt><trkpt lat="40.5728783" lon="8.3222483"><ele>9.0</ele><time>2026-04-16T12:03:56.791Z</time></trkpt><trkpt lat="40.5727983" lon="8.3223667"><ele>9.2</ele><time>2026-04-16T12:03:58.791Z</time></trkpt><trkpt lat="40.5727917" lon="8.3225383"><ele>9.4</ele><time>2026-04-16T12:04:00.792Z</time></trkpt><trkpt lat="40.5727867" lon="8.3226383"><ele>9.6</ele><time>2026-04-16T12:04:01.791Z</time></trkpt><trkpt lat="40.5727683" lon="8.322745"><ele>9.8</ele><time>2026-04-16T12:04:02.792Z</time></trkpt><trkpt lat="40.57272" lon="8.3228367"><ele>10.0</ele><time>2026-04-16T12:04:03.791Z</time></trkpt><trkpt lat="40.5726617" lon="8.3229067"><ele>10.0</ele><time>2026-04-16T12:04:04.791Z</time></trkpt><trkpt lat="40.5726117" lon="8.322965"><ele>10.0</ele><time>2026-04-16T12:04:05.791Z</time></trkpt><trkpt lat="40.57252" lon="8.32307"><ele>10.0</ele><time>2026-04-16T12:04:07.791Z</time></trkpt><trkpt lat="40.5724617" lon="8.3231267"><ele>10.0</ele><time>2026-04-16T12:04:08.792Z</time></trkpt><trkpt lat="40.5724" lon="8.3231883"><ele>10.0</ele><time>2026-04-16T12:04:09.792Z</time></trkpt><trkpt lat="40.5723383" lon="8.3232517"><ele>10.0</ele><time>2026-04-16T12:04:10.792Z</time></trkpt><trkpt lat="40.57228" lon="8.3233083"><ele>10.0</ele><time>2026-04-16T12:04:11.792Z</time></trkpt><trkpt lat="40.57223" lon="8.32336"><ele>10.0</ele><time>2026-04-16T12:04:12.792Z</time></trkpt><trkpt lat="40.5721417" lon="8.32346"><ele>10.0</ele><time>2026-04-16T12:04:14.791Z</time></trkpt><trkpt lat="40.5720517" lon="8.32355"><ele>10.0</ele><time>2026-04-16T12:04:16.791Z</time></trkpt><trkpt lat="40.5719567" lon="8.323645"><ele>10.0</ele><time>2026-04-16T12:04:18.792Z</time></trkpt><trkpt lat="40.5718983" lon="8.3236917"><ele>10.0</ele><time>2026-04-16T12:04:19.791Z</time></trkpt><trkpt lat="40.571845" lon="8.32375"><ele>10.0</ele><time>2026-04-16T12:04:20.792Z</time></trkpt><trkpt lat="40.571795" lon="8.3238067"><ele>10.0</ele><time>2026-04-16T12:04:21.792Z</time></trkpt><trkpt lat="40.571745" lon="8.323865"><ele>10.0</ele><time>2026-04-16T12:04:22.792Z</time></trkpt><trkpt lat="40.5716983" lon="8.323925"><ele>10.0</ele><time>2026-04-16T12:04:23.792Z</time></trkpt><trkpt lat="40.5716483" lon="8.3239783"><ele>10.0</ele><time>2026-04-16T12:04:24.792Z</time></trkpt><trkpt lat="40.571555" lon="8.32406"><ele>10.0</ele><time>2026-04-16T12:04:26.791Z</time></trkpt><trkpt lat="40.57145" lon="8.324155"><ele>10.166666666666668</ele><time>2026-04-16T12:04:28.791Z</time></trkpt><trkpt lat="40.5713483" lon="8.3242633"><ele>10.333333333333334</ele><time>2026-04-16T12:04:30.791Z</time></trkpt><trkpt lat="40.5712933" lon="8.3243267"><ele>10.5</ele><time>2026-04-16T12:04:31.792Z</time></trkpt><trkpt lat="40.5712317" lon="8.324375"><ele>10.666666666666666</ele><time>2026-04-16T12:04:32.792Z</time></trkpt><trkpt lat="40.57118" lon="8.3244317"><ele>10.833333333333332</ele><time>2026-04-16T12:04:33.792Z</time></trkpt><trkpt lat="40.5711283" lon="8.3244917"><ele>11.0</ele><time>2026-04-16T12:04:34.791Z</time></trkpt><trkpt lat="40.571075" lon="8.3245483"><ele>11.0</ele><time>2026-04-16T12:04:35.792Z</time></trkpt><trkpt lat="40.57102" lon="8.3246117"><ele>11.0</ele><time>2026-04-16T12:04:36.792Z</time></trkpt><trkpt lat="40.5709583" lon="8.3246767"><ele>11.0</ele><time>2026-04-16T12:04:37.792Z</time></trkpt><trkpt lat="40.57089" lon="8.3247433"><ele>11.0</ele><time>2026-04-16T12:04:38.791Z</time></trkpt><trkpt lat="40.5708233" lon="8.32481"><ele>11.0</ele><time>2026-04-16T12:04:39.792Z</time></trkpt><trkpt lat="40.5707533" lon="8.3248767"><ele>11.0</ele><time>2026-04-16T12:04:40.792Z</time></trkpt><trkpt lat="40.5706883" lon="8.3249417"><ele>11.333333333333332</ele><time>2026-04-16T12:04:41.792Z</time></trkpt><trkpt lat="40.57063" lon="8.3249983"><ele>11.666666666666666</ele><time>2026-04-16T12:04:42.791Z</time></trkpt><trkpt lat="40.5705733" lon="8.3250517"><ele>12.0</ele><time>2026-04-16T12:04:43.791Z</time></trkpt><trkpt lat="40.5704983" lon="8.3251433"><ele>12.333333333333332</ele><time>2026-04-16T12:04:45.792Z</time></trkpt><trkpt lat="40.57043" lon="8.3252033"><ele>12.666666666666666</ele><time>2026-04-16T12:04:48.791Z</time></trkpt><trkpt lat="40.570395" lon="8.3252917"><ele>13.0</ele><time>2026-04-16T12:04:50.792Z</time></trkpt><trkpt lat="40.5704167" lon="8.3254483"><ele>13.0</ele><time>2026-04-16T12:04:52.792Z</time></trkpt><trkpt lat="40.5704283" lon="8.325545"><ele>13.0</ele><time>2026-04-16T12:04:53.792Z</time></trkpt><trkpt lat="40.57042" lon="8.3256533"><ele>13.0</ele><time>2026-04-16T12:04:54.791Z</time></trkpt><trkpt lat="40.57039" lon="8.3257633"><ele>13.0</ele><time>2026-04-16T12:04:55.791Z</time></trkpt><trkpt lat="40.57035" lon="8.3258833"><ele>13.0</ele><time>2026-04-16T12:04:56.792Z</time></trkpt><trkpt lat="40.57031" lon="8.3260133"><ele>13.0</ele><time>2026-04-16T12:04:57.792Z</time></trkpt><trkpt lat="40.5702717" lon="8.32615"><ele>13.0</ele><time>2026-04-16T12:04:58.792Z</time></trkpt><trkpt lat="40.570235" lon="8.3262883"><ele>13.0</ele><time>2026-04-16T12:04:59.791Z</time></trkpt><trkpt lat="40.57019" lon="8.32644"><ele>13.0</ele><time>2026-04-16T12:05:00.792Z</time></trkpt><trkpt lat="40.5701433" lon="8.3265883"><ele>13.0</ele><time>2026-04-16T12:05:01.792Z</time></trkpt><trkpt lat="40.5700967" lon="8.3267417"><ele>13.0</ele><time>2026-04-16T12:05:02.792Z</time></trkpt><trkpt lat="40.5700483" lon="8.3269"><ele>13.0</ele><time>2026-04-16T12:05:03.792Z</time></trkpt><trkpt lat="40.5699967" lon="8.32706"><ele>13.0</ele><time>2026-04-16T12:05:04.792Z</time></trkpt><trkpt lat="40.5699483" lon="8.32722"><ele>13.5</ele><time>2026-04-16T12:05:05.791Z</time></trkpt><trkpt lat="40.5699017" lon="8.3273783"><ele>14.0</ele><time>2026-04-16T12:05:06.791Z</time></trkpt><trkpt lat="40.5698517" lon="8.3275433"><ele>14.5</ele><time>2026-04-16T12:05:07.792Z</time></trkpt><trkpt lat="40.5697983" lon="8.3277067"><ele>15.0</ele><time>2026-04-16T12:05:08.792Z</time></trkpt><trkpt lat="40.569755" lon="8.3278717"><ele>15.0</ele><time>2026-04-16T12:05:09.791Z</time></trkpt><trkpt lat="40.569705" lon="8.3280333"><ele>15.0</ele><time>2026-04-16T12:05:10.792Z</time></trkpt><trkpt lat="40.569645" lon="8.3281817"><ele>15.0</ele><time>2026-04-16T12:05:11.791Z</time></trkpt><trkpt lat="40.5695683" lon="8.3283083"><ele>15.0</ele><time>2026-04-16T12:05:12.792Z</time></trkpt><trkpt lat="40.5694733" lon="8.3284167"><ele>14.5</ele><time>2026-04-16T12:05:13.792Z</time></trkpt><trkpt lat="40.5693667" lon="8.32851"><ele>14.0</ele><time>2026-04-16T12:05:14.792Z</time></trkpt><trkpt lat="40.5692483" lon="8.3285933"><ele>13.5</ele><time>2026-04-16T12:05:15.792Z</time></trkpt><trkpt lat="40.5691233" lon="8.32868"><ele>13.0</ele><time>2026-04-16T12:05:16.792Z</time></trkpt><trkpt lat="40.5689933" lon="8.3287683"><ele>13.0</ele><time>2026-04-16T12:05:17.791Z</time></trkpt><trkpt lat="40.5688633" lon="8.3288617"><ele>13.0</ele><time>2026-04-16T12:05:18.792Z</time></trkpt><trkpt lat="40.5687333" lon="8.3289483"><ele>13.0</ele><time>2026-04-16T12:05:19.791Z</time></trkpt><trkpt lat="40.568605" lon="8.329035"><ele>13.0</ele><time>2026-04-16T12:05:20.791Z</time></trkpt><trkpt lat="40.5684783" lon="8.3291183"><ele>13.5</ele><time>2026-04-16T12:05:21.791Z</time></trkpt><trkpt lat="40.5683583" lon="8.329195"><ele>14.0</ele><time>2026-04-16T12:05:22.791Z</time></trkpt><trkpt lat="40.5682517" lon="8.3292633"><ele>14.5</ele><time>2026-04-16T12:05:23.791Z</time></trkpt><trkpt lat="40.5681583" lon="8.32933"><ele>15.0</ele><time>2026-04-16T12:05:24.792Z</time></trkpt><trkpt lat="40.5680683" lon="8.3293917"><ele>15.0</ele><time>2026-04-16T12:05:25.792Z</time></trkpt><trkpt lat="40.56798" lon="8.3294467"><ele>15.0</ele><time>2026-04-16T12:05:26.792Z</time></trkpt><trkpt lat="40.5678917" lon="8.329505"><ele>15.0</ele><time>2026-04-16T12:05:27.792Z</time></trkpt><trkpt lat="40.5678017" lon="8.3295683"><ele>15.0</ele><time>2026-04-16T12:05:28.791Z</time></trkpt><trkpt lat="40.5677067" lon="8.329635"><ele>15.0</ele><time>2026-04-16T12:05:29.791Z</time></trkpt><trkpt lat="40.56761" lon="8.32971"><ele>15.25</ele><time>2026-04-16T12:05:30.792Z</time></trkpt><trkpt lat="40.5675083" lon="8.32978"><ele>15.5</ele><time>2026-04-16T12:05:31.791Z</time></trkpt><trkpt lat="40.567405" lon="8.32985"><ele>15.75</ele><time>2026-04-16T12:05:32.792Z</time></trkpt><trkpt lat="40.5673033" lon="8.3299117"><ele>16.0</ele><time>2026-04-16T12:05:33.791Z</time></trkpt><trkpt lat="40.567205" lon="8.3299767"><ele>16.0</ele><time>2026-04-16T12:05:34.792Z</time></trkpt><trkpt lat="40.567105" lon="8.3300483"><ele>16.0</ele><time>2026-04-16T12:05:35.791Z</time></trkpt><trkpt lat="40.5670017" lon="8.3301167"><ele>16.0</ele><time>2026-04-16T12:05:36.792Z</time></trkpt><trkpt lat="40.566905" lon="8.330185"><ele>16.0</ele><time>2026-04-16T12:05:37.792Z</time></trkpt><trkpt lat="40.5668117" lon="8.3302433"><ele>16.0</ele><time>2026-04-16T12:05:38.792Z</time></trkpt><trkpt lat="40.566725" lon="8.3303"><ele>16.400000000000002</ele><time>2026-04-16T12:05:39.792Z</time></trkpt><trkpt lat="40.566645" lon="8.3303533"><ele>16.8</ele><time>2026-04-16T12:05:40.792Z</time></trkpt><trkpt lat="40.5665633" lon="8.3304017"><ele>17.200000000000003</ele><time>2026-04-16T12:05:41.791Z</time></trkpt><trkpt lat="40.566485" lon="8.3304583"><ele>17.6</ele><time>2026-04-16T12:05:42.792Z</time></trkpt><trkpt lat="40.5664033" lon="8.3305067"><ele>18.0</ele><time>2026-04-16T12:05:43.791Z</time></trkpt><trkpt lat="40.56632" lon="8.3305633"><ele>18.0</ele><time>2026-04-16T12:05:44.792Z</time></trkpt><trkpt lat="40.5662417" lon="8.3306183"><ele>18.0</ele><time>2026-04-16T12:05:45.791Z</time></trkpt><trkpt lat="40.5661767" lon="8.3306583"><ele>18.0</ele><time>2026-04-16T12:05:46.792Z</time></trkpt><trkpt lat="40.5661167" lon="8.330695"><ele>18.0</ele><time>2026-04-16T12:05:47.791Z</time></trkpt><trkpt lat="40.5660567" lon="8.3307217"><ele>18.0</ele><time>2026-04-16T12:05:48.792Z</time></trkpt><trkpt lat="40.56593" lon="8.3307183"><ele>18.0</ele><time>2026-04-16T12:05:50.792Z</time></trkpt><trkpt lat="40.5658567" lon="8.330705"><ele>18.28571428571429</ele><time>2026-04-16T12:05:51.792Z</time></trkpt><trkpt lat="40.5657867" lon="8.3306967"><ele>18.571428571428573</ele><time>2026-04-16T12:05:52.792Z</time></trkpt><trkpt lat="40.5657167" lon="8.33071"><ele>18.857142857142858</ele><time>2026-04-16T12:05:53.791Z</time></trkpt><trkpt lat="40.5656583" lon="8.3307467"><ele>19.142857142857146</ele><time>2026-04-16T12:05:54.792Z</time></trkpt><trkpt lat="40.5656017" lon="8.3308117"><ele>19.42857142857143</ele><time>2026-04-16T12:05:55.792Z</time></trkpt><trkpt lat="40.56556" lon="8.33089"><ele>19.714285714285715</ele><time>2026-04-16T12:05:56.792Z</time></trkpt><trkpt lat="40.565545" lon="8.33098"><ele>20.0</ele><time>2026-04-16T12:05:57.792Z</time></trkpt><trkpt lat="40.5655583" lon="8.3310717"><ele>20.0</ele><time>2026-04-16T12:05:58.792Z</time></trkpt><trkpt lat="40.5655983" lon="8.331155"><ele>20.0</ele><time>2026-04-16T12:05:59.792Z</time></trkpt><trkpt lat="40.5656533" lon="8.3312283"><ele>20.0</ele><time>2026-04-16T12:06:00.792Z</time></trkpt><trkpt lat="40.5657183" lon="8.3312833"><ele>20.0</ele><time>2026-04-16T12:06:01.791Z</time></trkpt><trkpt lat="40.5657917" lon="8.3313383"><ele>20.0</ele><time>2026-04-16T12:06:02.792Z</time></trkpt><trkpt lat="40.5658633" lon="8.331405"><ele>20.0</ele><time>2026-04-16T12:06:03.792Z</time></trkpt><trkpt lat="40.565935" lon="8.3315"><ele>20.0</ele><time>2026-04-16T12:06:04.791Z</time></trkpt><trkpt lat="40.5660017" lon="8.33161"><ele>20.0</ele><time>2026-04-16T12:06:05.792Z</time></trkpt><trkpt lat="40.5660733" lon="8.3317433"><ele>20.0</ele><time>2026-04-16T12:06:06.792Z</time></trkpt><trkpt lat="40.5661433" lon="8.3318933"><ele>20.0</ele><time>2026-04-16T12:06:07.792Z</time></trkpt><trkpt lat="40.566225" lon="8.3320583"><ele>19.666666666666668</ele><time>2026-04-16T12:06:08.792Z</time></trkpt><trkpt lat="40.5663033" lon="8.332235"><ele>19.333333333333332</ele><time>2026-04-16T12:06:09.792Z</time></trkpt><trkpt lat="40.56639" lon="8.3324233"><ele>19.0</ele><time>2026-04-16T12:06:10.791Z</time></trkpt><trkpt lat="40.5664717" lon="8.3326233"><ele>19.0</ele><time>2026-04-16T12:06:11.791Z</time></trkpt><trkpt lat="40.56656" lon="8.332825"><ele>19.0</ele><time>2026-04-16T12:06:12.791Z</time></trkpt><trkpt lat="40.5666467" lon="8.3330333"><ele>19.0</ele><time>2026-04-16T12:06:13.791Z</time></trkpt><trkpt lat="40.56674" lon="8.3332467"><ele>19.666666666666664</ele><time>2026-04-16T12:06:14.791Z</time></trkpt><trkpt lat="40.56683" lon="8.3334683"><ele>20.333333333333332</ele><time>2026-04-16T12:06:15.791Z</time></trkpt><trkpt lat="40.5669283" lon="8.3336933"><ele>21.0</ele><time>2026-04-16T12:06:16.79Z</time></trkpt><trkpt lat="40.5670267" lon="8.3339167"><ele>21.333333333333332</ele><time>2026-04-16T12:06:17.791Z</time></trkpt><trkpt lat="40.5671267" lon="8.3341217"><ele>21.666666666666664</ele><time>2026-04-16T12:06:18.79Z</time></trkpt><trkpt lat="40.5672183" lon="8.3343133"><ele>22.0</ele><time>2026-04-16T12:06:19.79Z</time></trkpt><trkpt lat="40.5673067" lon="8.3345017"><ele>22.0</ele><time>2026-04-16T12:06:20.791Z</time></trkpt><trkpt lat="40.5673917" lon="8.334685"><ele>22.0</ele><time>2026-04-16T12:06:21.79Z</time></trkpt><trkpt lat="40.567465" lon="8.3348717"><ele>22.0</ele><time>2026-04-16T12:06:22.79Z</time></trkpt><trkpt lat="40.5675433" lon="8.3350517"><ele>22.25</ele><time>2026-04-16T12:06:23.791Z</time></trkpt><trkpt lat="40.56762" lon="8.3352083"><ele>22.5</ele><time>2026-04-16T12:06:24.791Z</time></trkpt><trkpt lat="40.5676833" lon="8.33534"><ele>22.75</ele><time>2026-04-16T12:06:25.791Z</time></trkpt><trkpt lat="40.56774" lon="8.335455"><ele>23.0</ele><time>2026-04-16T12:06:26.79Z</time></trkpt><trkpt lat="40.5677883" lon="8.33556"><ele>23.166666666666668</ele><time>2026-04-16T12:06:27.791Z</time></trkpt><trkpt lat="40.5678317" lon="8.3356517"><ele>23.333333333333336</ele><time>2026-04-16T12:06:28.79Z</time></trkpt><trkpt lat="40.5678667" lon="8.33574"><ele>23.5</ele><time>2026-04-16T12:06:29.79Z</time></trkpt><trkpt lat="40.5678967" lon="8.335835"><ele>23.666666666666668</ele><time>2026-04-16T12:06:30.79Z</time></trkpt><trkpt lat="40.5679317" lon="8.335935"><ele>23.833333333333332</ele><time>2026-04-16T12:06:31.79Z</time></trkpt><trkpt lat="40.5679867" lon="8.336045"><ele>24.0</ele><time>2026-04-16T12:06:32.791Z</time></trkpt><trkpt lat="40.56805" lon="8.3361733"><ele>24.0</ele><time>2026-04-16T12:06:33.791Z</time></trkpt><trkpt lat="40.5681167" lon="8.3363133"><ele>24.0</ele><time>2026-04-16T12:06:34.79Z</time></trkpt><trkpt lat="40.568185" lon="8.33645"><ele>24.0</ele><time>2026-04-16T12:06:35.791Z</time></trkpt><trkpt lat="40.568265" lon="8.3366"><ele>24.0</ele><time>2026-04-16T12:06:36.791Z</time></trkpt><trkpt lat="40.5683517" lon="8.33676"><ele>24.0</ele><time>2026-04-16T12:06:37.791Z</time></trkpt><trkpt lat="40.5684417" lon="8.3369083"><ele>24.0</ele><time>2026-04-16T12:06:38.79Z</time></trkpt><trkpt lat="40.568535" lon="8.3370667"><ele>24.0</ele><time>2026-04-16T12:06:39.791Z</time></trkpt><trkpt lat="40.56863" lon="8.3372233"><ele>24.0</ele><time>2026-04-16T12:06:40.791Z</time></trkpt><trkpt lat="40.5687333" lon="8.337385"><ele>25.0</ele><time>2026-04-16T12:06:41.791Z</time></trkpt><trkpt lat="40.568835" lon="8.3375533"><ele>26.0</ele><time>2026-04-16T12:06:42.791Z</time></trkpt><trkpt lat="40.5689333" lon="8.3377317"><ele>27.0</ele><time>2026-04-16T12:06:43.791Z</time></trkpt><trkpt lat="40.5690367" lon="8.3379133"><ele>27.333333333333336</ele><time>2026-04-16T12:06:44.791Z</time></trkpt><trkpt lat="40.5691417" lon="8.338085"><ele>27.666666666666668</ele><time>2026-04-16T12:06:45.79Z</time></trkpt><trkpt lat="40.569245" lon="8.33826"><ele>28.0</ele><time>2026-04-16T12:06:46.79Z</time></trkpt><trkpt lat="40.5693467" lon="8.33843"><ele>28.0</ele><time>2026-04-16T12:06:47.79Z</time></trkpt><trkpt lat="40.56945" lon="8.3386"><ele>28.0</ele><time>2026-04-16T12:06:48.791Z</time></trkpt><trkpt lat="40.5695517" lon="8.33878"><ele>28.0</ele><time>2026-04-16T12:06:49.79Z</time></trkpt><trkpt lat="40.5696517" lon="8.33896"><ele>28.333333333333336</ele><time>2026-04-16T12:06:50.791Z</time></trkpt><trkpt lat="40.5697517" lon="8.33914"><ele>28.666666666666664</ele><time>2026-04-16T12:06:51.791Z</time></trkpt><trkpt lat="40.5698533" lon="8.3393183"><ele>29.0</ele><time>2026-04-16T12:06:52.791Z</time></trkpt><trkpt lat="40.5699583" lon="8.3394983"><ele>29.0</ele><time>2026-04-16T12:06:53.791Z</time></trkpt><trkpt lat="40.5700567" lon="8.33969"><ele>29.0</ele><time>2026-04-16T12:06:54.79Z</time></trkpt><trkpt lat="40.5701483" lon="8.3398833"><ele>29.0</ele><time>2026-04-16T12:06:55.791Z</time></trkpt><trkpt lat="40.5702317" lon="8.34008"><ele>29.666666666666664</ele><time>2026-04-16T12:06:56.79Z</time></trkpt><trkpt lat="40.57031" lon="8.3402817"><ele>30.333333333333336</ele><time>2026-04-16T12:06:57.791Z</time></trkpt><trkpt lat="40.5703867" lon="8.3404933"><ele>31.0</ele><time>2026-04-16T12:06:58.79Z</time></trkpt><trkpt lat="40.57046" lon="8.34071"><ele>31.333333333333336</ele><time>2026-04-16T12:06:59.791Z</time></trkpt><trkpt lat="40.57053" lon="8.3409267"><ele>31.666666666666664</ele><time>2026-04-16T12:07:00.79Z</time></trkpt><trkpt lat="40.570595" lon="8.3411483"><ele>32.0</ele><time>2026-04-16T12:07:01.79Z</time></trkpt><trkpt lat="40.5706617" lon="8.341375"><ele>32.0</ele><time>2026-04-16T12:07:02.791Z</time></trkpt><trkpt lat="40.570725" lon="8.341595"><ele>32.0</ele><time>2026-04-16T12:07:03.79Z</time></trkpt><trkpt lat="40.57079" lon="8.3418183"><ele>32.0</ele><time>2026-04-16T12:07:04.79Z</time></trkpt><trkpt lat="40.5708533" lon="8.3420367"><ele>31.333333333333332</ele><time>2026-04-16T12:07:05.791Z</time></trkpt><trkpt lat="40.5709233" lon="8.3422533"><ele>30.666666666666664</ele><time>2026-04-16T12:07:06.791Z</time></trkpt><trkpt lat="40.5709917" lon="8.3424733"><ele>30.0</ele><time>2026-04-16T12:07:07.791Z</time></trkpt><trkpt lat="40.5710533" lon="8.3426917"><ele>30.0</ele><time>2026-04-16T12:07:08.79Z</time></trkpt><trkpt lat="40.5711217" lon="8.3429083"><ele>30.0</ele><time>2026-04-16T12:07:09.79Z</time></trkpt><trkpt lat="40.5711867" lon="8.343125"><ele>30.0</ele><time>2026-04-16T12:07:10.79Z</time></trkpt><trkpt lat="40.5712533" lon="8.3433433"><ele>31.0</ele><time>2026-04-16T12:07:11.791Z</time></trkpt><trkpt lat="40.57132" lon="8.3435617"><ele>32.0</ele><time>2026-04-16T12:07:12.79Z</time></trkpt><trkpt lat="40.5713817" lon="8.343785"><ele>33.0</ele><time>2026-04-16T12:07:13.79Z</time></trkpt><trkpt lat="40.5714483" lon="8.344005"><ele>33.666666666666664</ele><time>2026-04-16T12:07:14.791Z</time></trkpt><trkpt lat="40.5715133" lon="8.3442217"><ele>34.33333333333333</ele><time>2026-04-16T12:07:15.79Z</time></trkpt><trkpt lat="40.57158" lon="8.34444"><ele>35.0</ele><time>2026-04-16T12:07:16.79Z</time></trkpt><trkpt lat="40.57165" lon="8.3446667"><ele>35.33333333333333</ele><time>2026-04-16T12:07:17.791Z</time></trkpt><trkpt lat="40.5717167" lon="8.3448883"><ele>35.666666666666664</ele><time>2026-04-16T12:07:18.79Z</time></trkpt><trkpt lat="40.5717833" lon="8.3451117"><ele>36.0</ele><time>2026-04-16T12:07:19.791Z</time></trkpt><trkpt lat="40.5718517" lon="8.345345"><ele>35.666666666666664</ele><time>2026-04-16T12:07:20.791Z</time></trkpt><trkpt lat="40.5719267" lon="8.3455733"><ele>35.33333333333333</ele><time>2026-04-16T12:07:21.79Z</time></trkpt><trkpt lat="40.5719983" lon="8.345805"><ele>35.0</ele><time>2026-04-16T12:07:22.791Z</time></trkpt><trkpt lat="40.57207" lon="8.3460417"><ele>36.0</ele><time>2026-04-16T12:07:23.79Z</time></trkpt><trkpt lat="40.5721417" lon="8.3462767"><ele>37.0</ele><time>2026-04-16T12:07:24.791Z</time></trkpt><trkpt lat="40.5722033" lon="8.3465117"><ele>38.0</ele><time>2026-04-16T12:07:25.79Z</time></trkpt><trkpt lat="40.57227" lon="8.3467433"><ele>38.0</ele><time>2026-04-16T12:07:26.791Z</time></trkpt><trkpt lat="40.5723367" lon="8.3469817"><ele>38.0</ele><time>2026-04-16T12:07:27.791Z</time></trkpt><trkpt lat="40.5724083" lon="8.34722"><ele>38.0</ele><time>2026-04-16T12:07:28.791Z</time></trkpt><trkpt lat="40.5724783" lon="8.3474567"><ele>38.0</ele><time>2026-04-16T12:07:29.79Z</time></trkpt><trkpt lat="40.5725467" lon="8.3476767"><ele>38.0</ele><time>2026-04-16T12:07:30.791Z</time></trkpt><trkpt lat="40.5726" lon="8.347905"><ele>38.0</ele><time>2026-04-16T12:07:31.791Z</time></trkpt><trkpt lat="40.5726483" lon="8.3481417"><ele>38.0</ele><time>2026-04-16T12:07:32.79Z</time></trkpt><trkpt lat="40.5726833" lon="8.3483883"><ele>38.0</ele><time>2026-04-16T12:07:33.791Z</time></trkpt><trkpt lat="40.57271" lon="8.34863"><ele>38.0</ele><time>2026-04-16T12:07:34.79Z</time></trkpt><trkpt lat="40.5727317" lon="8.3488767"><ele>38.0</ele><time>2026-04-16T12:07:35.79Z</time></trkpt><trkpt lat="40.57275" lon="8.3491317"><ele>38.0</ele><time>2026-04-16T12:07:36.791Z</time></trkpt><trkpt lat="40.5727633" lon="8.349385"><ele>38.0</ele><time>2026-04-16T12:07:37.791Z</time></trkpt><trkpt lat="40.57278" lon="8.349635"><ele>37.33333333333333</ele><time>2026-04-16T12:07:38.79Z</time></trkpt><trkpt lat="40.5728067" lon="8.3498983"><ele>36.666666666666664</ele><time>2026-04-16T12:07:39.79Z</time></trkpt><trkpt lat="40.5728483" lon="8.3501633"><ele>36.0</ele><time>2026-04-16T12:07:40.79Z</time></trkpt><trkpt lat="40.5729033" lon="8.350425"><ele>36.666666666666664</ele><time>2026-04-16T12:07:41.791Z</time></trkpt><trkpt lat="40.5729633" lon="8.3506917"><ele>37.33333333333333</ele><time>2026-04-16T12:07:42.791Z</time></trkpt><trkpt lat="40.57303" lon="8.3509583"><ele>38.0</ele><time>2026-04-16T12:07:43.79Z</time></trkpt><trkpt lat="40.5730967" lon="8.3512283"><ele>36.33333333333333</ele><time>2026-04-16T12:07:44.79Z</time></trkpt><trkpt lat="40.573165" lon="8.3514883"><ele>34.666666666666664</ele><time>2026-04-16T12:07:45.79Z</time></trkpt><trkpt lat="40.5732367" lon="8.3517333"><ele>33.0</ele><time>2026-04-16T12:07:46.79Z</time></trkpt><trkpt lat="40.5733067" lon="8.3519833"><ele>30.666666666666664</ele><time>2026-04-16T12:07:47.791Z</time></trkpt><trkpt lat="40.5733683" lon="8.3522417"><ele>28.333333333333332</ele><time>2026-04-16T12:07:48.79Z</time></trkpt><trkpt lat="40.5734317" lon="8.3525033"><ele>26.0</ele><time>2026-04-16T12:07:49.791Z</time></trkpt><trkpt lat="40.5735067" lon="8.3527717"><ele>26.0</ele><time>2026-04-16T12:07:50.791Z</time></trkpt><trkpt lat="40.57358" lon="8.3530433"><ele>26.0</ele><time>2026-04-16T12:07:51.791Z</time></trkpt><trkpt lat="40.5736517" lon="8.353315"><ele>26.0</ele><time>2026-04-16T12:07:52.791Z</time></trkpt><trkpt lat="40.5737283" lon="8.3535933"><ele>26.0</ele><time>2026-04-16T12:07:53.79Z</time></trkpt><trkpt lat="40.5738017" lon="8.3538617"><ele>26.0</ele><time>2026-04-16T12:07:54.791Z</time></trkpt><trkpt lat="40.5738733" lon="8.3541267"><ele>26.0</ele><time>2026-04-16T12:07:55.791Z</time></trkpt><trkpt lat="40.57395" lon="8.3543967"><ele>24.333333333333332</ele><time>2026-04-16T12:07:56.79Z</time></trkpt><trkpt lat="40.5740233" lon="8.35467"><ele>22.666666666666664</ele><time>2026-04-16T12:07:57.79Z</time></trkpt><trkpt lat="40.574095" lon="8.3549383"><ele>21.0</ele><time>2026-04-16T12:07:58.79Z</time></trkpt><trkpt lat="40.5741633" lon="8.35521"><ele>21.0</ele><time>2026-04-16T12:07:59.79Z</time></trkpt><trkpt lat="40.5742383" lon="8.3554883"><ele>21.0</ele><time>2026-04-16T12:08:00.791Z</time></trkpt><trkpt lat="40.5743117" lon="8.3557633"><ele>21.0</ele><time>2026-04-16T12:08:01.79Z</time></trkpt><trkpt lat="40.574385" lon="8.3560367"><ele>21.666666666666668</ele><time>2026-04-16T12:08:02.791Z</time></trkpt><trkpt lat="40.5744533" lon="8.3563133"><ele>22.333333333333336</ele><time>2026-04-16T12:08:03.791Z</time></trkpt><trkpt lat="40.57452" lon="8.35659"><ele>23.0</ele><time>2026-04-16T12:08:04.79Z</time></trkpt><trkpt lat="40.5745783" lon="8.35686"><ele>21.666666666666668</ele><time>2026-04-16T12:08:05.791Z</time></trkpt><trkpt lat="40.574635" lon="8.3571233"><ele>20.333333333333332</ele><time>2026-04-16T12:08:06.791Z</time></trkpt><trkpt lat="40.574685" lon="8.3573867"><ele>19.0</ele><time>2026-04-16T12:08:07.791Z</time></trkpt><trkpt lat="40.5747367" lon="8.3576467"><ele>19.0</ele><time>2026-04-16T12:08:08.791Z</time></trkpt><trkpt lat="40.5747883" lon="8.35791"><ele>19.0</ele><time>2026-04-16T12:08:09.79Z</time></trkpt><trkpt lat="40.5748383" lon="8.358165"><ele>19.0</ele><time>2026-04-16T12:08:10.791Z</time></trkpt><trkpt lat="40.5748883" lon="8.3584"><ele>19.666666666666664</ele><time>2026-04-16T12:08:11.79Z</time></trkpt><trkpt lat="40.574925" lon="8.3586133"><ele>20.333333333333332</ele><time>2026-04-16T12:08:12.79Z</time></trkpt><trkpt lat="40.574965" lon="8.3588117"><ele>21.0</ele><time>2026-04-16T12:08:13.791Z</time></trkpt><trkpt lat="40.575005" lon="8.35901"><ele>21.666666666666668</ele><time>2026-04-16T12:08:14.79Z</time></trkpt><trkpt lat="40.5750433" lon="8.3592183"><ele>22.333333333333336</ele><time>2026-04-16T12:08:15.79Z</time></trkpt><trkpt lat="40.575085" lon="8.3594317"><ele>23.0</ele><time>2026-04-16T12:08:16.791Z</time></trkpt><trkpt lat="40.5751267" lon="8.3596517"><ele>22.666666666666668</ele><time>2026-04-16T12:08:17.79Z</time></trkpt><trkpt lat="40.57517" lon="8.3598717"><ele>22.333333333333332</ele><time>2026-04-16T12:08:18.79Z</time></trkpt><trkpt lat="40.5752133" lon="8.3601"><ele>22.0</ele><time>2026-04-16T12:08:19.791Z</time></trkpt><trkpt lat="40.5752667" lon="8.3603233"><ele>21.666666666666664</ele><time>2026-04-16T12:08:20.791Z</time></trkpt><trkpt lat="40.5753117" lon="8.36055"><ele>21.333333333333332</ele><time>2026-04-16T12:08:21.791Z</time></trkpt><trkpt lat="40.57536" lon="8.36079"><ele>21.0</ele><time>2026-04-16T12:08:22.791Z</time></trkpt><trkpt lat="40.5754067" lon="8.36102"><ele>20.333333333333332</ele><time>2026-04-16T12:08:23.791Z</time></trkpt><trkpt lat="40.5754517" lon="8.3612533"><ele>19.666666666666664</ele><time>2026-04-16T12:08:24.791Z</time></trkpt><trkpt lat="40.5755" lon="8.3614967"><ele>19.0</ele><time>2026-04-16T12:08:25.791Z</time></trkpt><trkpt lat="40.5755517" lon="8.3617383"><ele>20.333333333333332</ele><time>2026-04-16T12:08:26.791Z</time></trkpt><trkpt lat="40.5755983" lon="8.3619733"><ele>21.666666666666668</ele><time>2026-04-16T12:08:27.79Z</time></trkpt><trkpt lat="40.5756417" lon="8.3621983"><ele>23.0</ele><time>2026-04-16T12:08:28.79Z</time></trkpt><trkpt lat="40.575685" lon="8.3624033"><ele>23.25</ele><time>2026-04-16T12:08:29.791Z</time></trkpt><trkpt lat="40.575725" lon="8.362595"><ele>23.5</ele><time>2026-04-16T12:08:30.79Z</time></trkpt><trkpt lat="40.575765" lon="8.3627717"><ele>23.75</ele><time>2026-04-16T12:08:31.791Z</time></trkpt><trkpt lat="40.5758" lon="8.36294"><ele>24.0</ele><time>2026-04-16T12:08:32.791Z</time></trkpt><trkpt lat="40.5758333" lon="8.3630967"><ele>23.6</ele><time>2026-04-16T12:08:33.791Z</time></trkpt><trkpt lat="40.57587" lon="8.3632367"><ele>23.2</ele><time>2026-04-16T12:08:34.791Z</time></trkpt><trkpt lat="40.5759067" lon="8.3633583"><ele>22.8</ele><time>2026-04-16T12:08:35.791Z</time></trkpt><trkpt lat="40.57594" lon="8.363465"><ele>22.400000000000002</ele><time>2026-04-16T12:08:36.791Z</time></trkpt><trkpt lat="40.575955" lon="8.3635683"><ele>22.0</ele><time>2026-04-16T12:08:37.791Z</time></trkpt><trkpt lat="40.5759417" lon="8.3636783"><ele>22.0</ele><time>2026-04-16T12:08:38.791Z</time></trkpt><trkpt lat="40.5759183" lon="8.3637817"><ele>22.0</ele><time>2026-04-16T12:08:39.79Z</time></trkpt><trkpt lat="40.5758883" lon="8.3638833"><ele>22.0</ele><time>2026-04-16T12:08:40.791Z</time></trkpt><trkpt lat="40.5758583" lon="8.3639833"><ele>22.0</ele><time>2026-04-16T12:08:41.791Z</time></trkpt><trkpt lat="40.575825" lon="8.3640983"><ele>22.0</ele><time>2026-04-16T12:08:42.79Z</time></trkpt><trkpt lat="40.5757917" lon="8.36422"><ele>22.0</ele><time>2026-04-16T12:08:43.79Z</time></trkpt><trkpt lat="40.5757583" lon="8.36435"><ele>21.75</ele><time>2026-04-16T12:08:44.79Z</time></trkpt><trkpt lat="40.5757233" lon="8.364485"><ele>21.5</ele><time>2026-04-16T12:08:45.791Z</time></trkpt><trkpt lat="40.5756867" lon="8.364625"><ele>21.25</ele><time>2026-04-16T12:08:46.79Z</time></trkpt><trkpt lat="40.5756533" lon="8.36477"><ele>21.0</ele><time>2026-04-16T12:08:47.79Z</time></trkpt><trkpt lat="40.5756183" lon="8.3649133"><ele>20.75</ele><time>2026-04-16T12:08:48.791Z</time></trkpt><trkpt lat="40.5755833" lon="8.3650517"><ele>20.5</ele><time>2026-04-16T12:08:49.79Z</time></trkpt><trkpt lat="40.575545" lon="8.3651967"><ele>20.25</ele><time>2026-04-16T12:08:50.791Z</time></trkpt><trkpt lat="40.575505" lon="8.365345"><ele>20.0</ele><time>2026-04-16T12:08:51.791Z</time></trkpt><trkpt lat="40.5754633" lon="8.365495"><ele>20.5</ele><time>2026-04-16T12:08:52.791Z</time></trkpt><trkpt lat="40.5754217" lon="8.36565"><ele>21.0</ele><time>2026-04-16T12:08:53.791Z</time></trkpt><trkpt lat="40.5753833" lon="8.3658117"><ele>21.5</ele><time>2026-04-16T12:08:54.79Z</time></trkpt><trkpt lat="40.5753383" lon="8.36598"><ele>22.0</ele><time>2026-04-16T12:08:55.79Z</time></trkpt><trkpt lat="40.5752967" lon="8.3661517"><ele>22.25</ele><time>2026-04-16T12:08:56.789Z</time></trkpt><trkpt lat="40.575255" lon="8.366325"><ele>22.5</ele><time>2026-04-16T12:08:57.79Z</time></trkpt><trkpt lat="40.5752117" lon="8.3665017"><ele>22.75</ele><time>2026-04-16T12:08:58.79Z</time></trkpt><trkpt lat="40.575165" lon="8.36668"><ele>23.0</ele><time>2026-04-16T12:08:59.79Z</time></trkpt><trkpt lat="40.5751183" lon="8.3668633"><ele>22.5</ele><time>2026-04-16T12:09:00.79Z</time></trkpt><trkpt lat="40.57507" lon="8.3670467"><ele>22.0</ele><time>2026-04-16T12:09:01.79Z</time></trkpt><trkpt lat="40.5750233" lon="8.367235"><ele>21.5</ele><time>2026-04-16T12:09:02.79Z</time></trkpt><trkpt lat="40.5749717" lon="8.36742"><ele>21.0</ele><time>2026-04-16T12:09:03.789Z</time></trkpt><trkpt lat="40.5749217" lon="8.367605"><ele>20.75</ele><time>2026-04-16T12:09:04.79Z</time></trkpt><trkpt lat="40.5748733" lon="8.36779"><ele>20.5</ele><time>2026-04-16T12:09:05.79Z</time></trkpt><trkpt lat="40.5748233" lon="8.3679717"><ele>20.25</ele><time>2026-04-16T12:09:06.79Z</time></trkpt><trkpt lat="40.5747767" lon="8.3681567"><ele>20.0</ele><time>2026-04-16T12:09:07.79Z</time></trkpt><trkpt lat="40.5747333" lon="8.3683417"><ele>20.0</ele><time>2026-04-16T12:09:08.79Z</time></trkpt><trkpt lat="40.5746967" lon="8.3685267"><ele>20.0</ele><time>2026-04-16T12:09:09.79Z</time></trkpt><trkpt lat="40.57467" lon="8.3687267"><ele>20.0</ele><time>2026-04-16T12:09:10.79Z</time></trkpt><trkpt lat="40.57465" lon="8.3689383"><ele>21.333333333333336</ele><time>2026-04-16T12:09:11.789Z</time></trkpt><trkpt lat="40.57463" lon="8.3691483"><ele>22.666666666666668</ele><time>2026-04-16T12:09:12.79Z</time></trkpt><trkpt lat="40.5746117" lon="8.3693517"><ele>24.0</ele><time>2026-04-16T12:09:13.79Z</time></trkpt><trkpt lat="40.5745967" lon="8.3695567"><ele>24.0</ele><time>2026-04-16T12:09:14.79Z</time></trkpt><trkpt lat="40.574585" lon="8.36976"><ele>24.0</ele><time>2026-04-16T12:09:15.79Z</time></trkpt><trkpt lat="40.5745683" lon="8.36997"><ele>24.0</ele><time>2026-04-16T12:09:16.79Z</time></trkpt><trkpt lat="40.57455" lon="8.370175"><ele>24.0</ele><time>2026-04-16T12:09:17.789Z</time></trkpt><trkpt lat="40.5745283" lon="8.370385"><ele>24.0</ele><time>2026-04-16T12:09:18.79Z</time></trkpt><trkpt lat="40.5745017" lon="8.3705967"><ele>24.0</ele><time>2026-04-16T12:09:19.789Z</time></trkpt><trkpt lat="40.5744833" lon="8.3707983"><ele>24.333333333333336</ele><time>2026-04-16T12:09:20.79Z</time></trkpt><trkpt lat="40.5744633" lon="8.3709983"><ele>24.666666666666668</ele><time>2026-04-16T12:09:21.79Z</time></trkpt><trkpt lat="40.5744433" lon="8.371205"><ele>25.0</ele><time>2026-04-16T12:09:22.789Z</time></trkpt><trkpt lat="40.5744233" lon="8.3714067"><ele>25.666666666666668</ele><time>2026-04-16T12:09:23.79Z</time></trkpt><trkpt lat="40.5744017" lon="8.3716083"><ele>26.333333333333336</ele><time>2026-04-16T12:09:24.789Z</time></trkpt><trkpt lat="40.57438" lon="8.3718117"><ele>27.0</ele><time>2026-04-16T12:09:25.789Z</time></trkpt><trkpt lat="40.574355" lon="8.3720117"><ele>27.75</ele><time>2026-04-16T12:09:26.79Z</time></trkpt><trkpt lat="40.5743267" lon="8.372195"><ele>28.5</ele><time>2026-04-16T12:09:27.79Z</time></trkpt><trkpt lat="40.574295" lon="8.372355"><ele>29.25</ele><time>2026-04-16T12:09:28.789Z</time></trkpt><trkpt lat="40.5742667" lon="8.372505"><ele>30.0</ele><time>2026-04-16T12:09:29.789Z</time></trkpt><trkpt lat="40.57425" lon="8.3726483"><ele>30.0</ele><time>2026-04-16T12:09:30.79Z</time></trkpt><trkpt lat="40.5742283" lon="8.3727817"><ele>30.0</ele><time>2026-04-16T12:09:31.789Z</time></trkpt><trkpt lat="40.574205" lon="8.3729133"><ele>30.0</ele><time>2026-04-16T12:09:32.789Z</time></trkpt><trkpt lat="40.5741817" lon="8.37304"><ele>30.0</ele><time>2026-04-16T12:09:33.789Z</time></trkpt><trkpt lat="40.5741617" lon="8.3731533"><ele>30.0</ele><time>2026-04-16T12:09:34.79Z</time></trkpt><trkpt lat="40.5741367" lon="8.37325"><ele>30.0</ele><time>2026-04-16T12:09:35.789Z</time></trkpt><trkpt lat="40.5741233" lon="8.3733617"><ele>30.0</ele><time>2026-04-16T12:09:36.79Z</time></trkpt><trkpt lat="40.5741267" lon="8.3734817"><ele>30.0</ele><time>2026-04-16T12:09:37.789Z</time></trkpt><trkpt lat="40.574155" lon="8.3736133"><ele>30.0</ele><time>2026-04-16T12:09:38.789Z</time></trkpt><trkpt lat="40.574205" lon="8.3737533"><ele>30.0</ele><time>2026-04-16T12:09:39.79Z</time></trkpt><trkpt lat="40.5742667" lon="8.373895"><ele>30.0</ele><time>2026-04-16T12:09:40.79Z</time></trkpt><trkpt lat="40.5743333" lon="8.3740367"><ele>30.0</ele><time>2026-04-16T12:09:41.79Z</time></trkpt><trkpt lat="40.5744067" lon="8.37418"><ele>30.0</ele><time>2026-04-16T12:09:42.789Z</time></trkpt><trkpt lat="40.574485" lon="8.3743317"><ele>30.0</ele><time>2026-04-16T12:09:43.79Z</time></trkpt><trkpt lat="40.5745733" lon="8.3744883"><ele>29.5</ele><time>2026-04-16T12:09:44.79Z</time></trkpt><trkpt lat="40.5746567" lon="8.374645"><ele>29.0</ele><time>2026-04-16T12:09:45.79Z</time></trkpt><trkpt lat="40.57474" lon="8.374805"><ele>28.5</ele><time>2026-04-16T12:09:46.789Z</time></trkpt><trkpt lat="40.57482" lon="8.3749683"><ele>28.0</ele><time>2026-04-16T12:09:47.789Z</time></trkpt><trkpt lat="40.5748967" lon="8.37514"><ele>28.0</ele><time>2026-04-16T12:09:48.79Z</time></trkpt><trkpt lat="40.574965" lon="8.3753167"><ele>28.0</ele><time>2026-04-16T12:09:49.789Z</time></trkpt><trkpt lat="40.5750333" lon="8.3755"><ele>28.0</ele><time>2026-04-16T12:09:50.789Z</time></trkpt><trkpt lat="40.5751033" lon="8.3756817"><ele>28.0</ele><time>2026-04-16T12:09:51.79Z</time></trkpt><trkpt lat="40.5751717" lon="8.3758483"><ele>28.0</ele><time>2026-04-16T12:09:52.79Z</time></trkpt><trkpt lat="40.575225" lon="8.3759967"><ele>28.0</ele><time>2026-04-16T12:09:53.789Z</time></trkpt><trkpt lat="40.5752617" lon="8.3761417"><ele>28.0</ele><time>2026-04-16T12:09:54.789Z</time></trkpt><trkpt lat="40.5752867" lon="8.3762933"><ele>28.2</ele><time>2026-04-16T12:09:55.789Z</time></trkpt><trkpt lat="40.5753133" lon="8.3764367"><ele>28.4</ele><time>2026-04-16T12:09:56.79Z</time></trkpt><trkpt lat="40.5753433" lon="8.3765733"><ele>28.599999999999998</ele><time>2026-04-16T12:09:57.79Z</time></trkpt><trkpt lat="40.57539" lon="8.3766933"><ele>28.799999999999997</ele><time>2026-04-16T12:09:58.79Z</time></trkpt><trkpt lat="40.5754617" lon="8.3768133"><ele>29.0</ele><time>2026-04-16T12:09:59.79Z</time></trkpt><trkpt lat="40.5755417" lon="8.3769333"><ele>29.25</ele><time>2026-04-16T12:10:00.79Z</time></trkpt><trkpt lat="40.57562" lon="8.377055"><ele>29.5</ele><time>2026-04-16T12:10:01.789Z</time></trkpt><trkpt lat="40.5756933" lon="8.3771917"><ele>29.75</ele><time>2026-04-16T12:10:02.79Z</time></trkpt><trkpt lat="40.5757517" lon="8.3773433"><ele>30.0</ele><time>2026-04-16T12:10:03.79Z</time></trkpt><trkpt lat="40.5758083" lon="8.3775083"><ele>30.0</ele><time>2026-04-16T12:10:04.79Z</time></trkpt><trkpt lat="40.575865" lon="8.37767"><ele>30.0</ele><time>2026-04-16T12:10:05.79Z</time></trkpt><trkpt lat="40.57592" lon="8.3778367"><ele>30.0</ele><time>2026-04-16T12:10:06.79Z</time></trkpt><trkpt lat="40.575955" lon="8.378005"><ele>30.0</ele><time>2026-04-16T12:10:07.79Z</time></trkpt><trkpt lat="40.5759783" lon="8.3781833"><ele>30.0</ele><time>2026-04-16T12:10:08.79Z</time></trkpt><trkpt lat="40.5759933" lon="8.3783717"><ele>30.0</ele><time>2026-04-16T12:10:09.789Z</time></trkpt><trkpt lat="40.5760083" lon="8.37857"><ele>30.0</ele><time>2026-04-16T12:10:10.789Z</time></trkpt><trkpt lat="40.5760333" lon="8.3787733"><ele>30.0</ele><time>2026-04-16T12:10:11.789Z</time></trkpt><trkpt lat="40.57605" lon="8.378985"><ele>30.0</ele><time>2026-04-16T12:10:12.79Z</time></trkpt><trkpt lat="40.5760783" lon="8.3791933"><ele>30.0</ele><time>2026-04-16T12:10:13.79Z</time></trkpt><trkpt lat="40.57611" lon="8.3794083"><ele>30.0</ele><time>2026-04-16T12:10:14.789Z</time></trkpt><trkpt lat="40.5761533" lon="8.3796217"><ele>30.0</ele><time>2026-04-16T12:10:15.79Z</time></trkpt><trkpt lat="40.5761983" lon="8.3798383"><ele>30.0</ele><time>2026-04-16T12:10:16.79Z</time></trkpt><trkpt lat="40.5762483" lon="8.3800533"><ele>30.666666666666664</ele><time>2026-04-16T12:10:17.79Z</time></trkpt><trkpt lat="40.5763" lon="8.3802617"><ele>31.333333333333332</ele><time>2026-04-16T12:10:18.79Z</time></trkpt><trkpt lat="40.5763467" lon="8.3804883"><ele>32.0</ele><time>2026-04-16T12:10:19.789Z</time></trkpt><trkpt lat="40.5763933" lon="8.3807033"><ele>32.0</ele><time>2026-04-16T12:10:20.79Z</time></trkpt><trkpt lat="40.576435" lon="8.3809167"><ele>32.0</ele><time>2026-04-16T12:10:21.79Z</time></trkpt><trkpt lat="40.57648" lon="8.38113"><ele>32.0</ele><time>2026-04-16T12:10:22.789Z</time></trkpt><trkpt lat="40.5765267" lon="8.3813417"><ele>31.666666666666664</ele><time>2026-04-16T12:10:23.79Z</time></trkpt><trkpt lat="40.5765683" lon="8.3815517"><ele>31.333333333333336</ele><time>2026-04-16T12:10:24.79Z</time></trkpt><trkpt lat="40.57661" lon="8.381765"><ele>31.0</ele><time>2026-04-16T12:10:25.789Z</time></trkpt><trkpt lat="40.576665" lon="8.381965"><ele>31.0</ele><time>2026-04-16T12:10:26.79Z</time></trkpt><trkpt lat="40.5767183" lon="8.3821517"><ele>31.0</ele><time>2026-04-16T12:10:27.789Z</time></trkpt><trkpt lat="40.57679" lon="8.3823317"><ele>31.0</ele><time>2026-04-16T12:10:28.79Z</time></trkpt><trkpt lat="40.576885" lon="8.3824883"><ele>31.0</ele><time>2026-04-16T12:10:29.789Z</time></trkpt><trkpt lat="40.5769867" lon="8.3826433"><ele>31.0</ele><time>2026-04-16T12:10:30.79Z</time></trkpt><trkpt lat="40.577085" lon="8.3828033"><ele>31.0</ele><time>2026-04-16T12:10:31.79Z</time></trkpt><trkpt lat="40.5771817" lon="8.3829633"><ele>31.666666666666668</ele><time>2026-04-16T12:10:32.79Z</time></trkpt><trkpt lat="40.5772717" lon="8.3831317"><ele>32.333333333333336</ele><time>2026-04-16T12:10:33.79Z</time></trkpt><trkpt lat="40.5773683" lon="8.3833"><ele>33.0</ele><time>2026-04-16T12:10:34.789Z</time></trkpt><trkpt lat="40.5774667" lon="8.3834583"><ele>33.0</ele><time>2026-04-16T12:10:35.789Z</time></trkpt><trkpt lat="40.57757" lon="8.3836217"><ele>33.0</ele><time>2026-04-16T12:10:36.79Z</time></trkpt><trkpt lat="40.57767" lon="8.383785"><ele>33.0</ele><time>2026-04-16T12:10:37.79Z</time></trkpt><trkpt lat="40.57777" lon="8.3839417"><ele>34.333333333333336</ele><time>2026-04-16T12:10:38.789Z</time></trkpt><trkpt lat="40.5778633" lon="8.38411"><ele>35.66666666666667</ele><time>2026-04-16T12:10:39.79Z</time></trkpt><trkpt lat="40.57793" lon="8.3842817"><ele>37.0</ele><time>2026-04-16T12:10:40.789Z</time></trkpt><trkpt lat="40.57798" lon="8.3844617"><ele>37.0</ele><time>2026-04-16T12:10:41.789Z</time></trkpt><trkpt lat="40.5780117" lon="8.3846483"><ele>37.0</ele><time>2026-04-16T12:10:42.79Z</time></trkpt><trkpt lat="40.5780417" lon="8.3848367"><ele>37.0</ele><time>2026-04-16T12:10:43.789Z</time></trkpt><trkpt lat="40.578075" lon="8.3850283"><ele>37.0</ele><time>2026-04-16T12:10:44.79Z</time></trkpt><trkpt lat="40.5781133" lon="8.385215"><ele>37.0</ele><time>2026-04-16T12:10:45.79Z</time></trkpt><trkpt lat="40.5781517" lon="8.3854067"><ele>37.0</ele><time>2026-04-16T12:10:46.789Z</time></trkpt><trkpt lat="40.5781883" lon="8.3856033"><ele>37.0</ele><time>2026-04-16T12:10:47.79Z</time></trkpt><trkpt lat="40.5782283" lon="8.3858033"><ele>36.66666666666667</ele><time>2026-04-16T12:10:48.79Z</time></trkpt><trkpt lat="40.5782683" lon="8.3859983"><ele>36.333333333333336</ele><time>2026-04-16T12:10:49.79Z</time></trkpt><trkpt lat="40.5783083" lon="8.3862017"><ele>36.0</ele><time>2026-04-16T12:10:50.79Z</time></trkpt><trkpt lat="40.5783383" lon="8.38641"><ele>36.0</ele><time>2026-04-16T12:10:51.789Z</time></trkpt><trkpt lat="40.5783667" lon="8.3866167"><ele>36.0</ele><time>2026-04-16T12:10:52.79Z</time></trkpt><trkpt lat="40.5783933" lon="8.386825"><ele>36.0</ele><time>2026-04-16T12:10:53.789Z</time></trkpt><trkpt lat="40.5784167" lon="8.3870333"><ele>36.333333333333336</ele><time>2026-04-16T12:10:54.79Z</time></trkpt><trkpt lat="40.5784383" lon="8.38723"><ele>36.66666666666667</ele><time>2026-04-16T12:10:55.79Z</time></trkpt><trkpt lat="40.5784683" lon="8.3874267"><ele>37.0</ele><time>2026-04-16T12:10:56.79Z</time></trkpt><trkpt lat="40.57852" lon="8.387615"><ele>37.0</ele><time>2026-04-16T12:10:57.79Z</time></trkpt><trkpt lat="40.5785817" lon="8.387805"><ele>37.0</ele><time>2026-04-16T12:10:58.79Z</time></trkpt><trkpt lat="40.57865" lon="8.3879883"><ele>37.0</ele><time>2026-04-16T12:10:59.789Z</time></trkpt><trkpt lat="40.5787017" lon="8.3881783"><ele>38.0</ele><time>2026-04-16T12:11:00.789Z</time></trkpt><trkpt lat="40.578755" lon="8.3883633"><ele>39.0</ele><time>2026-04-16T12:11:01.789Z</time></trkpt><trkpt lat="40.5788033" lon="8.3885533"><ele>40.0</ele><time>2026-04-16T12:11:02.79Z</time></trkpt><trkpt lat="40.5788433" lon="8.3887467"><ele>39.75</ele><time>2026-04-16T12:11:03.789Z</time></trkpt><trkpt lat="40.578885" lon="8.388935"><ele>39.5</ele><time>2026-04-16T12:11:04.79Z</time></trkpt><trkpt lat="40.57892" lon="8.3891233"><ele>39.25</ele><time>2026-04-16T12:11:05.79Z</time></trkpt><trkpt lat="40.578945" lon="8.3893033"><ele>39.0</ele><time>2026-04-16T12:11:06.789Z</time></trkpt><trkpt lat="40.57897" lon="8.389475"><ele>39.0</ele><time>2026-04-16T12:11:07.79Z</time></trkpt><trkpt lat="40.578985" lon="8.389645"><ele>39.0</ele><time>2026-04-16T12:11:08.79Z</time></trkpt><trkpt lat="40.578975" lon="8.3898183"><ele>39.0</ele><time>2026-04-16T12:11:09.789Z</time></trkpt><trkpt lat="40.5789433" lon="8.3899967"><ele>39.0</ele><time>2026-04-16T12:11:10.789Z</time></trkpt><trkpt lat="40.57891" lon="8.3901883"><ele>39.0</ele><time>2026-04-16T12:11:11.789Z</time></trkpt><trkpt lat="40.578885" lon="8.39039"><ele>39.0</ele><time>2026-04-16T12:11:12.789Z</time></trkpt><trkpt lat="40.5788583" lon="8.3906067"><ele>39.0</ele><time>2026-04-16T12:11:13.79Z</time></trkpt><trkpt lat="40.5788283" lon="8.390825"><ele>39.333333333333336</ele><time>2026-04-16T12:11:14.789Z</time></trkpt><trkpt lat="40.5788" lon="8.3910517"><ele>39.66666666666667</ele><time>2026-04-16T12:11:15.79Z</time></trkpt><trkpt lat="40.5787717" lon="8.3912783"><ele>40.0</ele><time>2026-04-16T12:11:16.79Z</time></trkpt><trkpt lat="40.5787483" lon="8.391495"><ele>40.333333333333336</ele><time>2026-04-16T12:11:17.789Z</time></trkpt><trkpt lat="40.5787183" lon="8.3917117"><ele>40.666666666666664</ele><time>2026-04-16T12:11:18.79Z</time></trkpt><trkpt lat="40.57869" lon="8.3919067"><ele>41.0</ele><time>2026-04-16T12:11:19.789Z</time></trkpt><trkpt lat="40.578665" lon="8.3920983"><ele>41.666666666666664</ele><time>2026-04-16T12:11:20.789Z</time></trkpt><trkpt lat="40.57863" lon="8.392285"><ele>42.333333333333336</ele><time>2026-04-16T12:11:21.79Z</time></trkpt><trkpt lat="40.5785917" lon="8.39248"><ele>43.0</ele><time>2026-04-16T12:11:22.79Z</time></trkpt><trkpt lat="40.5785533" lon="8.3926783"><ele>43.0</ele><time>2026-04-16T12:11:23.79Z</time></trkpt><trkpt lat="40.5785167" lon="8.392885"><ele>43.0</ele><time>2026-04-16T12:11:24.79Z</time></trkpt><trkpt lat="40.5784783" lon="8.393095"><ele>43.0</ele><time>2026-04-16T12:11:25.789Z</time></trkpt><trkpt lat="40.578445" lon="8.3933083"><ele>43.0</ele><time>2026-04-16T12:11:26.79Z</time></trkpt><trkpt lat="40.5784117" lon="8.3935333"><ele>43.0</ele><time>2026-04-16T12:11:27.79Z</time></trkpt><trkpt lat="40.5783767" lon="8.39376"><ele>43.0</ele><time>2026-04-16T12:11:28.789Z</time></trkpt><trkpt lat="40.5783367" lon="8.3939817"><ele>43.0</ele><time>2026-04-16T12:11:29.789Z</time></trkpt><trkpt lat="40.578295" lon="8.394205"><ele>43.0</ele><time>2026-04-16T12:11:30.789Z</time></trkpt><trkpt lat="40.5782533" lon="8.3944317"><ele>43.0</ele><time>2026-04-16T12:11:31.79Z</time></trkpt><trkpt lat="40.5782133" lon="8.3946517"><ele>44.0</ele><time>2026-04-16T12:11:32.79Z</time></trkpt><trkpt lat="40.5781717" lon="8.3948717"><ele>45.0</ele><time>2026-04-16T12:11:33.789Z</time></trkpt><trkpt lat="40.57813" lon="8.39509"><ele>46.0</ele><time>2026-04-16T12:11:34.789Z</time></trkpt><trkpt lat="40.5781033" lon="8.3953167"><ele>47.333333333333336</ele><time>2026-04-16T12:11:35.789Z</time></trkpt><trkpt lat="40.5780717" lon="8.3955383"><ele>48.66666666666667</ele><time>2026-04-16T12:11:36.789Z</time></trkpt><trkpt lat="40.57804" lon="8.39576"><ele>50.0</ele><time>2026-04-16T12:11:37.789Z</time></trkpt><trkpt lat="40.578005" lon="8.3959883"><ele>50.0</ele><time>2026-04-16T12:11:38.789Z</time></trkpt><trkpt lat="40.5779733" lon="8.396215"><ele>50.0</ele><time>2026-04-16T12:11:39.788Z</time></trkpt><trkpt lat="40.5779417" lon="8.396445"><ele>50.0</ele><time>2026-04-16T12:11:40.789Z</time></trkpt><trkpt lat="40.5779083" lon="8.3966733"><ele>51.66666666666667</ele><time>2026-04-16T12:11:41.788Z</time></trkpt><trkpt lat="40.5778817" lon="8.3969017"><ele>53.33333333333333</ele><time>2026-04-16T12:11:42.789Z</time></trkpt><trkpt lat="40.5778633" lon="8.3971317"><ele>55.0</ele><time>2026-04-16T12:11:43.788Z</time></trkpt><trkpt lat="40.5778433" lon="8.3973633"><ele>55.0</ele><time>2026-04-16T12:11:44.789Z</time></trkpt><trkpt lat="40.577825" lon="8.3975817"><ele>55.0</ele><time>2026-04-16T12:11:45.789Z</time></trkpt><trkpt lat="40.5778033" lon="8.3978"><ele>55.0</ele><time>2026-04-16T12:11:46.789Z</time></trkpt><trkpt lat="40.577795" lon="8.3980233"><ele>57.0</ele><time>2026-04-16T12:11:47.788Z</time></trkpt><trkpt lat="40.5777867" lon="8.3982367"><ele>59.0</ele><time>2026-04-16T12:11:48.789Z</time></trkpt><trkpt lat="40.5777817" lon="8.3984533"><ele>61.0</ele><time>2026-04-16T12:11:49.789Z</time></trkpt><trkpt lat="40.577775" lon="8.3986783"><ele>64.0</ele><time>2026-04-16T12:11:50.788Z</time></trkpt><trkpt lat="40.57777" lon="8.398905"><ele>67.0</ele><time>2026-04-16T12:11:51.789Z</time></trkpt><trkpt lat="40.57778" lon="8.399125"><ele>70.0</ele><time>2026-04-16T12:11:52.788Z</time></trkpt><trkpt lat="40.5777983" lon="8.39934"><ele>70.0</ele><time>2026-04-16T12:11:53.789Z</time></trkpt><trkpt lat="40.5778383" lon="8.3995533"><ele>70.0</ele><time>2026-04-16T12:11:54.789Z</time></trkpt><trkpt lat="40.577885" lon="8.3997633"><ele>70.0</ele><time>2026-04-16T12:11:55.789Z</time></trkpt><trkpt lat="40.5779533" lon="8.3999667"><ele>73.66666666666666</ele><time>2026-04-16T12:11:56.789Z</time></trkpt><trkpt lat="40.5780267" lon="8.400165"><ele>77.33333333333333</ele><time>2026-04-16T12:11:57.789Z</time></trkpt><trkpt lat="40.5781" lon="8.400355"><ele>81.0</ele><time>2026-04-16T12:11:58.789Z</time></trkpt><trkpt lat="40.5781633" lon="8.4005467"><ele>81.33333333333333</ele><time>2026-04-16T12:11:59.789Z</time></trkpt><trkpt lat="40.57823" lon="8.4007367"><ele>81.66666666666666</ele><time>2026-04-16T12:12:00.788Z</time></trkpt><trkpt lat="40.5783" lon="8.4009283"><ele>82.0</ele><time>2026-04-16T12:12:01.789Z</time></trkpt><trkpt lat="40.5783667" lon="8.4011217"><ele>82.0</ele><time>2026-04-16T12:12:02.789Z</time></trkpt><trkpt lat="40.5784233" lon="8.4013117"><ele>82.0</ele><time>2026-04-16T12:12:03.789Z</time></trkpt><trkpt lat="40.5784733" lon="8.4015067"><ele>82.0</ele><time>2026-04-16T12:12:04.789Z</time></trkpt><trkpt lat="40.578525" lon="8.4017117"><ele>80.66666666666666</ele><time>2026-04-16T12:12:05.788Z</time></trkpt><trkpt lat="40.5785717" lon="8.4019183"><ele>79.33333333333333</ele><time>2026-04-16T12:12:06.789Z</time></trkpt><trkpt lat="40.5786" lon="8.4021317"><ele>78.0</ele><time>2026-04-16T12:12:07.789Z</time></trkpt><trkpt lat="40.57862" lon="8.4023517"><ele>77.0</ele><time>2026-04-16T12:12:08.788Z</time></trkpt><trkpt lat="40.57863" lon="8.4025733"><ele>76.0</ele><time>2026-04-16T12:12:09.789Z</time></trkpt><trkpt lat="40.5786367" lon="8.402805"><ele>75.0</ele><time>2026-04-16T12:12:10.789Z</time></trkpt><trkpt lat="40.578645" lon="8.4030367"><ele>72.66666666666667</ele><time>2026-04-16T12:12:11.789Z</time></trkpt><trkpt lat="40.5786567" lon="8.40327"><ele>70.33333333333334</ele><time>2026-04-16T12:12:12.789Z</time></trkpt><trkpt lat="40.57867" lon="8.4035017"><ele>68.0</ele><time>2026-04-16T12:12:13.788Z</time></trkpt><trkpt lat="40.5786817" lon="8.4037367"><ele>67.0</ele><time>2026-04-16T12:12:14.789Z</time></trkpt><trkpt lat="40.5786833" lon="8.4039683"><ele>66.0</ele><time>2026-04-16T12:12:15.789Z</time></trkpt><trkpt lat="40.57868" lon="8.404195"><ele>65.0</ele><time>2026-04-16T12:12:16.789Z</time></trkpt><trkpt lat="40.578665" lon="8.404405"><ele>65.0</ele><time>2026-04-16T12:12:17.788Z</time></trkpt><trkpt lat="40.5786417" lon="8.40461"><ele>65.0</ele><time>2026-04-16T12:12:18.788Z</time></trkpt><trkpt lat="40.5786167" lon="8.4048167"><ele>65.0</ele><time>2026-04-16T12:12:19.788Z</time></trkpt><trkpt lat="40.5786083" lon="8.4050233"><ele>64.0</ele><time>2026-04-16T12:12:20.789Z</time></trkpt><trkpt lat="40.578615" lon="8.4052217"><ele>63.0</ele><time>2026-04-16T12:12:21.789Z</time></trkpt><trkpt lat="40.5786267" lon="8.4054233"><ele>62.0</ele><time>2026-04-16T12:12:22.789Z</time></trkpt><trkpt lat="40.5786417" lon="8.4056267"><ele>62.0</ele><time>2026-04-16T12:12:23.789Z</time></trkpt><trkpt lat="40.57866" lon="8.4058383"><ele>62.0</ele><time>2026-04-16T12:12:24.788Z</time></trkpt><trkpt lat="40.578675" lon="8.4060517"><ele>62.0</ele><time>2026-04-16T12:12:25.789Z</time></trkpt><trkpt lat="40.5786917" lon="8.40627"><ele>63.0</ele><time>2026-04-16T12:12:26.788Z</time></trkpt><trkpt lat="40.5787067" lon="8.4064867"><ele>64.0</ele><time>2026-04-16T12:12:27.788Z</time></trkpt><trkpt lat="40.5787233" lon="8.4067083"><ele>65.0</ele><time>2026-04-16T12:12:28.789Z</time></trkpt><trkpt lat="40.5787367" lon="8.4069333"><ele>65.0</ele><time>2026-04-16T12:12:29.789Z</time></trkpt><trkpt lat="40.5787483" lon="8.407155"><ele>65.0</ele><time>2026-04-16T12:12:30.789Z</time></trkpt><trkpt lat="40.57876" lon="8.4073767"><ele>65.0</ele><time>2026-04-16T12:12:31.788Z</time></trkpt><trkpt lat="40.5787667" lon="8.4075983"><ele>67.0</ele><time>2026-04-16T12:12:32.788Z</time></trkpt><trkpt lat="40.5787733" lon="8.4078183"><ele>69.0</ele><time>2026-04-16T12:12:33.788Z</time></trkpt><trkpt lat="40.578785" lon="8.4080367"><ele>71.0</ele><time>2026-04-16T12:12:34.789Z</time></trkpt><trkpt lat="40.5787917" lon="8.4082567"><ele>73.0</ele><time>2026-04-16T12:12:35.788Z</time></trkpt><trkpt lat="40.5787983" lon="8.408485"><ele>75.0</ele><time>2026-04-16T12:12:36.789Z</time></trkpt><trkpt lat="40.5788017" lon="8.408705"><ele>77.0</ele><time>2026-04-16T12:12:37.789Z</time></trkpt><trkpt lat="40.578805" lon="8.4089317"><ele>78.66666666666667</ele><time>2026-04-16T12:12:38.788Z</time></trkpt><trkpt lat="40.57881" lon="8.4091533"><ele>80.33333333333333</ele><time>2026-04-16T12:12:39.788Z</time></trkpt><trkpt lat="40.5788133" lon="8.4093767"><ele>82.0</ele><time>2026-04-16T12:12:40.789Z</time></trkpt><trkpt lat="40.5788317" lon="8.4096017"><ele>82.0</ele><time>2026-04-16T12:12:41.789Z</time></trkpt><trkpt lat="40.578865" lon="8.4098233"><ele>82.0</ele><time>2026-04-16T12:12:42.789Z</time></trkpt><trkpt lat="40.5789083" lon="8.410035"><ele>82.0</ele><time>2026-04-16T12:12:43.789Z</time></trkpt><trkpt lat="40.5789567" lon="8.410235"><ele>82.0</ele><time>2026-04-16T12:12:44.788Z</time></trkpt><trkpt lat="40.5790017" lon="8.4104333"><ele>82.0</ele><time>2026-04-16T12:12:45.788Z</time></trkpt><trkpt lat="40.5790433" lon="8.4106083"><ele>82.0</ele><time>2026-04-16T12:12:46.788Z</time></trkpt><trkpt lat="40.5790833" lon="8.4107783"><ele>82.0</ele><time>2026-04-16T12:12:47.789Z</time></trkpt><trkpt lat="40.5791233" lon="8.4109533"><ele>81.5</ele><time>2026-04-16T12:12:48.788Z</time></trkpt><trkpt lat="40.579155" lon="8.411135"><ele>81.0</ele><time>2026-04-16T12:12:49.789Z</time></trkpt><trkpt lat="40.5791883" lon="8.4113083"><ele>80.5</ele><time>2026-04-16T12:12:50.788Z</time></trkpt><trkpt lat="40.5792167" lon="8.4114817"><ele>80.0</ele><time>2026-04-16T12:12:51.789Z</time></trkpt><trkpt lat="40.57924" lon="8.41166"><ele>78.75</ele><time>2026-04-16T12:12:52.788Z</time></trkpt><trkpt lat="40.5792617" lon="8.4118433"><ele>77.5</ele><time>2026-04-16T12:12:53.788Z</time></trkpt><trkpt lat="40.5792783" lon="8.41203"><ele>76.25</ele><time>2026-04-16T12:12:54.789Z</time></trkpt><trkpt lat="40.5792917" lon="8.412225"><ele>75.0</ele><time>2026-04-16T12:12:55.789Z</time></trkpt><trkpt lat="40.5792983" lon="8.4124317"><ele>73.5</ele><time>2026-04-16T12:12:56.789Z</time></trkpt><trkpt lat="40.5792983" lon="8.412635"><ele>72.0</ele><time>2026-04-16T12:12:57.788Z</time></trkpt><trkpt lat="40.5792967" lon="8.4128333"><ele>70.5</ele><time>2026-04-16T12:12:58.788Z</time></trkpt><trkpt lat="40.5792933" lon="8.4130133"><ele>69.0</ele><time>2026-04-16T12:12:59.789Z</time></trkpt><trkpt lat="40.5792933" lon="8.41318"><ele>68.60000000000001</ele><time>2026-04-16T12:13:00.789Z</time></trkpt><trkpt lat="40.5792867" lon="8.4133317"><ele>68.2</ele><time>2026-04-16T12:13:01.788Z</time></trkpt><trkpt lat="40.5792833" lon="8.4134617"><ele>67.80000000000001</ele><time>2026-04-16T12:13:02.789Z</time></trkpt><trkpt lat="40.5792783" lon="8.4135883"><ele>67.4</ele><time>2026-04-16T12:13:03.788Z</time></trkpt><trkpt lat="40.57927" lon="8.413705"><ele>67.0</ele><time>2026-04-16T12:13:04.788Z</time></trkpt><trkpt lat="40.579255" lon="8.4138167"><ele>68.66666666666666</ele><time>2026-04-16T12:13:05.789Z</time></trkpt><trkpt lat="40.5792367" lon="8.413905"><ele>70.33333333333333</ele><time>2026-04-16T12:13:06.788Z</time></trkpt><trkpt lat="40.579225" lon="8.414005"><ele>72.0</ele><time>2026-04-16T12:13:08.788Z</time></trkpt><trkpt lat="40.57931" lon="8.414065"><ele>73.66666666666667</ele><time>2026-04-16T12:13:11.789Z</time></trkpt><trkpt lat="40.5793783" lon="8.4140533"><ele>75.33333333333334</ele><time>2026-04-16T12:13:12.788Z</time></trkpt><trkpt lat="40.5794633" lon="8.4140317"><ele>77.0</ele><time>2026-04-16T12:13:13.788Z</time></trkpt><trkpt lat="40.579565" lon="8.4140117"><ele>77.0</ele><time>2026-04-16T12:13:14.789Z</time></trkpt><trkpt lat="40.5796733" lon="8.4140067"><ele>77.0</ele><time>2026-04-16T12:13:15.789Z</time></trkpt><trkpt lat="40.579795" lon="8.4140167"><ele>77.0</ele><time>2026-04-16T12:13:16.789Z</time></trkpt><trkpt lat="40.579915" lon="8.41404"><ele>77.0</ele><time>2026-04-16T12:13:17.789Z</time></trkpt><trkpt lat="40.58003" lon="8.41407"><ele>77.0</ele><time>2026-04-16T12:13:18.789Z</time></trkpt><trkpt lat="40.5801517" lon="8.4140983"><ele>77.0</ele><time>2026-04-16T12:13:19.788Z</time></trkpt><trkpt lat="40.5802533" lon="8.4140967"><ele>77.0</ele><time>2026-04-16T12:13:20.788Z</time></trkpt><trkpt lat="40.5803533" lon="8.4140617"><ele>77.0</ele><time>2026-04-16T12:13:21.789Z</time></trkpt><trkpt lat="40.5804433" lon="8.4139967"><ele>77.0</ele><time>2026-04-16T12:13:22.788Z</time></trkpt><trkpt lat="40.5805283" lon="8.4138967"><ele>77.75</ele><time>2026-04-16T12:13:23.789Z</time></trkpt><trkpt lat="40.580615" lon="8.4137667"><ele>78.5</ele><time>2026-04-16T12:13:24.789Z</time></trkpt><trkpt lat="40.5807" lon="8.4136233"><ele>79.25</ele><time>2026-04-16T12:13:25.789Z</time></trkpt><trkpt lat="40.5807883" lon="8.413495"><ele>80.0</ele><time>2026-04-16T12:13:26.789Z</time></trkpt><trkpt lat="40.5808767" lon="8.41336"><ele>80.0</ele><time>2026-04-16T12:13:27.789Z</time></trkpt><trkpt lat="40.5809617" lon="8.41322"><ele>80.0</ele><time>2026-04-16T12:13:28.788Z</time></trkpt><trkpt lat="40.58103" lon="8.4130917"><ele>80.0</ele><time>2026-04-16T12:13:29.789Z</time></trkpt><trkpt lat="40.5810967" lon="8.4129767"><ele>80.0</ele><time>2026-04-16T12:13:30.788Z</time></trkpt><trkpt lat="40.5811683" lon="8.4128667"><ele>80.4</ele><time>2026-04-16T12:13:31.788Z</time></trkpt><trkpt lat="40.5812383" lon="8.41278"><ele>80.8</ele><time>2026-04-16T12:13:32.789Z</time></trkpt><trkpt lat="40.5813233" lon="8.4127233"><ele>81.19999999999999</ele><time>2026-04-16T12:13:33.789Z</time></trkpt><trkpt lat="40.5814283" lon="8.4127067"><ele>81.6</ele><time>2026-04-16T12:13:34.789Z</time></trkpt><trkpt lat="40.5815317" lon="8.4127233"><ele>82.0</ele><time>2026-04-16T12:13:35.788Z</time></trkpt><trkpt lat="40.5816283" lon="8.4127733"><ele>82.0</ele><time>2026-04-16T12:13:36.788Z</time></trkpt><trkpt lat="40.58172" lon="8.4128467"><ele>82.0</ele><time>2026-04-16T12:13:37.789Z</time></trkpt><trkpt lat="40.58181" lon="8.4129333"><ele>82.0</ele><time>2026-04-16T12:13:38.789Z</time></trkpt><trkpt lat="40.5819033" lon="8.4130183"><ele>82.0</ele><time>2026-04-16T12:13:39.789Z</time></trkpt><trkpt lat="40.582005" lon="8.4131"><ele>83.75</ele><time>2026-04-16T12:13:40.789Z</time></trkpt><trkpt lat="40.5821133" lon="8.413185"><ele>85.5</ele><time>2026-04-16T12:13:41.789Z</time></trkpt><trkpt lat="40.58223" lon="8.4132633"><ele>87.25</ele><time>2026-04-16T12:13:42.788Z</time></trkpt><trkpt lat="40.58235" lon="8.4133517"><ele>89.0</ele><time>2026-04-16T12:13:43.789Z</time></trkpt><trkpt lat="40.5824733" lon="8.413445"><ele>89.0</ele><time>2026-04-16T12:13:44.789Z</time></trkpt><trkpt lat="40.582595" lon="8.4135367"><ele>89.0</ele><time>2026-04-16T12:13:45.788Z</time></trkpt><trkpt lat="40.5827183" lon="8.413635"><ele>89.0</ele><time>2026-04-16T12:13:46.789Z</time></trkpt><trkpt lat="40.5828433" lon="8.41373"><ele>89.0</ele><time>2026-04-16T12:13:47.788Z</time></trkpt><trkpt lat="40.58295" lon="8.413815"><ele>92.5</ele><time>2026-04-16T12:13:48.789Z</time></trkpt><trkpt lat="40.5830533" lon="8.4139083"><ele>96.0</ele><time>2026-04-16T12:13:49.788Z</time></trkpt><trkpt lat="40.5831617" lon="8.4140117"><ele>99.5</ele><time>2026-04-16T12:13:50.789Z</time></trkpt><trkpt lat="40.5832583" lon="8.4141283"><ele>103.0</ele><time>2026-04-16T12:13:51.788Z</time></trkpt><trkpt lat="40.583335" lon="8.4142717"><ele>103.0</ele><time>2026-04-16T12:13:52.788Z</time></trkpt><trkpt lat="40.5833933" lon="8.4144233"><ele>103.0</ele><time>2026-04-16T12:13:53.789Z</time></trkpt><trkpt lat="40.5834417" lon="8.4145817"><ele>103.0</ele><time>2026-04-16T12:13:54.789Z</time></trkpt><trkpt lat="40.58349" lon="8.4147367"><ele>103.0</ele><time>2026-04-16T12:13:55.788Z</time></trkpt><trkpt lat="40.5835383" lon="8.4148983"><ele>103.5</ele><time>2026-04-16T12:13:56.789Z</time></trkpt><trkpt lat="40.5835917" lon="8.41507"><ele>104.0</ele><time>2026-04-16T12:13:57.788Z</time></trkpt><trkpt lat="40.5836483" lon="8.4152433"><ele>104.5</ele><time>2026-04-16T12:13:58.789Z</time></trkpt><trkpt lat="40.5837017" lon="8.4154167"><ele>105.0</ele><time>2026-04-16T12:13:59.789Z</time></trkpt><trkpt lat="40.5837567" lon="8.4156067"><ele>106.66666666666666</ele><time>2026-04-16T12:14:00.789Z</time></trkpt><trkpt lat="40.5838083" lon="8.4158067"><ele>108.33333333333333</ele><time>2026-04-16T12:14:01.788Z</time></trkpt><trkpt lat="40.5838583" lon="8.4160117"><ele>110.0</ele><time>2026-04-16T12:14:02.789Z</time></trkpt><trkpt lat="40.5838933" lon="8.41621"><ele>110.75</ele><time>2026-04-16T12:14:03.788Z</time></trkpt><trkpt lat="40.5839133" lon="8.4164"><ele>111.5</ele><time>2026-04-16T12:14:04.788Z</time></trkpt><trkpt lat="40.5839133" lon="8.41658"><ele>112.25</ele><time>2026-04-16T12:14:05.788Z</time></trkpt><trkpt lat="40.5838833" lon="8.4167483"><ele>113.0</ele><time>2026-04-16T12:14:06.789Z</time></trkpt><trkpt lat="40.5838433" lon="8.41691"><ele>113.0</ele><time>2026-04-16T12:14:07.788Z</time></trkpt><trkpt lat="40.5838033" lon="8.41708"><ele>113.0</ele><time>2026-04-16T12:14:08.789Z</time></trkpt><trkpt lat="40.5837683" lon="8.41726"><ele>113.0</ele><time>2026-04-16T12:14:09.789Z</time></trkpt><trkpt lat="40.58375" lon="8.4174517"><ele>113.0</ele><time>2026-04-16T12:14:10.787Z</time></trkpt><trkpt lat="40.5837467" lon="8.4176417"><ele>113.25</ele><time>2026-04-16T12:14:11.787Z</time></trkpt><trkpt lat="40.58374" lon="8.4178183"><ele>113.5</ele><time>2026-04-16T12:14:12.788Z</time></trkpt><trkpt lat="40.5837167" lon="8.4179733"><ele>113.75</ele><time>2026-04-16T12:14:13.788Z</time></trkpt><trkpt lat="40.583675" lon="8.4181117"><ele>114.0</ele><time>2026-04-16T12:14:14.787Z</time></trkpt><trkpt lat="40.5836217" lon="8.41824"><ele>120.5</ele><time>2026-04-16T12:14:15.787Z</time></trkpt><trkpt lat="40.5835667" lon="8.41838"><ele>127.0</ele><time>2026-04-16T12:14:16.788Z</time></trkpt><trkpt lat="40.58351" lon="8.418525"><ele>133.5</ele><time>2026-04-16T12:14:17.788Z</time></trkpt><trkpt lat="40.5834433" lon="8.41866"><ele>140.0</ele><time>2026-04-16T12:14:18.787Z</time></trkpt><trkpt lat="40.5833717" lon="8.4187933"><ele>138.5</ele><time>2026-04-16T12:14:19.787Z</time></trkpt><trkpt lat="40.58329" lon="8.418925"><ele>137.0</ele><time>2026-04-16T12:14:20.787Z</time></trkpt><trkpt lat="40.58321" lon="8.41905"><ele>135.5</ele><time>2026-04-16T12:14:21.788Z</time></trkpt><trkpt lat="40.5831483" lon="8.419165"><ele>134.0</ele><time>2026-04-16T12:14:22.788Z</time></trkpt><trkpt lat="40.583105" lon="8.4192733"><ele>134.0</ele><time>2026-04-16T12:14:23.788Z</time></trkpt><trkpt lat="40.5830883" lon="8.4193833"><ele>134.0</ele><time>2026-04-16T12:14:24.787Z</time></trkpt><trkpt lat="40.5830983" lon="8.4194983"><ele>134.0</ele><time>2026-04-16T12:14:25.788Z</time></trkpt><trkpt lat="40.583125" lon="8.4196167"><ele>134.0</ele><time>2026-04-16T12:14:26.787Z</time></trkpt><trkpt lat="40.5831583" lon="8.4197367"><ele>134.0</ele><time>2026-04-16T12:14:27.788Z</time></trkpt><trkpt lat="40.5831967" lon="8.4198717"><ele>134.25</ele><time>2026-04-16T12:14:28.788Z</time></trkpt><trkpt lat="40.5832333" lon="8.4200117"><ele>134.5</ele><time>2026-04-16T12:14:29.787Z</time></trkpt><trkpt lat="40.5832617" lon="8.420155"><ele>134.75</ele><time>2026-04-16T12:14:30.787Z</time></trkpt><trkpt lat="40.5832833" lon="8.4203083"><ele>135.0</ele><time>2026-04-16T12:14:31.787Z</time></trkpt><trkpt lat="40.5833017" lon="8.4204717"><ele>135.75</ele><time>2026-04-16T12:14:32.787Z</time></trkpt><trkpt lat="40.5833083" lon="8.420645"><ele>136.5</ele><time>2026-04-16T12:14:33.787Z</time></trkpt><trkpt lat="40.5833083" lon="8.4208217"><ele>137.25</ele><time>2026-04-16T12:14:34.788Z</time></trkpt><trkpt lat="40.5833033" lon="8.421005"><ele>138.0</ele><time>2026-04-16T12:14:35.788Z</time></trkpt><trkpt lat="40.583295" lon="8.4211933"><ele>138.33333333333334</ele><time>2026-04-16T12:14:36.788Z</time></trkpt><trkpt lat="40.5832883" lon="8.4213933"><ele>138.66666666666669</ele><time>2026-04-16T12:14:37.788Z</time></trkpt><trkpt lat="40.58328" lon="8.4216"><ele>139.0</ele><time>2026-04-16T12:14:38.787Z</time></trkpt><trkpt lat="40.5832667" lon="8.4218133"><ele>139.0</ele><time>2026-04-16T12:14:39.788Z</time></trkpt><trkpt lat="40.58325" lon="8.4220183"><ele>139.0</ele><time>2026-04-16T12:14:40.788Z</time></trkpt><trkpt lat="40.5832233" lon="8.42222"><ele>139.0</ele><time>2026-04-16T12:14:41.788Z</time></trkpt><trkpt lat="40.58319" lon="8.422425"><ele>140.0</ele><time>2026-04-16T12:14:42.787Z</time></trkpt><trkpt lat="40.5831533" lon="8.4226233"><ele>141.0</ele><time>2026-04-16T12:14:43.788Z</time></trkpt><trkpt lat="40.58311" lon="8.42282"><ele>142.0</ele><time>2026-04-16T12:14:44.788Z</time></trkpt><trkpt lat="40.5830683" lon="8.4230117"><ele>143.0</ele><time>2026-04-16T12:14:45.788Z</time></trkpt><trkpt lat="40.5830317" lon="8.4232083"><ele>144.0</ele><time>2026-04-16T12:14:46.787Z</time></trkpt><trkpt lat="40.582985" lon="8.4234033"><ele>145.0</ele><time>2026-04-16T12:14:47.787Z</time></trkpt><trkpt lat="40.58294" lon="8.4236017"><ele>145.0</ele><time>2026-04-16T12:14:48.787Z</time></trkpt><trkpt lat="40.5829033" lon="8.423795"><ele>145.0</ele><time>2026-04-16T12:14:49.787Z</time></trkpt><trkpt lat="40.5828667" lon="8.423985"><ele>145.0</ele><time>2026-04-16T12:14:50.787Z</time></trkpt><trkpt lat="40.5828317" lon="8.424175"><ele>145.0</ele><time>2026-04-16T12:14:51.788Z</time></trkpt><trkpt lat="40.5827933" lon="8.4243667"><ele>149.5</ele><time>2026-04-16T12:14:52.787Z</time></trkpt><trkpt lat="40.5827567" lon="8.4245583"><ele>154.0</ele><time>2026-04-16T12:14:53.788Z</time></trkpt><trkpt lat="40.5827217" lon="8.424745"><ele>158.5</ele><time>2026-04-16T12:14:54.788Z</time></trkpt><trkpt lat="40.58269" lon="8.4249383"><ele>163.0</ele><time>2026-04-16T12:14:55.788Z</time></trkpt><trkpt lat="40.5826583" lon="8.4251283"><ele>163.25</ele><time>2026-04-16T12:14:56.787Z</time></trkpt><trkpt lat="40.58263" lon="8.4253183"><ele>163.5</ele><time>2026-04-16T12:14:57.788Z</time></trkpt><trkpt lat="40.5825933" lon="8.4254983"><ele>163.75</ele><time>2026-04-16T12:14:58.787Z</time></trkpt><trkpt lat="40.5825467" lon="8.4256583"><ele>164.0</ele><time>2026-04-16T12:14:59.788Z</time></trkpt><trkpt lat="40.5824983" lon="8.425795"><ele>164.2</ele><time>2026-04-16T12:15:00.787Z</time></trkpt><trkpt lat="40.5824483" lon="8.4259167"><ele>164.39999999999998</ele><time>2026-04-16T12:15:01.788Z</time></trkpt><trkpt lat="40.5824017" lon="8.4260417"><ele>164.6</ele><time>2026-04-16T12:15:02.787Z</time></trkpt><trkpt lat="40.5823583" lon="8.4261633"><ele>164.8</ele><time>2026-04-16T12:15:03.787Z</time></trkpt><trkpt lat="40.582315" lon="8.426285"><ele>165.0</ele><time>2026-04-16T12:15:04.788Z</time></trkpt><trkpt lat="40.5822717" lon="8.4264017"><ele>165.0</ele><time>2026-04-16T12:15:05.788Z</time></trkpt><trkpt lat="40.5822217" lon="8.4265033"><ele>165.0</ele><time>2026-04-16T12:15:06.788Z</time></trkpt><trkpt lat="40.5821533" lon="8.4265967"><ele>165.0</ele><time>2026-04-16T12:15:07.787Z</time></trkpt><trkpt lat="40.5820733" lon="8.4266783"><ele>165.0</ele><time>2026-04-16T12:15:08.788Z</time></trkpt><trkpt lat="40.5819983" lon="8.4267333"><ele>165.0</ele><time>2026-04-16T12:15:09.787Z</time></trkpt><trkpt lat="40.581915" lon="8.4267567"><ele>165.0</ele><time>2026-04-16T12:15:10.788Z</time></trkpt><trkpt lat="40.581825" lon="8.4267517"><ele>165.0</ele><time>2026-04-16T12:15:11.788Z</time></trkpt><trkpt lat="40.581725" lon="8.42673"><ele>165.0</ele><time>2026-04-16T12:15:12.788Z</time></trkpt><trkpt lat="40.5816167" lon="8.4266967"><ele>165.0</ele><time>2026-04-16T12:15:13.787Z</time></trkpt><trkpt lat="40.5814983" lon="8.4266683"><ele>165.0</ele><time>2026-04-16T12:15:14.788Z</time></trkpt><trkpt lat="40.581375" lon="8.42664"><ele>165.0</ele><time>2026-04-16T12:15:15.787Z</time></trkpt><trkpt lat="40.5812483" lon="8.4266333"><ele>165.0</ele><time>2026-04-16T12:15:16.788Z</time></trkpt><trkpt lat="40.581125" lon="8.4266583"><ele>165.0</ele><time>2026-04-16T12:15:17.787Z</time></trkpt><trkpt lat="40.581015" lon="8.4267033"><ele>165.0</ele><time>2026-04-16T12:15:18.788Z</time></trkpt><trkpt lat="40.5809167" lon="8.4267783"><ele>165.25</ele><time>2026-04-16T12:15:19.787Z</time></trkpt><trkpt lat="40.5808233" lon="8.4268617"><ele>165.5</ele><time>2026-04-16T12:15:20.788Z</time></trkpt><trkpt lat="40.5807267" lon="8.4269517"><ele>165.75</ele><time>2026-04-16T12:15:21.788Z</time></trkpt><trkpt lat="40.5806283" lon="8.4270417"><ele>166.0</ele><time>2026-04-16T12:15:22.788Z</time></trkpt><trkpt lat="40.5805233" lon="8.4271317"><ele>165.5</ele><time>2026-04-16T12:15:23.788Z</time></trkpt><trkpt lat="40.5804083" lon="8.4272117"><ele>165.0</ele><time>2026-04-16T12:15:24.788Z</time></trkpt><trkpt lat="40.5802883" lon="8.427285"><ele>164.5</ele><time>2026-04-16T12:15:25.787Z</time></trkpt><trkpt lat="40.5801733" lon="8.4273667"><ele>164.0</ele><time>2026-04-16T12:15:26.787Z</time></trkpt><trkpt lat="40.5800567" lon="8.4274583"><ele>164.0</ele><time>2026-04-16T12:15:27.787Z</time></trkpt><trkpt lat="40.5799483" lon="8.4275433"><ele>164.0</ele><time>2026-04-16T12:15:28.788Z</time></trkpt><trkpt lat="40.5798383" lon="8.4276083"><ele>164.0</ele><time>2026-04-16T12:15:29.788Z</time></trkpt><trkpt lat="40.57973" lon="8.4276533"><ele>164.0</ele><time>2026-04-16T12:15:30.788Z</time></trkpt><trkpt lat="40.5796317" lon="8.4277133"><ele>164.0</ele><time>2026-04-16T12:15:31.788Z</time></trkpt><trkpt lat="40.579545" lon="8.4277917"><ele>164.0</ele><time>2026-04-16T12:15:32.788Z</time></trkpt><trkpt lat="40.5794783" lon="8.4279017"><ele>164.0</ele><time>2026-04-16T12:15:33.788Z</time></trkpt><trkpt lat="40.5794417" lon="8.4280417"><ele>164.0</ele><time>2026-04-16T12:15:34.787Z</time></trkpt><trkpt lat="40.57943" lon="8.4281967"><ele>164.0</ele><time>2026-04-16T12:15:35.787Z</time></trkpt><trkpt lat="40.57942" lon="8.4283517"><ele>165.25</ele><time>2026-04-16T12:15:36.787Z</time></trkpt><trkpt lat="40.5793983" lon="8.4285083"><ele>166.5</ele><time>2026-04-16T12:15:37.788Z</time></trkpt><trkpt lat="40.5793733" lon="8.4286733"><ele>167.75</ele><time>2026-04-16T12:15:38.787Z</time></trkpt><trkpt lat="40.5793533" lon="8.4288367"><ele>169.0</ele><time>2026-04-16T12:15:39.788Z</time></trkpt><trkpt lat="40.5793517" lon="8.4289983"><ele>169.75</ele><time>2026-04-16T12:15:40.787Z</time></trkpt><trkpt lat="40.579375" lon="8.4291417"><ele>170.5</ele><time>2026-04-16T12:15:41.788Z</time></trkpt><trkpt lat="40.5794383" lon="8.4292667"><ele>171.25</ele><time>2026-04-16T12:15:42.787Z</time></trkpt><trkpt lat="40.57953" lon="8.4293683"><ele>172.0</ele><time>2026-04-16T12:15:43.788Z</time></trkpt><trkpt lat="40.5796317" lon="8.4294483"><ele>170.6</ele><time>2026-04-16T12:15:44.787Z</time></trkpt><trkpt lat="40.579715" lon="8.429515"><ele>169.2</ele><time>2026-04-16T12:15:45.787Z</time></trkpt><trkpt lat="40.5797933" lon="8.4295867"><ele>167.8</ele><time>2026-04-16T12:15:46.788Z</time></trkpt><trkpt lat="40.5798683" lon="8.42967"><ele>166.4</ele><time>2026-04-16T12:15:47.788Z</time></trkpt><trkpt lat="40.5799333" lon="8.4297717"><ele>165.0</ele><time>2026-04-16T12:15:48.787Z</time></trkpt><trkpt lat="40.5799933" lon="8.4298933"><ele>165.0</ele><time>2026-04-16T12:15:49.787Z</time></trkpt><trkpt lat="40.5800467" lon="8.4300283"><ele>165.0</ele><time>2026-04-16T12:15:50.787Z</time></trkpt><trkpt lat="40.58008" lon="8.4301733"><ele>165.0</ele><time>2026-04-16T12:15:51.788Z</time></trkpt><trkpt lat="40.580105" lon="8.4303283"><ele>165.0</ele><time>2026-04-16T12:15:52.787Z</time></trkpt><trkpt lat="40.58012" lon="8.4305"><ele>166.0</ele><time>2026-04-16T12:15:53.787Z</time></trkpt><trkpt lat="40.5801233" lon="8.4306783"><ele>167.0</ele><time>2026-04-16T12:15:54.787Z</time></trkpt><trkpt lat="40.5801233" lon="8.4308533"><ele>168.0</ele><time>2026-04-16T12:15:55.788Z</time></trkpt><trkpt lat="40.5801383" lon="8.431035"><ele>169.0</ele><time>2026-04-16T12:15:56.788Z</time></trkpt><trkpt lat="40.58018" lon="8.4312083"><ele>170.5</ele><time>2026-04-16T12:15:57.788Z</time></trkpt><trkpt lat="40.580225" lon="8.4313817"><ele>172.0</ele><time>2026-04-16T12:15:58.787Z</time></trkpt><trkpt lat="40.5802483" lon="8.43155"><ele>173.5</ele><time>2026-04-16T12:15:59.787Z</time></trkpt><trkpt lat="40.5802583" lon="8.4317167"><ele>175.0</ele><time>2026-04-16T12:16:00.787Z</time></trkpt><trkpt lat="40.580255" lon="8.4318717"><ele>175.0</ele><time>2026-04-16T12:16:01.788Z</time></trkpt><trkpt lat="40.5802467" lon="8.4320133"><ele>175.0</ele><time>2026-04-16T12:16:02.787Z</time></trkpt><trkpt lat="40.5802183" lon="8.4321433"><ele>175.0</ele><time>2026-04-16T12:16:03.788Z</time></trkpt><trkpt lat="40.5801683" lon="8.4322633"><ele>175.0</ele><time>2026-04-16T12:16:04.787Z</time></trkpt><trkpt lat="40.5801133" lon="8.4323883"><ele>175.0</ele><time>2026-04-16T12:16:05.787Z</time></trkpt><trkpt lat="40.5800583" lon="8.43252"><ele>176.0</ele><time>2026-04-16T12:16:06.788Z</time></trkpt><trkpt lat="40.5800283" lon="8.432665"><ele>177.0</ele><time>2026-04-16T12:16:07.787Z</time></trkpt><trkpt lat="40.5800017" lon="8.432825"><ele>178.0</ele><time>2026-04-16T12:16:08.787Z</time></trkpt><trkpt lat="40.579975" lon="8.43298"><ele>179.0</ele><time>2026-04-16T12:16:09.788Z</time></trkpt><trkpt lat="40.5799283" lon="8.43313"><ele>179.25</ele><time>2026-04-16T12:16:10.787Z</time></trkpt><trkpt lat="40.5798717" lon="8.4332767"><ele>179.5</ele><time>2026-04-16T12:16:11.788Z</time></trkpt><trkpt lat="40.5798033" lon="8.433435"><ele>179.75</ele><time>2026-04-16T12:16:12.788Z</time></trkpt><trkpt lat="40.5797367" lon="8.433585"><ele>180.0</ele><time>2026-04-16T12:16:13.787Z</time></trkpt><trkpt lat="40.5796617" lon="8.4337267"><ele>180.75</ele><time>2026-04-16T12:16:14.788Z</time></trkpt><trkpt lat="40.57958" lon="8.4338533"><ele>181.5</ele><time>2026-04-16T12:16:15.788Z</time></trkpt><trkpt lat="40.5794933" lon="8.4339733"><ele>182.25</ele><time>2026-04-16T12:16:16.788Z</time></trkpt><trkpt lat="40.5794183" lon="8.43411"><ele>183.0</ele><time>2026-04-16T12:16:17.788Z</time></trkpt><trkpt lat="40.57938" lon="8.4342533"><ele>183.0</ele><time>2026-04-16T12:16:18.788Z</time></trkpt><trkpt lat="40.579365" lon="8.4344117"><ele>183.0</ele><time>2026-04-16T12:16:19.788Z</time></trkpt><trkpt lat="40.5793767" lon="8.4345767"><ele>183.0</ele><time>2026-04-16T12:16:20.787Z</time></trkpt><trkpt lat="40.57939" lon="8.434755"><ele>183.0</ele><time>2026-04-16T12:16:21.788Z</time></trkpt><trkpt lat="40.5794" lon="8.4349433"><ele>183.0</ele><time>2026-04-16T12:16:22.788Z</time></trkpt><trkpt lat="40.5793967" lon="8.4351417"><ele>183.0</ele><time>2026-04-16T12:16:23.787Z</time></trkpt><trkpt lat="40.579395" lon="8.4353533"><ele>183.0</ele><time>2026-04-16T12:16:24.788Z</time></trkpt><trkpt lat="40.579395" lon="8.4355767"><ele>183.0</ele><time>2026-04-16T12:16:25.788Z</time></trkpt><trkpt lat="40.5794017" lon="8.43579"><ele>183.0</ele><time>2026-04-16T12:16:26.787Z</time></trkpt><trkpt lat="40.5794067" lon="8.4359833"><ele>183.0</ele><time>2026-04-16T12:16:27.788Z</time></trkpt><trkpt lat="40.579425" lon="8.4361717"><ele>183.25</ele><time>2026-04-16T12:16:28.787Z</time></trkpt><trkpt lat="40.5794567" lon="8.436345"><ele>183.5</ele><time>2026-04-16T12:16:29.788Z</time></trkpt><trkpt lat="40.5795017" lon="8.4365167"><ele>183.75</ele><time>2026-04-16T12:16:30.788Z</time></trkpt><trkpt lat="40.5795567" lon="8.4366867"><ele>184.0</ele><time>2026-04-16T12:16:31.788Z</time></trkpt><trkpt lat="40.5796067" lon="8.4368483"><ele>183.5</ele><time>2026-04-16T12:16:32.788Z</time></trkpt><trkpt lat="40.579645" lon="8.4370067"><ele>183.0</ele><time>2026-04-16T12:16:33.788Z</time></trkpt><trkpt lat="40.5796517" lon="8.4371633"><ele>182.5</ele><time>2026-04-16T12:16:34.787Z</time></trkpt><trkpt lat="40.5796417" lon="8.4373217"><ele>182.0</ele><time>2026-04-16T12:16:35.788Z</time></trkpt><trkpt lat="40.5796233" lon="8.43749"><ele>184.0</ele><time>2026-04-16T12:16:36.788Z</time></trkpt><trkpt lat="40.5796067" lon="8.43766"><ele>186.0</ele><time>2026-04-16T12:16:37.787Z</time></trkpt><trkpt lat="40.5795933" lon="8.437835"><ele>188.0</ele><time>2026-04-16T12:16:38.788Z</time></trkpt><trkpt lat="40.5795767" lon="8.4380167"><ele>190.0</ele><time>2026-04-16T12:16:39.787Z</time></trkpt><trkpt lat="40.57956" lon="8.4381967"><ele>190.75</ele><time>2026-04-16T12:16:40.787Z</time></trkpt><trkpt lat="40.5795467" lon="8.4383783"><ele>191.5</ele><time>2026-04-16T12:16:41.788Z</time></trkpt><trkpt lat="40.5795317" lon="8.4385733"><ele>192.25</ele><time>2026-04-16T12:16:42.788Z</time></trkpt><trkpt lat="40.5795133" lon="8.4387667"><ele>193.0</ele><time>2026-04-16T12:16:43.788Z</time></trkpt><trkpt lat="40.5794917" lon="8.4389583"><ele>194.75</ele><time>2026-04-16T12:16:44.786Z</time></trkpt><trkpt lat="40.57948" lon="8.4391483"><ele>196.5</ele><time>2026-04-16T12:16:45.787Z</time></trkpt><trkpt lat="40.5794633" lon="8.439335"><ele>198.25</ele><time>2026-04-16T12:16:46.787Z</time></trkpt><trkpt lat="40.57945" lon="8.43951"><ele>200.0</ele><time>2026-04-16T12:16:47.786Z</time></trkpt><trkpt lat="40.5794367" lon="8.439665"><ele>200.75</ele><time>2026-04-16T12:16:48.787Z</time></trkpt><trkpt lat="40.5794083" lon="8.4398"><ele>201.5</ele><time>2026-04-16T12:16:49.786Z</time></trkpt><trkpt lat="40.5793517" lon="8.43991"><ele>202.25</ele><time>2026-04-16T12:16:50.786Z</time></trkpt><trkpt lat="40.579275" lon="8.44003"><ele>203.0</ele><time>2026-04-16T12:16:51.787Z</time></trkpt><trkpt lat="40.5792" lon="8.4401633"><ele>203.0</ele><time>2026-04-16T12:16:52.787Z</time></trkpt><trkpt lat="40.5791233" lon="8.4403183"><ele>203.0</ele><time>2026-04-16T12:16:53.787Z</time></trkpt><trkpt lat="40.5790567" lon="8.4404817"><ele>203.0</ele><time>2026-04-16T12:16:54.787Z</time></trkpt><trkpt lat="40.5790083" lon="8.4406533"><ele>203.0</ele><time>2026-04-16T12:16:55.786Z</time></trkpt><trkpt lat="40.5789833" lon="8.4408183"><ele>201.25</ele><time>2026-04-16T12:16:56.786Z</time></trkpt><trkpt lat="40.578965" lon="8.4409783"><ele>199.5</ele><time>2026-04-16T12:16:57.787Z</time></trkpt><trkpt lat="40.5789433" lon="8.4411267"><ele>197.75</ele><time>2026-04-16T12:16:58.787Z</time></trkpt><trkpt lat="40.5789" lon="8.4412783"><ele>196.0</ele><time>2026-04-16T12:16:59.787Z</time></trkpt><trkpt lat="40.5788433" lon="8.44142"><ele>195.75</ele><time>2026-04-16T12:17:00.787Z</time></trkpt><trkpt lat="40.5787783" lon="8.4415517"><ele>195.5</ele><time>2026-04-16T12:17:01.787Z</time></trkpt><trkpt lat="40.5787067" lon="8.44168"><ele>195.25</ele><time>2026-04-16T12:17:02.786Z</time></trkpt><trkpt lat="40.57862" lon="8.4418017"><ele>195.0</ele><time>2026-04-16T12:17:03.787Z</time></trkpt><trkpt lat="40.5785283" lon="8.4419133"><ele>195.0</ele><time>2026-04-16T12:17:04.786Z</time></trkpt><trkpt lat="40.5784267" lon="8.44203"><ele>195.0</ele><time>2026-04-16T12:17:05.787Z</time></trkpt><trkpt lat="40.5783183" lon="8.442155"><ele>195.0</ele><time>2026-04-16T12:17:06.787Z</time></trkpt><trkpt lat="40.5782117" lon="8.442285"><ele>195.0</ele><time>2026-04-16T12:17:07.787Z</time></trkpt><trkpt lat="40.5781083" lon="8.4424267"><ele>192.5</ele><time>2026-04-16T12:17:08.787Z</time></trkpt><trkpt lat="40.5780217" lon="8.44258"><ele>190.0</ele><time>2026-04-16T12:17:09.787Z</time></trkpt><trkpt lat="40.57794" lon="8.4427433"><ele>187.5</ele><time>2026-04-16T12:17:10.787Z</time></trkpt><trkpt lat="40.5778617" lon="8.44291"><ele>185.0</ele><time>2026-04-16T12:17:11.786Z</time></trkpt><trkpt lat="40.5777883" lon="8.44308"><ele>184.33333333333331</ele><time>2026-04-16T12:17:12.787Z</time></trkpt><trkpt lat="40.5777183" lon="8.4432483"><ele>183.66666666666666</ele><time>2026-04-16T12:17:13.787Z</time></trkpt><trkpt lat="40.5776417" lon="8.4434267"><ele>183.0</ele><time>2026-04-16T12:17:14.787Z</time></trkpt><trkpt lat="40.5775717" lon="8.44361"><ele>183.33333333333334</ele><time>2026-04-16T12:17:15.786Z</time></trkpt><trkpt lat="40.5775067" lon="8.4437983"><ele>183.66666666666669</ele><time>2026-04-16T12:17:16.787Z</time></trkpt><trkpt lat="40.577445" lon="8.443985"><ele>184.0</ele><time>2026-04-16T12:17:17.786Z</time></trkpt><trkpt lat="40.5773867" lon="8.4441683"><ele>184.0</ele><time>2026-04-16T12:17:18.787Z</time></trkpt><trkpt lat="40.5773383" lon="8.4443567"><ele>184.0</ele><time>2026-04-16T12:17:19.787Z</time></trkpt><trkpt lat="40.5772983" lon="8.44454"><ele>184.0</ele><time>2026-04-16T12:17:20.787Z</time></trkpt><trkpt lat="40.577255" lon="8.444725"><ele>184.0</ele><time>2026-04-16T12:17:21.787Z</time></trkpt><trkpt lat="40.577215" lon="8.4448983"><ele>184.5</ele><time>2026-04-16T12:17:22.787Z</time></trkpt><trkpt lat="40.57717" lon="8.4450533"><ele>185.0</ele><time>2026-04-16T12:17:23.787Z</time></trkpt><trkpt lat="40.577115" lon="8.4451917"><ele>185.5</ele><time>2026-04-16T12:17:24.787Z</time></trkpt><trkpt lat="40.5770483" lon="8.4453033"><ele>186.0</ele><time>2026-04-16T12:17:25.787Z</time></trkpt><trkpt lat="40.57697" lon="8.4454117"><ele>185.75</ele><time>2026-04-16T12:17:26.787Z</time></trkpt><trkpt lat="40.5768783" lon="8.4455317"><ele>185.5</ele><time>2026-04-16T12:17:27.787Z</time></trkpt><trkpt lat="40.5767783" lon="8.4456633"><ele>185.25</ele><time>2026-04-16T12:17:28.786Z</time></trkpt><trkpt lat="40.576675" lon="8.4457917"><ele>185.0</ele><time>2026-04-16T12:17:29.787Z</time></trkpt><trkpt lat="40.5765617" lon="8.445925"><ele>185.0</ele><time>2026-04-16T12:17:30.787Z</time></trkpt><trkpt lat="40.576455" lon="8.4460667"><ele>185.0</ele><time>2026-04-16T12:17:31.787Z</time></trkpt><trkpt lat="40.57635" lon="8.4462083"><ele>185.0</ele><time>2026-04-16T12:17:32.786Z</time></trkpt><trkpt lat="40.5762467" lon="8.4463383"><ele>185.0</ele><time>2026-04-16T12:17:33.786Z</time></trkpt><trkpt lat="40.5761433" lon="8.4464717"><ele>184.75</ele><time>2026-04-16T12:17:34.787Z</time></trkpt><trkpt lat="40.5760433" lon="8.4466133"><ele>184.5</ele><time>2026-04-16T12:17:35.786Z</time></trkpt><trkpt lat="40.5759517" lon="8.4467567"><ele>184.25</ele><time>2026-04-16T12:17:36.787Z</time></trkpt><trkpt lat="40.5758617" lon="8.4469117"><ele>184.0</ele><time>2026-04-16T12:17:37.787Z</time></trkpt><trkpt lat="40.575775" lon="8.4470717"><ele>184.0</ele><time>2026-04-16T12:17:38.787Z</time></trkpt><trkpt lat="40.5756817" lon="8.4472217"><ele>184.0</ele><time>2026-04-16T12:17:39.787Z</time></trkpt><trkpt lat="40.5755767" lon="8.44735"><ele>184.0</ele><time>2026-04-16T12:17:40.786Z</time></trkpt><trkpt lat="40.5754667" lon="8.4474717"><ele>184.0</ele><time>2026-04-16T12:17:41.786Z</time></trkpt><trkpt lat="40.575345" lon="8.4475683"><ele>185.0</ele><time>2026-04-16T12:17:42.786Z</time></trkpt><trkpt lat="40.575215" lon="8.4476783"><ele>186.0</ele><time>2026-04-16T12:17:43.787Z</time></trkpt><trkpt lat="40.5750833" lon="8.44778"><ele>187.0</ele><time>2026-04-16T12:17:44.787Z</time></trkpt><trkpt lat="40.5749533" lon="8.447885"><ele>186.66666666666669</ele><time>2026-04-16T12:17:45.787Z</time></trkpt><trkpt lat="40.574825" lon="8.4479983"><ele>186.33333333333334</ele><time>2026-04-16T12:17:46.786Z</time></trkpt><trkpt lat="40.5746967" lon="8.4481167"><ele>186.0</ele><time>2026-04-16T12:17:47.787Z</time></trkpt><trkpt lat="40.5745767" lon="8.4482433"><ele>187.33333333333334</ele><time>2026-04-16T12:17:48.786Z</time></trkpt><trkpt lat="40.5744617" lon="8.4483733"><ele>188.66666666666669</ele><time>2026-04-16T12:17:49.787Z</time></trkpt><trkpt lat="40.574345" lon="8.4485"><ele>190.0</ele><time>2026-04-16T12:17:50.787Z</time></trkpt><trkpt lat="40.5742333" lon="8.4486317"><ele>190.0</ele><time>2026-04-16T12:17:51.787Z</time></trkpt><trkpt lat="40.5741217" lon="8.4487567"><ele>190.0</ele><time>2026-04-16T12:17:52.786Z</time></trkpt><trkpt lat="40.5740233" lon="8.4488733"><ele>190.0</ele><time>2026-04-16T12:17:53.787Z</time></trkpt><trkpt lat="40.5739417" lon="8.4489883"><ele>190.0</ele><time>2026-04-16T12:17:54.787Z</time></trkpt><trkpt lat="40.5738783" lon="8.4491017"><ele>190.2</ele><time>2026-04-16T12:17:55.786Z</time></trkpt><trkpt lat="40.57383" lon="8.4492317"><ele>190.4</ele><time>2026-04-16T12:17:56.786Z</time></trkpt><trkpt lat="40.5737933" lon="8.4493717"><ele>190.60000000000002</ele><time>2026-04-16T12:17:57.786Z</time></trkpt><trkpt lat="40.5737533" lon="8.4495067"><ele>190.8</ele><time>2026-04-16T12:17:58.786Z</time></trkpt><trkpt lat="40.5737017" lon="8.4496217"><ele>191.0</ele><time>2026-04-16T12:17:59.787Z</time></trkpt><trkpt lat="40.57364" lon="8.4497317"><ele>191.0</ele><time>2026-04-16T12:18:00.787Z</time></trkpt><trkpt lat="40.5735683" lon="8.4498367"><ele>191.0</ele><time>2026-04-16T12:18:01.786Z</time></trkpt><trkpt lat="40.5734883" lon="8.449935"><ele>191.0</ele><time>2026-04-16T12:18:02.787Z</time></trkpt><trkpt lat="40.5734117" lon="8.4500317"><ele>191.0</ele><time>2026-04-16T12:18:03.787Z</time></trkpt><trkpt lat="40.5733383" lon="8.450135"><ele>191.0</ele><time>2026-04-16T12:18:04.786Z</time></trkpt><trkpt lat="40.573265" lon="8.4502417"><ele>191.0</ele><time>2026-04-16T12:18:05.786Z</time></trkpt><trkpt lat="40.573195" lon="8.450345"><ele>191.0</ele><time>2026-04-16T12:18:06.787Z</time></trkpt><trkpt lat="40.573125" lon="8.4504483"><ele>191.0</ele><time>2026-04-16T12:18:07.787Z</time></trkpt><trkpt lat="40.5730533" lon="8.450555"><ele>191.0</ele><time>2026-04-16T12:18:08.786Z</time></trkpt><trkpt lat="40.5729817" lon="8.450675"><ele>191.0</ele><time>2026-04-16T12:18:09.787Z</time></trkpt><trkpt lat="40.57291" lon="8.4508033"><ele>195.0</ele><time>2026-04-16T12:18:10.786Z</time></trkpt><trkpt lat="40.5728467" lon="8.45094"><ele>199.0</ele><time>2026-04-16T12:18:11.786Z</time></trkpt><trkpt lat="40.5727717" lon="8.4510767"><ele>203.0</ele><time>2026-04-16T12:18:12.786Z</time></trkpt><trkpt lat="40.5726783" lon="8.4512083"><ele>207.0</ele><time>2026-04-16T12:18:13.786Z</time></trkpt><trkpt lat="40.57258" lon="8.451345"><ele>208.0</ele><time>2026-04-16T12:18:14.787Z</time></trkpt><trkpt lat="40.572475" lon="8.4514867"><ele>209.0</ele><time>2026-04-16T12:18:15.786Z</time></trkpt><trkpt lat="40.5723583" lon="8.4516283"><ele>210.0</ele><time>2026-04-16T12:18:16.787Z</time></trkpt><trkpt lat="40.5722283" lon="8.451765"><ele>210.0</ele><time>2026-04-16T12:18:17.787Z</time></trkpt><trkpt lat="40.5720833" lon="8.4519017"><ele>210.0</ele><time>2026-04-16T12:18:18.787Z</time></trkpt><trkpt lat="40.571935" lon="8.4520367"><ele>210.0</ele><time>2026-04-16T12:18:19.787Z</time></trkpt><trkpt lat="40.571785" lon="8.452165"><ele>211.33333333333331</ele><time>2026-04-16T12:18:20.786Z</time></trkpt><trkpt lat="40.571635" lon="8.4522967"><ele>212.66666666666666</ele><time>2026-04-16T12:18:21.786Z</time></trkpt><trkpt lat="40.5714967" lon="8.4524333"><ele>214.0</ele><time>2026-04-16T12:18:22.786Z</time></trkpt><trkpt lat="40.5713567" lon="8.4525733"><ele>214.0</ele><time>2026-04-16T12:18:23.786Z</time></trkpt><trkpt lat="40.57122" lon="8.452715"><ele>214.0</ele><time>2026-04-16T12:18:24.786Z</time></trkpt><trkpt lat="40.5710783" lon="8.4528467"><ele>214.0</ele><time>2026-04-16T12:18:25.786Z</time></trkpt><trkpt lat="40.5709367" lon="8.4529717"><ele>216.0</ele><time>2026-04-16T12:18:26.786Z</time></trkpt><trkpt lat="40.5707983" lon="8.4531"><ele>218.0</ele><time>2026-04-16T12:18:27.786Z</time></trkpt><trkpt lat="40.57066" lon="8.4532317"><ele>220.0</ele><time>2026-04-16T12:18:28.787Z</time></trkpt><trkpt lat="40.5705233" lon="8.4533717"><ele>220.0</ele><time>2026-04-16T12:18:29.787Z</time></trkpt><trkpt lat="40.5703883" lon="8.453515"><ele>220.0</ele><time>2026-04-16T12:18:30.786Z</time></trkpt><trkpt lat="40.5702567" lon="8.4536567"><ele>220.0</ele><time>2026-04-16T12:18:31.786Z</time></trkpt><trkpt lat="40.5701233" lon="8.4537983"><ele>219.33333333333331</ele><time>2026-04-16T12:18:32.786Z</time></trkpt><trkpt lat="40.5699883" lon="8.4539433"><ele>218.66666666666669</ele><time>2026-04-16T12:18:33.786Z</time></trkpt><trkpt lat="40.5698533" lon="8.4540817"><ele>218.0</ele><time>2026-04-16T12:18:34.787Z</time></trkpt><trkpt lat="40.5697233" lon="8.45421"><ele>218.0</ele><time>2026-04-16T12:18:35.787Z</time></trkpt><trkpt lat="40.5695933" lon="8.454335"><ele>218.0</ele><time>2026-04-16T12:18:36.786Z</time></trkpt><trkpt lat="40.5694567" lon="8.454455"><ele>218.0</ele><time>2026-04-16T12:18:37.787Z</time></trkpt><trkpt lat="40.569315" lon="8.454575"><ele>216.33333333333334</ele><time>2026-04-16T12:18:38.786Z</time></trkpt><trkpt lat="40.56917" lon="8.45469"><ele>214.66666666666669</ele><time>2026-04-16T12:18:39.786Z</time></trkpt><trkpt lat="40.5690283" lon="8.45481"><ele>213.0</ele><time>2026-04-16T12:18:40.787Z</time></trkpt><trkpt lat="40.5688917" lon="8.454935"><ele>213.0</ele><time>2026-04-16T12:18:41.787Z</time></trkpt><trkpt lat="40.5687617" lon="8.45507"><ele>213.0</ele><time>2026-04-16T12:18:42.786Z</time></trkpt><trkpt lat="40.568635" lon="8.4552133"><ele>213.0</ele><time>2026-04-16T12:18:43.786Z</time></trkpt><trkpt lat="40.5685083" lon="8.4553533"><ele>213.66666666666669</ele><time>2026-04-16T12:18:44.786Z</time></trkpt><trkpt lat="40.5683767" lon="8.4554917"><ele>214.33333333333334</ele><time>2026-04-16T12:18:45.787Z</time></trkpt><trkpt lat="40.5682483" lon="8.4556283"><ele>215.0</ele><time>2026-04-16T12:18:46.786Z</time></trkpt><trkpt lat="40.56812" lon="8.4557633"><ele>215.0</ele><time>2026-04-16T12:18:47.787Z</time></trkpt><trkpt lat="40.56799" lon="8.4559"><ele>215.0</ele><time>2026-04-16T12:18:48.787Z</time></trkpt><trkpt lat="40.56786" lon="8.4560367"><ele>215.0</ele><time>2026-04-16T12:18:49.786Z</time></trkpt><trkpt lat="40.5677317" lon="8.4561683"><ele>215.0</ele><time>2026-04-16T12:18:50.786Z</time></trkpt><trkpt lat="40.5676017" lon="8.4562883"><ele>215.0</ele><time>2026-04-16T12:18:51.787Z</time></trkpt><trkpt lat="40.567475" lon="8.45641"><ele>215.0</ele><time>2026-04-16T12:18:52.786Z</time></trkpt><trkpt lat="40.567345" lon="8.4565217"><ele>215.0</ele><time>2026-04-16T12:18:53.787Z</time></trkpt><trkpt lat="40.5672133" lon="8.4566317"><ele>215.0</ele><time>2026-04-16T12:18:54.787Z</time></trkpt><trkpt lat="40.5670767" lon="8.4567333"><ele>215.0</ele><time>2026-04-16T12:18:55.787Z</time></trkpt><trkpt lat="40.5669517" lon="8.4568317"><ele>214.75</ele><time>2026-04-16T12:18:56.786Z</time></trkpt><trkpt lat="40.56683" lon="8.456925"><ele>214.5</ele><time>2026-04-16T12:18:57.787Z</time></trkpt><trkpt lat="40.5667183" lon="8.4570117"><ele>214.25</ele><time>2026-04-16T12:18:58.787Z</time></trkpt><trkpt lat="40.5666117" lon="8.4570983"><ele>214.0</ele><time>2026-04-16T12:18:59.787Z</time></trkpt><trkpt lat="40.566505" lon="8.4571717"><ele>214.0</ele><time>2026-04-16T12:19:00.786Z</time></trkpt><trkpt lat="40.5663983" lon="8.4572367"><ele>213.99999999999997</ele><time>2026-04-16T12:19:01.787Z</time></trkpt><trkpt lat="40.5662983" lon="8.45729"><ele>213.99999999999997</ele><time>2026-04-16T12:19:02.787Z</time></trkpt><trkpt lat="40.5661983" lon="8.457345"><ele>214.0</ele><time>2026-04-16T12:19:03.786Z</time></trkpt><trkpt lat="40.5661" lon="8.457395"><ele>214.0</ele><time>2026-04-16T12:19:04.787Z</time></trkpt><trkpt lat="40.566015" lon="8.4574483"><ele>215.16666666666666</ele><time>2026-04-16T12:19:05.787Z</time></trkpt><trkpt lat="40.5659533" lon="8.4574967"><ele>216.33333333333331</ele><time>2026-04-16T12:19:06.787Z</time></trkpt><trkpt lat="40.5659017" lon="8.45764"><ele>217.5</ele><time>2026-04-16T12:19:08.786Z</time></trkpt><trkpt lat="40.565905" lon="8.4577533"><ele>218.66666666666669</ele><time>2026-04-16T12:19:09.786Z</time></trkpt><trkpt lat="40.5659117" lon="8.45786"><ele>219.83333333333334</ele><time>2026-04-16T12:19:10.787Z</time></trkpt><trkpt lat="40.56593" lon="8.457965"><ele>221.0</ele><time>2026-04-16T12:19:11.787Z</time></trkpt><trkpt lat="40.5659567" lon="8.4580517"><ele>222.00000000000003</ele><time>2026-04-16T12:19:12.787Z</time></trkpt><trkpt lat="40.5659983" lon="8.45812"><ele>223.0</ele><time>2026-04-16T12:19:13.786Z</time></trkpt><trkpt lat="40.566105" lon="8.4581633"><ele>224.0</ele><time>2026-04-16T12:19:15.787Z</time></trkpt><trkpt lat="40.5661567" lon="8.4582167"><ele>225.0</ele><time>2026-04-16T12:19:17.786Z</time></trkpt><trkpt lat="40.5661017" lon="8.4582833"><ele>226.00000000000003</ele><time>2026-04-16T12:19:35.786Z</time></trkpt><trkpt lat="40.5660333" lon="8.458285"><ele>227.0</ele><time>2026-04-16T12:19:36.786Z</time></trkpt><trkpt lat="40.5659533" lon="8.45828"><ele>227.0</ele><time>2026-04-16T12:19:37.785Z</time></trkpt><trkpt lat="40.5658617" lon="8.458275"><ele>227.0</ele><time>2026-04-16T12:19:38.786Z</time></trkpt><trkpt lat="40.5657583" lon="8.458285"><ele>227.0</ele><time>2026-04-16T12:19:39.786Z</time></trkpt><trkpt lat="40.56565" lon="8.4582917"><ele>227.0</ele><time>2026-04-16T12:19:40.785Z</time></trkpt><trkpt lat="40.565535" lon="8.4582917"><ele>227.0</ele><time>2026-04-16T12:19:41.786Z</time></trkpt><trkpt lat="40.56541" lon="8.458295"><ele>228.25</ele><time>2026-04-16T12:19:42.786Z</time></trkpt><trkpt lat="40.565275" lon="8.458305"><ele>229.5</ele><time>2026-04-16T12:19:43.785Z</time></trkpt><trkpt lat="40.5651367" lon="8.4583117"><ele>230.75</ele><time>2026-04-16T12:19:44.785Z</time></trkpt><trkpt lat="40.5650017" lon="8.4583217"><ele>232.0</ele><time>2026-04-16T12:19:45.785Z</time></trkpt><trkpt lat="40.5648617" lon="8.4583283"><ele>232.0</ele><time>2026-04-16T12:19:46.785Z</time></trkpt><trkpt lat="40.56472" lon="8.4583383"><ele>232.0</ele><time>2026-04-16T12:19:47.786Z</time></trkpt><trkpt lat="40.564575" lon="8.458335"><ele>232.0</ele><time>2026-04-16T12:19:48.786Z</time></trkpt><trkpt lat="40.5644283" lon="8.4583217"><ele>232.0</ele><time>2026-04-16T12:19:49.786Z</time></trkpt><trkpt lat="40.5642883" lon="8.4583"><ele>233.6</ele><time>2026-04-16T12:19:50.786Z</time></trkpt><trkpt lat="40.5641667" lon="8.458285"><ele>235.2</ele><time>2026-04-16T12:19:51.785Z</time></trkpt><trkpt lat="40.56405" lon="8.4582633"><ele>236.8</ele><time>2026-04-16T12:19:52.785Z</time></trkpt><trkpt lat="40.5639433" lon="8.4582517"><ele>238.4</ele><time>2026-04-16T12:19:53.786Z</time></trkpt><trkpt lat="40.56385" lon="8.458235"><ele>240.0</ele><time>2026-04-16T12:19:54.786Z</time></trkpt><trkpt lat="40.5637667" lon="8.4582283"><ele>240.0</ele><time>2026-04-16T12:19:55.786Z</time></trkpt><trkpt lat="40.563695" lon="8.4582233"><ele>240.0</ele><time>2026-04-16T12:19:56.785Z</time></trkpt><trkpt lat="40.5636217" lon="8.458275"><ele>240.0</ele><time>2026-04-16T12:19:58.785Z</time></trkpt><trkpt lat="40.56365" lon="8.4583617"><ele>240.0</ele><time>2026-04-16T12:20:01.786Z</time></trkpt><trkpt lat="40.5637333" lon="8.458415"><ele>240.0</ele><time>2026-04-16T12:20:09.785Z</time></trkpt><trkpt lat="40.563805" lon="8.4584517"><ele>240.0</ele><time>2026-04-16T12:20:10.785Z</time></trkpt><trkpt lat="40.563885" lon="8.4584833"><ele>240.0</ele><time>2026-04-16T12:20:11.785Z</time></trkpt><trkpt lat="40.5639717" lon="8.45852"><ele>240.0</ele><time>2026-04-16T12:20:12.786Z</time></trkpt><trkpt lat="40.56406" lon="8.4585617"><ele>240.0</ele><time>2026-04-16T12:20:13.785Z</time></trkpt><trkpt lat="40.564155" lon="8.458605"><ele>240.0</ele><time>2026-04-16T12:20:14.786Z</time></trkpt><trkpt lat="40.56426" lon="8.458655"><ele>240.0</ele><time>2026-04-16T12:20:15.785Z</time></trkpt><trkpt lat="40.5643617" lon="8.4587083"><ele>240.0</ele><time>2026-04-16T12:20:16.785Z</time></trkpt><trkpt lat="40.5644567" lon="8.458765"><ele>240.0</ele><time>2026-04-16T12:20:17.786Z</time></trkpt><trkpt lat="40.56455" lon="8.4588417"><ele>240.0</ele><time>2026-04-16T12:20:18.786Z</time></trkpt><trkpt lat="40.5646317" lon="8.4589367"><ele>240.0</ele><time>2026-04-16T12:20:19.786Z</time></trkpt><trkpt lat="40.5646983" lon="8.4590433"><ele>240.0</ele><time>2026-04-16T12:20:20.786Z</time></trkpt><trkpt lat="40.5647433" lon="8.4591683"><ele>241.6</ele><time>2026-04-16T12:20:21.785Z</time></trkpt><trkpt lat="40.564785" lon="8.45931"><ele>243.2</ele><time>2026-04-16T12:20:22.786Z</time></trkpt><trkpt lat="40.564815" lon="8.4594367"><ele>244.8</ele><time>2026-04-16T12:20:23.785Z</time></trkpt><trkpt lat="40.56482" lon="8.4595583"><ele>246.4</ele><time>2026-04-16T12:20:24.785Z</time></trkpt><trkpt lat="40.564805" lon="8.4596833"><ele>248.0</ele><time>2026-04-16T12:20:25.786Z</time></trkpt><trkpt lat="40.5647617" lon="8.459805"><ele>248.66666666666669</ele><time>2026-04-16T12:20:26.786Z</time></trkpt><trkpt lat="40.564705" lon="8.4599017"><ele>249.33333333333334</ele><time>2026-04-16T12:20:27.785Z</time></trkpt><trkpt lat="40.564635" lon="8.4599683"><ele>250.0</ele><time>2026-04-16T12:20:28.786Z</time></trkpt><trkpt lat="40.56457" lon="8.4600183"><ele>250.66666666666669</ele><time>2026-04-16T12:20:29.786Z</time></trkpt><trkpt lat="40.564495" lon="8.4600617"><ele>251.33333333333334</ele><time>2026-04-16T12:20:30.785Z</time></trkpt><trkpt lat="40.5644133" lon="8.4601067"><ele>252.0</ele><time>2026-04-16T12:20:31.786Z</time></trkpt><trkpt lat="40.5643283" lon="8.46015"><ele>253.33333333333334</ele><time>2026-04-16T12:20:32.786Z</time></trkpt><trkpt lat="40.5642433" lon="8.4601867"><ele>254.66666666666669</ele><time>2026-04-16T12:20:33.786Z</time></trkpt><trkpt lat="40.564165" lon="8.4602217"><ele>256.0</ele><time>2026-04-16T12:20:34.786Z</time></trkpt><trkpt lat="40.5640983" lon="8.4602517"><ele>257.33333333333337</ele><time>2026-04-16T12:20:35.785Z</time></trkpt><trkpt lat="40.564" lon="8.460285"><ele>258.6666666666667</ele><time>2026-04-16T12:20:37.785Z</time></trkpt><trkpt lat="40.5639233" lon="8.4603167"><ele>260.0</ele><time>2026-04-16T12:20:40.786Z</time></trkpt><trkpt lat="40.5639217" lon="8.460435"><ele>260.0</ele><time>2026-04-16T12:20:43.786Z</time></trkpt><trkpt lat="40.5639983" lon="8.460455"><ele>260.0</ele><time>2026-04-16T12:20:45.785Z</time></trkpt><trkpt lat="40.5640567" lon="8.4603967"><ele>260.0</ele><time>2026-04-16T12:20:46.786Z</time></trkpt><trkpt lat="40.5641183" lon="8.4603283"><ele>260.0</ele><time>2026-04-16T12:20:47.785Z</time></trkpt><trkpt lat="40.5641917" lon="8.460265"><ele>260.0</ele><time>2026-04-16T12:20:48.786Z</time></trkpt><trkpt lat="40.5642733" lon="8.4602167"><ele>260.0</ele><time>2026-04-16T12:20:49.786Z</time></trkpt><trkpt lat="40.564355" lon="8.4601717"><ele>260.0</ele><time>2026-04-16T12:20:50.786Z</time></trkpt><trkpt lat="40.5644317" lon="8.4601433"><ele>260.0</ele><time>2026-04-16T12:20:51.786Z</time></trkpt><trkpt lat="40.564495" lon="8.4601283"><ele>260.0</ele><time>2026-04-16T12:20:52.786Z</time></trkpt><trkpt lat="40.564555" lon="8.4601967"><ele>260.0</ele><time>2026-04-16T12:20:54.786Z</time></trkpt><trkpt lat="40.564575" lon="8.4602983"><ele>260.0</ele><time>2026-04-16T12:20:56.786Z</time></trkpt><trkpt lat="40.5645667" lon="8.4604317"><ele>260.0</ele><time>2026-04-16T12:20:58.786Z</time></trkpt><trkpt lat="40.564525" lon="8.4604967"><ele>259.6</ele><time>2026-04-16T12:20:59.785Z</time></trkpt><trkpt lat="40.5644633" lon="8.4605633"><ele>259.2</ele><time>2026-04-16T12:21:00.786Z</time></trkpt><trkpt lat="40.5643967" lon="8.4606383"><ele>258.8</ele><time>2026-04-16T12:21:01.786Z</time></trkpt><trkpt lat="40.5643217" lon="8.4607283"><ele>258.4</ele><time>2026-04-16T12:21:02.785Z</time></trkpt><trkpt lat="40.564245" lon="8.460825"><ele>258.0</ele><time>2026-04-16T12:21:03.785Z</time></trkpt><trkpt lat="40.5641633" lon="8.4609267"><ele>258.0</ele><time>2026-04-16T12:21:04.785Z</time></trkpt><trkpt lat="40.56407" lon="8.46102"><ele>258.0</ele><time>2026-04-16T12:21:05.786Z</time></trkpt><trkpt lat="40.5639667" lon="8.4611017"><ele>258.0</ele><time>2026-04-16T12:21:06.786Z</time></trkpt><trkpt lat="40.56385" lon="8.4611633"><ele>258.0</ele><time>2026-04-16T12:21:07.786Z</time></trkpt><trkpt lat="40.5637317" lon="8.461225"><ele>257.5</ele><time>2026-04-16T12:21:08.786Z</time></trkpt><trkpt lat="40.5636067" lon="8.46127"><ele>257.0</ele><time>2026-04-16T12:21:09.786Z</time></trkpt><trkpt lat="40.5634833" lon="8.4613217"><ele>256.5</ele><time>2026-04-16T12:21:10.785Z</time></trkpt><trkpt lat="40.5633633" lon="8.461385"><ele>256.0</ele><time>2026-04-16T12:21:11.786Z</time></trkpt><trkpt lat="40.5632483" lon="8.4614633"><ele>256.0</ele><time>2026-04-16T12:21:12.785Z</time></trkpt><trkpt lat="40.5631383" lon="8.46156"><ele>256.0</ele><time>2026-04-16T12:21:13.786Z</time></trkpt><trkpt lat="40.5630317" lon="8.4616783"><ele>256.0</ele><time>2026-04-16T12:21:14.786Z</time></trkpt><trkpt lat="40.5629267" lon="8.4618"><ele>256.0</ele><time>2026-04-16T12:21:15.785Z</time></trkpt><trkpt lat="40.5628167" lon="8.461915"><ele>254.75</ele><time>2026-04-16T12:21:16.785Z</time></trkpt><trkpt lat="40.5627083" lon="8.4620217"><ele>253.5</ele><time>2026-04-16T12:21:17.786Z</time></trkpt><trkpt lat="40.562605" lon="8.4621333"><ele>252.25</ele><time>2026-04-16T12:21:18.786Z</time></trkpt><trkpt lat="40.5625067" lon="8.4622417"><ele>251.0</ele><time>2026-04-16T12:21:19.786Z</time></trkpt><trkpt lat="40.562415" lon="8.4623483"><ele>251.0</ele><time>2026-04-16T12:21:20.786Z</time></trkpt><trkpt lat="40.56233" lon="8.4624583"><ele>251.00000000000003</ele><time>2026-04-16T12:21:21.785Z</time></trkpt><trkpt lat="40.5622467" lon="8.46256"><ele>251.00000000000003</ele><time>2026-04-16T12:21:22.786Z</time></trkpt><trkpt lat="40.5621667" lon="8.4626633"><ele>251.0</ele><time>2026-04-16T12:21:23.786Z</time></trkpt><trkpt lat="40.56209" lon="8.4627567"><ele>251.0</ele><time>2026-04-16T12:21:24.786Z</time></trkpt><trkpt lat="40.5620067" lon="8.4628333"><ele>251.20000000000002</ele><time>2026-04-16T12:21:25.785Z</time></trkpt><trkpt lat="40.5619183" lon="8.4628933"><ele>251.40000000000003</ele><time>2026-04-16T12:21:26.785Z</time></trkpt><trkpt lat="40.5618333" lon="8.4629483"><ele>251.6</ele><time>2026-04-16T12:21:27.785Z</time></trkpt><trkpt lat="40.561755" lon="8.46302"><ele>251.8</ele><time>2026-04-16T12:21:28.786Z</time></trkpt><trkpt lat="40.5616867" lon="8.4631"><ele>252.0</ele><time>2026-04-16T12:21:29.786Z</time></trkpt><trkpt lat="40.5616433" lon="8.4631867"><ele>250.33333333333334</ele><time>2026-04-16T12:21:30.786Z</time></trkpt><trkpt lat="40.561605" lon="8.463285"><ele>248.66666666666669</ele><time>2026-04-16T12:21:31.786Z</time></trkpt><trkpt lat="40.5615817" lon="8.46338"><ele>247.0</ele><time>2026-04-16T12:21:32.785Z</time></trkpt><trkpt lat="40.561565" lon="8.4635117"><ele>245.33333333333334</ele><time>2026-04-16T12:21:34.786Z</time></trkpt><trkpt lat="40.5615883" lon="8.4635917"><ele>243.66666666666669</ele><time>2026-04-16T12:21:35.786Z</time></trkpt><trkpt lat="40.5616283" lon="8.46369"><ele>242.0</ele><time>2026-04-16T12:21:36.785Z</time></trkpt><trkpt lat="40.5616833" lon="8.4638117"><ele>240.25</ele><time>2026-04-16T12:21:37.786Z</time></trkpt><trkpt lat="40.561745" lon="8.463945"><ele>238.5</ele><time>2026-04-16T12:21:38.786Z</time></trkpt><trkpt lat="40.5618133" lon="8.46408"><ele>236.75</ele><time>2026-04-16T12:21:39.786Z</time></trkpt><trkpt lat="40.5618867" lon="8.464225"><ele>235.0</ele><time>2026-04-16T12:21:40.786Z</time></trkpt><trkpt lat="40.56196" lon="8.4643783"><ele>235.0</ele><time>2026-04-16T12:21:41.785Z</time></trkpt><trkpt lat="40.56203" lon="8.4645317"><ele>235.0</ele><time>2026-04-16T12:21:42.786Z</time></trkpt><trkpt lat="40.56209" lon="8.4646883"><ele>235.0</ele><time>2026-04-16T12:21:43.785Z</time></trkpt><trkpt lat="40.5621667" lon="8.4648417"><ele>235.0</ele><time>2026-04-16T12:21:44.786Z</time></trkpt><trkpt lat="40.562255" lon="8.46499"><ele>233.75</ele><time>2026-04-16T12:21:45.785Z</time></trkpt><trkpt lat="40.5623533" lon="8.4651217"><ele>232.5</ele><time>2026-04-16T12:21:46.786Z</time></trkpt><trkpt lat="40.5624533" lon="8.4652517"><ele>231.25</ele><time>2026-04-16T12:21:47.786Z</time></trkpt><trkpt lat="40.5625533" lon="8.4653833"><ele>230.0</ele><time>2026-04-16T12:21:48.785Z</time></trkpt><trkpt lat="40.5626483" lon="8.46552"><ele>230.0</ele><time>2026-04-16T12:21:49.786Z</time></trkpt><trkpt lat="40.5627383" lon="8.465665"><ele>230.0</ele><time>2026-04-16T12:21:50.785Z</time></trkpt><trkpt lat="40.5628267" lon="8.46581"><ele>230.0</ele><time>2026-04-16T12:21:51.786Z</time></trkpt><trkpt lat="40.5629033" lon="8.465965"><ele>230.0</ele><time>2026-04-16T12:21:52.786Z</time></trkpt><trkpt lat="40.56297" lon="8.466125"><ele>232.0</ele><time>2026-04-16T12:21:53.786Z</time></trkpt><trkpt lat="40.5630333" lon="8.4662783"><ele>234.0</ele><time>2026-04-16T12:21:54.786Z</time></trkpt><trkpt lat="40.563105" lon="8.4664167"><ele>236.0</ele><time>2026-04-16T12:21:55.786Z</time></trkpt><trkpt lat="40.5632033" lon="8.4665317"><ele>238.0</ele><time>2026-04-16T12:21:56.786Z</time></trkpt><trkpt lat="40.5633167" lon="8.4666233"><ele>238.0</ele><time>2026-04-16T12:21:57.785Z</time></trkpt><trkpt lat="40.56343" lon="8.4667167"><ele>238.0</ele><time>2026-04-16T12:21:58.785Z</time></trkpt><trkpt lat="40.5635333" lon="8.46683"><ele>238.0</ele><time>2026-04-16T12:21:59.785Z</time></trkpt><trkpt lat="40.5636317" lon="8.4669567"><ele>238.0</ele><time>2026-04-16T12:22:00.784Z</time></trkpt><trkpt lat="40.56373" lon="8.4670833"><ele>240.75</ele><time>2026-04-16T12:22:01.785Z</time></trkpt><trkpt lat="40.5638333" lon="8.46721"><ele>243.5</ele><time>2026-04-16T12:22:02.785Z</time></trkpt><trkpt lat="40.5639367" lon="8.467325"><ele>246.25</ele><time>2026-04-16T12:22:03.785Z</time></trkpt><trkpt lat="40.5640433" lon="8.4674417"><ele>249.0</ele><time>2026-04-16T12:22:04.784Z</time></trkpt><trkpt lat="40.5641483" lon="8.4675467"><ele>249.0</ele><time>2026-04-16T12:22:05.785Z</time></trkpt><trkpt lat="40.564265" lon="8.4676267"><ele>249.0</ele><time>2026-04-16T12:22:06.785Z</time></trkpt><trkpt lat="40.56438" lon="8.4677017"><ele>249.0</ele><time>2026-04-16T12:22:07.784Z</time></trkpt><trkpt lat="40.5644933" lon="8.4677683"><ele>249.0</ele><time>2026-04-16T12:22:08.785Z</time></trkpt><trkpt lat="40.56461" lon="8.4678333"><ele>252.25</ele><time>2026-04-16T12:22:09.785Z</time></trkpt><trkpt lat="40.5647067" lon="8.46791"><ele>255.5</ele><time>2026-04-16T12:22:10.784Z</time></trkpt><trkpt lat="40.5647917" lon="8.4680133"><ele>258.75</ele><time>2026-04-16T12:22:11.785Z</time></trkpt><trkpt lat="40.5648783" lon="8.468125"><ele>262.0</ele><time>2026-04-16T12:22:12.785Z</time></trkpt><trkpt lat="40.5649617" lon="8.4682383"><ele>262.0</ele><time>2026-04-16T12:22:13.784Z</time></trkpt><trkpt lat="40.565045" lon="8.46835"><ele>262.0</ele><time>2026-04-16T12:22:14.784Z</time></trkpt><trkpt lat="40.5651233" lon="8.4684567"><ele>262.0</ele><time>2026-04-16T12:22:15.785Z</time></trkpt><trkpt lat="40.565205" lon="8.4685267"><ele>262.0</ele><time>2026-04-16T12:22:16.784Z</time></trkpt><trkpt lat="40.565295" lon="8.4685517"><ele>262.0</ele><time>2026-04-16T12:22:17.785Z</time></trkpt><trkpt lat="40.5654" lon="8.46856"><ele>264.0</ele><time>2026-04-16T12:22:18.785Z</time></trkpt><trkpt lat="40.5655117" lon="8.4685633"><ele>266.0</ele><time>2026-04-16T12:22:19.785Z</time></trkpt><trkpt lat="40.5656283" lon="8.468585"><ele>268.0</ele><time>2026-04-16T12:22:20.784Z</time></trkpt><trkpt lat="40.5657483" lon="8.4686283"><ele>270.0</ele><time>2026-04-16T12:22:21.785Z</time></trkpt><trkpt lat="40.5658567" lon="8.4687033"><ele>270.0</ele><time>2026-04-16T12:22:22.785Z</time></trkpt><trkpt lat="40.5659667" lon="8.4687767"><ele>270.0</ele><time>2026-04-16T12:22:23.785Z</time></trkpt><trkpt lat="40.566085" lon="8.4688317"><ele>270.0</ele><time>2026-04-16T12:22:24.784Z</time></trkpt><trkpt lat="40.5662" lon="8.468895"><ele>270.0</ele><time>2026-04-16T12:22:25.785Z</time></trkpt><trkpt lat="40.566325" lon="8.4689633"><ele>270.0</ele><time>2026-04-16T12:22:26.784Z</time></trkpt><trkpt lat="40.5664483" lon="8.4690533"><ele>270.0</ele><time>2026-04-16T12:22:27.785Z</time></trkpt><trkpt lat="40.5665717" lon="8.4691367"><ele>270.0</ele><time>2026-04-16T12:22:28.785Z</time></trkpt><trkpt lat="40.5667" lon="8.469195"><ele>270.0</ele><time>2026-04-16T12:22:29.785Z</time></trkpt><trkpt lat="40.56682" lon="8.4692367"><ele>270.0</ele><time>2026-04-16T12:22:30.785Z</time></trkpt><trkpt lat="40.566925" lon="8.4692783"><ele>270.0</ele><time>2026-04-16T12:22:31.784Z</time></trkpt><trkpt lat="40.5670217" lon="8.469335"><ele>270.0</ele><time>2026-04-16T12:22:32.785Z</time></trkpt><trkpt lat="40.5671117" lon="8.4694133"><ele>270.0</ele><time>2026-04-16T12:22:33.785Z</time></trkpt><trkpt lat="40.56721" lon="8.469515"><ele>270.0</ele><time>2026-04-16T12:22:34.784Z</time></trkpt><trkpt lat="40.567305" lon="8.4696183"><ele>272.0</ele><time>2026-04-16T12:22:35.784Z</time></trkpt><trkpt lat="40.567405" lon="8.4697117"><ele>274.0</ele><time>2026-04-16T12:22:36.785Z</time></trkpt><trkpt lat="40.5675117" lon="8.4698017"><ele>276.0</ele><time>2026-04-16T12:22:37.784Z</time></trkpt><trkpt lat="40.567615" lon="8.4699083"><ele>278.0</ele><time>2026-04-16T12:22:38.784Z</time></trkpt><trkpt lat="40.5677167" lon="8.4700183"><ele>278.0</ele><time>2026-04-16T12:22:39.785Z</time></trkpt><trkpt lat="40.567815" lon="8.470125"><ele>278.0</ele><time>2026-04-16T12:22:40.785Z</time></trkpt><trkpt lat="40.5679117" lon="8.47022"><ele>278.0</ele><time>2026-04-16T12:22:41.785Z</time></trkpt><trkpt lat="40.5680017" lon="8.4703083"><ele>278.0</ele><time>2026-04-16T12:22:42.785Z</time></trkpt><trkpt lat="40.5680917" lon="8.47039"><ele>281.25</ele><time>2026-04-16T12:22:43.784Z</time></trkpt><trkpt lat="40.5681833" lon="8.47047"><ele>284.5</ele><time>2026-04-16T12:22:44.785Z</time></trkpt><trkpt lat="40.5682733" lon="8.4705483"><ele>287.75</ele><time>2026-04-16T12:22:45.784Z</time></trkpt><trkpt lat="40.5683667" lon="8.4706483"><ele>291.0</ele><time>2026-04-16T12:22:46.784Z</time></trkpt><trkpt lat="40.568455" lon="8.47075"><ele>291.0</ele><time>2026-04-16T12:22:47.784Z</time></trkpt><trkpt lat="40.5685417" lon="8.4708733"><ele>291.0</ele><time>2026-04-16T12:22:48.784Z</time></trkpt><trkpt lat="40.5686283" lon="8.4710033"><ele>291.0</ele><time>2026-04-16T12:22:49.785Z</time></trkpt><trkpt lat="40.5687067" lon="8.471145"><ele>291.0</ele><time>2026-04-16T12:22:50.784Z</time></trkpt><trkpt lat="40.5687717" lon="8.4713017"><ele>292.40000000000003</ele><time>2026-04-16T12:22:51.785Z</time></trkpt><trkpt lat="40.5688233" lon="8.47145"><ele>293.8</ele><time>2026-04-16T12:22:52.784Z</time></trkpt><trkpt lat="40.568875" lon="8.47158"><ele>295.20000000000005</ele><time>2026-04-16T12:22:53.784Z</time></trkpt><trkpt lat="40.5689183" lon="8.4717067"><ele>296.6</ele><time>2026-04-16T12:22:54.785Z</time></trkpt><trkpt lat="40.5689633" lon="8.4718333"><ele>298.0</ele><time>2026-04-16T12:22:55.785Z</time></trkpt><trkpt lat="40.5690167" lon="8.471965"><ele>298.0</ele><time>2026-04-16T12:22:56.785Z</time></trkpt><trkpt lat="40.5690767" lon="8.4720933"><ele>298.0</ele><time>2026-04-16T12:22:57.785Z</time></trkpt><trkpt lat="40.5691367" lon="8.4722267"><ele>298.0</ele><time>2026-04-16T12:22:58.785Z</time></trkpt><trkpt lat="40.5691967" lon="8.4723467"><ele>298.0</ele><time>2026-04-16T12:22:59.784Z</time></trkpt><trkpt lat="40.56926" lon="8.472465"><ele>299.4</ele><time>2026-04-16T12:23:00.784Z</time></trkpt><trkpt lat="40.5693283" lon="8.4725767"><ele>300.8</ele><time>2026-04-16T12:23:01.785Z</time></trkpt><trkpt lat="40.5694" lon="8.4726633"><ele>302.2</ele><time>2026-04-16T12:23:02.784Z</time></trkpt><trkpt lat="40.5694783" lon="8.4727217"><ele>303.6</ele><time>2026-04-16T12:23:03.784Z</time></trkpt><trkpt lat="40.56957" lon="8.4727667"><ele>305.0</ele><time>2026-04-16T12:23:04.784Z</time></trkpt><trkpt lat="40.5696767" lon="8.472805"><ele>305.25</ele><time>2026-04-16T12:23:05.785Z</time></trkpt><trkpt lat="40.5697867" lon="8.4728517"><ele>305.5</ele><time>2026-04-16T12:23:06.784Z</time></trkpt><trkpt lat="40.5698967" lon="8.4729083"><ele>305.75</ele><time>2026-04-16T12:23:07.784Z</time></trkpt><trkpt lat="40.5700217" lon="8.4729633"><ele>306.0</ele><time>2026-04-16T12:23:08.785Z</time></trkpt><trkpt lat="40.5701483" lon="8.473015"><ele>307.25</ele><time>2026-04-16T12:23:09.784Z</time></trkpt><trkpt lat="40.5702833" lon="8.47306"><ele>308.5</ele><time>2026-04-16T12:23:10.785Z</time></trkpt><trkpt lat="40.5704283" lon="8.4730917"><ele>309.75</ele><time>2026-04-16T12:23:11.785Z</time></trkpt><trkpt lat="40.5705733" lon="8.4731133"><ele>311.0</ele><time>2026-04-16T12:23:12.784Z</time></trkpt><trkpt lat="40.5707183" lon="8.47313"><ele>311.5</ele><time>2026-04-16T12:23:13.784Z</time></trkpt><trkpt lat="40.5708567" lon="8.4731467"><ele>312.0</ele><time>2026-04-16T12:23:14.785Z</time></trkpt><trkpt lat="40.570995" lon="8.4731567"><ele>312.5</ele><time>2026-04-16T12:23:15.785Z</time></trkpt><trkpt lat="40.57114" lon="8.4731583"><ele>313.0</ele><time>2026-04-16T12:23:16.784Z</time></trkpt><trkpt lat="40.5712817" lon="8.473155"><ele>314.25</ele><time>2026-04-16T12:23:17.785Z</time></trkpt><trkpt lat="40.5714283" lon="8.4731583"><ele>315.5</ele><time>2026-04-16T12:23:18.784Z</time></trkpt><trkpt lat="40.571575" lon="8.4731733"><ele>316.75</ele><time>2026-04-16T12:23:19.784Z</time></trkpt><trkpt lat="40.5717233" lon="8.4731833"><ele>318.0</ele><time>2026-04-16T12:23:20.785Z</time></trkpt><trkpt lat="40.5718733" lon="8.4731783"><ele>318.0</ele><time>2026-04-16T12:23:21.784Z</time></trkpt><trkpt lat="40.572015" lon="8.47317"><ele>318.0</ele><time>2026-04-16T12:23:22.784Z</time></trkpt><trkpt lat="40.57215" lon="8.4731667"><ele>318.0</ele><time>2026-04-16T12:23:23.785Z</time></trkpt><trkpt lat="40.5722733" lon="8.473175"><ele>318.0</ele><time>2026-04-16T12:23:24.784Z</time></trkpt><trkpt lat="40.57239" lon="8.4731983"><ele>319.25</ele><time>2026-04-16T12:23:25.785Z</time></trkpt><trkpt lat="40.5725033" lon="8.4732517"><ele>320.5</ele><time>2026-04-16T12:23:26.785Z</time></trkpt><trkpt lat="40.5726117" lon="8.4733183"><ele>321.75</ele><time>2026-04-16T12:23:27.785Z</time></trkpt><trkpt lat="40.5727217" lon="8.47339"><ele>323.0</ele><time>2026-04-16T12:23:28.785Z</time></trkpt><trkpt lat="40.5728317" lon="8.4734617"><ele>323.75</ele><time>2026-04-16T12:23:29.785Z</time></trkpt><trkpt lat="40.572935" lon="8.4735383"><ele>324.5</ele><time>2026-04-16T12:23:30.785Z</time></trkpt><trkpt lat="40.57303" lon="8.4736317"><ele>325.25</ele><time>2026-04-16T12:23:31.784Z</time></trkpt><trkpt lat="40.573125" lon="8.47374"><ele>326.0</ele><time>2026-04-16T12:23:32.785Z</time></trkpt><trkpt lat="40.5732217" lon="8.4738567"><ele>326.5</ele><time>2026-04-16T12:23:33.785Z</time></trkpt><trkpt lat="40.573315" lon="8.47398"><ele>327.0</ele><time>2026-04-16T12:23:34.784Z</time></trkpt><trkpt lat="40.5734083" lon="8.4741117"><ele>327.5</ele><time>2026-04-16T12:23:35.785Z</time></trkpt><trkpt lat="40.5735033" lon="8.4742417"><ele>328.0</ele><time>2026-04-16T12:23:36.785Z</time></trkpt><trkpt lat="40.5735983" lon="8.4743783"><ele>328.25</ele><time>2026-04-16T12:23:37.785Z</time></trkpt><trkpt lat="40.5736967" lon="8.47452"><ele>328.5</ele><time>2026-04-16T12:23:38.785Z</time></trkpt><trkpt lat="40.5737833" lon="8.4746517"><ele>328.75</ele><time>2026-04-16T12:23:39.784Z</time></trkpt><trkpt lat="40.5738617" lon="8.4747717"><ele>329.0</ele><time>2026-04-16T12:23:40.785Z</time></trkpt><trkpt lat="40.57394" lon="8.47489"><ele>328.6</ele><time>2026-04-16T12:23:41.784Z</time></trkpt><trkpt lat="40.57402" lon="8.475005"><ele>328.2</ele><time>2026-04-16T12:23:42.785Z</time></trkpt><trkpt lat="40.57409" lon="8.47511"><ele>327.8</ele><time>2026-04-16T12:23:43.784Z</time></trkpt><trkpt lat="40.5741533" lon="8.4751867"><ele>327.40000000000003</ele><time>2026-04-16T12:23:44.785Z</time></trkpt><trkpt lat="40.5742133" lon="8.47524"><ele>327.0</ele><time>2026-04-16T12:23:45.784Z</time></trkpt><trkpt lat="40.5742817" lon="8.4752867"><ele>327.0</ele><time>2026-04-16T12:23:46.784Z</time></trkpt><trkpt lat="40.5743683" lon="8.475335"><ele>327.0</ele><time>2026-04-16T12:23:47.784Z</time></trkpt><trkpt lat="40.5744667" lon="8.4753867"><ele>327.0</ele><time>2026-04-16T12:23:48.785Z</time></trkpt><trkpt lat="40.5745767" lon="8.47544"><ele>327.0</ele><time>2026-04-16T12:23:49.784Z</time></trkpt><trkpt lat="40.57468" lon="8.4754967"><ele>327.0</ele><time>2026-04-16T12:23:50.785Z</time></trkpt><trkpt lat="40.5747767" lon="8.4755417"><ele>325.0</ele><time>2026-04-16T12:23:51.785Z</time></trkpt><trkpt lat="40.5748667" lon="8.4755933"><ele>323.0</ele><time>2026-04-16T12:23:52.785Z</time></trkpt><trkpt lat="40.5749533" lon="8.4756617"><ele>321.0</ele><time>2026-04-16T12:23:53.784Z</time></trkpt><trkpt lat="40.5750283" lon="8.4757617"><ele>319.0</ele><time>2026-04-16T12:23:54.785Z</time></trkpt><trkpt lat="40.57511" lon="8.4758767"><ele>317.0</ele><time>2026-04-16T12:23:55.785Z</time></trkpt><trkpt lat="40.5751883" lon="8.4760083"><ele>317.0</ele><time>2026-04-16T12:23:56.785Z</time></trkpt><trkpt lat="40.57528" lon="8.4761417"><ele>317.0</ele><time>2026-04-16T12:23:57.784Z</time></trkpt><trkpt lat="40.5753817" lon="8.47627"><ele>317.0</ele><time>2026-04-16T12:23:58.785Z</time></trkpt><trkpt lat="40.575485" lon="8.4763833"><ele>317.0</ele><time>2026-04-16T12:23:59.785Z</time></trkpt><trkpt lat="40.5755767" lon="8.4765017"><ele>315.25</ele><time>2026-04-16T12:24:00.785Z</time></trkpt><trkpt lat="40.57566" lon="8.476625"><ele>313.5</ele><time>2026-04-16T12:24:01.785Z</time></trkpt><trkpt lat="40.5757267" lon="8.47676"><ele>311.75</ele><time>2026-04-16T12:24:02.785Z</time></trkpt><trkpt lat="40.5757833" lon="8.4769067"><ele>310.0</ele><time>2026-04-16T12:24:03.785Z</time></trkpt><trkpt lat="40.5758267" lon="8.477065"><ele>309.0</ele><time>2026-04-16T12:24:04.784Z</time></trkpt><trkpt lat="40.5758633" lon="8.47723"><ele>308.0</ele><time>2026-04-16T12:24:05.785Z</time></trkpt><trkpt lat="40.5759017" lon="8.477395"><ele>307.0</ele><time>2026-04-16T12:24:06.785Z</time></trkpt><trkpt lat="40.57594" lon="8.477565"><ele>306.0</ele><time>2026-04-16T12:24:07.785Z</time></trkpt><trkpt lat="40.57598" lon="8.47774"><ele>306.0</ele><time>2026-04-16T12:24:08.785Z</time></trkpt><trkpt lat="40.5760283" lon="8.4779217"><ele>306.0</ele><time>2026-04-16T12:24:09.785Z</time></trkpt><trkpt lat="40.5760783" lon="8.4781033"><ele>306.0</ele><time>2026-04-16T12:24:10.784Z</time></trkpt><trkpt lat="40.57614" lon="8.4782767"><ele>306.0</ele><time>2026-04-16T12:24:11.784Z</time></trkpt><trkpt lat="40.5762117" lon="8.47844"><ele>306.0</ele><time>2026-04-16T12:24:12.785Z</time></trkpt><trkpt lat="40.5762783" lon="8.4785933"><ele>306.0</ele><time>2026-04-16T12:24:13.785Z</time></trkpt><trkpt lat="40.5763317" lon="8.478745"><ele>306.0</ele><time>2026-04-16T12:24:14.785Z</time></trkpt><trkpt lat="40.5763733" lon="8.4788833"><ele>306.0</ele><time>2026-04-16T12:24:15.785Z</time></trkpt><trkpt lat="40.5763933" lon="8.47902"><ele>306.0</ele><time>2026-04-16T12:24:16.785Z</time></trkpt><trkpt lat="40.5763917" lon="8.4791583"><ele>306.0</ele><time>2026-04-16T12:24:17.785Z</time></trkpt><trkpt lat="40.5763683" lon="8.4793033"><ele>306.0</ele><time>2026-04-16T12:24:18.785Z</time></trkpt><trkpt lat="40.5763333" lon="8.4794617"><ele>306.0</ele><time>2026-04-16T12:24:19.784Z</time></trkpt><trkpt lat="40.5763017" lon="8.479625"><ele>306.5</ele><time>2026-04-16T12:24:20.784Z</time></trkpt><trkpt lat="40.5762767" lon="8.479805"><ele>307.0</ele><time>2026-04-16T12:24:21.784Z</time></trkpt><trkpt lat="40.57626" lon="8.47999"><ele>307.5</ele><time>2026-04-16T12:24:22.785Z</time></trkpt><trkpt lat="40.57626" lon="8.4801783"><ele>308.0</ele><time>2026-04-16T12:24:23.784Z</time></trkpt><trkpt lat="40.5762667" lon="8.4803683"><ele>307.5</ele><time>2026-04-16T12:24:24.784Z</time></trkpt><trkpt lat="40.5762733" lon="8.4805617"><ele>307.0</ele><time>2026-04-16T12:24:25.785Z</time></trkpt><trkpt lat="40.5762833" lon="8.4807467"><ele>306.5</ele><time>2026-04-16T12:24:26.784Z</time></trkpt><trkpt lat="40.5763033" lon="8.4809283"><ele>306.0</ele><time>2026-04-16T12:24:27.785Z</time></trkpt><trkpt lat="40.5763333" lon="8.4811"><ele>306.0</ele><time>2026-04-16T12:24:28.784Z</time></trkpt><trkpt lat="40.5763867" lon="8.481235"><ele>306.0</ele><time>2026-04-16T12:24:29.785Z</time></trkpt><trkpt lat="40.57646" lon="8.48136"><ele>306.0</ele><time>2026-04-16T12:24:30.785Z</time></trkpt><trkpt lat="40.576555" lon="8.481455"><ele>306.0</ele><time>2026-04-16T12:24:31.785Z</time></trkpt><trkpt lat="40.5766617" lon="8.48153"><ele>304.75</ele><time>2026-04-16T12:24:32.785Z</time></trkpt><trkpt lat="40.5767917" lon="8.481595"><ele>303.5</ele><time>2026-04-16T12:24:33.785Z</time></trkpt><trkpt lat="40.5769333" lon="8.4816717"><ele>302.25</ele><time>2026-04-16T12:24:34.784Z</time></trkpt><trkpt lat="40.5770733" lon="8.48176"><ele>301.0</ele><time>2026-04-16T12:24:35.783Z</time></trkpt><trkpt lat="40.577205" lon="8.4818433"><ele>301.0</ele><time>2026-04-16T12:24:36.784Z</time></trkpt><trkpt lat="40.57733" lon="8.4819167"><ele>301.0</ele><time>2026-04-16T12:24:37.783Z</time></trkpt><trkpt lat="40.577445" lon="8.4819883"><ele>301.0</ele><time>2026-04-16T12:24:38.784Z</time></trkpt><trkpt lat="40.577545" lon="8.482065"><ele>301.0</ele><time>2026-04-16T12:24:39.783Z</time></trkpt><trkpt lat="40.5776333" lon="8.48217"><ele>298.75</ele><time>2026-04-16T12:24:40.784Z</time></trkpt><trkpt lat="40.5777133" lon="8.4823"><ele>296.5</ele><time>2026-04-16T12:24:41.784Z</time></trkpt><trkpt lat="40.57779" lon="8.4824483"><ele>294.25</ele><time>2026-04-16T12:24:42.784Z</time></trkpt><trkpt lat="40.5778683" lon="8.4826033"><ele>292.0</ele><time>2026-04-16T12:24:43.783Z</time></trkpt><trkpt lat="40.57795" lon="8.48277"><ele>292.0</ele><time>2026-04-16T12:24:44.783Z</time></trkpt><trkpt lat="40.57802" lon="8.48293"><ele>292.0</ele><time>2026-04-16T12:24:45.784Z</time></trkpt><trkpt lat="40.5780833" lon="8.4830817"><ele>292.0</ele><time>2026-04-16T12:24:46.784Z</time></trkpt><trkpt lat="40.578165" lon="8.4832183"><ele>292.0</ele><time>2026-04-16T12:24:47.783Z</time></trkpt><trkpt lat="40.5782617" lon="8.4833433"><ele>290.5</ele><time>2026-04-16T12:24:48.784Z</time></trkpt><trkpt lat="40.57835" lon="8.4834483"><ele>289.0</ele><time>2026-04-16T12:24:49.783Z</time></trkpt><trkpt lat="40.57845" lon="8.4835267"><ele>287.5</ele><time>2026-04-16T12:24:50.783Z</time></trkpt><trkpt lat="40.57856" lon="8.48358"><ele>286.0</ele><time>2026-04-16T12:24:51.783Z</time></trkpt><trkpt lat="40.57868" lon="8.4836083"><ele>285.25</ele><time>2026-04-16T12:24:52.784Z</time></trkpt><trkpt lat="40.5788033" lon="8.48364"><ele>284.5</ele><time>2026-04-16T12:24:53.784Z</time></trkpt><trkpt lat="40.5789267" lon="8.483675"><ele>283.75</ele><time>2026-04-16T12:24:54.783Z</time></trkpt><trkpt lat="40.5790417" lon="8.4837183"><ele>283.0</ele><time>2026-04-16T12:24:55.783Z</time></trkpt><trkpt lat="40.5791367" lon="8.4837683"><ele>281.8</ele><time>2026-04-16T12:24:56.784Z</time></trkpt><trkpt lat="40.5792067" lon="8.483835"><ele>280.6</ele><time>2026-04-16T12:24:57.783Z</time></trkpt><trkpt lat="40.579265" lon="8.4839367"><ele>279.4</ele><time>2026-04-16T12:24:58.784Z</time></trkpt><trkpt lat="40.5793" lon="8.48407"><ele>278.2</ele><time>2026-04-16T12:24:59.784Z</time></trkpt><trkpt lat="40.5793217" lon="8.48423"><ele>277.0</ele><time>2026-04-16T12:25:00.784Z</time></trkpt><trkpt lat="40.5793417" lon="8.4844017"><ele>277.0</ele><time>2026-04-16T12:25:01.784Z</time></trkpt><trkpt lat="40.5793583" lon="8.484575"><ele>277.0</ele><time>2026-04-16T12:25:02.784Z</time></trkpt><trkpt lat="40.5793533" lon="8.4847617"><ele>277.0</ele><time>2026-04-16T12:25:03.784Z</time></trkpt><trkpt lat="40.57934" lon="8.4849467"><ele>277.0</ele><time>2026-04-16T12:25:04.783Z</time></trkpt><trkpt lat="40.579325" lon="8.4851317"><ele>276.25</ele><time>2026-04-16T12:25:05.784Z</time></trkpt><trkpt lat="40.5793083" lon="8.48532"><ele>275.5</ele><time>2026-04-16T12:25:06.784Z</time></trkpt><trkpt lat="40.5792933" lon="8.4855"><ele>274.75</ele><time>2026-04-16T12:25:07.784Z</time></trkpt><trkpt lat="40.57927" lon="8.4856717"><ele>274.0</ele><time>2026-04-16T12:25:08.783Z</time></trkpt><trkpt lat="40.5792433" lon="8.4858417"><ele>273.5</ele><time>2026-04-16T12:25:09.783Z</time></trkpt><trkpt lat="40.5792133" lon="8.4860133"><ele>273.0</ele><time>2026-04-16T12:25:10.784Z</time></trkpt><trkpt lat="40.5791867" lon="8.486185"><ele>272.5</ele><time>2026-04-16T12:25:11.784Z</time></trkpt><trkpt lat="40.5791617" lon="8.4863517"><ele>272.0</ele><time>2026-04-16T12:25:12.784Z</time></trkpt><trkpt lat="40.579145" lon="8.4865333"><ele>271.5</ele><time>2026-04-16T12:25:13.784Z</time></trkpt><trkpt lat="40.5791367" lon="8.4867183"><ele>271.0</ele><time>2026-04-16T12:25:14.784Z</time></trkpt><trkpt lat="40.5791317" lon="8.48691"><ele>270.5</ele><time>2026-04-16T12:25:15.783Z</time></trkpt><trkpt lat="40.579125" lon="8.4871"><ele>270.0</ele><time>2026-04-16T12:25:16.783Z</time></trkpt><trkpt lat="40.5791133" lon="8.4872783"><ele>269.25</ele><time>2026-04-16T12:25:17.783Z</time></trkpt><trkpt lat="40.5791" lon="8.4874483"><ele>268.5</ele><time>2026-04-16T12:25:18.783Z</time></trkpt><trkpt lat="40.5791" lon="8.4876133"><ele>267.75</ele><time>2026-04-16T12:25:19.783Z</time></trkpt><trkpt lat="40.5791233" lon="8.4877467"><ele>267.0</ele><time>2026-04-16T12:25:20.784Z</time></trkpt><trkpt lat="40.5791633" lon="8.4878733"><ele>266.0</ele><time>2026-04-16T12:25:21.784Z</time></trkpt><trkpt lat="40.579215" lon="8.4879983"><ele>265.0</ele><time>2026-04-16T12:25:22.784Z</time></trkpt><trkpt lat="40.579275" lon="8.4881317"><ele>264.0</ele><time>2026-04-16T12:25:23.783Z</time></trkpt><trkpt lat="40.5793333" lon="8.4882783"><ele>263.0</ele><time>2026-04-16T12:25:24.784Z</time></trkpt><trkpt lat="40.5793783" lon="8.4884367"><ele>263.0</ele><time>2026-04-16T12:25:25.783Z</time></trkpt><trkpt lat="40.5794133" lon="8.4886083"><ele>263.0</ele><time>2026-04-16T12:25:26.783Z</time></trkpt><trkpt lat="40.5794483" lon="8.4887783"><ele>263.0</ele><time>2026-04-16T12:25:27.783Z</time></trkpt><trkpt lat="40.5794833" lon="8.488955"><ele>263.0</ele><time>2026-04-16T12:25:28.783Z</time></trkpt><trkpt lat="40.579525" lon="8.48913"><ele>262.5</ele><time>2026-04-16T12:25:29.783Z</time></trkpt><trkpt lat="40.579565" lon="8.4893033"><ele>262.0</ele><time>2026-04-16T12:25:30.784Z</time></trkpt><trkpt lat="40.579605" lon="8.48948"><ele>261.5</ele><time>2026-04-16T12:25:31.783Z</time></trkpt><trkpt lat="40.5796467" lon="8.4896483"><ele>261.0</ele><time>2026-04-16T12:25:32.784Z</time></trkpt><trkpt lat="40.579685" lon="8.4898117"><ele>260.5</ele><time>2026-04-16T12:25:33.783Z</time></trkpt><trkpt lat="40.5797333" lon="8.48997"><ele>260.0</ele><time>2026-04-16T12:25:34.783Z</time></trkpt><trkpt lat="40.5798017" lon="8.490115"><ele>259.5</ele><time>2026-04-16T12:25:35.783Z</time></trkpt><trkpt lat="40.579885" lon="8.4902633"><ele>259.0</ele><time>2026-04-16T12:25:36.784Z</time></trkpt><trkpt lat="40.5799817" lon="8.490395"><ele>258.25</ele><time>2026-04-16T12:25:37.783Z</time></trkpt><trkpt lat="40.5800767" lon="8.4905183"><ele>257.5</ele><time>2026-04-16T12:25:38.783Z</time></trkpt><trkpt lat="40.5801667" lon="8.4906217"><ele>256.75</ele><time>2026-04-16T12:25:39.784Z</time></trkpt><trkpt lat="40.580255" lon="8.4906967"><ele>256.0</ele><time>2026-04-16T12:25:40.784Z</time></trkpt><trkpt lat="40.5803467" lon="8.49071"><ele>253.25</ele><time>2026-04-16T12:25:41.784Z</time></trkpt><trkpt lat="40.58045" lon="8.4906933"><ele>250.5</ele><time>2026-04-16T12:25:42.783Z</time></trkpt><trkpt lat="40.58056" lon="8.490655"><ele>247.75</ele><time>2026-04-16T12:25:43.784Z</time></trkpt><trkpt lat="40.5806717" lon="8.49059"><ele>245.0</ele><time>2026-04-16T12:25:44.784Z</time></trkpt><trkpt lat="40.5807783" lon="8.490495"><ele>247.0</ele><time>2026-04-16T12:25:45.784Z</time></trkpt><trkpt lat="40.5808817" lon="8.4903867"><ele>249.0</ele><time>2026-04-16T12:25:46.784Z</time></trkpt><trkpt lat="40.58097" lon="8.4902683"><ele>251.0</ele><time>2026-04-16T12:25:47.784Z</time></trkpt><trkpt lat="40.5810483" lon="8.49015"><ele>253.0</ele><time>2026-04-16T12:25:48.784Z</time></trkpt><trkpt lat="40.581115" lon="8.49003"><ele>253.0</ele><time>2026-04-16T12:25:49.783Z</time></trkpt><trkpt lat="40.5811783" lon="8.48991"><ele>253.0</ele><time>2026-04-16T12:25:50.783Z</time></trkpt><trkpt lat="40.5812367" lon="8.4897867"><ele>253.0</ele><time>2026-04-16T12:25:51.784Z</time></trkpt><trkpt lat="40.5813017" lon="8.4896767"><ele>253.0</ele><time>2026-04-16T12:25:52.784Z</time></trkpt><trkpt lat="40.58137" lon="8.489595"><ele>253.0</ele><time>2026-04-16T12:25:53.784Z</time></trkpt><trkpt lat="40.581445" lon="8.4895517"><ele>252.2</ele><time>2026-04-16T12:25:54.784Z</time></trkpt><trkpt lat="40.58153" lon="8.4895433"><ele>251.4</ele><time>2026-04-16T12:25:55.784Z</time></trkpt><trkpt lat="40.5816383" lon="8.4895683"><ele>250.59999999999997</ele><time>2026-04-16T12:25:56.784Z</time></trkpt><trkpt lat="40.5817467" lon="8.4896217"><ele>249.79999999999998</ele><time>2026-04-16T12:25:57.783Z</time></trkpt><trkpt lat="40.5818617" lon="8.4897"><ele>249.0</ele><time>2026-04-16T12:25:58.784Z</time></trkpt><trkpt lat="40.5819683" lon="8.4897917"><ele>247.5</ele><time>2026-04-16T12:25:59.783Z</time></trkpt><trkpt lat="40.5820683" lon="8.4899067"><ele>246.0</ele><time>2026-04-16T12:26:00.783Z</time></trkpt><trkpt lat="40.5821617" lon="8.49004"><ele>244.5</ele><time>2026-04-16T12:26:01.783Z</time></trkpt><trkpt lat="40.5822533" lon="8.4901833"><ele>243.0</ele><time>2026-04-16T12:26:02.783Z</time></trkpt><trkpt lat="40.5823367" lon="8.4903367"><ele>241.0</ele><time>2026-04-16T12:26:03.784Z</time></trkpt><trkpt lat="40.58241" lon="8.4905067"><ele>239.0</ele><time>2026-04-16T12:26:04.783Z</time></trkpt><trkpt lat="40.582475" lon="8.4906817"><ele>237.0</ele><time>2026-04-16T12:26:05.783Z</time></trkpt><trkpt lat="40.5825517" lon="8.4908567"><ele>237.0</ele><time>2026-04-16T12:26:06.784Z</time></trkpt><trkpt lat="40.58263" lon="8.49103"><ele>237.0</ele><time>2026-04-16T12:26:07.783Z</time></trkpt><trkpt lat="40.58271" lon="8.491195"><ele>237.0</ele><time>2026-04-16T12:26:08.784Z</time></trkpt><trkpt lat="40.5827883" lon="8.4913567"><ele>237.0</ele><time>2026-04-16T12:26:09.784Z</time></trkpt><trkpt lat="40.5828667" lon="8.4915183"><ele>236.75</ele><time>2026-04-16T12:26:10.784Z</time></trkpt><trkpt lat="40.5829283" lon="8.4916683"><ele>236.5</ele><time>2026-04-16T12:26:11.784Z</time></trkpt><trkpt lat="40.5829783" lon="8.4918117"><ele>236.25</ele><time>2026-04-16T12:26:12.784Z</time></trkpt><trkpt lat="40.58301" lon="8.4919517"><ele>236.0</ele><time>2026-04-16T12:26:13.783Z</time></trkpt><trkpt lat="40.5830067" lon="8.4920867"><ele>235.8</ele><time>2026-04-16T12:26:14.784Z</time></trkpt><trkpt lat="40.5829717" lon="8.4922117"><ele>235.60000000000002</ele><time>2026-04-16T12:26:15.784Z</time></trkpt><trkpt lat="40.582905" lon="8.4923267"><ele>235.4</ele><time>2026-04-16T12:26:16.783Z</time></trkpt><trkpt lat="40.5828333" lon="8.49244"><ele>235.2</ele><time>2026-04-16T12:26:17.783Z</time></trkpt><trkpt lat="40.5827733" lon="8.4925617"><ele>235.0</ele><time>2026-04-16T12:26:18.784Z</time></trkpt><trkpt lat="40.5827233" lon="8.4926933"><ele>235.0</ele><time>2026-04-16T12:26:19.783Z</time></trkpt><trkpt lat="40.5826867" lon="8.4928333"><ele>235.0</ele><time>2026-04-16T12:26:20.784Z</time></trkpt><trkpt lat="40.5826567" lon="8.492985"><ele>235.0</ele><time>2026-04-16T12:26:21.784Z</time></trkpt><trkpt lat="40.5826367" lon="8.4931433"><ele>235.0</ele><time>2026-04-16T12:26:22.784Z</time></trkpt><trkpt lat="40.5826283" lon="8.4933067"><ele>236.5</ele><time>2026-04-16T12:26:23.784Z</time></trkpt><trkpt lat="40.5826383" lon="8.4934717"><ele>238.0</ele><time>2026-04-16T12:26:24.784Z</time></trkpt><trkpt lat="40.5826517" lon="8.4936333"><ele>239.5</ele><time>2026-04-16T12:26:25.784Z</time></trkpt><trkpt lat="40.582685" lon="8.4937833"><ele>241.0</ele><time>2026-04-16T12:26:26.783Z</time></trkpt><trkpt lat="40.5827383" lon="8.49393"><ele>241.5</ele><time>2026-04-16T12:26:27.784Z</time></trkpt><trkpt lat="40.5828083" lon="8.4940783"><ele>242.0</ele><time>2026-04-16T12:26:28.783Z</time></trkpt><trkpt lat="40.582885" lon="8.4942167"><ele>242.5</ele><time>2026-04-16T12:26:29.784Z</time></trkpt><trkpt lat="40.5829617" lon="8.4943583"><ele>243.0</ele><time>2026-04-16T12:26:30.784Z</time></trkpt><trkpt lat="40.583035" lon="8.4945067"><ele>246.0</ele><time>2026-04-16T12:26:31.783Z</time></trkpt><trkpt lat="40.5831017" lon="8.49466"><ele>249.0</ele><time>2026-04-16T12:26:32.784Z</time></trkpt><trkpt lat="40.5831617" lon="8.4948217"><ele>252.0</ele><time>2026-04-16T12:26:33.784Z</time></trkpt><trkpt lat="40.5832117" lon="8.494985"><ele>255.0</ele><time>2026-04-16T12:26:34.784Z</time></trkpt><trkpt lat="40.5832467" lon="8.4951533"><ele>255.0</ele><time>2026-04-16T12:26:35.783Z</time></trkpt><trkpt lat="40.583265" lon="8.495335"><ele>255.0</ele><time>2026-04-16T12:26:36.784Z</time></trkpt><trkpt lat="40.5832817" lon="8.4955217"><ele>255.0</ele><time>2026-04-16T12:26:37.784Z</time></trkpt><trkpt lat="40.5832967" lon="8.4957067"><ele>255.0</ele><time>2026-04-16T12:26:38.783Z</time></trkpt><trkpt lat="40.5833083" lon="8.4958867"><ele>255.75</ele><time>2026-04-16T12:26:39.784Z</time></trkpt><trkpt lat="40.5833067" lon="8.4960667"><ele>256.5</ele><time>2026-04-16T12:26:40.783Z</time></trkpt><trkpt lat="40.58329" lon="8.496255"><ele>257.25</ele><time>2026-04-16T12:26:41.783Z</time></trkpt><trkpt lat="40.5832733" lon="8.4964467"><ele>258.0</ele><time>2026-04-16T12:26:42.784Z</time></trkpt><trkpt lat="40.5832633" lon="8.4966433"><ele>258.3333333333333</ele><time>2026-04-16T12:26:43.784Z</time></trkpt><trkpt lat="40.5832633" lon="8.4968483"><ele>258.66666666666663</ele><time>2026-04-16T12:26:44.783Z</time></trkpt><trkpt lat="40.5832683" lon="8.4970483"><ele>259.0</ele><time>2026-04-16T12:26:45.784Z</time></trkpt><trkpt lat="40.5832733" lon="8.4972583"><ele>259.3333333333333</ele><time>2026-04-16T12:26:46.783Z</time></trkpt><trkpt lat="40.5832783" lon="8.497475"><ele>259.6666666666667</ele><time>2026-04-16T12:26:47.784Z</time></trkpt><trkpt lat="40.583285" lon="8.4976933"><ele>260.0</ele><time>2026-04-16T12:26:48.784Z</time></trkpt><trkpt lat="40.5832917" lon="8.49791"><ele>260.33333333333337</ele><time>2026-04-16T12:26:49.784Z</time></trkpt><trkpt lat="40.5832967" lon="8.498125"><ele>260.6666666666667</ele><time>2026-04-16T12:26:50.783Z</time></trkpt><trkpt lat="40.5833017" lon="8.49834"><ele>261.0</ele><time>2026-04-16T12:26:51.784Z</time></trkpt><trkpt lat="40.583305" lon="8.498555"><ele>262.0</ele><time>2026-04-16T12:26:52.784Z</time></trkpt><trkpt lat="40.5833083" lon="8.4987733"><ele>263.0</ele><time>2026-04-16T12:26:53.783Z</time></trkpt><trkpt lat="40.583315" lon="8.4989933"><ele>264.0</ele><time>2026-04-16T12:26:54.784Z</time></trkpt><trkpt lat="40.5833217" lon="8.499215"><ele>264.0</ele><time>2026-04-16T12:26:55.784Z</time></trkpt><trkpt lat="40.5833333" lon="8.4994383"><ele>264.0</ele><time>2026-04-16T12:26:56.784Z</time></trkpt><trkpt lat="40.5833433" lon="8.499665"><ele>264.0</ele><time>2026-04-16T12:26:57.784Z</time></trkpt><trkpt lat="40.5833517" lon="8.4998883"><ele>264.6666666666667</ele><time>2026-04-16T12:26:58.783Z</time></trkpt><trkpt lat="40.5833583" lon="8.5001133"><ele>265.33333333333337</ele><time>2026-04-16T12:26:59.784Z</time></trkpt><trkpt lat="40.5833667" lon="8.5003317"><ele>266.0</ele><time>2026-04-16T12:27:00.784Z</time></trkpt><trkpt lat="40.5833717" lon="8.5005483"><ele>266.6666666666667</ele><time>2026-04-16T12:27:01.783Z</time></trkpt><trkpt lat="40.583375" lon="8.5007683"><ele>267.3333333333333</ele><time>2026-04-16T12:27:02.783Z</time></trkpt><trkpt lat="40.5833733" lon="8.500985"><ele>268.0</ele><time>2026-04-16T12:27:03.784Z</time></trkpt><trkpt lat="40.5833583" lon="8.5011917"><ele>269.0</ele><time>2026-04-16T12:27:04.784Z</time></trkpt><trkpt lat="40.58333" lon="8.5013983"><ele>270.0</ele><time>2026-04-16T12:27:05.783Z</time></trkpt><trkpt lat="40.5832933" lon="8.5016017"><ele>271.0</ele><time>2026-04-16T12:27:06.784Z</time></trkpt><trkpt lat="40.5832383" lon="8.5018017"><ele>271.0</ele><time>2026-04-16T12:27:07.783Z</time></trkpt><trkpt lat="40.5831817" lon="8.5019967"><ele>271.0</ele><time>2026-04-16T12:27:08.783Z</time></trkpt><trkpt lat="40.58313" lon="8.5021967"><ele>271.0</ele><time>2026-04-16T12:27:09.784Z</time></trkpt><trkpt lat="40.5830883" lon="8.50239"><ele>271.25</ele><time>2026-04-16T12:27:10.783Z</time></trkpt><trkpt lat="40.5830583" lon="8.5025833"><ele>271.5</ele><time>2026-04-16T12:27:11.783Z</time></trkpt><trkpt lat="40.583045" lon="8.50277"><ele>271.75</ele><time>2026-04-16T12:27:12.783Z</time></trkpt><trkpt lat="40.58305" lon="8.50297"><ele>272.0</ele><time>2026-04-16T12:27:13.782Z</time></trkpt><trkpt lat="40.5830717" lon="8.503175"><ele>272.0</ele><time>2026-04-16T12:27:14.783Z</time></trkpt><trkpt lat="40.5830967" lon="8.503385"><ele>272.0</ele><time>2026-04-16T12:27:15.782Z</time></trkpt><trkpt lat="40.58313" lon="8.503595"><ele>272.0</ele><time>2026-04-16T12:27:16.783Z</time></trkpt><trkpt lat="40.5831617" lon="8.5038117"><ele>272.33333333333337</ele><time>2026-04-16T12:27:17.783Z</time></trkpt><trkpt lat="40.5831817" lon="8.504025"><ele>272.6666666666667</ele><time>2026-04-16T12:27:18.782Z</time></trkpt><trkpt lat="40.5831883" lon="8.5042467"><ele>273.0</ele><time>2026-04-16T12:27:19.783Z</time></trkpt><trkpt lat="40.5831767" lon="8.504465"><ele>273.3333333333333</ele><time>2026-04-16T12:27:20.783Z</time></trkpt><trkpt lat="40.5831583" lon="8.5046783"><ele>273.66666666666663</ele><time>2026-04-16T12:27:21.783Z</time></trkpt><trkpt lat="40.5831267" lon="8.5049"><ele>274.0</ele><time>2026-04-16T12:27:22.783Z</time></trkpt><trkpt lat="40.58309" lon="8.505105"><ele>274.0</ele><time>2026-04-16T12:27:23.783Z</time></trkpt><trkpt lat="40.5830633" lon="8.5053"><ele>274.0</ele><time>2026-04-16T12:27:24.782Z</time></trkpt><trkpt lat="40.5830467" lon="8.5054933"><ele>274.0</ele><time>2026-04-16T12:27:25.782Z</time></trkpt><trkpt lat="40.5830517" lon="8.5056883"><ele>274.0</ele><time>2026-04-16T12:27:26.782Z</time></trkpt><trkpt lat="40.5830667" lon="8.50587"><ele>273.75</ele><time>2026-04-16T12:27:27.782Z</time></trkpt><trkpt lat="40.583105" lon="8.5060433"><ele>273.5</ele><time>2026-04-16T12:27:28.783Z</time></trkpt><trkpt lat="40.5831617" lon="8.50622"><ele>273.25</ele><time>2026-04-16T12:27:29.783Z</time></trkpt><trkpt lat="40.5832417" lon="8.5063867"><ele>273.0</ele><time>2026-04-16T12:27:30.782Z</time></trkpt><trkpt lat="40.58333" lon="8.5065467"><ele>272.0</ele><time>2026-04-16T12:27:31.783Z</time></trkpt><trkpt lat="40.5834233" lon="8.5067067"><ele>271.0</ele><time>2026-04-16T12:27:32.783Z</time></trkpt><trkpt lat="40.5835283" lon="8.5068683"><ele>270.0</ele><time>2026-04-16T12:27:33.782Z</time></trkpt><trkpt lat="40.5836383" lon="8.5070283"><ele>271.3333333333333</ele><time>2026-04-16T12:27:34.783Z</time></trkpt><trkpt lat="40.5837517" lon="8.5071783"><ele>272.66666666666663</ele><time>2026-04-16T12:27:35.782Z</time></trkpt><trkpt lat="40.5838533" lon="8.50734"><ele>274.0</ele><time>2026-04-16T12:27:36.782Z</time></trkpt><trkpt lat="40.5839467" lon="8.5075167"><ele>274.0</ele><time>2026-04-16T12:27:37.782Z</time></trkpt><trkpt lat="40.5840317" lon="8.5076967"><ele>274.0</ele><time>2026-04-16T12:27:38.783Z</time></trkpt><trkpt lat="40.5841117" lon="8.5078683"><ele>274.0</ele><time>2026-04-16T12:27:39.782Z</time></trkpt><trkpt lat="40.5841967" lon="8.5080267"><ele>274.25</ele><time>2026-04-16T12:27:40.783Z</time></trkpt><trkpt lat="40.5842683" lon="8.5081767"><ele>274.5</ele><time>2026-04-16T12:27:41.783Z</time></trkpt><trkpt lat="40.58433" lon="8.5083217"><ele>274.75</ele><time>2026-04-16T12:27:42.782Z</time></trkpt><trkpt lat="40.5843783" lon="8.5084767"><ele>275.0</ele><time>2026-04-16T12:27:43.783Z</time></trkpt><trkpt lat="40.5844083" lon="8.5086433"><ele>275.75</ele><time>2026-04-16T12:27:44.783Z</time></trkpt><trkpt lat="40.5844283" lon="8.508815"><ele>276.5</ele><time>2026-04-16T12:27:45.783Z</time></trkpt><trkpt lat="40.58445" lon="8.50899"><ele>277.25</ele><time>2026-04-16T12:27:46.782Z</time></trkpt><trkpt lat="40.5844683" lon="8.5091667"><ele>278.0</ele><time>2026-04-16T12:27:47.782Z</time></trkpt><trkpt lat="40.5844817" lon="8.5093533"><ele>278.0</ele><time>2026-04-16T12:27:48.783Z</time></trkpt><trkpt lat="40.5844867" lon="8.509535"><ele>278.0</ele><time>2026-04-16T12:27:49.783Z</time></trkpt><trkpt lat="40.584485" lon="8.5097133"><ele>278.0</ele><time>2026-04-16T12:27:50.783Z</time></trkpt><trkpt lat="40.584485" lon="8.5098917"><ele>278.0</ele><time>2026-04-16T12:27:51.783Z</time></trkpt><trkpt lat="40.584475" lon="8.510065"><ele>279.25</ele><time>2026-04-16T12:27:52.782Z</time></trkpt><trkpt lat="40.5844383" lon="8.5102283"><ele>280.5</ele><time>2026-04-16T12:27:53.782Z</time></trkpt><trkpt lat="40.5843867" lon="8.510385"><ele>281.75</ele><time>2026-04-16T12:27:54.783Z</time></trkpt><trkpt lat="40.58432" lon="8.5105383"><ele>283.0</ele><time>2026-04-16T12:27:55.783Z</time></trkpt><trkpt lat="40.58426" lon="8.5107"><ele>283.75</ele><time>2026-04-16T12:27:56.782Z</time></trkpt><trkpt lat="40.5842017" lon="8.51085"><ele>284.5</ele><time>2026-04-16T12:27:57.783Z</time></trkpt><trkpt lat="40.584135" lon="8.5110033"><ele>285.25</ele><time>2026-04-16T12:27:58.782Z</time></trkpt><trkpt lat="40.5840633" lon="8.5111517"><ele>286.0</ele><time>2026-04-16T12:27:59.783Z</time></trkpt><trkpt lat="40.5839917" lon="8.5112967"><ele>288.0</ele><time>2026-04-16T12:28:00.782Z</time></trkpt><trkpt lat="40.5839117" lon="8.51144"><ele>290.0</ele><time>2026-04-16T12:28:01.783Z</time></trkpt><trkpt lat="40.5838367" lon="8.51158"><ele>292.0</ele><time>2026-04-16T12:28:02.782Z</time></trkpt><trkpt lat="40.583765" lon="8.5117283"><ele>294.0</ele><time>2026-04-16T12:28:03.783Z</time></trkpt><trkpt lat="40.5837033" lon="8.5118883"><ele>294.25</ele><time>2026-04-16T12:28:04.782Z</time></trkpt><trkpt lat="40.5836583" lon="8.5120583"><ele>294.5</ele><time>2026-04-16T12:28:05.782Z</time></trkpt><trkpt lat="40.5836233" lon="8.5122383"><ele>294.75</ele><time>2026-04-16T12:28:06.783Z</time></trkpt><trkpt lat="40.5835833" lon="8.5124317"><ele>295.0</ele><time>2026-04-16T12:28:07.783Z</time></trkpt><trkpt lat="40.5835467" lon="8.5126367"><ele>296.3333333333333</ele><time>2026-04-16T12:28:08.783Z</time></trkpt><trkpt lat="40.58351" lon="8.5128467"><ele>297.6666666666667</ele><time>2026-04-16T12:28:09.782Z</time></trkpt><trkpt lat="40.5834767" lon="8.5130533"><ele>299.0</ele><time>2026-04-16T12:28:10.783Z</time></trkpt><trkpt lat="40.583445" lon="8.51326"><ele>301.33333333333337</ele><time>2026-04-16T12:28:11.783Z</time></trkpt><trkpt lat="40.5834133" lon="8.5134683"><ele>303.6666666666667</ele><time>2026-04-16T12:28:12.783Z</time></trkpt><trkpt lat="40.5833817" lon="8.5136683"><ele>306.0</ele><time>2026-04-16T12:28:13.783Z</time></trkpt><trkpt lat="40.583345" lon="8.5138533"><ele>307.75</ele><time>2026-04-16T12:28:14.783Z</time></trkpt><trkpt lat="40.583295" lon="8.5140117"><ele>309.5</ele><time>2026-04-16T12:28:15.783Z</time></trkpt><trkpt lat="40.5832383" lon="8.5141567"><ele>311.25</ele><time>2026-04-16T12:28:16.782Z</time></trkpt><trkpt lat="40.58317" lon="8.5142883"><ele>313.0</ele><time>2026-04-16T12:28:17.783Z</time></trkpt><trkpt lat="40.5830967" lon="8.5144217"><ele>313.25</ele><time>2026-04-16T12:28:18.782Z</time></trkpt><trkpt lat="40.5830383" lon="8.5145783"><ele>313.5</ele><time>2026-04-16T12:28:19.782Z</time></trkpt><trkpt lat="40.5829983" lon="8.5147417"><ele>313.75</ele><time>2026-04-16T12:28:20.782Z</time></trkpt><trkpt lat="40.5829617" lon="8.5149083"><ele>314.0</ele><time>2026-04-16T12:28:21.782Z</time></trkpt><trkpt lat="40.582925" lon="8.5150783"><ele>314.0</ele><time>2026-04-16T12:28:22.782Z</time></trkpt><trkpt lat="40.58289" lon="8.5152567"><ele>314.0</ele><time>2026-04-16T12:28:23.782Z</time></trkpt><trkpt lat="40.58285" lon="8.5154333"><ele>314.0</ele><time>2026-04-16T12:28:24.783Z</time></trkpt><trkpt lat="40.5828017" lon="8.515605"><ele>314.0</ele><time>2026-04-16T12:28:25.783Z</time></trkpt><trkpt lat="40.5827533" lon="8.5157767"><ele>313.75</ele><time>2026-04-16T12:28:26.782Z</time></trkpt><trkpt lat="40.5827133" lon="8.5159367"><ele>313.5</ele><time>2026-04-16T12:28:27.782Z</time></trkpt><trkpt lat="40.5826667" lon="8.5160933"><ele>313.25</ele><time>2026-04-16T12:28:28.783Z</time></trkpt><trkpt lat="40.58261" lon="8.5162383"><ele>313.0</ele><time>2026-04-16T12:28:29.783Z</time></trkpt><trkpt lat="40.5825383" lon="8.516375"><ele>313.0</ele><time>2026-04-16T12:28:30.783Z</time></trkpt><trkpt lat="40.582455" lon="8.5165033"><ele>313.0</ele><time>2026-04-16T12:28:31.782Z</time></trkpt><trkpt lat="40.5823667" lon="8.5166333"><ele>313.0</ele><time>2026-04-16T12:28:32.783Z</time></trkpt><trkpt lat="40.5822733" lon="8.516775"><ele>313.0</ele><time>2026-04-16T12:28:33.783Z</time></trkpt><trkpt lat="40.5821783" lon="8.5169217"><ele>313.0</ele><time>2026-04-16T12:28:34.782Z</time></trkpt><trkpt lat="40.5820833" lon="8.51707"><ele>313.0</ele><time>2026-04-16T12:28:35.783Z</time></trkpt><trkpt lat="40.5819883" lon="8.51722"><ele>313.0</ele><time>2026-04-16T12:28:36.783Z</time></trkpt><trkpt lat="40.5818983" lon="8.5173667"><ele>313.0</ele><time>2026-04-16T12:28:37.783Z</time></trkpt><trkpt lat="40.5818117" lon="8.5175117"><ele>313.5</ele><time>2026-04-16T12:28:38.783Z</time></trkpt><trkpt lat="40.58172" lon="8.5176583"><ele>314.0</ele><time>2026-04-16T12:28:39.783Z</time></trkpt><trkpt lat="40.5816333" lon="8.5177933"><ele>314.5</ele><time>2026-04-16T12:28:40.782Z</time></trkpt><trkpt lat="40.5815483" lon="8.51794"><ele>315.0</ele><time>2026-04-16T12:28:41.782Z</time></trkpt><trkpt lat="40.5814667" lon="8.5180783"><ele>315.25</ele><time>2026-04-16T12:28:42.783Z</time></trkpt><trkpt lat="40.581385" lon="8.5182183"><ele>315.5</ele><time>2026-04-16T12:28:43.782Z</time></trkpt><trkpt lat="40.58131" lon="8.5183683"><ele>315.75</ele><time>2026-04-16T12:28:44.783Z</time></trkpt><trkpt lat="40.5812433" lon="8.518525"><ele>316.0</ele><time>2026-04-16T12:28:45.782Z</time></trkpt><trkpt lat="40.5811817" lon="8.51868"><ele>317.0</ele><time>2026-04-16T12:28:46.782Z</time></trkpt><trkpt lat="40.5811067" lon="8.51883"><ele>318.0</ele><time>2026-04-16T12:28:47.782Z</time></trkpt><trkpt lat="40.5810183" lon="8.5189817"><ele>319.0</ele><time>2026-04-16T12:28:48.783Z</time></trkpt><trkpt lat="40.58093" lon="8.5191267"><ele>320.0</ele><time>2026-04-16T12:28:49.782Z</time></trkpt><trkpt lat="40.5808417" lon="8.5192667"><ele>320.0</ele><time>2026-04-16T12:28:50.783Z</time></trkpt><trkpt lat="40.5807483" lon="8.5194083"><ele>320.0</ele><time>2026-04-16T12:28:51.783Z</time></trkpt><trkpt lat="40.5806583" lon="8.5195467"><ele>320.0</ele><time>2026-04-16T12:28:52.782Z</time></trkpt><trkpt lat="40.5805667" lon="8.5196917"><ele>320.0</ele><time>2026-04-16T12:28:53.783Z</time></trkpt><trkpt lat="40.5804733" lon="8.519835"><ele>320.0</ele><time>2026-04-16T12:28:54.783Z</time></trkpt><trkpt lat="40.5803867" lon="8.51998"><ele>320.0</ele><time>2026-04-16T12:28:55.783Z</time></trkpt><trkpt lat="40.5803017" lon="8.520135"><ele>320.0</ele><time>2026-04-16T12:28:56.782Z</time></trkpt><trkpt lat="40.5802317" lon="8.5202883"><ele>320.0</ele><time>2026-04-16T12:28:57.783Z</time></trkpt><trkpt lat="40.58017" lon="8.5204517"><ele>321.25</ele><time>2026-04-16T12:28:58.783Z</time></trkpt><trkpt lat="40.58011" lon="8.5206183"><ele>322.5</ele><time>2026-04-16T12:28:59.782Z</time></trkpt><trkpt lat="40.580055" lon="8.52078"><ele>323.75</ele><time>2026-04-16T12:29:00.782Z</time></trkpt><trkpt lat="40.5800033" lon="8.5209467"><ele>325.0</ele><time>2026-04-16T12:29:01.783Z</time></trkpt><trkpt lat="40.5799667" lon="8.5211083"><ele>324.0</ele><time>2026-04-16T12:29:02.783Z</time></trkpt><trkpt lat="40.57994" lon="8.5212717"><ele>323.0</ele><time>2026-04-16T12:29:03.782Z</time></trkpt><trkpt lat="40.57994" lon="8.521435"><ele>322.0</ele><time>2026-04-16T12:29:04.783Z</time></trkpt><trkpt lat="40.579955" lon="8.5215917"><ele>321.0</ele><time>2026-04-16T12:29:05.783Z</time></trkpt><trkpt lat="40.579975" lon="8.5217383"><ele>321.0</ele><time>2026-04-16T12:29:06.782Z</time></trkpt><trkpt lat="40.57998" lon="8.5218883"><ele>321.0</ele><time>2026-04-16T12:29:07.783Z</time></trkpt><trkpt lat="40.5799617" lon="8.5220517"><ele>321.0</ele><time>2026-04-16T12:29:08.783Z</time></trkpt><trkpt lat="40.5799133" lon="8.522215"><ele>321.0</ele><time>2026-04-16T12:29:09.783Z</time></trkpt><trkpt lat="40.5798533" lon="8.5223833"><ele>320.0</ele><time>2026-04-16T12:29:10.783Z</time></trkpt><trkpt lat="40.5797883" lon="8.522545"><ele>319.0</ele><time>2026-04-16T12:29:11.783Z</time></trkpt><trkpt lat="40.579725" lon="8.522715"><ele>318.0</ele><time>2026-04-16T12:29:12.783Z</time></trkpt><trkpt lat="40.5796683" lon="8.5228883"><ele>317.0</ele><time>2026-04-16T12:29:13.782Z</time></trkpt><trkpt lat="40.579625" lon="8.5230633"><ele>316.25</ele><time>2026-04-16T12:29:14.783Z</time></trkpt><trkpt lat="40.5795933" lon="8.5232417"><ele>315.5</ele><time>2026-04-16T12:29:15.783Z</time></trkpt><trkpt lat="40.5795833" lon="8.52342"><ele>314.75</ele><time>2026-04-16T12:29:16.783Z</time></trkpt><trkpt lat="40.5795783" lon="8.5236017"><ele>314.0</ele><time>2026-04-16T12:29:17.783Z</time></trkpt><trkpt lat="40.5795783" lon="8.523785"><ele>313.75</ele><time>2026-04-16T12:29:18.783Z</time></trkpt><trkpt lat="40.579565" lon="8.5239733"><ele>313.5</ele><time>2026-04-16T12:29:19.783Z</time></trkpt><trkpt lat="40.5795483" lon="8.524165"><ele>313.25</ele><time>2026-04-16T12:29:20.782Z</time></trkpt><trkpt lat="40.57954" lon="8.524355"><ele>313.0</ele><time>2026-04-16T12:29:21.783Z</time></trkpt><trkpt lat="40.57953" lon="8.5245483"><ele>312.25</ele><time>2026-04-16T12:29:22.783Z</time></trkpt><trkpt lat="40.579525" lon="8.5247417"><ele>311.5</ele><time>2026-04-16T12:29:23.782Z</time></trkpt><trkpt lat="40.579525" lon="8.52493"><ele>310.75</ele><time>2026-04-16T12:29:24.783Z</time></trkpt><trkpt lat="40.5795317" lon="8.5251167"><ele>310.0</ele><time>2026-04-16T12:29:25.783Z</time></trkpt><trkpt lat="40.57956" lon="8.5252867"><ele>311.0</ele><time>2026-04-16T12:29:26.783Z</time></trkpt><trkpt lat="40.579615" lon="8.525445"><ele>312.0</ele><time>2026-04-16T12:29:27.783Z</time></trkpt><trkpt lat="40.5797017" lon="8.5255883"><ele>313.0</ele><time>2026-04-16T12:29:28.783Z</time></trkpt><trkpt lat="40.57981" lon="8.52569"><ele>314.0</ele><time>2026-04-16T12:29:29.782Z</time></trkpt><trkpt lat="40.5799317" lon="8.5257833"><ele>314.0</ele><time>2026-04-16T12:29:30.783Z</time></trkpt><trkpt lat="40.58005" lon="8.5258633"><ele>314.0</ele><time>2026-04-16T12:29:31.782Z</time></trkpt><trkpt lat="40.5801633" lon="8.525945"><ele>314.0</ele><time>2026-04-16T12:29:32.783Z</time></trkpt><trkpt lat="40.58027" lon="8.5260283"><ele>314.0</ele><time>2026-04-16T12:29:33.783Z</time></trkpt><trkpt lat="40.5803683" lon="8.5261267"><ele>312.5</ele><time>2026-04-16T12:29:34.783Z</time></trkpt><trkpt lat="40.58046" lon="8.5262467"><ele>311.0</ele><time>2026-04-16T12:29:35.782Z</time></trkpt><trkpt lat="40.58054" lon="8.52638"><ele>309.5</ele><time>2026-04-16T12:29:36.782Z</time></trkpt><trkpt lat="40.5806033" lon="8.52652"><ele>308.0</ele><time>2026-04-16T12:29:37.782Z</time></trkpt><trkpt lat="40.580655" lon="8.5266617"><ele>308.0</ele><time>2026-04-16T12:29:38.783Z</time></trkpt><trkpt lat="40.580705" lon="8.5268167"><ele>308.0</ele><time>2026-04-16T12:29:39.782Z</time></trkpt><trkpt lat="40.5807517" lon="8.5269717"><ele>308.0</ele><time>2026-04-16T12:29:40.783Z</time></trkpt><trkpt lat="40.5808" lon="8.5271117"><ele>308.0</ele><time>2026-04-16T12:29:41.782Z</time></trkpt><trkpt lat="40.5808417" lon="8.527245"><ele>308.0</ele><time>2026-04-16T12:29:42.783Z</time></trkpt><trkpt lat="40.5808567" lon="8.52739"><ele>308.0</ele><time>2026-04-16T12:29:43.783Z</time></trkpt><trkpt lat="40.5808383" lon="8.5275333"><ele>308.0</ele><time>2026-04-16T12:29:44.783Z</time></trkpt><trkpt lat="40.580795" lon="8.5276617"><ele>308.0</ele><time>2026-04-16T12:29:45.783Z</time></trkpt><trkpt lat="40.5807333" lon="8.527775"><ele>308.0</ele><time>2026-04-16T12:29:46.782Z</time></trkpt><trkpt lat="40.5806817" lon="8.5278817"><ele>307.6</ele><time>2026-04-16T12:29:47.782Z</time></trkpt><trkpt lat="40.580665" lon="8.5280017"><ele>307.20000000000005</ele><time>2026-04-16T12:29:48.783Z</time></trkpt><trkpt lat="40.5806883" lon="8.528125"><ele>306.8</ele><time>2026-04-16T12:29:49.781Z</time></trkpt><trkpt lat="40.5807433" lon="8.5282567"><ele>306.40000000000003</ele><time>2026-04-16T12:29:50.781Z</time></trkpt><trkpt lat="40.5808033" lon="8.5284033"><ele>306.0</ele><time>2026-04-16T12:29:51.782Z</time></trkpt><trkpt lat="40.5808683" lon="8.5285567"><ele>306.0</ele><time>2026-04-16T12:29:52.781Z</time></trkpt><trkpt lat="40.5809267" lon="8.528715"><ele>306.0</ele><time>2026-04-16T12:29:53.782Z</time></trkpt><trkpt lat="40.5809933" lon="8.528885"><ele>306.0</ele><time>2026-04-16T12:29:54.782Z</time></trkpt><trkpt lat="40.581075" lon="8.5290383"><ele>306.0</ele><time>2026-04-16T12:29:55.782Z</time></trkpt><trkpt lat="40.5811583" lon="8.5291883"><ele>302.25</ele><time>2026-04-16T12:29:56.781Z</time></trkpt><trkpt lat="40.581255" lon="8.5293417"><ele>298.5</ele><time>2026-04-16T12:29:57.782Z</time></trkpt><trkpt lat="40.5813567" lon="8.5294817"><ele>294.75</ele><time>2026-04-16T12:29:58.782Z</time></trkpt><trkpt lat="40.58145" lon="8.52963"><ele>291.0</ele><time>2026-04-16T12:29:59.781Z</time></trkpt><trkpt lat="40.5815417" lon="8.529765"><ele>291.0</ele><time>2026-04-16T12:30:00.781Z</time></trkpt><trkpt lat="40.5816233" lon="8.5299017"><ele>291.0</ele><time>2026-04-16T12:30:01.782Z</time></trkpt><trkpt lat="40.581695" lon="8.5300483"><ele>291.0</ele><time>2026-04-16T12:30:02.782Z</time></trkpt><trkpt lat="40.5817583" lon="8.5302033"><ele>291.0</ele><time>2026-04-16T12:30:03.782Z</time></trkpt><trkpt lat="40.58182" lon="8.5303567"><ele>291.6</ele><time>2026-04-16T12:30:04.782Z</time></trkpt><trkpt lat="40.5818817" lon="8.5305033"><ele>292.20000000000005</ele><time>2026-04-16T12:30:05.782Z</time></trkpt><trkpt lat="40.5819217" lon="8.5306517"><ele>292.79999999999995</ele><time>2026-04-16T12:30:06.782Z</time></trkpt><trkpt lat="40.5819483" lon="8.5307767"><ele>293.4</ele><time>2026-04-16T12:30:07.782Z</time></trkpt><trkpt lat="40.5819467" lon="8.53088"><ele>294.0</ele><time>2026-04-16T12:30:08.782Z</time></trkpt><trkpt lat="40.5819133" lon="8.53097"><ele>294.0</ele><time>2026-04-16T12:30:09.782Z</time></trkpt><trkpt lat="40.5818483" lon="8.5310533"><ele>294.0</ele><time>2026-04-16T12:30:10.782Z</time></trkpt><trkpt lat="40.5817717" lon="8.531125"><ele>294.0</ele><time>2026-04-16T12:30:11.782Z</time></trkpt><trkpt lat="40.581685" lon="8.5312033"><ele>294.0</ele><time>2026-04-16T12:30:12.782Z</time></trkpt><trkpt lat="40.5815933" lon="8.5312783"><ele>294.0</ele><time>2026-04-16T12:30:13.782Z</time></trkpt><trkpt lat="40.58149" lon="8.5313383"><ele>292.75</ele><time>2026-04-16T12:30:14.781Z</time></trkpt><trkpt lat="40.5813767" lon="8.5313917"><ele>291.5</ele><time>2026-04-16T12:30:15.781Z</time></trkpt><trkpt lat="40.5812517" lon="8.5314433"><ele>290.25</ele><time>2026-04-16T12:30:16.782Z</time></trkpt><trkpt lat="40.581125" lon="8.5315"><ele>289.0</ele><time>2026-04-16T12:30:17.781Z</time></trkpt><trkpt lat="40.5810017" lon="8.531575"><ele>289.0</ele><time>2026-04-16T12:30:18.782Z</time></trkpt><trkpt lat="40.5808783" lon="8.5316517"><ele>289.0</ele><time>2026-04-16T12:30:19.781Z</time></trkpt><trkpt lat="40.580755" lon="8.5317367"><ele>289.0</ele><time>2026-04-16T12:30:20.781Z</time></trkpt><trkpt lat="40.580625" lon="8.5318017"><ele>289.0</ele><time>2026-04-16T12:30:21.782Z</time></trkpt><trkpt lat="40.5804983" lon="8.5318717"><ele>289.0</ele><time>2026-04-16T12:30:22.782Z</time></trkpt><trkpt lat="40.5803717" lon="8.5319333"><ele>289.0</ele><time>2026-04-16T12:30:23.782Z</time></trkpt><trkpt lat="40.58025" lon="8.532"><ele>289.0</ele><time>2026-04-16T12:30:24.782Z</time></trkpt><trkpt lat="40.5801283" lon="8.5320617"><ele>289.0</ele><time>2026-04-16T12:30:25.781Z</time></trkpt><trkpt lat="40.580005" lon="8.53212"><ele>289.0</ele><time>2026-04-16T12:30:26.781Z</time></trkpt><trkpt lat="40.5798767" lon="8.5321867"><ele>289.0</ele><time>2026-04-16T12:30:27.782Z</time></trkpt><trkpt lat="40.579745" lon="8.5322567"><ele>289.0</ele><time>2026-04-16T12:30:28.782Z</time></trkpt><trkpt lat="40.5796133" lon="8.5323383"><ele>289.0</ele><time>2026-04-16T12:30:29.782Z</time></trkpt><trkpt lat="40.57949" lon="8.53242"><ele>289.0</ele><time>2026-04-16T12:30:30.782Z</time></trkpt><trkpt lat="40.57937" lon="8.5325033"><ele>289.0</ele><time>2026-04-16T12:30:31.781Z</time></trkpt><trkpt lat="40.5792467" lon="8.53258"><ele>289.0</ele><time>2026-04-16T12:30:32.782Z</time></trkpt><trkpt lat="40.5791167" lon="8.5326517"><ele>289.0</ele><time>2026-04-16T12:30:33.782Z</time></trkpt><trkpt lat="40.5789883" lon="8.5327267"><ele>289.0</ele><time>2026-04-16T12:30:34.781Z</time></trkpt><trkpt lat="40.5788667" lon="8.5328"><ele>289.0</ele><time>2026-04-16T12:30:35.782Z</time></trkpt><trkpt lat="40.578735" lon="8.53287"><ele>289.0</ele><time>2026-04-16T12:30:36.782Z</time></trkpt><trkpt lat="40.5786233" lon="8.5329467"><ele>289.0</ele><time>2026-04-16T12:30:37.782Z</time></trkpt><trkpt lat="40.5785333" lon="8.53304"><ele>288.16666666666663</ele><time>2026-04-16T12:30:38.781Z</time></trkpt><trkpt lat="40.57847" lon="8.5331483"><ele>287.3333333333333</ele><time>2026-04-16T12:30:39.781Z</time></trkpt><trkpt lat="40.5784383" lon="8.5332517"><ele>286.5</ele><time>2026-04-16T12:30:40.781Z</time></trkpt><trkpt lat="40.5784383" lon="8.5333367"><ele>285.6666666666667</ele><time>2026-04-16T12:30:41.782Z</time></trkpt><trkpt lat="40.5785083" lon="8.5334417"><ele>284.83333333333337</ele><time>2026-04-16T12:30:43.781Z</time></trkpt><trkpt lat="40.57859" lon="8.533435"><ele>284.0</ele><time>2026-04-16T12:30:45.781Z</time></trkpt><trkpt lat="40.57867" lon="8.5333683"><ele>282.8</ele><time>2026-04-16T12:31:48.781Z</time></trkpt><trkpt lat="40.5787517" lon="8.53328"><ele>281.59999999999997</ele><time>2026-04-16T12:31:51.782Z</time></trkpt><trkpt lat="40.57886" lon="8.533195"><ele>280.4</ele><time>2026-04-16T12:31:53.781Z</time></trkpt><trkpt lat="40.57893" lon="8.5331317"><ele>279.2</ele><time>2026-04-16T12:31:54.782Z</time></trkpt><trkpt lat="40.5790117" lon="8.5330667"><ele>278.0</ele><time>2026-04-16T12:31:55.781Z</time></trkpt><trkpt lat="40.579105" lon="8.5329967"><ele>278.0</ele><time>2026-04-16T12:31:56.782Z</time></trkpt><trkpt lat="40.5792033" lon="8.5329283"><ele>278.0</ele><time>2026-04-16T12:31:57.782Z</time></trkpt><trkpt lat="40.5793083" lon="8.5328667"><ele>278.0</ele><time>2026-04-16T12:31:58.782Z</time></trkpt><trkpt lat="40.57942" lon="8.5328317"><ele>278.0</ele><time>2026-04-16T12:31:59.781Z</time></trkpt><trkpt lat="40.57954" lon="8.5328283"><ele>277.75</ele><time>2026-04-16T12:32:00.782Z</time></trkpt><trkpt lat="40.5796517" lon="8.5328517"><ele>277.5</ele><time>2026-04-16T12:32:01.782Z</time></trkpt><trkpt lat="40.5797567" lon="8.532865"><ele>277.25</ele><time>2026-04-16T12:32:02.782Z</time></trkpt><trkpt lat="40.57987" lon="8.5328533"><ele>277.0</ele><time>2026-04-16T12:32:03.782Z</time></trkpt><trkpt lat="40.579995" lon="8.532825"><ele>277.0</ele><time>2026-04-16T12:32:04.781Z</time></trkpt><trkpt lat="40.5801183" lon="8.5328083"><ele>277.0</ele><time>2026-04-16T12:32:05.781Z</time></trkpt><trkpt lat="40.580255" lon="8.5328067"><ele>277.0</ele><time>2026-04-16T12:32:06.781Z</time></trkpt><trkpt lat="40.5804" lon="8.53282"><ele>277.0</ele><time>2026-04-16T12:32:07.782Z</time></trkpt><trkpt lat="40.5805433" lon="8.5328367"><ele>275.75</ele><time>2026-04-16T12:32:08.782Z</time></trkpt><trkpt lat="40.58068" lon="8.5328583"><ele>274.5</ele><time>2026-04-16T12:32:09.782Z</time></trkpt><trkpt lat="40.5808133" lon="8.5328733"><ele>273.25</ele><time>2026-04-16T12:32:10.781Z</time></trkpt><trkpt lat="40.58093" lon="8.532895"><ele>272.0</ele><time>2026-04-16T12:32:11.781Z</time></trkpt><trkpt lat="40.5810467" lon="8.5329067"><ele>270.75</ele><time>2026-04-16T12:32:12.781Z</time></trkpt><trkpt lat="40.5811783" lon="8.5328983"><ele>269.5</ele><time>2026-04-16T12:32:13.781Z</time></trkpt><trkpt lat="40.5813167" lon="8.5328783"><ele>268.25</ele><time>2026-04-16T12:32:14.782Z</time></trkpt><trkpt lat="40.5814567" lon="8.532845"><ele>267.0</ele><time>2026-04-16T12:32:15.782Z</time></trkpt><trkpt lat="40.5815917" lon="8.5328333"><ele>267.0</ele><time>2026-04-16T12:32:16.782Z</time></trkpt><trkpt lat="40.5817367" lon="8.5328517"><ele>267.0</ele><time>2026-04-16T12:32:17.781Z</time></trkpt><trkpt lat="40.5818733" lon="8.5328767"><ele>267.0</ele><time>2026-04-16T12:32:18.782Z</time></trkpt><trkpt lat="40.5820117" lon="8.5329267"><ele>267.0</ele><time>2026-04-16T12:32:19.781Z</time></trkpt><trkpt lat="40.5821533" lon="8.53298"><ele>269.0</ele><time>2026-04-16T12:32:20.782Z</time></trkpt><trkpt lat="40.58229" lon="8.5330333"><ele>271.0</ele><time>2026-04-16T12:32:21.782Z</time></trkpt><trkpt lat="40.5824367" lon="8.53307"><ele>273.0</ele><time>2026-04-16T12:32:22.782Z</time></trkpt><trkpt lat="40.5825783" lon="8.533095"><ele>275.0</ele><time>2026-04-16T12:32:23.782Z</time></trkpt><trkpt lat="40.5827233" lon="8.533105"><ele>275.0</ele><time>2026-04-16T12:32:24.782Z</time></trkpt><trkpt lat="40.58286" lon="8.53312"><ele>275.0</ele><time>2026-04-16T12:32:25.781Z</time></trkpt><trkpt lat="40.5829883" lon="8.5331417"><ele>275.0</ele><time>2026-04-16T12:32:26.782Z</time></trkpt><trkpt lat="40.5831133" lon="8.53317"><ele>275.0</ele><time>2026-04-16T12:32:27.782Z</time></trkpt><trkpt lat="40.5832333" lon="8.5332283"><ele>275.0</ele><time>2026-04-16T12:32:28.782Z</time></trkpt><trkpt lat="40.583345" lon="8.5333117"><ele>275.0</ele><time>2026-04-16T12:32:29.782Z</time></trkpt><trkpt lat="40.583445" lon="8.533425"><ele>275.0</ele><time>2026-04-16T12:32:30.78Z</time></trkpt><trkpt lat="40.583545" lon="8.5335617"><ele>275.0</ele><time>2026-04-16T12:32:31.78Z</time></trkpt><trkpt lat="40.58365" lon="8.5336917"><ele>277.0</ele><time>2026-04-16T12:32:32.781Z</time></trkpt><trkpt lat="40.5837617" lon="8.533825"><ele>279.0</ele><time>2026-04-16T12:32:33.781Z</time></trkpt><trkpt lat="40.5838733" lon="8.53396"><ele>281.0</ele><time>2026-04-16T12:32:34.781Z</time></trkpt><trkpt lat="40.5839817" lon="8.5341"><ele>281.0</ele><time>2026-04-16T12:32:35.781Z</time></trkpt><trkpt lat="40.5841" lon="8.5342367"><ele>281.0</ele><time>2026-04-16T12:32:36.781Z</time></trkpt><trkpt lat="40.5842183" lon="8.5343717"><ele>281.0</ele><time>2026-04-16T12:32:37.781Z</time></trkpt><trkpt lat="40.5843367" lon="8.5345167"><ele>283.6666666666667</ele><time>2026-04-16T12:32:38.781Z</time></trkpt><trkpt lat="40.5844583" lon="8.5346667"><ele>286.3333333333333</ele><time>2026-04-16T12:32:39.78Z</time></trkpt><trkpt lat="40.5845833" lon="8.534805"><ele>289.0</ele><time>2026-04-16T12:32:40.78Z</time></trkpt><trkpt lat="40.58471" lon="8.5349417"><ele>289.0</ele><time>2026-04-16T12:32:41.781Z</time></trkpt><trkpt lat="40.5848333" lon="8.5350783"><ele>289.0</ele><time>2026-04-16T12:32:42.78Z</time></trkpt><trkpt lat="40.5849533" lon="8.53522"><ele>289.0</ele><time>2026-04-16T12:32:43.781Z</time></trkpt><trkpt lat="40.5850683" lon="8.5353617"><ele>290.25</ele><time>2026-04-16T12:32:44.781Z</time></trkpt><trkpt lat="40.5851717" lon="8.5355033"><ele>291.5</ele><time>2026-04-16T12:32:45.78Z</time></trkpt><trkpt lat="40.5852783" lon="8.5356417"><ele>292.75</ele><time>2026-04-16T12:32:46.781Z</time></trkpt><trkpt lat="40.585375" lon="8.5357817"><ele>294.0</ele><time>2026-04-16T12:32:47.78Z</time></trkpt><trkpt lat="40.5854583" lon="8.535915"><ele>296.5</ele><time>2026-04-16T12:32:48.78Z</time></trkpt><trkpt lat="40.585535" lon="8.53604"><ele>299.0</ele><time>2026-04-16T12:32:49.781Z</time></trkpt><trkpt lat="40.5855983" lon="8.536175"><ele>301.5</ele><time>2026-04-16T12:32:50.78Z</time></trkpt><trkpt lat="40.5856433" lon="8.5363283"><ele>304.0</ele><time>2026-04-16T12:32:51.781Z</time></trkpt><trkpt lat="40.5856817" lon="8.5365017"><ele>304.25</ele><time>2026-04-16T12:32:52.781Z</time></trkpt><trkpt lat="40.5857133" lon="8.5366767"><ele>304.5</ele><time>2026-04-16T12:32:53.781Z</time></trkpt><trkpt lat="40.5857433" lon="8.53686"><ele>304.75</ele><time>2026-04-16T12:32:54.78Z</time></trkpt><trkpt lat="40.58578" lon="8.53705"><ele>305.0</ele><time>2026-04-16T12:32:55.78Z</time></trkpt><trkpt lat="40.5858167" lon="8.537235"><ele>306.0</ele><time>2026-04-16T12:32:56.781Z</time></trkpt><trkpt lat="40.58585" lon="8.5374317"><ele>307.0</ele><time>2026-04-16T12:32:57.781Z</time></trkpt><trkpt lat="40.58587" lon="8.5376233"><ele>308.0</ele><time>2026-04-16T12:32:58.78Z</time></trkpt><trkpt lat="40.58589" lon="8.5378317"><ele>310.0</ele><time>2026-04-16T12:32:59.781Z</time></trkpt><trkpt lat="40.5859033" lon="8.5380267"><ele>312.0</ele><time>2026-04-16T12:33:00.78Z</time></trkpt><trkpt lat="40.5859033" lon="8.5382283"><ele>314.0</ele><time>2026-04-16T12:33:01.781Z</time></trkpt><trkpt lat="40.5859083" lon="8.53843"><ele>314.0</ele><time>2026-04-16T12:33:02.781Z</time></trkpt><trkpt lat="40.5859133" lon="8.5386383"><ele>314.0</ele><time>2026-04-16T12:33:03.78Z</time></trkpt><trkpt lat="40.5859167" lon="8.538835"><ele>314.0</ele><time>2026-04-16T12:33:04.78Z</time></trkpt><trkpt lat="40.585905" lon="8.5390367"><ele>315.0</ele><time>2026-04-16T12:33:05.781Z</time></trkpt><trkpt lat="40.58589" lon="8.539245"><ele>316.0</ele><time>2026-04-16T12:33:06.781Z</time></trkpt><trkpt lat="40.5858667" lon="8.53945"><ele>317.0</ele><time>2026-04-16T12:33:07.78Z</time></trkpt><trkpt lat="40.5858283" lon="8.5396633"><ele>315.25</ele><time>2026-04-16T12:33:08.781Z</time></trkpt><trkpt lat="40.5858067" lon="8.5398633"><ele>313.5</ele><time>2026-04-16T12:33:09.781Z</time></trkpt><trkpt lat="40.5857883" lon="8.5400617"><ele>311.75</ele><time>2026-04-16T12:33:10.78Z</time></trkpt><trkpt lat="40.5857767" lon="8.5402417"><ele>310.0</ele><time>2026-04-16T12:33:11.78Z</time></trkpt><trkpt lat="40.58575" lon="8.5404267"><ele>308.75</ele><time>2026-04-16T12:33:12.78Z</time></trkpt><trkpt lat="40.5857133" lon="8.5406017"><ele>307.5</ele><time>2026-04-16T12:33:13.78Z</time></trkpt><trkpt lat="40.5856767" lon="8.5407817"><ele>306.25</ele><time>2026-04-16T12:33:14.78Z</time></trkpt><trkpt lat="40.585635" lon="8.5409633"><ele>305.0</ele><time>2026-04-16T12:33:15.781Z</time></trkpt><trkpt lat="40.5855967" lon="8.5411483"><ele>306.0</ele><time>2026-04-16T12:33:16.781Z</time></trkpt><trkpt lat="40.585565" lon="8.54134"><ele>307.0</ele><time>2026-04-16T12:33:17.781Z</time></trkpt><trkpt lat="40.585545" lon="8.5415367"><ele>308.0</ele><time>2026-04-16T12:33:18.78Z</time></trkpt><trkpt lat="40.5855333" lon="8.5417383"><ele>308.0</ele><time>2026-04-16T12:33:19.781Z</time></trkpt><trkpt lat="40.5855267" lon="8.54192"><ele>308.0</ele><time>2026-04-16T12:33:20.781Z</time></trkpt><trkpt lat="40.585525" lon="8.5420733"><ele>308.0</ele><time>2026-04-16T12:33:21.781Z</time></trkpt><trkpt lat="40.58555" lon="8.5421783"><ele>308.0</ele><time>2026-04-16T12:33:22.781Z</time></trkpt><trkpt lat="40.5856017" lon="8.5422667"><ele>308.0</ele><time>2026-04-16T12:33:23.781Z</time></trkpt><trkpt lat="40.5856933" lon="8.5423267"><ele>312.0</ele><time>2026-04-16T12:33:24.781Z</time></trkpt><trkpt lat="40.5858067" lon="8.5423617"><ele>316.0</ele><time>2026-04-16T12:33:25.781Z</time></trkpt><trkpt lat="40.5859267" lon="8.54241"><ele>320.0</ele><time>2026-04-16T12:33:26.781Z</time></trkpt><trkpt lat="40.5860433" lon="8.5424917"><ele>324.0</ele><time>2026-04-16T12:33:27.781Z</time></trkpt><trkpt lat="40.5861517" lon="8.5426133"><ele>323.25</ele><time>2026-04-16T12:33:28.781Z</time></trkpt><trkpt lat="40.5862483" lon="8.5427567"><ele>322.5</ele><time>2026-04-16T12:33:29.781Z</time></trkpt><trkpt lat="40.586335" lon="8.5429083"><ele>321.75</ele><time>2026-04-16T12:33:30.781Z</time></trkpt><trkpt lat="40.58642" lon="8.5430717"><ele>321.0</ele><time>2026-04-16T12:33:31.781Z</time></trkpt><trkpt lat="40.5865033" lon="8.5432417"><ele>321.0</ele><time>2026-04-16T12:33:32.781Z</time></trkpt><trkpt lat="40.58659" lon="8.543425"><ele>321.0</ele><time>2026-04-16T12:33:33.78Z</time></trkpt><trkpt lat="40.586675" lon="8.5436033"><ele>321.0</ele><time>2026-04-16T12:33:34.78Z</time></trkpt><trkpt lat="40.586765" lon="8.5437833"><ele>322.6666666666667</ele><time>2026-04-16T12:33:35.781Z</time></trkpt><trkpt lat="40.5868567" lon="8.543965"><ele>324.33333333333337</ele><time>2026-04-16T12:33:36.781Z</time></trkpt><trkpt lat="40.5869467" lon="8.544135"><ele>326.0</ele><time>2026-04-16T12:33:37.781Z</time></trkpt><trkpt lat="40.587025" lon="8.5442967"><ele>326.0</ele><time>2026-04-16T12:33:38.78Z</time></trkpt><trkpt lat="40.5871033" lon="8.5444517"><ele>326.0</ele><time>2026-04-16T12:33:39.781Z</time></trkpt><trkpt lat="40.5871717" lon="8.544605"><ele>326.0</ele><time>2026-04-16T12:33:40.781Z</time></trkpt><trkpt lat="40.5872267" lon="8.544755"><ele>326.0</ele><time>2026-04-16T12:33:41.781Z</time></trkpt><trkpt lat="40.5872717" lon="8.544925"><ele>327.0</ele><time>2026-04-16T12:33:42.781Z</time></trkpt><trkpt lat="40.5873017" lon="8.545105"><ele>328.0</ele><time>2026-04-16T12:33:43.781Z</time></trkpt><trkpt lat="40.5873183" lon="8.5452967"><ele>329.0</ele><time>2026-04-16T12:33:44.781Z</time></trkpt><trkpt lat="40.5873283" lon="8.5454967"><ele>330.0</ele><time>2026-04-16T12:33:45.78Z</time></trkpt><trkpt lat="40.58735" lon="8.5456967"><ele>332.0</ele><time>2026-04-16T12:33:46.781Z</time></trkpt><trkpt lat="40.5873883" lon="8.54589"><ele>334.0</ele><time>2026-04-16T12:33:47.781Z</time></trkpt><trkpt lat="40.5874533" lon="8.5460767"><ele>336.0</ele><time>2026-04-16T12:33:48.78Z</time></trkpt><trkpt lat="40.587535" lon="8.5462533"><ele>336.75</ele><time>2026-04-16T12:33:49.781Z</time></trkpt><trkpt lat="40.5876133" lon="8.546415"><ele>337.5</ele><time>2026-04-16T12:33:50.781Z</time></trkpt><trkpt lat="40.5876717" lon="8.5465683"><ele>338.25</ele><time>2026-04-16T12:33:51.78Z</time></trkpt><trkpt lat="40.587705" lon="8.54671"><ele>339.0</ele><time>2026-04-16T12:33:52.781Z</time></trkpt><trkpt lat="40.58771" lon="8.5468633"><ele>339.0</ele><time>2026-04-16T12:33:53.781Z</time></trkpt><trkpt lat="40.5876817" lon="8.5470283"><ele>339.0</ele><time>2026-04-16T12:33:54.78Z</time></trkpt><trkpt lat="40.5876367" lon="8.5472"><ele>339.0</ele><time>2026-04-16T12:33:55.781Z</time></trkpt><trkpt lat="40.5875933" lon="8.54737"><ele>339.0</ele><time>2026-04-16T12:33:56.781Z</time></trkpt><trkpt lat="40.58755" lon="8.54755"><ele>341.3333333333333</ele><time>2026-04-16T12:33:57.78Z</time></trkpt><trkpt lat="40.5875067" lon="8.54774"><ele>343.66666666666663</ele><time>2026-04-16T12:33:58.78Z</time></trkpt><trkpt lat="40.587455" lon="8.54794"><ele>346.0</ele><time>2026-04-16T12:33:59.78Z</time></trkpt><trkpt lat="40.5874033" lon="8.54813"><ele>347.3333333333333</ele><time>2026-04-16T12:34:00.781Z</time></trkpt><trkpt lat="40.5873567" lon="8.54833"><ele>348.6666666666667</ele><time>2026-04-16T12:34:01.78Z</time></trkpt><trkpt lat="40.5873083" lon="8.5485267"><ele>350.0</ele><time>2026-04-16T12:34:02.781Z</time></trkpt><trkpt lat="40.5872667" lon="8.5487267"><ele>350.6666666666667</ele><time>2026-04-16T12:34:03.78Z</time></trkpt><trkpt lat="40.587225" lon="8.54893"><ele>351.3333333333333</ele><time>2026-04-16T12:34:04.781Z</time></trkpt><trkpt lat="40.5871783" lon="8.549125"><ele>352.0</ele><time>2026-04-16T12:34:05.78Z</time></trkpt><trkpt lat="40.587135" lon="8.5493167"><ele>352.0</ele><time>2026-04-16T12:34:06.781Z</time></trkpt><trkpt lat="40.5870783" lon="8.5495083"><ele>352.0</ele><time>2026-04-16T12:34:07.781Z</time></trkpt><trkpt lat="40.5870117" lon="8.5497017"><ele>352.0</ele><time>2026-04-16T12:34:08.781Z</time></trkpt><trkpt lat="40.5869467" lon="8.549895"><ele>355.66666666666663</ele><time>2026-04-16T12:34:09.78Z</time></trkpt><trkpt lat="40.5868933" lon="8.5501"><ele>359.3333333333333</ele><time>2026-04-16T12:34:10.781Z</time></trkpt><trkpt lat="40.586865" lon="8.5503183"><ele>363.0</ele><time>2026-04-16T12:34:11.781Z</time></trkpt><trkpt lat="40.586865" lon="8.5505367"><ele>363.3333333333333</ele><time>2026-04-16T12:34:12.781Z</time></trkpt><trkpt lat="40.58687" lon="8.550755"><ele>363.66666666666663</ele><time>2026-04-16T12:34:13.781Z</time></trkpt><trkpt lat="40.5868767" lon="8.5509733"><ele>364.0</ele><time>2026-04-16T12:34:14.781Z</time></trkpt><trkpt lat="40.586885" lon="8.5511783"><ele>366.0</ele><time>2026-04-16T12:34:15.781Z</time></trkpt><trkpt lat="40.58689" lon="8.551375"><ele>368.0</ele><time>2026-04-16T12:34:16.781Z</time></trkpt><trkpt lat="40.586875" lon="8.5515733"><ele>370.0</ele><time>2026-04-16T12:34:17.781Z</time></trkpt><trkpt lat="40.58685" lon="8.5517733"><ele>370.0</ele><time>2026-04-16T12:34:18.781Z</time></trkpt><trkpt lat="40.586815" lon="8.551965"><ele>370.0</ele><time>2026-04-16T12:34:19.781Z</time></trkpt><trkpt lat="40.5867783" lon="8.5521517"><ele>370.0</ele><time>2026-04-16T12:34:20.781Z</time></trkpt><trkpt lat="40.5867383" lon="8.55232"><ele>370.0</ele><time>2026-04-16T12:34:21.781Z</time></trkpt><trkpt lat="40.58669" lon="8.5524917"><ele>369.3333333333333</ele><time>2026-04-16T12:34:22.78Z</time></trkpt><trkpt lat="40.5866217" lon="8.5526617"><ele>368.6666666666667</ele><time>2026-04-16T12:34:23.781Z</time></trkpt><trkpt lat="40.58654" lon="8.5528267"><ele>368.0</ele><time>2026-04-16T12:34:24.781Z</time></trkpt><trkpt lat="40.5864483" lon="8.5529967"><ele>364.0</ele><time>2026-04-16T12:34:25.78Z</time></trkpt><trkpt lat="40.5863567" lon="8.5531667"><ele>360.0</ele><time>2026-04-16T12:34:26.78Z</time></trkpt><trkpt lat="40.5862617" lon="8.5533467"><ele>356.0</ele><time>2026-04-16T12:34:27.781Z</time></trkpt><trkpt lat="40.5861717" lon="8.553535"><ele>359.0</ele><time>2026-04-16T12:34:28.781Z</time></trkpt><trkpt lat="40.5860983" lon="8.5537167"><ele>362.0</ele><time>2026-04-16T12:34:29.781Z</time></trkpt><trkpt lat="40.5860233" lon="8.5539"><ele>365.0</ele><time>2026-04-16T12:34:30.78Z</time></trkpt><trkpt lat="40.58594" lon="8.5540633"><ele>365.0</ele><time>2026-04-16T12:34:31.781Z</time></trkpt><trkpt lat="40.58585" lon="8.5542117"><ele>365.0</ele><time>2026-04-16T12:34:32.781Z</time></trkpt><trkpt lat="40.5857533" lon="8.5543667"><ele>365.0</ele><time>2026-04-16T12:34:33.781Z</time></trkpt><trkpt lat="40.5856567" lon="8.554525"><ele>360.33333333333337</ele><time>2026-04-16T12:34:34.78Z</time></trkpt><trkpt lat="40.5855633" lon="8.5546983"><ele>355.6666666666667</ele><time>2026-04-16T12:34:35.781Z</time></trkpt><trkpt lat="40.5854733" lon="8.5548733"><ele>351.0</ele><time>2026-04-16T12:34:36.78Z</time></trkpt><trkpt lat="40.5853883" lon="8.5550467"><ele>355.25</ele><time>2026-04-16T12:34:37.78Z</time></trkpt><trkpt lat="40.5853133" lon="8.5552267"><ele>359.5</ele><time>2026-04-16T12:34:38.781Z</time></trkpt><trkpt lat="40.5852567" lon="8.5553983"><ele>363.75</ele><time>2026-04-16T12:34:39.781Z</time></trkpt><trkpt lat="40.5852067" lon="8.555575"><ele>368.0</ele><time>2026-04-16T12:34:40.781Z</time></trkpt><trkpt lat="40.5851683" lon="8.5557483"><ele>368.0</ele><time>2026-04-16T12:34:41.781Z</time></trkpt><trkpt lat="40.585145" lon="8.5559217"><ele>368.0</ele><time>2026-04-16T12:34:42.781Z</time></trkpt><trkpt lat="40.5851183" lon="8.5560867"><ele>368.0</ele><time>2026-04-16T12:34:43.781Z</time></trkpt><trkpt lat="40.5850933" lon="8.556235"><ele>368.0</ele><time>2026-04-16T12:34:44.781Z</time></trkpt><trkpt lat="40.585055" lon="8.5563817"><ele>366.0</ele><time>2026-04-16T12:34:45.781Z</time></trkpt><trkpt lat="40.5850083" lon="8.5565317"><ele>364.0</ele><time>2026-04-16T12:34:46.781Z</time></trkpt><trkpt lat="40.584945" lon="8.5566733"><ele>362.0</ele><time>2026-04-16T12:34:47.781Z</time></trkpt><trkpt lat="40.5848617" lon="8.5568067"><ele>360.0</ele><time>2026-04-16T12:34:48.781Z</time></trkpt><trkpt lat="40.5847617" lon="8.556915"><ele>360.5</ele><time>2026-04-16T12:34:49.781Z</time></trkpt><trkpt lat="40.58466" lon="8.5570367"><ele>361.0</ele><time>2026-04-16T12:34:50.781Z</time></trkpt><trkpt lat="40.5845567" lon="8.557165"><ele>361.5</ele><time>2026-04-16T12:34:51.78Z</time></trkpt><trkpt lat="40.5844667" lon="8.5573067"><ele>362.0</ele><time>2026-04-16T12:34:52.78Z</time></trkpt><trkpt lat="40.5843817" lon="8.5574483"><ele>362.0</ele><time>2026-04-16T12:34:53.78Z</time></trkpt><trkpt lat="40.584295" lon="8.5576017"><ele>362.0</ele><time>2026-04-16T12:34:54.781Z</time></trkpt><trkpt lat="40.5842117" lon="8.55774"><ele>362.0</ele><time>2026-04-16T12:34:55.78Z</time></trkpt><trkpt lat="40.5841217" lon="8.5578617"><ele>362.0</ele><time>2026-04-16T12:34:56.78Z</time></trkpt><trkpt lat="40.58405" lon="8.5579767"><ele>359.0</ele><time>2026-04-16T12:34:57.781Z</time></trkpt><trkpt lat="40.58401" lon="8.5581017"><ele>356.0</ele><time>2026-04-16T12:34:58.781Z</time></trkpt><trkpt lat="40.5839917" lon="8.5582417"><ele>353.0</ele><time>2026-04-16T12:34:59.781Z</time></trkpt><trkpt lat="40.5839967" lon="8.5584017"><ele>350.0</ele><time>2026-04-16T12:35:00.781Z</time></trkpt><trkpt lat="40.5840283" lon="8.5585667"><ele>349.5</ele><time>2026-04-16T12:35:01.781Z</time></trkpt><trkpt lat="40.5840767" lon="8.55873"><ele>349.0</ele><time>2026-04-16T12:35:02.78Z</time></trkpt><trkpt lat="40.5841433" lon="8.558885"><ele>348.5</ele><time>2026-04-16T12:35:03.781Z</time></trkpt><trkpt lat="40.5842267" lon="8.5590183"><ele>348.0</ele><time>2026-04-16T12:35:04.781Z</time></trkpt><trkpt lat="40.584325" lon="8.5591317"><ele>348.0</ele><time>2026-04-16T12:35:05.781Z</time></trkpt><trkpt lat="40.58444" lon="8.559205"><ele>348.0</ele><time>2026-04-16T12:35:06.781Z</time></trkpt><trkpt lat="40.5845483" lon="8.5592367"><ele>348.0</ele><time>2026-04-16T12:35:07.779Z</time></trkpt><trkpt lat="40.584645" lon="8.5592167"><ele>348.0</ele><time>2026-04-16T12:35:08.779Z</time></trkpt><trkpt lat="40.5847167" lon="8.5591433"><ele>348.0</ele><time>2026-04-16T12:35:09.779Z</time></trkpt><trkpt lat="40.5847617" lon="8.5590217"><ele>350.0</ele><time>2026-04-16T12:35:10.779Z</time></trkpt><trkpt lat="40.5848" lon="8.5589083"><ele>352.0</ele><time>2026-04-16T12:35:11.78Z</time></trkpt><trkpt lat="40.5848583" lon="8.5588233"><ele>354.0</ele><time>2026-04-16T12:35:12.779Z</time></trkpt><trkpt lat="40.5849483" lon="8.5587767"><ele>356.0</ele><time>2026-04-16T12:35:13.779Z</time></trkpt><trkpt lat="40.5850567" lon="8.5587883"><ele>358.0</ele><time>2026-04-16T12:35:14.78Z</time></trkpt><trkpt lat="40.5851667" lon="8.5588333"><ele>358.0</ele><time>2026-04-16T12:35:15.779Z</time></trkpt><trkpt lat="40.5852833" lon="8.5588767"><ele>358.0</ele><time>2026-04-16T12:35:16.779Z</time></trkpt><trkpt lat="40.58541" lon="8.55892"><ele>358.0</ele><time>2026-04-16T12:35:17.78Z</time></trkpt><trkpt lat="40.58554" lon="8.558945"><ele>358.0</ele><time>2026-04-16T12:35:18.78Z</time></trkpt><trkpt lat="40.5856767" lon="8.5589583"><ele>360.5</ele><time>2026-04-16T12:35:19.78Z</time></trkpt><trkpt lat="40.5858117" lon="8.558975"><ele>363.0</ele><time>2026-04-16T12:35:20.779Z</time></trkpt><trkpt lat="40.5859333" lon="8.559025"><ele>365.5</ele><time>2026-04-16T12:35:21.779Z</time></trkpt><trkpt lat="40.5860433" lon="8.5591133"><ele>368.0</ele><time>2026-04-16T12:35:22.78Z</time></trkpt><trkpt lat="40.58614" lon="8.5592383"><ele>368.75</ele><time>2026-04-16T12:35:23.779Z</time></trkpt><trkpt lat="40.5862283" lon="8.5593783"><ele>369.5</ele><time>2026-04-16T12:35:24.78Z</time></trkpt><trkpt lat="40.586315" lon="8.5595317"><ele>370.25</ele><time>2026-04-16T12:35:25.779Z</time></trkpt><trkpt lat="40.5863967" lon="8.55969"><ele>371.0</ele><time>2026-04-16T12:35:26.779Z</time></trkpt><trkpt lat="40.586475" lon="8.5598533"><ele>373.5</ele><time>2026-04-16T12:35:27.78Z</time></trkpt><trkpt lat="40.5865517" lon="8.5600133"><ele>376.0</ele><time>2026-04-16T12:35:28.779Z</time></trkpt><trkpt lat="40.586635" lon="8.5601733"><ele>378.5</ele><time>2026-04-16T12:35:29.779Z</time></trkpt><trkpt lat="40.58672" lon="8.5603383"><ele>381.0</ele><time>2026-04-16T12:35:30.779Z</time></trkpt><trkpt lat="40.58681" lon="8.5605133"><ele>383.33333333333337</ele><time>2026-04-16T12:35:31.78Z</time></trkpt><trkpt lat="40.5869" lon="8.560695"><ele>385.6666666666667</ele><time>2026-04-16T12:35:32.779Z</time></trkpt><trkpt lat="40.5869917" lon="8.560875"><ele>388.0</ele><time>2026-04-16T12:35:33.78Z</time></trkpt><trkpt lat="40.58708" lon="8.5610517"><ele>392.6666666666667</ele><time>2026-04-16T12:35:34.78Z</time></trkpt><trkpt lat="40.58717" lon="8.5612333"><ele>397.33333333333337</ele><time>2026-04-16T12:35:35.78Z</time></trkpt><trkpt lat="40.5872667" lon="8.5614117"><ele>402.0</ele><time>2026-04-16T12:35:36.779Z</time></trkpt><trkpt lat="40.5873683" lon="8.561575"><ele>402.0</ele><time>2026-04-16T12:35:37.779Z</time></trkpt><trkpt lat="40.5874733" lon="8.5617367"><ele>402.0</ele><time>2026-04-16T12:35:38.78Z</time></trkpt><trkpt lat="40.5875667" lon="8.5619"><ele>402.0</ele><time>2026-04-16T12:35:39.779Z</time></trkpt><trkpt lat="40.5876583" lon="8.5620467"><ele>404.25</ele><time>2026-04-16T12:35:40.78Z</time></trkpt><trkpt lat="40.5877683" lon="8.5621667"><ele>406.5</ele><time>2026-04-16T12:35:41.78Z</time></trkpt><trkpt lat="40.5878967" lon="8.5622633"><ele>408.75</ele><time>2026-04-16T12:35:42.78Z</time></trkpt><trkpt lat="40.5880317" lon="8.5623533"><ele>411.0</ele><time>2026-04-16T12:35:43.78Z</time></trkpt><trkpt lat="40.5881467" lon="8.56247"><ele>411.25</ele><time>2026-04-16T12:35:44.78Z</time></trkpt><trkpt lat="40.5882483" lon="8.5625933"><ele>411.5</ele><time>2026-04-16T12:35:45.779Z</time></trkpt><trkpt lat="40.5883317" lon="8.562715"><ele>411.75</ele><time>2026-04-16T12:35:46.78Z</time></trkpt><trkpt lat="40.58841" lon="8.5628283"><ele>412.0</ele><time>2026-04-16T12:35:47.78Z</time></trkpt><trkpt lat="40.5884717" lon="8.5629517"><ele>413.25</ele><time>2026-04-16T12:35:48.779Z</time></trkpt><trkpt lat="40.5885233" lon="8.5630867"><ele>414.5</ele><time>2026-04-16T12:35:49.78Z</time></trkpt><trkpt lat="40.58855" lon="8.5632417"><ele>415.75</ele><time>2026-04-16T12:35:50.779Z</time></trkpt><trkpt lat="40.58856" lon="8.5634017"><ele>417.0</ele><time>2026-04-16T12:35:51.78Z</time></trkpt><trkpt lat="40.5885467" lon="8.5635717"><ele>415.6</ele><time>2026-04-16T12:35:52.779Z</time></trkpt><trkpt lat="40.5885283" lon="8.5637367"><ele>414.20000000000005</ele><time>2026-04-16T12:35:53.779Z</time></trkpt><trkpt lat="40.5884983" lon="8.5638917"><ele>412.8</ele><time>2026-04-16T12:35:54.78Z</time></trkpt><trkpt lat="40.5884667" lon="8.564015"><ele>411.4</ele><time>2026-04-16T12:35:55.78Z</time></trkpt><trkpt lat="40.5884417" lon="8.5640967"><ele>410.0</ele><time>2026-04-16T12:35:56.78Z</time></trkpt><trkpt lat="40.5884583" lon="8.564205"><ele>410.0</ele><time>2026-04-16T12:35:59.78Z</time></trkpt><trkpt lat="40.5885483" lon="8.5642367"><ele>410.0</ele><time>2026-04-16T12:36:01.779Z</time></trkpt><trkpt lat="40.58864" lon="8.5642367"><ele>410.0</ele><time>2026-04-16T12:36:03.78Z</time></trkpt><trkpt lat="40.5887533" lon="8.5642217"><ele>410.0</ele><time>2026-04-16T12:36:05.78Z</time></trkpt><trkpt lat="40.5888717" lon="8.564225"><ele>410.0</ele><time>2026-04-16T12:36:07.78Z</time></trkpt><trkpt lat="40.5889367" lon="8.5642183"><ele>409.49999999999994</ele><time>2026-04-16T12:36:08.78Z</time></trkpt><trkpt lat="40.5890033" lon="8.5642167"><ele>409.0</ele><time>2026-04-16T12:36:09.78Z</time></trkpt><trkpt lat="40.5890833" lon="8.5642233"><ele>408.5</ele><time>2026-04-16T12:36:10.78Z</time></trkpt><trkpt lat="40.5891717" lon="8.5642233"><ele>408.0</ele><time>2026-04-16T12:36:11.779Z</time></trkpt><trkpt lat="40.5892617" lon="8.5642117"><ele>407.49999999999994</ele><time>2026-04-16T12:36:12.779Z</time></trkpt><trkpt lat="40.5893617" lon="8.5641983"><ele>407.0</ele><time>2026-04-16T12:36:13.78Z</time></trkpt><trkpt lat="40.5894617" lon="8.564195"><ele>408.5</ele><time>2026-04-16T12:36:14.78Z</time></trkpt><trkpt lat="40.5895717" lon="8.5641917"><ele>410.0</ele><time>2026-04-16T12:36:15.779Z</time></trkpt><trkpt lat="40.5896867" lon="8.5641883"><ele>411.5</ele><time>2026-04-16T12:36:16.78Z</time></trkpt><trkpt lat="40.5898017" lon="8.5641833"><ele>413.0</ele><time>2026-04-16T12:36:17.779Z</time></trkpt><trkpt lat="40.589915" lon="8.564175"><ele>413.0</ele><time>2026-04-16T12:36:18.78Z</time></trkpt><trkpt lat="40.5900267" lon="8.5641733"><ele>413.0</ele><time>2026-04-16T12:36:19.78Z</time></trkpt><trkpt lat="40.5901417" lon="8.5641733"><ele>413.0</ele><time>2026-04-16T12:36:20.78Z</time></trkpt><trkpt lat="40.5902533" lon="8.5641783"><ele>413.0</ele><time>2026-04-16T12:36:21.779Z</time></trkpt><trkpt lat="40.590355" lon="8.5641983"><ele>413.0</ele><time>2026-04-16T12:36:22.78Z</time></trkpt><trkpt lat="40.5904567" lon="8.5642317"><ele>413.59999999999997</ele><time>2026-04-16T12:36:23.78Z</time></trkpt><trkpt lat="40.590555" lon="8.56428"><ele>414.2</ele><time>2026-04-16T12:36:24.78Z</time></trkpt><trkpt lat="40.5906567" lon="8.564335"><ele>414.8</ele><time>2026-04-16T12:36:25.78Z</time></trkpt><trkpt lat="40.5907517" lon="8.5643883"><ele>415.4</ele><time>2026-04-16T12:36:26.78Z</time></trkpt><trkpt lat="40.590845" lon="8.5644383"><ele>416.0</ele><time>2026-04-16T12:36:27.78Z</time></trkpt><trkpt lat="40.5909283" lon="8.5644767"><ele>416.0</ele><time>2026-04-16T12:36:28.78Z</time></trkpt><trkpt lat="40.5909983" lon="8.564505"><ele>416.0</ele><time>2026-04-16T12:36:29.78Z</time></trkpt><trkpt lat="40.5910933" lon="8.5645683"><ele>416.0</ele><time>2026-04-16T12:36:31.78Z</time></trkpt><trkpt lat="40.591185" lon="8.5645517"><ele>416.0</ele><time>2026-04-16T12:36:35.78Z</time></trkpt><trkpt lat="40.59124" lon="8.56443"><ele>416.0</ele><time>2026-04-16T12:36:37.779Z</time></trkpt><trkpt lat="40.5912783" lon="8.5642833"><ele>415.6</ele><time>2026-04-16T12:36:39.78Z</time></trkpt><trkpt lat="40.5913" lon="8.5642017"><ele>415.20000000000005</ele><time>2026-04-16T12:36:40.779Z</time></trkpt><trkpt lat="40.5913467" lon="8.56407"><ele>414.79999999999995</ele><time>2026-04-16T12:36:42.78Z</time></trkpt><trkpt lat="40.59139" lon="8.563955"><ele>414.4</ele><time>2026-04-16T12:36:44.779Z</time></trkpt><trkpt lat="40.59143" lon="8.563825"><ele>414.0</ele><time>2026-04-16T12:36:46.78Z</time></trkpt><trkpt lat="40.5914883" lon="8.5636683"><ele>414.5714285714286</ele><time>2026-04-16T12:36:48.779Z</time></trkpt><trkpt lat="40.591525" lon="8.5635717"><ele>415.14285714285717</ele><time>2026-04-16T12:36:49.779Z</time></trkpt><trkpt lat="40.591565" lon="8.563485"><ele>415.7142857142857</ele><time>2026-04-16T12:36:50.78Z</time></trkpt><trkpt lat="40.5916" lon="8.5633983"><ele>416.28571428571433</ele><time>2026-04-16T12:36:51.78Z</time></trkpt><trkpt lat="40.5916333" lon="8.563325"><ele>416.85714285714283</ele><time>2026-04-16T12:36:52.779Z</time></trkpt><trkpt lat="40.5916683" lon="8.5632533"><ele>417.42857142857144</ele><time>2026-04-16T12:36:53.779Z</time></trkpt><trkpt lat="40.5917067" lon="8.5631833"><ele>418.0</ele><time>2026-04-16T12:36:54.78Z</time></trkpt><trkpt lat="40.591745" lon="8.563105"><ele>418.00000000000006</ele><time>2026-04-16T12:36:55.779Z</time></trkpt><trkpt lat="40.59179" lon="8.56302"><ele>418.0</ele><time>2026-04-16T12:36:56.779Z</time></trkpt><trkpt lat="40.5918433" lon="8.56294"><ele>418.0</ele><time>2026-04-16T12:36:57.78Z</time></trkpt><trkpt lat="40.5919017" lon="8.56286"><ele>418.0</ele><time>2026-04-16T12:36:58.78Z</time></trkpt><trkpt lat="40.5919517" lon="8.56279"><ele>418.00000000000006</ele><time>2026-04-16T12:36:59.779Z</time></trkpt><trkpt lat="40.5919967" lon="8.5627167"><ele>418.0</ele><time>2026-04-16T12:37:00.78Z</time></trkpt><trkpt lat="40.5920417" lon="8.56263"><ele>418.00000000000006</ele><time>2026-04-16T12:37:01.78Z</time></trkpt><trkpt lat="40.5920833" lon="8.5625483"><ele>418.0</ele><time>2026-04-16T12:37:02.78Z</time></trkpt><trkpt lat="40.59213" lon="8.5624733"><ele>418.0</ele><time>2026-04-16T12:37:03.779Z</time></trkpt><trkpt lat="40.592185" lon="8.5624117"><ele>418.0</ele><time>2026-04-16T12:37:05.779Z</time></trkpt><trkpt lat="40.5922367" lon="8.5623083"><ele>418.00000000000006</ele><time>2026-04-16T12:37:17.779Z</time></trkpt><trkpt lat="40.5923183" lon="8.562225"><ele>418.0</ele><time>2026-04-16T12:37:19.779Z</time></trkpt><trkpt lat="40.592425" lon="8.5622117"><ele>418.0</ele><time>2026-04-16T12:37:21.78Z</time></trkpt><trkpt lat="40.5925367" lon="8.5622"><ele>418.0</ele><time>2026-04-16T12:37:23.78Z</time></trkpt><trkpt lat="40.5926433" lon="8.5621967"><ele>418.0</ele><time>2026-04-16T12:37:25.78Z</time></trkpt><trkpt lat="40.5927317" lon="8.56225"><ele>418.0</ele><time>2026-04-16T12:37:27.779Z</time></trkpt><trkpt lat="40.5928033" lon="8.5623767"><ele>418.0</ele><time>2026-04-16T12:37:29.78Z</time></trkpt><trkpt lat="40.59284" lon="8.56246"><ele>418.59999999999997</ele><time>2026-04-16T12:37:30.779Z</time></trkpt><trkpt lat="40.5928917" lon="8.5625533"><ele>419.2</ele><time>2026-04-16T12:37:31.779Z</time></trkpt><trkpt lat="40.59295" lon="8.5626567"><ele>419.8</ele><time>2026-04-16T12:37:32.78Z</time></trkpt><trkpt lat="40.5930183" lon="8.562765"><ele>420.4</ele><time>2026-04-16T12:37:33.78Z</time></trkpt><trkpt lat="40.593085" lon="8.5628733"><ele>421.0</ele><time>2026-04-16T12:37:34.779Z</time></trkpt><trkpt lat="40.59315" lon="8.5629867"><ele>421.0</ele><time>2026-04-16T12:37:35.779Z</time></trkpt><trkpt lat="40.5932217" lon="8.5630883"><ele>421.0</ele><time>2026-04-16T12:37:36.779Z</time></trkpt><trkpt lat="40.5932967" lon="8.5631967"><ele>421.0</ele><time>2026-04-16T12:37:37.779Z</time></trkpt><trkpt lat="40.593365" lon="8.5632967"><ele>421.0</ele><time>2026-04-16T12:37:38.78Z</time></trkpt><trkpt lat="40.593425" lon="8.563395"><ele>421.0</ele><time>2026-04-16T12:37:39.78Z</time></trkpt><trkpt lat="40.5934833" lon="8.5634867"><ele>421.0</ele><time>2026-04-16T12:37:40.779Z</time></trkpt><trkpt lat="40.5935483" lon="8.5635867"><ele>421.0</ele><time>2026-04-16T12:37:41.779Z</time></trkpt><trkpt lat="40.59362" lon="8.5636917"><ele>421.0</ele><time>2026-04-16T12:37:42.778Z</time></trkpt><trkpt lat="40.5936933" lon="8.56381"><ele>421.0</ele><time>2026-04-16T12:37:43.778Z</time></trkpt><trkpt lat="40.5937733" lon="8.5639283"><ele>421.0</ele><time>2026-04-16T12:37:44.778Z</time></trkpt><trkpt lat="40.5938417" lon="8.5640617"><ele>421.0</ele><time>2026-04-16T12:37:45.779Z</time></trkpt><trkpt lat="40.593915" lon="8.5641917"><ele>421.0</ele><time>2026-04-16T12:37:46.779Z</time></trkpt><trkpt lat="40.59404" lon="8.5644833"><ele>421.0</ele><time>2026-04-16T12:37:48.779Z</time></trkpt><trkpt lat="40.5940917" lon="8.56463"><ele>420.4</ele><time>2026-04-16T12:37:49.778Z</time></trkpt><trkpt lat="40.5941467" lon="8.5647717"><ele>419.8</ele><time>2026-04-16T12:37:50.779Z</time></trkpt><trkpt lat="40.5941867" lon="8.5649183"><ele>419.2</ele><time>2026-04-16T12:37:51.779Z</time></trkpt><trkpt lat="40.5942167" lon="8.5650483"><ele>418.59999999999997</ele><time>2026-04-16T12:37:52.778Z</time></trkpt><trkpt lat="40.5942317" lon="8.56514"><ele>418.0</ele><time>2026-04-16T12:37:53.778Z</time></trkpt><trkpt lat="40.5942933" lon="8.5652333"><ele>418.0</ele><time>2026-04-16T12:37:59.778Z</time></trkpt><trkpt lat="40.5944183" lon="8.56527"><ele>418.0</ele><time>2026-04-16T12:38:01.778Z</time></trkpt><trkpt lat="40.5944983" lon="8.5653033"><ele>418.0</ele><time>2026-04-16T12:38:02.778Z</time></trkpt><trkpt lat="40.59459" lon="8.5653283"><ele>418.0</ele><time>2026-04-16T12:38:03.779Z</time></trkpt><trkpt lat="40.5946833" lon="8.5653617"><ele>418.0</ele><time>2026-04-16T12:38:04.778Z</time></trkpt><trkpt lat="40.5947783" lon="8.565395"><ele>417.59999999999997</ele><time>2026-04-16T12:38:05.778Z</time></trkpt><trkpt lat="40.5948767" lon="8.56544"><ele>417.2</ele><time>2026-04-16T12:38:06.779Z</time></trkpt><trkpt lat="40.5949817" lon="8.5654733"><ele>416.8</ele><time>2026-04-16T12:38:07.779Z</time></trkpt><trkpt lat="40.5950833" lon="8.5655217"><ele>416.4</ele><time>2026-04-16T12:38:08.779Z</time></trkpt><trkpt lat="40.5951867" lon="8.5655817"><ele>416.0</ele><time>2026-04-16T12:38:09.779Z</time></trkpt><trkpt lat="40.5952867" lon="8.5656183"><ele>417.6</ele><time>2026-04-16T12:38:10.779Z</time></trkpt><trkpt lat="40.59539" lon="8.5656683"><ele>419.20000000000005</ele><time>2026-04-16T12:38:11.779Z</time></trkpt><trkpt lat="40.5954917" lon="8.5656983"><ele>420.79999999999995</ele><time>2026-04-16T12:38:12.779Z</time></trkpt><trkpt lat="40.5955917" lon="8.5657433"><ele>422.4</ele><time>2026-04-16T12:38:13.779Z</time></trkpt><trkpt lat="40.5956883" lon="8.565785"><ele>424.0</ele><time>2026-04-16T12:38:14.779Z</time></trkpt><trkpt lat="40.59578" lon="8.56583"><ele>424.00000000000006</ele><time>2026-04-16T12:38:15.778Z</time></trkpt><trkpt lat="40.595875" lon="8.565855"><ele>424.0</ele><time>2026-04-16T12:38:16.779Z</time></trkpt><trkpt lat="40.5959533" lon="8.5658917"><ele>424.0</ele><time>2026-04-16T12:38:17.779Z</time></trkpt><trkpt lat="40.5960383" lon="8.565905"><ele>424.0</ele><time>2026-04-16T12:38:18.778Z</time></trkpt><trkpt lat="40.5961033" lon="8.56593"><ele>424.00000000000006</ele><time>2026-04-16T12:38:20.779Z</time></trkpt><trkpt lat="40.596195" lon="8.56589"><ele>424.0</ele><time>2026-04-16T12:38:23.779Z</time></trkpt><trkpt lat="40.596255" lon="8.5658283"><ele>423.79999999999995</ele><time>2026-04-16T12:38:24.778Z</time></trkpt><trkpt lat="40.59632" lon="8.5657583"><ele>423.59999999999997</ele><time>2026-04-16T12:38:25.779Z</time></trkpt><trkpt lat="40.5963967" lon="8.5657017"><ele>423.4</ele><time>2026-04-16T12:38:26.778Z</time></trkpt><trkpt lat="40.5964767" lon="8.56566"><ele>423.2</ele><time>2026-04-16T12:38:27.779Z</time></trkpt><trkpt lat="40.5965733" lon="8.5656383"><ele>423.0</ele><time>2026-04-16T12:38:28.778Z</time></trkpt><trkpt lat="40.5966633" lon="8.5655967"><ele>423.0</ele><time>2026-04-16T12:38:29.778Z</time></trkpt><trkpt lat="40.5967467" lon="8.56556"><ele>423.0</ele><time>2026-04-16T12:38:30.779Z</time></trkpt><trkpt lat="40.5968317" lon="8.56553"><ele>423.0</ele><time>2026-04-16T12:38:31.779Z</time></trkpt><trkpt lat="40.596915" lon="8.5655067"><ele>423.0</ele><time>2026-04-16T12:38:32.779Z</time></trkpt><trkpt lat="40.597" lon="8.5654867"><ele>423.0</ele><time>2026-04-16T12:38:33.778Z</time></trkpt><trkpt lat="40.59708" lon="8.5654633"><ele>423.0</ele><time>2026-04-16T12:38:34.779Z</time></trkpt><trkpt lat="40.5971633" lon="8.56546"><ele>424.0</ele><time>2026-04-16T12:38:35.779Z</time></trkpt><trkpt lat="40.5972383" lon="8.5654617"><ele>425.0</ele><time>2026-04-16T12:38:36.778Z</time></trkpt><trkpt lat="40.5973217" lon="8.5654733"><ele>425.99999999999994</ele><time>2026-04-16T12:38:37.779Z</time></trkpt><trkpt lat="40.5974167" lon="8.5654867"><ele>427.0</ele><time>2026-04-16T12:38:38.779Z</time></trkpt><trkpt lat="40.5975183" lon="8.565495"><ele>428.0</ele><time>2026-04-16T12:38:39.779Z</time></trkpt><trkpt lat="40.5976217" lon="8.5655033"><ele>428.0</ele><time>2026-04-16T12:38:40.779Z</time></trkpt><trkpt lat="40.597735" lon="8.5655167"><ele>428.0</ele><time>2026-04-16T12:38:41.779Z</time></trkpt><trkpt lat="40.5978417" lon="8.5655167"><ele>428.0</ele><time>2026-04-16T12:38:42.779Z</time></trkpt><trkpt lat="40.5979517" lon="8.5655183"><ele>428.0</ele><time>2026-04-16T12:38:43.779Z</time></trkpt><trkpt lat="40.5980717" lon="8.56554"><ele>429.5</ele><time>2026-04-16T12:38:44.778Z</time></trkpt><trkpt lat="40.5981967" lon="8.5655517"><ele>431.0</ele><time>2026-04-16T12:38:45.778Z</time></trkpt><trkpt lat="40.5983333" lon="8.5655683"><ele>432.5</ele><time>2026-04-16T12:38:46.778Z</time></trkpt><trkpt lat="40.59846" lon="8.5655833"><ele>434.0</ele><time>2026-04-16T12:38:47.779Z</time></trkpt><trkpt lat="40.598585" lon="8.5655933"><ele>435.0</ele><time>2026-04-16T12:38:48.779Z</time></trkpt><trkpt lat="40.5987" lon="8.565605"><ele>436.0</ele><time>2026-04-16T12:38:49.778Z</time></trkpt><trkpt lat="40.5988" lon="8.56561"><ele>437.0</ele><time>2026-04-16T12:38:50.779Z</time></trkpt><trkpt lat="40.5988867" lon="8.5656283"><ele>438.0</ele><time>2026-04-16T12:38:51.778Z</time></trkpt><trkpt lat="40.5989467" lon="8.565665"><ele>439.0</ele><time>2026-04-16T12:38:52.779Z</time></trkpt><trkpt lat="40.5989933" lon="8.5658"><ele>439.00000000000006</ele><time>2026-04-16T12:38:54.778Z</time></trkpt><trkpt lat="40.59899" lon="8.565905"><ele>439.0</ele><time>2026-04-16T12:38:55.779Z</time></trkpt><trkpt lat="40.5989733" lon="8.56602"><ele>439.0</ele><time>2026-04-16T12:38:56.779Z</time></trkpt><trkpt lat="40.59896" lon="8.5661433"><ele>439.0</ele><time>2026-04-16T12:38:57.779Z</time></trkpt><trkpt lat="40.5989533" lon="8.5662433"><ele>439.00000000000006</ele><time>2026-04-16T12:38:58.779Z</time></trkpt><trkpt lat="40.598955" lon="8.5663317"><ele>439.0</ele><time>2026-04-16T12:38:59.778Z</time></trkpt><trkpt lat="40.59903" lon="8.5664217"><ele>438.83333333333337</ele><time>2026-04-16T12:39:01.779Z</time></trkpt><trkpt lat="40.599095" lon="8.5664267"><ele>438.6666666666667</ele><time>2026-04-16T12:39:02.778Z</time></trkpt><trkpt lat="40.5991783" lon="8.566425"><ele>438.5</ele><time>2026-04-16T12:39:03.778Z</time></trkpt><trkpt lat="40.5992733" lon="8.5664367"><ele>438.33333333333337</ele><time>2026-04-16T12:39:04.778Z</time></trkpt><trkpt lat="40.5993767" lon="8.5664317"><ele>438.1666666666667</ele><time>2026-04-16T12:39:05.779Z</time></trkpt><trkpt lat="40.5994683" lon="8.566435"><ele>438.0</ele><time>2026-04-16T12:39:06.779Z</time></trkpt><trkpt lat="40.599565" lon="8.5664233"><ele>439.1666666666667</ele><time>2026-04-16T12:39:07.779Z</time></trkpt><trkpt lat="40.59966" lon="8.56644"><ele>440.33333333333337</ele><time>2026-04-16T12:39:08.779Z</time></trkpt><trkpt lat="40.5997517" lon="8.5664617"><ele>441.5</ele><time>2026-04-16T12:39:09.778Z</time></trkpt><trkpt lat="40.5998317" lon="8.566475"><ele>442.6666666666667</ele><time>2026-04-16T12:39:10.778Z</time></trkpt><trkpt lat="40.5999017" lon="8.5664933"><ele>443.83333333333337</ele><time>2026-04-16T12:39:11.778Z</time></trkpt><trkpt lat="40.59997" lon="8.5665067"><ele>445.0</ele><time>2026-04-16T12:39:12.779Z</time></trkpt><trkpt lat="40.60004" lon="8.5665167"><ele>445.00000000000006</ele><time>2026-04-16T12:39:13.778Z</time></trkpt><trkpt lat="40.6001217" lon="8.566585"><ele>445.0</ele><time>2026-04-16T12:39:15.778Z</time></trkpt><trkpt lat="40.6001133" lon="8.5667383"><ele>445.0</ele><time>2026-04-16T12:39:17.779Z</time></trkpt><trkpt lat="40.6000917" lon="8.5668217"><ele>445.0</ele><time>2026-04-16T12:39:18.779Z</time></trkpt><trkpt lat="40.6000633" lon="8.5669067"><ele>445.00000000000006</ele><time>2026-04-16T12:39:19.779Z</time></trkpt><trkpt lat="40.6000317" lon="8.5669867"><ele>445.0</ele><time>2026-04-16T12:39:20.779Z</time></trkpt><trkpt lat="40.5999967" lon="8.5671183"><ele>444.6666666666667</ele><time>2026-04-16T12:39:22.779Z</time></trkpt><trkpt lat="40.6000717" lon="8.5672383"><ele>444.33333333333337</ele><time>2026-04-16T12:39:24.779Z</time></trkpt><trkpt lat="40.6001417" lon="8.56729"><ele>444.0</ele><time>2026-04-16T12:39:25.779Z</time></trkpt><trkpt lat="40.600215" lon="8.5673383"><ele>443.66666666666663</ele><time>2026-04-16T12:39:26.779Z</time></trkpt><trkpt lat="40.6002833" lon="8.56739"><ele>443.3333333333333</ele><time>2026-04-16T12:39:27.779Z</time></trkpt><trkpt lat="40.6003383" lon="8.5674367"><ele>443.0</ele><time>2026-04-16T12:39:28.778Z</time></trkpt><trkpt lat="40.6003667" lon="8.5675667"><ele>443.59999999999997</ele><time>2026-04-16T12:39:30.779Z</time></trkpt><trkpt lat="40.600355" lon="8.567655"><ele>444.19999999999993</ele><time>2026-04-16T12:39:31.778Z</time></trkpt><trkpt lat="40.6003417" lon="8.5677567"><ele>444.8</ele><time>2026-04-16T12:39:32.779Z</time></trkpt><trkpt lat="40.6003183" lon="8.5678817"><ele>445.4</ele><time>2026-04-16T12:39:33.779Z</time></trkpt><trkpt lat="40.6002967" lon="8.5680183"><ele>446.0</ele><time>2026-04-16T12:39:34.778Z</time></trkpt><trkpt lat="40.6002733" lon="8.56816"><ele>446.0</ele><time>2026-04-16T12:39:35.779Z</time></trkpt><trkpt lat="40.6002567" lon="8.5683083"><ele>446.0</ele><time>2026-04-16T12:39:36.778Z</time></trkpt><trkpt lat="40.6002333" lon="8.5684417"><ele>446.0</ele><time>2026-04-16T12:39:37.779Z</time></trkpt><trkpt lat="40.6002167" lon="8.5685617"><ele>446.0</ele><time>2026-04-16T12:39:38.779Z</time></trkpt><trkpt lat="40.6002033" lon="8.568645"><ele>446.0</ele><time>2026-04-16T12:39:39.779Z</time></trkpt><trkpt lat="40.6002233" lon="8.5687417"><ele>447.0</ele><time>2026-04-16T12:39:41.779Z</time></trkpt><trkpt lat="40.6003183" lon="8.5687933"><ele>448.0</ele><time>2026-04-16T12:39:43.778Z</time></trkpt><trkpt lat="40.6003983" lon="8.5688133"><ele>449.0</ele><time>2026-04-16T12:39:44.779Z</time></trkpt><trkpt lat="40.6004833" lon="8.5688317"><ele>450.0</ele><time>2026-04-16T12:39:45.778Z</time></trkpt><trkpt lat="40.600575" lon="8.5688367"><ele>451.0</ele><time>2026-04-16T12:39:46.779Z</time></trkpt><trkpt lat="40.6006783" lon="8.5688333"><ele>451.6</ele><time>2026-04-16T12:39:47.778Z</time></trkpt><trkpt lat="40.6007833" lon="8.568815"><ele>452.20000000000005</ele><time>2026-04-16T12:39:48.779Z</time></trkpt><trkpt lat="40.6008917" lon="8.5687933"><ele>452.79999999999995</ele><time>2026-04-16T12:39:49.778Z</time></trkpt><trkpt lat="40.6009983" lon="8.5687817"><ele>453.4</ele><time>2026-04-16T12:39:50.779Z</time></trkpt><trkpt lat="40.6011133" lon="8.5687683"><ele>454.0</ele><time>2026-04-16T12:39:51.778Z</time></trkpt><trkpt lat="40.6012333" lon="8.5687533"><ele>452.2</ele><time>2026-04-16T12:39:52.779Z</time></trkpt><trkpt lat="40.60135" lon="8.5687333"><ele>450.4</ele><time>2026-04-16T12:39:53.779Z</time></trkpt><trkpt lat="40.6014633" lon="8.5686917"><ele>448.6</ele><time>2026-04-16T12:39:54.779Z</time></trkpt><trkpt lat="40.60157" lon="8.5686417"><ele>446.8</ele><time>2026-04-16T12:39:55.779Z</time></trkpt><trkpt lat="40.6016617" lon="8.5686"><ele>445.0</ele><time>2026-04-16T12:39:56.779Z</time></trkpt><trkpt lat="40.6017483" lon="8.56857"><ele>442.6</ele><time>2026-04-16T12:39:57.778Z</time></trkpt><trkpt lat="40.6018283" lon="8.5685467"><ele>440.2</ele><time>2026-04-16T12:39:58.779Z</time></trkpt><trkpt lat="40.6019167" lon="8.5685567"><ele>437.79999999999995</ele><time>2026-04-16T12:39:59.779Z</time></trkpt><trkpt lat="40.6020067" lon="8.5685867"><ele>435.4</ele><time>2026-04-16T12:40:00.778Z</time></trkpt><trkpt lat="40.6021" lon="8.56864"><ele>433.0</ele><time>2026-04-16T12:40:01.778Z</time></trkpt><trkpt lat="40.6021933" lon="8.5687"><ele>433.0</ele><time>2026-04-16T12:40:02.778Z</time></trkpt><trkpt lat="40.6022867" lon="8.568775"><ele>432.99999999999994</ele><time>2026-04-16T12:40:03.778Z</time></trkpt><trkpt lat="40.6023817" lon="8.568855"><ele>432.99999999999994</ele><time>2026-04-16T12:40:04.778Z</time></trkpt><trkpt lat="40.6024817" lon="8.56891"><ele>433.0</ele><time>2026-04-16T12:40:05.778Z</time></trkpt><trkpt lat="40.6025933" lon="8.56895"><ele>433.0</ele><time>2026-04-16T12:40:06.779Z</time></trkpt><trkpt lat="40.6027" lon="8.56896"><ele>433.0</ele><time>2026-04-16T12:40:07.779Z</time></trkpt><trkpt lat="40.6028067" lon="8.5689533"><ele>432.99999999999994</ele><time>2026-04-16T12:40:08.779Z</time></trkpt><trkpt lat="40.60291" lon="8.5689517"><ele>432.99999999999994</ele><time>2026-04-16T12:40:09.779Z</time></trkpt><trkpt lat="40.603015" lon="8.5689733"><ele>433.0</ele><time>2026-04-16T12:40:10.779Z</time></trkpt><trkpt lat="40.6031283" lon="8.569005"><ele>433.0</ele><time>2026-04-16T12:40:11.778Z</time></trkpt><trkpt lat="40.6032433" lon="8.569055"><ele>429.5</ele><time>2026-04-16T12:40:12.779Z</time></trkpt><trkpt lat="40.6033483" lon="8.5691183"><ele>426.0</ele><time>2026-04-16T12:40:13.778Z</time></trkpt><trkpt lat="40.6034433" lon="8.569195"><ele>422.5</ele><time>2026-04-16T12:40:14.778Z</time></trkpt><trkpt lat="40.6035317" lon="8.569295"><ele>419.0</ele><time>2026-04-16T12:40:15.778Z</time></trkpt><trkpt lat="40.6035967" lon="8.5694167"><ele>422.5</ele><time>2026-04-16T12:40:16.778Z</time></trkpt><trkpt lat="40.6036583" lon="8.569545"><ele>426.0</ele><time>2026-04-16T12:40:17.777Z</time></trkpt><trkpt lat="40.6037133" lon="8.5696783"><ele>429.5</ele><time>2026-04-16T12:40:18.778Z</time></trkpt><trkpt lat="40.6037733" lon="8.5698167"><ele>433.0</ele><time>2026-04-16T12:40:19.778Z</time></trkpt><trkpt lat="40.6038333" lon="8.569945"><ele>426.5</ele><time>2026-04-16T12:40:20.778Z</time></trkpt><trkpt lat="40.603895" lon="8.57008"><ele>420.0</ele><time>2026-04-16T12:40:21.778Z</time></trkpt><trkpt lat="40.6039433" lon="8.5702317"><ele>413.5</ele><time>2026-04-16T12:40:22.778Z</time></trkpt><trkpt lat="40.6039833" lon="8.5703967"><ele>407.0</ele><time>2026-04-16T12:40:23.778Z</time></trkpt><trkpt lat="40.6040117" lon="8.5705617"><ele>407.0</ele><time>2026-04-16T12:40:24.778Z</time></trkpt><trkpt lat="40.604045" lon="8.5707133"><ele>407.0</ele><time>2026-04-16T12:40:25.778Z</time></trkpt><trkpt lat="40.60408" lon="8.5708467"><ele>407.0</ele><time>2026-04-16T12:40:26.778Z</time></trkpt><trkpt lat="40.6041067" lon="8.5709617"><ele>407.0</ele><time>2026-04-16T12:40:27.777Z</time></trkpt><trkpt lat="40.6041267" lon="8.5710567"><ele>407.0</ele><time>2026-04-16T12:40:28.777Z</time></trkpt><trkpt lat="40.6041933" lon="8.5711167"><ele>407.0</ele><time>2026-04-16T12:40:30.778Z</time></trkpt><trkpt lat="40.60424" lon="8.5710117"><ele>407.0</ele><time>2026-04-16T12:40:32.778Z</time></trkpt><trkpt lat="40.6042517" lon="8.5709183"><ele>407.0</ele><time>2026-04-16T12:40:33.778Z</time></trkpt><trkpt lat="40.6042583" lon="8.5708017"><ele>407.0</ele><time>2026-04-16T12:40:34.778Z</time></trkpt><trkpt lat="40.604275" lon="8.5706583"><ele>407.0</ele><time>2026-04-16T12:40:35.778Z</time></trkpt><trkpt lat="40.60429" lon="8.57051"><ele>405.8</ele><time>2026-04-16T12:40:36.778Z</time></trkpt><trkpt lat="40.6042967" lon="8.570355"><ele>404.6</ele><time>2026-04-16T12:40:37.777Z</time></trkpt><trkpt lat="40.6043033" lon="8.5702117"><ele>403.40000000000003</ele><time>2026-04-16T12:40:38.778Z</time></trkpt><trkpt lat="40.60431" lon="8.5700967"><ele>402.20000000000005</ele><time>2026-04-16T12:40:39.777Z</time></trkpt><trkpt lat="40.6043567" lon="8.5699883"><ele>401.0</ele><time>2026-04-16T12:40:41.778Z</time></trkpt><trkpt lat="40.60444" lon="8.570085"><ele>401.0</ele><time>2026-04-16T12:40:43.777Z</time></trkpt><trkpt lat="40.60448" lon="8.57019"><ele>401.0</ele><time>2026-04-16T12:40:44.777Z</time></trkpt><trkpt lat="40.6045267" lon="8.5703133"><ele>401.0</ele><time>2026-04-16T12:40:45.778Z</time></trkpt><trkpt lat="40.6045817" lon="8.570435"><ele>401.0</ele><time>2026-04-16T12:40:46.777Z</time></trkpt><trkpt lat="40.6046417" lon="8.5705417"><ele>401.0</ele><time>2026-04-16T12:40:47.777Z</time></trkpt><trkpt lat="40.604715" lon="8.5706317"><ele>396.6</ele><time>2026-04-16T12:40:48.778Z</time></trkpt><trkpt lat="40.604795" lon="8.5707117"><ele>392.20000000000005</ele><time>2026-04-16T12:40:49.778Z</time></trkpt><trkpt lat="40.6048817" lon="8.570785"><ele>387.79999999999995</ele><time>2026-04-16T12:40:50.778Z</time></trkpt><trkpt lat="40.6049667" lon="8.5708483"><ele>383.4</ele><time>2026-04-16T12:40:51.778Z</time></trkpt><trkpt lat="40.6050767" lon="8.5709017"><ele>379.0</ele><time>2026-04-16T12:40:52.778Z</time></trkpt><trkpt lat="40.6051967" lon="8.5709417"><ele>376.5</ele><time>2026-04-16T12:40:53.778Z</time></trkpt><trkpt lat="40.60533" lon="8.5709733"><ele>374.0</ele><time>2026-04-16T12:40:54.778Z</time></trkpt><trkpt lat="40.6054633" lon="8.5710267"><ele>371.5</ele><time>2026-04-16T12:40:55.777Z</time></trkpt><trkpt lat="40.6055983" lon="8.57109"><ele>369.0</ele><time>2026-04-16T12:40:56.778Z</time></trkpt><trkpt lat="40.6057467" lon="8.5711333"><ele>369.0</ele><time>2026-04-16T12:40:57.778Z</time></trkpt><trkpt lat="40.60589" lon="8.5711633"><ele>369.0</ele><time>2026-04-16T12:40:58.778Z</time></trkpt><trkpt lat="40.60603" lon="8.571185"><ele>369.0</ele><time>2026-04-16T12:40:59.778Z</time></trkpt><trkpt lat="40.6061683" lon="8.5712133"><ele>369.0</ele><time>2026-04-16T12:41:00.777Z</time></trkpt><trkpt lat="40.6063083" lon="8.5712433"><ele>364.6666666666667</ele><time>2026-04-16T12:41:01.778Z</time></trkpt><trkpt lat="40.6064517" lon="8.5713017"><ele>360.33333333333337</ele><time>2026-04-16T12:41:02.777Z</time></trkpt><trkpt lat="40.6065933" lon="8.5713733"><ele>356.0</ele><time>2026-04-16T12:41:03.778Z</time></trkpt><trkpt lat="40.6067367" lon="8.5714367"><ele>356.0</ele><time>2026-04-16T12:41:04.777Z</time></trkpt><trkpt lat="40.6068733" lon="8.5714967"><ele>356.0</ele><time>2026-04-16T12:41:05.778Z</time></trkpt><trkpt lat="40.607015" lon="8.57153"><ele>356.0</ele><time>2026-04-16T12:41:06.778Z</time></trkpt><trkpt lat="40.6071633" lon="8.5715483"><ele>356.0</ele><time>2026-04-16T12:41:07.778Z</time></trkpt><trkpt lat="40.60731" lon="8.5715667"><ele>357.75</ele><time>2026-04-16T12:41:08.778Z</time></trkpt><trkpt lat="40.6074483" lon="8.57158"><ele>359.5</ele><time>2026-04-16T12:41:09.778Z</time></trkpt><trkpt lat="40.60758" lon="8.5716083"><ele>361.25</ele><time>2026-04-16T12:41:10.777Z</time></trkpt><trkpt lat="40.6077033" lon="8.5716517"><ele>363.0</ele><time>2026-04-16T12:41:11.778Z</time></trkpt><trkpt lat="40.607815" lon="8.5717033"><ele>363.59999999999997</ele><time>2026-04-16T12:41:12.777Z</time></trkpt><trkpt lat="40.6079033" lon="8.5717533"><ele>364.2</ele><time>2026-04-16T12:41:13.778Z</time></trkpt><trkpt lat="40.6079933" lon="8.5717967"><ele>364.8</ele><time>2026-04-16T12:41:14.778Z</time></trkpt><trkpt lat="40.6080917" lon="8.5718417"><ele>365.4</ele><time>2026-04-16T12:41:15.777Z</time></trkpt><trkpt lat="40.6081933" lon="8.5718783"><ele>366.0</ele><time>2026-04-16T12:41:16.778Z</time></trkpt><trkpt lat="40.6083133" lon="8.5719133"><ele>366.0</ele><time>2026-04-16T12:41:17.777Z</time></trkpt><trkpt lat="40.6084367" lon="8.5719517"><ele>366.0</ele><time>2026-04-16T12:41:18.778Z</time></trkpt><trkpt lat="40.6085733" lon="8.5719717"><ele>366.0</ele><time>2026-04-16T12:41:19.778Z</time></trkpt><trkpt lat="40.6087183" lon="8.5719683"><ele>366.0</ele><time>2026-04-16T12:41:20.778Z</time></trkpt><trkpt lat="40.6088667" lon="8.5719617"><ele>364.5</ele><time>2026-04-16T12:41:21.777Z</time></trkpt><trkpt lat="40.609015" lon="8.571955"><ele>363.0</ele><time>2026-04-16T12:41:22.777Z</time></trkpt><trkpt lat="40.6091617" lon="8.57198"><ele>361.5</ele><time>2026-04-16T12:41:23.778Z</time></trkpt><trkpt lat="40.6093" lon="8.5719783"><ele>360.0</ele><time>2026-04-16T12:41:24.777Z</time></trkpt><trkpt lat="40.6094333" lon="8.5719383"><ele>361.5</ele><time>2026-04-16T12:41:25.778Z</time></trkpt><trkpt lat="40.6095767" lon="8.5718983"><ele>363.0</ele><time>2026-04-16T12:41:26.778Z</time></trkpt><trkpt lat="40.60973" lon="8.571865"><ele>364.5</ele><time>2026-04-16T12:41:27.778Z</time></trkpt><trkpt lat="40.609875" lon="8.5718383"><ele>366.0</ele><time>2026-04-16T12:41:28.778Z</time></trkpt><trkpt lat="40.6100117" lon="8.5717883"><ele>366.0</ele><time>2026-04-16T12:41:29.778Z</time></trkpt><trkpt lat="40.610135" lon="8.5717283"><ele>366.0</ele><time>2026-04-16T12:41:30.778Z</time></trkpt><trkpt lat="40.6102433" lon="8.5716767"><ele>366.0</ele><time>2026-04-16T12:41:31.778Z</time></trkpt><trkpt lat="40.61034" lon="8.571645"><ele>366.0</ele><time>2026-04-16T12:41:32.777Z</time></trkpt><trkpt lat="40.6104317" lon="8.571645"><ele>366.0</ele><time>2026-04-16T12:41:33.778Z</time></trkpt><trkpt lat="40.6105217" lon="8.57167"><ele>365.20000000000005</ele><time>2026-04-16T12:41:34.778Z</time></trkpt><trkpt lat="40.610615" lon="8.571695"><ele>364.40000000000003</ele><time>2026-04-16T12:41:35.778Z</time></trkpt><trkpt lat="40.6107133" lon="8.571735"><ele>363.6</ele><time>2026-04-16T12:41:36.778Z</time></trkpt><trkpt lat="40.6108133" lon="8.5717817"><ele>362.8</ele><time>2026-04-16T12:41:37.777Z</time></trkpt><trkpt lat="40.61091" lon="8.5718317"><ele>362.0</ele><time>2026-04-16T12:41:38.778Z</time></trkpt><trkpt lat="40.61101" lon="8.5718917"><ele>362.0</ele><time>2026-04-16T12:41:39.777Z</time></trkpt><trkpt lat="40.6111067" lon="8.5719633"><ele>362.0</ele><time>2026-04-16T12:41:40.778Z</time></trkpt><trkpt lat="40.61121" lon="8.5720283"><ele>362.0</ele><time>2026-04-16T12:41:41.777Z</time></trkpt><trkpt lat="40.6113033" lon="8.5720933"><ele>362.0</ele><time>2026-04-16T12:41:42.777Z</time></trkpt><trkpt lat="40.6113833" lon="8.572155"><ele>362.0</ele><time>2026-04-16T12:41:43.778Z</time></trkpt><trkpt lat="40.6114617" lon="8.572185"><ele>359.8</ele><time>2026-04-16T12:41:44.777Z</time></trkpt><trkpt lat="40.611535" lon="8.5721833"><ele>357.6</ele><time>2026-04-16T12:41:45.778Z</time></trkpt><trkpt lat="40.6116117" lon="8.5721367"><ele>355.40000000000003</ele><time>2026-04-16T12:41:46.777Z</time></trkpt><trkpt lat="40.6117" lon="8.5720717"><ele>353.20000000000005</ele><time>2026-04-16T12:41:47.778Z</time></trkpt><trkpt lat="40.6118067" lon="8.5720217"><ele>351.0</ele><time>2026-04-16T12:41:48.778Z</time></trkpt><trkpt lat="40.6119267" lon="8.5720117"><ele>348.6</ele><time>2026-04-16T12:41:49.777Z</time></trkpt><trkpt lat="40.612035" lon="8.5720383"><ele>346.20000000000005</ele><time>2026-04-16T12:41:50.777Z</time></trkpt><trkpt lat="40.6121417" lon="8.5720667"><ele>343.79999999999995</ele><time>2026-04-16T12:41:51.777Z</time></trkpt><trkpt lat="40.6122383" lon="8.5720933"><ele>341.4</ele><time>2026-04-16T12:41:52.777Z</time></trkpt><trkpt lat="40.612315" lon="8.5721267"><ele>339.0</ele><time>2026-04-16T12:41:53.777Z</time></trkpt><trkpt lat="40.6123733" lon="8.5721717"><ele>339.0</ele><time>2026-04-16T12:41:54.778Z</time></trkpt><trkpt lat="40.612445" lon="8.5723033"><ele>339.0</ele><time>2026-04-16T12:41:56.778Z</time></trkpt><trkpt lat="40.6124917" lon="8.572365"><ele>339.0</ele><time>2026-04-16T12:41:57.777Z</time></trkpt><trkpt lat="40.6125633" lon="8.5724167"><ele>339.0</ele><time>2026-04-16T12:41:58.778Z</time></trkpt><trkpt lat="40.6126467" lon="8.5724617"><ele>339.0</ele><time>2026-04-16T12:41:59.778Z</time></trkpt><trkpt lat="40.6127417" lon="8.5725117"><ele>337.5</ele><time>2026-04-16T12:42:00.777Z</time></trkpt><trkpt lat="40.6128433" lon="8.572575"><ele>336.0</ele><time>2026-04-16T12:42:01.777Z</time></trkpt><trkpt lat="40.612945" lon="8.5726417"><ele>334.5</ele><time>2026-04-16T12:42:02.778Z</time></trkpt><trkpt lat="40.6130417" lon="8.57273"><ele>333.0</ele><time>2026-04-16T12:42:03.778Z</time></trkpt><trkpt lat="40.6131383" lon="8.5728167"><ele>332.4</ele><time>2026-04-16T12:42:04.778Z</time></trkpt><trkpt lat="40.6132317" lon="8.5729117"><ele>331.79999999999995</ele><time>2026-04-16T12:42:05.778Z</time></trkpt><trkpt lat="40.6133133" lon="8.5730017"><ele>331.2</ele><time>2026-04-16T12:42:06.777Z</time></trkpt><trkpt lat="40.6133883" lon="8.5730883"><ele>330.6</ele><time>2026-04-16T12:42:07.778Z</time></trkpt><trkpt lat="40.6134417" lon="8.5731783"><ele>330.0</ele><time>2026-04-16T12:42:08.777Z</time></trkpt><trkpt lat="40.6134817" lon="8.5732917"><ele>330.0</ele><time>2026-04-16T12:42:09.778Z</time></trkpt><trkpt lat="40.6135183" lon="8.573415"><ele>330.0</ele><time>2026-04-16T12:42:10.777Z</time></trkpt><trkpt lat="40.6135483" lon="8.5735267"><ele>330.0</ele><time>2026-04-16T12:42:11.778Z</time></trkpt><trkpt lat="40.6135667" lon="8.5736417"><ele>330.0</ele><time>2026-04-16T12:42:12.777Z</time></trkpt><trkpt lat="40.6135633" lon="8.5737467"><ele>330.0</ele><time>2026-04-16T12:42:13.777Z</time></trkpt><trkpt lat="40.613545" lon="8.5738483"><ele>330.0</ele><time>2026-04-16T12:42:14.778Z</time></trkpt><trkpt lat="40.6135333" lon="8.5739333"><ele>330.4</ele><time>2026-04-16T12:42:15.778Z</time></trkpt><trkpt lat="40.6135883" lon="8.574005"><ele>330.8</ele><time>2026-04-16T12:42:17.777Z</time></trkpt><trkpt lat="40.61366" lon="8.5740033"><ele>331.20000000000005</ele><time>2026-04-16T12:42:18.778Z</time></trkpt><trkpt lat="40.6137633" lon="8.5739917"><ele>331.6</ele><time>2026-04-16T12:42:19.778Z</time></trkpt><trkpt lat="40.6138783" lon="8.5739967"><ele>332.0</ele><time>2026-04-16T12:42:20.777Z</time></trkpt><trkpt lat="40.613995" lon="8.574025"><ele>332.0</ele><time>2026-04-16T12:42:21.778Z</time></trkpt><trkpt lat="40.614115" lon="8.5740517"><ele>332.0</ele><time>2026-04-16T12:42:22.777Z</time></trkpt><trkpt lat="40.6142333" lon="8.5740533"><ele>332.0</ele><time>2026-04-16T12:42:23.777Z</time></trkpt><trkpt lat="40.6143583" lon="8.5740317"><ele>332.0</ele><time>2026-04-16T12:42:24.778Z</time></trkpt><trkpt lat="40.6144917" lon="8.574"><ele>333.25</ele><time>2026-04-16T12:42:25.777Z</time></trkpt><trkpt lat="40.6146283" lon="8.57397"><ele>334.5</ele><time>2026-04-16T12:42:26.777Z</time></trkpt><trkpt lat="40.6147683" lon="8.5739333"><ele>335.75</ele><time>2026-04-16T12:42:27.778Z</time></trkpt><trkpt lat="40.6148917" lon="8.5739017"><ele>337.0</ele><time>2026-04-16T12:42:28.778Z</time></trkpt><trkpt lat="40.615" lon="8.5738367"><ele>337.0</ele><time>2026-04-16T12:42:29.777Z</time></trkpt><trkpt lat="40.6151033" lon="8.57375"><ele>337.0</ele><time>2026-04-16T12:42:30.777Z</time></trkpt><trkpt lat="40.61522" lon="8.5736667"><ele>337.0</ele><time>2026-04-16T12:42:31.778Z</time></trkpt><trkpt lat="40.6153283" lon="8.5736083"><ele>337.0</ele><time>2026-04-16T12:42:32.777Z</time></trkpt><trkpt lat="40.61543" lon="8.57359"><ele>337.40000000000003</ele><time>2026-04-16T12:42:33.777Z</time></trkpt><trkpt lat="40.6155233" lon="8.5735983"><ele>337.8</ele><time>2026-04-16T12:42:34.777Z</time></trkpt><trkpt lat="40.61561" lon="8.5736317"><ele>338.2</ele><time>2026-04-16T12:42:35.777Z</time></trkpt><trkpt lat="40.6156983" lon="8.5736783"><ele>338.6</ele><time>2026-04-16T12:42:36.778Z</time></trkpt><trkpt lat="40.6157933" lon="8.573705"><ele>339.0</ele><time>2026-04-16T12:42:37.778Z</time></trkpt><trkpt lat="40.615895" lon="8.573705"><ele>337.6</ele><time>2026-04-16T12:42:38.777Z</time></trkpt><trkpt lat="40.6159983" lon="8.5736717"><ele>336.2</ele><time>2026-04-16T12:42:39.778Z</time></trkpt><trkpt lat="40.61609" lon="8.5736283"><ele>334.8</ele><time>2026-04-16T12:42:40.778Z</time></trkpt><trkpt lat="40.61616" lon="8.5735967"><ele>333.40000000000003</ele><time>2026-04-16T12:42:41.777Z</time></trkpt><trkpt lat="40.6162217" lon="8.5735783"><ele>332.0</ele><time>2026-04-16T12:42:42.778Z</time></trkpt><trkpt lat="40.6163567" lon="8.5736017"><ele>332.0</ele><time>2026-04-16T12:42:44.777Z</time></trkpt><trkpt lat="40.6164483" lon="8.5736217"><ele>332.0</ele><time>2026-04-16T12:42:45.777Z</time></trkpt><trkpt lat="40.6165433" lon="8.5736383"><ele>332.0</ele><time>2026-04-16T12:42:46.778Z</time></trkpt><trkpt lat="40.6166433" lon="8.5736567"><ele>332.0</ele><time>2026-04-16T12:42:47.777Z</time></trkpt><trkpt lat="40.6167417" lon="8.5736767"><ele>332.0</ele><time>2026-04-16T12:42:48.776Z</time></trkpt><trkpt lat="40.6168333" lon="8.57371"><ele>332.40000000000003</ele><time>2026-04-16T12:42:49.777Z</time></trkpt><trkpt lat="40.616915" lon="8.573745"><ele>332.8</ele><time>2026-04-16T12:42:50.776Z</time></trkpt><trkpt lat="40.6169933" lon="8.5737767"><ele>333.2</ele><time>2026-04-16T12:42:51.777Z</time></trkpt><trkpt lat="40.617085" lon="8.5738067"><ele>333.6</ele><time>2026-04-16T12:42:52.777Z</time></trkpt><trkpt lat="40.6171867" lon="8.5738333"><ele>334.0</ele><time>2026-04-16T12:42:53.777Z</time></trkpt><trkpt lat="40.6172933" lon="8.5738533"><ele>333.0</ele><time>2026-04-16T12:42:54.776Z</time></trkpt><trkpt lat="40.6174033" lon="8.573855"><ele>332.0</ele><time>2026-04-16T12:42:55.777Z</time></trkpt><trkpt lat="40.61752" lon="8.573845"><ele>331.0</ele><time>2026-04-16T12:42:56.776Z</time></trkpt><trkpt lat="40.6176333" lon="8.5738233"><ele>330.0</ele><time>2026-04-16T12:42:57.777Z</time></trkpt><trkpt lat="40.6177417" lon="8.5737967"><ele>328.2</ele><time>2026-04-16T12:42:58.777Z</time></trkpt><trkpt lat="40.61785" lon="8.57375"><ele>326.4</ele><time>2026-04-16T12:42:59.777Z</time></trkpt><trkpt lat="40.6179617" lon="8.5736883"><ele>324.6</ele><time>2026-04-16T12:43:00.777Z</time></trkpt><trkpt lat="40.618065" lon="8.573625"><ele>322.8</ele><time>2026-04-16T12:43:01.776Z</time></trkpt><trkpt lat="40.618155" lon="8.5735667"><ele>321.0</ele><time>2026-04-16T12:43:02.777Z</time></trkpt><trkpt lat="40.6182183" lon="8.5735183"><ele>320.85714285714283</ele><time>2026-04-16T12:43:03.777Z</time></trkpt><trkpt lat="40.6182833" lon="8.5734767"><ele>320.7142857142857</ele><time>2026-04-16T12:43:04.777Z</time></trkpt><trkpt lat="40.618345" lon="8.5734483"><ele>320.57142857142856</ele><time>2026-04-16T12:43:05.777Z</time></trkpt><trkpt lat="40.6184083" lon="8.5734467"><ele>320.42857142857144</ele><time>2026-04-16T12:43:06.776Z</time></trkpt><trkpt lat="40.6184767" lon="8.5734783"><ele>320.2857142857143</ele><time>2026-04-16T12:43:07.777Z</time></trkpt><trkpt lat="40.6185467" lon="8.5735117"><ele>320.1428571428571</ele><time>2026-04-16T12:43:08.776Z</time></trkpt><trkpt lat="40.618615" lon="8.5735567"><ele>320.0</ele><time>2026-04-16T12:43:09.777Z</time></trkpt><trkpt lat="40.6186767" lon="8.5736017"><ele>318.33333333333337</ele><time>2026-04-16T12:43:10.776Z</time></trkpt><trkpt lat="40.6187467" lon="8.5736383"><ele>316.6666666666667</ele><time>2026-04-16T12:43:11.776Z</time></trkpt><trkpt lat="40.6188167" lon="8.573665"><ele>315.0</ele><time>2026-04-16T12:43:12.776Z</time></trkpt><trkpt lat="40.6188867" lon="8.573685"><ele>313.3333333333333</ele><time>2026-04-16T12:43:13.776Z</time></trkpt><trkpt lat="40.6189633" lon="8.5736817"><ele>311.66666666666663</ele><time>2026-04-16T12:43:14.776Z</time></trkpt><trkpt lat="40.619045" lon="8.5736533"><ele>310.0</ele><time>2026-04-16T12:43:15.777Z</time></trkpt><trkpt lat="40.6191233" lon="8.5736017"><ele>310.0</ele><time>2026-04-16T12:43:16.777Z</time></trkpt><trkpt lat="40.61921" lon="8.57353"><ele>310.0</ele><time>2026-04-16T12:43:17.776Z</time></trkpt><trkpt lat="40.619305" lon="8.5734467"><ele>310.0</ele><time>2026-04-16T12:43:18.776Z</time></trkpt><trkpt lat="40.6193933" lon="8.5733583"><ele>310.0</ele><time>2026-04-16T12:43:19.777Z</time></trkpt><trkpt lat="40.6194633" lon="8.5732767"><ele>310.0</ele><time>2026-04-16T12:43:20.777Z</time></trkpt><trkpt lat="40.61951" lon="8.5731983"><ele>309.8333333333333</ele><time>2026-04-16T12:43:21.777Z</time></trkpt><trkpt lat="40.6195383" lon="8.5731133"><ele>309.66666666666663</ele><time>2026-04-16T12:43:22.777Z</time></trkpt><trkpt lat="40.61956" lon="8.57303"><ele>309.5</ele><time>2026-04-16T12:43:23.777Z</time></trkpt><trkpt lat="40.61959" lon="8.572945"><ele>309.3333333333333</ele><time>2026-04-16T12:43:24.777Z</time></trkpt><trkpt lat="40.61963" lon="8.5728467"><ele>309.1666666666667</ele><time>2026-04-16T12:43:25.777Z</time></trkpt><trkpt lat="40.6196783" lon="8.5727433"><ele>309.0</ele><time>2026-04-16T12:43:26.777Z</time></trkpt><trkpt lat="40.6197183" lon="8.5726567"><ele>308.0</ele><time>2026-04-16T12:43:27.777Z</time></trkpt><trkpt lat="40.6197617" lon="8.57256"><ele>307.0</ele><time>2026-04-16T12:43:28.777Z</time></trkpt><trkpt lat="40.6198017" lon="8.57246"><ele>306.0</ele><time>2026-04-16T12:43:29.777Z</time></trkpt><trkpt lat="40.6198467" lon="8.5723517"><ele>305.0</ele><time>2026-04-16T12:43:30.777Z</time></trkpt><trkpt lat="40.6198883" lon="8.5722433"><ele>304.0</ele><time>2026-04-16T12:43:31.777Z</time></trkpt><trkpt lat="40.619925" lon="8.5721383"><ele>303.0</ele><time>2026-04-16T12:43:32.776Z</time></trkpt><trkpt lat="40.6199583" lon="8.572025"><ele>301.5</ele><time>2026-04-16T12:43:33.777Z</time></trkpt><trkpt lat="40.619985" lon="8.571915"><ele>300.0</ele><time>2026-04-16T12:43:34.777Z</time></trkpt><trkpt lat="40.6200083" lon="8.57181"><ele>298.5</ele><time>2026-04-16T12:43:35.777Z</time></trkpt><trkpt lat="40.6200333" lon="8.571705"><ele>297.0</ele><time>2026-04-16T12:43:36.776Z</time></trkpt><trkpt lat="40.6200467" lon="8.5716083"><ele>295.5</ele><time>2026-04-16T12:43:37.776Z</time></trkpt><trkpt lat="40.62006" lon="8.5715117"><ele>294.0</ele><time>2026-04-16T12:43:38.776Z</time></trkpt><trkpt lat="40.6200717" lon="8.5714233"><ele>294.0</ele><time>2026-04-16T12:43:39.777Z</time></trkpt><trkpt lat="40.620075" lon="8.57133"><ele>294.0</ele><time>2026-04-16T12:43:40.777Z</time></trkpt><trkpt lat="40.6200667" lon="8.5712333"><ele>294.0</ele><time>2026-04-16T12:43:41.776Z</time></trkpt><trkpt lat="40.620055" lon="8.5711433"><ele>294.0</ele><time>2026-04-16T12:43:42.776Z</time></trkpt><trkpt lat="40.620055" lon="8.571"><ele>294.0</ele><time>2026-04-16T12:43:44.777Z</time></trkpt><trkpt lat="40.6200667" lon="8.570915"><ele>294.0</ele><time>2026-04-16T12:43:45.777Z</time></trkpt><trkpt lat="40.6200733" lon="8.5708317"><ele>292.6666666666667</ele><time>2026-04-16T12:43:46.776Z</time></trkpt><trkpt lat="40.6200933" lon="8.5707333"><ele>291.3333333333333</ele><time>2026-04-16T12:43:47.777Z</time></trkpt><trkpt lat="40.6201133" lon="8.5706367"><ele>290.0</ele><time>2026-04-16T12:43:48.776Z</time></trkpt><trkpt lat="40.6201317" lon="8.57054"><ele>288.66666666666663</ele><time>2026-04-16T12:43:49.776Z</time></trkpt><trkpt lat="40.6201517" lon="8.570445"><ele>287.3333333333333</ele><time>2026-04-16T12:43:50.777Z</time></trkpt><trkpt lat="40.6201767" lon="8.5703483"><ele>286.0</ele><time>2026-04-16T12:43:51.777Z</time></trkpt><trkpt lat="40.620195" lon="8.570255"><ele>283.6</ele><time>2026-04-16T12:43:52.777Z</time></trkpt><trkpt lat="40.6202083" lon="8.5701617"><ele>281.20000000000005</ele><time>2026-04-16T12:43:53.776Z</time></trkpt><trkpt lat="40.6202417" lon="8.57001"><ele>278.79999999999995</ele><time>2026-04-16T12:43:55.777Z</time></trkpt><trkpt lat="40.620275" lon="8.569855"><ele>276.4</ele><time>2026-04-16T12:43:57.776Z</time></trkpt><trkpt lat="40.6202967" lon="8.569705"><ele>274.0</ele><time>2026-04-16T12:43:59.776Z</time></trkpt><trkpt lat="40.6203183" lon="8.5695733"><ele>268.8</ele><time>2026-04-16T12:44:01.777Z</time></trkpt><trkpt lat="40.620355" lon="8.56945"><ele>263.59999999999997</ele><time>2026-04-16T12:44:03.777Z</time></trkpt><trkpt lat="40.620395" lon="8.5693383"><ele>258.4</ele><time>2026-04-16T12:44:05.776Z</time></trkpt><trkpt lat="40.6203983" lon="8.5691683"><ele>253.2</ele><time>2026-04-16T12:44:07.777Z</time></trkpt><trkpt lat="40.6203883" lon="8.569075"><ele>248.0</ele><time>2026-04-16T12:44:08.777Z</time></trkpt><trkpt lat="40.6203667" lon="8.5689367"><ele>248.0</ele><time>2026-04-16T12:44:10.777Z</time></trkpt><trkpt lat="40.6203417" lon="8.5687917"><ele>248.0</ele><time>2026-04-16T12:44:12.777Z</time></trkpt><trkpt lat="40.62035" lon="8.56863"><ele>248.0</ele><time>2026-04-16T12:44:14.777Z</time></trkpt><trkpt lat="40.620365" lon="8.568535"><ele>248.0</ele><time>2026-04-16T12:44:15.777Z</time></trkpt><trkpt lat="40.620375" lon="8.5684317"><ele>248.0</ele><time>2026-04-16T12:44:16.776Z</time></trkpt><trkpt lat="40.620395" lon="8.5683433"><ele>246.16666666666669</ele><time>2026-04-16T12:44:17.777Z</time></trkpt><trkpt lat="40.620415" lon="8.568245"><ele>244.33333333333334</ele><time>2026-04-16T12:44:18.777Z</time></trkpt><trkpt lat="40.6204333" lon="8.568155"><ele>242.5</ele><time>2026-04-16T12:44:19.777Z</time></trkpt><trkpt lat="40.620455" lon="8.5680683"><ele>240.66666666666669</ele><time>2026-04-16T12:44:20.776Z</time></trkpt><trkpt lat="40.6205033" lon="8.5679833"><ele>238.83333333333334</ele><time>2026-04-16T12:44:22.777Z</time></trkpt><trkpt lat="40.6205667" lon="8.5680733"><ele>237.0</ele><time>2026-04-16T12:44:25.777Z</time></trkpt><trkpt lat="40.6206217" lon="8.5681983"><ele>237.0</ele><time>2026-04-16T12:44:27.777Z</time></trkpt><trkpt lat="40.6206667" lon="8.5683367"><ele>237.0</ele><time>2026-04-16T12:44:29.777Z</time></trkpt><trkpt lat="40.620715" lon="8.5684567"><ele>237.0</ele><time>2026-04-16T12:44:31.777Z</time></trkpt><trkpt lat="40.6207567" lon="8.5685933"><ele>237.0</ele><time>2026-04-16T12:44:33.776Z</time></trkpt><trkpt lat="40.6208117" lon="8.5687217"><ele>237.0</ele><time>2026-04-16T12:44:35.776Z</time></trkpt><trkpt lat="40.6208833" lon="8.5688417"><ele>238.83333333333334</ele><time>2026-04-16T12:44:37.777Z</time></trkpt><trkpt lat="40.6209583" lon="8.5689583"><ele>240.66666666666669</ele><time>2026-04-16T12:44:39.777Z</time></trkpt><trkpt lat="40.6210283" lon="8.5690517"><ele>242.5</ele><time>2026-04-16T12:44:41.777Z</time></trkpt><trkpt lat="40.6210817" lon="8.56912"><ele>244.33333333333334</ele><time>2026-04-16T12:44:43.777Z</time></trkpt><trkpt lat="40.62112" lon="8.5691867"><ele>246.16666666666669</ele><time>2026-04-16T12:44:45.777Z</time></trkpt><trkpt lat="40.6211683" lon="8.5692683"><ele>248.0</ele><time>2026-04-16T12:44:47.777Z</time></trkpt><trkpt lat="40.6212067" lon="8.5693633"><ele>246.4</ele><time>2026-04-16T12:45:12.777Z</time></trkpt><trkpt lat="40.62129" lon="8.569475"><ele>244.8</ele><time>2026-04-16T12:45:14.777Z</time></trkpt><trkpt lat="40.6213717" lon="8.5695817"><ele>243.2</ele><time>2026-04-16T12:45:16.777Z</time></trkpt><trkpt lat="40.62146" lon="8.569665"><ele>241.6</ele><time>2026-04-16T12:45:18.777Z</time></trkpt><trkpt lat="40.621525" lon="8.5697467"><ele>240.0</ele><time>2026-04-16T12:45:20.776Z</time></trkpt><trkpt lat="40.62158" lon="8.5698233"><ele>240.0</ele><time>2026-04-16T12:45:22.776Z</time></trkpt><trkpt lat="40.6216533" lon="8.5699183"><ele>240.0</ele><time>2026-04-16T12:45:24.776Z</time></trkpt><trkpt lat="40.6217333" lon="8.5699933"><ele>240.0</ele><time>2026-04-16T12:45:26.775Z</time></trkpt><trkpt lat="40.6218483" lon="8.5700767"><ele>240.0</ele><time>2026-04-16T12:45:28.776Z</time></trkpt><trkpt lat="40.6219033" lon="8.5701217"><ele>240.0</ele><time>2026-04-16T12:45:29.775Z</time></trkpt><trkpt lat="40.6220033" lon="8.5701617"><ele>236.6</ele><time>2026-04-16T12:45:31.775Z</time></trkpt><trkpt lat="40.6220783" lon="8.5702417"><ele>233.2</ele><time>2026-04-16T12:46:01.775Z</time></trkpt><trkpt lat="40.62216" lon="8.5703167"><ele>229.8</ele><time>2026-04-16T12:46:03.776Z</time></trkpt><trkpt lat="40.6222467" lon="8.5704117"><ele>226.4</ele><time>2026-04-16T12:46:05.776Z</time></trkpt><trkpt lat="40.6223067" lon="8.5705583"><ele>223.0</ele><time>2026-04-16T12:46:07.776Z</time></trkpt><trkpt lat="40.6223333" lon="8.5706433"><ele>222.99999999999997</ele><time>2026-04-16T12:46:08.775Z</time></trkpt><trkpt lat="40.6223667" lon="8.57073"><ele>223.0</ele><time>2026-04-16T12:46:09.776Z</time></trkpt><trkpt lat="40.62241" lon="8.57081"><ele>223.0</ele><time>2026-04-16T12:46:10.775Z</time></trkpt><trkpt lat="40.6224617" lon="8.5708867"><ele>223.0</ele><time>2026-04-16T12:46:11.775Z</time></trkpt><trkpt lat="40.6225183" lon="8.5709733"><ele>222.99999999999997</ele><time>2026-04-16T12:46:12.775Z</time></trkpt><trkpt lat="40.6225767" lon="8.5710683"><ele>223.0</ele><time>2026-04-16T12:46:13.776Z</time></trkpt><trkpt lat="40.6226333" lon="8.5711733"><ele>223.66666666666666</ele><time>2026-04-16T12:46:14.776Z</time></trkpt><trkpt lat="40.6226833" lon="8.571285"><ele>224.33333333333331</ele><time>2026-04-16T12:46:15.776Z</time></trkpt><trkpt lat="40.62272" lon="8.5713883"><ele>225.0</ele><time>2026-04-16T12:46:16.776Z</time></trkpt><trkpt lat="40.6227483" lon="8.5714817"><ele>225.66666666666669</ele><time>2026-04-16T12:46:17.775Z</time></trkpt><trkpt lat="40.6227767" lon="8.5715683"><ele>226.33333333333334</ele><time>2026-04-16T12:46:18.776Z</time></trkpt><trkpt lat="40.6227917" lon="8.5716567"><ele>227.0</ele><time>2026-04-16T12:46:19.776Z</time></trkpt><trkpt lat="40.6227867" lon="8.5717583"><ele>227.00000000000003</ele><time>2026-04-16T12:46:20.776Z</time></trkpt><trkpt lat="40.6227783" lon="8.5718733"><ele>227.0</ele><time>2026-04-16T12:46:21.775Z</time></trkpt><trkpt lat="40.622775" lon="8.5719867"><ele>227.0</ele><time>2026-04-16T12:46:22.775Z</time></trkpt><trkpt lat="40.62278" lon="8.5720967"><ele>227.0</ele><time>2026-04-16T12:46:23.776Z</time></trkpt><trkpt lat="40.6227867" lon="8.5722133"><ele>227.00000000000003</ele><time>2026-04-16T12:46:24.776Z</time></trkpt><trkpt lat="40.6227967" lon="8.5723383"><ele>227.0</ele><time>2026-04-16T12:46:25.776Z</time></trkpt><trkpt lat="40.6228017" lon="8.572465"><ele>225.33333333333334</ele><time>2026-04-16T12:46:26.776Z</time></trkpt><trkpt lat="40.6227967" lon="8.5725783"><ele>223.66666666666669</ele><time>2026-04-16T12:46:27.776Z</time></trkpt><trkpt lat="40.6227783" lon="8.5726683"><ele>222.0</ele><time>2026-04-16T12:46:28.776Z</time></trkpt><trkpt lat="40.6227433" lon="8.5727483"><ele>220.33333333333331</ele><time>2026-04-16T12:46:29.776Z</time></trkpt><trkpt lat="40.6226883" lon="8.5728383"><ele>218.66666666666666</ele><time>2026-04-16T12:46:30.776Z</time></trkpt><trkpt lat="40.622635" lon="8.5729283"><ele>217.0</ele><time>2026-04-16T12:46:31.776Z</time></trkpt><trkpt lat="40.6225917" lon="8.5730283"><ele>213.16666666666666</ele><time>2026-04-16T12:46:32.776Z</time></trkpt><trkpt lat="40.6225533" lon="8.5731367"><ele>209.33333333333331</ele><time>2026-04-16T12:46:33.776Z</time></trkpt><trkpt lat="40.622515" lon="8.5732417"><ele>205.5</ele><time>2026-04-16T12:46:34.776Z</time></trkpt><trkpt lat="40.6224733" lon="8.5733417"><ele>201.66666666666669</ele><time>2026-04-16T12:46:35.776Z</time></trkpt><trkpt lat="40.62243" lon="8.5734433"><ele>197.83333333333334</ele><time>2026-04-16T12:46:36.775Z</time></trkpt><trkpt lat="40.622395" lon="8.5735517"><ele>194.0</ele><time>2026-04-16T12:46:37.775Z</time></trkpt><trkpt lat="40.6223683" lon="8.5736767"><ele>191.0</ele><time>2026-04-16T12:46:38.775Z</time></trkpt><trkpt lat="40.6223467" lon="8.573805"><ele>188.0</ele><time>2026-04-16T12:46:39.776Z</time></trkpt><trkpt lat="40.6223333" lon="8.5739283"><ele>185.0</ele><time>2026-04-16T12:46:40.775Z</time></trkpt><trkpt lat="40.6223133" lon="8.5740583"><ele>182.0</ele><time>2026-04-16T12:46:41.775Z</time></trkpt><trkpt lat="40.6223033" lon="8.57418"><ele>179.0</ele><time>2026-04-16T12:46:42.776Z</time></trkpt><trkpt lat="40.6223033" lon="8.5742867"><ele>179.00000000000003</ele><time>2026-04-16T12:46:43.775Z</time></trkpt><trkpt lat="40.6223117" lon="8.5743833"><ele>179.0</ele><time>2026-04-16T12:46:44.776Z</time></trkpt><trkpt lat="40.622325" lon="8.5744783"><ele>179.0</ele><time>2026-04-16T12:46:45.776Z</time></trkpt><trkpt lat="40.6223433" lon="8.5745733"><ele>179.0</ele><time>2026-04-16T12:46:46.776Z</time></trkpt><trkpt lat="40.6223667" lon="8.57466"><ele>179.0</ele><time>2026-04-16T12:46:47.776Z</time></trkpt><trkpt lat="40.6223917" lon="8.574745"><ele>179.00000000000003</ele><time>2026-04-16T12:46:48.776Z</time></trkpt><trkpt lat="40.6224317" lon="8.574825"><ele>179.0</ele><time>2026-04-16T12:46:49.775Z</time></trkpt><trkpt lat="40.6224783" lon="8.5748933"><ele>178.0</ele><time>2026-04-16T12:46:50.776Z</time></trkpt><trkpt lat="40.6225283" lon="8.574955"><ele>177.0</ele><time>2026-04-16T12:46:51.775Z</time></trkpt><trkpt lat="40.6226217" lon="8.5749967"><ele>176.0</ele><time>2026-04-16T12:46:53.776Z</time></trkpt><trkpt lat="40.6226867" lon="8.5749133"><ele>175.0</ele><time>2026-04-16T12:46:55.776Z</time></trkpt><trkpt lat="40.62271" lon="8.5748283"><ele>174.0</ele><time>2026-04-16T12:46:56.776Z</time></trkpt><trkpt lat="40.6227383" lon="8.57474"><ele>173.0</ele><time>2026-04-16T12:46:57.776Z</time></trkpt><trkpt lat="40.6227983" lon="8.5746133"><ele>167.8</ele><time>2026-04-16T12:46:59.776Z</time></trkpt><trkpt lat="40.622865" lon="8.5746167"><ele>162.60000000000002</ele><time>2026-04-16T12:47:01.775Z</time></trkpt><trkpt lat="40.6229317" lon="8.57477"><ele>157.39999999999998</ele><time>2026-04-16T12:47:03.776Z</time></trkpt><trkpt lat="40.6229567" lon="8.5748917"><ele>152.2</ele><time>2026-04-16T12:47:04.775Z</time></trkpt><trkpt lat="40.6229733" lon="8.5750433"><ele>147.0</ele><time>2026-04-16T12:47:05.775Z</time></trkpt><trkpt lat="40.6229783" lon="8.575195"><ele>147.0</ele><time>2026-04-16T12:47:06.776Z</time></trkpt><trkpt lat="40.622975" lon="8.5753317"><ele>147.0</ele><time>2026-04-16T12:47:07.775Z</time></trkpt><trkpt lat="40.6229767" lon="8.5754517"><ele>147.0</ele><time>2026-04-16T12:47:08.775Z</time></trkpt><trkpt lat="40.6229733" lon="8.575565"><ele>147.0</ele><time>2026-04-16T12:47:09.776Z</time></trkpt><trkpt lat="40.62296" lon="8.5756867"><ele>147.0</ele><time>2026-04-16T12:47:10.775Z</time></trkpt><trkpt lat="40.6229333" lon="8.5758067"><ele>146.2</ele><time>2026-04-16T12:47:11.775Z</time></trkpt><trkpt lat="40.6229067" lon="8.5759417"><ele>145.39999999999998</ele><time>2026-04-16T12:47:12.775Z</time></trkpt><trkpt lat="40.62288" lon="8.5760783"><ele>144.60000000000002</ele><time>2026-04-16T12:47:13.776Z</time></trkpt><trkpt lat="40.6228517" lon="8.576205"><ele>143.8</ele><time>2026-04-16T12:47:14.776Z</time></trkpt><trkpt lat="40.6228383" lon="8.5763267"><ele>143.0</ele><time>2026-04-16T12:47:15.775Z</time></trkpt><trkpt lat="40.622835" lon="8.5764667"><ele>144.0</ele><time>2026-04-16T12:47:16.776Z</time></trkpt><trkpt lat="40.62282" lon="8.5766167"><ele>145.0</ele><time>2026-04-16T12:47:17.775Z</time></trkpt><trkpt lat="40.62281" lon="8.576765"><ele>146.0</ele><time>2026-04-16T12:47:18.775Z</time></trkpt><trkpt lat="40.622805" lon="8.57687"><ele>147.0</ele><time>2026-04-16T12:47:19.776Z</time></trkpt><trkpt lat="40.6228083" lon="8.5770133"><ele>148.0</ele><time>2026-04-16T12:47:21.776Z</time></trkpt><trkpt lat="40.6228233" lon="8.5771"><ele>144.0</ele><time>2026-04-16T12:47:22.775Z</time></trkpt><trkpt lat="40.62284" lon="8.577225"><ele>140.0</ele><time>2026-04-16T12:47:23.776Z</time></trkpt><trkpt lat="40.6228567" lon="8.577375"><ele>136.0</ele><time>2026-04-16T12:47:24.776Z</time></trkpt><trkpt lat="40.62287" lon="8.5775333"><ele>132.0</ele><time>2026-04-16T12:47:25.776Z</time></trkpt><trkpt lat="40.6228983" lon="8.5776867"><ele>132.0</ele><time>2026-04-16T12:47:26.776Z</time></trkpt><trkpt lat="40.622935" lon="8.5778267"><ele>132.0</ele><time>2026-04-16T12:47:27.776Z</time></trkpt><trkpt lat="40.6229767" lon="8.5779583"><ele>132.0</ele><time>2026-04-16T12:47:28.776Z</time></trkpt><trkpt lat="40.62304" lon="8.5780717"><ele>132.0</ele><time>2026-04-16T12:47:29.776Z</time></trkpt><trkpt lat="40.6231167" lon="8.5781783"><ele>132.0</ele><time>2026-04-16T12:47:30.776Z</time></trkpt><trkpt lat="40.6231917" lon="8.5782767"><ele>132.0</ele><time>2026-04-16T12:47:31.775Z</time></trkpt><trkpt lat="40.62325" lon="8.57836"><ele>132.0</ele><time>2026-04-16T12:47:32.776Z</time></trkpt><trkpt lat="40.623285" lon="8.578435"><ele>132.0</ele><time>2026-04-16T12:47:33.776Z</time></trkpt><trkpt lat="40.6233183" lon="8.578575"><ele>132.0</ele><time>2026-04-16T12:47:35.776Z</time></trkpt><trkpt lat="40.6233517" lon="8.5786933"><ele>132.0</ele><time>2026-04-16T12:47:37.776Z</time></trkpt><trkpt lat="40.623435" lon="8.57878"><ele>133.2</ele><time>2026-04-16T12:47:39.776Z</time></trkpt><trkpt lat="40.6234983" lon="8.578825"><ele>134.39999999999998</ele><time>2026-04-16T12:47:40.776Z</time></trkpt><trkpt lat="40.6235767" lon="8.5788783"><ele>135.60000000000002</ele><time>2026-04-16T12:47:41.776Z</time></trkpt><trkpt lat="40.6236683" lon="8.5789483"><ele>136.8</ele><time>2026-04-16T12:47:42.776Z</time></trkpt><trkpt lat="40.6237717" lon="8.5790067"><ele>138.0</ele><time>2026-04-16T12:47:43.776Z</time></trkpt><trkpt lat="40.62387" lon="8.57906"><ele>139.5</ele><time>2026-04-16T12:47:44.775Z</time></trkpt><trkpt lat="40.623945" lon="8.5791117"><ele>141.0</ele><time>2026-04-16T12:47:45.776Z</time></trkpt><trkpt lat="40.6240117" lon="8.5791683"><ele>142.5</ele><time>2026-04-16T12:47:47.775Z</time></trkpt><trkpt lat="40.6239467" lon="8.579235"><ele>144.0</ele><time>2026-04-16T12:47:50.775Z</time></trkpt><trkpt lat="40.6238683" lon="8.5792467"><ele>145.5</ele><time>2026-04-16T12:48:10.775Z</time></trkpt><trkpt lat="40.6237833" lon="8.5792583"><ele>147.0</ele><time>2026-04-16T12:48:11.775Z</time></trkpt><trkpt lat="40.6236833" lon="8.5792883"><ele>144.75</ele><time>2026-04-16T12:48:12.774Z</time></trkpt><trkpt lat="40.6235733" lon="8.5793167"><ele>142.5</ele><time>2026-04-16T12:48:13.774Z</time></trkpt><trkpt lat="40.6234483" lon="8.5793533"><ele>140.25</ele><time>2026-04-16T12:48:14.774Z</time></trkpt><trkpt lat="40.6233283" lon="8.57941"><ele>138.0</ele><time>2026-04-16T12:48:15.775Z</time></trkpt><trkpt lat="40.6231917" lon="8.5794533"><ele>138.0</ele><time>2026-04-16T12:48:16.774Z</time></trkpt><trkpt lat="40.6230533" lon="8.579505"><ele>138.0</ele><time>2026-04-16T12:48:17.775Z</time></trkpt><trkpt lat="40.6229283" lon="8.5795533"><ele>138.0</ele><time>2026-04-16T12:48:18.775Z</time></trkpt><trkpt lat="40.622815" lon="8.5795867"><ele>138.0</ele><time>2026-04-16T12:48:19.774Z</time></trkpt><trkpt lat="40.62271" lon="8.5796367"><ele>141.5</ele><time>2026-04-16T12:48:20.775Z</time></trkpt><trkpt lat="40.6225967" lon="8.57972"><ele>145.0</ele><time>2026-04-16T12:48:21.774Z</time></trkpt><trkpt lat="40.622485" lon="8.579825"><ele>148.5</ele><time>2026-04-16T12:48:22.775Z</time></trkpt><trkpt lat="40.6223533" lon="8.57996"><ele>152.0</ele><time>2026-04-16T12:48:23.774Z</time></trkpt><trkpt lat="40.6222133" lon="8.5800767"><ele>152.0</ele><time>2026-04-16T12:48:24.775Z</time></trkpt><trkpt lat="40.6220733" lon="8.5801883"><ele>152.0</ele><time>2026-04-16T12:48:25.774Z</time></trkpt><trkpt lat="40.6219367" lon="8.58029"><ele>152.0</ele><time>2026-04-16T12:48:26.774Z</time></trkpt><trkpt lat="40.6218083" lon="8.5803917"><ele>153.0</ele><time>2026-04-16T12:48:27.774Z</time></trkpt><trkpt lat="40.6216767" lon="8.5804917"><ele>154.0</ele><time>2026-04-16T12:48:28.775Z</time></trkpt><trkpt lat="40.6215517" lon="8.5806133"><ele>155.0</ele><time>2026-04-16T12:48:29.774Z</time></trkpt><trkpt lat="40.6214367" lon="8.5807133"><ele>156.0</ele><time>2026-04-16T12:48:30.775Z</time></trkpt><trkpt lat="40.6213333" lon="8.5808133"><ele>156.0</ele><time>2026-04-16T12:48:31.774Z</time></trkpt><trkpt lat="40.6212317" lon="8.5808933"><ele>156.0</ele><time>2026-04-16T12:48:32.775Z</time></trkpt><trkpt lat="40.62112" lon="8.580965"><ele>156.0</ele><time>2026-04-16T12:48:33.775Z</time></trkpt><trkpt lat="40.6210067" lon="8.5810233"><ele>156.0</ele><time>2026-04-16T12:48:34.775Z</time></trkpt><trkpt lat="40.6208883" lon="8.5810567"><ele>153.5</ele><time>2026-04-16T12:48:35.775Z</time></trkpt><trkpt lat="40.62076" lon="8.5810717"><ele>151.0</ele><time>2026-04-16T12:48:36.775Z</time></trkpt><trkpt lat="40.6206117" lon="8.581065"><ele>148.5</ele><time>2026-04-16T12:48:37.775Z</time></trkpt><trkpt lat="40.6204833" lon="8.5810483"><ele>146.0</ele><time>2026-04-16T12:48:38.775Z</time></trkpt><trkpt lat="40.620355" lon="8.5810083"><ele>146.75</ele><time>2026-04-16T12:48:39.775Z</time></trkpt><trkpt lat="40.62023" lon="8.5809433"><ele>147.5</ele><time>2026-04-16T12:48:40.775Z</time></trkpt><trkpt lat="40.62012" lon="8.5808717"><ele>148.25</ele><time>2026-04-16T12:48:41.774Z</time></trkpt><trkpt lat="40.620025" lon="8.5808017"><ele>149.0</ele><time>2026-04-16T12:48:42.774Z</time></trkpt><trkpt lat="40.6199267" lon="8.580715"><ele>149.0</ele><time>2026-04-16T12:48:43.775Z</time></trkpt><trkpt lat="40.61982" lon="8.580635"><ele>149.0</ele><time>2026-04-16T12:48:44.775Z</time></trkpt><trkpt lat="40.6197133" lon="8.5805867"><ele>149.0</ele><time>2026-04-16T12:48:45.775Z</time></trkpt><trkpt lat="40.6196033" lon="8.5805867"><ele>149.0</ele><time>2026-04-16T12:48:46.774Z</time></trkpt><trkpt lat="40.6194917" lon="8.5806033"><ele>148.5</ele><time>2026-04-16T12:48:47.774Z</time></trkpt><trkpt lat="40.6193833" lon="8.580645"><ele>148.0</ele><time>2026-04-16T12:48:48.775Z</time></trkpt><trkpt lat="40.6192767" lon="8.5807283"><ele>147.5</ele><time>2026-04-16T12:48:49.775Z</time></trkpt><trkpt lat="40.6191683" lon="8.5808383"><ele>147.0</ele><time>2026-04-16T12:48:50.774Z</time></trkpt><trkpt lat="40.6190633" lon="8.5809733"><ele>147.0</ele><time>2026-04-16T12:48:51.774Z</time></trkpt><trkpt lat="40.6189317" lon="8.5811133"><ele>147.0</ele><time>2026-04-16T12:48:52.775Z</time></trkpt><trkpt lat="40.618795" lon="8.5812583"><ele>147.0</ele><time>2026-04-16T12:48:53.774Z</time></trkpt><trkpt lat="40.6186667" lon="8.5813967"><ele>147.75</ele><time>2026-04-16T12:48:54.774Z</time></trkpt><trkpt lat="40.6185583" lon="8.5814917"><ele>148.5</ele><time>2026-04-16T12:48:55.774Z</time></trkpt><trkpt lat="40.6184783" lon="8.5815767"><ele>149.25</ele><time>2026-04-16T12:48:56.775Z</time></trkpt><trkpt lat="40.6184" lon="8.5816717"><ele>150.0</ele><time>2026-04-16T12:48:57.774Z</time></trkpt><trkpt lat="40.61832" lon="8.5817933"><ele>150.0</ele><time>2026-04-16T12:48:58.775Z</time></trkpt><trkpt lat="40.6182367" lon="8.58195"><ele>150.0</ele><time>2026-04-16T12:48:59.775Z</time></trkpt><trkpt lat="40.6181417" lon="8.5821183"><ele>150.0</ele><time>2026-04-16T12:49:00.775Z</time></trkpt><trkpt lat="40.61804" lon="8.5823017"><ele>149.75</ele><time>2026-04-16T12:49:01.774Z</time></trkpt><trkpt lat="40.6179483" lon="8.5824767"><ele>149.5</ele><time>2026-04-16T12:49:02.775Z</time></trkpt><trkpt lat="40.617865" lon="8.582635"><ele>149.25</ele><time>2026-04-16T12:49:03.774Z</time></trkpt><trkpt lat="40.6177883" lon="8.5827817"><ele>149.0</ele><time>2026-04-16T12:49:04.774Z</time></trkpt><trkpt lat="40.6177083" lon="8.5828967"><ele>154.0</ele><time>2026-04-16T12:49:05.774Z</time></trkpt><trkpt lat="40.6176167" lon="8.583005"><ele>159.0</ele><time>2026-04-16T12:49:06.774Z</time></trkpt><trkpt lat="40.6175133" lon="8.5830967"><ele>164.0</ele><time>2026-04-16T12:49:07.774Z</time></trkpt><trkpt lat="40.6174183" lon="8.5831683"><ele>169.0</ele><time>2026-04-16T12:49:08.774Z</time></trkpt><trkpt lat="40.617355" lon="8.5832317"><ele>174.0</ele><time>2026-04-16T12:49:09.774Z</time></trkpt><trkpt lat="40.6173517" lon="8.5833233"><ele>174.0</ele><time>2026-04-16T12:49:11.774Z</time></trkpt><trkpt lat="40.6174733" lon="8.5833367"><ele>174.0</ele><time>2026-04-16T12:49:13.775Z</time></trkpt><trkpt lat="40.6175733" lon="8.5833167"><ele>174.0</ele><time>2026-04-16T12:49:14.775Z</time></trkpt><trkpt lat="40.61769" lon="8.583265"><ele>174.0</ele><time>2026-04-16T12:49:15.774Z</time></trkpt><trkpt lat="40.6177917" lon="8.583215"><ele>174.0</ele><time>2026-04-16T12:49:16.774Z</time></trkpt><trkpt lat="40.6178633" lon="8.5832267"><ele>174.0</ele><time>2026-04-16T12:49:18.775Z</time></trkpt><trkpt lat="40.6177933" lon="8.5833083"><ele>174.0</ele><time>2026-04-16T12:49:20.774Z</time></trkpt><trkpt lat="40.6177133" lon="8.5833517"><ele>174.0</ele><time>2026-04-16T12:49:21.774Z</time></trkpt><trkpt lat="40.617625" lon="8.583415"><ele>174.0</ele><time>2026-04-16T12:49:22.774Z</time></trkpt><trkpt lat="40.6175483" lon="8.5834817"><ele>174.0</ele><time>2026-04-16T12:49:23.775Z</time></trkpt><trkpt lat="40.6175417" lon="8.5835767"><ele>174.0</ele><time>2026-04-16T12:49:25.774Z</time></trkpt><trkpt lat="40.617645" lon="8.583545"><ele>174.0</ele><time>2026-04-16T12:49:27.774Z</time></trkpt><trkpt lat="40.6177333" lon="8.5834817"><ele>174.0</ele><time>2026-04-16T12:49:28.774Z</time></trkpt><trkpt lat="40.617845" lon="8.583415"><ele>174.0</ele><time>2026-04-16T12:49:29.775Z</time></trkpt><trkpt lat="40.61798" lon="8.5833683"><ele>181.0</ele><time>2026-04-16T12:49:30.775Z</time></trkpt><trkpt lat="40.6181083" lon="8.5832983"><ele>188.0</ele><time>2026-04-16T12:49:31.774Z</time></trkpt><trkpt lat="40.6182367" lon="8.5832117"><ele>195.0</ele><time>2026-04-16T12:49:32.774Z</time></trkpt><trkpt lat="40.6183733" lon="8.5831083"><ele>202.0</ele><time>2026-04-16T12:49:33.774Z</time></trkpt><trkpt lat="40.618505" lon="8.583"><ele>202.0</ele><time>2026-04-16T12:49:34.775Z</time></trkpt><trkpt lat="40.61862" lon="8.5829033"><ele>202.0</ele><time>2026-04-16T12:49:35.774Z</time></trkpt><trkpt lat="40.6187267" lon="8.5828317"><ele>202.0</ele><time>2026-04-16T12:49:36.775Z</time></trkpt><trkpt lat="40.6188283" lon="8.58279"><ele>202.0</ele><time>2026-04-16T12:49:37.775Z</time></trkpt><trkpt lat="40.6189433" lon="8.5827817"><ele>200.75</ele><time>2026-04-16T12:49:38.775Z</time></trkpt><trkpt lat="40.6190633" lon="8.5827867"><ele>199.5</ele><time>2026-04-16T12:49:39.774Z</time></trkpt><trkpt lat="40.61919" lon="8.5827917"><ele>198.25</ele><time>2026-04-16T12:49:40.774Z</time></trkpt><trkpt lat="40.6193283" lon="8.5827817"><ele>197.0</ele><time>2026-04-16T12:49:41.775Z</time></trkpt><trkpt lat="40.6194733" lon="8.58275"><ele>199.25</ele><time>2026-04-16T12:49:42.775Z</time></trkpt><trkpt lat="40.619615" lon="8.5827033"><ele>201.5</ele><time>2026-04-16T12:49:43.775Z</time></trkpt><trkpt lat="40.6197667" lon="8.5826617"><ele>203.75</ele><time>2026-04-16T12:49:44.775Z</time></trkpt><trkpt lat="40.6199133" lon="8.582635"><ele>206.0</ele><time>2026-04-16T12:49:45.775Z</time></trkpt><trkpt lat="40.6200433" lon="8.5826067"><ele>206.0</ele><time>2026-04-16T12:49:46.775Z</time></trkpt><trkpt lat="40.6201517" lon="8.5825783"><ele>206.0</ele><time>2026-04-16T12:49:47.775Z</time></trkpt><trkpt lat="40.620235" lon="8.582595"><ele>206.0</ele><time>2026-04-16T12:49:48.775Z</time></trkpt><trkpt lat="40.62032" lon="8.582645"><ele>206.0</ele><time>2026-04-16T12:49:49.775Z</time></trkpt><trkpt lat="40.6204067" lon="8.582705"><ele>206.0</ele><time>2026-04-16T12:49:50.774Z</time></trkpt><trkpt lat="40.6204967" lon="8.582765"><ele>206.4</ele><time>2026-04-16T12:49:51.774Z</time></trkpt><trkpt lat="40.6205883" lon="8.582825"><ele>206.8</ele><time>2026-04-16T12:49:52.775Z</time></trkpt><trkpt lat="40.6206667" lon="8.58288"><ele>207.20000000000002</ele><time>2026-04-16T12:49:53.774Z</time></trkpt><trkpt lat="40.6207183" lon="8.5829433"><ele>207.60000000000002</ele><time>2026-04-16T12:49:54.775Z</time></trkpt><trkpt lat="40.62073" lon="8.5830617"><ele>208.0</ele><time>2026-04-16T12:49:56.775Z</time></trkpt><trkpt lat="40.6206167" lon="8.583145"><ele>211.66666666666666</ele><time>2026-04-16T12:49:58.774Z</time></trkpt><trkpt lat="40.6205417" lon="8.5831617"><ele>215.33333333333331</ele><time>2026-04-16T12:49:59.774Z</time></trkpt><trkpt lat="40.6204783" lon="8.5831783"><ele>219.0</ele><time>2026-04-16T12:50:00.774Z</time></trkpt><trkpt lat="40.6205767" lon="8.5832633"><ele>222.66666666666669</ele><time>2026-04-16T12:50:04.775Z</time></trkpt><trkpt lat="40.6206617" lon="8.5832517"><ele>226.33333333333334</ele><time>2026-04-16T12:50:05.775Z</time></trkpt><trkpt lat="40.620765" lon="8.5832333"><ele>230.0</ele><time>2026-04-16T12:50:06.774Z</time></trkpt><trkpt lat="40.62088" lon="8.5832233"><ele>230.0</ele><time>2026-04-16T12:50:07.774Z</time></trkpt><trkpt lat="40.6210017" lon="8.58323"><ele>230.0</ele><time>2026-04-16T12:50:08.775Z</time></trkpt><trkpt lat="40.6211367" lon="8.5832267"><ele>230.0</ele><time>2026-04-16T12:50:09.774Z</time></trkpt><trkpt lat="40.621265" lon="8.5832317"><ele>230.0</ele><time>2026-04-16T12:50:10.775Z</time></trkpt><trkpt lat="40.6213733" lon="8.583285"><ele>229.75</ele><time>2026-04-16T12:50:11.774Z</time></trkpt><trkpt lat="40.6214817" lon="8.5833733"><ele>229.5</ele><time>2026-04-16T12:50:12.774Z</time></trkpt><trkpt lat="40.6215717" lon="8.5835017"><ele>229.25</ele><time>2026-04-16T12:50:13.775Z</time></trkpt><trkpt lat="40.6216317" lon="8.58367"><ele>229.0</ele><time>2026-04-16T12:50:14.774Z</time></trkpt><trkpt lat="40.621655" lon="8.58386"><ele>228.0</ele><time>2026-04-16T12:50:15.775Z</time></trkpt><trkpt lat="40.62164" lon="8.5840467"><ele>227.0</ele><time>2026-04-16T12:50:16.774Z</time></trkpt><trkpt lat="40.62159" lon="8.5842383"><ele>226.0</ele><time>2026-04-16T12:50:17.775Z</time></trkpt><trkpt lat="40.6215317" lon="8.58444"><ele>224.0</ele><time>2026-04-16T12:50:18.775Z</time></trkpt><trkpt lat="40.6214817" lon="8.58465"><ele>222.0</ele><time>2026-04-16T12:50:19.774Z</time></trkpt><trkpt lat="40.6214417" lon="8.5848717"><ele>220.0</ele><time>2026-04-16T12:50:20.774Z</time></trkpt><trkpt lat="40.6214067" lon="8.5851067"><ele>219.0</ele><time>2026-04-16T12:50:21.774Z</time></trkpt><trkpt lat="40.6213917" lon="8.5853533"><ele>218.0</ele><time>2026-04-16T12:50:22.773Z</time></trkpt><trkpt lat="40.6213933" lon="8.5856"><ele>217.0</ele><time>2026-04-16T12:50:23.774Z</time></trkpt><trkpt lat="40.6214233" lon="8.5858567"><ele>217.0</ele><time>2026-04-16T12:50:24.774Z</time></trkpt><trkpt lat="40.62147" lon="8.5861033"><ele>217.0</ele><time>2026-04-16T12:50:25.773Z</time></trkpt><trkpt lat="40.621525" lon="8.5863383"><ele>217.0</ele><time>2026-04-16T12:50:26.774Z</time></trkpt><trkpt lat="40.6215783" lon="8.5865617"><ele>216.0</ele><time>2026-04-16T12:50:27.774Z</time></trkpt><trkpt lat="40.6216083" lon="8.5867833"><ele>215.0</ele><time>2026-04-16T12:50:28.774Z</time></trkpt><trkpt lat="40.6216283" lon="8.587005"><ele>214.0</ele><time>2026-04-16T12:50:29.774Z</time></trkpt><trkpt lat="40.6216283" lon="8.58723"><ele>212.33333333333331</ele><time>2026-04-16T12:50:30.774Z</time></trkpt><trkpt lat="40.6216167" lon="8.58745"><ele>210.66666666666669</ele><time>2026-04-16T12:50:31.774Z</time></trkpt><trkpt lat="40.6215917" lon="8.5876767"><ele>209.0</ele><time>2026-04-16T12:50:32.774Z</time></trkpt><trkpt lat="40.6215567" lon="8.587905"><ele>207.66666666666669</ele><time>2026-04-16T12:50:33.774Z</time></trkpt><trkpt lat="40.6215217" lon="8.5881317"><ele>206.33333333333331</ele><time>2026-04-16T12:50:34.774Z</time></trkpt><trkpt lat="40.6214883" lon="8.5883617"><ele>205.0</ele><time>2026-04-16T12:50:35.774Z</time></trkpt><trkpt lat="40.62146" lon="8.5885933"><ele>203.0</ele><time>2026-04-16T12:50:36.773Z</time></trkpt><trkpt lat="40.62143" lon="8.5888317"><ele>201.0</ele><time>2026-04-16T12:50:37.773Z</time></trkpt><trkpt lat="40.62138" lon="8.5890717"><ele>199.0</ele><time>2026-04-16T12:50:38.774Z</time></trkpt><trkpt lat="40.6213133" lon="8.589295"><ele>197.66666666666666</ele><time>2026-04-16T12:50:39.774Z</time></trkpt><trkpt lat="40.6212317" lon="8.5895133"><ele>196.33333333333331</ele><time>2026-04-16T12:50:40.773Z</time></trkpt><trkpt lat="40.62115" lon="8.5897333"><ele>195.0</ele><time>2026-04-16T12:50:41.774Z</time></trkpt><trkpt lat="40.6210667" lon="8.5899433"><ele>197.0</ele><time>2026-04-16T12:50:42.774Z</time></trkpt><trkpt lat="40.6209817" lon="8.5901583"><ele>199.0</ele><time>2026-04-16T12:50:43.774Z</time></trkpt><trkpt lat="40.6209" lon="8.59038"><ele>201.0</ele><time>2026-04-16T12:50:44.774Z</time></trkpt><trkpt lat="40.6208217" lon="8.5906"><ele>201.0</ele><time>2026-04-16T12:50:45.774Z</time></trkpt><trkpt lat="40.620755" lon="8.590825"><ele>201.0</ele><time>2026-04-16T12:50:46.774Z</time></trkpt><trkpt lat="40.6206967" lon="8.5910583"><ele>201.0</ele><time>2026-04-16T12:50:47.773Z</time></trkpt><trkpt lat="40.6206517" lon="8.5912967"><ele>200.0</ele><time>2026-04-16T12:50:48.774Z</time></trkpt><trkpt lat="40.6206267" lon="8.591535"><ele>199.0</ele><time>2026-04-16T12:50:49.774Z</time></trkpt><trkpt lat="40.6206133" lon="8.5917833"><ele>198.0</ele><time>2026-04-16T12:50:50.773Z</time></trkpt><trkpt lat="40.62061" lon="8.5920333"><ele>197.66666666666669</ele><time>2026-04-16T12:50:51.774Z</time></trkpt><trkpt lat="40.6206033" lon="8.5922817"><ele>197.33333333333334</ele><time>2026-04-16T12:50:52.774Z</time></trkpt><trkpt lat="40.620595" lon="8.592535"><ele>197.0</ele><time>2026-04-16T12:50:53.774Z</time></trkpt><trkpt lat="40.6205817" lon="8.5927867"><ele>197.0</ele><time>2026-04-16T12:50:54.774Z</time></trkpt><trkpt lat="40.6205717" lon="8.5930333"><ele>197.0</ele><time>2026-04-16T12:50:55.774Z</time></trkpt><trkpt lat="40.6205667" lon="8.5932717"><ele>197.0</ele><time>2026-04-16T12:50:56.774Z</time></trkpt><trkpt lat="40.6205583" lon="8.593505"><ele>196.66666666666669</ele><time>2026-04-16T12:50:57.774Z</time></trkpt><trkpt lat="40.620545" lon="8.5937317"><ele>196.33333333333331</ele><time>2026-04-16T12:50:58.774Z</time></trkpt><trkpt lat="40.6205233" lon="8.5939567"><ele>196.0</ele><time>2026-04-16T12:50:59.774Z</time></trkpt><trkpt lat="40.620485" lon="8.5941833"><ele>196.0</ele><time>2026-04-16T12:51:00.773Z</time></trkpt><trkpt lat="40.620445" lon="8.5944117"><ele>196.0</ele><time>2026-04-16T12:51:01.774Z</time></trkpt><trkpt lat="40.6203883" lon="8.5946317"><ele>196.0</ele><time>2026-04-16T12:51:02.773Z</time></trkpt><trkpt lat="40.6203233" lon="8.59484"><ele>193.0</ele><time>2026-04-16T12:51:03.774Z</time></trkpt><trkpt lat="40.6202567" lon="8.5950383"><ele>190.0</ele><time>2026-04-16T12:51:04.774Z</time></trkpt><trkpt lat="40.620195" lon="8.595235"><ele>187.0</ele><time>2026-04-16T12:51:05.774Z</time></trkpt><trkpt lat="40.6201383" lon="8.5954183"><ele>185.5</ele><time>2026-04-16T12:51:06.774Z</time></trkpt><trkpt lat="40.620085" lon="8.59559"><ele>184.0</ele><time>2026-04-16T12:51:07.774Z</time></trkpt><trkpt lat="40.6200317" lon="8.5957567"><ele>182.5</ele><time>2026-04-16T12:51:08.774Z</time></trkpt><trkpt lat="40.619965" lon="8.5959183"><ele>181.0</ele><time>2026-04-16T12:51:09.774Z</time></trkpt><trkpt lat="40.61988" lon="8.5960683"><ele>178.5</ele><time>2026-04-16T12:51:10.773Z</time></trkpt><trkpt lat="40.6197833" lon="8.596205"><ele>176.0</ele><time>2026-04-16T12:51:11.774Z</time></trkpt><trkpt lat="40.6196683" lon="8.5963083"><ele>173.5</ele><time>2026-04-16T12:51:12.773Z</time></trkpt><trkpt lat="40.6195367" lon="8.5963883"><ele>171.0</ele><time>2026-04-16T12:51:13.774Z</time></trkpt><trkpt lat="40.6193917" lon="8.596445"><ele>171.0</ele><time>2026-04-16T12:51:14.773Z</time></trkpt><trkpt lat="40.6192383" lon="8.5964917"><ele>171.0</ele><time>2026-04-16T12:51:15.773Z</time></trkpt><trkpt lat="40.6190767" lon="8.5965283"><ele>171.0</ele><time>2026-04-16T12:51:16.774Z</time></trkpt><trkpt lat="40.61892" lon="8.5965617"><ele>171.0</ele><time>2026-04-16T12:51:17.774Z</time></trkpt><trkpt lat="40.618765" lon="8.5965967"><ele>171.0</ele><time>2026-04-16T12:51:18.774Z</time></trkpt><trkpt lat="40.6186133" lon="8.5966333"><ele>171.0</ele><time>2026-04-16T12:51:19.774Z</time></trkpt><trkpt lat="40.618465" lon="8.5966817"><ele>171.0</ele><time>2026-04-16T12:51:20.774Z</time></trkpt><trkpt lat="40.6183183" lon="8.59673"><ele>171.0</ele><time>2026-04-16T12:51:21.773Z</time></trkpt><trkpt lat="40.6181783" lon="8.5967833"><ele>171.0</ele><time>2026-04-16T12:51:22.773Z</time></trkpt><trkpt lat="40.6180417" lon="8.596845"><ele>171.0</ele><time>2026-04-16T12:51:23.774Z</time></trkpt><trkpt lat="40.6179267" lon="8.59693"><ele>171.0</ele><time>2026-04-16T12:51:24.774Z</time></trkpt><trkpt lat="40.61784" lon="8.5970433"><ele>171.0</ele><time>2026-04-16T12:51:25.774Z</time></trkpt><trkpt lat="40.61779" lon="8.59718"><ele>171.0</ele><time>2026-04-16T12:51:26.774Z</time></trkpt><trkpt lat="40.6177733" lon="8.59733"><ele>171.0</ele><time>2026-04-16T12:51:27.774Z</time></trkpt><trkpt lat="40.6177917" lon="8.5974817"><ele>169.75</ele><time>2026-04-16T12:51:28.774Z</time></trkpt><trkpt lat="40.617845" lon="8.5976217"><ele>168.5</ele><time>2026-04-16T12:51:29.773Z</time></trkpt><trkpt lat="40.6179333" lon="8.5977433"><ele>167.25</ele><time>2026-04-16T12:51:30.773Z</time></trkpt><trkpt lat="40.61805" lon="8.5978333"><ele>166.0</ele><time>2026-04-16T12:51:31.774Z</time></trkpt><trkpt lat="40.6181817" lon="8.5978983"><ele>168.25</ele><time>2026-04-16T12:51:32.773Z</time></trkpt><trkpt lat="40.6183217" lon="8.5979483"><ele>170.5</ele><time>2026-04-16T12:51:33.773Z</time></trkpt><trkpt lat="40.6184633" lon="8.5979983"><ele>172.75</ele><time>2026-04-16T12:51:34.774Z</time></trkpt><trkpt lat="40.6185933" lon="8.5980533"><ele>175.0</ele><time>2026-04-16T12:51:35.774Z</time></trkpt><trkpt lat="40.6187083" lon="8.5981133"><ele>175.0</ele><time>2026-04-16T12:51:36.774Z</time></trkpt><trkpt lat="40.6188233" lon="8.5981767"><ele>175.0</ele><time>2026-04-16T12:51:37.774Z</time></trkpt><trkpt lat="40.6189283" lon="8.5982183"><ele>175.0</ele><time>2026-04-16T12:51:38.774Z</time></trkpt><trkpt lat="40.6190367" lon="8.5982717"><ele>175.0</ele><time>2026-04-16T12:51:39.774Z</time></trkpt><trkpt lat="40.619145" lon="8.5983433"><ele>175.0</ele><time>2026-04-16T12:51:40.774Z</time></trkpt><trkpt lat="40.6192567" lon="8.59843"><ele>175.0</ele><time>2026-04-16T12:51:41.774Z</time></trkpt><trkpt lat="40.6193667" lon="8.5985367"><ele>175.0</ele><time>2026-04-16T12:51:42.774Z</time></trkpt><trkpt lat="40.61946" lon="8.59866"><ele>175.0</ele><time>2026-04-16T12:51:43.773Z</time></trkpt><trkpt lat="40.6195467" lon="8.598785"><ele>174.6</ele><time>2026-04-16T12:51:44.773Z</time></trkpt><trkpt lat="40.6196267" lon="8.5989067"><ele>174.2</ele><time>2026-04-16T12:51:45.774Z</time></trkpt><trkpt lat="40.619695" lon="8.59902"><ele>173.8</ele><time>2026-04-16T12:51:46.774Z</time></trkpt><trkpt lat="40.6197683" lon="8.5991233"><ele>173.4</ele><time>2026-04-16T12:51:47.774Z</time></trkpt><trkpt lat="40.6198383" lon="8.5992183"><ele>173.0</ele><time>2026-04-16T12:51:48.773Z</time></trkpt><trkpt lat="40.6198967" lon="8.599325"><ele>173.0</ele><time>2026-04-16T12:51:49.773Z</time></trkpt><trkpt lat="40.6199467" lon="8.5994283"><ele>173.0</ele><time>2026-04-16T12:51:50.774Z</time></trkpt><trkpt lat="40.61999" lon="8.599545"><ele>173.0</ele><time>2026-04-16T12:51:51.773Z</time></trkpt><trkpt lat="40.620035" lon="8.599675"><ele>173.0</ele><time>2026-04-16T12:51:52.774Z</time></trkpt><trkpt lat="40.62008" lon="8.5998217"><ele>173.0</ele><time>2026-04-16T12:51:53.773Z</time></trkpt><trkpt lat="40.6201283" lon="8.5999833"><ele>174.25</ele><time>2026-04-16T12:51:54.774Z</time></trkpt><trkpt lat="40.6201833" lon="8.6001467"><ele>175.5</ele><time>2026-04-16T12:51:55.774Z</time></trkpt><trkpt lat="40.620235" lon="8.600325"><ele>176.75</ele><time>2026-04-16T12:51:56.774Z</time></trkpt><trkpt lat="40.6202833" lon="8.6005133"><ele>178.0</ele><time>2026-04-16T12:51:57.774Z</time></trkpt><trkpt lat="40.62032" lon="8.60071"><ele>178.0</ele><time>2026-04-16T12:51:58.773Z</time></trkpt><trkpt lat="40.6203433" lon="8.600915"><ele>178.0</ele><time>2026-04-16T12:51:59.773Z</time></trkpt><trkpt lat="40.620355" lon="8.6011167"><ele>178.0</ele><time>2026-04-16T12:52:00.774Z</time></trkpt><trkpt lat="40.6203533" lon="8.60133"><ele>177.66666666666669</ele><time>2026-04-16T12:52:01.774Z</time></trkpt><trkpt lat="40.62034" lon="8.6015483"><ele>177.33333333333334</ele><time>2026-04-16T12:52:02.774Z</time></trkpt><trkpt lat="40.620315" lon="8.6017533"><ele>177.0</ele><time>2026-04-16T12:52:03.773Z</time></trkpt><trkpt lat="40.62028" lon="8.60196"><ele>180.66666666666666</ele><time>2026-04-16T12:52:04.773Z</time></trkpt><trkpt lat="40.62024" lon="8.6021617"><ele>184.33333333333331</ele><time>2026-04-16T12:52:05.774Z</time></trkpt><trkpt lat="40.620195" lon="8.6023583"><ele>188.0</ele><time>2026-04-16T12:52:06.773Z</time></trkpt><trkpt lat="40.6201517" lon="8.6025433"><ele>188.0</ele><time>2026-04-16T12:52:07.774Z</time></trkpt><trkpt lat="40.6201067" lon="8.60272"><ele>188.0</ele><time>2026-04-16T12:52:08.773Z</time></trkpt><trkpt lat="40.6200533" lon="8.6028833"><ele>188.0</ele><time>2026-04-16T12:52:09.774Z</time></trkpt><trkpt lat="40.6199783" lon="8.60305"><ele>188.0</ele><time>2026-04-16T12:52:10.774Z</time></trkpt><trkpt lat="40.6198867" lon="8.603195"><ele>186.0</ele><time>2026-04-16T12:52:11.774Z</time></trkpt><trkpt lat="40.6197683" lon="8.6033267"><ele>184.0</ele><time>2026-04-16T12:52:12.774Z</time></trkpt><trkpt lat="40.619635" lon="8.6034467"><ele>182.0</ele><time>2026-04-16T12:52:13.774Z</time></trkpt><trkpt lat="40.619485" lon="8.6035617"><ele>179.66666666666666</ele><time>2026-04-16T12:52:14.773Z</time></trkpt><trkpt lat="40.619315" lon="8.6036667"><ele>177.33333333333334</ele><time>2026-04-16T12:52:15.773Z</time></trkpt><trkpt lat="40.619135" lon="8.603775"><ele>175.0</ele><time>2026-04-16T12:52:16.774Z</time></trkpt><trkpt lat="40.61895" lon="8.6038833"><ele>175.0</ele><time>2026-04-16T12:52:17.773Z</time></trkpt><trkpt lat="40.618755" lon="8.604"><ele>175.0</ele><time>2026-04-16T12:52:18.774Z</time></trkpt><trkpt lat="40.6185583" lon="8.60412"><ele>175.0</ele><time>2026-04-16T12:52:19.774Z</time></trkpt><trkpt lat="40.6183533" lon="8.6042383"><ele>173.0</ele><time>2026-04-16T12:52:20.773Z</time></trkpt><trkpt lat="40.6181383" lon="8.6043683"><ele>171.0</ele><time>2026-04-16T12:52:21.774Z</time></trkpt><trkpt lat="40.6179233" lon="8.6044983"><ele>177.0</ele><time>2026-04-16T12:52:22.773Z</time></trkpt><trkpt lat="40.6177033" lon="8.60463"><ele>183.0</ele><time>2026-04-16T12:52:23.773Z</time></trkpt><trkpt lat="40.617485" lon="8.6047533"><ele>183.0</ele><time>2026-04-16T12:52:24.774Z</time></trkpt><trkpt lat="40.61727" lon="8.6048817"><ele>183.0</ele><time>2026-04-16T12:52:25.774Z</time></trkpt><trkpt lat="40.6170633" lon="8.6050083"><ele>185.33333333333334</ele><time>2026-04-16T12:52:26.773Z</time></trkpt><trkpt lat="40.6168567" lon="8.60513"><ele>187.66666666666669</ele><time>2026-04-16T12:52:27.774Z</time></trkpt><trkpt lat="40.61666" lon="8.60525"><ele>190.0</ele><time>2026-04-16T12:52:28.774Z</time></trkpt><trkpt lat="40.6164667" lon="8.6053717"><ele>190.0</ele><time>2026-04-16T12:52:29.774Z</time></trkpt><trkpt lat="40.616275" lon="8.6055083"><ele>190.0</ele><time>2026-04-16T12:52:30.774Z</time></trkpt><trkpt lat="40.616085" lon="8.6056533"><ele>190.0</ele><time>2026-04-16T12:52:31.773Z</time></trkpt><trkpt lat="40.615895" lon="8.6058167"><ele>195.5</ele><time>2026-04-16T12:52:32.774Z</time></trkpt><trkpt lat="40.6157033" lon="8.6059783"><ele>201.0</ele><time>2026-04-16T12:52:33.774Z</time></trkpt><trkpt lat="40.6155067" lon="8.606145"><ele>200.0</ele><time>2026-04-16T12:52:34.773Z</time></trkpt><trkpt lat="40.6153083" lon="8.60631"><ele>199.0</ele><time>2026-04-16T12:52:35.774Z</time></trkpt><trkpt lat="40.6151083" lon="8.6064817"><ele>199.0</ele><time>2026-04-16T12:52:36.774Z</time></trkpt><trkpt lat="40.6149133" lon="8.6066483"><ele>199.0</ele><time>2026-04-16T12:52:37.773Z</time></trkpt><trkpt lat="40.6147217" lon="8.606815"><ele>199.0</ele><time>2026-04-16T12:52:38.773Z</time></trkpt><trkpt lat="40.614535" lon="8.6069817"><ele>199.0</ele><time>2026-04-16T12:52:39.773Z</time></trkpt><trkpt lat="40.6143633" lon="8.6071617"><ele>199.0</ele><time>2026-04-16T12:52:40.773Z</time></trkpt><trkpt lat="40.614195" lon="8.6073533"><ele>199.33333333333331</ele><time>2026-04-16T12:52:41.773Z</time></trkpt><trkpt lat="40.61403" lon="8.6075517"><ele>199.66666666666669</ele><time>2026-04-16T12:52:42.774Z</time></trkpt><trkpt lat="40.613875" lon="8.607755"><ele>200.0</ele><time>2026-04-16T12:52:43.774Z</time></trkpt><trkpt lat="40.6137167" lon="8.6079617"><ele>200.66666666666669</ele><time>2026-04-16T12:52:44.773Z</time></trkpt><trkpt lat="40.6135683" lon="8.60817"><ele>201.33333333333331</ele><time>2026-04-16T12:52:45.774Z</time></trkpt><trkpt lat="40.6134267" lon="8.6083717"><ele>202.0</ele><time>2026-04-16T12:52:46.774Z</time></trkpt><trkpt lat="40.613295" lon="8.6085783"><ele>199.33333333333331</ele><time>2026-04-16T12:52:47.774Z</time></trkpt><trkpt lat="40.6131783" lon="8.6088017"><ele>196.66666666666669</ele><time>2026-04-16T12:52:48.773Z</time></trkpt><trkpt lat="40.6130717" lon="8.60903"><ele>194.0</ele><time>2026-04-16T12:52:49.774Z</time></trkpt><trkpt lat="40.6129667" lon="8.60926"><ele>194.0</ele><time>2026-04-16T12:52:50.773Z</time></trkpt><trkpt lat="40.6128633" lon="8.6094817"><ele>194.0</ele><time>2026-04-16T12:52:51.773Z</time></trkpt><trkpt lat="40.612765" lon="8.609695"><ele>194.0</ele><time>2026-04-16T12:52:52.772Z</time></trkpt><trkpt lat="40.61267" lon="8.6099033"><ele>194.33333333333334</ele><time>2026-04-16T12:52:53.773Z</time></trkpt><trkpt lat="40.6125717" lon="8.6101083"><ele>194.66666666666669</ele><time>2026-04-16T12:52:54.772Z</time></trkpt><trkpt lat="40.6124567" lon="8.610305"><ele>195.0</ele><time>2026-04-16T12:52:55.773Z</time></trkpt><trkpt lat="40.612335" lon="8.6104883"><ele>195.0</ele><time>2026-04-16T12:52:56.772Z</time></trkpt><trkpt lat="40.612215" lon="8.61064"><ele>195.0</ele><time>2026-04-16T12:52:57.773Z</time></trkpt><trkpt lat="40.6121083" lon="8.6107517"><ele>195.0</ele><time>2026-04-16T12:52:58.773Z</time></trkpt><trkpt lat="40.612025" lon="8.6108267"><ele>195.0</ele><time>2026-04-16T12:52:59.773Z</time></trkpt><trkpt lat="40.61195" lon="8.6108567"><ele>197.25</ele><time>2026-04-16T12:53:00.773Z</time></trkpt><trkpt lat="40.6118633" lon="8.6108517"><ele>199.5</ele><time>2026-04-16T12:53:01.773Z</time></trkpt><trkpt lat="40.611755" lon="8.61083"><ele>201.75</ele><time>2026-04-16T12:53:02.773Z</time></trkpt><trkpt lat="40.611625" lon="8.610815"><ele>204.0</ele><time>2026-04-16T12:53:03.773Z</time></trkpt><trkpt lat="40.6114767" lon="8.6108117"><ele>204.0</ele><time>2026-04-16T12:53:04.772Z</time></trkpt><trkpt lat="40.6113367" lon="8.61079"><ele>204.0</ele><time>2026-04-16T12:53:05.772Z</time></trkpt><trkpt lat="40.6112217" lon="8.6107967"><ele>204.0</ele><time>2026-04-16T12:53:06.773Z</time></trkpt><trkpt lat="40.6111117" lon="8.610835"><ele>204.0</ele><time>2026-04-16T12:53:07.772Z</time></trkpt><trkpt lat="40.611015" lon="8.6109033"><ele>205.39999999999998</ele><time>2026-04-16T12:53:08.772Z</time></trkpt><trkpt lat="40.6109433" lon="8.6110083"><ele>206.8</ele><time>2026-04-16T12:53:09.773Z</time></trkpt><trkpt lat="40.6108933" lon="8.61113"><ele>208.2</ele><time>2026-04-16T12:53:10.773Z</time></trkpt><trkpt lat="40.610855" lon="8.61125"><ele>209.60000000000002</ele><time>2026-04-16T12:53:11.772Z</time></trkpt><trkpt lat="40.610815" lon="8.6113317"><ele>211.0</ele><time>2026-04-16T12:53:12.772Z</time></trkpt><trkpt lat="40.6107083" lon="8.611375"><ele>211.0</ele><time>2026-04-16T12:53:14.772Z</time></trkpt><trkpt lat="40.610635" lon="8.61135"><ele>211.0</ele><time>2026-04-16T12:53:15.772Z</time></trkpt><trkpt lat="40.610535" lon="8.6113333"><ele>211.0</ele><time>2026-04-16T12:53:16.773Z</time></trkpt><trkpt lat="40.61043" lon="8.6113433"><ele>211.0</ele><time>2026-04-16T12:53:17.772Z</time></trkpt><trkpt lat="40.610345" lon="8.6113817"><ele>211.0</ele><time>2026-04-16T12:53:18.773Z</time></trkpt><trkpt lat="40.610275" lon="8.61146"><ele>213.25</ele><time>2026-04-16T12:53:19.773Z</time></trkpt><trkpt lat="40.6102067" lon="8.61158"><ele>215.5</ele><time>2026-04-16T12:53:20.773Z</time></trkpt><trkpt lat="40.6101383" lon="8.611725"><ele>217.75</ele><time>2026-04-16T12:53:21.772Z</time></trkpt><trkpt lat="40.61006" lon="8.6118883"><ele>220.0</ele><time>2026-04-16T12:53:22.773Z</time></trkpt><trkpt lat="40.6099783" lon="8.6120417"><ele>220.2</ele><time>2026-04-16T12:53:23.773Z</time></trkpt><trkpt lat="40.6099083" lon="8.61215"><ele>220.4</ele><time>2026-04-16T12:53:24.772Z</time></trkpt><trkpt lat="40.6098383" lon="8.61221"><ele>220.60000000000002</ele><time>2026-04-16T12:53:25.773Z</time></trkpt><trkpt lat="40.609755" lon="8.6122333"><ele>220.8</ele><time>2026-04-16T12:53:26.773Z</time></trkpt><trkpt lat="40.6096517" lon="8.612235"><ele>221.0</ele><time>2026-04-16T12:53:27.772Z</time></trkpt><trkpt lat="40.609525" lon="8.612215"><ele>224.0</ele><time>2026-04-16T12:53:28.772Z</time></trkpt><trkpt lat="40.6093833" lon="8.6121833"><ele>227.0</ele><time>2026-04-16T12:53:29.772Z</time></trkpt><trkpt lat="40.609225" lon="8.612155"><ele>230.0</ele><time>2026-04-16T12:53:30.772Z</time></trkpt><trkpt lat="40.6090617" lon="8.6121383"><ele>230.0</ele><time>2026-04-16T12:53:31.773Z</time></trkpt><trkpt lat="40.60892" lon="8.61212"><ele>230.0</ele><time>2026-04-16T12:53:32.773Z</time></trkpt><trkpt lat="40.6088083" lon="8.6121283"><ele>230.0</ele><time>2026-04-16T12:53:33.773Z</time></trkpt><trkpt lat="40.6087067" lon="8.612175"><ele>230.0</ele><time>2026-04-16T12:53:34.773Z</time></trkpt><trkpt lat="40.6085983" lon="8.6122667"><ele>233.66666666666669</ele><time>2026-04-16T12:53:35.773Z</time></trkpt><trkpt lat="40.60848" lon="8.6123917"><ele>237.33333333333331</ele><time>2026-04-16T12:53:36.773Z</time></trkpt><trkpt lat="40.6083617" lon="8.6125333"><ele>241.0</ele><time>2026-04-16T12:53:37.773Z</time></trkpt><trkpt lat="40.60823" lon="8.6126817"><ele>237.0</ele><time>2026-04-16T12:53:38.773Z</time></trkpt><trkpt lat="40.6081083" lon="8.6128283"><ele>233.0</ele><time>2026-04-16T12:53:39.773Z</time></trkpt><trkpt lat="40.6079817" lon="8.612965"><ele>229.0</ele><time>2026-04-16T12:53:40.772Z</time></trkpt><trkpt lat="40.60787" lon="8.61309"><ele>231.6</ele><time>2026-04-16T12:53:41.772Z</time></trkpt><trkpt lat="40.6077817" lon="8.6131833"><ele>234.2</ele><time>2026-04-16T12:53:42.773Z</time></trkpt><trkpt lat="40.607705" lon="8.6132517"><ele>236.79999999999998</ele><time>2026-04-16T12:53:43.772Z</time></trkpt><trkpt lat="40.60761" lon="8.613285"><ele>239.39999999999998</ele><time>2026-04-16T12:53:44.773Z</time></trkpt><trkpt lat="40.6075017" lon="8.6132983"><ele>242.0</ele><time>2026-04-16T12:53:45.773Z</time></trkpt><trkpt lat="40.607385" lon="8.6133133"><ele>242.0</ele><time>2026-04-16T12:53:46.773Z</time></trkpt><trkpt lat="40.607265" lon="8.6133417"><ele>242.0</ele><time>2026-04-16T12:53:47.772Z</time></trkpt><trkpt lat="40.6071383" lon="8.6133967"><ele>242.0</ele><time>2026-04-16T12:53:48.773Z</time></trkpt><trkpt lat="40.607" lon="8.6134533"><ele>242.0</ele><time>2026-04-16T12:53:49.773Z</time></trkpt><trkpt lat="40.6068483" lon="8.6134917"><ele>246.25</ele><time>2026-04-16T12:53:50.772Z</time></trkpt><trkpt lat="40.6066967" lon="8.6135167"><ele>250.5</ele><time>2026-04-16T12:53:51.773Z</time></trkpt><trkpt lat="40.60655" lon="8.613545"><ele>254.75</ele><time>2026-04-16T12:53:52.773Z</time></trkpt><trkpt lat="40.60641" lon="8.61357"><ele>259.0</ele><time>2026-04-16T12:53:53.773Z</time></trkpt><trkpt lat="40.606275" lon="8.6135817"><ele>262.25</ele><time>2026-04-16T12:53:54.773Z</time></trkpt><trkpt lat="40.6061367" lon="8.6135767"><ele>265.5</ele><time>2026-04-16T12:53:55.773Z</time></trkpt><trkpt lat="40.6059967" lon="8.6135717"><ele>268.75</ele><time>2026-04-16T12:53:56.772Z</time></trkpt><trkpt lat="40.60587" lon="8.6135867"><ele>272.0</ele><time>2026-04-16T12:53:57.773Z</time></trkpt><trkpt lat="40.605745" lon="8.6136167"><ele>269.5</ele><time>2026-04-16T12:53:58.772Z</time></trkpt><trkpt lat="40.6056167" lon="8.6136667"><ele>267.0</ele><time>2026-04-16T12:53:59.773Z</time></trkpt><trkpt lat="40.6054883" lon="8.6137217"><ele>264.5</ele><time>2026-04-16T12:54:00.773Z</time></trkpt><trkpt lat="40.60536" lon="8.6137783"><ele>262.0</ele><time>2026-04-16T12:54:01.773Z</time></trkpt><trkpt lat="40.605235" lon="8.6138317"><ele>262.0</ele><time>2026-04-16T12:54:02.772Z</time></trkpt><trkpt lat="40.60511" lon="8.6139"><ele>262.0</ele><time>2026-04-16T12:54:03.773Z</time></trkpt><trkpt lat="40.6049867" lon="8.6139467"><ele>262.0</ele><time>2026-04-16T12:54:04.773Z</time></trkpt><trkpt lat="40.604865" lon="8.6139733"><ele>262.0</ele><time>2026-04-16T12:54:05.772Z</time></trkpt><trkpt lat="40.604745" lon="8.61399"><ele>262.0</ele><time>2026-04-16T12:54:06.773Z</time></trkpt><trkpt lat="40.6046267" lon="8.6140033"><ele>262.0</ele><time>2026-04-16T12:54:07.773Z</time></trkpt><trkpt lat="40.6045017" lon="8.613995"><ele>262.0</ele><time>2026-04-16T12:54:08.773Z</time></trkpt><trkpt lat="40.60437" lon="8.6139867"><ele>262.0</ele><time>2026-04-16T12:54:09.772Z</time></trkpt><trkpt lat="40.604235" lon="8.6139833"><ele>264.5</ele><time>2026-04-16T12:54:10.773Z</time></trkpt><trkpt lat="40.6040967" lon="8.6139783"><ele>267.0</ele><time>2026-04-16T12:54:11.772Z</time></trkpt><trkpt lat="40.6039617" lon="8.61398"><ele>269.5</ele><time>2026-04-16T12:54:12.773Z</time></trkpt><trkpt lat="40.60383" lon="8.6139933"><ele>272.0</ele><time>2026-04-16T12:54:13.772Z</time></trkpt><trkpt lat="40.6036983" lon="8.6140233"><ele>276.25</ele><time>2026-04-16T12:54:14.773Z</time></trkpt><trkpt lat="40.6035683" lon="8.614075"><ele>280.5</ele><time>2026-04-16T12:54:15.773Z</time></trkpt><trkpt lat="40.6034583" lon="8.6141333"><ele>284.75</ele><time>2026-04-16T12:54:16.773Z</time></trkpt><trkpt lat="40.6033667" lon="8.614205"><ele>289.0</ele><time>2026-04-16T12:54:17.772Z</time></trkpt><trkpt lat="40.6032883" lon="8.6143017"><ele>289.0</ele><time>2026-04-16T12:54:18.773Z</time></trkpt><trkpt lat="40.6032083" lon="8.6144267"><ele>289.0</ele><time>2026-04-16T12:54:19.773Z</time></trkpt><trkpt lat="40.6031233" lon="8.6145533"><ele>289.0</ele><time>2026-04-16T12:54:20.773Z</time></trkpt><trkpt lat="40.60304" lon="8.6146917"><ele>289.0</ele><time>2026-04-16T12:54:21.773Z</time></trkpt><trkpt lat="40.6029517" lon="8.61481"><ele>289.59999999999997</ele><time>2026-04-16T12:54:22.772Z</time></trkpt><trkpt lat="40.6028767" lon="8.61491"><ele>290.2</ele><time>2026-04-16T12:54:23.773Z</time></trkpt><trkpt lat="40.6028" lon="8.6149717"><ele>290.79999999999995</ele><time>2026-04-16T12:54:24.773Z</time></trkpt><trkpt lat="40.602695" lon="8.6149517"><ele>291.4</ele><time>2026-04-16T12:54:26.772Z</time></trkpt><trkpt lat="40.6026033" lon="8.6148067"><ele>292.0</ele><time>2026-04-16T12:54:28.773Z</time></trkpt><trkpt lat="40.6025367" lon="8.6147117"><ele>292.0</ele><time>2026-04-16T12:54:29.772Z</time></trkpt><trkpt lat="40.6024617" lon="8.6146417"><ele>292.0</ele><time>2026-04-16T12:54:30.773Z</time></trkpt><trkpt lat="40.602375" lon="8.61461"><ele>292.0</ele><time>2026-04-16T12:54:31.773Z</time></trkpt><trkpt lat="40.6022767" lon="8.61462"><ele>292.0</ele><time>2026-04-16T12:54:32.772Z</time></trkpt><trkpt lat="40.6021717" lon="8.614665"><ele>292.0</ele><time>2026-04-16T12:54:33.773Z</time></trkpt><trkpt lat="40.6020717" lon="8.6147033"><ele>293.25</ele><time>2026-04-16T12:54:34.772Z</time></trkpt><trkpt lat="40.60197" lon="8.6147267"><ele>294.5</ele><time>2026-04-16T12:54:35.773Z</time></trkpt><trkpt lat="40.60186" lon="8.6147117"><ele>295.75</ele><time>2026-04-16T12:54:36.773Z</time></trkpt><trkpt lat="40.6017467" lon="8.6146817"><ele>297.0</ele><time>2026-04-16T12:54:37.772Z</time></trkpt><trkpt lat="40.6016267" lon="8.6146433"><ele>297.0</ele><time>2026-04-16T12:54:38.772Z</time></trkpt><trkpt lat="40.6014967" lon="8.614605"><ele>297.0</ele><time>2026-04-16T12:54:39.773Z</time></trkpt><trkpt lat="40.6013683" lon="8.6145683"><ele>297.0</ele><time>2026-04-16T12:54:40.772Z</time></trkpt><trkpt lat="40.6012433" lon="8.61454"><ele>297.0</ele><time>2026-04-16T12:54:41.772Z</time></trkpt><trkpt lat="40.6011417" lon="8.61453"><ele>298.6</ele><time>2026-04-16T12:54:42.773Z</time></trkpt><trkpt lat="40.60106" lon="8.614555"><ele>300.2</ele><time>2026-04-16T12:54:43.772Z</time></trkpt><trkpt lat="40.6009883" lon="8.6146117"><ele>301.8</ele><time>2026-04-16T12:54:44.773Z</time></trkpt><trkpt lat="40.6009217" lon="8.61471"><ele>303.4</ele><time>2026-04-16T12:54:45.773Z</time></trkpt><trkpt lat="40.60086" lon="8.61483"><ele>305.0</ele><time>2026-04-16T12:54:46.773Z</time></trkpt><trkpt lat="40.600785" lon="8.61494"><ele>305.0</ele><time>2026-04-16T12:54:47.772Z</time></trkpt><trkpt lat="40.60069" lon="8.6150017"><ele>305.0</ele><time>2026-04-16T12:54:48.772Z</time></trkpt><trkpt lat="40.600585" lon="8.6150267"><ele>305.0</ele><time>2026-04-16T12:54:49.773Z</time></trkpt><trkpt lat="40.600465" lon="8.6150233"><ele>305.0</ele><time>2026-04-16T12:54:50.772Z</time></trkpt><trkpt lat="40.6003283" lon="8.615015"><ele>305.75</ele><time>2026-04-16T12:54:51.772Z</time></trkpt><trkpt lat="40.6001783" lon="8.6150083"><ele>306.5</ele><time>2026-04-16T12:54:52.773Z</time></trkpt><trkpt lat="40.6000317" lon="8.6150033"><ele>307.25</ele><time>2026-04-16T12:54:53.773Z</time></trkpt><trkpt lat="40.5999033" lon="8.615005"><ele>308.0</ele><time>2026-04-16T12:54:54.772Z</time></trkpt><trkpt lat="40.5997883" lon="8.6150317"><ele>308.0</ele><time>2026-04-16T12:54:55.773Z</time></trkpt><trkpt lat="40.5996783" lon="8.6150967"><ele>308.0</ele><time>2026-04-16T12:54:56.773Z</time></trkpt><trkpt lat="40.5995767" lon="8.6151817"><ele>308.0</ele><time>2026-04-16T12:54:57.772Z</time></trkpt><trkpt lat="40.5994683" lon="8.6152433"><ele>308.0</ele><time>2026-04-16T12:54:58.773Z</time></trkpt><trkpt lat="40.59935" lon="8.6153"><ele>303.25</ele><time>2026-04-16T12:54:59.773Z</time></trkpt><trkpt lat="40.5992133" lon="8.6153483"><ele>298.5</ele><time>2026-04-16T12:55:00.772Z</time></trkpt><trkpt lat="40.599075" lon="8.6154017"><ele>293.75</ele><time>2026-04-16T12:55:01.772Z</time></trkpt><trkpt lat="40.598945" lon="8.6154517"><ele>289.0</ele><time>2026-04-16T12:55:02.773Z</time></trkpt><trkpt lat="40.598825" lon="8.6154967"><ele>289.0</ele><time>2026-04-16T12:55:03.772Z</time></trkpt><trkpt lat="40.5987067" lon="8.61552"><ele>289.0</ele><time>2026-04-16T12:55:04.772Z</time></trkpt><trkpt lat="40.5985833" lon="8.6155183"><ele>289.0</ele><time>2026-04-16T12:55:05.773Z</time></trkpt><trkpt lat="40.5984667" lon="8.6154883"><ele>289.0</ele><time>2026-04-16T12:55:06.773Z</time></trkpt><trkpt lat="40.598365" lon="8.61544"><ele>289.3333333333333</ele><time>2026-04-16T12:55:07.773Z</time></trkpt><trkpt lat="40.5982767" lon="8.6153967"><ele>289.66666666666663</ele><time>2026-04-16T12:55:08.773Z</time></trkpt><trkpt lat="40.5981983" lon="8.6153817"><ele>290.0</ele><time>2026-04-16T12:55:09.772Z</time></trkpt><trkpt lat="40.5981267" lon="8.6154033"><ele>290.3333333333333</ele><time>2026-04-16T12:55:10.772Z</time></trkpt><trkpt lat="40.5980617" lon="8.6154617"><ele>290.6666666666667</ele><time>2026-04-16T12:55:11.773Z</time></trkpt><trkpt lat="40.59801" lon="8.6155333"><ele>291.0</ele><time>2026-04-16T12:55:12.773Z</time></trkpt><trkpt lat="40.5980033" lon="8.615695"><ele>291.0</ele><time>2026-04-16T12:55:14.773Z</time></trkpt><trkpt lat="40.5980333" lon="8.6157717"><ele>291.0</ele><time>2026-04-16T12:55:15.773Z</time></trkpt><trkpt lat="40.5980717" lon="8.615855"><ele>291.0</ele><time>2026-04-16T12:55:16.773Z</time></trkpt><trkpt lat="40.5980967" lon="8.6159533"><ele>291.0</ele><time>2026-04-16T12:55:17.773Z</time></trkpt><trkpt lat="40.5980917" lon="8.61605"><ele>291.0</ele><time>2026-04-16T12:55:18.772Z</time></trkpt><trkpt lat="40.5980617" lon="8.6161267"><ele>291.0</ele><time>2026-04-16T12:55:19.772Z</time></trkpt><trkpt lat="40.5980133" lon="8.6161917"><ele>291.0</ele><time>2026-04-16T12:55:20.771Z</time></trkpt><trkpt lat="40.5979367" lon="8.6162683"><ele>291.0</ele><time>2026-04-16T12:55:21.771Z</time></trkpt><trkpt lat="40.59785" lon="8.61636"><ele>291.0</ele><time>2026-04-16T12:55:22.771Z</time></trkpt><trkpt lat="40.5977517" lon="8.616465"><ele>291.0</ele><time>2026-04-16T12:55:23.771Z</time></trkpt><trkpt lat="40.59765" lon="8.6165867"><ele>291.0</ele><time>2026-04-16T12:55:24.772Z</time></trkpt><trkpt lat="40.5975333" lon="8.616725"><ele>291.0</ele><time>2026-04-16T12:55:25.772Z</time></trkpt><trkpt lat="40.597415" lon="8.61687"><ele>291.0</ele><time>2026-04-16T12:55:26.771Z</time></trkpt><trkpt lat="40.5972867" lon="8.61702"><ele>291.0</ele><time>2026-04-16T12:55:27.772Z</time></trkpt><trkpt lat="40.5971467" lon="8.61718"><ele>288.6666666666667</ele><time>2026-04-16T12:55:28.772Z</time></trkpt><trkpt lat="40.5970017" lon="8.6173467"><ele>286.33333333333337</ele><time>2026-04-16T12:55:29.771Z</time></trkpt><trkpt lat="40.5968517" lon="8.6175167"><ele>284.0</ele><time>2026-04-16T12:55:30.772Z</time></trkpt><trkpt lat="40.5967017" lon="8.6176933"><ele>282.33333333333337</ele><time>2026-04-16T12:55:31.772Z</time></trkpt><trkpt lat="40.5965467" lon="8.6178617"><ele>280.6666666666667</ele><time>2026-04-16T12:55:32.771Z</time></trkpt><trkpt lat="40.5963983" lon="8.6180333"><ele>279.0</ele><time>2026-04-16T12:55:33.772Z</time></trkpt><trkpt lat="40.5962467" lon="8.61821"><ele>278.3333333333333</ele><time>2026-04-16T12:55:34.772Z</time></trkpt><trkpt lat="40.5960967" lon="8.6183917"><ele>277.66666666666663</ele><time>2026-04-16T12:55:35.771Z</time></trkpt><trkpt lat="40.5959483" lon="8.6185633"><ele>277.0</ele><time>2026-04-16T12:55:36.772Z</time></trkpt><trkpt lat="40.5957983" lon="8.6187367"><ele>277.0</ele><time>2026-04-16T12:55:37.772Z</time></trkpt><trkpt lat="40.5956583" lon="8.6188967"><ele>277.0</ele><time>2026-04-16T12:55:38.772Z</time></trkpt><trkpt lat="40.5955183" lon="8.6190617"><ele>277.0</ele><time>2026-04-16T12:55:39.771Z</time></trkpt><trkpt lat="40.59538" lon="8.6192233"><ele>277.66666666666663</ele><time>2026-04-16T12:55:40.772Z</time></trkpt><trkpt lat="40.59523" lon="8.61939"><ele>278.3333333333333</ele><time>2026-04-16T12:55:41.771Z</time></trkpt><trkpt lat="40.5950783" lon="8.619565"><ele>279.0</ele><time>2026-04-16T12:55:42.771Z</time></trkpt><trkpt lat="40.5949383" lon="8.6197283"><ele>279.0</ele><time>2026-04-16T12:55:43.771Z</time></trkpt><trkpt lat="40.5948067" lon="8.6198833"><ele>279.0</ele><time>2026-04-16T12:55:44.772Z</time></trkpt><trkpt lat="40.5946683" lon="8.6200467"><ele>279.0</ele><time>2026-04-16T12:55:45.772Z</time></trkpt><trkpt lat="40.5945283" lon="8.62021"><ele>279.6666666666667</ele><time>2026-04-16T12:55:46.772Z</time></trkpt><trkpt lat="40.594385" lon="8.620375"><ele>280.33333333333337</ele><time>2026-04-16T12:55:47.771Z</time></trkpt><trkpt lat="40.594245" lon="8.6205317"><ele>281.0</ele><time>2026-04-16T12:55:48.771Z</time></trkpt><trkpt lat="40.5941233" lon="8.6206767"><ele>281.0</ele><time>2026-04-16T12:55:49.771Z</time></trkpt><trkpt lat="40.5940083" lon="8.6208033"><ele>281.0</ele><time>2026-04-16T12:55:50.771Z</time></trkpt><trkpt lat="40.5938933" lon="8.6209167"><ele>281.0</ele><time>2026-04-16T12:55:51.772Z</time></trkpt><trkpt lat="40.5937617" lon="8.6210217"><ele>281.0</ele><time>2026-04-16T12:55:52.771Z</time></trkpt><trkpt lat="40.5936183" lon="8.6211267"><ele>282.0</ele><time>2026-04-16T12:55:53.771Z</time></trkpt><trkpt lat="40.593475" lon="8.6212417"><ele>283.0</ele><time>2026-04-16T12:55:54.772Z</time></trkpt><trkpt lat="40.5933367" lon="8.6213483"><ele>284.0</ele><time>2026-04-16T12:55:55.771Z</time></trkpt><trkpt lat="40.5932167" lon="8.621455"><ele>284.0</ele><time>2026-04-16T12:55:56.772Z</time></trkpt><trkpt lat="40.5931133" lon="8.6215667"><ele>284.0</ele><time>2026-04-16T12:55:57.771Z</time></trkpt><trkpt lat="40.59304" lon="8.6216933"><ele>284.0</ele><time>2026-04-16T12:55:58.772Z</time></trkpt><trkpt lat="40.5929717" lon="8.6218417"><ele>284.0</ele><time>2026-04-16T12:55:59.772Z</time></trkpt><trkpt lat="40.592895" lon="8.622005"><ele>289.0</ele><time>2026-04-16T12:56:00.771Z</time></trkpt><trkpt lat="40.5928017" lon="8.6221833"><ele>294.0</ele><time>2026-04-16T12:56:01.772Z</time></trkpt><trkpt lat="40.592705" lon="8.6223633"><ele>299.0</ele><time>2026-04-16T12:56:02.771Z</time></trkpt><trkpt lat="40.5926183" lon="8.6225267"><ele>299.0</ele><time>2026-04-16T12:56:03.771Z</time></trkpt><trkpt lat="40.5925467" lon="8.6226867"><ele>299.0</ele><time>2026-04-16T12:56:04.771Z</time></trkpt><trkpt lat="40.5924833" lon="8.6228617"><ele>299.0</ele><time>2026-04-16T12:56:05.772Z</time></trkpt><trkpt lat="40.5924117" lon="8.62305"><ele>299.0</ele><time>2026-04-16T12:56:06.772Z</time></trkpt><trkpt lat="40.5923367" lon="8.6232633"><ele>293.6666666666667</ele><time>2026-04-16T12:56:07.772Z</time></trkpt><trkpt lat="40.592255" lon="8.623495"><ele>288.3333333333333</ele><time>2026-04-16T12:56:08.772Z</time></trkpt><trkpt lat="40.592165" lon="8.62374"><ele>283.0</ele><time>2026-04-16T12:56:09.771Z</time></trkpt><trkpt lat="40.5920683" lon="8.6240017"><ele>283.66666666666663</ele><time>2026-04-16T12:56:10.771Z</time></trkpt><trkpt lat="40.5919667" lon="8.6242667"><ele>284.3333333333333</ele><time>2026-04-16T12:56:11.772Z</time></trkpt><trkpt lat="40.5918683" lon="8.6245317"><ele>285.0</ele><time>2026-04-16T12:56:12.771Z</time></trkpt><trkpt lat="40.5917733" lon="8.6247883"><ele>285.0</ele><time>2026-04-16T12:56:13.772Z</time></trkpt><trkpt lat="40.5916767" lon="8.62503"><ele>285.0</ele><time>2026-04-16T12:56:14.771Z</time></trkpt><trkpt lat="40.5915933" lon="8.6252517"><ele>285.0</ele><time>2026-04-16T12:56:15.771Z</time></trkpt><trkpt lat="40.5915117" lon="8.62546"><ele>282.75</ele><time>2026-04-16T12:56:16.772Z</time></trkpt><trkpt lat="40.591435" lon="8.62565"><ele>280.5</ele><time>2026-04-16T12:56:17.772Z</time></trkpt><trkpt lat="40.591375" lon="8.6258283"><ele>278.25</ele><time>2026-04-16T12:56:18.771Z</time></trkpt><trkpt lat="40.5913167" lon="8.6259817"><ele>276.0</ele><time>2026-04-16T12:56:19.771Z</time></trkpt><trkpt lat="40.591265" lon="8.6261083"><ele>277.5</ele><time>2026-04-16T12:56:20.771Z</time></trkpt><trkpt lat="40.59122" lon="8.6261967"><ele>279.0</ele><time>2026-04-16T12:56:21.772Z</time></trkpt><trkpt lat="40.5911783" lon="8.62626"><ele>280.5</ele><time>2026-04-16T12:56:22.772Z</time></trkpt><trkpt lat="40.591075" lon="8.6263283"><ele>282.0</ele><time>2026-04-16T12:56:24.771Z</time></trkpt><trkpt lat="40.591005" lon="8.626365"><ele>283.5</ele><time>2026-04-16T12:56:25.771Z</time></trkpt><trkpt lat="40.590915" lon="8.6264017"><ele>285.0</ele><time>2026-04-16T12:56:26.771Z</time></trkpt><trkpt lat="40.5908117" lon="8.626445"><ele>285.0</ele><time>2026-04-16T12:56:27.772Z</time></trkpt><trkpt lat="40.5907083" lon="8.626495"><ele>285.0</ele><time>2026-04-16T12:56:28.772Z</time></trkpt><trkpt lat="40.5906117" lon="8.626535"><ele>285.0</ele><time>2026-04-16T12:56:29.772Z</time></trkpt><trkpt lat="40.590535" lon="8.6265833"><ele>285.0</ele><time>2026-04-16T12:56:30.772Z</time></trkpt><trkpt lat="40.59048" lon="8.6266417"><ele>285.0</ele><time>2026-04-16T12:56:31.772Z</time></trkpt><trkpt lat="40.5904383" lon="8.6267167"><ele>285.0</ele><time>2026-04-16T12:56:32.771Z</time></trkpt><trkpt lat="40.590425" lon="8.62682"><ele>285.0</ele><time>2026-04-16T12:56:33.772Z</time></trkpt><trkpt lat="40.59044" lon="8.6269317"><ele>285.0</ele><time>2026-04-16T12:56:34.771Z</time></trkpt><trkpt lat="40.5904683" lon="8.62705"><ele>285.0</ele><time>2026-04-16T12:56:35.772Z</time></trkpt><trkpt lat="40.5904983" lon="8.6271683"><ele>285.0</ele><time>2026-04-16T12:56:36.771Z</time></trkpt><trkpt lat="40.590535" lon="8.6272967"><ele>285.0</ele><time>2026-04-16T12:56:37.772Z</time></trkpt><trkpt lat="40.59058" lon="8.6274283"><ele>282.8</ele><time>2026-04-16T12:56:38.771Z</time></trkpt><trkpt lat="40.5906217" lon="8.6275617"><ele>280.6</ele><time>2026-04-16T12:56:39.772Z</time></trkpt><trkpt lat="40.590665" lon="8.627675"><ele>278.4</ele><time>2026-04-16T12:56:40.772Z</time></trkpt><trkpt lat="40.5906767" lon="8.6277717"><ele>276.2</ele><time>2026-04-16T12:56:41.772Z</time></trkpt><trkpt lat="40.590665" lon="8.6278733"><ele>274.0</ele><time>2026-04-16T12:56:42.771Z</time></trkpt><trkpt lat="40.59063" lon="8.62799"><ele>273.0</ele><time>2026-04-16T12:56:43.772Z</time></trkpt><trkpt lat="40.59059" lon="8.62812"><ele>272.0</ele><time>2026-04-16T12:56:44.771Z</time></trkpt><trkpt lat="40.5905467" lon="8.628255"><ele>271.0</ele><time>2026-04-16T12:56:45.771Z</time></trkpt><trkpt lat="40.5904933" lon="8.6284067"><ele>270.0</ele><time>2026-04-16T12:56:46.771Z</time></trkpt><trkpt lat="40.590435" lon="8.628565"><ele>266.6666666666667</ele><time>2026-04-16T12:56:47.771Z</time></trkpt><trkpt lat="40.5903717" lon="8.6287333"><ele>263.33333333333337</ele><time>2026-04-16T12:56:48.771Z</time></trkpt><trkpt lat="40.5903" lon="8.62892"><ele>260.0</ele><time>2026-04-16T12:56:49.772Z</time></trkpt><trkpt lat="40.5902283" lon="8.6291183"><ele>272.33333333333337</ele><time>2026-04-16T12:56:50.772Z</time></trkpt><trkpt lat="40.590155" lon="8.6293217"><ele>284.6666666666667</ele><time>2026-04-16T12:56:51.772Z</time></trkpt><trkpt lat="40.590075" lon="8.629535"><ele>297.0</ele><time>2026-04-16T12:56:52.772Z</time></trkpt><trkpt lat="40.5899967" lon="8.62975"><ele>297.0</ele><time>2026-04-16T12:56:53.772Z</time></trkpt><trkpt lat="40.5899233" lon="8.62996"><ele>297.0</ele><time>2026-04-16T12:56:54.772Z</time></trkpt><trkpt lat="40.589855" lon="8.630165"><ele>297.0</ele><time>2026-04-16T12:56:55.771Z</time></trkpt><trkpt lat="40.5897867" lon="8.6303517"><ele>294.25</ele><time>2026-04-16T12:56:56.772Z</time></trkpt><trkpt lat="40.5897217" lon="8.6305183"><ele>291.5</ele><time>2026-04-16T12:56:57.772Z</time></trkpt><trkpt lat="40.5896583" lon="8.6306717"><ele>288.75</ele><time>2026-04-16T12:56:58.772Z</time></trkpt><trkpt lat="40.5896067" lon="8.6308383"><ele>286.0</ele><time>2026-04-16T12:56:59.772Z</time></trkpt><trkpt lat="40.58956" lon="8.6310233"><ele>294.0</ele><time>2026-04-16T12:57:00.771Z</time></trkpt><trkpt lat="40.5895067" lon="8.6312233"><ele>302.0</ele><time>2026-04-16T12:57:01.772Z</time></trkpt><trkpt lat="40.5894533" lon="8.6314333"><ele>310.0</ele><time>2026-04-16T12:57:02.771Z</time></trkpt><trkpt lat="40.5894" lon="8.631645"><ele>310.0</ele><time>2026-04-16T12:57:03.772Z</time></trkpt><trkpt lat="40.58935" lon="8.6318683"><ele>310.0</ele><time>2026-04-16T12:57:04.772Z</time></trkpt><trkpt lat="40.5893" lon="8.632085"><ele>310.0</ele><time>2026-04-16T12:57:05.772Z</time></trkpt><trkpt lat="40.5892433" lon="8.6322917"><ele>308.66666666666663</ele><time>2026-04-16T12:57:06.772Z</time></trkpt><trkpt lat="40.589185" lon="8.632485"><ele>307.3333333333333</ele><time>2026-04-16T12:57:07.771Z</time></trkpt><trkpt lat="40.5891283" lon="8.6326717"><ele>306.0</ele><time>2026-04-16T12:57:08.771Z</time></trkpt><trkpt lat="40.5890733" lon="8.63285"><ele>304.5</ele><time>2026-04-16T12:57:09.771Z</time></trkpt><trkpt lat="40.589025" lon="8.6330267"><ele>303.0</ele><time>2026-04-16T12:57:10.772Z</time></trkpt><trkpt lat="40.5889783" lon="8.6332083"><ele>301.5</ele><time>2026-04-16T12:57:11.772Z</time></trkpt><trkpt lat="40.588925" lon="8.6333833"><ele>300.0</ele><time>2026-04-16T12:57:12.772Z</time></trkpt><trkpt lat="40.588865" lon="8.6335617"><ele>298.25</ele><time>2026-04-16T12:57:13.772Z</time></trkpt><trkpt lat="40.588805" lon="8.633745"><ele>296.5</ele><time>2026-04-16T12:57:14.771Z</time></trkpt><trkpt lat="40.58875" lon="8.6339233"><ele>294.75</ele><time>2026-04-16T12:57:15.771Z</time></trkpt><trkpt lat="40.5887017" lon="8.634095"><ele>293.0</ele><time>2026-04-16T12:57:16.772Z</time></trkpt><trkpt lat="40.5886583" lon="8.6342733"><ele>300.25</ele><time>2026-04-16T12:57:17.772Z</time></trkpt><trkpt lat="40.588625" lon="8.6344583"><ele>307.5</ele><time>2026-04-16T12:57:18.771Z</time></trkpt><trkpt lat="40.58859" lon="8.63464"><ele>314.75</ele><time>2026-04-16T12:57:19.772Z</time></trkpt><trkpt lat="40.5885567" lon="8.6348283"><ele>322.0</ele><time>2026-04-16T12:57:20.771Z</time></trkpt><trkpt lat="40.58852" lon="8.6350167"><ele>322.0</ele><time>2026-04-16T12:57:21.772Z</time></trkpt><trkpt lat="40.58847" lon="8.6352"><ele>322.0</ele><time>2026-04-16T12:57:22.772Z</time></trkpt><trkpt lat="40.5884133" lon="8.635375"><ele>322.0</ele><time>2026-04-16T12:57:23.772Z</time></trkpt><trkpt lat="40.588355" lon="8.6355567"><ele>322.0</ele><time>2026-04-16T12:57:24.772Z</time></trkpt><trkpt lat="40.5883083" lon="8.6357517"><ele>320.75</ele><time>2026-04-16T12:57:25.772Z</time></trkpt><trkpt lat="40.5882717" lon="8.6359433"><ele>319.5</ele><time>2026-04-16T12:57:26.772Z</time></trkpt><trkpt lat="40.5882317" lon="8.6361167"><ele>318.25</ele><time>2026-04-16T12:57:27.772Z</time></trkpt><trkpt lat="40.5881883" lon="8.6362817"><ele>317.0</ele><time>2026-04-16T12:57:28.772Z</time></trkpt><trkpt lat="40.5881267" lon="8.636445"><ele>314.2</ele><time>2026-04-16T12:57:29.771Z</time></trkpt><trkpt lat="40.5880683" lon="8.6366"><ele>311.4</ele><time>2026-04-16T12:57:30.772Z</time></trkpt><trkpt lat="40.5880233" lon="8.636725"><ele>308.6</ele><time>2026-04-16T12:57:31.772Z</time></trkpt><trkpt lat="40.58798" lon="8.6368267"><ele>305.8</ele><time>2026-04-16T12:57:32.771Z</time></trkpt><trkpt lat="40.5879283" lon="8.636905"><ele>303.0</ele><time>2026-04-16T12:57:33.772Z</time></trkpt><trkpt lat="40.5878633" lon="8.6369833"><ele>304.6</ele><time>2026-04-16T12:57:34.772Z</time></trkpt><trkpt lat="40.5877867" lon="8.6370667"><ele>306.20000000000005</ele><time>2026-04-16T12:57:35.772Z</time></trkpt><trkpt lat="40.58771" lon="8.6371767"><ele>307.8</ele><time>2026-04-16T12:57:36.772Z</time></trkpt><trkpt lat="40.5876417" lon="8.6373033"><ele>309.40000000000003</ele><time>2026-04-16T12:57:37.771Z</time></trkpt><trkpt lat="40.58758" lon="8.637425"><ele>311.0</ele><time>2026-04-16T12:57:38.772Z</time></trkpt><trkpt lat="40.5875217" lon="8.6375267"><ele>311.0</ele><time>2026-04-16T12:57:39.771Z</time></trkpt><trkpt lat="40.587465" lon="8.6376167"><ele>311.0</ele><time>2026-04-16T12:57:40.771Z</time></trkpt><trkpt lat="40.5873883" lon="8.6377067"><ele>311.0</ele><time>2026-04-16T12:57:41.771Z</time></trkpt><trkpt lat="40.5872983" lon="8.6377967"><ele>311.0</ele><time>2026-04-16T12:57:42.772Z</time></trkpt><trkpt lat="40.5871967" lon="8.6378967"><ele>311.0</ele><time>2026-04-16T12:57:43.772Z</time></trkpt><trkpt lat="40.58709" lon="8.6380067"><ele>308.5</ele><time>2026-04-16T12:57:44.771Z</time></trkpt><trkpt lat="40.586985" lon="8.63811"><ele>306.0</ele><time>2026-04-16T12:57:45.771Z</time></trkpt><trkpt lat="40.586885" lon="8.63821"><ele>303.5</ele><time>2026-04-16T12:57:46.772Z</time></trkpt><trkpt lat="40.5868033" lon="8.63831"><ele>301.0</ele><time>2026-04-16T12:57:47.772Z</time></trkpt><trkpt lat="40.5867267" lon="8.6383967"><ele>301.0</ele><time>2026-04-16T12:57:48.772Z</time></trkpt><trkpt lat="40.58666" lon="8.63846"><ele>301.0</ele><time>2026-04-16T12:57:49.771Z</time></trkpt><trkpt lat="40.5865917" lon="8.6384983"><ele>301.0</ele><time>2026-04-16T12:57:50.772Z</time></trkpt><trkpt lat="40.586515" lon="8.6384917"><ele>301.0</ele><time>2026-04-16T12:57:51.771Z</time></trkpt><trkpt lat="40.5864267" lon="8.6384483"><ele>301.0</ele><time>2026-04-16T12:57:52.772Z</time></trkpt><trkpt lat="40.5863267" lon="8.6383617"><ele>301.0</ele><time>2026-04-16T12:57:53.771Z</time></trkpt><trkpt lat="40.586215" lon="8.63826"><ele>298.25</ele><time>2026-04-16T12:57:54.771Z</time></trkpt><trkpt lat="40.5860917" lon="8.6381633"><ele>295.5</ele><time>2026-04-16T12:57:55.771Z</time></trkpt><trkpt lat="40.5859733" lon="8.638075"><ele>292.75</ele><time>2026-04-16T12:57:56.771Z</time></trkpt><trkpt lat="40.5858667" lon="8.638"><ele>290.0</ele><time>2026-04-16T12:57:57.77Z</time></trkpt><trkpt lat="40.5857733" lon="8.6379383"><ele>290.0</ele><time>2026-04-16T12:57:58.771Z</time></trkpt><trkpt lat="40.5856833" lon="8.6379033"><ele>290.0</ele><time>2026-04-16T12:57:59.771Z</time></trkpt><trkpt lat="40.5855833" lon="8.6378783"><ele>290.0</ele><time>2026-04-16T12:58:00.771Z</time></trkpt><trkpt lat="40.5854717" lon="8.63785"><ele>290.0</ele><time>2026-04-16T12:58:01.771Z</time></trkpt><trkpt lat="40.5853633" lon="8.6378167"><ele>290.0</ele><time>2026-04-16T12:58:02.77Z</time></trkpt><trkpt lat="40.585265" lon="8.6377933"><ele>290.8</ele><time>2026-04-16T12:58:03.771Z</time></trkpt><trkpt lat="40.5851817" lon="8.6377783"><ele>291.6</ele><time>2026-04-16T12:58:04.77Z</time></trkpt><trkpt lat="40.5850783" lon="8.6378067"><ele>292.4</ele><time>2026-04-16T12:58:06.771Z</time></trkpt><trkpt lat="40.58504" lon="8.6379217"><ele>293.2</ele><time>2026-04-16T12:58:08.771Z</time></trkpt><trkpt lat="40.5850283" lon="8.63803"><ele>294.0</ele><time>2026-04-16T12:58:11.771Z</time></trkpt><trkpt lat="40.5850167" lon="8.6381817"><ele>294.0</ele><time>2026-04-16T12:58:13.77Z</time></trkpt><trkpt lat="40.5850333" lon="8.6382817"><ele>294.0</ele><time>2026-04-16T12:58:14.77Z</time></trkpt><trkpt lat="40.5850767" lon="8.6383883"><ele>294.0</ele><time>2026-04-16T12:58:15.77Z</time></trkpt><trkpt lat="40.5851317" lon="8.6384933"><ele>294.0</ele><time>2026-04-16T12:58:16.771Z</time></trkpt><trkpt lat="40.5851733" lon="8.638605"><ele>294.0</ele><time>2026-04-16T12:58:17.771Z</time></trkpt><trkpt lat="40.5852083" lon="8.6387217"><ele>295.2</ele><time>2026-04-16T12:58:18.771Z</time></trkpt><trkpt lat="40.585225" lon="8.6388533"><ele>296.4</ele><time>2026-04-16T12:58:19.771Z</time></trkpt><trkpt lat="40.5852283" lon="8.6390067"><ele>297.6</ele><time>2026-04-16T12:58:20.771Z</time></trkpt><trkpt lat="40.585235" lon="8.6391733"><ele>298.8</ele><time>2026-04-16T12:58:21.771Z</time></trkpt><trkpt lat="40.58523" lon="8.63931"><ele>300.0</ele><time>2026-04-16T12:58:22.771Z</time></trkpt><trkpt lat="40.5851967" lon="8.6394367"><ele>300.0</ele><time>2026-04-16T12:58:23.771Z</time></trkpt><trkpt lat="40.5851583" lon="8.63956"><ele>300.0</ele><time>2026-04-16T12:58:24.771Z</time></trkpt><trkpt lat="40.5851133" lon="8.6396883"><ele>300.0</ele><time>2026-04-16T12:58:25.771Z</time></trkpt><trkpt lat="40.5850917" lon="8.639825"><ele>300.0</ele><time>2026-04-16T12:58:26.771Z</time></trkpt><trkpt lat="40.585085" lon="8.63998"><ele>300.0</ele><time>2026-04-16T12:58:27.77Z</time></trkpt><trkpt lat="40.585085" lon="8.640145"><ele>302.0</ele><time>2026-04-16T12:58:28.771Z</time></trkpt><trkpt lat="40.5850833" lon="8.6403283"><ele>304.0</ele><time>2026-04-16T12:58:29.771Z</time></trkpt><trkpt lat="40.58508" lon="8.6404917"><ele>306.0</ele><time>2026-04-16T12:58:30.771Z</time></trkpt><trkpt lat="40.5850883" lon="8.6406167"><ele>308.0</ele><time>2026-04-16T12:58:31.77Z</time></trkpt><trkpt lat="40.5851183" lon="8.6407267"><ele>310.0</ele><time>2026-04-16T12:58:32.77Z</time></trkpt><trkpt lat="40.5851733" lon="8.6408117"><ele>310.0</ele><time>2026-04-16T12:58:33.771Z</time></trkpt><trkpt lat="40.5852567" lon="8.6408783"><ele>310.0</ele><time>2026-04-16T12:58:34.771Z</time></trkpt><trkpt lat="40.585375" lon="8.64095"><ele>310.0</ele><time>2026-04-16T12:58:35.771Z</time></trkpt><trkpt lat="40.5855067" lon="8.64103"><ele>310.0</ele><time>2026-04-16T12:58:36.771Z</time></trkpt><trkpt lat="40.5856217" lon="8.6410967"><ele>308.8</ele><time>2026-04-16T12:58:37.77Z</time></trkpt><trkpt lat="40.5857083" lon="8.6411567"><ele>307.6</ele><time>2026-04-16T12:58:38.771Z</time></trkpt><trkpt lat="40.585775" lon="8.6412317"><ele>306.4</ele><time>2026-04-16T12:58:39.771Z</time></trkpt><trkpt lat="40.5858267" lon="8.64135"><ele>305.2</ele><time>2026-04-16T12:58:40.77Z</time></trkpt><trkpt lat="40.5858583" lon="8.6414983"><ele>304.0</ele><time>2026-04-16T12:58:41.771Z</time></trkpt><trkpt lat="40.5858917" lon="8.6416733"><ele>304.0</ele><time>2026-04-16T12:58:42.771Z</time></trkpt><trkpt lat="40.5859317" lon="8.6418683"><ele>304.0</ele><time>2026-04-16T12:58:43.771Z</time></trkpt><trkpt lat="40.58597" lon="8.6420683"><ele>304.0</ele><time>2026-04-16T12:58:44.771Z</time></trkpt><trkpt lat="40.5860033" lon="8.6422683"><ele>305.2</ele><time>2026-04-16T12:58:45.771Z</time></trkpt><trkpt lat="40.5860283" lon="8.64244"><ele>306.4</ele><time>2026-04-16T12:58:46.77Z</time></trkpt><trkpt lat="40.5860417" lon="8.6425833"><ele>307.6</ele><time>2026-04-16T12:58:47.771Z</time></trkpt><trkpt lat="40.5860267" lon="8.6427117"><ele>308.8</ele><time>2026-04-16T12:58:48.771Z</time></trkpt><trkpt lat="40.5859867" lon="8.64282"><ele>310.0</ele><time>2026-04-16T12:58:49.771Z</time></trkpt><trkpt lat="40.5859217" lon="8.6429233"><ele>310.0</ele><time>2026-04-16T12:58:50.771Z</time></trkpt><trkpt lat="40.58583" lon="8.643035"><ele>310.0</ele><time>2026-04-16T12:58:51.77Z</time></trkpt><trkpt lat="40.5857467" lon="8.64313"><ele>310.0</ele><time>2026-04-16T12:58:52.77Z</time></trkpt><trkpt lat="40.5857017" lon="8.6432117"><ele>310.0</ele><time>2026-04-16T12:58:53.771Z</time></trkpt><trkpt lat="40.5856817" lon="8.6433067"><ele>310.0</ele><time>2026-04-16T12:58:54.77Z</time></trkpt><trkpt lat="40.58567" lon="8.643435"><ele>310.0</ele><time>2026-04-16T12:58:55.77Z</time></trkpt><trkpt lat="40.5856767" lon="8.6435883"><ele>310.0</ele><time>2026-04-16T12:58:56.771Z</time></trkpt><trkpt lat="40.5856983" lon="8.6437583"><ele>310.0</ele><time>2026-04-16T12:58:57.771Z</time></trkpt><trkpt lat="40.5857167" lon="8.64392"><ele>310.0</ele><time>2026-04-16T12:58:58.771Z</time></trkpt><trkpt lat="40.5857467" lon="8.6440533"><ele>310.25</ele><time>2026-04-16T12:58:59.77Z</time></trkpt><trkpt lat="40.5857933" lon="8.6441683"><ele>310.5</ele><time>2026-04-16T12:59:00.771Z</time></trkpt><trkpt lat="40.585865" lon="8.64428"><ele>310.75</ele><time>2026-04-16T12:59:01.771Z</time></trkpt><trkpt lat="40.5859567" lon="8.6443833"><ele>311.0</ele><time>2026-04-16T12:59:02.77Z</time></trkpt><trkpt lat="40.58606" lon="8.6444933"><ele>311.0</ele><time>2026-04-16T12:59:03.77Z</time></trkpt><trkpt lat="40.58617" lon="8.644615"><ele>311.0</ele><time>2026-04-16T12:59:04.771Z</time></trkpt><trkpt lat="40.58628" lon="8.6447383"><ele>311.0</ele><time>2026-04-16T12:59:05.771Z</time></trkpt><trkpt lat="40.5863733" lon="8.6448467"><ele>311.0</ele><time>2026-04-16T12:59:06.771Z</time></trkpt><trkpt lat="40.586445" lon="8.6449467"><ele>309.8</ele><time>2026-04-16T12:59:07.771Z</time></trkpt><trkpt lat="40.5864933" lon="8.6450483"><ele>308.6</ele><time>2026-04-16T12:59:08.771Z</time></trkpt><trkpt lat="40.5865167" lon="8.645165"><ele>307.4</ele><time>2026-04-16T12:59:09.77Z</time></trkpt><trkpt lat="40.58651" lon="8.645295"><ele>306.2</ele><time>2026-04-16T12:59:10.771Z</time></trkpt><trkpt lat="40.5864767" lon="8.645415"><ele>305.0</ele><time>2026-04-16T12:59:11.77Z</time></trkpt><trkpt lat="40.58643" lon="8.6455217"><ele>304.75</ele><time>2026-04-16T12:59:12.771Z</time></trkpt><trkpt lat="40.5863617" lon="8.6456"><ele>304.5</ele><time>2026-04-16T12:59:13.771Z</time></trkpt><trkpt lat="40.5862667" lon="8.645665"><ele>304.25</ele><time>2026-04-16T12:59:14.77Z</time></trkpt><trkpt lat="40.5861417" lon="8.6457183"><ele>304.0</ele><time>2026-04-16T12:59:15.771Z</time></trkpt><trkpt lat="40.5860067" lon="8.6457733"><ele>304.0</ele><time>2026-04-16T12:59:16.771Z</time></trkpt><trkpt lat="40.5858533" lon="8.6458417"><ele>304.0</ele><time>2026-04-16T12:59:17.771Z</time></trkpt><trkpt lat="40.5856983" lon="8.64591"><ele>304.0</ele><time>2026-04-16T12:59:18.77Z</time></trkpt><trkpt lat="40.58554" lon="8.645975"><ele>304.0</ele><time>2026-04-16T12:59:19.771Z</time></trkpt><trkpt lat="40.5853917" lon="8.6460383"><ele>304.0</ele><time>2026-04-16T12:59:20.771Z</time></trkpt><trkpt lat="40.5852433" lon="8.646095"><ele>304.0</ele><time>2026-04-16T12:59:21.77Z</time></trkpt><trkpt lat="40.585115" lon="8.64615"><ele>304.0</ele><time>2026-04-16T12:59:22.771Z</time></trkpt><trkpt lat="40.5850017" lon="8.6461967"><ele>301.59999999999997</ele><time>2026-04-16T12:59:23.771Z</time></trkpt><trkpt lat="40.5849017" lon="8.646255"><ele>299.2</ele><time>2026-04-16T12:59:24.771Z</time></trkpt><trkpt lat="40.5848233" lon="8.6463367"><ele>296.79999999999995</ele><time>2026-04-16T12:59:25.771Z</time></trkpt><trkpt lat="40.5847717" lon="8.6464517"><ele>294.4</ele><time>2026-04-16T12:59:26.77Z</time></trkpt><trkpt lat="40.5847317" lon="8.64661"><ele>292.0</ele><time>2026-04-16T12:59:27.77Z</time></trkpt><trkpt lat="40.5847033" lon="8.6468083"><ele>289.66666666666663</ele><time>2026-04-16T12:59:28.771Z</time></trkpt><trkpt lat="40.5846783" lon="8.64703"><ele>287.3333333333333</ele><time>2026-04-16T12:59:29.771Z</time></trkpt><trkpt lat="40.5846483" lon="8.6472683"><ele>285.0</ele><time>2026-04-16T12:59:30.771Z</time></trkpt><trkpt lat="40.5846217" lon="8.6475033"><ele>285.0</ele><time>2026-04-16T12:59:31.77Z</time></trkpt><trkpt lat="40.5845917" lon="8.647735"><ele>285.0</ele><time>2026-04-16T12:59:32.77Z</time></trkpt><trkpt lat="40.5845617" lon="8.6479567"><ele>285.0</ele><time>2026-04-16T12:59:33.771Z</time></trkpt><trkpt lat="40.5845317" lon="8.6481733"><ele>288.3333333333333</ele><time>2026-04-16T12:59:34.77Z</time></trkpt><trkpt lat="40.5844983" lon="8.6484133"><ele>291.66666666666663</ele><time>2026-04-16T12:59:35.771Z</time></trkpt><trkpt lat="40.5844717" lon="8.6486583"><ele>295.0</ele><time>2026-04-16T12:59:36.771Z</time></trkpt><trkpt lat="40.58445" lon="8.6488883"><ele>295.0</ele><time>2026-04-16T12:59:37.771Z</time></trkpt><trkpt lat="40.5844283" lon="8.6491"><ele>295.0</ele><time>2026-04-16T12:59:38.771Z</time></trkpt><trkpt lat="40.5844083" lon="8.6493067"><ele>295.0</ele><time>2026-04-16T12:59:39.771Z</time></trkpt><trkpt lat="40.5843833" lon="8.6495167"><ele>296.0</ele><time>2026-04-16T12:59:40.771Z</time></trkpt><trkpt lat="40.58436" lon="8.6497567"><ele>297.0</ele><time>2026-04-16T12:59:41.771Z</time></trkpt><trkpt lat="40.5843317" lon="8.6500083"><ele>298.0</ele><time>2026-04-16T12:59:42.771Z</time></trkpt><trkpt lat="40.5842933" lon="8.650275"><ele>298.3333333333333</ele><time>2026-04-16T12:59:43.771Z</time></trkpt><trkpt lat="40.5842583" lon="8.65053"><ele>298.6666666666667</ele><time>2026-04-16T12:59:44.771Z</time></trkpt><trkpt lat="40.58423" lon="8.6507583"><ele>299.0</ele><time>2026-04-16T12:59:45.771Z</time></trkpt><trkpt lat="40.584205" lon="8.6509617"><ele>298.25</ele><time>2026-04-16T12:59:46.771Z</time></trkpt><trkpt lat="40.58418" lon="8.6511483"><ele>297.5</ele><time>2026-04-16T12:59:47.771Z</time></trkpt><trkpt lat="40.58415" lon="8.6513117"><ele>296.75</ele><time>2026-04-16T12:59:48.771Z</time></trkpt><trkpt lat="40.5841167" lon="8.651465"><ele>296.0</ele><time>2026-04-16T12:59:49.77Z</time></trkpt><trkpt lat="40.5840733" lon="8.6516183"><ele>296.0</ele><time>2026-04-16T12:59:50.771Z</time></trkpt><trkpt lat="40.5840083" lon="8.651785"><ele>296.0</ele><time>2026-04-16T12:59:51.771Z</time></trkpt><trkpt lat="40.5839333" lon="8.651965"><ele>296.0</ele><time>2026-04-16T12:59:52.771Z</time></trkpt><trkpt lat="40.58386" lon="8.65215"><ele>293.6666666666667</ele><time>2026-04-16T12:59:53.771Z</time></trkpt><trkpt lat="40.5837917" lon="8.6523467"><ele>291.3333333333333</ele><time>2026-04-16T12:59:54.771Z</time></trkpt><trkpt lat="40.5837283" lon="8.6525533"><ele>289.0</ele><time>2026-04-16T12:59:55.77Z</time></trkpt><trkpt lat="40.5836517" lon="8.6527617"><ele>295.66666666666663</ele><time>2026-04-16T12:59:56.771Z</time></trkpt><trkpt lat="40.5835633" lon="8.65298"><ele>302.3333333333333</ele><time>2026-04-16T12:59:57.771Z</time></trkpt><trkpt lat="40.5834683" lon="8.6532233"><ele>309.0</ele><time>2026-04-16T12:59:58.771Z</time></trkpt><trkpt lat="40.58337" lon="8.6534583"><ele>306.6666666666667</ele><time>2026-04-16T12:59:59.771Z</time></trkpt><trkpt lat="40.5832833" lon="8.6536733"><ele>304.33333333333337</ele><time>2026-04-16T13:00:00.771Z</time></trkpt><trkpt lat="40.583205" lon="8.6538667"><ele>302.0</ele><time>2026-04-16T13:00:01.77Z</time></trkpt><trkpt lat="40.583135" lon="8.6540483"><ele>302.0</ele><time>2026-04-16T13:00:02.771Z</time></trkpt><trkpt lat="40.5830683" lon="8.654205"><ele>302.0</ele><time>2026-04-16T13:00:03.77Z</time></trkpt><trkpt lat="40.5830083" lon="8.6543567"><ele>302.0</ele><time>2026-04-16T13:00:04.771Z</time></trkpt><trkpt lat="40.5829517" lon="8.65448"><ele>302.0</ele><time>2026-04-16T13:00:05.771Z</time></trkpt><trkpt lat="40.5828933" lon="8.6545967"><ele>303.25</ele><time>2026-04-16T13:00:06.771Z</time></trkpt><trkpt lat="40.582815" lon="8.654715"><ele>304.5</ele><time>2026-04-16T13:00:07.77Z</time></trkpt><trkpt lat="40.5827217" lon="8.6548467"><ele>305.75</ele><time>2026-04-16T13:00:08.771Z</time></trkpt><trkpt lat="40.582615" lon="8.6549967"><ele>307.0</ele><time>2026-04-16T13:00:09.77Z</time></trkpt><trkpt lat="40.5825" lon="8.655165"><ele>301.3333333333333</ele><time>2026-04-16T13:00:10.771Z</time></trkpt><trkpt lat="40.5823767" lon="8.6553383"><ele>295.6666666666667</ele><time>2026-04-16T13:00:11.77Z</time></trkpt><trkpt lat="40.58227" lon="8.6554883"><ele>290.0</ele><time>2026-04-16T13:00:12.771Z</time></trkpt><trkpt lat="40.5821733" lon="8.6556233"><ele>290.0</ele><time>2026-04-16T13:00:13.77Z</time></trkpt><trkpt lat="40.582095" lon="8.6557767"><ele>290.0</ele><time>2026-04-16T13:00:14.77Z</time></trkpt><trkpt lat="40.5820117" lon="8.6559617"><ele>290.0</ele><time>2026-04-16T13:00:15.771Z</time></trkpt><trkpt lat="40.5819283" lon="8.6561733"><ele>292.25</ele><time>2026-04-16T13:00:16.771Z</time></trkpt><trkpt lat="40.5818583" lon="8.6563683"><ele>294.5</ele><time>2026-04-16T13:00:17.77Z</time></trkpt><trkpt lat="40.5818" lon="8.65652"><ele>296.75</ele><time>2026-04-16T13:00:18.771Z</time></trkpt><trkpt lat="40.5817567" lon="8.6566483"><ele>299.0</ele><time>2026-04-16T13:00:19.771Z</time></trkpt><trkpt lat="40.581705" lon="8.656765"><ele>299.0</ele><time>2026-04-16T13:00:20.77Z</time></trkpt><trkpt lat="40.5816367" lon="8.6568833"><ele>299.0</ele><time>2026-04-16T13:00:21.771Z</time></trkpt><trkpt lat="40.58155" lon="8.6570033"><ele>299.0</ele><time>2026-04-16T13:00:22.771Z</time></trkpt><trkpt lat="40.5814517" lon="8.6571217"><ele>299.0</ele><time>2026-04-16T13:00:23.771Z</time></trkpt><trkpt lat="40.58136" lon="8.6572583"><ele>297.0</ele><time>2026-04-16T13:00:24.771Z</time></trkpt><trkpt lat="40.58127" lon="8.6574283"><ele>295.0</ele><time>2026-04-16T13:00:25.771Z</time></trkpt><trkpt lat="40.5812" lon="8.65762"><ele>293.0</ele><time>2026-04-16T13:00:26.771Z</time></trkpt><trkpt lat="40.58115" lon="8.6577967"><ele>293.0</ele><time>2026-04-16T13:00:27.771Z</time></trkpt><trkpt lat="40.5811067" lon="8.6579333"><ele>293.0</ele><time>2026-04-16T13:00:28.77Z</time></trkpt><trkpt lat="40.58107" lon="8.6580433"><ele>293.0</ele><time>2026-04-16T13:00:29.769Z</time></trkpt><trkpt lat="40.5810233" lon="8.65813"><ele>293.0</ele><time>2026-04-16T13:00:30.769Z</time></trkpt><trkpt lat="40.5809533" lon="8.6582267"><ele>293.0</ele><time>2026-04-16T13:00:31.77Z</time></trkpt><trkpt lat="40.5808667" lon="8.6583483"><ele>293.0</ele><time>2026-04-16T13:00:32.769Z</time></trkpt><trkpt lat="40.5807767" lon="8.6584633"><ele>293.0</ele><time>2026-04-16T13:00:33.77Z</time></trkpt><trkpt lat="40.58067" lon="8.6585783"><ele>293.0</ele><time>2026-04-16T13:00:34.769Z</time></trkpt><trkpt lat="40.5805267" lon="8.6586883"><ele>293.0</ele><time>2026-04-16T13:00:35.769Z</time></trkpt><trkpt lat="40.5803667" lon="8.6588033"><ele>295.0</ele><time>2026-04-16T13:00:36.77Z</time></trkpt><trkpt lat="40.5802017" lon="8.6589233"><ele>297.0</ele><time>2026-04-16T13:00:37.769Z</time></trkpt><trkpt lat="40.58003" lon="8.65905"><ele>299.0</ele><time>2026-04-16T13:00:38.769Z</time></trkpt><trkpt lat="40.5798667" lon="8.6591817"><ele>299.0</ele><time>2026-04-16T13:00:39.77Z</time></trkpt><trkpt lat="40.5797133" lon="8.6593033"><ele>299.0</ele><time>2026-04-16T13:00:40.77Z</time></trkpt><trkpt lat="40.57957" lon="8.659415"><ele>299.0</ele><time>2026-04-16T13:00:41.769Z</time></trkpt><trkpt lat="40.579435" lon="8.6595317"><ele>301.6666666666667</ele><time>2026-04-16T13:00:42.77Z</time></trkpt><trkpt lat="40.5793033" lon="8.6596883"><ele>304.3333333333333</ele><time>2026-04-16T13:00:43.769Z</time></trkpt><trkpt lat="40.5791783" lon="8.6598633"><ele>307.0</ele><time>2026-04-16T13:00:44.77Z</time></trkpt><trkpt lat="40.5790717" lon="8.6600133"><ele>307.0</ele><time>2026-04-16T13:00:45.769Z</time></trkpt><trkpt lat="40.5789817" lon="8.6601367"><ele>307.0</ele><time>2026-04-16T13:00:46.77Z</time></trkpt><trkpt lat="40.57889" lon="8.66026"><ele>307.0</ele><time>2026-04-16T13:00:47.769Z</time></trkpt><trkpt lat="40.5787833" lon="8.660405"><ele>307.0</ele><time>2026-04-16T13:00:48.77Z</time></trkpt><trkpt lat="40.57867" lon="8.660575"><ele>310.0</ele><time>2026-04-16T13:00:49.769Z</time></trkpt><trkpt lat="40.57855" lon="8.6607367"><ele>313.0</ele><time>2026-04-16T13:00:50.77Z</time></trkpt><trkpt lat="40.5784217" lon="8.6609083"><ele>316.0</ele><time>2026-04-16T13:00:51.77Z</time></trkpt><trkpt lat="40.5782967" lon="8.6610833"><ele>309.3333333333333</ele><time>2026-04-16T13:00:52.769Z</time></trkpt><trkpt lat="40.5781883" lon="8.6612517"><ele>302.6666666666667</ele><time>2026-04-16T13:00:53.77Z</time></trkpt><trkpt lat="40.578085" lon="8.6614017"><ele>296.0</ele><time>2026-04-16T13:00:54.77Z</time></trkpt><trkpt lat="40.5779967" lon="8.661525"><ele>296.0</ele><time>2026-04-16T13:00:55.77Z</time></trkpt><trkpt lat="40.5779" lon="8.6616333"><ele>296.0</ele><time>2026-04-16T13:00:56.77Z</time></trkpt><trkpt lat="40.5777917" lon="8.6617333"><ele>296.0</ele><time>2026-04-16T13:00:57.769Z</time></trkpt><trkpt lat="40.57766" lon="8.6618467"><ele>296.0</ele><time>2026-04-16T13:00:58.77Z</time></trkpt><trkpt lat="40.5775233" lon="8.6619683"><ele>294.75</ele><time>2026-04-16T13:00:59.77Z</time></trkpt><trkpt lat="40.5773867" lon="8.6620883"><ele>293.5</ele><time>2026-04-16T13:01:00.769Z</time></trkpt><trkpt lat="40.57726" lon="8.66219"><ele>292.25</ele><time>2026-04-16T13:01:01.77Z</time></trkpt><trkpt lat="40.577145" lon="8.6622733"><ele>291.0</ele><time>2026-04-16T13:01:02.77Z</time></trkpt><trkpt lat="40.5770383" lon="8.66234"><ele>297.3333333333333</ele><time>2026-04-16T13:01:03.769Z</time></trkpt><trkpt lat="40.576915" lon="8.6624117"><ele>303.66666666666663</ele><time>2026-04-16T13:01:04.77Z</time></trkpt><trkpt lat="40.5767733" lon="8.6624883"><ele>310.0</ele><time>2026-04-16T13:01:05.769Z</time></trkpt><trkpt lat="40.5766117" lon="8.6625733"><ele>310.0</ele><time>2026-04-16T13:01:06.769Z</time></trkpt><trkpt lat="40.5764467" lon="8.662675"><ele>310.0</ele><time>2026-04-16T13:01:07.77Z</time></trkpt><trkpt lat="40.5762867" lon="8.6627617"><ele>310.0</ele><time>2026-04-16T13:01:08.769Z</time></trkpt><trkpt lat="40.576115" lon="8.6628417"><ele>304.66666666666663</ele><time>2026-04-16T13:01:09.769Z</time></trkpt><trkpt lat="40.5759433" lon="8.66292"><ele>299.3333333333333</ele><time>2026-04-16T13:01:10.77Z</time></trkpt><trkpt lat="40.5757767" lon="8.6629917"><ele>294.0</ele><time>2026-04-16T13:01:11.769Z</time></trkpt><trkpt lat="40.5756083" lon="8.6630783"><ele>294.0</ele><time>2026-04-16T13:01:12.77Z</time></trkpt><trkpt lat="40.5754483" lon="8.6631617"><ele>294.0</ele><time>2026-04-16T13:01:13.77Z</time></trkpt><trkpt lat="40.5753083" lon="8.6632367"><ele>294.0</ele><time>2026-04-16T13:01:14.77Z</time></trkpt><trkpt lat="40.5751783" lon="8.663315"><ele>294.0</ele><time>2026-04-16T13:01:15.769Z</time></trkpt><trkpt lat="40.57506" lon="8.6634033"><ele>294.0</ele><time>2026-04-16T13:01:16.77Z</time></trkpt><trkpt lat="40.5749433" lon="8.6635083"><ele>294.0</ele><time>2026-04-16T13:01:17.77Z</time></trkpt><trkpt lat="40.5748217" lon="8.6636283"><ele>294.0</ele><time>2026-04-16T13:01:18.77Z</time></trkpt><trkpt lat="40.5746967" lon="8.6637517"><ele>294.0</ele><time>2026-04-16T13:01:19.77Z</time></trkpt><trkpt lat="40.5745583" lon="8.6638767"><ele>294.0</ele><time>2026-04-16T13:01:20.77Z</time></trkpt><trkpt lat="40.5744117" lon="8.6640133"><ele>294.0</ele><time>2026-04-16T13:01:21.769Z</time></trkpt><trkpt lat="40.5742583" lon="8.664155"><ele>294.25</ele><time>2026-04-16T13:01:22.77Z</time></trkpt><trkpt lat="40.574115" lon="8.6642783"><ele>294.5</ele><time>2026-04-16T13:01:23.77Z</time></trkpt><trkpt lat="40.5739933" lon="8.664385"><ele>294.75</ele><time>2026-04-16T13:01:24.77Z</time></trkpt><trkpt lat="40.5738917" lon="8.6644567"><ele>295.0</ele><time>2026-04-16T13:01:25.769Z</time></trkpt><trkpt lat="40.5737883" lon="8.6645167"><ele>298.0</ele><time>2026-04-16T13:01:26.77Z</time></trkpt><trkpt lat="40.5736767" lon="8.6645717"><ele>301.0</ele><time>2026-04-16T13:01:27.77Z</time></trkpt><trkpt lat="40.5735367" lon="8.6646367"><ele>304.0</ele><time>2026-04-16T13:01:28.77Z</time></trkpt><trkpt lat="40.5733717" lon="8.6647117"><ele>307.0</ele><time>2026-04-16T13:01:29.77Z</time></trkpt><trkpt lat="40.5731967" lon="8.66479"><ele>307.0</ele><time>2026-04-16T13:01:30.769Z</time></trkpt><trkpt lat="40.57303" lon="8.6648583"><ele>307.0</ele><time>2026-04-16T13:01:31.769Z</time></trkpt><trkpt lat="40.572875" lon="8.6649233"><ele>307.0</ele><time>2026-04-16T13:01:32.77Z</time></trkpt><trkpt lat="40.57273" lon="8.6649983"><ele>308.25</ele><time>2026-04-16T13:01:33.77Z</time></trkpt><trkpt lat="40.5725883" lon="8.6650567"><ele>309.5</ele><time>2026-04-16T13:01:34.77Z</time></trkpt><trkpt lat="40.572465" lon="8.66511"><ele>310.75</ele><time>2026-04-16T13:01:35.769Z</time></trkpt><trkpt lat="40.5723633" lon="8.66515"><ele>312.0</ele><time>2026-04-16T13:01:36.77Z</time></trkpt><trkpt lat="40.5722667" lon="8.6651833"><ele>312.0</ele><time>2026-04-16T13:01:37.77Z</time></trkpt><trkpt lat="40.5721533" lon="8.6652117"><ele>312.0</ele><time>2026-04-16T13:01:38.77Z</time></trkpt><trkpt lat="40.5720283" lon="8.6652367"><ele>312.0</ele><time>2026-04-16T13:01:39.77Z</time></trkpt><trkpt lat="40.5718833" lon="8.6652667"><ele>312.0</ele><time>2026-04-16T13:01:40.769Z</time></trkpt><trkpt lat="40.5717317" lon="8.665295"><ele>307.6666666666667</ele><time>2026-04-16T13:01:41.769Z</time></trkpt><trkpt lat="40.5715783" lon="8.6653167"><ele>303.33333333333337</ele><time>2026-04-16T13:01:42.769Z</time></trkpt><trkpt lat="40.5714183" lon="8.665345"><ele>299.0</ele><time>2026-04-16T13:01:43.77Z</time></trkpt><trkpt lat="40.5712633" lon="8.66538"><ele>300.75</ele><time>2026-04-16T13:01:44.77Z</time></trkpt><trkpt lat="40.571115" lon="8.6654133"><ele>302.5</ele><time>2026-04-16T13:01:45.769Z</time></trkpt><trkpt lat="40.5709733" lon="8.6654433"><ele>304.25</ele><time>2026-04-16T13:01:46.77Z</time></trkpt><trkpt lat="40.5708333" lon="8.665465"><ele>306.0</ele><time>2026-04-16T13:01:47.77Z</time></trkpt><trkpt lat="40.570695" lon="8.66549"><ele>306.0</ele><time>2026-04-16T13:01:48.769Z</time></trkpt><trkpt lat="40.5705433" lon="8.6655183"><ele>306.0</ele><time>2026-04-16T13:01:49.77Z</time></trkpt><trkpt lat="40.570385" lon="8.6655417"><ele>306.0</ele><time>2026-04-16T13:01:50.77Z</time></trkpt><trkpt lat="40.57023" lon="8.665575"><ele>306.25</ele><time>2026-04-16T13:01:51.769Z</time></trkpt><trkpt lat="40.5700867" lon="8.665595"><ele>306.5</ele><time>2026-04-16T13:01:52.769Z</time></trkpt><trkpt lat="40.5699617" lon="8.6656167"><ele>306.75</ele><time>2026-04-16T13:01:53.77Z</time></trkpt><trkpt lat="40.5698517" lon="8.6656317"><ele>307.0</ele><time>2026-04-16T13:01:54.77Z</time></trkpt><trkpt lat="40.5697417" lon="8.6656417"><ele>307.0</ele><time>2026-04-16T13:01:55.769Z</time></trkpt><trkpt lat="40.5696233" lon="8.6656383"><ele>307.0</ele><time>2026-04-16T13:01:56.77Z</time></trkpt><trkpt lat="40.5694833" lon="8.6656283"><ele>307.0</ele><time>2026-04-16T13:01:57.77Z</time></trkpt><trkpt lat="40.5693217" lon="8.6656117"><ele>307.0</ele><time>2026-04-16T13:01:58.77Z</time></trkpt><trkpt lat="40.5691567" lon="8.6655967"><ele>307.5</ele><time>2026-04-16T13:01:59.769Z</time></trkpt><trkpt lat="40.568995" lon="8.6655767"><ele>308.0</ele><time>2026-04-16T13:02:00.77Z</time></trkpt><trkpt lat="40.5688467" lon="8.6655567"><ele>308.5</ele><time>2026-04-16T13:02:01.77Z</time></trkpt><trkpt lat="40.5687217" lon="8.6655317"><ele>309.0</ele><time>2026-04-16T13:02:02.769Z</time></trkpt><trkpt lat="40.56861" lon="8.6655167"><ele>309.2</ele><time>2026-04-16T13:02:03.77Z</time></trkpt><trkpt lat="40.5685" lon="8.6655083"><ele>309.4</ele><time>2026-04-16T13:02:04.769Z</time></trkpt><trkpt lat="40.568395" lon="8.6654983"><ele>309.6</ele><time>2026-04-16T13:02:05.77Z</time></trkpt><trkpt lat="40.5683" lon="8.6654933"><ele>309.8</ele><time>2026-04-16T13:02:06.769Z</time></trkpt><trkpt lat="40.56821" lon="8.6655217"><ele>310.0</ele><time>2026-04-16T13:02:07.77Z</time></trkpt><trkpt lat="40.56813" lon="8.665595"><ele>310.0</ele><time>2026-04-16T13:02:08.769Z</time></trkpt><trkpt lat="40.568045" lon="8.6657083"><ele>310.0</ele><time>2026-04-16T13:02:09.77Z</time></trkpt><trkpt lat="40.5679467" lon="8.6658417"><ele>310.0</ele><time>2026-04-16T13:02:10.77Z</time></trkpt><trkpt lat="40.5678533" lon="8.6659583"><ele>310.0</ele><time>2026-04-16T13:02:11.769Z</time></trkpt><trkpt lat="40.5677767" lon="8.6660417"><ele>310.8333333333333</ele><time>2026-04-16T13:02:12.77Z</time></trkpt><trkpt lat="40.5677117" lon="8.6660983"><ele>311.66666666666663</ele><time>2026-04-16T13:02:13.77Z</time></trkpt><trkpt lat="40.5676433" lon="8.66612"><ele>312.5</ele><time>2026-04-16T13:02:14.77Z</time></trkpt><trkpt lat="40.56758" lon="8.6661083"><ele>313.3333333333333</ele><time>2026-04-16T13:02:15.77Z</time></trkpt><trkpt lat="40.5675133" lon="8.6660533"><ele>314.1666666666667</ele><time>2026-04-16T13:02:16.769Z</time></trkpt><trkpt lat="40.5674567" lon="8.6659683"><ele>315.0</ele><time>2026-04-16T13:02:17.77Z</time></trkpt><trkpt lat="40.5674" lon="8.6658417"><ele>315.0</ele><time>2026-04-16T13:02:18.77Z</time></trkpt><trkpt lat="40.5673267" lon="8.6657167"><ele>315.0</ele><time>2026-04-16T13:02:19.77Z</time></trkpt><trkpt lat="40.5672383" lon="8.6655883"><ele>315.0</ele><time>2026-04-16T13:02:20.77Z</time></trkpt><trkpt lat="40.5671333" lon="8.66548"><ele>315.0</ele><time>2026-04-16T13:02:21.77Z</time></trkpt><trkpt lat="40.5670183" lon="8.66541"><ele>313.6666666666667</ele><time>2026-04-16T13:02:22.769Z</time></trkpt><trkpt lat="40.5668767" lon="8.6653767"><ele>312.33333333333337</ele><time>2026-04-16T13:02:23.77Z</time></trkpt><trkpt lat="40.56672" lon="8.6653483"><ele>311.0</ele><time>2026-04-16T13:02:24.769Z</time></trkpt><trkpt lat="40.56655" lon="8.6653183"><ele>311.0</ele><time>2026-04-16T13:02:25.77Z</time></trkpt><trkpt lat="40.5664033" lon="8.6652967"><ele>311.0</ele><time>2026-04-16T13:02:26.769Z</time></trkpt><trkpt lat="40.5662667" lon="8.6652517"><ele>311.0</ele><time>2026-04-16T13:02:27.769Z</time></trkpt><trkpt lat="40.566125" lon="8.6651883"><ele>311.0</ele><time>2026-04-16T13:02:28.769Z</time></trkpt><trkpt lat="40.565995" lon="8.665105"><ele>314.0</ele><time>2026-04-16T13:02:29.769Z</time></trkpt><trkpt lat="40.5658667" lon="8.6650183"><ele>317.0</ele><time>2026-04-16T13:02:30.769Z</time></trkpt><trkpt lat="40.5657333" lon="8.6649117"><ele>320.0</ele><time>2026-04-16T13:02:31.77Z</time></trkpt><trkpt lat="40.565585" lon="8.6647917"><ele>320.0</ele><time>2026-04-16T13:02:32.769Z</time></trkpt><trkpt lat="40.565415" lon="8.6646617"><ele>320.0</ele><time>2026-04-16T13:02:33.77Z</time></trkpt><trkpt lat="40.5652517" lon="8.6645367"><ele>320.0</ele><time>2026-04-16T13:02:34.77Z</time></trkpt><trkpt lat="40.5651067" lon="8.6644233"><ele>324.0</ele><time>2026-04-16T13:02:35.77Z</time></trkpt><trkpt lat="40.5649583" lon="8.6643267"><ele>328.0</ele><time>2026-04-16T13:02:36.77Z</time></trkpt><trkpt lat="40.5647883" lon="8.6642483"><ele>332.0</ele><time>2026-04-16T13:02:37.769Z</time></trkpt><trkpt lat="40.5646" lon="8.6641917"><ele>331.0</ele><time>2026-04-16T13:02:38.77Z</time></trkpt><trkpt lat="40.56441" lon="8.6641317"><ele>330.0</ele><time>2026-04-16T13:02:39.77Z</time></trkpt><trkpt lat="40.5642367" lon="8.6640733"><ele>329.0</ele><time>2026-04-16T13:02:40.77Z</time></trkpt><trkpt lat="40.5640783" lon="8.664015"><ele>329.0</ele><time>2026-04-16T13:02:41.769Z</time></trkpt><trkpt lat="40.5639267" lon="8.6639633"><ele>329.0</ele><time>2026-04-16T13:02:42.77Z</time></trkpt><trkpt lat="40.5637933" lon="8.66392"><ele>329.0</ele><time>2026-04-16T13:02:43.77Z</time></trkpt><trkpt lat="40.5636817" lon="8.663875"><ele>329.0</ele><time>2026-04-16T13:02:44.77Z</time></trkpt><trkpt lat="40.5635867" lon="8.66382"><ele>328.79999999999995</ele><time>2026-04-16T13:02:45.77Z</time></trkpt><trkpt lat="40.56351" lon="8.6637533"><ele>328.59999999999997</ele><time>2026-04-16T13:02:46.77Z</time></trkpt><trkpt lat="40.5634467" lon="8.6636717"><ele>328.4</ele><time>2026-04-16T13:02:47.77Z</time></trkpt><trkpt lat="40.563385" lon="8.66355"><ele>328.2</ele><time>2026-04-16T13:02:48.769Z</time></trkpt><trkpt lat="40.5633217" lon="8.66343"><ele>328.0</ele><time>2026-04-16T13:02:49.77Z</time></trkpt><trkpt lat="40.5632683" lon="8.6633417"><ele>330.0</ele><time>2026-04-16T13:02:50.77Z</time></trkpt><trkpt lat="40.5631633" lon="8.6632817"><ele>332.0</ele><time>2026-04-16T13:02:52.769Z</time></trkpt><trkpt lat="40.5631017" lon="8.663315"><ele>334.0</ele><time>2026-04-16T13:02:53.769Z</time></trkpt><trkpt lat="40.5630417" lon="8.66338"><ele>336.0</ele><time>2026-04-16T13:02:54.77Z</time></trkpt><trkpt lat="40.56298" lon="8.6634667"><ele>338.0</ele><time>2026-04-16T13:02:55.769Z</time></trkpt><trkpt lat="40.5628983" lon="8.6635917"><ele>337.33333333333337</ele><time>2026-04-16T13:02:56.769Z</time></trkpt><trkpt lat="40.5628067" lon="8.66372"><ele>336.6666666666667</ele><time>2026-04-16T13:02:57.769Z</time></trkpt><trkpt lat="40.5626883" lon="8.6638567"><ele>336.0</ele><time>2026-04-16T13:02:58.77Z</time></trkpt><trkpt lat="40.5625733" lon="8.6640033"><ele>336.0</ele><time>2026-04-16T13:02:59.77Z</time></trkpt><trkpt lat="40.5624817" lon="8.6641083"><ele>336.0</ele><time>2026-04-16T13:03:00.77Z</time></trkpt><trkpt lat="40.5624133" lon="8.6641583"><ele>336.0</ele><time>2026-04-16T13:03:01.769Z</time></trkpt><trkpt lat="40.56229" lon="8.6641233"><ele>336.0</ele><time>2026-04-16T13:03:03.77Z</time></trkpt><trkpt lat="40.5622233" lon="8.6640333"><ele>336.0</ele><time>2026-04-16T13:03:04.768Z</time></trkpt><trkpt lat="40.5621733" lon="8.663905"><ele>336.0</ele><time>2026-04-16T13:03:05.769Z</time></trkpt><trkpt lat="40.5621133" lon="8.663735"><ele>336.0</ele><time>2026-04-16T13:03:06.768Z</time></trkpt><trkpt lat="40.56205" lon="8.6635417"><ele>336.0</ele><time>2026-04-16T13:03:07.768Z</time></trkpt><trkpt lat="40.5619983" lon="8.6633467"><ele>336.5</ele><time>2026-04-16T13:03:08.769Z</time></trkpt><trkpt lat="40.5619483" lon="8.66319"><ele>337.0</ele><time>2026-04-16T13:03:09.769Z</time></trkpt><trkpt lat="40.56189" lon="8.663065"><ele>337.5</ele><time>2026-04-16T13:03:10.768Z</time></trkpt><trkpt lat="40.56181" lon="8.6629517"><ele>338.0</ele><time>2026-04-16T13:03:11.768Z</time></trkpt><trkpt lat="40.561705" lon="8.6628617"><ele>338.0</ele><time>2026-04-16T13:03:12.769Z</time></trkpt><trkpt lat="40.5615783" lon="8.662785"><ele>338.0</ele><time>2026-04-16T13:03:13.769Z</time></trkpt><trkpt lat="40.561425" lon="8.6627133"><ele>338.0</ele><time>2026-04-16T13:03:14.769Z</time></trkpt><trkpt lat="40.56126" lon="8.66263"><ele>340.6666666666667</ele><time>2026-04-16T13:03:15.769Z</time></trkpt><trkpt lat="40.561085" lon="8.662545"><ele>343.3333333333333</ele><time>2026-04-16T13:03:16.768Z</time></trkpt><trkpt lat="40.5609017" lon="8.66244"><ele>346.0</ele><time>2026-04-16T13:03:17.768Z</time></trkpt><trkpt lat="40.5607167" lon="8.662335"><ele>346.0</ele><time>2026-04-16T13:03:18.769Z</time></trkpt><trkpt lat="40.5605333" lon="8.6622433"><ele>346.0</ele><time>2026-04-16T13:03:19.769Z</time></trkpt><trkpt lat="40.560345" lon="8.662135"><ele>346.0</ele><time>2026-04-16T13:03:20.769Z</time></trkpt><trkpt lat="40.56018" lon="8.6620517"><ele>345.4</ele><time>2026-04-16T13:03:21.769Z</time></trkpt><trkpt lat="40.56005" lon="8.66198"><ele>344.8</ele><time>2026-04-16T13:03:22.769Z</time></trkpt><trkpt lat="40.5599433" lon="8.6619383"><ele>344.2</ele><time>2026-04-16T13:03:23.768Z</time></trkpt><trkpt lat="40.55986" lon="8.66191"><ele>343.59999999999997</ele><time>2026-04-16T13:03:24.768Z</time></trkpt><trkpt lat="40.5597667" lon="8.66187"><ele>343.0</ele><time>2026-04-16T13:03:26.769Z</time></trkpt><trkpt lat="40.5597983" lon="8.6619467"><ele>343.0</ele><time>2026-04-16T13:03:31.769Z</time></trkpt><trkpt lat="40.55991" lon="8.66194"><ele>343.0</ele><time>2026-04-16T13:03:33.769Z</time></trkpt><trkpt lat="40.5599783" lon="8.6619583"><ele>343.0</ele><time>2026-04-16T13:03:34.769Z</time></trkpt><trkpt lat="40.5600483" lon="8.66199"><ele>343.0</ele><time>2026-04-16T13:03:35.768Z</time></trkpt><trkpt lat="40.56012" lon="8.6620317"><ele>343.0</ele><time>2026-04-16T13:03:36.768Z</time></trkpt><trkpt lat="40.5601883" lon="8.66207"><ele>343.0</ele><time>2026-04-16T13:03:37.769Z</time></trkpt><trkpt lat="40.5602317" lon="8.6621533"><ele>343.0</ele><time>2026-04-16T13:03:39.769Z</time></trkpt><trkpt lat="40.5601883" lon="8.6622883"><ele>343.0</ele><time>2026-04-16T13:03:41.769Z</time></trkpt><trkpt lat="40.5601617" lon="8.6623883"><ele>343.0</ele><time>2026-04-16T13:03:42.769Z</time></trkpt><trkpt lat="40.5601283" lon="8.6624783"><ele>343.0</ele><time>2026-04-16T13:03:43.769Z</time></trkpt><trkpt lat="40.5600783" lon="8.6625417"><ele>343.0</ele><time>2026-04-16T13:03:44.769Z</time></trkpt><trkpt lat="40.560005" lon="8.6625883"><ele>343.0</ele><time>2026-04-16T13:03:45.768Z</time></trkpt><trkpt lat="40.5599133" lon="8.6626167"><ele>343.0</ele><time>2026-04-16T13:03:46.768Z</time></trkpt><trkpt lat="40.5597967" lon="8.66262"><ele>343.0</ele><time>2026-04-16T13:03:47.768Z</time></trkpt><trkpt lat="40.5596767" lon="8.6626217"><ele>343.0</ele><time>2026-04-16T13:03:48.769Z</time></trkpt><trkpt lat="40.5595667" lon="8.66263"><ele>343.0</ele><time>2026-04-16T13:03:49.768Z</time></trkpt><trkpt lat="40.5594683" lon="8.6626567"><ele>343.0</ele><time>2026-04-16T13:03:50.768Z</time></trkpt><trkpt lat="40.5593867" lon="8.6626817"><ele>341.0</ele><time>2026-04-16T13:03:51.769Z</time></trkpt><trkpt lat="40.55932" lon="8.6626983"><ele>339.0</ele><time>2026-04-16T13:03:52.769Z</time></trkpt><trkpt lat="40.5592617" lon="8.6627417"><ele>337.0</ele><time>2026-04-16T13:03:53.769Z</time></trkpt><trkpt lat="40.559215" lon="8.6628033"><ele>335.0</ele><time>2026-04-16T13:03:54.768Z</time></trkpt><trkpt lat="40.55916" lon="8.6628667"><ele>333.0</ele><time>2026-04-16T13:03:55.769Z</time></trkpt><trkpt lat="40.5591" lon="8.66291"><ele>331.0</ele><time>2026-04-16T13:03:56.768Z</time></trkpt><trkpt lat="40.5589883" lon="8.6629633"><ele>328.0</ele><time>2026-04-16T13:03:58.769Z</time></trkpt><trkpt lat="40.5589117" lon="8.6630583"><ele>325.0</ele><time>2026-04-16T13:04:00.769Z</time></trkpt><trkpt lat="40.5589117" lon="8.66321"><ele>322.0</ele><time>2026-04-16T13:04:02.768Z</time></trkpt><trkpt lat="40.5589383" lon="8.6632867"><ele>319.0</ele><time>2026-04-16T13:04:03.769Z</time></trkpt><trkpt lat="40.5589767" lon="8.6633617"><ele>316.0</ele><time>2026-04-16T13:04:04.769Z</time></trkpt><trkpt lat="40.5590283" lon="8.6634233"><ele>313.0</ele><time>2026-04-16T13:04:05.768Z</time></trkpt><trkpt lat="40.55908" lon="8.6634867"><ele>311.4</ele><time>2026-04-16T13:04:06.768Z</time></trkpt><trkpt lat="40.5591133" lon="8.663615"><ele>309.8</ele><time>2026-04-16T13:04:08.768Z</time></trkpt><trkpt lat="40.5590283" lon="8.6637133"><ele>308.2</ele><time>2026-04-16T13:04:10.769Z</time></trkpt><trkpt lat="40.5589567" lon="8.6637383"><ele>306.6</ele><time>2026-04-16T13:04:11.769Z</time></trkpt><trkpt lat="40.5588667" lon="8.663735"><ele>305.0</ele><time>2026-04-16T13:04:12.768Z</time></trkpt><trkpt lat="40.5587783" lon="8.66371"><ele>305.0</ele><time>2026-04-16T13:04:13.769Z</time></trkpt><trkpt lat="40.558715" lon="8.66369"><ele>305.0</ele><time>2026-04-16T13:04:14.769Z</time></trkpt><trkpt lat="40.5587033" lon="8.6637733"><ele>305.0</ele><time>2026-04-16T13:04:17.768Z</time></trkpt><trkpt lat="40.5588117" lon="8.6638483"><ele>305.0</ele><time>2026-04-16T13:04:19.769Z</time></trkpt><trkpt lat="40.5588767" lon="8.6638933"><ele>305.0</ele><time>2026-04-16T13:04:20.768Z</time></trkpt><trkpt lat="40.5589517" lon="8.664005"><ele>305.0</ele><time>2026-04-16T13:04:22.769Z</time></trkpt><trkpt lat="40.55897" lon="8.6640917"><ele>305.0</ele><time>2026-04-16T13:04:23.768Z</time></trkpt><trkpt lat="40.5589917" lon="8.6642033"><ele>305.0</ele><time>2026-04-16T13:04:24.768Z</time></trkpt><trkpt lat="40.5590217" lon="8.664315"><ele>305.0</ele><time>2026-04-16T13:04:25.769Z</time></trkpt><trkpt lat="40.5590833" lon="8.664445"><ele>305.0</ele><time>2026-04-16T13:04:26.769Z</time></trkpt><trkpt lat="40.559135" lon="8.6645633"><ele>305.0</ele><time>2026-04-16T13:04:27.769Z</time></trkpt><trkpt lat="40.5591567" lon="8.66465"><ele>306.4</ele><time>2026-04-16T13:04:28.769Z</time></trkpt><trkpt lat="40.5591" lon="8.664785"><ele>307.8</ele><time>2026-04-16T13:04:30.769Z</time></trkpt><trkpt lat="40.55902" lon="8.6648417"><ele>309.2</ele><time>2026-04-16T13:04:31.769Z</time></trkpt><trkpt lat="40.558935" lon="8.664865"><ele>310.6</ele><time>2026-04-16T13:04:32.769Z</time></trkpt><trkpt lat="40.5588483" lon="8.66486"><ele>312.0</ele><time>2026-04-16T13:04:33.769Z</time></trkpt><trkpt lat="40.5587567" lon="8.664835"><ele>314.4</ele><time>2026-04-16T13:04:34.769Z</time></trkpt><trkpt lat="40.5586533" lon="8.6647917"><ele>316.79999999999995</ele><time>2026-04-16T13:04:35.769Z</time></trkpt><trkpt lat="40.5585383" lon="8.6647717"><ele>319.2</ele><time>2026-04-16T13:04:36.769Z</time></trkpt><trkpt lat="40.5584383" lon="8.66478"><ele>321.59999999999997</ele><time>2026-04-16T13:04:37.768Z</time></trkpt><trkpt lat="40.5583317" lon="8.66482"><ele>324.0</ele><time>2026-04-16T13:04:38.769Z</time></trkpt><trkpt lat="40.5582233" lon="8.6648733"><ele>324.0</ele><time>2026-04-16T13:04:39.769Z</time></trkpt><trkpt lat="40.558115" lon="8.6649033"><ele>324.0</ele><time>2026-04-16T13:04:40.769Z</time></trkpt><trkpt lat="40.558015" lon="8.6649183"><ele>324.0</ele><time>2026-04-16T13:04:41.769Z</time></trkpt><trkpt lat="40.5579317" lon="8.6649483"><ele>324.0</ele><time>2026-04-16T13:04:42.769Z</time></trkpt><trkpt lat="40.5578767" lon="8.6649917"><ele>324.0</ele><time>2026-04-16T13:04:43.769Z</time></trkpt><trkpt lat="40.5578367" lon="8.6650583"><ele>324.0</ele><time>2026-04-16T13:04:44.769Z</time></trkpt><trkpt lat="40.5578067" lon="8.6651467"><ele>325.5</ele><time>2026-04-16T13:04:45.769Z</time></trkpt><trkpt lat="40.5577683" lon="8.66526"><ele>327.0</ele><time>2026-04-16T13:04:46.768Z</time></trkpt><trkpt lat="40.55771" lon="8.6653917"><ele>328.5</ele><time>2026-04-16T13:04:47.768Z</time></trkpt><trkpt lat="40.557635" lon="8.66554"><ele>330.0</ele><time>2026-04-16T13:04:48.768Z</time></trkpt><trkpt lat="40.55754" lon="8.665705"><ele>332.3333333333333</ele><time>2026-04-16T13:04:49.768Z</time></trkpt><trkpt lat="40.55744" lon="8.6658783"><ele>334.66666666666663</ele><time>2026-04-16T13:04:50.769Z</time></trkpt><trkpt lat="40.5573383" lon="8.6660517"><ele>337.0</ele><time>2026-04-16T13:04:51.768Z</time></trkpt><trkpt lat="40.5572383" lon="8.6662617"><ele>336.66666666666663</ele><time>2026-04-16T13:04:52.768Z</time></trkpt><trkpt lat="40.5571367" lon="8.6664933"><ele>336.3333333333333</ele><time>2026-04-16T13:04:53.768Z</time></trkpt><trkpt lat="40.557045" lon="8.6667017"><ele>336.0</ele><time>2026-04-16T13:04:54.768Z</time></trkpt><trkpt lat="40.556965" lon="8.6668783"><ele>338.3333333333333</ele><time>2026-04-16T13:04:55.769Z</time></trkpt><trkpt lat="40.55688" lon="8.6670417"><ele>340.66666666666663</ele><time>2026-04-16T13:04:56.769Z</time></trkpt><trkpt lat="40.55678" lon="8.6672133"><ele>343.0</ele><time>2026-04-16T13:04:57.768Z</time></trkpt><trkpt lat="40.556665" lon="8.6673767"><ele>343.0</ele><time>2026-04-16T13:04:58.768Z</time></trkpt><trkpt lat="40.556535" lon="8.6675483"><ele>343.0</ele><time>2026-04-16T13:04:59.769Z</time></trkpt><trkpt lat="40.556405" lon="8.667715"><ele>343.0</ele><time>2026-04-16T13:05:00.768Z</time></trkpt><trkpt lat="40.55629" lon="8.6678517"><ele>343.25</ele><time>2026-04-16T13:05:01.768Z</time></trkpt><trkpt lat="40.55618" lon="8.6679683"><ele>343.5</ele><time>2026-04-16T13:05:02.768Z</time></trkpt><trkpt lat="40.5560683" lon="8.6680817"><ele>343.75</ele><time>2026-04-16T13:05:03.768Z</time></trkpt><trkpt lat="40.5559533" lon="8.6682217"><ele>344.0</ele><time>2026-04-16T13:05:04.769Z</time></trkpt><trkpt lat="40.5558333" lon="8.66838"><ele>344.0</ele><time>2026-04-16T13:05:05.769Z</time></trkpt><trkpt lat="40.5557117" lon="8.668545"><ele>344.0</ele><time>2026-04-16T13:05:06.768Z</time></trkpt><trkpt lat="40.5555883" lon="8.6687183"><ele>344.0</ele><time>2026-04-16T13:05:07.768Z</time></trkpt><trkpt lat="40.5554633" lon="8.6688867"><ele>341.0</ele><time>2026-04-16T13:05:08.768Z</time></trkpt><trkpt lat="40.5553433" lon="8.6690517"><ele>338.0</ele><time>2026-04-16T13:05:09.768Z</time></trkpt><trkpt lat="40.5552317" lon="8.6692167"><ele>335.0</ele><time>2026-04-16T13:05:10.768Z</time></trkpt><trkpt lat="40.555115" lon="8.66939"><ele>335.25</ele><time>2026-04-16T13:05:11.769Z</time></trkpt><trkpt lat="40.5550167" lon="8.6695367"><ele>335.5</ele><time>2026-04-16T13:05:12.768Z</time></trkpt><trkpt lat="40.5549267" lon="8.669675"><ele>335.75</ele><time>2026-04-16T13:05:13.768Z</time></trkpt><trkpt lat="40.554845" lon="8.6697883"><ele>336.0</ele><time>2026-04-16T13:05:14.769Z</time></trkpt><trkpt lat="40.554745" lon="8.669885"><ele>336.0</ele><time>2026-04-16T13:05:15.769Z</time></trkpt><trkpt lat="40.55462" lon="8.6699767"><ele>336.0</ele><time>2026-04-16T13:05:16.769Z</time></trkpt><trkpt lat="40.5544883" lon="8.6700667"><ele>336.0</ele><time>2026-04-16T13:05:17.769Z</time></trkpt><trkpt lat="40.554365" lon="8.6701567"><ele>336.0</ele><time>2026-04-16T13:05:18.768Z</time></trkpt><trkpt lat="40.5542417" lon="8.67028"><ele>338.3333333333333</ele><time>2026-04-16T13:05:19.769Z</time></trkpt><trkpt lat="40.5541067" lon="8.6704167"><ele>340.66666666666663</ele><time>2026-04-16T13:05:20.768Z</time></trkpt><trkpt lat="40.553975" lon="8.6705483"><ele>343.0</ele><time>2026-04-16T13:05:21.769Z</time></trkpt><trkpt lat="40.55386" lon="8.67067"><ele>343.0</ele><time>2026-04-16T13:05:22.769Z</time></trkpt><trkpt lat="40.5537417" lon="8.6708033"><ele>343.0</ele><time>2026-04-16T13:05:23.769Z</time></trkpt><trkpt lat="40.5536183" lon="8.670975"><ele>343.0</ele><time>2026-04-16T13:05:24.768Z</time></trkpt><trkpt lat="40.5534833" lon="8.67116"><ele>343.3333333333333</ele><time>2026-04-16T13:05:25.768Z</time></trkpt><trkpt lat="40.55334" lon="8.671345"><ele>343.6666666666667</ele><time>2026-04-16T13:05:26.769Z</time></trkpt><trkpt lat="40.5531983" lon="8.6715167"><ele>344.0</ele><time>2026-04-16T13:05:27.768Z</time></trkpt><trkpt lat="40.55308" lon="8.6716867"><ele>344.0</ele><time>2026-04-16T13:05:28.768Z</time></trkpt><trkpt lat="40.5529583" lon="8.671835"><ele>344.0</ele><time>2026-04-16T13:05:29.768Z</time></trkpt><trkpt lat="40.5528317" lon="8.6719667"><ele>344.0</ele><time>2026-04-16T13:05:30.768Z</time></trkpt><trkpt lat="40.5526967" lon="8.672085"><ele>344.6</ele><time>2026-04-16T13:05:31.769Z</time></trkpt><trkpt lat="40.5525933" lon="8.6721833"><ele>345.2</ele><time>2026-04-16T13:05:32.768Z</time></trkpt><trkpt lat="40.55251" lon="8.672245"><ele>345.8</ele><time>2026-04-16T13:05:33.769Z</time></trkpt><trkpt lat="40.5524333" lon="8.67227"><ele>346.40000000000003</ele><time>2026-04-16T13:05:34.769Z</time></trkpt><trkpt lat="40.5523433" lon="8.6722683"><ele>347.0</ele><time>2026-04-16T13:05:35.768Z</time></trkpt><trkpt lat="40.5522367" lon="8.6722567"><ele>347.0</ele><time>2026-04-16T13:05:36.768Z</time></trkpt><trkpt lat="40.5521233" lon="8.6722783"><ele>347.0</ele><time>2026-04-16T13:05:37.768Z</time></trkpt><trkpt lat="40.551995" lon="8.67234"><ele>347.0</ele><time>2026-04-16T13:05:38.769Z</time></trkpt><trkpt lat="40.5518567" lon="8.6724483"><ele>347.0</ele><time>2026-04-16T13:05:39.769Z</time></trkpt><trkpt lat="40.5517017" lon="8.6725733"><ele>345.0</ele><time>2026-04-16T13:05:40.769Z</time></trkpt><trkpt lat="40.5515517" lon="8.6726883"><ele>343.0</ele><time>2026-04-16T13:05:41.769Z</time></trkpt><trkpt lat="40.5514233" lon="8.6728"><ele>341.0</ele><time>2026-04-16T13:05:42.769Z</time></trkpt><trkpt lat="40.55129" lon="8.6729417"><ele>342.33333333333337</ele><time>2026-04-16T13:05:43.768Z</time></trkpt><trkpt lat="40.5511467" lon="8.6731133"><ele>343.6666666666667</ele><time>2026-04-16T13:05:44.769Z</time></trkpt><trkpt lat="40.5510033" lon="8.6732833"><ele>345.0</ele><time>2026-04-16T13:05:45.767Z</time></trkpt><trkpt lat="40.5508783" lon="8.67343"><ele>345.0</ele><time>2026-04-16T13:05:46.767Z</time></trkpt><trkpt lat="40.55077" lon="8.6735567"><ele>345.0</ele><time>2026-04-16T13:05:47.768Z</time></trkpt><trkpt lat="40.5506683" lon="8.673685"><ele>345.0</ele><time>2026-04-16T13:05:48.767Z</time></trkpt><trkpt lat="40.5505767" lon="8.6738267"><ele>345.0</ele><time>2026-04-16T13:05:49.768Z</time></trkpt><trkpt lat="40.550495" lon="8.6739933"><ele>345.0</ele><time>2026-04-16T13:05:50.768Z</time></trkpt><trkpt lat="40.5504267" lon="8.67416"><ele>345.0</ele><time>2026-04-16T13:05:51.767Z</time></trkpt><trkpt lat="40.55035" lon="8.6743067"><ele>345.0</ele><time>2026-04-16T13:05:52.767Z</time></trkpt><trkpt lat="40.5502683" lon="8.6744317"><ele>345.0</ele><time>2026-04-16T13:05:53.768Z</time></trkpt><trkpt lat="40.5502" lon="8.674565"><ele>344.6666666666667</ele><time>2026-04-16T13:05:54.768Z</time></trkpt><trkpt lat="40.550135" lon="8.6747417"><ele>344.33333333333337</ele><time>2026-04-16T13:05:55.767Z</time></trkpt><trkpt lat="40.55009" lon="8.67494"><ele>344.0</ele><time>2026-04-16T13:05:56.768Z</time></trkpt><trkpt lat="40.550045" lon="8.6751317"><ele>344.5</ele><time>2026-04-16T13:05:57.768Z</time></trkpt><trkpt lat="40.5499917" lon="8.6753083"><ele>345.0</ele><time>2026-04-16T13:05:58.767Z</time></trkpt><trkpt lat="40.549925" lon="8.6754667"><ele>345.5</ele><time>2026-04-16T13:05:59.768Z</time></trkpt><trkpt lat="40.5498683" lon="8.6756267"><ele>346.0</ele><time>2026-04-16T13:06:00.767Z</time></trkpt><trkpt lat="40.5498217" lon="8.67581"><ele>346.0</ele><time>2026-04-16T13:06:01.767Z</time></trkpt><trkpt lat="40.549785" lon="8.6759933"><ele>346.0</ele><time>2026-04-16T13:06:02.767Z</time></trkpt><trkpt lat="40.5497383" lon="8.676155"><ele>346.0</ele><time>2026-04-16T13:06:03.767Z</time></trkpt><trkpt lat="40.5496783" lon="8.676285"><ele>346.0</ele><time>2026-04-16T13:06:04.768Z</time></trkpt><trkpt lat="40.5496183" lon="8.6763633"><ele>346.5</ele><time>2026-04-16T13:06:05.767Z</time></trkpt><trkpt lat="40.5495583" lon="8.6764033"><ele>347.0</ele><time>2026-04-16T13:06:06.768Z</time></trkpt><trkpt lat="40.5494917" lon="8.6764"><ele>347.5</ele><time>2026-04-16T13:06:07.768Z</time></trkpt><trkpt lat="40.549425" lon="8.676355"><ele>348.0</ele><time>2026-04-16T13:06:08.768Z</time></trkpt><trkpt lat="40.5493583" lon="8.676285"><ele>348.5</ele><time>2026-04-16T13:06:09.768Z</time></trkpt><trkpt lat="40.5492983" lon="8.6762333"><ele>349.0</ele><time>2026-04-16T13:06:10.767Z</time></trkpt><trkpt lat="40.5491833" lon="8.6762883"><ele>348.0</ele><time>2026-04-16T13:06:12.767Z</time></trkpt><trkpt lat="40.5491233" lon="8.6763967"><ele>347.0</ele><time>2026-04-16T13:06:13.767Z</time></trkpt><trkpt lat="40.5490683" lon="8.676515"><ele>346.0</ele><time>2026-04-16T13:06:14.768Z</time></trkpt><trkpt lat="40.54904" lon="8.676645"><ele>345.0</ele><time>2026-04-16T13:06:15.768Z</time></trkpt><trkpt lat="40.54904" lon="8.6767817"><ele>344.0</ele><time>2026-04-16T13:06:16.768Z</time></trkpt><trkpt lat="40.549045" lon="8.6769367"><ele>344.0</ele><time>2026-04-16T13:06:17.767Z</time></trkpt><trkpt lat="40.54903" lon="8.67711"><ele>344.0</ele><time>2026-04-16T13:06:18.767Z</time></trkpt><trkpt lat="40.5489933" lon="8.6772983"><ele>344.0</ele><time>2026-04-16T13:06:19.768Z</time></trkpt><trkpt lat="40.548945" lon="8.67751"><ele>344.0</ele><time>2026-04-16T13:06:20.767Z</time></trkpt><trkpt lat="40.5489017" lon="8.6777317"><ele>346.0</ele><time>2026-04-16T13:06:21.767Z</time></trkpt><trkpt lat="40.54888" lon="8.6779433"><ele>348.0</ele><time>2026-04-16T13:06:22.768Z</time></trkpt><trkpt lat="40.5488733" lon="8.6781433"><ele>350.0</ele><time>2026-04-16T13:06:23.768Z</time></trkpt><trkpt lat="40.5488867" lon="8.6783567"><ele>350.0</ele><time>2026-04-16T13:06:24.767Z</time></trkpt><trkpt lat="40.54892" lon="8.6785883"><ele>350.0</ele><time>2026-04-16T13:06:25.767Z</time></trkpt><trkpt lat="40.5489733" lon="8.6788133"><ele>350.0</ele><time>2026-04-16T13:06:26.767Z</time></trkpt><trkpt lat="40.549015" lon="8.6790133"><ele>351.0</ele><time>2026-04-16T13:06:27.768Z</time></trkpt><trkpt lat="40.5490417" lon="8.6791917"><ele>352.0</ele><time>2026-04-16T13:06:28.767Z</time></trkpt><trkpt lat="40.5490417" lon="8.679355"><ele>353.0</ele><time>2026-04-16T13:06:29.768Z</time></trkpt><trkpt lat="40.54902" lon="8.6795133"><ele>354.0</ele><time>2026-04-16T13:06:30.767Z</time></trkpt><trkpt lat="40.54897" lon="8.6796783"><ele>354.25</ele><time>2026-04-16T13:06:31.768Z</time></trkpt><trkpt lat="40.5489033" lon="8.6798567"><ele>354.5</ele><time>2026-04-16T13:06:32.767Z</time></trkpt><trkpt lat="40.54885" lon="8.6800317"><ele>354.75</ele><time>2026-04-16T13:06:33.768Z</time></trkpt><trkpt lat="40.548805" lon="8.6801967"><ele>355.0</ele><time>2026-04-16T13:06:34.767Z</time></trkpt><trkpt lat="40.5487583" lon="8.68038"><ele>355.3333333333333</ele><time>2026-04-16T13:06:35.768Z</time></trkpt><trkpt lat="40.5486917" lon="8.6805967"><ele>355.6666666666667</ele><time>2026-04-16T13:06:36.767Z</time></trkpt><trkpt lat="40.5486167" lon="8.6808267"><ele>356.0</ele><time>2026-04-16T13:06:37.767Z</time></trkpt><trkpt lat="40.5485383" lon="8.6810583"><ele>355.0</ele><time>2026-04-16T13:06:38.768Z</time></trkpt><trkpt lat="40.5484683" lon="8.6812917"><ele>354.0</ele><time>2026-04-16T13:06:39.768Z</time></trkpt><trkpt lat="40.548395" lon="8.681515"><ele>353.0</ele><time>2026-04-16T13:06:40.767Z</time></trkpt><trkpt lat="40.5483183" lon="8.681725"><ele>356.6666666666667</ele><time>2026-04-16T13:06:41.768Z</time></trkpt><trkpt lat="40.5482267" lon="8.681935"><ele>360.3333333333333</ele><time>2026-04-16T13:06:42.767Z</time></trkpt><trkpt lat="40.5481233" lon="8.68215"><ele>364.0</ele><time>2026-04-16T13:06:43.767Z</time></trkpt><trkpt lat="40.548025" lon="8.6823633"><ele>364.0</ele><time>2026-04-16T13:06:44.768Z</time></trkpt><trkpt lat="40.5479267" lon="8.68256"><ele>364.0</ele><time>2026-04-16T13:06:45.768Z</time></trkpt><trkpt lat="40.5478267" lon="8.6827583"><ele>364.0</ele><time>2026-04-16T13:06:46.768Z</time></trkpt><trkpt lat="40.547735" lon="8.68296"><ele>363.3333333333333</ele><time>2026-04-16T13:06:47.768Z</time></trkpt><trkpt lat="40.5476417" lon="8.6831533"><ele>362.6666666666667</ele><time>2026-04-16T13:06:48.768Z</time></trkpt><trkpt lat="40.5475483" lon="8.6833233"><ele>362.0</ele><time>2026-04-16T13:06:49.768Z</time></trkpt><trkpt lat="40.54743" lon="8.6834583"><ele>362.0</ele><time>2026-04-16T13:06:50.768Z</time></trkpt><trkpt lat="40.5472967" lon="8.6835817"><ele>362.0</ele><time>2026-04-16T13:06:51.767Z</time></trkpt><trkpt lat="40.5471533" lon="8.6837083"><ele>362.0</ele><time>2026-04-16T13:06:52.768Z</time></trkpt><trkpt lat="40.5470117" lon="8.6838667"><ele>364.33333333333337</ele><time>2026-04-16T13:06:53.768Z</time></trkpt><trkpt lat="40.5468883" lon="8.6840183"><ele>366.6666666666667</ele><time>2026-04-16T13:06:54.768Z</time></trkpt><trkpt lat="40.5467667" lon="8.6841483"><ele>369.0</ele><time>2026-04-16T13:06:55.768Z</time></trkpt><trkpt lat="40.54666" lon="8.684275"><ele>369.0</ele><time>2026-04-16T13:06:56.768Z</time></trkpt><trkpt lat="40.546565" lon="8.6844183"><ele>369.0</ele><time>2026-04-16T13:06:57.768Z</time></trkpt><trkpt lat="40.5464783" lon="8.68459"><ele>369.0</ele><time>2026-04-16T13:06:58.767Z</time></trkpt><trkpt lat="40.5464083" lon="8.6847717"><ele>372.6666666666667</ele><time>2026-04-16T13:06:59.767Z</time></trkpt><trkpt lat="40.5463517" lon="8.6849767"><ele>376.33333333333337</ele><time>2026-04-16T13:07:00.768Z</time></trkpt><trkpt lat="40.5463083" lon="8.6852183"><ele>380.0</ele><time>2026-04-16T13:07:01.768Z</time></trkpt><trkpt lat="40.5462667" lon="8.685455"><ele>382.6666666666667</ele><time>2026-04-16T13:07:02.767Z</time></trkpt><trkpt lat="40.5462267" lon="8.6856683"><ele>385.33333333333337</ele><time>2026-04-16T13:07:03.767Z</time></trkpt><trkpt lat="40.54618" lon="8.6858717"><ele>388.0</ele><time>2026-04-16T13:07:04.768Z</time></trkpt><trkpt lat="40.5461067" lon="8.6860867"><ele>384.6666666666667</ele><time>2026-04-16T13:07:05.768Z</time></trkpt><trkpt lat="40.546025" lon="8.6863017"><ele>381.33333333333337</ele><time>2026-04-16T13:07:06.768Z</time></trkpt><trkpt lat="40.545945" lon="8.6865067"><ele>378.0</ele><time>2026-04-16T13:07:07.768Z</time></trkpt><trkpt lat="40.5458783" lon="8.6866633"><ele>378.0</ele><time>2026-04-16T13:07:08.767Z</time></trkpt><trkpt lat="40.5458333" lon="8.6867817"><ele>378.0</ele><time>2026-04-16T13:07:09.767Z</time></trkpt><trkpt lat="40.54581" lon="8.6869233"><ele>378.0</ele><time>2026-04-16T13:07:11.768Z</time></trkpt><trkpt lat="40.54588" lon="8.686945"><ele>378.0</ele><time>2026-04-16T13:07:14.767Z</time></trkpt><trkpt lat="40.5459567" lon="8.6868283"><ele>378.0</ele><time>2026-04-16T13:07:16.768Z</time></trkpt><trkpt lat="40.54602" lon="8.6867583"><ele>378.0</ele><time>2026-04-16T13:07:17.768Z</time></trkpt><trkpt lat="40.5461017" lon="8.6867017"><ele>378.0</ele><time>2026-04-16T13:07:18.767Z</time></trkpt><trkpt lat="40.5461983" lon="8.6866767"><ele>378.0</ele><time>2026-04-16T13:07:19.768Z</time></trkpt><trkpt lat="40.546305" lon="8.686665"><ele>378.0</ele><time>2026-04-16T13:07:20.767Z</time></trkpt><trkpt lat="40.5464117" lon="8.6866333"><ele>378.0</ele><time>2026-04-16T13:07:21.768Z</time></trkpt><trkpt lat="40.5465017" lon="8.68657"><ele>380.59999999999997</ele><time>2026-04-16T13:07:22.768Z</time></trkpt><trkpt lat="40.5465767" lon="8.6864983"><ele>383.2</ele><time>2026-04-16T13:07:23.768Z</time></trkpt><trkpt lat="40.5466567" lon="8.6864133"><ele>385.8</ele><time>2026-04-16T13:07:24.767Z</time></trkpt><trkpt lat="40.5467517" lon="8.68633"><ele>388.4</ele><time>2026-04-16T13:07:25.768Z</time></trkpt><trkpt lat="40.5468567" lon="8.6862583"><ele>391.0</ele><time>2026-04-16T13:07:26.767Z</time></trkpt><trkpt lat="40.54697" lon="8.6861983"><ele>393.20000000000005</ele><time>2026-04-16T13:07:27.768Z</time></trkpt><trkpt lat="40.54708" lon="8.6861383"><ele>395.40000000000003</ele><time>2026-04-16T13:07:28.768Z</time></trkpt><trkpt lat="40.547175" lon="8.6860717"><ele>397.6</ele><time>2026-04-16T13:07:29.768Z</time></trkpt><trkpt lat="40.5472683" lon="8.6860033"><ele>399.8</ele><time>2026-04-16T13:07:30.767Z</time></trkpt><trkpt lat="40.547365" lon="8.6859417"><ele>402.0</ele><time>2026-04-16T13:07:31.768Z</time></trkpt><trkpt lat="40.5474667" lon="8.6858917"><ele>402.0</ele><time>2026-04-16T13:07:32.767Z</time></trkpt><trkpt lat="40.5475867" lon="8.6858583"><ele>402.0</ele><time>2026-04-16T13:07:33.767Z</time></trkpt><trkpt lat="40.5477083" lon="8.6858283"><ele>402.0</ele><time>2026-04-16T13:07:34.768Z</time></trkpt><trkpt lat="40.54784" lon="8.6857967"><ele>402.0</ele><time>2026-04-16T13:07:35.767Z</time></trkpt><trkpt lat="40.5479517" lon="8.6857567"><ele>403.40000000000003</ele><time>2026-04-16T13:07:36.768Z</time></trkpt><trkpt lat="40.548055" lon="8.6856967"><ele>404.8</ele><time>2026-04-16T13:07:37.768Z</time></trkpt><trkpt lat="40.5481467" lon="8.6856333"><ele>406.2</ele><time>2026-04-16T13:07:38.768Z</time></trkpt><trkpt lat="40.5482367" lon="8.68559"><ele>407.6</ele><time>2026-04-16T13:07:39.768Z</time></trkpt><trkpt lat="40.548335" lon="8.6855683"><ele>409.0</ele><time>2026-04-16T13:07:40.768Z</time></trkpt><trkpt lat="40.54844" lon="8.6855483"><ele>409.0</ele><time>2026-04-16T13:07:41.767Z</time></trkpt><trkpt lat="40.5485467" lon="8.6855333"><ele>409.0</ele><time>2026-04-16T13:07:42.767Z</time></trkpt><trkpt lat="40.5486583" lon="8.68553"><ele>409.0</ele><time>2026-04-16T13:07:43.767Z</time></trkpt><trkpt lat="40.5487717" lon="8.6855283"><ele>409.0</ele><time>2026-04-16T13:07:44.767Z</time></trkpt><trkpt lat="40.54889" lon="8.685525"><ele>410.0</ele><time>2026-04-16T13:07:45.768Z</time></trkpt><trkpt lat="40.549015" lon="8.6855133"><ele>411.0</ele><time>2026-04-16T13:07:46.767Z</time></trkpt><trkpt lat="40.5491233" lon="8.6855"><ele>412.0</ele><time>2026-04-16T13:07:47.768Z</time></trkpt><trkpt lat="40.5492233" lon="8.68551"><ele>413.0</ele><time>2026-04-16T13:07:48.768Z</time></trkpt><trkpt lat="40.5493117" lon="8.68553"><ele>414.0</ele><time>2026-04-16T13:07:49.768Z</time></trkpt><trkpt lat="40.5494033" lon="8.6855817"><ele>414.0</ele><time>2026-04-16T13:07:50.768Z</time></trkpt><trkpt lat="40.5495067" lon="8.6856533"><ele>414.0</ele><time>2026-04-16T13:07:51.767Z</time></trkpt><trkpt lat="40.5496183" lon="8.6857217"><ele>414.0</ele><time>2026-04-16T13:07:52.768Z</time></trkpt><trkpt lat="40.5497433" lon="8.685785"><ele>414.0</ele><time>2026-04-16T13:07:53.768Z</time></trkpt><trkpt lat="40.549865" lon="8.6858533"><ele>415.25</ele><time>2026-04-16T13:07:54.767Z</time></trkpt><trkpt lat="40.549985" lon="8.685925"><ele>416.5</ele><time>2026-04-16T13:07:55.767Z</time></trkpt><trkpt lat="40.5501133" lon="8.68599"><ele>417.75</ele><time>2026-04-16T13:07:56.767Z</time></trkpt><trkpt lat="40.55025" lon="8.68605"><ele>419.0</ele><time>2026-04-16T13:07:57.768Z</time></trkpt><trkpt lat="40.5503883" lon="8.6861"><ele>419.0</ele><time>2026-04-16T13:07:58.768Z</time></trkpt><trkpt lat="40.5505267" lon="8.6861533"><ele>419.0</ele><time>2026-04-16T13:07:59.767Z</time></trkpt><trkpt lat="40.5506483" lon="8.68621"><ele>419.0</ele><time>2026-04-16T13:08:00.767Z</time></trkpt><trkpt lat="40.5507517" lon="8.6862617"><ele>419.0</ele><time>2026-04-16T13:08:01.767Z</time></trkpt><trkpt lat="40.5508367" lon="8.6863167"><ele>419.0</ele><time>2026-04-16T13:08:02.767Z</time></trkpt><trkpt lat="40.5509183" lon="8.6864017"><ele>419.0</ele><time>2026-04-16T13:08:03.767Z</time></trkpt><trkpt lat="40.5510067" lon="8.686495"><ele>419.0</ele><time>2026-04-16T13:08:04.768Z</time></trkpt><trkpt lat="40.5511183" lon="8.686595"><ele>419.0</ele><time>2026-04-16T13:08:05.767Z</time></trkpt><trkpt lat="40.5512417" lon="8.6866767"><ele>419.75</ele><time>2026-04-16T13:08:06.768Z</time></trkpt><trkpt lat="40.5513717" lon="8.6867533"><ele>420.5</ele><time>2026-04-16T13:08:07.768Z</time></trkpt><trkpt lat="40.551495" lon="8.686825"><ele>421.25</ele><time>2026-04-16T13:08:08.767Z</time></trkpt><trkpt lat="40.5516033" lon="8.6868917"><ele>422.0</ele><time>2026-04-16T13:08:09.768Z</time></trkpt><trkpt lat="40.5517017" lon="8.686955"><ele>421.99999999999994</ele><time>2026-04-16T13:08:10.768Z</time></trkpt><trkpt lat="40.5517817" lon="8.68703"><ele>422.0</ele><time>2026-04-16T13:08:11.768Z</time></trkpt><trkpt lat="40.5518433" lon="8.6871133"><ele>422.0</ele><time>2026-04-16T13:08:12.767Z</time></trkpt><trkpt lat="40.5518967" lon="8.6871933"><ele>422.0</ele><time>2026-04-16T13:08:13.768Z</time></trkpt><trkpt lat="40.551955" lon="8.687265"><ele>421.99999999999994</ele><time>2026-04-16T13:08:14.767Z</time></trkpt><trkpt lat="40.5520333" lon="8.687325"><ele>422.0</ele><time>2026-04-16T13:08:15.767Z</time></trkpt><trkpt lat="40.55212" lon="8.6873783"><ele>420.8</ele><time>2026-04-16T13:08:16.768Z</time></trkpt><trkpt lat="40.5522017" lon="8.6874467"><ele>419.6</ele><time>2026-04-16T13:08:17.768Z</time></trkpt><trkpt lat="40.5522817" lon="8.6875133"><ele>418.40000000000003</ele><time>2026-04-16T13:08:18.768Z</time></trkpt><trkpt lat="40.55237" lon="8.6875617"><ele>417.20000000000005</ele><time>2026-04-16T13:08:19.768Z</time></trkpt><trkpt lat="40.55247" lon="8.687575"><ele>416.0</ele><time>2026-04-16T13:08:20.768Z</time></trkpt><trkpt lat="40.552575" lon="8.687555"><ele>416.0</ele><time>2026-04-16T13:08:21.768Z</time></trkpt><trkpt lat="40.5526833" lon="8.687515"><ele>416.0</ele><time>2026-04-16T13:08:22.768Z</time></trkpt><trkpt lat="40.552795" lon="8.6874533"><ele>416.0</ele><time>2026-04-16T13:08:23.767Z</time></trkpt><trkpt lat="40.5529117" lon="8.6873683"><ele>416.0</ele><time>2026-04-16T13:08:24.768Z</time></trkpt><trkpt lat="40.5530267" lon="8.6872717"><ele>419.25</ele><time>2026-04-16T13:08:25.768Z</time></trkpt><trkpt lat="40.5531483" lon="8.6871767"><ele>422.5</ele><time>2026-04-16T13:08:26.768Z</time></trkpt><trkpt lat="40.5532717" lon="8.6870917"><ele>425.75</ele><time>2026-04-16T13:08:27.768Z</time></trkpt><trkpt lat="40.5534117" lon="8.6870117"><ele>429.0</ele><time>2026-04-16T13:08:28.767Z</time></trkpt><trkpt lat="40.55353" lon="8.6869283"><ele>428.5</ele><time>2026-04-16T13:08:29.767Z</time></trkpt><trkpt lat="40.55365" lon="8.6868517"><ele>428.0</ele><time>2026-04-16T13:08:30.767Z</time></trkpt><trkpt lat="40.5537617" lon="8.6867983"><ele>427.5</ele><time>2026-04-16T13:08:31.767Z</time></trkpt><trkpt lat="40.5538633" lon="8.6867567"><ele>427.0</ele><time>2026-04-16T13:08:32.766Z</time></trkpt><trkpt lat="40.5539633" lon="8.6867267"><ele>427.00000000000006</ele><time>2026-04-16T13:08:33.767Z</time></trkpt><trkpt lat="40.5540517" lon="8.6867167"><ele>427.0</ele><time>2026-04-16T13:08:34.767Z</time></trkpt><trkpt lat="40.5541217" lon="8.686735"><ele>427.0</ele><time>2026-04-16T13:08:35.767Z</time></trkpt><trkpt lat="40.554185" lon="8.6867733"><ele>427.0</ele><time>2026-04-16T13:08:36.766Z</time></trkpt><trkpt lat="40.5542417" lon="8.6868167"><ele>427.00000000000006</ele><time>2026-04-16T13:08:37.767Z</time></trkpt><trkpt lat="40.5543283" lon="8.686865"><ele>427.0</ele><time>2026-04-16T13:08:39.766Z</time></trkpt><trkpt lat="40.5543983" lon="8.686925"><ele>428.40000000000003</ele><time>2026-04-16T13:08:42.767Z</time></trkpt><trkpt lat="40.5544667" lon="8.687015"><ele>429.80000000000007</ele><time>2026-04-16T13:08:47.766Z</time></trkpt><trkpt lat="40.5545333" lon="8.687105"><ele>431.2</ele><time>2026-04-16T13:08:49.766Z</time></trkpt><trkpt lat="40.5546317" lon="8.687205"><ele>432.6</ele><time>2026-04-16T13:08:51.766Z</time></trkpt><trkpt lat="40.55469" lon="8.68726"><ele>434.0</ele><time>2026-04-16T13:08:52.767Z</time></trkpt><trkpt lat="40.5547517" lon="8.6873267"><ele>434.0</ele><time>2026-04-16T13:08:53.766Z</time></trkpt><trkpt lat="40.55482" lon="8.6873917"><ele>434.0</ele><time>2026-04-16T13:08:54.766Z</time></trkpt><trkpt lat="40.554885" lon="8.6874567"><ele>434.0</ele><time>2026-04-16T13:08:55.767Z</time></trkpt><trkpt lat="40.5549633" lon="8.6875017"><ele>434.0</ele><time>2026-04-16T13:08:56.767Z</time></trkpt><trkpt lat="40.555065" lon="8.6875367"><ele>434.0</ele><time>2026-04-16T13:08:57.766Z</time></trkpt><trkpt lat="40.555165" lon="8.6875717"><ele>434.0</ele><time>2026-04-16T13:08:58.767Z</time></trkpt><trkpt lat="40.5552683" lon="8.6876367"><ele>434.0</ele><time>2026-04-16T13:08:59.767Z</time></trkpt><trkpt lat="40.5553717" lon="8.6877"><ele>434.0</ele><time>2026-04-16T13:09:00.767Z</time></trkpt><trkpt lat="40.5554783" lon="8.6877417"><ele>434.0</ele><time>2026-04-16T13:09:01.767Z</time></trkpt><trkpt lat="40.55559" lon="8.6877633"><ele>434.79999999999995</ele><time>2026-04-16T13:09:02.766Z</time></trkpt><trkpt lat="40.5557017" lon="8.6877767"><ele>435.59999999999997</ele><time>2026-04-16T13:09:03.767Z</time></trkpt><trkpt lat="40.5558" lon="8.6877817"><ele>436.4</ele><time>2026-04-16T13:09:04.767Z</time></trkpt><trkpt lat="40.5559017" lon="8.687805"><ele>437.2</ele><time>2026-04-16T13:09:05.766Z</time></trkpt><trkpt lat="40.5560167" lon="8.6878267"><ele>438.0</ele><time>2026-04-16T13:09:06.767Z</time></trkpt><trkpt lat="40.55613" lon="8.68785"><ele>438.0</ele><time>2026-04-16T13:09:07.766Z</time></trkpt><trkpt lat="40.5562533" lon="8.687845"><ele>438.0</ele><time>2026-04-16T13:09:08.767Z</time></trkpt><trkpt lat="40.5563883" lon="8.6878367"><ele>438.0</ele><time>2026-04-16T13:09:09.767Z</time></trkpt><trkpt lat="40.5565133" lon="8.687835"><ele>438.0</ele><time>2026-04-16T13:09:10.767Z</time></trkpt><trkpt lat="40.5566217" lon="8.6878367"><ele>438.0</ele><time>2026-04-16T13:09:11.767Z</time></trkpt><trkpt lat="40.556725" lon="8.6878533"><ele>438.0</ele><time>2026-04-16T13:09:12.767Z</time></trkpt><trkpt lat="40.556835" lon="8.68789"><ele>438.0</ele><time>2026-04-16T13:09:13.767Z</time></trkpt><trkpt lat="40.5569417" lon="8.6879567"><ele>438.0</ele><time>2026-04-16T13:09:14.767Z</time></trkpt><trkpt lat="40.5570517" lon="8.6880333"><ele>438.75</ele><time>2026-04-16T13:09:15.767Z</time></trkpt><trkpt lat="40.5571617" lon="8.6881267"><ele>439.5</ele><time>2026-04-16T13:09:16.766Z</time></trkpt><trkpt lat="40.5572783" lon="8.6882267"><ele>440.25</ele><time>2026-04-16T13:09:17.767Z</time></trkpt><trkpt lat="40.5573883" lon="8.68834"><ele>441.0</ele><time>2026-04-16T13:09:18.767Z</time></trkpt><trkpt lat="40.5574967" lon="8.6884583"><ele>441.0</ele><time>2026-04-16T13:09:19.767Z</time></trkpt><trkpt lat="40.5575933" lon="8.688575"><ele>441.0</ele><time>2026-04-16T13:09:20.766Z</time></trkpt><trkpt lat="40.5577033" lon="8.688685"><ele>441.0</ele><time>2026-04-16T13:09:21.766Z</time></trkpt><trkpt lat="40.557815" lon="8.6887967"><ele>441.0</ele><time>2026-04-16T13:09:22.766Z</time></trkpt><trkpt lat="40.5579267" lon="8.6889083"><ele>442.75</ele><time>2026-04-16T13:09:23.767Z</time></trkpt><trkpt lat="40.5580383" lon="8.6890267"><ele>444.5</ele><time>2026-04-16T13:09:24.766Z</time></trkpt><trkpt lat="40.55815" lon="8.6891433"><ele>446.25</ele><time>2026-04-16T13:09:25.767Z</time></trkpt><trkpt lat="40.5582633" lon="8.6892583"><ele>448.0</ele><time>2026-04-16T13:09:26.766Z</time></trkpt><trkpt lat="40.5583733" lon="8.6893617"><ele>448.5</ele><time>2026-04-16T13:09:27.766Z</time></trkpt><trkpt lat="40.558475" lon="8.689465"><ele>449.0</ele><time>2026-04-16T13:09:28.767Z</time></trkpt><trkpt lat="40.5585767" lon="8.6895683"><ele>449.5</ele><time>2026-04-16T13:09:29.766Z</time></trkpt><trkpt lat="40.5586683" lon="8.6896733"><ele>450.0</ele><time>2026-04-16T13:09:30.766Z</time></trkpt><trkpt lat="40.55877" lon="8.689775"><ele>451.0</ele><time>2026-04-16T13:09:31.766Z</time></trkpt><trkpt lat="40.558875" lon="8.6898733"><ele>452.0</ele><time>2026-04-16T13:09:32.766Z</time></trkpt><trkpt lat="40.5589883" lon="8.6899633"><ele>453.0</ele><time>2026-04-16T13:09:33.767Z</time></trkpt><trkpt lat="40.5591033" lon="8.690045"><ele>454.0</ele><time>2026-04-16T13:09:34.767Z</time></trkpt><trkpt lat="40.5592233" lon="8.690115"><ele>454.0</ele><time>2026-04-16T13:09:35.767Z</time></trkpt><trkpt lat="40.5593483" lon="8.6901683"><ele>454.0</ele><time>2026-04-16T13:09:36.767Z</time></trkpt><trkpt lat="40.559475" lon="8.6902033"><ele>454.0</ele><time>2026-04-16T13:09:37.767Z</time></trkpt><trkpt lat="40.5595967" lon="8.6902317"><ele>454.0</ele><time>2026-04-16T13:09:38.766Z</time></trkpt><trkpt lat="40.5597167" lon="8.69027"><ele>455.5</ele><time>2026-04-16T13:09:39.767Z</time></trkpt><trkpt lat="40.5598317" lon="8.6903217"><ele>457.0</ele><time>2026-04-16T13:09:40.767Z</time></trkpt><trkpt lat="40.559955" lon="8.6903817"><ele>458.5</ele><time>2026-04-16T13:09:41.766Z</time></trkpt><trkpt lat="40.5600867" lon="8.6904467"><ele>460.0</ele><time>2026-04-16T13:09:42.767Z</time></trkpt><trkpt lat="40.56022" lon="8.6905183"><ele>460.0</ele><time>2026-04-16T13:09:43.767Z</time></trkpt><trkpt lat="40.560355" lon="8.690595"><ele>460.0</ele><time>2026-04-16T13:09:44.767Z</time></trkpt><trkpt lat="40.56049" lon="8.6906633"><ele>460.0</ele><time>2026-04-16T13:09:45.767Z</time></trkpt><trkpt lat="40.56062" lon="8.6907167"><ele>460.0</ele><time>2026-04-16T13:09:46.766Z</time></trkpt><trkpt lat="40.5607467" lon="8.69077"><ele>460.4</ele><time>2026-04-16T13:09:47.767Z</time></trkpt><trkpt lat="40.560865" lon="8.6908217"><ele>460.8</ele><time>2026-04-16T13:09:48.767Z</time></trkpt><trkpt lat="40.5609667" lon="8.6908683"><ele>461.20000000000005</ele><time>2026-04-16T13:09:49.766Z</time></trkpt><trkpt lat="40.5610483" lon="8.69089"><ele>461.6</ele><time>2026-04-16T13:09:50.767Z</time></trkpt><trkpt lat="40.5611483" lon="8.690835"><ele>462.0</ele><time>2026-04-16T13:09:52.767Z</time></trkpt><trkpt lat="40.5612117" lon="8.69069"><ele>462.8</ele><time>2026-04-16T13:09:54.767Z</time></trkpt><trkpt lat="40.5612717" lon="8.6906267"><ele>463.6</ele><time>2026-04-16T13:09:55.766Z</time></trkpt><trkpt lat="40.561355" lon="8.6905633"><ele>464.40000000000003</ele><time>2026-04-16T13:09:56.767Z</time></trkpt><trkpt lat="40.5614467" lon="8.6904883"><ele>465.20000000000005</ele><time>2026-04-16T13:09:57.767Z</time></trkpt><trkpt lat="40.5615533" lon="8.6904"><ele>466.0</ele><time>2026-04-16T13:09:58.766Z</time></trkpt><trkpt lat="40.56167" lon="8.6903067"><ele>465.6666666666667</ele><time>2026-04-16T13:09:59.767Z</time></trkpt><trkpt lat="40.5617933" lon="8.6902033"><ele>465.33333333333337</ele><time>2026-04-16T13:10:00.767Z</time></trkpt><trkpt lat="40.561925" lon="8.69009"><ele>465.0</ele><time>2026-04-16T13:10:01.767Z</time></trkpt><trkpt lat="40.5620567" lon="8.6899767"><ele>465.0</ele><time>2026-04-16T13:10:02.767Z</time></trkpt><trkpt lat="40.562185" lon="8.6898683"><ele>465.0</ele><time>2026-04-16T13:10:03.767Z</time></trkpt><trkpt lat="40.5623117" lon="8.6897633"><ele>465.0</ele><time>2026-04-16T13:10:04.767Z</time></trkpt><trkpt lat="40.5624233" lon="8.68967"><ele>465.0</ele><time>2026-04-16T13:10:05.766Z</time></trkpt><trkpt lat="40.5625133" lon="8.6896033"><ele>465.0</ele><time>2026-04-16T13:10:06.767Z</time></trkpt><trkpt lat="40.5625933" lon="8.689575"><ele>465.0</ele><time>2026-04-16T13:10:07.766Z</time></trkpt><trkpt lat="40.5626883" lon="8.68958"><ele>465.0</ele><time>2026-04-16T13:10:08.767Z</time></trkpt><trkpt lat="40.5627933" lon="8.68957"><ele>465.0</ele><time>2026-04-16T13:10:09.767Z</time></trkpt><trkpt lat="40.5629083" lon="8.6895567"><ele>465.0</ele><time>2026-04-16T13:10:10.766Z</time></trkpt><trkpt lat="40.5630283" lon="8.6895467"><ele>466.75</ele><time>2026-04-16T13:10:11.767Z</time></trkpt><trkpt lat="40.5631517" lon="8.689545"><ele>468.5</ele><time>2026-04-16T13:10:12.767Z</time></trkpt><trkpt lat="40.5632683" lon="8.6895517"><ele>470.25</ele><time>2026-04-16T13:10:13.767Z</time></trkpt><trkpt lat="40.563385" lon="8.6895567"><ele>472.0</ele><time>2026-04-16T13:10:14.767Z</time></trkpt><trkpt lat="40.5635" lon="8.6895617"><ele>472.0</ele><time>2026-04-16T13:10:15.767Z</time></trkpt><trkpt lat="40.563605" lon="8.6895617"><ele>472.00000000000006</ele><time>2026-04-16T13:10:16.766Z</time></trkpt><trkpt lat="40.5637117" lon="8.6895733"><ele>472.00000000000006</ele><time>2026-04-16T13:10:17.766Z</time></trkpt><trkpt lat="40.563815" lon="8.6895917"><ele>472.0</ele><time>2026-04-16T13:10:18.766Z</time></trkpt><trkpt lat="40.563935" lon="8.6896217"><ele>472.0</ele><time>2026-04-16T13:10:19.766Z</time></trkpt><trkpt lat="40.5640667" lon="8.6896667"><ele>472.0</ele><time>2026-04-16T13:10:20.766Z</time></trkpt><trkpt lat="40.564195" lon="8.6897117"><ele>472.0</ele><time>2026-04-16T13:10:21.766Z</time></trkpt><trkpt lat="40.5643433" lon="8.68976"><ele>472.0</ele><time>2026-04-16T13:10:22.767Z</time></trkpt><trkpt lat="40.5644767" lon="8.689805"><ele>472.0</ele><time>2026-04-16T13:10:23.767Z</time></trkpt><trkpt lat="40.56462" lon="8.6898417"><ele>471.0</ele><time>2026-04-16T13:10:24.767Z</time></trkpt><trkpt lat="40.5647683" lon="8.6898517"><ele>470.0</ele><time>2026-04-16T13:10:25.767Z</time></trkpt><trkpt lat="40.5649067" lon="8.68984"><ele>469.0</ele><time>2026-04-16T13:10:26.767Z</time></trkpt><trkpt lat="40.56503" lon="8.68981"><ele>468.0</ele><time>2026-04-16T13:10:27.767Z</time></trkpt><trkpt lat="40.565155" lon="8.6897567"><ele>468.0</ele><time>2026-04-16T13:10:28.767Z</time></trkpt><trkpt lat="40.5652767" lon="8.689715"><ele>468.0</ele><time>2026-04-16T13:10:29.766Z</time></trkpt><trkpt lat="40.5653933" lon="8.6896783"><ele>468.0</ele><time>2026-04-16T13:10:30.766Z</time></trkpt><trkpt lat="40.5655133" lon="8.6896533"><ele>468.0</ele><time>2026-04-16T13:10:31.766Z</time></trkpt><trkpt lat="40.5656183" lon="8.6896417"><ele>467.75</ele><time>2026-04-16T13:10:32.766Z</time></trkpt><trkpt lat="40.5657283" lon="8.6896417"><ele>467.5</ele><time>2026-04-16T13:10:33.766Z</time></trkpt><trkpt lat="40.5658367" lon="8.6896667"><ele>467.25</ele><time>2026-04-16T13:10:34.766Z</time></trkpt><trkpt lat="40.5659567" lon="8.6897017"><ele>467.0</ele><time>2026-04-16T13:10:35.767Z</time></trkpt><trkpt lat="40.56609" lon="8.6897333"><ele>464.75</ele><time>2026-04-16T13:10:36.766Z</time></trkpt><trkpt lat="40.56623" lon="8.6897517"><ele>462.5</ele><time>2026-04-16T13:10:37.767Z</time></trkpt><trkpt lat="40.5663633" lon="8.6897617"><ele>460.25</ele><time>2026-04-16T13:10:38.766Z</time></trkpt><trkpt lat="40.5664917" lon="8.68978"><ele>458.0</ele><time>2026-04-16T13:10:39.767Z</time></trkpt><trkpt lat="40.5666183" lon="8.689815"><ele>458.0</ele><time>2026-04-16T13:10:40.767Z</time></trkpt><trkpt lat="40.566745" lon="8.68986"><ele>458.0</ele><time>2026-04-16T13:10:41.767Z</time></trkpt><trkpt lat="40.566865" lon="8.6899133"><ele>458.0</ele><time>2026-04-16T13:10:42.767Z</time></trkpt><trkpt lat="40.5669917" lon="8.6899867"><ele>458.0</ele><time>2026-04-16T13:10:43.767Z</time></trkpt><trkpt lat="40.5671267" lon="8.6900717"><ele>460.0</ele><time>2026-04-16T13:10:44.766Z</time></trkpt><trkpt lat="40.5672617" lon="8.6901567"><ele>462.0</ele><time>2026-04-16T13:10:45.767Z</time></trkpt><trkpt lat="40.5673867" lon="8.690235"><ele>464.0</ele><time>2026-04-16T13:10:46.767Z</time></trkpt><trkpt lat="40.5675167" lon="8.6903033"><ele>466.0</ele><time>2026-04-16T13:10:47.766Z</time></trkpt><trkpt lat="40.5676267" lon="8.690375"><ele>466.0</ele><time>2026-04-16T13:10:48.767Z</time></trkpt><trkpt lat="40.56774" lon="8.6904467"><ele>466.0</ele><time>2026-04-16T13:10:49.767Z</time></trkpt><trkpt lat="40.5678517" lon="8.69052"><ele>466.0</ele><time>2026-04-16T13:10:50.767Z</time></trkpt><trkpt lat="40.567955" lon="8.690605"><ele>466.0</ele><time>2026-04-16T13:10:51.766Z</time></trkpt><trkpt lat="40.5680667" lon="8.6907033"><ele>461.0</ele><time>2026-04-16T13:10:52.767Z</time></trkpt><trkpt lat="40.56819" lon="8.6908"><ele>456.0</ele><time>2026-04-16T13:10:53.767Z</time></trkpt><trkpt lat="40.56832" lon="8.6908883"><ele>451.0</ele><time>2026-04-16T13:10:54.766Z</time></trkpt><trkpt lat="40.5684583" lon="8.690985"><ele>446.0</ele><time>2026-04-16T13:10:55.766Z</time></trkpt><trkpt lat="40.5685933" lon="8.6910817"><ele>445.25</ele><time>2026-04-16T13:10:56.767Z</time></trkpt><trkpt lat="40.5687233" lon="8.6911783"><ele>444.5</ele><time>2026-04-16T13:10:57.767Z</time></trkpt><trkpt lat="40.5688483" lon="8.6912683"><ele>443.75</ele><time>2026-04-16T13:10:58.767Z</time></trkpt><trkpt lat="40.5689533" lon="8.6913683"><ele>443.0</ele><time>2026-04-16T13:10:59.766Z</time></trkpt><trkpt lat="40.5690683" lon="8.6914783"><ele>443.0</ele><time>2026-04-16T13:11:00.767Z</time></trkpt><trkpt lat="40.5691667" lon="8.691595"><ele>443.0</ele><time>2026-04-16T13:11:01.767Z</time></trkpt><trkpt lat="40.5692583" lon="8.6917133"><ele>443.0</ele><time>2026-04-16T13:11:02.767Z</time></trkpt><trkpt lat="40.5693467" lon="8.6918267"><ele>443.0</ele><time>2026-04-16T13:11:03.767Z</time></trkpt><trkpt lat="40.5694433" lon="8.6919317"><ele>441.0</ele><time>2026-04-16T13:11:04.767Z</time></trkpt><trkpt lat="40.569545" lon="8.6920233"><ele>439.0</ele><time>2026-04-16T13:11:05.767Z</time></trkpt><trkpt lat="40.5696383" lon="8.692115"><ele>437.0</ele><time>2026-04-16T13:11:06.767Z</time></trkpt><trkpt lat="40.56972" lon="8.6922367"><ele>435.0</ele><time>2026-04-16T13:11:07.766Z</time></trkpt><trkpt lat="40.569805" lon="8.692365"><ele>435.0</ele><time>2026-04-16T13:11:08.767Z</time></trkpt><trkpt lat="40.56986" lon="8.69248"><ele>435.0</ele><time>2026-04-16T13:11:09.766Z</time></trkpt><trkpt lat="40.5699017" lon="8.6925667"><ele>435.0</ele><time>2026-04-16T13:11:10.766Z</time></trkpt><trkpt lat="40.5699367" lon="8.6926567"><ele>435.0</ele><time>2026-04-16T13:11:11.767Z</time></trkpt><trkpt lat="40.5699733" lon="8.69277"><ele>435.0</ele><time>2026-04-16T13:11:12.766Z</time></trkpt><trkpt lat="40.5700167" lon="8.6928933"><ele>437.0</ele><time>2026-04-16T13:11:13.766Z</time></trkpt><trkpt lat="40.5700683" lon="8.6930283"><ele>439.0</ele><time>2026-04-16T13:11:14.765Z</time></trkpt><trkpt lat="40.5701317" lon="8.69316"><ele>441.0</ele><time>2026-04-16T13:11:15.766Z</time></trkpt><trkpt lat="40.5701967" lon="8.693305"><ele>443.0</ele><time>2026-04-16T13:11:16.765Z</time></trkpt><trkpt lat="40.5702467" lon="8.6934483"><ele>443.0</ele><time>2026-04-16T13:11:17.766Z</time></trkpt><trkpt lat="40.5702933" lon="8.6935783"><ele>442.99999999999994</ele><time>2026-04-16T13:11:18.766Z</time></trkpt><trkpt lat="40.570365" lon="8.6936883"><ele>442.99999999999994</ele><time>2026-04-16T13:11:19.765Z</time></trkpt><trkpt lat="40.5704433" lon="8.6937867"><ele>443.0</ele><time>2026-04-16T13:11:20.766Z</time></trkpt><trkpt lat="40.57052" lon="8.6938767"><ele>443.0</ele><time>2026-04-16T13:11:21.766Z</time></trkpt><trkpt lat="40.5705817" lon="8.6939583"><ele>439.66666666666663</ele><time>2026-04-16T13:11:22.765Z</time></trkpt><trkpt lat="40.5706267" lon="8.6940417"><ele>436.3333333333333</ele><time>2026-04-16T13:11:23.765Z</time></trkpt><trkpt lat="40.5706533" lon="8.6941183"><ele>433.0</ele><time>2026-04-16T13:11:24.765Z</time></trkpt><trkpt lat="40.57069" lon="8.694195"><ele>429.66666666666663</ele><time>2026-04-16T13:11:26.765Z</time></trkpt><trkpt lat="40.5706683" lon="8.6940883"><ele>426.3333333333333</ele><time>2026-04-16T13:11:33.765Z</time></trkpt><trkpt lat="40.5706083" lon="8.6939583"><ele>423.0</ele><time>2026-04-16T13:11:35.766Z</time></trkpt><trkpt lat="40.5705583" lon="8.6938783"><ele>423.0</ele><time>2026-04-16T13:11:36.766Z</time></trkpt><trkpt lat="40.570495" lon="8.693805"><ele>423.0</ele><time>2026-04-16T13:11:37.766Z</time></trkpt><trkpt lat="40.5704267" lon="8.69372"><ele>423.0</ele><time>2026-04-16T13:11:38.766Z</time></trkpt><trkpt lat="40.5703683" lon="8.6936383"><ele>423.0</ele><time>2026-04-16T13:11:39.765Z</time></trkpt><trkpt lat="40.5703167" lon="8.6935533"><ele>423.0</ele><time>2026-04-16T13:11:40.765Z</time></trkpt><trkpt lat="40.57027" lon="8.6934633"><ele>423.0</ele><time>2026-04-16T13:11:41.766Z</time></trkpt><trkpt lat="40.5702333" lon="8.69336"><ele>425.4</ele><time>2026-04-16T13:11:42.766Z</time></trkpt><trkpt lat="40.570195" lon="8.6932533"><ele>427.79999999999995</ele><time>2026-04-16T13:11:43.765Z</time></trkpt><trkpt lat="40.570155" lon="8.6931367"><ele>430.2</ele><time>2026-04-16T13:11:44.765Z</time></trkpt><trkpt lat="40.5701067" lon="8.69301"><ele>432.6</ele><time>2026-04-16T13:11:45.765Z</time></trkpt><trkpt lat="40.5700483" lon="8.692885"><ele>435.0</ele><time>2026-04-16T13:11:46.766Z</time></trkpt><trkpt lat="40.57" lon="8.6927517"><ele>435.0</ele><time>2026-04-16T13:11:47.765Z</time></trkpt><trkpt lat="40.5699567" lon="8.6926333"><ele>435.0</ele><time>2026-04-16T13:11:48.766Z</time></trkpt><trkpt lat="40.56992" lon="8.6925433"><ele>435.0</ele><time>2026-04-16T13:11:49.766Z</time></trkpt><trkpt lat="40.56986" lon="8.6924783"><ele>435.0</ele><time>2026-04-16T13:11:51.766Z</time></trkpt><trkpt lat="40.5698217" lon="8.6925833"><ele>435.0</ele><time>2026-04-16T13:11:54.766Z</time></trkpt><trkpt lat="40.5698683" lon="8.6926733"><ele>435.0</ele><time>2026-04-16T13:11:56.766Z</time></trkpt><trkpt lat="40.5698833" lon="8.6928367"><ele>436.6</ele><time>2026-04-16T13:11:58.766Z</time></trkpt><trkpt lat="40.5698817" lon="8.69294"><ele>438.2</ele><time>2026-04-16T13:11:59.765Z</time></trkpt><trkpt lat="40.5698783" lon="8.6930517"><ele>439.79999999999995</ele><time>2026-04-16T13:12:00.766Z</time></trkpt><trkpt lat="40.5698767" lon="8.6931683"><ele>441.4</ele><time>2026-04-16T13:12:01.765Z</time></trkpt><trkpt lat="40.5698733" lon="8.693295"><ele>443.0</ele><time>2026-04-16T13:12:02.765Z</time></trkpt><trkpt lat="40.5698683" lon="8.6934367"><ele>443.0</ele><time>2026-04-16T13:12:03.766Z</time></trkpt><trkpt lat="40.5698467" lon="8.6935883"><ele>443.0</ele><time>2026-04-16T13:12:04.765Z</time></trkpt><trkpt lat="40.5698283" lon="8.6937383"><ele>443.0</ele><time>2026-04-16T13:12:05.766Z</time></trkpt><trkpt lat="40.56981" lon="8.6938983"><ele>443.0</ele><time>2026-04-16T13:12:06.766Z</time></trkpt><trkpt lat="40.5697917" lon="8.6940767"><ele>444.0</ele><time>2026-04-16T13:12:07.765Z</time></trkpt><trkpt lat="40.569775" lon="8.6942617"><ele>445.0</ele><time>2026-04-16T13:12:08.766Z</time></trkpt><trkpt lat="40.569765" lon="8.69445"><ele>446.0</ele><time>2026-04-16T13:12:09.766Z</time></trkpt><trkpt lat="40.5697633" lon="8.6946233"><ele>447.0</ele><time>2026-04-16T13:12:10.765Z</time></trkpt><trkpt lat="40.569755" lon="8.6947717"><ele>447.0</ele><time>2026-04-16T13:12:11.765Z</time></trkpt><trkpt lat="40.5697317" lon="8.6949117"><ele>447.0</ele><time>2026-04-16T13:12:12.765Z</time></trkpt><trkpt lat="40.5697" lon="8.695065"><ele>447.0</ele><time>2026-04-16T13:12:13.766Z</time></trkpt><trkpt lat="40.5696533" lon="8.695225"><ele>447.0</ele><time>2026-04-16T13:12:14.765Z</time></trkpt><trkpt lat="40.569605" lon="8.6953983"><ele>447.0</ele><time>2026-04-16T13:12:15.766Z</time></trkpt><trkpt lat="40.5695583" lon="8.69558"><ele>447.0</ele><time>2026-04-16T13:12:16.765Z</time></trkpt><trkpt lat="40.5695017" lon="8.6957533"><ele>447.0</ele><time>2026-04-16T13:12:17.766Z</time></trkpt><trkpt lat="40.5694383" lon="8.6959267"><ele>447.0</ele><time>2026-04-16T13:12:18.765Z</time></trkpt><trkpt lat="40.569365" lon="8.6961033"><ele>451.6</ele><time>2026-04-16T13:12:19.765Z</time></trkpt><trkpt lat="40.5693133" lon="8.6962533"><ele>456.20000000000005</ele><time>2026-04-16T13:12:20.766Z</time></trkpt><trkpt lat="40.5692683" lon="8.696375"><ele>460.8</ele><time>2026-04-16T13:12:21.765Z</time></trkpt><trkpt lat="40.5692267" lon="8.69648"><ele>465.4</ele><time>2026-04-16T13:12:22.765Z</time></trkpt><trkpt lat="40.5691817" lon="8.6965633"><ele>470.0</ele><time>2026-04-16T13:12:23.766Z</time></trkpt><trkpt lat="40.5691217" lon="8.69663"><ele>469.99999999999994</ele><time>2026-04-16T13:12:24.766Z</time></trkpt><trkpt lat="40.56905" lon="8.69667"><ele>470.0</ele><time>2026-04-16T13:12:25.766Z</time></trkpt><trkpt lat="40.56897" lon="8.6966967"><ele>470.0</ele><time>2026-04-16T13:12:26.766Z</time></trkpt><trkpt lat="40.56888" lon="8.6967117"><ele>470.0</ele><time>2026-04-16T13:12:27.766Z</time></trkpt><trkpt lat="40.5687917" lon="8.6967417"><ele>469.99999999999994</ele><time>2026-04-16T13:12:28.766Z</time></trkpt><trkpt lat="40.568705" lon="8.6967933"><ele>470.0</ele><time>2026-04-16T13:12:29.766Z</time></trkpt><trkpt lat="40.568635" lon="8.6968667"><ele>474.5</ele><time>2026-04-16T13:12:30.766Z</time></trkpt><trkpt lat="40.5685717" lon="8.69697"><ele>479.0</ele><time>2026-04-16T13:12:31.765Z</time></trkpt><trkpt lat="40.5685033" lon="8.69709"><ele>483.5</ele><time>2026-04-16T13:12:32.765Z</time></trkpt><trkpt lat="40.5684383" lon="8.69722"><ele>488.0</ele><time>2026-04-16T13:12:33.766Z</time></trkpt><trkpt lat="40.5683883" lon="8.69737"><ele>488.0</ele><time>2026-04-16T13:12:34.766Z</time></trkpt><trkpt lat="40.568345" lon="8.697545"><ele>488.0</ele><time>2026-04-16T13:12:35.766Z</time></trkpt><trkpt lat="40.568295" lon="8.6977167"><ele>488.0</ele><time>2026-04-16T13:12:36.765Z</time></trkpt><trkpt lat="40.5682583" lon="8.6979017"><ele>488.0</ele><time>2026-04-16T13:12:37.765Z</time></trkpt><trkpt lat="40.5682367" lon="8.69808"><ele>488.0</ele><time>2026-04-16T13:12:38.766Z</time></trkpt><trkpt lat="40.568215" lon="8.6982667"><ele>488.0</ele><time>2026-04-16T13:12:39.766Z</time></trkpt><trkpt lat="40.56821" lon="8.6984617"><ele>488.0</ele><time>2026-04-16T13:12:40.765Z</time></trkpt><trkpt lat="40.5682067" lon="8.6986333"><ele>488.0</ele><time>2026-04-16T13:12:41.766Z</time></trkpt><trkpt lat="40.5682133" lon="8.6987617"><ele>487.99999999999994</ele><time>2026-04-16T13:12:42.765Z</time></trkpt><trkpt lat="40.5682" lon="8.6988517"><ele>488.0</ele><time>2026-04-16T13:12:44.766Z</time></trkpt><trkpt lat="40.56814" lon="8.6987733"><ele>488.0</ele><time>2026-04-16T13:12:47.765Z</time></trkpt><trkpt lat="40.568115" lon="8.698695"><ele>488.0</ele><time>2026-04-16T13:12:48.765Z</time></trkpt><trkpt lat="40.5680817" lon="8.6985833"><ele>487.99999999999994</ele><time>2026-04-16T13:12:49.766Z</time></trkpt><trkpt lat="40.5680383" lon="8.69841"><ele>488.0</ele><time>2026-04-16T13:12:50.766Z</time></trkpt><trkpt lat="40.56801" lon="8.698215"><ele>488.0</ele><time>2026-04-16T13:12:51.765Z</time></trkpt><trkpt lat="40.5679717" lon="8.6980267"><ele>488.0</ele><time>2026-04-16T13:12:52.765Z</time></trkpt><trkpt lat="40.567925" lon="8.69783"><ele>488.0</ele><time>2026-04-16T13:12:53.766Z</time></trkpt><trkpt lat="40.567885" lon="8.6976183"><ele>503.66666666666663</ele><time>2026-04-16T13:12:54.765Z</time></trkpt><trkpt lat="40.5678383" lon="8.6973867"><ele>519.3333333333334</ele><time>2026-04-16T13:12:55.766Z</time></trkpt><trkpt lat="40.5678233" lon="8.6971683"><ele>535.0</ele><time>2026-04-16T13:12:56.766Z</time></trkpt><trkpt lat="40.567825" lon="8.6969817"><ele>539.0</ele><time>2026-04-16T13:12:57.766Z</time></trkpt><trkpt lat="40.56785" lon="8.6967883"><ele>543.0</ele><time>2026-04-16T13:12:58.765Z</time></trkpt><trkpt lat="40.5678917" lon="8.696595"><ele>547.0</ele><time>2026-04-16T13:12:59.766Z</time></trkpt><trkpt lat="40.567945" lon="8.6964033"><ele>541.4</ele><time>2026-04-16T13:13:00.766Z</time></trkpt><trkpt lat="40.5680067" lon="8.6962283"><ele>535.8000000000001</ele><time>2026-04-16T13:13:01.766Z</time></trkpt><trkpt lat="40.5680733" lon="8.6960933"><ele>530.2</ele><time>2026-04-16T13:13:02.766Z</time></trkpt><trkpt lat="40.5681317" lon="8.69601"><ele>524.6</ele><time>2026-04-16T13:13:03.766Z</time></trkpt><trkpt lat="40.568175" lon="8.695945"><ele>519.0</ele><time>2026-04-16T13:13:04.766Z</time></trkpt><trkpt lat="40.5682367" lon="8.6958483"><ele>519.0</ele><time>2026-04-16T13:13:06.766Z</time></trkpt><trkpt lat="40.568245" lon="8.69576"><ele>519.0</ele><time>2026-04-16T13:13:15.766Z</time></trkpt><trkpt lat="40.568265" lon="8.6955983"><ele>519.0</ele><time>2026-04-16T13:13:17.765Z</time></trkpt><trkpt lat="40.56827" lon="8.695485"><ele>519.0</ele><time>2026-04-16T13:13:18.766Z</time></trkpt><trkpt lat="40.5682817" lon="8.6953533"><ele>519.0</ele><time>2026-04-16T13:13:19.766Z</time></trkpt><trkpt lat="40.5682867" lon="8.6952083"><ele>520.5</ele><time>2026-04-16T13:13:20.765Z</time></trkpt><trkpt lat="40.5682833" lon="8.695045"><ele>522.0</ele><time>2026-04-16T13:13:21.766Z</time></trkpt><trkpt lat="40.5682817" lon="8.6948667"><ele>523.5</ele><time>2026-04-16T13:13:22.766Z</time></trkpt><trkpt lat="40.56825" lon="8.694675"><ele>525.0</ele><time>2026-04-16T13:13:23.765Z</time></trkpt><trkpt lat="40.568215" lon="8.6945017"><ele>524.0</ele><time>2026-04-16T13:13:24.766Z</time></trkpt><trkpt lat="40.5681783" lon="8.6943467"><ele>523.0</ele><time>2026-04-16T13:13:25.765Z</time></trkpt><trkpt lat="40.568135" lon="8.6941983"><ele>522.0</ele><time>2026-04-16T13:13:26.766Z</time></trkpt><trkpt lat="40.56808" lon="8.6940567"><ele>521.0</ele><time>2026-04-16T13:13:27.765Z</time></trkpt><trkpt lat="40.5680033" lon="8.6939167"><ele>521.0</ele><time>2026-04-16T13:13:28.765Z</time></trkpt><trkpt lat="40.567925" lon="8.6937533"><ele>521.0</ele><time>2026-04-16T13:13:29.766Z</time></trkpt><trkpt lat="40.5678383" lon="8.693575"><ele>521.0</ele><time>2026-04-16T13:13:30.766Z</time></trkpt><trkpt lat="40.56774" lon="8.6934"><ele>528.0</ele><time>2026-04-16T13:13:31.766Z</time></trkpt><trkpt lat="40.56763" lon="8.693245"><ele>535.0</ele><time>2026-04-16T13:13:32.766Z</time></trkpt><trkpt lat="40.5675333" lon="8.693085"><ele>542.0</ele><time>2026-04-16T13:13:33.765Z</time></trkpt><trkpt lat="40.5674333" lon="8.69294"><ele>542.0</ele><time>2026-04-16T13:13:34.766Z</time></trkpt><trkpt lat="40.56733" lon="8.6928217"><ele>542.0</ele><time>2026-04-16T13:13:35.765Z</time></trkpt><trkpt lat="40.56723" lon="8.6927283"><ele>542.0</ele><time>2026-04-16T13:13:36.766Z</time></trkpt><trkpt lat="40.5671317" lon="8.6926517"><ele>542.0</ele><time>2026-04-16T13:13:37.766Z</time></trkpt><trkpt lat="40.5670167" lon="8.6925833"><ele>540.5</ele><time>2026-04-16T13:13:38.765Z</time></trkpt><trkpt lat="40.56689" lon="8.6925133"><ele>539.0</ele><time>2026-04-16T13:13:39.766Z</time></trkpt><trkpt lat="40.5667617" lon="8.6924533"><ele>537.5</ele><time>2026-04-16T13:13:40.765Z</time></trkpt><trkpt lat="40.566625" lon="8.692395"><ele>536.0</ele><time>2026-04-16T13:13:41.765Z</time></trkpt><trkpt lat="40.5664717" lon="8.6923467"><ele>536.0</ele><time>2026-04-16T13:13:42.766Z</time></trkpt><trkpt lat="40.566325" lon="8.6923017"><ele>536.0</ele><time>2026-04-16T13:13:43.766Z</time></trkpt><trkpt lat="40.5661983" lon="8.6922617"><ele>536.0</ele><time>2026-04-16T13:13:44.766Z</time></trkpt><trkpt lat="40.5660617" lon="8.6922283"><ele>536.0</ele><time>2026-04-16T13:13:45.766Z</time></trkpt><trkpt lat="40.5659367" lon="8.6922117"><ele>539.75</ele><time>2026-04-16T13:13:46.766Z</time></trkpt><trkpt lat="40.56578" lon="8.692215"><ele>543.5</ele><time>2026-04-16T13:13:47.765Z</time></trkpt><trkpt lat="40.5656567" lon="8.692235"><ele>547.25</ele><time>2026-04-16T13:13:48.765Z</time></trkpt><trkpt lat="40.56553" lon="8.692285"><ele>551.0</ele><time>2026-04-16T13:13:49.765Z</time></trkpt><trkpt lat="40.5653833" lon="8.69232"><ele>550.0</ele><time>2026-04-16T13:13:50.766Z</time></trkpt><trkpt lat="40.56523" lon="8.6923617"><ele>549.0</ele><time>2026-04-16T13:13:51.765Z</time></trkpt><trkpt lat="40.56508" lon="8.6924117"><ele>548.0</ele><time>2026-04-16T13:13:52.765Z</time></trkpt><trkpt lat="40.5649383" lon="8.692465"><ele>548.0</ele><time>2026-04-16T13:13:53.765Z</time></trkpt><trkpt lat="40.5648183" lon="8.6925467"><ele>548.0</ele><time>2026-04-16T13:13:54.765Z</time></trkpt><trkpt lat="40.5647233" lon="8.6926417"><ele>548.0</ele><time>2026-04-16T13:13:55.764Z</time></trkpt><trkpt lat="40.5646533" lon="8.69275"><ele>548.0</ele><time>2026-04-16T13:13:56.765Z</time></trkpt><trkpt lat="40.5646067" lon="8.6928633"><ele>552.5</ele><time>2026-04-16T13:13:57.764Z</time></trkpt><trkpt lat="40.5645717" lon="8.6929883"><ele>557.0</ele><time>2026-04-16T13:13:58.765Z</time></trkpt><trkpt lat="40.5645483" lon="8.6931317"><ele>561.5</ele><time>2026-04-16T13:13:59.765Z</time></trkpt><trkpt lat="40.564545" lon="8.693285"><ele>566.0</ele><time>2026-04-16T13:14:00.765Z</time></trkpt><trkpt lat="40.5645717" lon="8.6934433"><ele>566.0</ele><time>2026-04-16T13:14:01.765Z</time></trkpt><trkpt lat="40.5646133" lon="8.6936167"><ele>566.0</ele><time>2026-04-16T13:14:02.765Z</time></trkpt><trkpt lat="40.5646583" lon="8.6937983"><ele>566.0</ele><time>2026-04-16T13:14:03.765Z</time></trkpt><trkpt lat="40.564685" lon="8.694"><ele>566.0</ele><time>2026-04-16T13:14:04.765Z</time></trkpt><trkpt lat="40.5646917" lon="8.69418"><ele>566.0</ele><time>2026-04-16T13:14:05.765Z</time></trkpt><trkpt lat="40.5646933" lon="8.6943517"><ele>566.0</ele><time>2026-04-16T13:14:06.764Z</time></trkpt><trkpt lat="40.564665" lon="8.6944967"><ele>566.0</ele><time>2026-04-16T13:14:07.765Z</time></trkpt><trkpt lat="40.564625" lon="8.69461"><ele>566.0</ele><time>2026-04-16T13:14:08.765Z</time></trkpt><trkpt lat="40.5645733" lon="8.6947067"><ele>566.0</ele><time>2026-04-16T13:14:09.765Z</time></trkpt><trkpt lat="40.5644983" lon="8.694795"><ele>565.2</ele><time>2026-04-16T13:14:10.764Z</time></trkpt><trkpt lat="40.564395" lon="8.6948617"><ele>564.4000000000001</ele><time>2026-04-16T13:14:11.764Z</time></trkpt><trkpt lat="40.5643" lon="8.6949083"><ele>563.6</ele><time>2026-04-16T13:14:12.764Z</time></trkpt><trkpt lat="40.5641883" lon="8.69491"><ele>562.8000000000001</ele><time>2026-04-16T13:14:13.765Z</time></trkpt><trkpt lat="40.5640767" lon="8.69492"><ele>562.0</ele><time>2026-04-16T13:14:14.764Z</time></trkpt><trkpt lat="40.563955" lon="8.6949367"><ele>562.0</ele><time>2026-04-16T13:14:15.765Z</time></trkpt><trkpt lat="40.5638167" lon="8.6949383"><ele>562.0</ele><time>2026-04-16T13:14:16.764Z</time></trkpt><trkpt lat="40.5636583" lon="8.694965"><ele>562.0</ele><time>2026-04-16T13:14:17.764Z</time></trkpt><trkpt lat="40.5634933" lon="8.6949983"><ele>561.25</ele><time>2026-04-16T13:14:18.764Z</time></trkpt><trkpt lat="40.56334" lon="8.6950433"><ele>560.5</ele><time>2026-04-16T13:14:19.765Z</time></trkpt><trkpt lat="40.5632117" lon="8.6950833"><ele>559.75</ele><time>2026-04-16T13:14:20.764Z</time></trkpt><trkpt lat="40.563085" lon="8.6951217"><ele>559.0</ele><time>2026-04-16T13:14:21.765Z</time></trkpt><trkpt lat="40.56304" lon="8.695185"><ele>562.75</ele><time>2026-04-16T13:14:22.765Z</time></trkpt><trkpt lat="40.56299" lon="8.6952867"><ele>566.5</ele><time>2026-04-16T13:14:23.765Z</time></trkpt><trkpt lat="40.5629567" lon="8.69539"><ele>570.25</ele><time>2026-04-16T13:14:24.765Z</time></trkpt><trkpt lat="40.56296" lon="8.69554"><ele>574.0</ele><time>2026-04-16T13:14:25.765Z</time></trkpt><trkpt lat="40.562965" lon="8.6957483"><ele>574.0</ele><time>2026-04-16T13:14:26.764Z</time></trkpt><trkpt lat="40.5629583" lon="8.6959933"><ele>574.0</ele><time>2026-04-16T13:14:27.765Z</time></trkpt><trkpt lat="40.5629417" lon="8.6962283"><ele>574.0</ele><time>2026-04-16T13:14:28.765Z</time></trkpt><trkpt lat="40.56292" lon="8.6964883"><ele>574.75</ele><time>2026-04-16T13:14:29.764Z</time></trkpt><trkpt lat="40.5629133" lon="8.6966967"><ele>575.5</ele><time>2026-04-16T13:14:30.765Z</time></trkpt><trkpt lat="40.562895" lon="8.69688"><ele>576.25</ele><time>2026-04-16T13:14:31.765Z</time></trkpt><trkpt lat="40.5628583" lon="8.6970633"><ele>577.0</ele><time>2026-04-16T13:14:32.764Z</time></trkpt><trkpt lat="40.562805" lon="8.6972483"><ele>574.6666666666667</ele><time>2026-04-16T13:14:33.765Z</time></trkpt><trkpt lat="40.5627683" lon="8.697435"><ele>572.3333333333334</ele><time>2026-04-16T13:14:34.765Z</time></trkpt><trkpt lat="40.5627367" lon="8.697635"><ele>570.0</ele><time>2026-04-16T13:14:35.765Z</time></trkpt><trkpt lat="40.5626917" lon="8.6978467"><ele>570.0</ele><time>2026-04-16T13:14:36.765Z</time></trkpt><trkpt lat="40.5626283" lon="8.6980733"><ele>570.0</ele><time>2026-04-16T13:14:37.764Z</time></trkpt><trkpt lat="40.562555" lon="8.6982817"><ele>570.0</ele><time>2026-04-16T13:14:38.765Z</time></trkpt><trkpt lat="40.5624833" lon="8.6984617"><ele>569.8</ele><time>2026-04-16T13:14:39.765Z</time></trkpt><trkpt lat="40.56243" lon="8.6986133"><ele>569.6</ele><time>2026-04-16T13:14:40.765Z</time></trkpt><trkpt lat="40.562405" lon="8.6987617"><ele>569.4</ele><time>2026-04-16T13:14:41.764Z</time></trkpt><trkpt lat="40.5624033" lon="8.6989017"><ele>569.2</ele><time>2026-04-16T13:14:42.765Z</time></trkpt><trkpt lat="40.5624217" lon="8.699015"><ele>569.0</ele><time>2026-04-16T13:14:43.765Z</time></trkpt><trkpt lat="40.562465" lon="8.699115"><ele>569.0</ele><time>2026-04-16T13:14:44.765Z</time></trkpt><trkpt lat="40.562535" lon="8.69922"><ele>569.0</ele><time>2026-04-16T13:14:45.765Z</time></trkpt><trkpt lat="40.5625967" lon="8.6993417"><ele>569.0</ele><time>2026-04-16T13:14:46.765Z</time></trkpt><trkpt lat="40.5626633" lon="8.699485"><ele>569.0</ele><time>2026-04-16T13:14:47.765Z</time></trkpt><trkpt lat="40.5627083" lon="8.6996533"><ele>568.75</ele><time>2026-04-16T13:14:48.764Z</time></trkpt><trkpt lat="40.5627417" lon="8.6998467"><ele>568.5</ele><time>2026-04-16T13:14:49.765Z</time></trkpt><trkpt lat="40.56275" lon="8.700035"><ele>568.25</ele><time>2026-04-16T13:14:50.765Z</time></trkpt><trkpt lat="40.5627633" lon="8.7002233"><ele>568.0</ele><time>2026-04-16T13:14:51.765Z</time></trkpt><trkpt lat="40.5627817" lon="8.7004183"><ele>569.25</ele><time>2026-04-16T13:14:52.764Z</time></trkpt><trkpt lat="40.5628083" lon="8.7006167"><ele>570.5</ele><time>2026-04-16T13:14:53.765Z</time></trkpt><trkpt lat="40.5628433" lon="8.700805"><ele>571.75</ele><time>2026-04-16T13:14:54.765Z</time></trkpt><trkpt lat="40.5628433" lon="8.7009733"><ele>573.0</ele><time>2026-04-16T13:14:55.764Z</time></trkpt><trkpt lat="40.5628067" lon="8.7011333"><ele>573.0</ele><time>2026-04-16T13:14:56.765Z</time></trkpt><trkpt lat="40.5627683" lon="8.70131"><ele>573.0</ele><time>2026-04-16T13:14:57.765Z</time></trkpt><trkpt lat="40.5627183" lon="8.7014917"><ele>573.0</ele><time>2026-04-16T13:14:58.764Z</time></trkpt><trkpt lat="40.5626583" lon="8.701685"><ele>573.0</ele><time>2026-04-16T13:14:59.765Z</time></trkpt><trkpt lat="40.5626017" lon="8.7018417"><ele>572.75</ele><time>2026-04-16T13:15:00.764Z</time></trkpt><trkpt lat="40.5625667" lon="8.7019983"><ele>572.5</ele><time>2026-04-16T13:15:01.765Z</time></trkpt><trkpt lat="40.5625333" lon="8.7021633"><ele>572.25</ele><time>2026-04-16T13:15:02.765Z</time></trkpt><trkpt lat="40.5625117" lon="8.7023433"><ele>572.0</ele><time>2026-04-16T13:15:03.765Z</time></trkpt><trkpt lat="40.5625117" lon="8.7025183"><ele>572.0</ele><time>2026-04-16T13:15:04.765Z</time></trkpt><trkpt lat="40.5625133" lon="8.702665"><ele>572.0</ele><time>2026-04-16T13:15:05.764Z</time></trkpt><trkpt lat="40.5625317" lon="8.7028117"><ele>572.0</ele><time>2026-04-16T13:15:06.765Z</time></trkpt><trkpt lat="40.56257" lon="8.7029583"><ele>572.0</ele><time>2026-04-16T13:15:07.765Z</time></trkpt><trkpt lat="40.5625933" lon="8.703075"><ele>572.0</ele><time>2026-04-16T13:15:08.764Z</time></trkpt><trkpt lat="40.5625967" lon="8.70317"><ele>572.0</ele><time>2026-04-16T13:15:09.764Z</time></trkpt><trkpt lat="40.5625717" lon="8.7032833"><ele>572.0</ele><time>2026-04-16T13:15:10.765Z</time></trkpt><trkpt lat="40.5625317" lon="8.703415"><ele>572.0</ele><time>2026-04-16T13:15:11.765Z</time></trkpt><trkpt lat="40.5624783" lon="8.7035867"><ele>572.0</ele><time>2026-04-16T13:15:12.765Z</time></trkpt><trkpt lat="40.5624217" lon="8.7037583"><ele>571.0</ele><time>2026-04-16T13:15:13.765Z</time></trkpt><trkpt lat="40.5623667" lon="8.7039433"><ele>570.0</ele><time>2026-04-16T13:15:14.765Z</time></trkpt><trkpt lat="40.5623167" lon="8.7041167"><ele>569.0</ele><time>2026-04-16T13:15:15.765Z</time></trkpt><trkpt lat="40.5622667" lon="8.7042933"><ele>568.0</ele><time>2026-04-16T13:15:16.764Z</time></trkpt><trkpt lat="40.562225" lon="8.7044417"><ele>569.25</ele><time>2026-04-16T13:15:17.765Z</time></trkpt><trkpt lat="40.5621733" lon="8.7045983"><ele>570.5</ele><time>2026-04-16T13:15:18.764Z</time></trkpt><trkpt lat="40.562105" lon="8.704765"><ele>571.75</ele><time>2026-04-16T13:15:19.765Z</time></trkpt><trkpt lat="40.5620467" lon="8.7049467"><ele>573.0</ele><time>2026-04-16T13:15:20.764Z</time></trkpt><trkpt lat="40.5619967" lon="8.7051267"><ele>571.3333333333334</ele><time>2026-04-16T13:15:21.765Z</time></trkpt><trkpt lat="40.5619667" lon="8.7053283"><ele>569.6666666666667</ele><time>2026-04-16T13:15:22.765Z</time></trkpt><trkpt lat="40.561945" lon="8.7055267"><ele>568.0</ele><time>2026-04-16T13:15:23.764Z</time></trkpt><trkpt lat="40.5619117" lon="8.7057117"><ele>568.0</ele><time>2026-04-16T13:15:24.764Z</time></trkpt><trkpt lat="40.5618833" lon="8.7058783"><ele>568.0</ele><time>2026-04-16T13:15:25.764Z</time></trkpt><trkpt lat="40.5618617" lon="8.7060183"><ele>568.0</ele><time>2026-04-16T13:15:26.765Z</time></trkpt><trkpt lat="40.5618417" lon="8.706135"><ele>568.0</ele><time>2026-04-16T13:15:27.765Z</time></trkpt><trkpt lat="40.5618217" lon="8.7062567"><ele>568.0</ele><time>2026-04-16T13:15:28.764Z</time></trkpt><trkpt lat="40.5618017" lon="8.7063683"><ele>566.8</ele><time>2026-04-16T13:15:29.764Z</time></trkpt><trkpt lat="40.5617767" lon="8.70646"><ele>565.5999999999999</ele><time>2026-04-16T13:15:30.765Z</time></trkpt><trkpt lat="40.5617483" lon="8.7065967"><ele>564.4000000000001</ele><time>2026-04-16T13:15:32.764Z</time></trkpt><trkpt lat="40.5617433" lon="8.7066867"><ele>563.2</ele><time>2026-04-16T13:15:33.764Z</time></trkpt><trkpt lat="40.5617233" lon="8.7068117"><ele>562.0</ele><time>2026-04-16T13:15:34.765Z</time></trkpt><trkpt lat="40.5617067" lon="8.706955"><ele>560.0</ele><time>2026-04-16T13:15:35.765Z</time></trkpt><trkpt lat="40.5616717" lon="8.7071083"><ele>558.0</ele><time>2026-04-16T13:15:36.764Z</time></trkpt><trkpt lat="40.5616467" lon="8.7072467"><ele>556.0</ele><time>2026-04-16T13:15:37.765Z</time></trkpt><trkpt lat="40.5616267" lon="8.7073717"><ele>554.0</ele><time>2026-04-16T13:15:38.764Z</time></trkpt><trkpt lat="40.561615" lon="8.70749"><ele>552.0</ele><time>2026-04-16T13:15:39.765Z</time></trkpt><trkpt lat="40.5616067" lon="8.7076033"><ele>552.0</ele><time>2026-04-16T13:15:40.764Z</time></trkpt><trkpt lat="40.5615983" lon="8.707695"><ele>552.0</ele><time>2026-04-16T13:15:41.764Z</time></trkpt><trkpt lat="40.56159" lon="8.7078517"><ele>552.0</ele><time>2026-04-16T13:15:43.765Z</time></trkpt><trkpt lat="40.5615867" lon="8.707945"><ele>552.0</ele><time>2026-04-16T13:15:44.765Z</time></trkpt><trkpt lat="40.561575" lon="8.7080267"><ele>552.0</ele><time>2026-04-16T13:15:45.764Z</time></trkpt><trkpt lat="40.561575" lon="8.7081183"><ele>552.0</ele><time>2026-04-16T13:15:47.764Z</time></trkpt><trkpt lat="40.5616567" lon="8.70806"><ele>552.0</ele><time>2026-04-16T13:15:55.764Z</time></trkpt><trkpt lat="40.561745" lon="8.7079267"><ele>552.0</ele><time>2026-04-16T13:15:57.765Z</time></trkpt><trkpt lat="40.5618133" lon="8.70782"><ele>552.0</ele><time>2026-04-16T13:15:58.765Z</time></trkpt><trkpt lat="40.5618783" lon="8.7077183"><ele>552.0</ele><time>2026-04-16T13:15:59.765Z</time></trkpt><trkpt lat="40.5619733" lon="8.7076183"><ele>549.0</ele><time>2026-04-16T13:16:00.764Z</time></trkpt><trkpt lat="40.5620783" lon="8.707515"><ele>546.0</ele><time>2026-04-16T13:16:01.764Z</time></trkpt><trkpt lat="40.5621867" lon="8.70745"><ele>543.0</ele><time>2026-04-16T13:16:02.764Z</time></trkpt><trkpt lat="40.562295" lon="8.7074083"><ele>540.0</ele><time>2026-04-16T13:16:03.765Z</time></trkpt><trkpt lat="40.562405" lon="8.7073967"><ele>540.0</ele><time>2026-04-16T13:16:04.764Z</time></trkpt><trkpt lat="40.562515" lon="8.7074"><ele>540.0</ele><time>2026-04-16T13:16:05.765Z</time></trkpt><trkpt lat="40.5626167" lon="8.70742"><ele>540.0</ele><time>2026-04-16T13:16:06.764Z</time></trkpt><trkpt lat="40.5627383" lon="8.7074467"><ele>540.0</ele><time>2026-04-16T13:16:07.765Z</time></trkpt><trkpt lat="40.562865" lon="8.7074717"><ele>537.0</ele><time>2026-04-16T13:16:08.765Z</time></trkpt><trkpt lat="40.5629933" lon="8.70747"><ele>534.0</ele><time>2026-04-16T13:16:09.764Z</time></trkpt><trkpt lat="40.5630933" lon="8.707475"><ele>531.0</ele><time>2026-04-16T13:16:10.764Z</time></trkpt><trkpt lat="40.5631283" lon="8.7075483"><ele>528.0</ele><time>2026-04-16T13:16:12.764Z</time></trkpt><trkpt lat="40.563065" lon="8.7076117"><ele>525.0</ele><time>2026-04-16T13:16:14.764Z</time></trkpt><trkpt lat="40.562925" lon="8.7076533"><ele>523.5</ele><time>2026-04-16T13:16:16.764Z</time></trkpt><trkpt lat="40.5628167" lon="8.707685"><ele>522.0</ele><time>2026-04-16T13:16:17.765Z</time></trkpt><trkpt lat="40.5627067" lon="8.707735"><ele>520.5</ele><time>2026-04-16T13:16:18.765Z</time></trkpt><trkpt lat="40.5625783" lon="8.7078117"><ele>519.0</ele><time>2026-04-16T13:16:19.764Z</time></trkpt><trkpt lat="40.5624633" lon="8.707895"><ele>519.0</ele><time>2026-04-16T13:16:20.765Z</time></trkpt><trkpt lat="40.5623883" lon="8.7079467"><ele>519.0</ele><time>2026-04-16T13:16:21.765Z</time></trkpt><trkpt lat="40.5623167" lon="8.70801"><ele>519.0</ele><time>2026-04-16T13:16:23.765Z</time></trkpt><trkpt lat="40.5623967" lon="8.708025"><ele>519.0</ele><time>2026-04-16T13:16:25.765Z</time></trkpt><trkpt lat="40.5624883" lon="8.7080283"><ele>519.0</ele><time>2026-04-16T13:16:26.765Z</time></trkpt><trkpt lat="40.562605" lon="8.708035"><ele>519.0</ele><time>2026-04-16T13:16:27.764Z</time></trkpt><trkpt lat="40.5627517" lon="8.708045"><ele>519.0</ele><time>2026-04-16T13:16:28.764Z</time></trkpt><trkpt lat="40.5628817" lon="8.708065"><ele>519.0</ele><time>2026-04-16T13:16:29.765Z</time></trkpt><trkpt lat="40.5629767" lon="8.7080867"><ele>519.0</ele><time>2026-04-16T13:16:30.765Z</time></trkpt><trkpt lat="40.563045" lon="8.7080933"><ele>519.0</ele><time>2026-04-16T13:16:31.765Z</time></trkpt><trkpt lat="40.5631817" lon="8.7080767"><ele>520.0</ele><time>2026-04-16T13:16:33.764Z</time></trkpt><trkpt lat="40.5632733" lon="8.7080367"><ele>521.0</ele><time>2026-04-16T13:16:34.765Z</time></trkpt><trkpt lat="40.5633583" lon="8.70798"><ele>522.0</ele><time>2026-04-16T13:16:35.765Z</time></trkpt><trkpt lat="40.5634217" lon="8.7079117"><ele>523.0</ele><time>2026-04-16T13:16:36.765Z</time></trkpt><trkpt lat="40.5634717" lon="8.70783"><ele>524.0</ele><time>2026-04-16T13:16:37.765Z</time></trkpt><trkpt lat="40.5635083" lon="8.7077267"><ele>525.0</ele><time>2026-04-16T13:16:38.765Z</time></trkpt><trkpt lat="40.563545" lon="8.707595"><ele>525.0</ele><time>2026-04-16T13:16:39.763Z</time></trkpt><trkpt lat="40.5635817" lon="8.707455"><ele>525.0</ele><time>2026-04-16T13:16:40.764Z</time></trkpt><trkpt lat="40.5636267" lon="8.7073133"><ele>525.0</ele><time>2026-04-16T13:16:41.763Z</time></trkpt><trkpt lat="40.56367" lon="8.7071933"><ele>525.0</ele><time>2026-04-16T13:16:42.764Z</time></trkpt><trkpt lat="40.56369" lon="8.7070717"><ele>525.0</ele><time>2026-04-16T13:16:43.764Z</time></trkpt><trkpt lat="40.5637067" lon="8.70694"><ele>518.6666666666666</ele><time>2026-04-16T13:16:44.763Z</time></trkpt><trkpt lat="40.563715" lon="8.7068283"><ele>512.3333333333334</ele><time>2026-04-16T13:16:45.764Z</time></trkpt><trkpt lat="40.56372" lon="8.7067433"><ele>506.0</ele><time>2026-04-16T13:16:46.764Z</time></trkpt><trkpt lat="40.5637233" lon="8.7066583"><ele>499.6666666666667</ele><time>2026-04-16T13:16:48.764Z</time></trkpt><trkpt lat="40.5637533" lon="8.70654"><ele>493.33333333333337</ele><time>2026-04-16T13:17:12.763Z</time></trkpt><trkpt lat="40.563745" lon="8.7064167"><ele>487.0</ele><time>2026-04-16T13:17:15.763Z</time></trkpt><trkpt lat="40.5637483" lon="8.7063117"><ele>487.0</ele><time>2026-04-16T13:21:25.763Z</time></trkpt><trkpt lat="40.5637483" lon="8.7061567"><ele>487.0</ele><time>2026-04-16T13:21:27.762Z</time></trkpt><trkpt lat="40.5637733" lon="8.7059967"><ele>487.0</ele><time>2026-04-16T13:21:29.763Z</time></trkpt><trkpt lat="40.5637883" lon="8.70584"><ele>487.0</ele><time>2026-04-16T13:21:31.763Z</time></trkpt><trkpt lat="40.5637867" lon="8.705705"><ele>486.6</ele><time>2026-04-16T13:21:33.762Z</time></trkpt><trkpt lat="40.563815" lon="8.7055933"><ele>486.20000000000005</ele><time>2026-04-16T13:21:35.762Z</time></trkpt><trkpt lat="40.56384" lon="8.7054367"><ele>485.8</ele><time>2026-04-16T13:21:37.763Z</time></trkpt><trkpt lat="40.5638433" lon="8.7052767"><ele>485.4</ele><time>2026-04-16T13:21:39.762Z</time></trkpt><trkpt lat="40.5638367" lon="8.7051867"><ele>485.0</ele><time>2026-04-16T13:21:40.763Z</time></trkpt><trkpt lat="40.5638333" lon="8.7050933"><ele>484.3333333333333</ele><time>2026-04-16T13:21:41.763Z</time></trkpt><trkpt lat="40.5638183" lon="8.7050033"><ele>483.66666666666663</ele><time>2026-04-16T13:21:42.763Z</time></trkpt><trkpt lat="40.5638117" lon="8.704905"><ele>483.0</ele><time>2026-04-16T13:21:43.762Z</time></trkpt><trkpt lat="40.56381" lon="8.7047983"><ele>482.33333333333337</ele><time>2026-04-16T13:21:44.763Z</time></trkpt><trkpt lat="40.563805" lon="8.7046933"><ele>481.6666666666667</ele><time>2026-04-16T13:21:45.763Z</time></trkpt><trkpt lat="40.5638083" lon="8.7045883"><ele>481.0</ele><time>2026-04-16T13:21:46.763Z</time></trkpt><trkpt lat="40.56383" lon="8.7044817"><ele>482.00000000000006</ele><time>2026-04-16T13:21:47.763Z</time></trkpt><trkpt lat="40.5638583" lon="8.7043817"><ele>483.0</ele><time>2026-04-16T13:21:48.762Z</time></trkpt><trkpt lat="40.5638883" lon="8.7042833"><ele>484.0</ele><time>2026-04-16T13:21:49.763Z</time></trkpt><trkpt lat="40.56392" lon="8.7041583"><ele>485.0</ele><time>2026-04-16T13:21:51.763Z</time></trkpt><trkpt lat="40.5639817" lon="8.7040733"><ele>486.00000000000006</ele><time>2026-04-16T13:21:53.763Z</time></trkpt><trkpt lat="40.56403" lon="8.703985"><ele>487.0</ele><time>2026-04-16T13:21:55.763Z</time></trkpt><trkpt lat="40.5640617" lon="8.7038133"><ele>487.0</ele><time>2026-04-16T13:21:57.763Z</time></trkpt><trkpt lat="40.5640717" lon="8.7036967"><ele>487.00000000000006</ele><time>2026-04-16T13:21:58.763Z</time></trkpt><trkpt lat="40.5640833" lon="8.7035817"><ele>487.00000000000006</ele><time>2026-04-16T13:21:59.762Z</time></trkpt><trkpt lat="40.564095" lon="8.7034417"><ele>487.0</ele><time>2026-04-16T13:22:00.762Z</time></trkpt><trkpt lat="40.56409" lon="8.7032983"><ele>487.0</ele><time>2026-04-16T13:22:01.763Z</time></trkpt><trkpt lat="40.5640833" lon="8.7031467"><ele>488.40000000000003</ele><time>2026-04-16T13:22:02.763Z</time></trkpt><trkpt lat="40.5640767" lon="8.7029983"><ele>489.80000000000007</ele><time>2026-04-16T13:22:03.763Z</time></trkpt><trkpt lat="40.5640667" lon="8.7028617"><ele>491.2</ele><time>2026-04-16T13:22:04.763Z</time></trkpt><trkpt lat="40.5640633" lon="8.7027283"><ele>492.6</ele><time>2026-04-16T13:22:05.763Z</time></trkpt><trkpt lat="40.5640667" lon="8.7026267"><ele>494.0</ele><time>2026-04-16T13:22:06.762Z</time></trkpt><trkpt lat="40.5640783" lon="8.7025383"><ele>496.6</ele><time>2026-04-16T13:22:07.762Z</time></trkpt><trkpt lat="40.56412" lon="8.702465"><ele>499.2</ele><time>2026-04-16T13:22:08.763Z</time></trkpt><trkpt lat="40.5642083" lon="8.7023483"><ele>501.80000000000007</ele><time>2026-04-16T13:22:10.763Z</time></trkpt><trkpt lat="40.5643083" lon="8.7022833"><ele>504.40000000000003</ele><time>2026-04-16T13:22:11.762Z</time></trkpt><trkpt lat="40.5644083" lon="8.7021817"><ele>507.0</ele><time>2026-04-16T13:22:12.763Z</time></trkpt><trkpt lat="40.564545" lon="8.7021083"><ele>505.75</ele><time>2026-04-16T13:22:13.763Z</time></trkpt><trkpt lat="40.5646583" lon="8.7020167"><ele>504.5</ele><time>2026-04-16T13:22:14.763Z</time></trkpt><trkpt lat="40.56475" lon="8.701905"><ele>503.25</ele><time>2026-04-16T13:22:15.763Z</time></trkpt><trkpt lat="40.5648133" lon="8.7017617"><ele>502.0</ele><time>2026-04-16T13:22:16.762Z</time></trkpt><trkpt lat="40.5648717" lon="8.70161"><ele>502.0</ele><time>2026-04-16T13:22:17.763Z</time></trkpt><trkpt lat="40.564915" lon="8.70147"><ele>502.00000000000006</ele><time>2026-04-16T13:22:18.761Z</time></trkpt><trkpt lat="40.56495" lon="8.701365"><ele>502.00000000000006</ele><time>2026-04-16T13:22:19.761Z</time></trkpt><trkpt lat="40.5649717" lon="8.7012767"><ele>502.0</ele><time>2026-04-16T13:22:20.762Z</time></trkpt><trkpt lat="40.565015" lon="8.70112"><ele>502.0</ele><time>2026-04-16T13:22:22.762Z</time></trkpt><trkpt lat="40.5650433" lon="8.70104"><ele>505.33333333333337</ele><time>2026-04-16T13:22:23.761Z</time></trkpt><trkpt lat="40.5650833" lon="8.7009733"><ele>508.6666666666667</ele><time>2026-04-16T13:22:24.762Z</time></trkpt><trkpt lat="40.5651417" lon="8.7009083"><ele>512.0</ele><time>2026-04-16T13:22:25.762Z</time></trkpt><trkpt lat="40.5652083" lon="8.7008767"><ele>515.3333333333334</ele><time>2026-04-16T13:22:26.762Z</time></trkpt><trkpt lat="40.5652783" lon="8.7008617"><ele>518.6666666666666</ele><time>2026-04-16T13:22:27.762Z</time></trkpt><trkpt lat="40.5653483" lon="8.7008533"><ele>522.0</ele><time>2026-04-16T13:22:28.762Z</time></trkpt><trkpt lat="40.5654483" lon="8.70087"><ele>522.0</ele><time>2026-04-16T13:22:30.762Z</time></trkpt><trkpt lat="40.5655833" lon="8.7009633"><ele>522.0</ele><time>2026-04-16T13:22:32.762Z</time></trkpt><trkpt lat="40.5656817" lon="8.70102"><ele>522.0</ele><time>2026-04-16T13:22:33.761Z</time></trkpt><trkpt lat="40.5657967" lon="8.701085"><ele>522.0</ele><time>2026-04-16T13:22:34.761Z</time></trkpt><trkpt lat="40.5659067" lon="8.7011467"><ele>512.25</ele><time>2026-04-16T13:22:35.761Z</time></trkpt><trkpt lat="40.566005" lon="8.7012"><ele>502.5</ele><time>2026-04-16T13:22:36.762Z</time></trkpt><trkpt lat="40.5661067" lon="8.7012433"><ele>492.75</ele><time>2026-04-16T13:22:37.762Z</time></trkpt><trkpt lat="40.566225" lon="8.70127"><ele>483.0</ele><time>2026-04-16T13:22:38.761Z</time></trkpt><trkpt lat="40.56635" lon="8.7012767"><ele>482.75</ele><time>2026-04-16T13:22:39.762Z</time></trkpt><trkpt lat="40.56647" lon="8.701265"><ele>482.5</ele><time>2026-04-16T13:22:40.762Z</time></trkpt><trkpt lat="40.566575" lon="8.70124"><ele>482.25</ele><time>2026-04-16T13:22:41.761Z</time></trkpt><trkpt lat="40.56668" lon="8.7012167"><ele>482.0</ele><time>2026-04-16T13:22:42.761Z</time></trkpt><trkpt lat="40.5667967" lon="8.7011817"><ele>482.0</ele><time>2026-04-16T13:22:43.761Z</time></trkpt><trkpt lat="40.566915" lon="8.7011467"><ele>482.0</ele><time>2026-04-16T13:22:44.761Z</time></trkpt><trkpt lat="40.567045" lon="8.701105"><ele>482.0</ele><time>2026-04-16T13:22:45.762Z</time></trkpt><trkpt lat="40.5671717" lon="8.70106"><ele>482.0</ele><time>2026-04-16T13:22:46.762Z</time></trkpt><trkpt lat="40.5673" lon="8.7010117"><ele>483.25</ele><time>2026-04-16T13:22:47.762Z</time></trkpt><trkpt lat="40.567415" lon="8.7009633"><ele>484.5</ele><time>2026-04-16T13:22:48.762Z</time></trkpt><trkpt lat="40.5675267" lon="8.70091"><ele>485.75</ele><time>2026-04-16T13:22:49.761Z</time></trkpt><trkpt lat="40.5676267" lon="8.70085"><ele>487.0</ele><time>2026-04-16T13:22:50.762Z</time></trkpt><trkpt lat="40.5677183" lon="8.7007833"><ele>487.0</ele><time>2026-04-16T13:22:51.762Z</time></trkpt><trkpt lat="40.5677983" lon="8.7007083"><ele>487.00000000000006</ele><time>2026-04-16T13:22:52.762Z</time></trkpt><trkpt lat="40.5678717" lon="8.70062"><ele>487.00000000000006</ele><time>2026-04-16T13:22:53.762Z</time></trkpt><trkpt lat="40.56794" lon="8.7005333"><ele>487.0</ele><time>2026-04-16T13:22:54.761Z</time></trkpt><trkpt lat="40.5679967" lon="8.700455"><ele>487.0</ele><time>2026-04-16T13:22:55.762Z</time></trkpt><trkpt lat="40.5680317" lon="8.7003667"><ele>484.40000000000003</ele><time>2026-04-16T13:22:56.762Z</time></trkpt><trkpt lat="40.568065" lon="8.7002583"><ele>481.80000000000007</ele><time>2026-04-16T13:22:57.761Z</time></trkpt><trkpt lat="40.5681067" lon="8.70015"><ele>479.2</ele><time>2026-04-16T13:22:58.762Z</time></trkpt><trkpt lat="40.5681483" lon="8.7000417"><ele>476.6</ele><time>2026-04-16T13:22:59.762Z</time></trkpt><trkpt lat="40.5682033" lon="8.69992"><ele>474.0</ele><time>2026-04-16T13:23:00.761Z</time></trkpt><trkpt lat="40.5682567" lon="8.6997917"><ele>474.0</ele><time>2026-04-16T13:23:01.762Z</time></trkpt><trkpt lat="40.5683183" lon="8.69965"><ele>474.0</ele><time>2026-04-16T13:23:02.761Z</time></trkpt><trkpt lat="40.568375" lon="8.6994967"><ele>474.0</ele><time>2026-04-16T13:23:03.762Z</time></trkpt><trkpt lat="40.56843" lon="8.6993517"><ele>474.0</ele><time>2026-04-16T13:23:04.761Z</time></trkpt><trkpt lat="40.5684783" lon="8.6992333"><ele>476.0</ele><time>2026-04-16T13:23:05.762Z</time></trkpt><trkpt lat="40.5685033" lon="8.699135"><ele>478.0</ele><time>2026-04-16T13:23:06.762Z</time></trkpt><trkpt lat="40.568515" lon="8.699035"><ele>480.0</ele><time>2026-04-16T13:23:07.762Z</time></trkpt><trkpt lat="40.5684983" lon="8.69893"><ele>482.0</ele><time>2026-04-16T13:23:08.762Z</time></trkpt><trkpt lat="40.56847" lon="8.69881"><ele>484.0</ele><time>2026-04-16T13:23:09.762Z</time></trkpt><trkpt lat="40.568435" lon="8.6986733"><ele>486.0</ele><time>2026-04-16T13:23:10.762Z</time></trkpt><trkpt lat="40.5684017" lon="8.6985233"><ele>486.5</ele><time>2026-04-16T13:23:11.761Z</time></trkpt><trkpt lat="40.56837" lon="8.698345"><ele>487.0</ele><time>2026-04-16T13:23:12.761Z</time></trkpt><trkpt lat="40.5683383" lon="8.6981767"><ele>487.5</ele><time>2026-04-16T13:23:13.762Z</time></trkpt><trkpt lat="40.5683133" lon="8.6980367"><ele>488.0</ele><time>2026-04-16T13:23:14.762Z</time></trkpt><trkpt lat="40.5683" lon="8.6979283"><ele>488.0</ele><time>2026-04-16T13:23:15.761Z</time></trkpt><trkpt lat="40.5682517" lon="8.6978333"><ele>487.99999999999994</ele><time>2026-04-16T13:23:17.762Z</time></trkpt><trkpt lat="40.568235" lon="8.6979133"><ele>487.99999999999994</ele><time>2026-04-16T13:23:20.762Z</time></trkpt><trkpt lat="40.5682483" lon="8.698095"><ele>488.0</ele><time>2026-04-16T13:23:22.761Z</time></trkpt><trkpt lat="40.5682533" lon="8.6982283"><ele>488.0</ele><time>2026-04-16T13:23:23.762Z</time></trkpt><trkpt lat="40.568245" lon="8.6983967"><ele>488.0</ele><time>2026-04-16T13:23:24.761Z</time></trkpt><trkpt lat="40.5682433" lon="8.6985683"><ele>487.99999999999994</ele><time>2026-04-16T13:23:25.761Z</time></trkpt><trkpt lat="40.5682417" lon="8.6986883"><ele>487.99999999999994</ele><time>2026-04-16T13:23:26.762Z</time></trkpt><trkpt lat="40.5682067" lon="8.6988067"><ele>488.0</ele><time>2026-04-16T13:23:28.762Z</time></trkpt><trkpt lat="40.5681283" lon="8.6987533"><ele>488.0</ele><time>2026-04-16T13:23:31.761Z</time></trkpt><trkpt lat="40.5680783" lon="8.69859"><ele>488.0</ele><time>2026-04-16T13:23:33.761Z</time></trkpt><trkpt lat="40.5680433" lon="8.6984717"><ele>488.0</ele><time>2026-04-16T13:23:34.761Z</time></trkpt><trkpt lat="40.56801" lon="8.6983317"><ele>488.0</ele><time>2026-04-16T13:23:35.762Z</time></trkpt><trkpt lat="40.5679717" lon="8.6981667"><ele>488.0</ele><time>2026-04-16T13:23:36.761Z</time></trkpt><trkpt lat="40.5679183" lon="8.6979867"><ele>488.0</ele><time>2026-04-16T13:23:37.762Z</time></trkpt><trkpt lat="40.5678733" lon="8.6978067"><ele>488.0</ele><time>2026-04-16T13:23:38.762Z</time></trkpt><trkpt lat="40.5678433" lon="8.697605"><ele>488.0</ele><time>2026-04-16T13:23:39.762Z</time></trkpt><trkpt lat="40.5678183" lon="8.6974017"><ele>490.75</ele><time>2026-04-16T13:23:40.761Z</time></trkpt><trkpt lat="40.5678017" lon="8.6971983"><ele>493.5</ele><time>2026-04-16T13:23:41.761Z</time></trkpt><trkpt lat="40.56781" lon="8.6969983"><ele>496.25</ele><time>2026-04-16T13:23:42.762Z</time></trkpt><trkpt lat="40.5678283" lon="8.69682"><ele>499.0</ele><time>2026-04-16T13:23:43.762Z</time></trkpt><trkpt lat="40.56787" lon="8.6966333"><ele>499.0</ele><time>2026-04-16T13:23:44.762Z</time></trkpt><trkpt lat="40.5679217" lon="8.6964483"><ele>499.0</ele><time>2026-04-16T13:23:45.762Z</time></trkpt><trkpt lat="40.5679617" lon="8.6962683"><ele>499.0</ele><time>2026-04-16T13:23:46.761Z</time></trkpt><trkpt lat="40.5680333" lon="8.6961033"><ele>499.0</ele><time>2026-04-16T13:23:47.762Z</time></trkpt><trkpt lat="40.5681033" lon="8.69597"><ele>504.0</ele><time>2026-04-16T13:23:48.761Z</time></trkpt><trkpt lat="40.56818" lon="8.69583"><ele>509.0</ele><time>2026-04-16T13:23:49.761Z</time></trkpt><trkpt lat="40.5682417" lon="8.6956867"><ele>514.0</ele><time>2026-04-16T13:23:50.761Z</time></trkpt><trkpt lat="40.5682733" lon="8.6955183"><ele>519.0</ele><time>2026-04-16T13:23:51.761Z</time></trkpt><trkpt lat="40.5682867" lon="8.695325"><ele>521.0</ele><time>2026-04-16T13:23:52.762Z</time></trkpt><trkpt lat="40.5682867" lon="8.6951167"><ele>523.0</ele><time>2026-04-16T13:23:53.761Z</time></trkpt><trkpt lat="40.5682883" lon="8.6949083"><ele>525.0</ele><time>2026-04-16T13:23:54.761Z</time></trkpt><trkpt lat="40.5682733" lon="8.6946967"><ele>525.0</ele><time>2026-04-16T13:23:55.762Z</time></trkpt><trkpt lat="40.5682367" lon="8.6945067"><ele>525.0</ele><time>2026-04-16T13:23:56.762Z</time></trkpt><trkpt lat="40.5682017" lon="8.6943533"><ele>525.0</ele><time>2026-04-16T13:23:57.762Z</time></trkpt><trkpt lat="40.568155" lon="8.69421"><ele>525.0</ele><time>2026-04-16T13:23:58.762Z</time></trkpt><trkpt lat="40.5681" lon="8.6940583"><ele>523.6666666666666</ele><time>2026-04-16T13:23:59.762Z</time></trkpt><trkpt lat="40.5680233" lon="8.6938967"><ele>522.3333333333333</ele><time>2026-04-16T13:24:00.761Z</time></trkpt><trkpt lat="40.5679383" lon="8.6937233"><ele>521.0</ele><time>2026-04-16T13:24:01.762Z</time></trkpt><trkpt lat="40.5678317" lon="8.69354"><ele>528.0</ele><time>2026-04-16T13:24:02.762Z</time></trkpt><trkpt lat="40.56772" lon="8.69336"><ele>535.0</ele><time>2026-04-16T13:24:03.762Z</time></trkpt><trkpt lat="40.5676117" lon="8.69318"><ele>542.0</ele><time>2026-04-16T13:24:04.761Z</time></trkpt><trkpt lat="40.5674967" lon="8.6930183"><ele>542.0</ele><time>2026-04-16T13:24:05.762Z</time></trkpt><trkpt lat="40.56739" lon="8.6928733"><ele>542.0</ele><time>2026-04-16T13:24:06.762Z</time></trkpt><trkpt lat="40.567275" lon="8.6927583"><ele>542.0</ele><time>2026-04-16T13:24:07.762Z</time></trkpt><trkpt lat="40.56714" lon="8.6926733"><ele>542.0</ele><time>2026-04-16T13:24:08.761Z</time></trkpt><trkpt lat="40.5670083" lon="8.69259"><ele>540.0</ele><time>2026-04-16T13:24:09.762Z</time></trkpt><trkpt lat="40.56686" lon="8.6925083"><ele>538.0</ele><time>2026-04-16T13:24:10.762Z</time></trkpt><trkpt lat="40.5666817" lon="8.692435"><ele>536.0</ele><time>2026-04-16T13:24:11.761Z</time></trkpt><trkpt lat="40.5664867" lon="8.6923633"><ele>536.0</ele><time>2026-04-16T13:24:12.761Z</time></trkpt><trkpt lat="40.56632" lon="8.69232"><ele>536.0</ele><time>2026-04-16T13:24:13.761Z</time></trkpt><trkpt lat="40.5661733" lon="8.6922567"><ele>536.0</ele><time>2026-04-16T13:24:14.762Z</time></trkpt><trkpt lat="40.5660433" lon="8.6922417"><ele>539.75</ele><time>2026-04-16T13:24:15.762Z</time></trkpt><trkpt lat="40.56591" lon="8.6922217"><ele>543.5</ele><time>2026-04-16T13:24:16.762Z</time></trkpt><trkpt lat="40.5657617" lon="8.6922183"><ele>547.25</ele><time>2026-04-16T13:24:17.762Z</time></trkpt><trkpt lat="40.5656083" lon="8.6922367"><ele>551.0</ele><time>2026-04-16T13:24:18.762Z</time></trkpt><trkpt lat="40.5654567" lon="8.6922617"><ele>550.25</ele><time>2026-04-16T13:24:19.762Z</time></trkpt><trkpt lat="40.565305" lon="8.6922967"><ele>549.5</ele><time>2026-04-16T13:24:20.762Z</time></trkpt><trkpt lat="40.5651817" lon="8.692365"><ele>548.75</ele><time>2026-04-16T13:24:21.761Z</time></trkpt><trkpt lat="40.5650533" lon="8.6924"><ele>548.0</ele><time>2026-04-16T13:24:22.762Z</time></trkpt><trkpt lat="40.5649483" lon="8.69246"><ele>548.0</ele><time>2026-04-16T13:24:23.762Z</time></trkpt><trkpt lat="40.5648633" lon="8.6925517"><ele>548.0</ele><time>2026-04-16T13:24:24.762Z</time></trkpt><trkpt lat="40.564755" lon="8.6926417"><ele>548.0</ele><time>2026-04-16T13:24:25.761Z</time></trkpt><trkpt lat="40.5646917" lon="8.6927633"><ele>548.0</ele><time>2026-04-16T13:24:26.762Z</time></trkpt><trkpt lat="40.56463" lon="8.692865"><ele>548.0</ele><time>2026-04-16T13:24:27.761Z</time></trkpt><trkpt lat="40.5645917" lon="8.692985"><ele>552.5</ele><time>2026-04-16T13:24:28.762Z</time></trkpt><trkpt lat="40.5645633" lon="8.693135"><ele>557.0</ele><time>2026-04-16T13:24:29.762Z</time></trkpt><trkpt lat="40.564545" lon="8.6933017"><ele>561.5</ele><time>2026-04-16T13:24:30.762Z</time></trkpt><trkpt lat="40.5645633" lon="8.6934833"><ele>566.0</ele><time>2026-04-16T13:24:31.761Z</time></trkpt><trkpt lat="40.5645967" lon="8.6936733"><ele>566.0</ele><time>2026-04-16T13:24:32.762Z</time></trkpt><trkpt lat="40.56463" lon="8.6938683"><ele>566.0</ele><time>2026-04-16T13:24:33.762Z</time></trkpt><trkpt lat="40.5646583" lon="8.6940533"><ele>566.0</ele><time>2026-04-16T13:24:34.761Z</time></trkpt><trkpt lat="40.5646667" lon="8.6942217"><ele>566.0</ele><time>2026-04-16T13:24:35.761Z</time></trkpt><trkpt lat="40.5646667" lon="8.6943683"><ele>565.2</ele><time>2026-04-16T13:24:36.762Z</time></trkpt><trkpt lat="40.5646417" lon="8.6944967"><ele>564.4000000000001</ele><time>2026-04-16T13:24:37.761Z</time></trkpt><trkpt lat="40.5646017" lon="8.6946"><ele>563.6</ele><time>2026-04-16T13:24:38.762Z</time></trkpt><trkpt lat="40.5645483" lon="8.694695"><ele>562.8000000000001</ele><time>2026-04-16T13:24:39.762Z</time></trkpt><trkpt lat="40.5644667" lon="8.694785"><ele>562.0</ele><time>2026-04-16T13:24:40.762Z</time></trkpt><trkpt lat="40.5643417" lon="8.694855"><ele>562.0</ele><time>2026-04-16T13:24:41.761Z</time></trkpt><trkpt lat="40.5642083" lon="8.69491"><ele>562.0</ele><time>2026-04-16T13:24:42.761Z</time></trkpt><trkpt lat="40.5640617" lon="8.69495"><ele>562.0</ele><time>2026-04-16T13:24:43.762Z</time></trkpt><trkpt lat="40.5639033" lon="8.694995"><ele>562.0</ele><time>2026-04-16T13:24:44.762Z</time></trkpt><trkpt lat="40.5637267" lon="8.695025"><ele>562.0</ele><time>2026-04-16T13:24:45.762Z</time></trkpt><trkpt lat="40.5635433" lon="8.69504"><ele>562.0</ele><time>2026-04-16T13:24:46.761Z</time></trkpt><trkpt lat="40.5633717" lon="8.695065"><ele>561.4</ele><time>2026-04-16T13:24:47.762Z</time></trkpt><trkpt lat="40.563255" lon="8.6950867"><ele>560.8000000000001</ele><time>2026-04-16T13:24:48.762Z</time></trkpt><trkpt lat="40.56314" lon="8.6951083"><ele>560.2</ele><time>2026-04-16T13:24:49.761Z</time></trkpt><trkpt lat="40.5630317" lon="8.695155"><ele>559.6</ele><time>2026-04-16T13:24:50.762Z</time></trkpt><trkpt lat="40.5629833" lon="8.69525"><ele>559.0</ele><time>2026-04-16T13:24:51.762Z</time></trkpt><trkpt lat="40.5629483" lon="8.6953717"><ele>562.75</ele><time>2026-04-16T13:24:52.762Z</time></trkpt><trkpt lat="40.5629217" lon="8.6955283"><ele>566.5</ele><time>2026-04-16T13:24:53.761Z</time></trkpt><trkpt lat="40.5629067" lon="8.6957133"><ele>570.25</ele><time>2026-04-16T13:24:54.762Z</time></trkpt><trkpt lat="40.5628967" lon="8.695925"><ele>574.0</ele><time>2026-04-16T13:24:55.761Z</time></trkpt><trkpt lat="40.5629267" lon="8.6962367"><ele>575.0</ele><time>2026-04-16T13:24:56.762Z</time></trkpt><trkpt lat="40.5629217" lon="8.696535"><ele>576.0</ele><time>2026-04-16T13:24:57.761Z</time></trkpt><trkpt lat="40.5629133" lon="8.6967467"><ele>577.0</ele><time>2026-04-16T13:24:58.762Z</time></trkpt><trkpt lat="40.562895" lon="8.6969183"><ele>572.25</ele><time>2026-04-16T13:24:59.762Z</time></trkpt><trkpt lat="40.562845" lon="8.6971"><ele>567.5</ele><time>2026-04-16T13:25:00.762Z</time></trkpt><trkpt lat="40.5627983" lon="8.6972783"><ele>562.75</ele><time>2026-04-16T13:25:01.762Z</time></trkpt><trkpt lat="40.562765" lon="8.697455"><ele>558.0</ele><time>2026-04-16T13:25:02.762Z</time></trkpt><trkpt lat="40.5627333" lon="8.6976317"><ele>562.0</ele><time>2026-04-16T13:25:03.761Z</time></trkpt><trkpt lat="40.5626767" lon="8.6978233"><ele>566.0</ele><time>2026-04-16T13:25:04.762Z</time></trkpt><trkpt lat="40.5626117" lon="8.6980267"><ele>570.0</ele><time>2026-04-16T13:25:05.762Z</time></trkpt><trkpt lat="40.562545" lon="8.6982267"><ele>570.0</ele><time>2026-04-16T13:25:06.762Z</time></trkpt><trkpt lat="40.5624883" lon="8.6983917"><ele>570.0</ele><time>2026-04-16T13:25:07.762Z</time></trkpt><trkpt lat="40.5624417" lon="8.6985367"><ele>570.0</ele><time>2026-04-16T13:25:08.761Z</time></trkpt><trkpt lat="40.562405" lon="8.6986683"><ele>570.0</ele><time>2026-04-16T13:25:09.761Z</time></trkpt><trkpt lat="40.562385" lon="8.6987933"><ele>569.8</ele><time>2026-04-16T13:25:10.761Z</time></trkpt><trkpt lat="40.562385" lon="8.6989083"><ele>569.6</ele><time>2026-04-16T13:25:11.761Z</time></trkpt><trkpt lat="40.5624067" lon="8.6990083"><ele>569.4</ele><time>2026-04-16T13:25:12.761Z</time></trkpt><trkpt lat="40.5624517" lon="8.6991017"><ele>569.2</ele><time>2026-04-16T13:25:13.761Z</time></trkpt><trkpt lat="40.5625233" lon="8.699215"><ele>569.0</ele><time>2026-04-16T13:25:14.761Z</time></trkpt><trkpt lat="40.5625933" lon="8.6993517"><ele>568.75</ele><time>2026-04-16T13:25:15.761Z</time></trkpt><trkpt lat="40.5626533" lon="8.6995133"><ele>568.5</ele><time>2026-04-16T13:25:16.76Z</time></trkpt><trkpt lat="40.5626917" lon="8.6996683"><ele>568.25</ele><time>2026-04-16T13:25:17.76Z</time></trkpt><trkpt lat="40.5627233" lon="8.69985"><ele>568.0</ele><time>2026-04-16T13:25:18.761Z</time></trkpt><trkpt lat="40.5627467" lon="8.7000483"><ele>570.6666666666667</ele><time>2026-04-16T13:25:19.761Z</time></trkpt><trkpt lat="40.562765" lon="8.70025"><ele>573.3333333333334</ele><time>2026-04-16T13:25:20.76Z</time></trkpt><trkpt lat="40.5627933" lon="8.7004533"><ele>576.0</ele><time>2026-04-16T13:25:21.761Z</time></trkpt><trkpt lat="40.562815" lon="8.7006483"><ele>576.0</ele><time>2026-04-16T13:25:22.76Z</time></trkpt><trkpt lat="40.5628283" lon="8.7008267"><ele>576.0</ele><time>2026-04-16T13:25:23.76Z</time></trkpt><trkpt lat="40.5628217" lon="8.7009917"><ele>576.0</ele><time>2026-04-16T13:25:24.76Z</time></trkpt><trkpt lat="40.5628017" lon="8.7011617"><ele>576.0</ele><time>2026-04-16T13:25:25.761Z</time></trkpt><trkpt lat="40.5627583" lon="8.701335"><ele>575.25</ele><time>2026-04-16T13:25:26.76Z</time></trkpt><trkpt lat="40.562695" lon="8.7015317"><ele>574.5</ele><time>2026-04-16T13:25:27.761Z</time></trkpt><trkpt lat="40.562635" lon="8.7017117"><ele>573.75</ele><time>2026-04-16T13:25:28.76Z</time></trkpt><trkpt lat="40.56259" lon="8.701855"><ele>573.0</ele><time>2026-04-16T13:25:29.761Z</time></trkpt><trkpt lat="40.5625633" lon="8.7019517"><ele>572.8</ele><time>2026-04-16T13:25:30.761Z</time></trkpt><trkpt lat="40.5625067" lon="8.7020467"><ele>572.5999999999999</ele><time>2026-04-16T13:25:32.76Z</time></trkpt><trkpt lat="40.562425" lon="8.7020867"><ele>572.4000000000001</ele><time>2026-04-16T13:25:34.761Z</time></trkpt><trkpt lat="40.5623833" lon="8.70221"><ele>572.2</ele><time>2026-04-16T13:25:36.76Z</time></trkpt><trkpt lat="40.5623667" lon="8.7023033"><ele>572.0</ele><time>2026-04-16T13:25:37.76Z</time></trkpt><trkpt lat="40.5623667" lon="8.7024333"><ele>572.0</ele><time>2026-04-16T13:25:38.761Z</time></trkpt><trkpt lat="40.562365" lon="8.7025817"><ele>572.0</ele><time>2026-04-16T13:25:39.76Z</time></trkpt><trkpt lat="40.562375" lon="8.702715"><ele>572.0</ele><time>2026-04-16T13:25:40.76Z</time></trkpt><trkpt lat="40.5624017" lon="8.7028483"><ele>572.0</ele><time>2026-04-16T13:25:41.761Z</time></trkpt><trkpt lat="40.5624383" lon="8.702975"><ele>572.0</ele><time>2026-04-16T13:25:42.761Z</time></trkpt><trkpt lat="40.5624633" lon="8.703115"><ele>572.0</ele><time>2026-04-16T13:25:43.761Z</time></trkpt><trkpt lat="40.562455" lon="8.703265"><ele>572.0</ele><time>2026-04-16T13:25:44.76Z</time></trkpt><trkpt lat="40.5624267" lon="8.7034083"><ele>572.0</ele><time>2026-04-16T13:25:45.761Z</time></trkpt><trkpt lat="40.5623867" lon="8.703565"><ele>572.0</ele><time>2026-04-16T13:25:46.761Z</time></trkpt><trkpt lat="40.56234" lon="8.7037267"><ele>571.0</ele><time>2026-04-16T13:25:47.761Z</time></trkpt><trkpt lat="40.5622883" lon="8.7038917"><ele>570.0</ele><time>2026-04-16T13:25:48.76Z</time></trkpt><trkpt lat="40.5622417" lon="8.704065"><ele>569.0</ele><time>2026-04-16T13:25:49.761Z</time></trkpt><trkpt lat="40.562195" lon="8.7042317"><ele>568.0</ele><time>2026-04-16T13:25:50.76Z</time></trkpt><trkpt lat="40.5621383" lon="8.7044"><ele>569.25</ele><time>2026-04-16T13:25:51.76Z</time></trkpt><trkpt lat="40.5620767" lon="8.7045583"><ele>570.5</ele><time>2026-04-16T13:25:52.76Z</time></trkpt><trkpt lat="40.5620117" lon="8.70471"><ele>571.75</ele><time>2026-04-16T13:25:53.761Z</time></trkpt><trkpt lat="40.5619583" lon="8.7048617"><ele>573.0</ele><time>2026-04-16T13:25:54.761Z</time></trkpt><trkpt lat="40.5619117" lon="8.7050183"><ele>573.0</ele><time>2026-04-16T13:25:55.761Z</time></trkpt><trkpt lat="40.5618817" lon="8.7051817"><ele>573.0</ele><time>2026-04-16T13:25:56.76Z</time></trkpt><trkpt lat="40.56186" lon="8.705365"><ele>573.0</ele><time>2026-04-16T13:25:57.761Z</time></trkpt><trkpt lat="40.5618433" lon="8.70556"><ele>573.0</ele><time>2026-04-16T13:25:58.761Z</time></trkpt><trkpt lat="40.5618267" lon="8.7057583"><ele>571.75</ele><time>2026-04-16T13:25:59.761Z</time></trkpt><trkpt lat="40.5618017" lon="8.7059633"><ele>570.5</ele><time>2026-04-16T13:26:00.761Z</time></trkpt><trkpt lat="40.5617583" lon="8.7061583"><ele>569.25</ele><time>2026-04-16T13:26:01.761Z</time></trkpt><trkpt lat="40.5617117" lon="8.7063267"><ele>568.0</ele><time>2026-04-16T13:26:02.76Z</time></trkpt><trkpt lat="40.561685" lon="8.7064617"><ele>567.0</ele><time>2026-04-16T13:26:03.761Z</time></trkpt><trkpt lat="40.5616517" lon="8.7065567"><ele>566.0</ele><time>2026-04-16T13:26:04.761Z</time></trkpt><trkpt lat="40.5616017" lon="8.706625"><ele>565.0</ele><time>2026-04-16T13:26:05.761Z</time></trkpt><trkpt lat="40.5615383" lon="8.7066667"><ele>564.0</ele><time>2026-04-16T13:26:06.761Z</time></trkpt><trkpt lat="40.5614633" lon="8.706695"><ele>563.0</ele><time>2026-04-16T13:26:07.761Z</time></trkpt><trkpt lat="40.5613617" lon="8.7067333"><ele>562.0</ele><time>2026-04-16T13:26:08.76Z</time></trkpt><trkpt lat="40.5612533" lon="8.7067983"><ele>561.6</ele><time>2026-04-16T13:26:09.761Z</time></trkpt><trkpt lat="40.5611583" lon="8.7068733"><ele>561.2</ele><time>2026-04-16T13:26:10.76Z</time></trkpt><trkpt lat="40.5610833" lon="8.7069567"><ele>560.8</ele><time>2026-04-16T13:26:11.761Z</time></trkpt><trkpt lat="40.5610283" lon="8.7070583"><ele>560.4</ele><time>2026-04-16T13:26:12.76Z</time></trkpt><trkpt lat="40.560985" lon="8.707195"><ele>560.0</ele><time>2026-04-16T13:26:13.76Z</time></trkpt><trkpt lat="40.5609467" lon="8.70735"><ele>560.0</ele><time>2026-04-16T13:26:14.761Z</time></trkpt><trkpt lat="40.56091" lon="8.7075233"><ele>560.0</ele><time>2026-04-16T13:26:15.761Z</time></trkpt><trkpt lat="40.5608683" lon="8.7077133"><ele>560.0</ele><time>2026-04-16T13:26:16.76Z</time></trkpt><trkpt lat="40.5608333" lon="8.707915"><ele>560.0</ele><time>2026-04-16T13:26:17.76Z</time></trkpt><trkpt lat="40.560815" lon="8.7080983"><ele>559.0</ele><time>2026-04-16T13:26:18.76Z</time></trkpt><trkpt lat="40.5608017" lon="8.70826"><ele>558.0</ele><time>2026-04-16T13:26:19.76Z</time></trkpt><trkpt lat="40.560785" lon="8.7083967"><ele>557.0</ele><time>2026-04-16T13:26:20.761Z</time></trkpt><trkpt lat="40.5607483" lon="8.7085267"><ele>556.0</ele><time>2026-04-16T13:26:21.761Z</time></trkpt><trkpt lat="40.5606883" lon="8.7086783"><ele>553.3333333333334</ele><time>2026-04-16T13:26:22.761Z</time></trkpt><trkpt lat="40.56062" lon="8.7088567"><ele>550.6666666666666</ele><time>2026-04-16T13:26:23.76Z</time></trkpt><trkpt lat="40.56055" lon="8.7090533"><ele>548.0</ele><time>2026-04-16T13:26:24.76Z</time></trkpt><trkpt lat="40.5604867" lon="8.7092317"><ele>548.0</ele><time>2026-04-16T13:26:25.761Z</time></trkpt><trkpt lat="40.56043" lon="8.7094"><ele>548.0</ele><time>2026-04-16T13:26:26.76Z</time></trkpt><trkpt lat="40.56038" lon="8.7095717"><ele>548.0</ele><time>2026-04-16T13:26:27.76Z</time></trkpt><trkpt lat="40.5603317" lon="8.70974"><ele>548.0</ele><time>2026-04-16T13:26:28.761Z</time></trkpt><trkpt lat="40.56028" lon="8.7099"><ele>547.4</ele><time>2026-04-16T13:26:29.761Z</time></trkpt><trkpt lat="40.560225" lon="8.71005"><ele>546.8</ele><time>2026-04-16T13:26:30.76Z</time></trkpt><trkpt lat="40.5601683" lon="8.7101867"><ele>546.2</ele><time>2026-04-16T13:26:31.761Z</time></trkpt><trkpt lat="40.560125" lon="8.7103"><ele>545.6</ele><time>2026-04-16T13:26:32.761Z</time></trkpt><trkpt lat="40.560105" lon="8.7104"><ele>545.0</ele><time>2026-04-16T13:26:33.761Z</time></trkpt><trkpt lat="40.560115" lon="8.7105"><ele>543.75</ele><time>2026-04-16T13:26:34.761Z</time></trkpt><trkpt lat="40.56015" lon="8.7106033"><ele>542.5</ele><time>2026-04-16T13:26:35.761Z</time></trkpt><trkpt lat="40.560205" lon="8.7107317"><ele>541.25</ele><time>2026-04-16T13:26:36.76Z</time></trkpt><trkpt lat="40.560265" lon="8.7109"><ele>540.0</ele><time>2026-04-16T13:26:37.761Z</time></trkpt><trkpt lat="40.560325" lon="8.71108"><ele>538.0</ele><time>2026-04-16T13:26:38.76Z</time></trkpt><trkpt lat="40.5603967" lon="8.7112833"><ele>536.0</ele><time>2026-04-16T13:26:39.761Z</time></trkpt><trkpt lat="40.5604683" lon="8.711475"><ele>534.0</ele><time>2026-04-16T13:26:40.761Z</time></trkpt><trkpt lat="40.560545" lon="8.7116633"><ele>534.0</ele><time>2026-04-16T13:26:41.761Z</time></trkpt><trkpt lat="40.5606167" lon="8.7118417"><ele>534.0</ele><time>2026-04-16T13:26:42.761Z</time></trkpt><trkpt lat="40.56068" lon="8.712005"><ele>534.0</ele><time>2026-04-16T13:26:43.761Z</time></trkpt><trkpt lat="40.5607267" lon="8.7121517"><ele>534.0</ele><time>2026-04-16T13:26:44.761Z</time></trkpt><trkpt lat="40.560765" lon="8.712285"><ele>532.5</ele><time>2026-04-16T13:26:45.761Z</time></trkpt><trkpt lat="40.560795" lon="8.712415"><ele>531.0</ele><time>2026-04-16T13:26:46.761Z</time></trkpt><trkpt lat="40.5608367" lon="8.7125317"><ele>529.5</ele><time>2026-04-16T13:26:47.76Z</time></trkpt><trkpt lat="40.5608983" lon="8.712675"><ele>528.0</ele><time>2026-04-16T13:26:48.76Z</time></trkpt><trkpt lat="40.560965" lon="8.7128283"><ele>526.25</ele><time>2026-04-16T13:26:49.761Z</time></trkpt><trkpt lat="40.5610317" lon="8.71299"><ele>524.5</ele><time>2026-04-16T13:26:50.761Z</time></trkpt><trkpt lat="40.5610883" lon="8.71315"><ele>522.75</ele><time>2026-04-16T13:26:51.76Z</time></trkpt><trkpt lat="40.5611317" lon="8.71332"><ele>521.0</ele><time>2026-04-16T13:26:52.76Z</time></trkpt><trkpt lat="40.5611717" lon="8.7134967"><ele>520.3333333333333</ele><time>2026-04-16T13:26:53.76Z</time></trkpt><trkpt lat="40.5612" lon="8.7136867"><ele>519.6666666666666</ele><time>2026-04-16T13:26:54.761Z</time></trkpt><trkpt lat="40.56121" lon="8.7138833"><ele>519.0</ele><time>2026-04-16T13:26:55.76Z</time></trkpt><trkpt lat="40.56122" lon="8.714085"><ele>519.0</ele><time>2026-04-16T13:26:56.76Z</time></trkpt><trkpt lat="40.56122" lon="8.7142933"><ele>519.0</ele><time>2026-04-16T13:26:57.761Z</time></trkpt><trkpt lat="40.56122" lon="8.7144883"><ele>519.0</ele><time>2026-04-16T13:26:58.761Z</time></trkpt><trkpt lat="40.5612333" lon="8.7146917"><ele>516.6666666666666</ele><time>2026-04-16T13:26:59.76Z</time></trkpt><trkpt lat="40.5612567" lon="8.714895"><ele>514.3333333333333</ele><time>2026-04-16T13:27:00.76Z</time></trkpt><trkpt lat="40.5612933" lon="8.7150933"><ele>512.0</ele><time>2026-04-16T13:27:01.76Z</time></trkpt><trkpt lat="40.5613317" lon="8.71528"><ele>511.0</ele><time>2026-04-16T13:27:02.76Z</time></trkpt><trkpt lat="40.5613667" lon="8.7154533"><ele>510.0</ele><time>2026-04-16T13:27:03.761Z</time></trkpt><trkpt lat="40.5614083" lon="8.7156167"><ele>509.0</ele><time>2026-04-16T13:27:04.76Z</time></trkpt><trkpt lat="40.561455" lon="8.7157633"><ele>508.0</ele><time>2026-04-16T13:27:05.761Z</time></trkpt><trkpt lat="40.5614967" lon="8.7158983"><ele>508.0</ele><time>2026-04-16T13:27:06.76Z</time></trkpt><trkpt lat="40.5615217" lon="8.71604"><ele>508.0</ele><time>2026-04-16T13:27:07.76Z</time></trkpt><trkpt lat="40.56154" lon="8.7162033"><ele>508.0</ele><time>2026-04-16T13:27:08.76Z</time></trkpt><trkpt lat="40.5615483" lon="8.7163933"><ele>508.0</ele><time>2026-04-16T13:27:09.76Z</time></trkpt><trkpt lat="40.5615467" lon="8.716605"><ele>506.5</ele><time>2026-04-16T13:27:10.761Z</time></trkpt><trkpt lat="40.5615483" lon="8.7168117"><ele>505.0</ele><time>2026-04-16T13:27:11.761Z</time></trkpt><trkpt lat="40.5615533" lon="8.7170033"><ele>503.5</ele><time>2026-04-16T13:27:12.761Z</time></trkpt><trkpt lat="40.5615567" lon="8.7171633"><ele>502.0</ele><time>2026-04-16T13:27:13.761Z</time></trkpt><trkpt lat="40.5615517" lon="8.717315"><ele>501.0</ele><time>2026-04-16T13:27:14.761Z</time></trkpt><trkpt lat="40.561535" lon="8.7174517"><ele>500.0</ele><time>2026-04-16T13:27:15.76Z</time></trkpt><trkpt lat="40.5614967" lon="8.7175883"><ele>499.0</ele><time>2026-04-16T13:27:16.761Z</time></trkpt><trkpt lat="40.5614267" lon="8.7177133"><ele>498.0</ele><time>2026-04-16T13:27:17.76Z</time></trkpt><trkpt lat="40.5613417" lon="8.7178333"><ele>496.75</ele><time>2026-04-16T13:27:18.761Z</time></trkpt><trkpt lat="40.56126" lon="8.7179467"><ele>495.5</ele><time>2026-04-16T13:27:19.761Z</time></trkpt><trkpt lat="40.5612" lon="8.7180683"><ele>494.25</ele><time>2026-04-16T13:27:20.761Z</time></trkpt><trkpt lat="40.5611633" lon="8.7182267"><ele>493.0</ele><time>2026-04-16T13:27:21.761Z</time></trkpt><trkpt lat="40.5611317" lon="8.7184117"><ele>490.5</ele><time>2026-04-16T13:27:22.761Z</time></trkpt><trkpt lat="40.5611033" lon="8.71859"><ele>488.0</ele><time>2026-04-16T13:27:23.761Z</time></trkpt><trkpt lat="40.5610617" lon="8.71875"><ele>485.5</ele><time>2026-04-16T13:27:24.761Z</time></trkpt><trkpt lat="40.5610183" lon="8.7189267"><ele>483.0</ele><time>2026-04-16T13:27:25.761Z</time></trkpt><trkpt lat="40.560955" lon="8.7191017"><ele>483.0</ele><time>2026-04-16T13:27:26.761Z</time></trkpt><trkpt lat="40.560905" lon="8.719265"><ele>483.0</ele><time>2026-04-16T13:27:27.76Z</time></trkpt><trkpt lat="40.56086" lon="8.71943"><ele>483.0</ele><time>2026-04-16T13:27:28.761Z</time></trkpt><trkpt lat="40.5608217" lon="8.719575"><ele>483.0</ele><time>2026-04-16T13:27:29.76Z</time></trkpt><trkpt lat="40.5607667" lon="8.7197067"><ele>481.75</ele><time>2026-04-16T13:27:30.761Z</time></trkpt><trkpt lat="40.56069" lon="8.719835"><ele>480.5</ele><time>2026-04-16T13:27:31.76Z</time></trkpt><trkpt lat="40.5606133" lon="8.719955"><ele>479.25</ele><time>2026-04-16T13:27:32.761Z</time></trkpt><trkpt lat="40.5605533" lon="8.7200833"><ele>478.0</ele><time>2026-04-16T13:27:33.76Z</time></trkpt><trkpt lat="40.5604967" lon="8.7202317"><ele>477.25</ele><time>2026-04-16T13:27:34.76Z</time></trkpt><trkpt lat="40.5604367" lon="8.7203867"><ele>476.5</ele><time>2026-04-16T13:27:35.761Z</time></trkpt><trkpt lat="40.5603733" lon="8.7205433"><ele>475.75</ele><time>2026-04-16T13:27:36.761Z</time></trkpt><trkpt lat="40.560315" lon="8.7206983"><ele>475.0</ele><time>2026-04-16T13:27:37.76Z</time></trkpt><trkpt lat="40.560265" lon="8.72084"><ele>472.25</ele><time>2026-04-16T13:27:38.76Z</time></trkpt><trkpt lat="40.5602317" lon="8.7209883"><ele>469.5</ele><time>2026-04-16T13:27:39.761Z</time></trkpt><trkpt lat="40.5601917" lon="8.721135"><ele>466.75</ele><time>2026-04-16T13:27:40.761Z</time></trkpt><trkpt lat="40.56015" lon="8.7212867"><ele>464.0</ele><time>2026-04-16T13:27:41.761Z</time></trkpt><trkpt lat="40.5601217" lon="8.721445"><ele>461.75</ele><time>2026-04-16T13:27:42.761Z</time></trkpt><trkpt lat="40.56008" lon="8.7216067"><ele>459.5</ele><time>2026-04-16T13:27:43.761Z</time></trkpt><trkpt lat="40.5600417" lon="8.7217733"><ele>457.25</ele><time>2026-04-16T13:27:44.761Z</time></trkpt><trkpt lat="40.5600017" lon="8.7219367"><ele>455.0</ele><time>2026-04-16T13:27:45.761Z</time></trkpt><trkpt lat="40.5599533" lon="8.72209"><ele>453.2</ele><time>2026-04-16T13:27:46.76Z</time></trkpt><trkpt lat="40.5599117" lon="8.722235"><ele>451.4</ele><time>2026-04-16T13:27:47.761Z</time></trkpt><trkpt lat="40.5598933" lon="8.72236"><ele>449.6</ele><time>2026-04-16T13:27:48.761Z</time></trkpt><trkpt lat="40.559875" lon="8.7224983"><ele>447.8</ele><time>2026-04-16T13:27:49.761Z</time></trkpt><trkpt lat="40.5598683" lon="8.7226483"><ele>446.0</ele><time>2026-04-16T13:27:50.761Z</time></trkpt><trkpt lat="40.5598533" lon="8.722785"><ele>445.4</ele><time>2026-04-16T13:27:51.761Z</time></trkpt><trkpt lat="40.559845" lon="8.7229117"><ele>444.8</ele><time>2026-04-16T13:27:52.76Z</time></trkpt><trkpt lat="40.5598083" lon="8.7230367"><ele>444.19999999999993</ele><time>2026-04-16T13:27:53.76Z</time></trkpt><trkpt lat="40.55976" lon="8.723145"><ele>443.59999999999997</ele><time>2026-04-16T13:27:54.76Z</time></trkpt><trkpt lat="40.5597017" lon="8.7232583"><ele>443.0</ele><time>2026-04-16T13:27:55.761Z</time></trkpt><trkpt lat="40.5596433" lon="8.7233817"><ele>443.0</ele><time>2026-04-16T13:27:56.76Z</time></trkpt><trkpt lat="40.5595767" lon="8.7235083"><ele>443.0</ele><time>2026-04-16T13:27:57.761Z</time></trkpt><trkpt lat="40.5594983" lon="8.7236333"><ele>443.0</ele><time>2026-04-16T13:27:58.76Z</time></trkpt><trkpt lat="40.5594267" lon="8.7237667"><ele>443.0</ele><time>2026-04-16T13:27:59.761Z</time></trkpt><trkpt lat="40.5593533" lon="8.72389"><ele>438.0</ele><time>2026-04-16T13:28:00.761Z</time></trkpt><trkpt lat="40.559285" lon="8.7240067"><ele>432.99999999999994</ele><time>2026-04-16T13:28:01.76Z</time></trkpt><trkpt lat="40.5592217" lon="8.7241133"><ele>428.0</ele><time>2026-04-16T13:28:02.76Z</time></trkpt><trkpt lat="40.5591683" lon="8.724225"><ele>423.0</ele><time>2026-04-16T13:28:03.76Z</time></trkpt><trkpt lat="40.559125" lon="8.7243517"><ele>418.0</ele><time>2026-04-16T13:28:04.76Z</time></trkpt><trkpt lat="40.5590933" lon="8.7244783"><ele>416.83333333333337</ele><time>2026-04-16T13:28:05.76Z</time></trkpt><trkpt lat="40.55907" lon="8.7245983"><ele>415.6666666666667</ele><time>2026-04-16T13:28:06.76Z</time></trkpt><trkpt lat="40.5590617" lon="8.7247183"><ele>414.5</ele><time>2026-04-16T13:28:07.76Z</time></trkpt><trkpt lat="40.5590567" lon="8.7248267"><ele>413.33333333333337</ele><time>2026-04-16T13:28:08.759Z</time></trkpt><trkpt lat="40.559045" lon="8.724935"><ele>412.1666666666667</ele><time>2026-04-16T13:28:09.76Z</time></trkpt><trkpt lat="40.5590317" lon="8.725025"><ele>411.0</ele><time>2026-04-16T13:28:10.76Z</time></trkpt><trkpt lat="40.5590317" lon="8.7251133"><ele>411.0</ele><time>2026-04-16T13:28:11.76Z</time></trkpt><trkpt lat="40.5590383" lon="8.7252117"><ele>411.0</ele><time>2026-04-16T13:28:12.76Z</time></trkpt><trkpt lat="40.5590583" lon="8.7253317"><ele>411.0</ele><time>2026-04-16T13:28:13.759Z</time></trkpt><trkpt lat="40.5590617" lon="8.7254567"><ele>411.0</ele><time>2026-04-16T13:28:14.759Z</time></trkpt><trkpt lat="40.559065" lon="8.7255483"><ele>411.0</ele><time>2026-04-16T13:28:15.759Z</time></trkpt><trkpt lat="40.55903" lon="8.72563"><ele>411.0</ele><time>2026-04-16T13:28:17.759Z</time></trkpt><trkpt lat="40.55894" lon="8.7256817"><ele>409.57142857142856</ele><time>2026-04-16T13:28:19.759Z</time></trkpt><trkpt lat="40.5588783" lon="8.7257067"><ele>408.1428571428571</ele><time>2026-04-16T13:28:20.759Z</time></trkpt><trkpt lat="40.5588233" lon="8.7257483"><ele>406.7142857142857</ele><time>2026-04-16T13:28:21.76Z</time></trkpt><trkpt lat="40.5587733" lon="8.725805"><ele>405.2857142857143</ele><time>2026-04-16T13:28:22.76Z</time></trkpt><trkpt lat="40.5587333" lon="8.7258833"><ele>403.8571428571429</ele><time>2026-04-16T13:28:23.759Z</time></trkpt><trkpt lat="40.55872" lon="8.725975"><ele>402.42857142857144</ele><time>2026-04-16T13:28:24.76Z</time></trkpt><trkpt lat="40.55872" lon="8.7260833"><ele>401.0</ele><time>2026-04-16T13:28:25.76Z</time></trkpt><trkpt lat="40.5587267" lon="8.7261967"><ele>400.4</ele><time>2026-04-16T13:28:26.76Z</time></trkpt><trkpt lat="40.558735" lon="8.7263117"><ele>399.8</ele><time>2026-04-16T13:28:27.76Z</time></trkpt><trkpt lat="40.5587333" lon="8.72643"><ele>399.2</ele><time>2026-04-16T13:28:28.76Z</time></trkpt><trkpt lat="40.558735" lon="8.726565"><ele>398.59999999999997</ele><time>2026-04-16T13:28:29.759Z</time></trkpt><trkpt lat="40.558725" lon="8.7267083"><ele>398.0</ele><time>2026-04-16T13:28:30.76Z</time></trkpt><trkpt lat="40.558715" lon="8.7268467"><ele>402.59999999999997</ele><time>2026-04-16T13:28:31.759Z</time></trkpt><trkpt lat="40.5586967" lon="8.7269883"><ele>407.2</ele><time>2026-04-16T13:28:32.76Z</time></trkpt><trkpt lat="40.55869" lon="8.72713"><ele>411.8</ele><time>2026-04-16T13:28:33.76Z</time></trkpt><trkpt lat="40.55869" lon="8.7272733"><ele>416.4</ele><time>2026-04-16T13:28:34.76Z</time></trkpt><trkpt lat="40.5586783" lon="8.7274233"><ele>421.0</ele><time>2026-04-16T13:28:35.76Z</time></trkpt><trkpt lat="40.5586717" lon="8.7275517"><ele>421.0</ele><time>2026-04-16T13:28:36.76Z</time></trkpt><trkpt lat="40.55867" lon="8.7276583"><ele>421.0</ele><time>2026-04-16T13:28:37.759Z</time></trkpt><trkpt lat="40.5586633" lon="8.7277833"><ele>421.0</ele><time>2026-04-16T13:28:39.76Z</time></trkpt><trkpt lat="40.5587083" lon="8.72771"><ele>421.0</ele><time>2026-04-16T13:28:42.76Z</time></trkpt><trkpt lat="40.55869" lon="8.7275417"><ele>421.0</ele><time>2026-04-16T13:28:44.76Z</time></trkpt><trkpt lat="40.5586817" lon="8.7274433"><ele>421.00000000000006</ele><time>2026-04-16T13:28:45.76Z</time></trkpt><trkpt lat="40.558685" lon="8.7273317"><ele>421.0</ele><time>2026-04-16T13:28:46.759Z</time></trkpt><trkpt lat="40.5586933" lon="8.7272117"><ele>421.0</ele><time>2026-04-16T13:28:47.759Z</time></trkpt><trkpt lat="40.5587033" lon="8.727095"><ele>421.0</ele><time>2026-04-16T13:28:48.759Z</time></trkpt><trkpt lat="40.558705" lon="8.7269983"><ele>421.00000000000006</ele><time>2026-04-16T13:28:49.76Z</time></trkpt><trkpt lat="40.5587133" lon="8.7268917"><ele>421.0</ele><time>2026-04-16T13:28:51.76Z</time></trkpt><trkpt lat="40.5587767" lon="8.7269733"><ele>415.8</ele><time>2026-04-16T13:29:04.76Z</time></trkpt><trkpt lat="40.5588333" lon="8.7271283"><ele>410.6</ele><time>2026-04-16T13:29:06.76Z</time></trkpt><trkpt lat="40.5588583" lon="8.7272167"><ele>405.4</ele><time>2026-04-16T13:29:07.76Z</time></trkpt><trkpt lat="40.5588967" lon="8.7273083"><ele>400.2</ele><time>2026-04-16T13:29:08.759Z</time></trkpt><trkpt lat="40.55894" lon="8.7274117"><ele>395.0</ele><time>2026-04-16T13:29:09.76Z</time></trkpt><trkpt lat="40.5589917" lon="8.7275133"><ele>395.0</ele><time>2026-04-16T13:29:10.76Z</time></trkpt><trkpt lat="40.5590383" lon="8.7276233"><ele>395.0</ele><time>2026-04-16T13:29:11.76Z</time></trkpt><trkpt lat="40.55907" lon="8.7277117"><ele>395.0</ele><time>2026-04-16T13:29:12.76Z</time></trkpt><trkpt lat="40.5590967" lon="8.7278167"><ele>395.0</ele><time>2026-04-16T13:29:13.76Z</time></trkpt><trkpt lat="40.55915" lon="8.727965"><ele>395.0</ele><time>2026-04-16T13:29:15.759Z</time></trkpt><trkpt lat="40.559185" lon="8.7280533"><ele>394.0</ele><time>2026-04-16T13:29:16.76Z</time></trkpt><trkpt lat="40.5592433" lon="8.72813"><ele>393.0</ele><time>2026-04-16T13:29:17.76Z</time></trkpt><trkpt lat="40.559315" lon="8.7282083"><ele>392.0</ele><time>2026-04-16T13:29:18.76Z</time></trkpt><trkpt lat="40.559395" lon="8.728295"><ele>391.0</ele><time>2026-04-16T13:29:19.76Z</time></trkpt><trkpt lat="40.559485" lon="8.7283733"><ele>390.0</ele><time>2026-04-16T13:29:20.76Z</time></trkpt><trkpt lat="40.5595833" lon="8.728455"><ele>389.0</ele><time>2026-04-16T13:29:21.759Z</time></trkpt><trkpt lat="40.559685" lon="8.728545"><ele>388.0</ele><time>2026-04-16T13:29:22.76Z</time></trkpt><trkpt lat="40.5597917" lon="8.7286567"><ele>387.0</ele><time>2026-04-16T13:29:23.76Z</time></trkpt><trkpt lat="40.5598817" lon="8.7287617"><ele>386.0</ele><time>2026-04-16T13:29:24.759Z</time></trkpt><trkpt lat="40.55997" lon="8.728855"><ele>385.99999999999994</ele><time>2026-04-16T13:29:25.76Z</time></trkpt><trkpt lat="40.5600533" lon="8.7289233"><ele>386.0</ele><time>2026-04-16T13:29:26.76Z</time></trkpt><trkpt lat="40.56013" lon="8.7289717"><ele>386.0</ele><time>2026-04-16T13:29:27.76Z</time></trkpt><trkpt lat="40.560195" lon="8.7289983"><ele>386.0</ele><time>2026-04-16T13:29:28.76Z</time></trkpt><trkpt lat="40.56026" lon="8.7289967"><ele>385.99999999999994</ele><time>2026-04-16T13:29:29.759Z</time></trkpt><trkpt lat="40.5603267" lon="8.7289717"><ele>386.0</ele><time>2026-04-16T13:29:30.759Z</time></trkpt><trkpt lat="40.5604083" lon="8.7289383"><ele>385.0</ele><time>2026-04-16T13:29:31.76Z</time></trkpt><trkpt lat="40.56051" lon="8.728915"><ele>384.0</ele><time>2026-04-16T13:29:32.759Z</time></trkpt><trkpt lat="40.5606233" lon="8.7289"><ele>383.0</ele><time>2026-04-16T13:29:33.76Z</time></trkpt><trkpt lat="40.5607417" lon="8.7288917"><ele>382.0</ele><time>2026-04-16T13:29:34.759Z</time></trkpt><trkpt lat="40.5608633" lon="8.7288933"><ele>382.0</ele><time>2026-04-16T13:29:35.76Z</time></trkpt><trkpt lat="40.560985" lon="8.7289133"><ele>382.0</ele><time>2026-04-16T13:29:36.76Z</time></trkpt><trkpt lat="40.5611067" lon="8.7289433"><ele>382.0</ele><time>2026-04-16T13:29:37.759Z</time></trkpt><trkpt lat="40.5612317" lon="8.72897"><ele>382.0</ele><time>2026-04-16T13:29:38.76Z</time></trkpt><trkpt lat="40.56135" lon="8.7289983"><ele>381.5</ele><time>2026-04-16T13:29:39.759Z</time></trkpt><trkpt lat="40.5614633" lon="8.7290167"><ele>381.0</ele><time>2026-04-16T13:29:40.759Z</time></trkpt><trkpt lat="40.5615833" lon="8.7290333"><ele>380.5</ele><time>2026-04-16T13:29:41.76Z</time></trkpt><trkpt lat="40.5617033" lon="8.72903"><ele>380.0</ele><time>2026-04-16T13:29:42.759Z</time></trkpt><trkpt lat="40.5618183" lon="8.72903"><ele>380.0</ele><time>2026-04-16T13:29:43.76Z</time></trkpt><trkpt lat="40.561925" lon="8.7290317"><ele>380.0</ele><time>2026-04-16T13:29:44.759Z</time></trkpt><trkpt lat="40.5620183" lon="8.729045"><ele>380.0</ele><time>2026-04-16T13:29:45.759Z</time></trkpt><trkpt lat="40.5621017" lon="8.7290467"><ele>380.0</ele><time>2026-04-16T13:29:46.76Z</time></trkpt><trkpt lat="40.5621867" lon="8.7290117"><ele>380.0</ele><time>2026-04-16T13:29:47.759Z</time></trkpt><trkpt lat="40.562275" lon="8.7289683"><ele>379.2</ele><time>2026-04-16T13:29:48.76Z</time></trkpt><trkpt lat="40.56236" lon="8.7289383"><ele>378.4</ele><time>2026-04-16T13:29:49.759Z</time></trkpt><trkpt lat="40.5624517" lon="8.7289367"><ele>377.6</ele><time>2026-04-16T13:29:50.759Z</time></trkpt><trkpt lat="40.5625467" lon="8.72896"><ele>376.8</ele><time>2026-04-16T13:29:51.76Z</time></trkpt><trkpt lat="40.5626333" lon="8.7290117"><ele>376.0</ele><time>2026-04-16T13:29:52.76Z</time></trkpt><trkpt lat="40.5627133" lon="8.7290717"><ele>376.0</ele><time>2026-04-16T13:29:53.759Z</time></trkpt><trkpt lat="40.5628067" lon="8.72912"><ele>376.0</ele><time>2026-04-16T13:29:54.759Z</time></trkpt><trkpt lat="40.5629083" lon="8.7291433"><ele>376.0</ele><time>2026-04-16T13:29:55.759Z</time></trkpt><trkpt lat="40.563015" lon="8.7291517"><ele>376.0</ele><time>2026-04-16T13:29:56.76Z</time></trkpt><trkpt lat="40.5631217" lon="8.7291517"><ele>376.0</ele><time>2026-04-16T13:29:57.76Z</time></trkpt><trkpt lat="40.563215" lon="8.7291833"><ele>376.0</ele><time>2026-04-16T13:29:58.759Z</time></trkpt><trkpt lat="40.5633083" lon="8.7292417"><ele>376.0</ele><time>2026-04-16T13:29:59.76Z</time></trkpt><trkpt lat="40.56341" lon="8.7293"><ele>376.0</ele><time>2026-04-16T13:30:00.759Z</time></trkpt><trkpt lat="40.5635283" lon="8.7293533"><ele>376.0</ele><time>2026-04-16T13:30:01.76Z</time></trkpt><trkpt lat="40.563645" lon="8.7294017"><ele>375.3333333333333</ele><time>2026-04-16T13:30:02.76Z</time></trkpt><trkpt lat="40.5637417" lon="8.729435"><ele>374.66666666666663</ele><time>2026-04-16T13:30:03.759Z</time></trkpt><trkpt lat="40.563805" lon="8.7294583"><ele>374.0</ele><time>2026-04-16T13:30:04.76Z</time></trkpt><trkpt lat="40.5638883" lon="8.7295133"><ele>373.3333333333333</ele><time>2026-04-16T13:30:06.759Z</time></trkpt><trkpt lat="40.5639683" lon="8.7295667"><ele>372.6666666666667</ele><time>2026-04-16T13:30:08.759Z</time></trkpt><trkpt lat="40.5640283" lon="8.729595"><ele>372.0</ele><time>2026-04-16T13:30:09.76Z</time></trkpt><trkpt lat="40.5641" lon="8.7296167"><ele>372.0</ele><time>2026-04-16T13:30:10.759Z</time></trkpt><trkpt lat="40.5641867" lon="8.7296233"><ele>372.0</ele><time>2026-04-16T13:30:11.76Z</time></trkpt><trkpt lat="40.5642733" lon="8.72962"><ele>372.0</ele><time>2026-04-16T13:30:12.759Z</time></trkpt><trkpt lat="40.564355" lon="8.72964"><ele>372.0</ele><time>2026-04-16T13:30:13.76Z</time></trkpt><trkpt lat="40.5644517" lon="8.7296633"><ele>372.0</ele><time>2026-04-16T13:30:14.76Z</time></trkpt><trkpt lat="40.5645533" lon="8.72968"><ele>372.3333333333333</ele><time>2026-04-16T13:30:15.76Z</time></trkpt><trkpt lat="40.56464" lon="8.7296967"><ele>372.6666666666667</ele><time>2026-04-16T13:30:16.759Z</time></trkpt><trkpt lat="40.5647017" lon="8.7297333"><ele>373.0</ele><time>2026-04-16T13:30:17.76Z</time></trkpt><trkpt lat="40.5647733" lon="8.7298517"><ele>373.33333333333337</ele><time>2026-04-16T13:30:19.76Z</time></trkpt><trkpt lat="40.5648733" lon="8.7299083"><ele>373.6666666666667</ele><time>2026-04-16T13:30:21.76Z</time></trkpt><trkpt lat="40.5649383" lon="8.729925"><ele>374.0</ele><time>2026-04-16T13:30:22.76Z</time></trkpt><trkpt lat="40.5650467" lon="8.7298983"><ele>374.0</ele><time>2026-04-16T13:30:24.759Z</time></trkpt><trkpt lat="40.5651267" lon="8.72984"><ele>374.0</ele><time>2026-04-16T13:30:26.76Z</time></trkpt><trkpt lat="40.56518" lon="8.7299283"><ele>374.0</ele><time>2026-04-16T13:30:28.759Z</time></trkpt><trkpt lat="40.5651883" lon="8.7300167"><ele>374.0</ele><time>2026-04-16T13:30:29.76Z</time></trkpt><trkpt lat="40.565195" lon="8.7301417"><ele>374.0</ele><time>2026-04-16T13:30:30.759Z</time></trkpt><trkpt lat="40.5652" lon="8.7302683"><ele>374.0</ele><time>2026-04-16T13:30:31.76Z</time></trkpt><trkpt lat="40.56521" lon="8.7303717"><ele>373.5</ele><time>2026-04-16T13:30:32.76Z</time></trkpt><trkpt lat="40.5652183" lon="8.73046"><ele>373.0</ele><time>2026-04-16T13:30:33.759Z</time></trkpt><trkpt lat="40.56523" lon="8.730555"><ele>372.5</ele><time>2026-04-16T13:30:35.76Z</time></trkpt><trkpt lat="40.5653033" lon="8.7306283"><ele>372.0</ele><time>2026-04-16T13:30:38.76Z</time></trkpt><trkpt lat="40.5653667" lon="8.73066"><ele>371.5</ele><time>2026-04-16T13:30:39.76Z</time></trkpt><trkpt lat="40.565445" lon="8.7307"><ele>371.0</ele><time>2026-04-16T13:30:40.76Z</time></trkpt><trkpt lat="40.5655383" lon="8.7307517"><ele>371.0</ele><time>2026-04-16T13:30:41.76Z</time></trkpt><trkpt lat="40.5656433" lon="8.7308067"><ele>371.0</ele><time>2026-04-16T13:30:42.759Z</time></trkpt><trkpt lat="40.56575" lon="8.73088"><ele>371.0</ele><time>2026-04-16T13:30:43.759Z</time></trkpt><trkpt lat="40.5658417" lon="8.7309633"><ele>371.0</ele><time>2026-04-16T13:30:44.759Z</time></trkpt><trkpt lat="40.5659217" lon="8.731045"><ele>371.0</ele><time>2026-04-16T13:30:45.76Z</time></trkpt><trkpt lat="40.565995" lon="8.73111"><ele>370.2857142857143</ele><time>2026-04-16T13:30:46.759Z</time></trkpt><trkpt lat="40.5660583" lon="8.731155"><ele>369.57142857142856</ele><time>2026-04-16T13:30:47.759Z</time></trkpt><trkpt lat="40.56611" lon="8.7312067"><ele>368.8571428571429</ele><time>2026-04-16T13:30:48.759Z</time></trkpt><trkpt lat="40.5661683" lon="8.7312467"><ele>368.1428571428571</ele><time>2026-04-16T13:30:49.76Z</time></trkpt><trkpt lat="40.56623" lon="8.73128"><ele>367.42857142857144</ele><time>2026-04-16T13:30:50.759Z</time></trkpt><trkpt lat="40.5662883" lon="8.7313133"><ele>366.7142857142857</ele><time>2026-04-16T13:30:51.759Z</time></trkpt><trkpt lat="40.56635" lon="8.7313583"><ele>366.0</ele><time>2026-04-16T13:30:52.76Z</time></trkpt><trkpt lat="40.5664183" lon="8.7313917"><ele>365.1666666666667</ele><time>2026-04-16T13:30:53.759Z</time></trkpt><trkpt lat="40.5664883" lon="8.7314033"><ele>364.3333333333333</ele><time>2026-04-16T13:30:54.759Z</time></trkpt><trkpt lat="40.5665667" lon="8.7314017"><ele>363.5</ele><time>2026-04-16T13:30:55.759Z</time></trkpt><trkpt lat="40.566655" lon="8.731405"><ele>362.66666666666663</ele><time>2026-04-16T13:30:56.759Z</time></trkpt><trkpt lat="40.566745" lon="8.7314017"><ele>361.8333333333333</ele><time>2026-04-16T13:30:57.759Z</time></trkpt><trkpt lat="40.56684" lon="8.7313917"><ele>361.0</ele><time>2026-04-16T13:30:58.758Z</time></trkpt><trkpt lat="40.56694" lon="8.731375"><ele>360.20000000000005</ele><time>2026-04-16T13:30:59.759Z</time></trkpt><trkpt lat="40.5670333" lon="8.7313633"><ele>359.40000000000003</ele><time>2026-04-16T13:31:00.759Z</time></trkpt><trkpt lat="40.5671333" lon="8.731345"><ele>358.6</ele><time>2026-04-16T13:31:01.759Z</time></trkpt><trkpt lat="40.5672333" lon="8.7313233"><ele>357.8</ele><time>2026-04-16T13:31:02.758Z</time></trkpt><trkpt lat="40.5673167" lon="8.731315"><ele>357.0</ele><time>2026-04-16T13:31:03.758Z</time></trkpt><trkpt lat="40.5673883" lon="8.73131"><ele>357.0</ele><time>2026-04-16T13:31:04.759Z</time></trkpt><trkpt lat="40.5675033" lon="8.7313017"><ele>357.0</ele><time>2026-04-16T13:31:06.759Z</time></trkpt><trkpt lat="40.5676133" lon="8.73128"><ele>357.0</ele><time>2026-04-16T13:31:08.759Z</time></trkpt><trkpt lat="40.5677233" lon="8.7312"><ele>357.0</ele><time>2026-04-16T13:31:10.758Z</time></trkpt><trkpt lat="40.567795" lon="8.7311517"><ele>357.0</ele><time>2026-04-16T13:31:11.759Z</time></trkpt><trkpt lat="40.5678767" lon="8.7311033"><ele>356.6</ele><time>2026-04-16T13:31:12.759Z</time></trkpt><trkpt lat="40.5679583" lon="8.73105"><ele>356.20000000000005</ele><time>2026-04-16T13:31:13.759Z</time></trkpt><trkpt lat="40.568045" lon="8.7309983"><ele>355.8</ele><time>2026-04-16T13:31:14.759Z</time></trkpt><trkpt lat="40.5681333" lon="8.73095"><ele>355.4</ele><time>2026-04-16T13:31:15.759Z</time></trkpt><trkpt lat="40.5682183" lon="8.7309117"><ele>355.0</ele><time>2026-04-16T13:31:16.759Z</time></trkpt><trkpt lat="40.5683133" lon="8.7308767"><ele>355.0</ele><time>2026-04-16T13:31:17.758Z</time></trkpt><trkpt lat="40.5684067" lon="8.7308367"><ele>355.0</ele><time>2026-04-16T13:31:18.759Z</time></trkpt><trkpt lat="40.56851" lon="8.730795"><ele>355.0</ele><time>2026-04-16T13:31:19.759Z</time></trkpt><trkpt lat="40.56861" lon="8.7307533"><ele>355.0</ele><time>2026-04-16T13:31:20.759Z</time></trkpt><trkpt lat="40.5687117" lon="8.7307017"><ele>355.0</ele><time>2026-04-16T13:31:21.758Z</time></trkpt><trkpt lat="40.5688217" lon="8.7306433"><ele>356.0</ele><time>2026-04-16T13:31:22.758Z</time></trkpt><trkpt lat="40.568925" lon="8.7305867"><ele>357.0</ele><time>2026-04-16T13:31:23.759Z</time></trkpt><trkpt lat="40.5690367" lon="8.7305133"><ele>358.0</ele><time>2026-04-16T13:31:24.758Z</time></trkpt><trkpt lat="40.5691417" lon="8.7304433"><ele>359.0</ele><time>2026-04-16T13:31:25.759Z</time></trkpt><trkpt lat="40.5692467" lon="8.7303883"><ele>359.0</ele><time>2026-04-16T13:31:26.759Z</time></trkpt><trkpt lat="40.569355" lon="8.73034"><ele>359.0</ele><time>2026-04-16T13:31:27.759Z</time></trkpt><trkpt lat="40.5694733" lon="8.730285"><ele>359.0</ele><time>2026-04-16T13:31:28.758Z</time></trkpt><trkpt lat="40.5695933" lon="8.7302317"><ele>359.0</ele><time>2026-04-16T13:31:29.759Z</time></trkpt><trkpt lat="40.5697083" lon="8.730175"><ele>359.0</ele><time>2026-04-16T13:31:30.759Z</time></trkpt><trkpt lat="40.569815" lon="8.7301017"><ele>359.0</ele><time>2026-04-16T13:31:31.759Z</time></trkpt><trkpt lat="40.5699083" lon="8.73001"><ele>359.0</ele><time>2026-04-16T13:31:32.759Z</time></trkpt><trkpt lat="40.570005" lon="8.7299033"><ele>359.0</ele><time>2026-04-16T13:31:33.759Z</time></trkpt><trkpt lat="40.5700933" lon="8.7297933"><ele>359.0</ele><time>2026-04-16T13:31:34.758Z</time></trkpt><trkpt lat="40.57017" lon="8.729695"><ele>359.0</ele><time>2026-04-16T13:31:35.759Z</time></trkpt><trkpt lat="40.5702517" lon="8.7296117"><ele>359.0</ele><time>2026-04-16T13:31:36.759Z</time></trkpt><trkpt lat="40.5703283" lon="8.7295583"><ele>359.0</ele><time>2026-04-16T13:31:37.758Z</time></trkpt><trkpt lat="40.5704117" lon="8.7295183"><ele>359.0</ele><time>2026-04-16T13:31:38.758Z</time></trkpt><trkpt lat="40.5705083" lon="8.7294717"><ele>359.5</ele><time>2026-04-16T13:31:39.759Z</time></trkpt><trkpt lat="40.5706183" lon="8.72942"><ele>360.0</ele><time>2026-04-16T13:31:40.759Z</time></trkpt><trkpt lat="40.5707383" lon="8.7293633"><ele>360.5</ele><time>2026-04-16T13:31:41.758Z</time></trkpt><trkpt lat="40.57086" lon="8.7293067"><ele>361.0</ele><time>2026-04-16T13:31:42.759Z</time></trkpt><trkpt lat="40.5709883" lon="8.72926"><ele>361.0</ele><time>2026-04-16T13:31:43.759Z</time></trkpt><trkpt lat="40.57112" lon="8.729205"><ele>361.0</ele><time>2026-04-16T13:31:44.759Z</time></trkpt><trkpt lat="40.57125" lon="8.7291483"><ele>361.0</ele><time>2026-04-16T13:31:45.758Z</time></trkpt><trkpt lat="40.5713783" lon="8.72907"><ele>361.0</ele><time>2026-04-16T13:31:46.758Z</time></trkpt><trkpt lat="40.5714967" lon="8.7289733"><ele>366.0</ele><time>2026-04-16T13:31:47.759Z</time></trkpt><trkpt lat="40.571615" lon="8.72888"><ele>371.0</ele><time>2026-04-16T13:31:48.759Z</time></trkpt><trkpt lat="40.5717117" lon="8.7287867"><ele>376.0</ele><time>2026-04-16T13:31:49.759Z</time></trkpt><trkpt lat="40.5717783" lon="8.7286883"><ele>381.0</ele><time>2026-04-16T13:31:50.759Z</time></trkpt><trkpt lat="40.5718233" lon="8.72858"><ele>381.6</ele><time>2026-04-16T13:31:51.758Z</time></trkpt><trkpt lat="40.57187" lon="8.7284683"><ele>382.20000000000005</ele><time>2026-04-16T13:31:52.759Z</time></trkpt><trkpt lat="40.5719217" lon="8.7283833"><ele>382.79999999999995</ele><time>2026-04-16T13:31:53.759Z</time></trkpt><trkpt lat="40.5719867" lon="8.7283317"><ele>383.4</ele><time>2026-04-16T13:31:54.759Z</time></trkpt><trkpt lat="40.5720767" lon="8.7283167"><ele>384.0</ele><time>2026-04-16T13:31:55.759Z</time></trkpt><trkpt lat="40.57219" lon="8.7283117"><ele>384.0</ele><time>2026-04-16T13:31:56.759Z</time></trkpt><trkpt lat="40.5723183" lon="8.7283017"><ele>384.0</ele><time>2026-04-16T13:31:57.758Z</time></trkpt><trkpt lat="40.5724483" lon="8.7282783"><ele>384.0</ele><time>2026-04-16T13:31:58.759Z</time></trkpt><trkpt lat="40.5725983" lon="8.728245"><ele>384.0</ele><time>2026-04-16T13:31:59.758Z</time></trkpt><trkpt lat="40.5727417" lon="8.72821"><ele>387.5</ele><time>2026-04-16T13:32:00.759Z</time></trkpt><trkpt lat="40.5728733" lon="8.7281683"><ele>391.0</ele><time>2026-04-16T13:32:01.758Z</time></trkpt><trkpt lat="40.5730017" lon="8.7281117"><ele>394.5</ele><time>2026-04-16T13:32:02.759Z</time></trkpt><trkpt lat="40.5731067" lon="8.7280317"><ele>398.0</ele><time>2026-04-16T13:32:03.758Z</time></trkpt><trkpt lat="40.573205" lon="8.727925"><ele>398.0</ele><time>2026-04-16T13:32:04.759Z</time></trkpt><trkpt lat="40.5732933" lon="8.7277983"><ele>398.0</ele><time>2026-04-16T13:32:05.759Z</time></trkpt><trkpt lat="40.5733817" lon="8.727665"><ele>398.0</ele><time>2026-04-16T13:32:06.759Z</time></trkpt><trkpt lat="40.5734683" lon="8.7275433"><ele>398.0</ele><time>2026-04-16T13:32:07.759Z</time></trkpt><trkpt lat="40.573545" lon="8.72743"><ele>398.59999999999997</ele><time>2026-04-16T13:32:08.758Z</time></trkpt><trkpt lat="40.5736217" lon="8.7273417"><ele>399.2</ele><time>2026-04-16T13:32:09.759Z</time></trkpt><trkpt lat="40.57369" lon="8.7272683"><ele>399.8</ele><time>2026-04-16T13:32:10.759Z</time></trkpt><trkpt lat="40.5737883" lon="8.7272267"><ele>400.4</ele><time>2026-04-16T13:32:12.758Z</time></trkpt><trkpt lat="40.5739117" lon="8.7272033"><ele>401.0</ele><time>2026-04-16T13:32:14.759Z</time></trkpt><trkpt lat="40.5739783" lon="8.7271633"><ele>400.99999999999994</ele><time>2026-04-16T13:32:15.759Z</time></trkpt><trkpt lat="40.5740633" lon="8.7271217"><ele>401.0</ele><time>2026-04-16T13:32:16.758Z</time></trkpt><trkpt lat="40.5741483" lon="8.72708"><ele>401.0</ele><time>2026-04-16T13:32:17.759Z</time></trkpt><trkpt lat="40.5742383" lon="8.7270583"><ele>401.0</ele><time>2026-04-16T13:32:18.758Z</time></trkpt><trkpt lat="40.5743167" lon="8.7270633"><ele>400.99999999999994</ele><time>2026-04-16T13:32:19.759Z</time></trkpt><trkpt lat="40.5743833" lon="8.7271417"><ele>401.0</ele><time>2026-04-16T13:32:21.758Z</time></trkpt><trkpt lat="40.5743633" lon="8.7272983"><ele>401.0</ele><time>2026-04-16T13:32:23.758Z</time></trkpt><trkpt lat="40.5743417" lon="8.7274017"><ele>401.0</ele><time>2026-04-16T13:32:24.759Z</time></trkpt><trkpt lat="40.5743217" lon="8.7275233"><ele>401.0</ele><time>2026-04-16T13:32:25.758Z</time></trkpt><trkpt lat="40.5743" lon="8.7276533"><ele>401.0</ele><time>2026-04-16T13:32:26.758Z</time></trkpt><trkpt lat="40.5742833" lon="8.7277783"><ele>401.0</ele><time>2026-04-16T13:32:27.759Z</time></trkpt><trkpt lat="40.5742717" lon="8.7278983"><ele>401.3333333333333</ele><time>2026-04-16T13:32:28.758Z</time></trkpt><trkpt lat="40.5742583" lon="8.7280017"><ele>401.66666666666663</ele><time>2026-04-16T13:32:29.759Z</time></trkpt><trkpt lat="40.5742483" lon="8.728095"><ele>402.0</ele><time>2026-04-16T13:32:31.759Z</time></trkpt><trkpt lat="40.5743517" lon="8.72812"><ele>402.33333333333337</ele><time>2026-04-16T13:32:34.759Z</time></trkpt><trkpt lat="40.57442" lon="8.7281317"><ele>402.6666666666667</ele><time>2026-04-16T13:32:35.758Z</time></trkpt><trkpt lat="40.574495" lon="8.7281617"><ele>403.0</ele><time>2026-04-16T13:32:36.758Z</time></trkpt><trkpt lat="40.574585" lon="8.7282017"><ele>403.79999999999995</ele><time>2026-04-16T13:32:37.758Z</time></trkpt><trkpt lat="40.5746833" lon="8.72825"><ele>404.6</ele><time>2026-04-16T13:32:38.759Z</time></trkpt><trkpt lat="40.574785" lon="8.7282983"><ele>405.4</ele><time>2026-04-16T13:32:39.759Z</time></trkpt><trkpt lat="40.57489" lon="8.7283433"><ele>406.20000000000005</ele><time>2026-04-16T13:32:40.759Z</time></trkpt><trkpt lat="40.5749933" lon="8.7283967"><ele>407.0</ele><time>2026-04-16T13:32:41.759Z</time></trkpt><trkpt lat="40.57509" lon="8.7284633"><ele>407.0</ele><time>2026-04-16T13:32:42.759Z</time></trkpt><trkpt lat="40.5751933" lon="8.7285217"><ele>407.0</ele><time>2026-04-16T13:32:43.758Z</time></trkpt><trkpt lat="40.5752917" lon="8.7285833"><ele>407.0</ele><time>2026-04-16T13:32:44.758Z</time></trkpt><trkpt lat="40.5753767" lon="8.7286333"><ele>407.0</ele><time>2026-04-16T13:32:45.758Z</time></trkpt><trkpt lat="40.575445" lon="8.7286683"><ele>407.0</ele><time>2026-04-16T13:32:46.758Z</time></trkpt><trkpt lat="40.5755217" lon="8.7287083"><ele>407.16666666666663</ele><time>2026-04-16T13:32:48.758Z</time></trkpt><trkpt lat="40.575585" lon="8.7287667"><ele>407.3333333333333</ele><time>2026-04-16T13:32:59.759Z</time></trkpt><trkpt lat="40.5756217" lon="8.7288367"><ele>407.5</ele><time>2026-04-16T13:33:03.759Z</time></trkpt><trkpt lat="40.5756067" lon="8.7289917"><ele>407.66666666666663</ele><time>2026-04-16T13:33:05.759Z</time></trkpt><trkpt lat="40.5755933" lon="8.7290833"><ele>407.8333333333333</ele><time>2026-04-16T13:33:06.759Z</time></trkpt><trkpt lat="40.5755833" lon="8.7291767"><ele>408.0</ele><time>2026-04-16T13:33:07.759Z</time></trkpt><trkpt lat="40.5755717" lon="8.7292617"><ele>408.0</ele><time>2026-04-16T13:33:08.758Z</time></trkpt><trkpt lat="40.5755333" lon="8.7293917"><ele>408.0</ele><time>2026-04-16T13:33:10.758Z</time></trkpt><trkpt lat="40.5754867" lon="8.7295217"><ele>408.0</ele><time>2026-04-16T13:33:12.758Z</time></trkpt><trkpt lat="40.5754033" lon="8.7296433"><ele>408.0</ele><time>2026-04-16T13:33:14.758Z</time></trkpt><trkpt lat="40.5753533" lon="8.7296983"><ele>408.0</ele><time>2026-04-16T13:33:15.759Z</time></trkpt><trkpt lat="40.5753033" lon="8.7297567"><ele>411.79999999999995</ele><time>2026-04-16T13:33:16.759Z</time></trkpt><trkpt lat="40.5752183" lon="8.7298817"><ele>415.6</ele><time>2026-04-16T13:33:18.758Z</time></trkpt><trkpt lat="40.57518" lon="8.7299483"><ele>419.40000000000003</ele><time>2026-04-16T13:33:19.759Z</time></trkpt><trkpt lat="40.575115" lon="8.7300617"><ele>423.20000000000005</ele><time>2026-04-16T13:33:21.759Z</time></trkpt><trkpt lat="40.575185" lon="8.7300083"><ele>427.0</ele><time>2026-04-16T13:33:30.758Z</time></trkpt><trkpt lat="40.575245" lon="8.72991"><ele>427.0</ele><time>2026-04-16T13:33:31.759Z</time></trkpt><trkpt lat="40.5753117" lon="8.7298"><ele>427.00000000000006</ele><time>2026-04-16T13:33:32.758Z</time></trkpt><trkpt lat="40.5753817" lon="8.7296817"><ele>427.00000000000006</ele><time>2026-04-16T13:33:33.759Z</time></trkpt><trkpt lat="40.5754467" lon="8.7295983"><ele>427.0</ele><time>2026-04-16T13:33:34.758Z</time></trkpt><trkpt lat="40.5754983" lon="8.7295267"><ele>427.0</ele><time>2026-04-16T13:33:35.759Z</time></trkpt><trkpt lat="40.575555" lon="8.7294517"><ele>424.00000000000006</ele><time>2026-04-16T13:33:37.759Z</time></trkpt><trkpt lat="40.57562" lon="8.7294883"><ele>421.0</ele><time>2026-04-16T13:33:40.758Z</time></trkpt><trkpt lat="40.57564" lon="8.7296383"><ele>418.0</ele><time>2026-04-16T13:33:42.759Z</time></trkpt><trkpt lat="40.575625" lon="8.72974"><ele>415.0</ele><time>2026-04-16T13:33:43.759Z</time></trkpt><trkpt lat="40.5756217" lon="8.7298383"><ele>412.00000000000006</ele><time>2026-04-16T13:33:44.759Z</time></trkpt><trkpt lat="40.5756167" lon="8.72994"><ele>409.0</ele><time>2026-04-16T13:33:45.758Z</time></trkpt><trkpt lat="40.5756033" lon="8.7300733"><ele>409.00000000000006</ele><time>2026-04-16T13:33:47.759Z</time></trkpt><trkpt lat="40.57564" lon="8.7299767"><ele>409.0</ele><time>2026-04-16T13:33:52.758Z</time></trkpt><trkpt lat="40.57565" lon="8.729885"><ele>409.0</ele><time>2026-04-16T13:33:53.757Z</time></trkpt><trkpt lat="40.57566" lon="8.729785"><ele>409.0</ele><time>2026-04-16T13:33:54.758Z</time></trkpt><trkpt lat="40.5756633" lon="8.7296783"><ele>409.00000000000006</ele><time>2026-04-16T13:33:55.757Z</time></trkpt><trkpt lat="40.5756583" lon="8.729575"><ele>409.0</ele><time>2026-04-16T13:33:56.757Z</time></trkpt><trkpt lat="40.5756383" lon="8.7294817"><ele>409.00000000000006</ele><time>2026-04-16T13:33:57.758Z</time></trkpt><trkpt lat="40.575605" lon="8.7294033"><ele>409.0</ele><time>2026-04-16T13:33:58.758Z</time></trkpt><trkpt lat="40.57558" lon="8.7292467"><ele>409.0</ele><time>2026-04-16T13:34:00.758Z</time></trkpt><trkpt lat="40.5755883" lon="8.7291583"><ele>409.0</ele><time>2026-04-16T13:34:01.758Z</time></trkpt><trkpt lat="40.5756067" lon="8.7290733"><ele>409.00000000000006</ele><time>2026-04-16T13:34:02.758Z</time></trkpt><trkpt lat="40.5756383" lon="8.7289833"><ele>409.0</ele><time>2026-04-16T13:34:04.758Z</time></trkpt><trkpt lat="40.5757067" lon="8.7289967"><ele>409.0</ele><time>2026-04-16T13:34:17.758Z</time></trkpt><trkpt lat="40.575785" lon="8.7290183"><ele>409.0</ele><time>2026-04-16T13:34:19.758Z</time></trkpt><trkpt lat="40.5758867" lon="8.7291167"><ele>409.0</ele><time>2026-04-16T13:34:21.757Z</time></trkpt><trkpt lat="40.5759583" lon="8.7292017"><ele>409.0</ele><time>2026-04-16T13:34:22.758Z</time></trkpt><trkpt lat="40.5760467" lon="8.7293033"><ele>409.0</ele><time>2026-04-16T13:34:23.757Z</time></trkpt><trkpt lat="40.5761383" lon="8.7293983"><ele>405.5</ele><time>2026-04-16T13:34:24.758Z</time></trkpt><trkpt lat="40.5762317" lon="8.7294867"><ele>402.0</ele><time>2026-04-16T13:34:25.757Z</time></trkpt><trkpt lat="40.5763283" lon="8.7295667"><ele>398.5</ele><time>2026-04-16T13:34:26.758Z</time></trkpt><trkpt lat="40.5764283" lon="8.7296283"><ele>395.0</ele><time>2026-04-16T13:34:27.757Z</time></trkpt><trkpt lat="40.5765317" lon="8.7296783"><ele>395.0</ele><time>2026-04-16T13:34:28.757Z</time></trkpt><trkpt lat="40.5766367" lon="8.729725"><ele>395.0</ele><time>2026-04-16T13:34:29.757Z</time></trkpt><trkpt lat="40.5767517" lon="8.7297617"><ele>395.0</ele><time>2026-04-16T13:34:30.758Z</time></trkpt><trkpt lat="40.57688" lon="8.7297733"><ele>395.0</ele><time>2026-04-16T13:34:31.757Z</time></trkpt><trkpt lat="40.5770133" lon="8.7297717"><ele>391.75</ele><time>2026-04-16T13:34:32.758Z</time></trkpt><trkpt lat="40.5771483" lon="8.7297883"><ele>388.5</ele><time>2026-04-16T13:34:33.758Z</time></trkpt><trkpt lat="40.57728" lon="8.729815"><ele>385.25</ele><time>2026-04-16T13:34:34.758Z</time></trkpt><trkpt lat="40.5773917" lon="8.7298383"><ele>382.0</ele><time>2026-04-16T13:34:35.758Z</time></trkpt><trkpt lat="40.5774967" lon="8.7298617"><ele>382.0</ele><time>2026-04-16T13:34:36.757Z</time></trkpt><trkpt lat="40.5775967" lon="8.72989"><ele>382.0</ele><time>2026-04-16T13:34:37.758Z</time></trkpt><trkpt lat="40.5777083" lon="8.7299317"><ele>382.0</ele><time>2026-04-16T13:34:38.758Z</time></trkpt><trkpt lat="40.5778283" lon="8.7299833"><ele>382.0</ele><time>2026-04-16T13:34:39.757Z</time></trkpt><trkpt lat="40.5779517" lon="8.7300433"><ele>381.5</ele><time>2026-04-16T13:34:40.758Z</time></trkpt><trkpt lat="40.5780683" lon="8.730115"><ele>381.0</ele><time>2026-04-16T13:34:41.758Z</time></trkpt><trkpt lat="40.5781617" lon="8.7301767"><ele>380.5</ele><time>2026-04-16T13:34:42.758Z</time></trkpt><trkpt lat="40.5782633" lon="8.730245"><ele>380.0</ele><time>2026-04-16T13:34:43.758Z</time></trkpt><trkpt lat="40.5783733" lon="8.730325"><ele>380.0</ele><time>2026-04-16T13:34:44.758Z</time></trkpt><trkpt lat="40.5784833" lon="8.730425"><ele>380.0</ele><time>2026-04-16T13:34:45.757Z</time></trkpt><trkpt lat="40.5785983" lon="8.7305317"><ele>380.0</ele><time>2026-04-16T13:34:46.757Z</time></trkpt><trkpt lat="40.5787067" lon="8.7306433"><ele>380.0</ele><time>2026-04-16T13:34:47.758Z</time></trkpt><trkpt lat="40.5788217" lon="8.7307467"><ele>375.25</ele><time>2026-04-16T13:34:48.758Z</time></trkpt><trkpt lat="40.5789217" lon="8.7308567"><ele>370.5</ele><time>2026-04-16T13:34:49.758Z</time></trkpt><trkpt lat="40.57903" lon="8.7309533"><ele>365.75</ele><time>2026-04-16T13:34:50.758Z</time></trkpt><trkpt lat="40.5791233" lon="8.73104"><ele>361.0</ele><time>2026-04-16T13:34:51.758Z</time></trkpt><trkpt lat="40.5792167" lon="8.7311267"><ele>361.0</ele><time>2026-04-16T13:34:52.757Z</time></trkpt><trkpt lat="40.5792967" lon="8.7312033"><ele>361.0</ele><time>2026-04-16T13:34:53.758Z</time></trkpt><trkpt lat="40.57939" lon="8.7312583"><ele>361.0</ele><time>2026-04-16T13:34:54.758Z</time></trkpt><trkpt lat="40.5795083" lon="8.7313067"><ele>361.0</ele><time>2026-04-16T13:34:55.757Z</time></trkpt><trkpt lat="40.5796433" lon="8.73135"><ele>353.5</ele><time>2026-04-16T13:34:56.758Z</time></trkpt><trkpt lat="40.57978" lon="8.7313967"><ele>346.0</ele><time>2026-04-16T13:34:57.758Z</time></trkpt><trkpt lat="40.5799083" lon="8.7314367"><ele>338.5</ele><time>2026-04-16T13:34:58.758Z</time></trkpt><trkpt lat="40.5800233" lon="8.7314867"><ele>331.0</ele><time>2026-04-16T13:34:59.758Z</time></trkpt><trkpt lat="40.5801183" lon="8.7315317"><ele>331.0</ele><time>2026-04-16T13:35:00.758Z</time></trkpt><trkpt lat="40.5802133" lon="8.731585"><ele>331.0</ele><time>2026-04-16T13:35:01.757Z</time></trkpt><trkpt lat="40.5802983" lon="8.7316517"><ele>331.0</ele><time>2026-04-16T13:35:02.758Z</time></trkpt><trkpt lat="40.58037" lon="8.7317117"><ele>331.0</ele><time>2026-04-16T13:35:03.758Z</time></trkpt><trkpt lat="40.58043" lon="8.731745"><ele>331.0</ele><time>2026-04-16T13:35:04.758Z</time></trkpt><trkpt lat="40.5805417" lon="8.7317817"><ele>329.6</ele><time>2026-04-16T13:35:06.758Z</time></trkpt><trkpt lat="40.580615" lon="8.73183"><ele>328.20000000000005</ele><time>2026-04-16T13:35:07.758Z</time></trkpt><trkpt lat="40.580705" lon="8.7318867"><ele>326.79999999999995</ele><time>2026-04-16T13:35:08.758Z</time></trkpt><trkpt lat="40.5808083" lon="8.7319167"><ele>325.4</ele><time>2026-04-16T13:35:09.758Z</time></trkpt><trkpt lat="40.5809183" lon="8.7319083"><ele>324.0</ele><time>2026-04-16T13:35:10.758Z</time></trkpt><trkpt lat="40.58103" lon="8.731855"><ele>322.0</ele><time>2026-04-16T13:35:11.757Z</time></trkpt><trkpt lat="40.5811367" lon="8.7317783"><ele>320.0</ele><time>2026-04-16T13:35:12.758Z</time></trkpt><trkpt lat="40.581245" lon="8.731735"><ele>318.0</ele><time>2026-04-16T13:35:13.757Z</time></trkpt><trkpt lat="40.5813683" lon="8.7317333"><ele>316.0</ele><time>2026-04-16T13:35:14.758Z</time></trkpt><trkpt lat="40.5815017" lon="8.7317617"><ele>314.5</ele><time>2026-04-16T13:35:15.758Z</time></trkpt><trkpt lat="40.581645" lon="8.7317917"><ele>313.0</ele><time>2026-04-16T13:35:16.758Z</time></trkpt><trkpt lat="40.5817933" lon="8.7318167"><ele>311.5</ele><time>2026-04-16T13:35:17.757Z</time></trkpt><trkpt lat="40.5819467" lon="8.7318283"><ele>310.0</ele><time>2026-04-16T13:35:18.758Z</time></trkpt><trkpt lat="40.5821033" lon="8.7318383"><ele>308.3333333333333</ele><time>2026-04-16T13:35:19.757Z</time></trkpt><trkpt lat="40.5822583" lon="8.73185"><ele>306.6666666666667</ele><time>2026-04-16T13:35:20.757Z</time></trkpt><trkpt lat="40.582415" lon="8.731875"><ele>305.0</ele><time>2026-04-16T13:35:21.757Z</time></trkpt><trkpt lat="40.582565" lon="8.7318983"><ele>304.75</ele><time>2026-04-16T13:35:22.757Z</time></trkpt><trkpt lat="40.58271" lon="8.7319217"><ele>304.5</ele><time>2026-04-16T13:35:23.758Z</time></trkpt><trkpt lat="40.5828583" lon="8.7319417"><ele>304.25</ele><time>2026-04-16T13:35:24.757Z</time></trkpt><trkpt lat="40.5830033" lon="8.731935"><ele>304.0</ele><time>2026-04-16T13:35:25.758Z</time></trkpt><trkpt lat="40.5831367" lon="8.731905"><ele>302.75</ele><time>2026-04-16T13:35:26.758Z</time></trkpt><trkpt lat="40.5832667" lon="8.7318783"><ele>301.5</ele><time>2026-04-16T13:35:27.757Z</time></trkpt><trkpt lat="40.5833833" lon="8.7318567"><ele>300.25</ele><time>2026-04-16T13:35:28.757Z</time></trkpt><trkpt lat="40.5834867" lon="8.7318333"><ele>299.0</ele><time>2026-04-16T13:35:29.758Z</time></trkpt><trkpt lat="40.5835867" lon="8.7318033"><ele>299.0</ele><time>2026-04-16T13:35:30.758Z</time></trkpt><trkpt lat="40.5836767" lon="8.7317983"><ele>299.0</ele><time>2026-04-16T13:35:31.758Z</time></trkpt><trkpt lat="40.5837483" lon="8.7318267"><ele>299.0</ele><time>2026-04-16T13:35:32.758Z</time></trkpt><trkpt lat="40.5837867" lon="8.7319683"><ele>299.0</ele><time>2026-04-16T13:35:34.758Z</time></trkpt><trkpt lat="40.583765" lon="8.7320483"><ele>299.0</ele><time>2026-04-16T13:35:35.758Z</time></trkpt><trkpt lat="40.5837233" lon="8.73212"><ele>299.0</ele><time>2026-04-16T13:35:36.758Z</time></trkpt><trkpt lat="40.5836617" lon="8.7321817"><ele>298.4</ele><time>2026-04-16T13:35:37.758Z</time></trkpt><trkpt lat="40.5835833" lon="8.7322433"><ele>297.79999999999995</ele><time>2026-04-16T13:35:38.758Z</time></trkpt><trkpt lat="40.5834967" lon="8.732305"><ele>297.20000000000005</ele><time>2026-04-16T13:35:39.758Z</time></trkpt><trkpt lat="40.5834067" lon="8.7323683"><ele>296.6</ele><time>2026-04-16T13:35:40.757Z</time></trkpt><trkpt lat="40.5833117" lon="8.7324317"><ele>296.0</ele><time>2026-04-16T13:35:41.758Z</time></trkpt><trkpt lat="40.5832183" lon="8.7324967"><ele>296.0</ele><time>2026-04-16T13:35:42.758Z</time></trkpt><trkpt lat="40.5831267" lon="8.7325683"><ele>296.0</ele><time>2026-04-16T13:35:43.758Z</time></trkpt><trkpt lat="40.5830267" lon="8.7326383"><ele>296.0</ele><time>2026-04-16T13:35:44.758Z</time></trkpt><trkpt lat="40.58293" lon="8.732715"><ele>296.0</ele><time>2026-04-16T13:35:45.757Z</time></trkpt><trkpt lat="40.5828383" lon="8.7327917"><ele>296.0</ele><time>2026-04-16T13:35:46.758Z</time></trkpt><trkpt lat="40.582765" lon="8.732885"><ele>296.2</ele><time>2026-04-16T13:35:47.758Z</time></trkpt><trkpt lat="40.58271" lon="8.7329983"><ele>296.40000000000003</ele><time>2026-04-16T13:35:48.758Z</time></trkpt><trkpt lat="40.5826767" lon="8.7331283"><ele>296.6</ele><time>2026-04-16T13:35:49.758Z</time></trkpt><trkpt lat="40.582665" lon="8.7332683"><ele>296.8</ele><time>2026-04-16T13:35:50.758Z</time></trkpt><trkpt lat="40.582675" lon="8.73341"><ele>297.0</ele><time>2026-04-16T13:35:51.758Z</time></trkpt><trkpt lat="40.5827083" lon="8.7335483"><ele>298.75</ele><time>2026-04-16T13:35:52.758Z</time></trkpt><trkpt lat="40.5827533" lon="8.73369"><ele>300.5</ele><time>2026-04-16T13:35:53.758Z</time></trkpt><trkpt lat="40.5828067" lon="8.7338267"><ele>302.25</ele><time>2026-04-16T13:35:54.758Z</time></trkpt><trkpt lat="40.5828633" lon="8.7339617"><ele>304.0</ele><time>2026-04-16T13:35:55.758Z</time></trkpt><trkpt lat="40.5829217" lon="8.734085"><ele>300.75</ele><time>2026-04-16T13:35:56.758Z</time></trkpt><trkpt lat="40.5829817" lon="8.73422"><ele>297.5</ele><time>2026-04-16T13:35:57.758Z</time></trkpt><trkpt lat="40.5830433" lon="8.734355"><ele>294.25</ele><time>2026-04-16T13:35:58.758Z</time></trkpt><trkpt lat="40.5831033" lon="8.7344917"><ele>291.0</ele><time>2026-04-16T13:35:59.758Z</time></trkpt><trkpt lat="40.5831567" lon="8.734635"><ele>291.0</ele><time>2026-04-16T13:36:00.757Z</time></trkpt><trkpt lat="40.583195" lon="8.7347817"><ele>291.0</ele><time>2026-04-16T13:36:01.757Z</time></trkpt><trkpt lat="40.5832217" lon="8.7349367"><ele>291.0</ele><time>2026-04-16T13:36:02.758Z</time></trkpt><trkpt lat="40.5832333" lon="8.7350967"><ele>291.0</ele><time>2026-04-16T13:36:03.757Z</time></trkpt><trkpt lat="40.5832367" lon="8.7352583"><ele>290.75</ele><time>2026-04-16T13:36:04.758Z</time></trkpt><trkpt lat="40.5832417" lon="8.735415"><ele>290.5</ele><time>2026-04-16T13:36:05.758Z</time></trkpt><trkpt lat="40.5832467" lon="8.7355733"><ele>290.25</ele><time>2026-04-16T13:36:06.757Z</time></trkpt><trkpt lat="40.58325" lon="8.7357267"><ele>290.0</ele><time>2026-04-16T13:36:07.758Z</time></trkpt><trkpt lat="40.583265" lon="8.73588"><ele>290.0</ele><time>2026-04-16T13:36:08.758Z</time></trkpt><trkpt lat="40.5832917" lon="8.7360333"><ele>290.0</ele><time>2026-04-16T13:36:09.758Z</time></trkpt><trkpt lat="40.583345" lon="8.7361933"><ele>290.0</ele><time>2026-04-16T13:36:10.757Z</time></trkpt><trkpt lat="40.5834133" lon="8.736345"><ele>290.0</ele><time>2026-04-16T13:36:11.757Z</time></trkpt><trkpt lat="40.58349" lon="8.73649"><ele>288.75</ele><time>2026-04-16T13:36:12.758Z</time></trkpt><trkpt lat="40.58357" lon="8.736625"><ele>287.5</ele><time>2026-04-16T13:36:13.758Z</time></trkpt><trkpt lat="40.583645" lon="8.736755"><ele>286.25</ele><time>2026-04-16T13:36:14.758Z</time></trkpt><trkpt lat="40.58371" lon="8.7368833"><ele>285.0</ele><time>2026-04-16T13:36:15.757Z</time></trkpt><trkpt lat="40.5837667" lon="8.737005"><ele>283.25</ele><time>2026-04-16T13:36:16.758Z</time></trkpt><trkpt lat="40.583815" lon="8.7371417"><ele>281.5</ele><time>2026-04-16T13:36:17.758Z</time></trkpt><trkpt lat="40.5838567" lon="8.73729"><ele>279.75</ele><time>2026-04-16T13:36:18.757Z</time></trkpt><trkpt lat="40.583875" lon="8.737445"><ele>278.0</ele><time>2026-04-16T13:36:19.758Z</time></trkpt><trkpt lat="40.5838767" lon="8.7375967"><ele>277.4</ele><time>2026-04-16T13:36:20.758Z</time></trkpt><trkpt lat="40.583875" lon="8.73773"><ele>276.8</ele><time>2026-04-16T13:36:21.757Z</time></trkpt><trkpt lat="40.5838883" lon="8.7378533"><ele>276.2</ele><time>2026-04-16T13:36:22.758Z</time></trkpt><trkpt lat="40.58392" lon="8.7379767"><ele>275.6</ele><time>2026-04-16T13:36:23.758Z</time></trkpt><trkpt lat="40.583985" lon="8.738085"><ele>275.0</ele><time>2026-04-16T13:36:24.757Z</time></trkpt><trkpt lat="40.58404" lon="8.738205"><ele>275.0</ele><time>2026-04-16T13:36:25.757Z</time></trkpt><trkpt lat="40.5841067" lon="8.7383117"><ele>275.0</ele><time>2026-04-16T13:36:26.757Z</time></trkpt><trkpt lat="40.58417" lon="8.7384217"><ele>275.0</ele><time>2026-04-16T13:36:27.758Z</time></trkpt><trkpt lat="40.5842133" lon="8.7385433"><ele>275.0</ele><time>2026-04-16T13:36:28.758Z</time></trkpt><trkpt lat="40.584215" lon="8.7386883"><ele>275.0</ele><time>2026-04-16T13:36:29.758Z</time></trkpt><trkpt lat="40.5841983" lon="8.7388367"><ele>275.25</ele><time>2026-04-16T13:36:30.757Z</time></trkpt><trkpt lat="40.58418" lon="8.73899"><ele>275.5</ele><time>2026-04-16T13:36:31.757Z</time></trkpt><trkpt lat="40.5841683" lon="8.7391483"><ele>275.75</ele><time>2026-04-16T13:36:32.758Z</time></trkpt><trkpt lat="40.584165" lon="8.7393083"><ele>276.0</ele><time>2026-04-16T13:36:33.758Z</time></trkpt><trkpt lat="40.5841767" lon="8.73948"><ele>276.0</ele><time>2026-04-16T13:36:34.758Z</time></trkpt><trkpt lat="40.5842033" lon="8.7396533"><ele>276.0</ele><time>2026-04-16T13:36:35.758Z</time></trkpt><trkpt lat="40.5842333" lon="8.73983"><ele>276.0</ele><time>2026-04-16T13:36:36.758Z</time></trkpt><trkpt lat="40.5842667" lon="8.74001"><ele>276.0</ele><time>2026-04-16T13:36:37.758Z</time></trkpt><trkpt lat="40.584285" lon="8.7401983"><ele>274.25</ele><time>2026-04-16T13:36:38.758Z</time></trkpt><trkpt lat="40.5843067" lon="8.7403867"><ele>272.5</ele><time>2026-04-16T13:36:39.758Z</time></trkpt><trkpt lat="40.5843183" lon="8.7405783"><ele>270.75</ele><time>2026-04-16T13:36:40.758Z</time></trkpt><trkpt lat="40.5843333" lon="8.74077"><ele>269.0</ele><time>2026-04-16T13:36:41.757Z</time></trkpt><trkpt lat="40.5843483" lon="8.7409617"><ele>268.5</ele><time>2026-04-16T13:36:42.758Z</time></trkpt><trkpt lat="40.5843617" lon="8.7411567"><ele>268.0</ele><time>2026-04-16T13:36:43.758Z</time></trkpt><trkpt lat="40.584375" lon="8.7413533"><ele>267.5</ele><time>2026-04-16T13:36:44.757Z</time></trkpt><trkpt lat="40.5843883" lon="8.7415467"><ele>267.0</ele><time>2026-04-16T13:36:45.757Z</time></trkpt><trkpt lat="40.5844017" lon="8.74173"><ele>267.5</ele><time>2026-04-16T13:36:46.756Z</time></trkpt><trkpt lat="40.58442" lon="8.7419017"><ele>268.0</ele><time>2026-04-16T13:36:47.756Z</time></trkpt><trkpt lat="40.5844433" lon="8.74206"><ele>268.5</ele><time>2026-04-16T13:36:48.757Z</time></trkpt><trkpt lat="40.5844667" lon="8.742205"><ele>269.0</ele><time>2026-04-16T13:36:49.756Z</time></trkpt><trkpt lat="40.58449" lon="8.74234"><ele>268.2</ele><time>2026-04-16T13:36:50.756Z</time></trkpt><trkpt lat="40.5845333" lon="8.7424583"><ele>267.4</ele><time>2026-04-16T13:36:51.756Z</time></trkpt><trkpt lat="40.5846033" lon="8.7425417"><ele>266.6</ele><time>2026-04-16T13:36:52.757Z</time></trkpt><trkpt lat="40.5846917" lon="8.7425917"><ele>265.8</ele><time>2026-04-16T13:36:53.757Z</time></trkpt><trkpt lat="40.5847883" lon="8.74263"><ele>265.0</ele><time>2026-04-16T13:36:54.756Z</time></trkpt><trkpt lat="40.58488" lon="8.7426933"><ele>265.0</ele><time>2026-04-16T13:36:55.757Z</time></trkpt><trkpt lat="40.5849667" lon="8.7427783"><ele>265.0</ele><time>2026-04-16T13:36:56.757Z</time></trkpt><trkpt lat="40.5850533" lon="8.7428683"><ele>265.0</ele><time>2026-04-16T13:36:57.756Z</time></trkpt><trkpt lat="40.5851367" lon="8.7429617"><ele>265.0</ele><time>2026-04-16T13:36:58.756Z</time></trkpt><trkpt lat="40.5852183" lon="8.7430583"><ele>265.0</ele><time>2026-04-16T13:36:59.756Z</time></trkpt><trkpt lat="40.5852967" lon="8.7431483"><ele>264.3333333333333</ele><time>2026-04-16T13:37:00.757Z</time></trkpt><trkpt lat="40.5853683" lon="8.7432317"><ele>263.66666666666663</ele><time>2026-04-16T13:37:01.757Z</time></trkpt><trkpt lat="40.5854317" lon="8.743305"><ele>263.0</ele><time>2026-04-16T13:37:02.756Z</time></trkpt><trkpt lat="40.5854833" lon="8.7433683"><ele>262.3333333333333</ele><time>2026-04-16T13:37:03.757Z</time></trkpt><trkpt lat="40.585535" lon="8.7434683"><ele>261.6666666666667</ele><time>2026-04-16T13:37:05.757Z</time></trkpt><trkpt lat="40.5855383" lon="8.7435567"><ele>261.0</ele><time>2026-04-16T13:37:08.757Z</time></trkpt><trkpt lat="40.5854933" lon="8.743675"><ele>261.0</ele><time>2026-04-16T13:37:10.757Z</time></trkpt><trkpt lat="40.58545" lon="8.743745"><ele>261.0</ele><time>2026-04-16T13:37:11.757Z</time></trkpt><trkpt lat="40.58539" lon="8.7438333"><ele>261.0</ele><time>2026-04-16T13:37:12.756Z</time></trkpt><trkpt lat="40.5853217" lon="8.7439383"><ele>261.0</ele><time>2026-04-16T13:37:13.756Z</time></trkpt><trkpt lat="40.5852483" lon="8.7440617"><ele>261.0</ele><time>2026-04-16T13:37:14.757Z</time></trkpt><trkpt lat="40.5851717" lon="8.744205"><ele>262.6666666666667</ele><time>2026-04-16T13:37:15.757Z</time></trkpt><trkpt lat="40.5850783" lon="8.74436"><ele>264.33333333333337</ele><time>2026-04-16T13:37:16.757Z</time></trkpt><trkpt lat="40.584975" lon="8.74452"><ele>266.0</ele><time>2026-04-16T13:37:17.756Z</time></trkpt><trkpt lat="40.5848683" lon="8.7446867"><ele>266.33333333333337</ele><time>2026-04-16T13:37:18.757Z</time></trkpt><trkpt lat="40.5847533" lon="8.7448533"><ele>266.6666666666667</ele><time>2026-04-16T13:37:19.757Z</time></trkpt><trkpt lat="40.5846417" lon="8.7450217"><ele>267.0</ele><time>2026-04-16T13:37:20.756Z</time></trkpt><trkpt lat="40.5845267" lon="8.7452033"><ele>270.3333333333333</ele><time>2026-04-16T13:37:21.757Z</time></trkpt><trkpt lat="40.584405" lon="8.7453867"><ele>273.66666666666663</ele><time>2026-04-16T13:37:22.757Z</time></trkpt><trkpt lat="40.58429" lon="8.7455767"><ele>277.0</ele><time>2026-04-16T13:37:23.757Z</time></trkpt><trkpt lat="40.5841717" lon="8.7457717"><ele>277.0</ele><time>2026-04-16T13:37:24.756Z</time></trkpt><trkpt lat="40.58405" lon="8.7459617"><ele>277.0</ele><time>2026-04-16T13:37:25.757Z</time></trkpt><trkpt lat="40.5839283" lon="8.7461517"><ele>277.0</ele><time>2026-04-16T13:37:26.757Z</time></trkpt><trkpt lat="40.583805" lon="8.7463383"><ele>276.0</ele><time>2026-04-16T13:37:27.757Z</time></trkpt><trkpt lat="40.5836817" lon="8.74653"><ele>275.0</ele><time>2026-04-16T13:37:28.756Z</time></trkpt><trkpt lat="40.5835517" lon="8.746715"><ele>274.0</ele><time>2026-04-16T13:37:29.757Z</time></trkpt><trkpt lat="40.5834183" lon="8.7468967"><ele>276.0</ele><time>2026-04-16T13:37:30.757Z</time></trkpt><trkpt lat="40.5832883" lon="8.7470817"><ele>278.0</ele><time>2026-04-16T13:37:31.756Z</time></trkpt><trkpt lat="40.5831533" lon="8.747275"><ele>280.0</ele><time>2026-04-16T13:37:32.756Z</time></trkpt><trkpt lat="40.5830183" lon="8.7474617"><ele>280.0</ele><time>2026-04-16T13:37:33.756Z</time></trkpt><trkpt lat="40.5828783" lon="8.7476317"><ele>280.0</ele><time>2026-04-16T13:37:34.756Z</time></trkpt><trkpt lat="40.58273" lon="8.7477817"><ele>280.0</ele><time>2026-04-16T13:37:35.756Z</time></trkpt><trkpt lat="40.5825783" lon="8.7479167"><ele>281.0</ele><time>2026-04-16T13:37:36.757Z</time></trkpt><trkpt lat="40.582415" lon="8.748035"><ele>282.0</ele><time>2026-04-16T13:37:37.756Z</time></trkpt><trkpt lat="40.5822467" lon="8.7481467"><ele>283.0</ele><time>2026-04-16T13:37:38.757Z</time></trkpt><trkpt lat="40.582085" lon="8.7482683"><ele>285.3333333333333</ele><time>2026-04-16T13:37:39.757Z</time></trkpt><trkpt lat="40.58192" lon="8.7483917"><ele>287.6666666666667</ele><time>2026-04-16T13:37:40.756Z</time></trkpt><trkpt lat="40.581755" lon="8.748515"><ele>290.0</ele><time>2026-04-16T13:37:41.757Z</time></trkpt><trkpt lat="40.58159" lon="8.748635"><ele>290.33333333333337</ele><time>2026-04-16T13:37:42.757Z</time></trkpt><trkpt lat="40.5814233" lon="8.7487517"><ele>290.6666666666667</ele><time>2026-04-16T13:37:43.757Z</time></trkpt><trkpt lat="40.581255" lon="8.7488717"><ele>291.0</ele><time>2026-04-16T13:37:44.756Z</time></trkpt><trkpt lat="40.5810933" lon="8.748995"><ele>292.6666666666667</ele><time>2026-04-16T13:37:45.756Z</time></trkpt><trkpt lat="40.5809317" lon="8.7491283"><ele>294.33333333333337</ele><time>2026-04-16T13:37:46.756Z</time></trkpt><trkpt lat="40.58077" lon="8.749265"><ele>296.0</ele><time>2026-04-16T13:37:47.757Z</time></trkpt><trkpt lat="40.5806117" lon="8.74941"><ele>296.0</ele><time>2026-04-16T13:37:48.757Z</time></trkpt><trkpt lat="40.5804483" lon="8.749555"><ele>296.0</ele><time>2026-04-16T13:37:49.757Z</time></trkpt><trkpt lat="40.5802883" lon="8.7497133"><ele>296.0</ele><time>2026-04-16T13:37:50.756Z</time></trkpt><trkpt lat="40.5801283" lon="8.749865"><ele>297.0</ele><time>2026-04-16T13:37:51.757Z</time></trkpt><trkpt lat="40.5799733" lon="8.75001"><ele>298.0</ele><time>2026-04-16T13:37:52.756Z</time></trkpt><trkpt lat="40.5798183" lon="8.750145"><ele>299.0</ele><time>2026-04-16T13:37:53.756Z</time></trkpt><trkpt lat="40.579665" lon="8.7502683"><ele>297.6666666666667</ele><time>2026-04-16T13:37:54.757Z</time></trkpt><trkpt lat="40.579515" lon="8.7503817"><ele>296.3333333333333</ele><time>2026-04-16T13:37:55.757Z</time></trkpt><trkpt lat="40.57937" lon="8.7504867"><ele>295.0</ele><time>2026-04-16T13:37:56.757Z</time></trkpt><trkpt lat="40.5792267" lon="8.7505917"><ele>295.0</ele><time>2026-04-16T13:37:57.756Z</time></trkpt><trkpt lat="40.5790833" lon="8.7506967"><ele>295.0</ele><time>2026-04-16T13:37:58.756Z</time></trkpt><trkpt lat="40.5789433" lon="8.7508033"><ele>295.0</ele><time>2026-04-16T13:37:59.756Z</time></trkpt><trkpt lat="40.5788067" lon="8.750905"><ele>295.75</ele><time>2026-04-16T13:38:00.757Z</time></trkpt><trkpt lat="40.5786767" lon="8.7509967"><ele>296.5</ele><time>2026-04-16T13:38:01.756Z</time></trkpt><trkpt lat="40.5785567" lon="8.7510883"><ele>297.25</ele><time>2026-04-16T13:38:02.757Z</time></trkpt><trkpt lat="40.5784417" lon="8.7511667"><ele>298.0</ele><time>2026-04-16T13:38:03.756Z</time></trkpt><trkpt lat="40.5783217" lon="8.7512233"><ele>298.0</ele><time>2026-04-16T13:38:04.756Z</time></trkpt><trkpt lat="40.5781967" lon="8.7512367"><ele>298.0</ele><time>2026-04-16T13:38:05.757Z</time></trkpt><trkpt lat="40.5780717" lon="8.751205"><ele>298.0</ele><time>2026-04-16T13:38:06.757Z</time></trkpt><trkpt lat="40.5779483" lon="8.75113"><ele>298.0</ele><time>2026-04-16T13:38:07.757Z</time></trkpt><trkpt lat="40.5778083" lon="8.7510717"><ele>301.66666666666663</ele><time>2026-04-16T13:38:08.756Z</time></trkpt><trkpt lat="40.5776633" lon="8.7510117"><ele>305.3333333333333</ele><time>2026-04-16T13:38:09.756Z</time></trkpt><trkpt lat="40.5775067" lon="8.7509467"><ele>309.0</ele><time>2026-04-16T13:38:10.756Z</time></trkpt><trkpt lat="40.577355" lon="8.7508733"><ele>309.0</ele><time>2026-04-16T13:38:11.757Z</time></trkpt><trkpt lat="40.5771933" lon="8.7507967"><ele>309.0</ele><time>2026-04-16T13:38:12.757Z</time></trkpt><trkpt lat="40.5770467" lon="8.75072"><ele>309.0</ele><time>2026-04-16T13:38:13.757Z</time></trkpt><trkpt lat="40.5769083" lon="8.75065"><ele>309.0</ele><time>2026-04-16T13:38:14.756Z</time></trkpt><trkpt lat="40.5767867" lon="8.750595"><ele>309.0</ele><time>2026-04-16T13:38:15.757Z</time></trkpt><trkpt lat="40.576675" lon="8.7505783"><ele>309.0</ele><time>2026-04-16T13:38:16.757Z</time></trkpt><trkpt lat="40.5765717" lon="8.7506033"><ele>309.0</ele><time>2026-04-16T13:38:17.757Z</time></trkpt><trkpt lat="40.5764883" lon="8.7506683"><ele>309.0</ele><time>2026-04-16T13:38:18.757Z</time></trkpt><trkpt lat="40.5764117" lon="8.75077"><ele>309.0</ele><time>2026-04-16T13:38:19.756Z</time></trkpt><trkpt lat="40.5763417" lon="8.750895"><ele>309.0</ele><time>2026-04-16T13:38:20.757Z</time></trkpt><trkpt lat="40.5762667" lon="8.7510317"><ele>309.0</ele><time>2026-04-16T13:38:21.756Z</time></trkpt><trkpt lat="40.5761767" lon="8.7511817"><ele>309.0</ele><time>2026-04-16T13:38:22.756Z</time></trkpt><trkpt lat="40.5760767" lon="8.75133"><ele>309.6666666666667</ele><time>2026-04-16T13:38:23.756Z</time></trkpt><trkpt lat="40.57596" lon="8.7514967"><ele>310.33333333333337</ele><time>2026-04-16T13:38:24.756Z</time></trkpt><trkpt lat="40.5758383" lon="8.7516683"><ele>311.0</ele><time>2026-04-16T13:38:25.757Z</time></trkpt><trkpt lat="40.5757133" lon="8.7518333"><ele>309.33333333333337</ele><time>2026-04-16T13:38:26.757Z</time></trkpt><trkpt lat="40.5755817" lon="8.7519967"><ele>307.6666666666667</ele><time>2026-04-16T13:38:27.757Z</time></trkpt><trkpt lat="40.57545" lon="8.75217"><ele>306.0</ele><time>2026-04-16T13:38:28.756Z</time></trkpt><trkpt lat="40.5753133" lon="8.7523333"><ele>308.6666666666667</ele><time>2026-04-16T13:38:29.757Z</time></trkpt><trkpt lat="40.5751717" lon="8.7525033"><ele>311.33333333333337</ele><time>2026-04-16T13:38:30.757Z</time></trkpt><trkpt lat="40.5750383" lon="8.7526783"><ele>314.0</ele><time>2026-04-16T13:38:31.757Z</time></trkpt><trkpt lat="40.5748983" lon="8.7528617"><ele>314.0</ele><time>2026-04-16T13:38:32.757Z</time></trkpt><trkpt lat="40.574765" lon="8.7530367"><ele>314.0</ele><time>2026-04-16T13:38:33.757Z</time></trkpt><trkpt lat="40.5746317" lon="8.7532133"><ele>314.0</ele><time>2026-04-16T13:38:34.756Z</time></trkpt><trkpt lat="40.5745167" lon="8.753395"><ele>316.0</ele><time>2026-04-16T13:38:35.757Z</time></trkpt><trkpt lat="40.5744083" lon="8.7535867"><ele>318.0</ele><time>2026-04-16T13:38:36.756Z</time></trkpt><trkpt lat="40.5742917" lon="8.75379"><ele>320.0</ele><time>2026-04-16T13:38:37.757Z</time></trkpt><trkpt lat="40.574185" lon="8.7539933"><ele>320.0</ele><time>2026-04-16T13:38:38.757Z</time></trkpt><trkpt lat="40.5740733" lon="8.75419"><ele>320.0</ele><time>2026-04-16T13:38:39.757Z</time></trkpt><trkpt lat="40.57397" lon="8.7543967"><ele>320.0</ele><time>2026-04-16T13:38:40.756Z</time></trkpt><trkpt lat="40.57385" lon="8.754595"><ele>319.6666666666667</ele><time>2026-04-16T13:38:41.757Z</time></trkpt><trkpt lat="40.5737367" lon="8.7547817"><ele>319.3333333333333</ele><time>2026-04-16T13:38:42.757Z</time></trkpt><trkpt lat="40.5736233" lon="8.75496"><ele>319.0</ele><time>2026-04-16T13:38:43.757Z</time></trkpt><trkpt lat="40.5734983" lon="8.755135"><ele>320.66666666666663</ele><time>2026-04-16T13:38:44.757Z</time></trkpt><trkpt lat="40.5733667" lon="8.7553017"><ele>322.3333333333333</ele><time>2026-04-16T13:38:45.756Z</time></trkpt><trkpt lat="40.5732333" lon="8.7554567"><ele>324.0</ele><time>2026-04-16T13:38:46.756Z</time></trkpt><trkpt lat="40.5730983" lon="8.7556267"><ele>324.0</ele><time>2026-04-16T13:38:47.757Z</time></trkpt><trkpt lat="40.5729667" lon="8.7558017"><ele>324.0</ele><time>2026-04-16T13:38:48.757Z</time></trkpt><trkpt lat="40.5728433" lon="8.7559733"><ele>324.0</ele><time>2026-04-16T13:38:49.757Z</time></trkpt><trkpt lat="40.5727233" lon="8.756155"><ele>326.3333333333333</ele><time>2026-04-16T13:38:50.757Z</time></trkpt><trkpt lat="40.5726283" lon="8.7563517"><ele>328.66666666666663</ele><time>2026-04-16T13:38:51.756Z</time></trkpt><trkpt lat="40.5725383" lon="8.7565517"><ele>331.0</ele><time>2026-04-16T13:38:52.757Z</time></trkpt><trkpt lat="40.5724467" lon="8.7567483"><ele>329.66666666666663</ele><time>2026-04-16T13:38:53.756Z</time></trkpt><trkpt lat="40.5723567" lon="8.7569283"><ele>328.3333333333333</ele><time>2026-04-16T13:38:54.757Z</time></trkpt><trkpt lat="40.5722517" lon="8.7570983"><ele>327.0</ele><time>2026-04-16T13:38:55.757Z</time></trkpt><trkpt lat="40.57213" lon="8.7572683"><ele>331.3333333333333</ele><time>2026-04-16T13:38:56.756Z</time></trkpt><trkpt lat="40.5719983" lon="8.7574167"><ele>335.66666666666663</ele><time>2026-04-16T13:38:57.756Z</time></trkpt><trkpt lat="40.5718583" lon="8.7575533"><ele>340.0</ele><time>2026-04-16T13:38:58.756Z</time></trkpt><trkpt lat="40.5716983" lon="8.7576617"><ele>340.3333333333333</ele><time>2026-04-16T13:38:59.757Z</time></trkpt><trkpt lat="40.571535" lon="8.7577467"><ele>340.6666666666667</ele><time>2026-04-16T13:39:00.757Z</time></trkpt><trkpt lat="40.5713567" lon="8.75778"><ele>341.0</ele><time>2026-04-16T13:39:01.757Z</time></trkpt><trkpt lat="40.571165" lon="8.7577783"><ele>341.0</ele><time>2026-04-16T13:39:02.757Z</time></trkpt><trkpt lat="40.5709817" lon="8.7577733"><ele>341.0</ele><time>2026-04-16T13:39:03.756Z</time></trkpt><trkpt lat="40.5708067" lon="8.7577783"><ele>341.0</ele><time>2026-04-16T13:39:04.756Z</time></trkpt><trkpt lat="40.5706183" lon="8.7578133"><ele>341.0</ele><time>2026-04-16T13:39:05.756Z</time></trkpt><trkpt lat="40.570425" lon="8.757875"><ele>341.0</ele><time>2026-04-16T13:39:06.756Z</time></trkpt><trkpt lat="40.57024" lon="8.7579567"><ele>341.0</ele><time>2026-04-16T13:39:07.757Z</time></trkpt><trkpt lat="40.5700567" lon="8.758055"><ele>341.6666666666667</ele><time>2026-04-16T13:39:08.757Z</time></trkpt><trkpt lat="40.5698733" lon="8.7581617"><ele>342.3333333333333</ele><time>2026-04-16T13:39:09.757Z</time></trkpt><trkpt lat="40.5697133" lon="8.758295"><ele>343.0</ele><time>2026-04-16T13:39:10.757Z</time></trkpt><trkpt lat="40.56957" lon="8.75845"><ele>346.0</ele><time>2026-04-16T13:39:11.756Z</time></trkpt><trkpt lat="40.5694467" lon="8.758635"><ele>349.0</ele><time>2026-04-16T13:39:12.756Z</time></trkpt><trkpt lat="40.5693417" lon="8.7588283"><ele>352.0</ele><time>2026-04-16T13:39:13.757Z</time></trkpt><trkpt lat="40.5692633" lon="8.7590183"><ele>352.0</ele><time>2026-04-16T13:39:14.757Z</time></trkpt><trkpt lat="40.569175" lon="8.759225"><ele>352.0</ele><time>2026-04-16T13:39:15.757Z</time></trkpt><trkpt lat="40.5690833" lon="8.759445"><ele>352.0</ele><time>2026-04-16T13:39:16.756Z</time></trkpt><trkpt lat="40.5690017" lon="8.7596467"><ele>353.3333333333333</ele><time>2026-04-16T13:39:17.756Z</time></trkpt><trkpt lat="40.5689117" lon="8.7598117"><ele>354.6666666666667</ele><time>2026-04-16T13:39:18.757Z</time></trkpt><trkpt lat="40.5688033" lon="8.7599733"><ele>356.0</ele><time>2026-04-16T13:39:19.757Z</time></trkpt><trkpt lat="40.568665" lon="8.7601083"><ele>358.0</ele><time>2026-04-16T13:39:20.757Z</time></trkpt><trkpt lat="40.5685167" lon="8.7602167"><ele>360.0</ele><time>2026-04-16T13:39:21.756Z</time></trkpt><trkpt lat="40.568365" lon="8.7603167"><ele>362.0</ele><time>2026-04-16T13:39:22.757Z</time></trkpt><trkpt lat="40.5682083" lon="8.76043"><ele>362.0</ele><time>2026-04-16T13:39:23.757Z</time></trkpt><trkpt lat="40.5680467" lon="8.7605417"><ele>362.0</ele><time>2026-04-16T13:39:24.756Z</time></trkpt><trkpt lat="40.5678717" lon="8.76066"><ele>362.0</ele><time>2026-04-16T13:39:25.756Z</time></trkpt><trkpt lat="40.5676933" lon="8.7607867"><ele>363.0</ele><time>2026-04-16T13:39:26.757Z</time></trkpt><trkpt lat="40.567525" lon="8.760915"><ele>364.0</ele><time>2026-04-16T13:39:27.757Z</time></trkpt><trkpt lat="40.56734" lon="8.7610467"><ele>365.0</ele><time>2026-04-16T13:39:28.757Z</time></trkpt><trkpt lat="40.567155" lon="8.7611733"><ele>366.0</ele><time>2026-04-16T13:39:29.757Z</time></trkpt><trkpt lat="40.5669683" lon="8.7613067"><ele>367.0</ele><time>2026-04-16T13:39:30.757Z</time></trkpt><trkpt lat="40.5667767" lon="8.76144"><ele>368.0</ele><time>2026-04-16T13:39:31.756Z</time></trkpt><trkpt lat="40.5665867" lon="8.76157"><ele>368.0</ele><time>2026-04-16T13:39:32.756Z</time></trkpt><trkpt lat="40.566405" lon="8.7616967"><ele>368.0</ele><time>2026-04-16T13:39:33.757Z</time></trkpt><trkpt lat="40.566225" lon="8.7618267"><ele>368.0</ele><time>2026-04-16T13:39:34.757Z</time></trkpt><trkpt lat="40.5660467" lon="8.7619583"><ele>368.0</ele><time>2026-04-16T13:39:35.757Z</time></trkpt><trkpt lat="40.5658633" lon="8.762095"><ele>368.0</ele><time>2026-04-16T13:39:36.757Z</time></trkpt><trkpt lat="40.5656817" lon="8.7622467"><ele>368.0</ele><time>2026-04-16T13:39:37.757Z</time></trkpt><trkpt lat="40.5655017" lon="8.76239"><ele>368.0</ele><time>2026-04-16T13:39:38.756Z</time></trkpt><trkpt lat="40.5653133" lon="8.7625467"><ele>368.0</ele><time>2026-04-16T13:39:39.755Z</time></trkpt><trkpt lat="40.56513" lon="8.7627"><ele>368.0</ele><time>2026-04-16T13:39:40.756Z</time></trkpt><trkpt lat="40.5649483" lon="8.762845"><ele>368.0</ele><time>2026-04-16T13:39:41.756Z</time></trkpt><trkpt lat="40.5647683" lon="8.7629917"><ele>368.0</ele><time>2026-04-16T13:39:42.756Z</time></trkpt><trkpt lat="40.564585" lon="8.76314"><ele>368.0</ele><time>2026-04-16T13:39:43.755Z</time></trkpt><trkpt lat="40.564405" lon="8.763285"><ele>368.0</ele><time>2026-04-16T13:39:44.756Z</time></trkpt><trkpt lat="40.5642333" lon="8.7634233"><ele>368.0</ele><time>2026-04-16T13:39:45.756Z</time></trkpt><trkpt lat="40.5640533" lon="8.7635617"><ele>368.0</ele><time>2026-04-16T13:39:46.755Z</time></trkpt><trkpt lat="40.5638783" lon="8.7636983"><ele>367.33333333333337</ele><time>2026-04-16T13:39:47.756Z</time></trkpt><trkpt lat="40.5636983" lon="8.76384"><ele>366.6666666666667</ele><time>2026-04-16T13:39:48.756Z</time></trkpt><trkpt lat="40.5635167" lon="8.7639867"><ele>366.0</ele><time>2026-04-16T13:39:49.756Z</time></trkpt><trkpt lat="40.5633383" lon="8.764135"><ele>366.0</ele><time>2026-04-16T13:39:50.755Z</time></trkpt><trkpt lat="40.5631583" lon="8.7642783"><ele>366.0</ele><time>2026-04-16T13:39:51.755Z</time></trkpt><trkpt lat="40.562995" lon="8.7644133"><ele>366.0</ele><time>2026-04-16T13:39:52.756Z</time></trkpt><trkpt lat="40.5628483" lon="8.764535"><ele>364.5</ele><time>2026-04-16T13:39:53.755Z</time></trkpt><trkpt lat="40.5627183" lon="8.7646483"><ele>363.0</ele><time>2026-04-16T13:39:54.756Z</time></trkpt><trkpt lat="40.5626033" lon="8.7647433"><ele>361.5</ele><time>2026-04-16T13:39:55.755Z</time></trkpt><trkpt lat="40.5624917" lon="8.76483"><ele>360.0</ele><time>2026-04-16T13:39:56.755Z</time></trkpt><trkpt lat="40.5624117" lon="8.7649"><ele>360.0</ele><time>2026-04-16T13:39:57.756Z</time></trkpt><trkpt lat="40.56235" lon="8.76494"><ele>360.0</ele><time>2026-04-16T13:39:58.756Z</time></trkpt><trkpt lat="40.5623183" lon="8.7648617"><ele>360.0</ele><time>2026-04-16T13:40:02.756Z</time></trkpt><trkpt lat="40.5623483" lon="8.76471"><ele>360.0</ele><time>2026-04-16T13:40:04.756Z</time></trkpt><trkpt lat="40.5623767" lon="8.7646017"><ele>360.0</ele><time>2026-04-16T13:40:05.756Z</time></trkpt><trkpt lat="40.5624083" lon="8.76449"><ele>360.0</ele><time>2026-04-16T13:40:06.756Z</time></trkpt><trkpt lat="40.562445" lon="8.7643567"><ele>360.6</ele><time>2026-04-16T13:40:07.756Z</time></trkpt><trkpt lat="40.5624867" lon="8.7642133"><ele>361.2</ele><time>2026-04-16T13:40:08.756Z</time></trkpt><trkpt lat="40.5625217" lon="8.7640867"><ele>361.79999999999995</ele><time>2026-04-16T13:40:09.755Z</time></trkpt><trkpt lat="40.5625533" lon="8.76399"><ele>362.4</ele><time>2026-04-16T13:40:10.756Z</time></trkpt><trkpt lat="40.5625617" lon="8.7638883"><ele>363.0</ele><time>2026-04-16T13:40:12.756Z</time></trkpt><trkpt lat="40.5625" lon="8.7638317"><ele>363.0</ele><time>2026-04-16T13:40:14.756Z</time></trkpt><trkpt lat="40.5624133" lon="8.763735"><ele>363.0</ele><time>2026-04-16T13:40:16.755Z</time></trkpt><trkpt lat="40.5623067" lon="8.763665"><ele>363.0</ele><time>2026-04-16T13:40:18.755Z</time></trkpt><trkpt lat="40.56224" lon="8.7636483"><ele>363.0</ele><time>2026-04-16T13:40:19.755Z</time></trkpt><trkpt lat="40.5621683" lon="8.76364"><ele>363.0</ele><time>2026-04-16T13:40:20.756Z</time></trkpt><trkpt lat="40.5620983" lon="8.7636483"><ele>363.0</ele><time>2026-04-16T13:40:21.755Z</time></trkpt><trkpt lat="40.56203" lon="8.76367"><ele>363.3333333333333</ele><time>2026-04-16T13:40:22.755Z</time></trkpt><trkpt lat="40.561955" lon="8.7637117"><ele>363.6666666666667</ele><time>2026-04-16T13:40:23.756Z</time></trkpt><trkpt lat="40.5618733" lon="8.7637483"><ele>364.0</ele><time>2026-04-16T13:40:24.755Z</time></trkpt><trkpt lat="40.5617983" lon="8.76378"><ele>364.33333333333337</ele><time>2026-04-16T13:40:25.756Z</time></trkpt><trkpt lat="40.5617" lon="8.7637633"><ele>364.6666666666667</ele><time>2026-04-16T13:40:27.755Z</time></trkpt><trkpt lat="40.5616517" lon="8.763685"><ele>365.0</ele><time>2026-04-16T13:40:29.756Z</time></trkpt><trkpt lat="40.5615917" lon="8.763645"><ele>365.00000000000006</ele><time>2026-04-16T13:40:30.756Z</time></trkpt><trkpt lat="40.56153" lon="8.7635983"><ele>365.0</ele><time>2026-04-16T13:40:31.755Z</time></trkpt><trkpt lat="40.56147" lon="8.76355"><ele>365.0</ele><time>2026-04-16T13:40:32.756Z</time></trkpt><trkpt lat="40.56141" lon="8.763495"><ele>365.0</ele><time>2026-04-16T13:40:33.755Z</time></trkpt><trkpt lat="40.56135" lon="8.7634383"><ele>365.0</ele><time>2026-04-16T13:40:34.756Z</time></trkpt><trkpt lat="40.56129" lon="8.763375"><ele>365.00000000000006</ele><time>2026-04-16T13:40:35.756Z</time></trkpt><trkpt lat="40.56122" lon="8.76332"><ele>365.0</ele><time>2026-04-16T13:40:36.755Z</time></trkpt><trkpt lat="40.5611583" lon="8.763275"><ele>367.28571428571433</ele><time>2026-04-16T13:40:37.756Z</time></trkpt><trkpt lat="40.56109" lon="8.7632183"><ele>369.57142857142856</ele><time>2026-04-16T13:40:38.756Z</time></trkpt><trkpt lat="40.5610383" lon="8.7631583"><ele>371.8571428571429</ele><time>2026-04-16T13:40:39.756Z</time></trkpt><trkpt lat="40.560985" lon="8.7630983"><ele>374.14285714285717</ele><time>2026-04-16T13:40:40.756Z</time></trkpt><trkpt lat="40.56093" lon="8.7630317"><ele>376.42857142857144</ele><time>2026-04-16T13:40:41.756Z</time></trkpt><trkpt lat="40.5608783" lon="8.76296"><ele>378.7142857142857</ele><time>2026-04-16T13:40:42.756Z</time></trkpt><trkpt lat="40.5608333" lon="8.7629"><ele>381.0</ele><time>2026-04-16T13:40:43.756Z</time></trkpt><trkpt lat="40.560765" lon="8.7627633"><ele>382.5</ele><time>2026-04-16T13:40:45.755Z</time></trkpt><trkpt lat="40.56072" lon="8.76269"><ele>384.0</ele><time>2026-04-16T13:40:46.755Z</time></trkpt><trkpt lat="40.56068" lon="8.7626233"><ele>385.5</ele><time>2026-04-16T13:40:47.756Z</time></trkpt><trkpt lat="40.5606617" lon="8.7625233"><ele>387.0</ele><time>2026-04-16T13:40:49.755Z</time></trkpt><trkpt lat="40.56071" lon="8.7623967"><ele>388.5</ele><time>2026-04-16T13:40:51.755Z</time></trkpt><trkpt lat="40.5607433" lon="8.7623083"><ele>390.0</ele><time>2026-04-16T13:40:52.756Z</time></trkpt><trkpt lat="40.560775" lon="8.7621967"><ele>390.0</ele><time>2026-04-16T13:40:53.755Z</time></trkpt><trkpt lat="40.5608033" lon="8.7620833"><ele>390.0</ele><time>2026-04-16T13:40:54.756Z</time></trkpt><trkpt lat="40.5608283" lon="8.761965"><ele>390.0</ele><time>2026-04-16T13:40:55.756Z</time></trkpt><trkpt lat="40.56086" lon="8.7618533"><ele>390.0</ele><time>2026-04-16T13:40:56.755Z</time></trkpt><trkpt lat="40.5608967" lon="8.7617533"><ele>390.0</ele><time>2026-04-16T13:40:57.756Z</time></trkpt><trkpt lat="40.5609167" lon="8.76164"><ele>390.0</ele><time>2026-04-16T13:40:58.756Z</time></trkpt><trkpt lat="40.5609317" lon="8.7615267"><ele>391.0</ele><time>2026-04-16T13:40:59.756Z</time></trkpt><trkpt lat="40.5609567" lon="8.7614083"><ele>392.0</ele><time>2026-04-16T13:41:00.756Z</time></trkpt><trkpt lat="40.560975" lon="8.7613"><ele>393.0</ele><time>2026-04-16T13:41:01.755Z</time></trkpt><trkpt lat="40.5609783" lon="8.76118"><ele>394.0</ele><time>2026-04-16T13:41:02.756Z</time></trkpt><trkpt lat="40.5609783" lon="8.7610483"><ele>395.0</ele><time>2026-04-16T13:41:03.755Z</time></trkpt><trkpt lat="40.560975" lon="8.76093"><ele>395.4</ele><time>2026-04-16T13:41:04.755Z</time></trkpt><trkpt lat="40.56097" lon="8.76083"><ele>395.8</ele><time>2026-04-16T13:41:05.756Z</time></trkpt><trkpt lat="40.5609483" lon="8.7606767"><ele>396.20000000000005</ele><time>2026-04-16T13:41:07.756Z</time></trkpt><trkpt lat="40.5608767" lon="8.760625"><ele>396.6</ele><time>2026-04-16T13:41:09.756Z</time></trkpt><trkpt lat="40.560785" lon="8.76064"><ele>397.0</ele><time>2026-04-16T13:41:11.756Z</time></trkpt><trkpt lat="40.56072" lon="8.7605717"><ele>397.00000000000006</ele><time>2026-04-16T13:41:13.755Z</time></trkpt><trkpt lat="40.5606933" lon="8.7604883"><ele>397.0</ele><time>2026-04-16T13:41:14.756Z</time></trkpt><trkpt lat="40.5606867" lon="8.7603767"><ele>397.0</ele><time>2026-04-16T13:41:15.755Z</time></trkpt><trkpt lat="40.5606783" lon="8.76026"><ele>397.0</ele><time>2026-04-16T13:41:16.756Z</time></trkpt><trkpt lat="40.5606667" lon="8.7601633"><ele>397.00000000000006</ele><time>2026-04-16T13:41:17.756Z</time></trkpt><trkpt lat="40.5606333" lon="8.7600583"><ele>397.0</ele><time>2026-04-16T13:41:18.756Z</time></trkpt><trkpt lat="40.5605983" lon="8.7599533"><ele>396.83333333333337</ele><time>2026-04-16T13:41:19.755Z</time></trkpt><trkpt lat="40.5605583" lon="8.7598483"><ele>396.6666666666667</ele><time>2026-04-16T13:41:20.755Z</time></trkpt><trkpt lat="40.56052" lon="8.75975"><ele>396.5</ele><time>2026-04-16T13:41:21.756Z</time></trkpt><trkpt lat="40.56048" lon="8.7596483"><ele>396.33333333333337</ele><time>2026-04-16T13:41:22.756Z</time></trkpt><trkpt lat="40.56044" lon="8.75955"><ele>396.1666666666667</ele><time>2026-04-16T13:41:23.756Z</time></trkpt><trkpt lat="40.560405" lon="8.7594617"><ele>396.0</ele><time>2026-04-16T13:41:24.756Z</time></trkpt><trkpt lat="40.5603883" lon="8.759335"><ele>396.0</ele><time>2026-04-16T13:41:26.756Z</time></trkpt><trkpt lat="40.56039" lon="8.75925"><ele>396.0</ele><time>2026-04-16T13:41:27.756Z</time></trkpt><trkpt lat="40.5603933" lon="8.7591467"><ele>396.0</ele><time>2026-04-16T13:41:28.756Z</time></trkpt><trkpt lat="40.56039" lon="8.759025"><ele>396.0</ele><time>2026-04-16T13:41:29.756Z</time></trkpt><trkpt lat="40.5603783" lon="8.7588967"><ele>396.0</ele><time>2026-04-16T13:41:30.755Z</time></trkpt><trkpt lat="40.5603683" lon="8.7587683"><ele>396.0</ele><time>2026-04-16T13:41:31.756Z</time></trkpt><trkpt lat="40.5603633" lon="8.75864"><ele>396.0</ele><time>2026-04-16T13:41:32.755Z</time></trkpt><trkpt lat="40.56037" lon="8.758535"><ele>396.0</ele><time>2026-04-16T13:41:33.755Z</time></trkpt><trkpt lat="40.5603917" lon="8.7584567"><ele>396.0</ele><time>2026-04-16T13:41:34.756Z</time></trkpt><trkpt lat="40.5604417" lon="8.7583917"><ele>396.0</ele><time>2026-04-16T13:41:35.755Z</time></trkpt><trkpt lat="40.560505" lon="8.75835"><ele>396.0</ele><time>2026-04-16T13:41:36.755Z</time></trkpt><trkpt lat="40.560585" lon="8.7583267"><ele>396.0</ele><time>2026-04-16T13:41:37.755Z</time></trkpt><trkpt lat="40.5606617" lon="8.7583033"><ele>396.0</ele><time>2026-04-16T13:41:38.756Z</time></trkpt><trkpt lat="40.56074" lon="8.7582767"><ele>397.42857142857144</ele><time>2026-04-16T13:41:39.756Z</time></trkpt><trkpt lat="40.560815" lon="8.7582583"><ele>398.85714285714283</ele><time>2026-04-16T13:41:40.756Z</time></trkpt><trkpt lat="40.560885" lon="8.7582433"><ele>400.2857142857143</ele><time>2026-04-16T13:41:41.755Z</time></trkpt><trkpt lat="40.5609483" lon="8.7582317"><ele>401.7142857142857</ele><time>2026-04-16T13:41:42.756Z</time></trkpt><trkpt lat="40.5610183" lon="8.7581817"><ele>403.1428571428571</ele><time>2026-04-16T13:41:44.756Z</time></trkpt><trkpt lat="40.5610483" lon="8.7580867"><ele>404.57142857142856</ele><time>2026-04-16T13:41:46.755Z</time></trkpt><trkpt lat="40.5610217" lon="8.7579883"><ele>406.0</ele><time>2026-04-16T13:42:58.755Z</time></trkpt><trkpt lat="40.5609883" lon="8.757895"><ele>406.00000000000006</ele><time>2026-04-16T13:43:58.754Z</time></trkpt><trkpt lat="40.5609633" lon="8.7577683"><ele>406.0</ele><time>2026-04-16T13:44:00.755Z</time></trkpt><trkpt lat="40.56095" lon="8.7576867"><ele>406.0</ele><time>2026-04-16T13:44:01.755Z</time></trkpt><trkpt lat="40.5609367" lon="8.757605"><ele>406.0</ele><time>2026-04-16T13:44:02.754Z</time></trkpt><trkpt lat="40.560915" lon="8.7574667"><ele>406.00000000000006</ele><time>2026-04-16T13:44:04.755Z</time></trkpt><trkpt lat="40.560875" lon="8.7573783"><ele>406.0</ele><time>2026-04-16T13:44:06.754Z</time></trkpt><trkpt lat="40.5607983" lon="8.75733"><ele>407.1666666666667</ele><time>2026-04-16T13:44:08.755Z</time></trkpt><trkpt lat="40.56071" lon="8.7572583"><ele>408.33333333333337</ele><time>2026-04-16T13:44:10.754Z</time></trkpt><trkpt lat="40.5606383" lon="8.757135"><ele>409.5</ele><time>2026-04-16T13:44:12.755Z</time></trkpt><trkpt lat="40.5606017" lon="8.75705"><ele>410.66666666666663</ele><time>2026-04-16T13:44:13.755Z</time></trkpt><trkpt lat="40.5605717" lon="8.75696"><ele>411.8333333333333</ele><time>2026-04-16T13:44:14.755Z</time></trkpt><trkpt lat="40.5605333" lon="8.75688"><ele>413.0</ele><time>2026-04-16T13:44:15.755Z</time></trkpt><trkpt lat="40.5605117" lon="8.7567967"><ele>413.3333333333333</ele><time>2026-04-16T13:44:16.755Z</time></trkpt><trkpt lat="40.5604983" lon="8.7566333"><ele>413.66666666666663</ele><time>2026-04-16T13:44:18.754Z</time></trkpt><trkpt lat="40.5605133" lon="8.7565467"><ele>414.0</ele><time>2026-04-16T13:44:19.755Z</time></trkpt><trkpt lat="40.5605283" lon="8.7564567"><ele>414.33333333333337</ele><time>2026-04-16T13:44:20.755Z</time></trkpt><trkpt lat="40.560545" lon="8.75637"><ele>414.6666666666667</ele><time>2026-04-16T13:44:21.755Z</time></trkpt><trkpt lat="40.5605417" lon="8.7562467"><ele>415.0</ele><time>2026-04-16T13:44:23.755Z</time></trkpt><trkpt lat="40.5604383" lon="8.756195"><ele>416.50000000000006</ele><time>2026-04-16T13:44:26.754Z</time></trkpt><trkpt lat="40.56036" lon="8.7561467"><ele>418.0</ele><time>2026-04-16T13:44:28.755Z</time></trkpt><trkpt lat="40.5603633" lon="8.7560483"><ele>419.5</ele><time>2026-04-16T13:44:30.754Z</time></trkpt><trkpt lat="40.5603967" lon="8.75592"><ele>421.0</ele><time>2026-04-16T13:44:32.754Z</time></trkpt><trkpt lat="40.5603967" lon="8.7558217"><ele>422.50000000000006</ele><time>2026-04-16T13:44:34.755Z</time></trkpt><trkpt lat="40.56032" lon="8.7557633"><ele>424.0</ele><time>2026-04-16T13:44:36.755Z</time></trkpt><trkpt lat="40.5602517" lon="8.7557267"><ele>425.6</ele><time>2026-04-16T13:44:37.754Z</time></trkpt><trkpt lat="40.5601633" lon="8.755685"><ele>427.2</ele><time>2026-04-16T13:44:38.754Z</time></trkpt><trkpt lat="40.56007" lon="8.7556333"><ele>428.80000000000007</ele><time>2026-04-16T13:44:39.755Z</time></trkpt><trkpt lat="40.5599767" lon="8.7555717"><ele>430.40000000000003</ele><time>2026-04-16T13:44:40.754Z</time></trkpt><trkpt lat="40.5598683" lon="8.75551"><ele>432.0</ele><time>2026-04-16T13:44:41.755Z</time></trkpt><trkpt lat="40.5597533" lon="8.755455"><ele>432.0</ele><time>2026-04-16T13:44:42.754Z</time></trkpt><trkpt lat="40.55963" lon="8.7554067"><ele>432.0</ele><time>2026-04-16T13:44:43.755Z</time></trkpt><trkpt lat="40.5595067" lon="8.7553633"><ele>432.0</ele><time>2026-04-16T13:44:44.755Z</time></trkpt><trkpt lat="40.5593767" lon="8.755315"><ele>432.0</ele><time>2026-04-16T13:44:45.755Z</time></trkpt><trkpt lat="40.55924" lon="8.7552717"><ele>433.25</ele><time>2026-04-16T13:44:46.755Z</time></trkpt><trkpt lat="40.5591083" lon="8.75524"><ele>434.5</ele><time>2026-04-16T13:44:47.755Z</time></trkpt><trkpt lat="40.5589733" lon="8.755215"><ele>435.75</ele><time>2026-04-16T13:44:48.754Z</time></trkpt><trkpt lat="40.5588483" lon="8.75518"><ele>437.0</ele><time>2026-04-16T13:44:49.754Z</time></trkpt><trkpt lat="40.558725" lon="8.7551433"><ele>438.25</ele><time>2026-04-16T13:44:50.755Z</time></trkpt><trkpt lat="40.5585933" lon="8.755115"><ele>439.5</ele><time>2026-04-16T13:44:51.754Z</time></trkpt><trkpt lat="40.5584517" lon="8.7550817"><ele>440.75</ele><time>2026-04-16T13:44:52.755Z</time></trkpt><trkpt lat="40.558305" lon="8.75504"><ele>442.0</ele><time>2026-04-16T13:44:53.755Z</time></trkpt><trkpt lat="40.558165" lon="8.7550017"><ele>442.0</ele><time>2026-04-16T13:44:54.754Z</time></trkpt><trkpt lat="40.5580267" lon="8.75497"><ele>442.0</ele><time>2026-04-16T13:44:55.755Z</time></trkpt><trkpt lat="40.55788" lon="8.754955"><ele>442.0</ele><time>2026-04-16T13:44:56.755Z</time></trkpt><trkpt lat="40.5577283" lon="8.7549383"><ele>442.0</ele><time>2026-04-16T13:44:57.755Z</time></trkpt><trkpt lat="40.55758" lon="8.7549183"><ele>443.0</ele><time>2026-04-16T13:44:58.755Z</time></trkpt><trkpt lat="40.5574267" lon="8.7548983"><ele>444.0</ele><time>2026-04-16T13:44:59.755Z</time></trkpt><trkpt lat="40.5572767" lon="8.7548767"><ele>445.0</ele><time>2026-04-16T13:45:00.755Z</time></trkpt><trkpt lat="40.55713" lon="8.754855"><ele>445.0</ele><time>2026-04-16T13:45:01.755Z</time></trkpt><trkpt lat="40.5569833" lon="8.7548283"><ele>445.0</ele><time>2026-04-16T13:45:02.755Z</time></trkpt><trkpt lat="40.5568283" lon="8.7548167"><ele>445.0</ele><time>2026-04-16T13:45:03.755Z</time></trkpt><trkpt lat="40.5566733" lon="8.754805"><ele>445.0</ele><time>2026-04-16T13:45:04.755Z</time></trkpt><trkpt lat="40.5565217" lon="8.7548017"><ele>445.0</ele><time>2026-04-16T13:45:05.755Z</time></trkpt><trkpt lat="40.5563683" lon="8.7548"><ele>445.0</ele><time>2026-04-16T13:45:06.755Z</time></trkpt><trkpt lat="40.5562133" lon="8.754815"><ele>444.6666666666667</ele><time>2026-04-16T13:45:07.754Z</time></trkpt><trkpt lat="40.5560567" lon="8.7548333"><ele>444.33333333333337</ele><time>2026-04-16T13:45:08.754Z</time></trkpt><trkpt lat="40.5559017" lon="8.7548483"><ele>444.0</ele><time>2026-04-16T13:45:09.755Z</time></trkpt><trkpt lat="40.5557533" lon="8.75487"><ele>444.0</ele><time>2026-04-16T13:45:10.754Z</time></trkpt><trkpt lat="40.5556017" lon="8.7549217"><ele>444.0</ele><time>2026-04-16T13:45:11.755Z</time></trkpt><trkpt lat="40.55545" lon="8.7549933"><ele>444.0</ele><time>2026-04-16T13:45:12.755Z</time></trkpt><trkpt lat="40.55531" lon="8.755075"><ele>443.6</ele><time>2026-04-16T13:45:13.754Z</time></trkpt><trkpt lat="40.5552" lon="8.755135"><ele>443.2</ele><time>2026-04-16T13:45:14.754Z</time></trkpt><trkpt lat="40.5551083" lon="8.7551833"><ele>442.80000000000007</ele><time>2026-04-16T13:45:15.754Z</time></trkpt><trkpt lat="40.5550217" lon="8.75524"><ele>442.40000000000003</ele><time>2026-04-16T13:45:17.755Z</time></trkpt><trkpt lat="40.5550433" lon="8.7553467"><ele>442.0</ele><time>2026-04-16T13:45:19.754Z</time></trkpt><trkpt lat="40.5550717" lon="8.7554283"><ele>442.0</ele><time>2026-04-16T13:45:20.755Z</time></trkpt><trkpt lat="40.555115" lon="8.755535"><ele>442.00000000000006</ele><time>2026-04-16T13:45:21.755Z</time></trkpt><trkpt lat="40.5551667" lon="8.75566"><ele>442.00000000000006</ele><time>2026-04-16T13:45:22.755Z</time></trkpt><trkpt lat="40.5552233" lon="8.7557883"><ele>442.0</ele><time>2026-04-16T13:45:23.754Z</time></trkpt><trkpt lat="40.5552817" lon="8.7559067"><ele>442.0</ele><time>2026-04-16T13:45:24.755Z</time></trkpt><trkpt lat="40.5553583" lon="8.7560333"><ele>441.5</ele><time>2026-04-16T13:45:25.755Z</time></trkpt><trkpt lat="40.5554433" lon="8.7561567"><ele>441.0</ele><time>2026-04-16T13:45:26.754Z</time></trkpt><trkpt lat="40.5555417" lon="8.7562917"><ele>440.5</ele><time>2026-04-16T13:45:27.754Z</time></trkpt><trkpt lat="40.555645" lon="8.7564233"><ele>440.0</ele><time>2026-04-16T13:45:28.754Z</time></trkpt><trkpt lat="40.5557483" lon="8.7565617"><ele>440.0</ele><time>2026-04-16T13:45:29.755Z</time></trkpt><trkpt lat="40.5558433" lon="8.7566917"><ele>440.0</ele><time>2026-04-16T13:45:30.754Z</time></trkpt><trkpt lat="40.55592" lon="8.7568"><ele>440.0</ele><time>2026-04-16T13:45:31.755Z</time></trkpt><trkpt lat="40.555985" lon="8.756875"><ele>440.0</ele><time>2026-04-16T13:45:32.754Z</time></trkpt><trkpt lat="40.5560567" lon="8.75691"><ele>440.0</ele><time>2026-04-16T13:45:33.755Z</time></trkpt><trkpt lat="40.5561383" lon="8.7569117"><ele>441.49999999999994</ele><time>2026-04-16T13:45:34.755Z</time></trkpt><trkpt lat="40.5562167" lon="8.7569117"><ele>443.0</ele><time>2026-04-16T13:45:35.754Z</time></trkpt><trkpt lat="40.5562817" lon="8.7569217"><ele>444.5</ele><time>2026-04-16T13:45:36.754Z</time></trkpt><trkpt lat="40.55633" lon="8.7570617"><ele>446.0</ele><time>2026-04-16T13:45:38.754Z</time></trkpt><trkpt lat="40.55634" lon="8.75716"><ele>447.49999999999994</ele><time>2026-04-16T13:45:39.753Z</time></trkpt><trkpt lat="40.55633" lon="8.7572517"><ele>449.0</ele><time>2026-04-16T13:45:40.754Z</time></trkpt><trkpt lat="40.5563017" lon="8.7573333"><ele>449.0</ele><time>2026-04-16T13:45:41.753Z</time></trkpt><trkpt lat="40.5562483" lon="8.7574117"><ele>449.0</ele><time>2026-04-16T13:45:42.754Z</time></trkpt><trkpt lat="40.55618" lon="8.7574967"><ele>449.0</ele><time>2026-04-16T13:45:43.753Z</time></trkpt><trkpt lat="40.5561167" lon="8.75759"><ele>449.0</ele><time>2026-04-16T13:45:44.753Z</time></trkpt><trkpt lat="40.5560617" lon="8.7577033"><ele>449.0</ele><time>2026-04-16T13:45:45.753Z</time></trkpt><trkpt lat="40.55601" lon="8.7578233"><ele>449.6</ele><time>2026-04-16T13:45:46.753Z</time></trkpt><trkpt lat="40.5559733" lon="8.7579417"><ele>450.2</ele><time>2026-04-16T13:45:47.753Z</time></trkpt><trkpt lat="40.5559617" lon="8.7580633"><ele>450.80000000000007</ele><time>2026-04-16T13:45:48.753Z</time></trkpt><trkpt lat="40.5559567" lon="8.7581767"><ele>451.40000000000003</ele><time>2026-04-16T13:45:49.754Z</time></trkpt><trkpt lat="40.55594" lon="8.7582933"><ele>452.0</ele><time>2026-04-16T13:45:50.754Z</time></trkpt><trkpt lat="40.555915" lon="8.75841"><ele>453.0</ele><time>2026-04-16T13:45:51.754Z</time></trkpt><trkpt lat="40.5558717" lon="8.7585367"><ele>454.00000000000006</ele><time>2026-04-16T13:45:52.753Z</time></trkpt><trkpt lat="40.555825" lon="8.75867"><ele>455.00000000000006</ele><time>2026-04-16T13:45:53.754Z</time></trkpt><trkpt lat="40.55578" lon="8.7587867"><ele>456.0</ele><time>2026-04-16T13:45:54.753Z</time></trkpt><trkpt lat="40.5557333" lon="8.7588933"><ele>457.0</ele><time>2026-04-16T13:45:55.754Z</time></trkpt><trkpt lat="40.5556833" lon="8.7589967"><ele>457.00000000000006</ele><time>2026-04-16T13:45:56.754Z</time></trkpt><trkpt lat="40.5556233" lon="8.7591017"><ele>457.0</ele><time>2026-04-16T13:45:57.754Z</time></trkpt><trkpt lat="40.5555567" lon="8.7591933"><ele>457.0</ele><time>2026-04-16T13:45:58.753Z</time></trkpt><trkpt lat="40.5554933" lon="8.75928"><ele>457.0</ele><time>2026-04-16T13:45:59.754Z</time></trkpt><trkpt lat="40.5554333" lon="8.7593467"><ele>457.00000000000006</ele><time>2026-04-16T13:46:00.754Z</time></trkpt><trkpt lat="40.5553833" lon="8.7594083"><ele>457.0</ele><time>2026-04-16T13:46:01.754Z</time></trkpt><trkpt lat="40.5553083" lon="8.75949"><ele>455.0</ele><time>2026-04-16T13:46:03.754Z</time></trkpt><trkpt lat="40.5552617" lon="8.7596067"><ele>453.00000000000006</ele><time>2026-04-16T13:46:05.754Z</time></trkpt><trkpt lat="40.5552483" lon="8.7597767"><ele>451.00000000000006</ele><time>2026-04-16T13:46:07.753Z</time></trkpt><trkpt lat="40.555245" lon="8.759895"><ele>449.0</ele><time>2026-04-16T13:46:08.754Z</time></trkpt><trkpt lat="40.5552783" lon="8.76004"><ele>447.0</ele><time>2026-04-16T13:46:09.754Z</time></trkpt><trkpt lat="40.5553067" lon="8.7601733"><ele>447.25</ele><time>2026-04-16T13:46:10.754Z</time></trkpt><trkpt lat="40.5553517" lon="8.7603083"><ele>447.5</ele><time>2026-04-16T13:46:11.753Z</time></trkpt><trkpt lat="40.5554117" lon="8.76043"><ele>447.75</ele><time>2026-04-16T13:46:12.754Z</time></trkpt><trkpt lat="40.5554817" lon="8.76055"><ele>448.0</ele><time>2026-04-16T13:46:13.754Z</time></trkpt><trkpt lat="40.5555617" lon="8.76066"><ele>448.00000000000006</ele><time>2026-04-16T13:46:14.753Z</time></trkpt><trkpt lat="40.5556283" lon="8.7607617"><ele>448.0</ele><time>2026-04-16T13:46:15.754Z</time></trkpt><trkpt lat="40.5556833" lon="8.7608417"><ele>448.0</ele><time>2026-04-16T13:46:16.754Z</time></trkpt><trkpt lat="40.5557317" lon="8.7609067"><ele>448.0</ele><time>2026-04-16T13:46:17.753Z</time></trkpt><trkpt lat="40.5557783" lon="8.7609717"><ele>448.00000000000006</ele><time>2026-04-16T13:46:18.754Z</time></trkpt><trkpt lat="40.5558317" lon="8.7610383"><ele>448.0</ele><time>2026-04-16T13:46:19.754Z</time></trkpt><trkpt lat="40.5558867" lon="8.7611133"><ele>448.33333333333337</ele><time>2026-04-16T13:46:20.754Z</time></trkpt><trkpt lat="40.5559533" lon="8.761185"><ele>448.6666666666667</ele><time>2026-04-16T13:46:21.753Z</time></trkpt><trkpt lat="40.55602" lon="8.7612517"><ele>449.0</ele><time>2026-04-16T13:46:22.754Z</time></trkpt><trkpt lat="40.5560767" lon="8.7613283"><ele>449.33333333333337</ele><time>2026-04-16T13:46:23.754Z</time></trkpt><trkpt lat="40.55614" lon="8.76141"><ele>449.6666666666667</ele><time>2026-04-16T13:46:24.754Z</time></trkpt><trkpt lat="40.5562" lon="8.76149"><ele>450.0</ele><time>2026-04-16T13:46:25.754Z</time></trkpt><trkpt lat="40.5562533" lon="8.7615733"><ele>450.0</ele><time>2026-04-16T13:46:26.754Z</time></trkpt><trkpt lat="40.556295" lon="8.7616533"><ele>450.0</ele><time>2026-04-16T13:46:27.754Z</time></trkpt><trkpt lat="40.5563267" lon="8.761725"><ele>450.0</ele><time>2026-04-16T13:46:28.754Z</time></trkpt><trkpt lat="40.556315" lon="8.7618517"><ele>450.0</ele><time>2026-04-16T13:46:30.753Z</time></trkpt><trkpt lat="40.5562483" lon="8.7620117"><ele>450.0</ele><time>2026-04-16T13:46:32.754Z</time></trkpt><trkpt lat="40.5561983" lon="8.7621217"><ele>449.1666666666667</ele><time>2026-04-16T13:46:33.754Z</time></trkpt><trkpt lat="40.556155" lon="8.76223"><ele>448.33333333333337</ele><time>2026-04-16T13:46:34.753Z</time></trkpt><trkpt lat="40.5561083" lon="8.76232"><ele>447.5</ele><time>2026-04-16T13:46:35.753Z</time></trkpt><trkpt lat="40.5560567" lon="8.7624"><ele>446.6666666666667</ele><time>2026-04-16T13:46:36.754Z</time></trkpt><trkpt lat="40.5559817" lon="8.76248"><ele>445.83333333333337</ele><time>2026-04-16T13:46:37.754Z</time></trkpt><trkpt lat="40.5559183" lon="8.7625617"><ele>445.0</ele><time>2026-04-16T13:46:38.753Z</time></trkpt><trkpt lat="40.5558617" lon="8.7626167"><ele>445.0</ele><time>2026-04-16T13:46:39.753Z</time></trkpt><trkpt lat="40.5557617" lon="8.7626583"><ele>445.0</ele><time>2026-04-16T13:46:41.754Z</time></trkpt><trkpt lat="40.5556617" lon="8.7626"><ele>445.0</ele><time>2026-04-16T13:46:43.753Z</time></trkpt><trkpt lat="40.5555833" lon="8.7625617"><ele>445.0</ele><time>2026-04-16T13:46:44.753Z</time></trkpt><trkpt lat="40.5554733" lon="8.7625283"><ele>445.0</ele><time>2026-04-16T13:46:45.754Z</time></trkpt><trkpt lat="40.5553733" lon="8.7624917"><ele>444.4</ele><time>2026-04-16T13:46:46.753Z</time></trkpt><trkpt lat="40.5552883" lon="8.76247"><ele>443.8</ele><time>2026-04-16T13:46:47.753Z</time></trkpt><trkpt lat="40.5551933" lon="8.7624633"><ele>443.20000000000005</ele><time>2026-04-16T13:46:48.753Z</time></trkpt><trkpt lat="40.5551033" lon="8.7624667"><ele>442.6</ele><time>2026-04-16T13:46:49.754Z</time></trkpt><trkpt lat="40.5549983" lon="8.7624717"><ele>442.0</ele><time>2026-04-16T13:46:50.754Z</time></trkpt><trkpt lat="40.5548817" lon="8.7624783"><ele>442.0</ele><time>2026-04-16T13:46:51.754Z</time></trkpt><trkpt lat="40.554775" lon="8.7624983"><ele>442.00000000000006</ele><time>2026-04-16T13:46:52.753Z</time></trkpt><trkpt lat="40.5546883" lon="8.7625183"><ele>442.00000000000006</ele><time>2026-04-16T13:46:53.753Z</time></trkpt><trkpt lat="40.5546117" lon="8.7625367"><ele>442.0</ele><time>2026-04-16T13:46:54.753Z</time></trkpt><trkpt lat="40.5545483" lon="8.7625483"><ele>442.0</ele><time>2026-04-16T13:46:55.754Z</time></trkpt><trkpt lat="40.55444" lon="8.7625067"><ele>441.33333333333337</ele><time>2026-04-16T13:46:57.754Z</time></trkpt><trkpt lat="40.5543783" lon="8.7624883"><ele>440.6666666666667</ele><time>2026-04-16T13:46:58.753Z</time></trkpt><trkpt lat="40.5543033" lon="8.7624867"><ele>440.0</ele><time>2026-04-16T13:46:59.753Z</time></trkpt><trkpt lat="40.55422" lon="8.76249"><ele>439.33333333333337</ele><time>2026-04-16T13:47:00.753Z</time></trkpt><trkpt lat="40.5541383" lon="8.762505"><ele>438.6666666666667</ele><time>2026-04-16T13:47:01.753Z</time></trkpt><trkpt lat="40.5540617" lon="8.7625383"><ele>438.0</ele><time>2026-04-16T13:47:02.753Z</time></trkpt><trkpt lat="40.5539817" lon="8.7625917"><ele>438.0</ele><time>2026-04-16T13:47:03.754Z</time></trkpt><trkpt lat="40.5539083" lon="8.7626717"><ele>437.99999999999994</ele><time>2026-04-16T13:47:04.753Z</time></trkpt><trkpt lat="40.5538333" lon="8.762755"><ele>437.99999999999994</ele><time>2026-04-16T13:47:05.754Z</time></trkpt><trkpt lat="40.5537767" lon="8.7628267"><ele>438.0</ele><time>2026-04-16T13:47:06.754Z</time></trkpt><trkpt lat="40.5536783" lon="8.7628933"><ele>438.0</ele><time>2026-04-16T13:47:08.754Z</time></trkpt><trkpt lat="40.5535533" lon="8.7628933"><ele>437.0</ele><time>2026-04-16T13:47:10.754Z</time></trkpt><trkpt lat="40.55347" lon="8.762865"><ele>436.0</ele><time>2026-04-16T13:47:11.754Z</time></trkpt><trkpt lat="40.55338" lon="8.76283"><ele>435.0</ele><time>2026-04-16T13:47:12.753Z</time></trkpt><trkpt lat="40.5532967" lon="8.7628017"><ele>434.0</ele><time>2026-04-16T13:47:13.754Z</time></trkpt><trkpt lat="40.5532283" lon="8.7627967"><ele>433.0</ele><time>2026-04-16T13:47:14.754Z</time></trkpt><trkpt lat="40.5531333" lon="8.7628633"><ele>432.0</ele><time>2026-04-16T13:47:16.753Z</time></trkpt><trkpt lat="40.5531333" lon="8.7629567"><ele>432.0</ele><time>2026-04-16T13:47:17.754Z</time></trkpt><trkpt lat="40.5531367" lon="8.7630667"><ele>432.0</ele><time>2026-04-16T13:47:18.754Z</time></trkpt><trkpt lat="40.553145" lon="8.7631767"><ele>432.0</ele><time>2026-04-16T13:47:19.753Z</time></trkpt><trkpt lat="40.5531233" lon="8.7633117"><ele>432.0</ele><time>2026-04-16T13:47:21.754Z</time></trkpt><trkpt lat="40.5530333" lon="8.7633367"><ele>432.0</ele><time>2026-04-16T13:47:23.753Z</time></trkpt><trkpt lat="40.5529683" lon="8.76331"><ele>432.0</ele><time>2026-04-16T13:47:24.754Z</time></trkpt><trkpt lat="40.5528983" lon="8.7632767"><ele>432.0</ele><time>2026-04-16T13:47:25.754Z</time></trkpt><trkpt lat="40.5528133" lon="8.7632367"><ele>432.00000000000006</ele><time>2026-04-16T13:47:26.753Z</time></trkpt><trkpt lat="40.55272" lon="8.7632017"><ele>432.00000000000006</ele><time>2026-04-16T13:47:27.754Z</time></trkpt><trkpt lat="40.55262" lon="8.7631583"><ele>432.0</ele><time>2026-04-16T13:47:28.754Z</time></trkpt><trkpt lat="40.552525" lon="8.7631067"><ele>432.0</ele><time>2026-04-16T13:47:29.753Z</time></trkpt><trkpt lat="40.5524517" lon="8.7630467"><ele>432.0</ele><time>2026-04-16T13:47:30.754Z</time></trkpt><trkpt lat="40.552395" lon="8.7629667"><ele>432.0</ele><time>2026-04-16T13:47:31.754Z</time></trkpt><trkpt lat="40.5523483" lon="8.7628867"><ele>432.0</ele><time>2026-04-16T13:47:32.753Z</time></trkpt><trkpt lat="40.5522917" lon="8.76281"><ele>432.0</ele><time>2026-04-16T13:47:33.754Z</time></trkpt><trkpt lat="40.55223" lon="8.7627767"><ele>432.0</ele><time>2026-04-16T13:47:34.754Z</time></trkpt><trkpt lat="40.5521667" lon="8.7627783"><ele>432.0</ele><time>2026-04-16T13:47:35.754Z</time></trkpt><trkpt lat="40.5520617" lon="8.7628383"><ele>432.0</ele><time>2026-04-16T13:47:37.753Z</time></trkpt><trkpt lat="40.55206" lon="8.7629233"><ele>432.0</ele><time>2026-04-16T13:47:42.753Z</time></trkpt><trkpt lat="40.5521367" lon="8.7630567"><ele>432.0</ele><time>2026-04-16T13:47:44.754Z</time></trkpt><trkpt lat="40.5521817" lon="8.76314"><ele>432.0</ele><time>2026-04-16T13:47:45.754Z</time></trkpt><trkpt lat="40.55222" lon="8.7632233"><ele>432.0</ele><time>2026-04-16T13:47:46.753Z</time></trkpt><trkpt lat="40.5522567" lon="8.763315"><ele>432.0</ele><time>2026-04-16T13:47:47.754Z</time></trkpt><trkpt lat="40.5522933" lon="8.7633967"><ele>432.0</ele><time>2026-04-16T13:47:48.754Z</time></trkpt><trkpt lat="40.5523267" lon="8.763535"><ele>432.0</ele><time>2026-04-16T13:47:50.754Z</time></trkpt><trkpt lat="40.5523517" lon="8.763655"><ele>432.0</ele><time>2026-04-16T13:47:52.754Z</time></trkpt><trkpt lat="40.5523567" lon="8.7637467"><ele>432.0</ele><time>2026-04-16T13:47:54.753Z</time></trkpt><trkpt lat="40.5523567" lon="8.7636283"><ele>432.0</ele><time>2026-04-16T13:47:59.753Z</time></trkpt><trkpt lat="40.55234" lon="8.763545"><ele>432.0</ele><time>2026-04-16T13:48:01.754Z</time></trkpt><trkpt lat="40.5523267" lon="8.76344"><ele>432.0</ele><time>2026-04-16T13:48:03.753Z</time></trkpt><trkpt lat="40.552265" lon="8.7632883"><ele>432.00000000000006</ele><time>2026-04-16T13:48:05.753Z</time></trkpt><trkpt lat="40.5522217" lon="8.763205"><ele>432.00000000000006</ele><time>2026-04-16T13:48:06.754Z</time></trkpt><trkpt lat="40.5521733" lon="8.7631183"><ele>432.0</ele><time>2026-04-16T13:48:07.754Z</time></trkpt><trkpt lat="40.5521333" lon="8.763035"><ele>432.0</ele><time>2026-04-16T13:48:08.754Z</time></trkpt><trkpt lat="40.5520617" lon="8.7629233"><ele>432.8333333333333</ele><time>2026-04-16T13:48:10.753Z</time></trkpt><trkpt lat="40.5519933" lon="8.762865"><ele>433.66666666666663</ele><time>2026-04-16T13:48:12.754Z</time></trkpt><trkpt lat="40.5518983" lon="8.7627983"><ele>434.5</ele><time>2026-04-16T13:48:14.754Z</time></trkpt><trkpt lat="40.55184" lon="8.7627517"><ele>435.3333333333333</ele><time>2026-04-16T13:48:15.754Z</time></trkpt><trkpt lat="40.5517733" lon="8.7627083"><ele>436.16666666666663</ele><time>2026-04-16T13:48:16.754Z</time></trkpt><trkpt lat="40.5517" lon="8.7626767"><ele>437.0</ele><time>2026-04-16T13:48:17.753Z</time></trkpt><trkpt lat="40.5516167" lon="8.7626567"><ele>437.40000000000003</ele><time>2026-04-16T13:48:18.753Z</time></trkpt><trkpt lat="40.55153" lon="8.76265"><ele>437.80000000000007</ele><time>2026-04-16T13:48:19.754Z</time></trkpt><trkpt lat="40.5514467" lon="8.762645"><ele>438.2</ele><time>2026-04-16T13:48:20.754Z</time></trkpt><trkpt lat="40.5513667" lon="8.7626483"><ele>438.6</ele><time>2026-04-16T13:48:21.754Z</time></trkpt><trkpt lat="40.5512883" lon="8.7626517"><ele>439.0</ele><time>2026-04-16T13:48:22.754Z</time></trkpt><trkpt lat="40.5511717" lon="8.7627183"><ele>441.00000000000006</ele><time>2026-04-16T13:48:24.753Z</time></trkpt><trkpt lat="40.5511167" lon="8.762775"><ele>443.0</ele><time>2026-04-16T13:48:25.754Z</time></trkpt><trkpt lat="40.5510617" lon="8.7628517"><ele>445.0</ele><time>2026-04-16T13:48:26.754Z</time></trkpt><trkpt lat="40.5510067" lon="8.7629183"><ele>447.0</ele><time>2026-04-16T13:48:27.754Z</time></trkpt><trkpt lat="40.5509417" lon="8.7629883"><ele>449.00000000000006</ele><time>2026-04-16T13:48:28.753Z</time></trkpt><trkpt lat="40.550875" lon="8.76305"><ele>451.0</ele><time>2026-04-16T13:48:29.754Z</time></trkpt><trkpt lat="40.550805" lon="8.7631067"><ele>451.00000000000006</ele><time>2026-04-16T13:48:30.752Z</time></trkpt><trkpt lat="40.5507333" lon="8.7631567"><ele>451.0</ele><time>2026-04-16T13:48:31.752Z</time></trkpt><trkpt lat="40.5506617" lon="8.763205"><ele>451.0</ele><time>2026-04-16T13:48:32.753Z</time></trkpt><trkpt lat="40.5505883" lon="8.7632433"><ele>451.0</ele><time>2026-04-16T13:48:33.752Z</time></trkpt><trkpt lat="40.5505133" lon="8.76327"><ele>451.00000000000006</ele><time>2026-04-16T13:48:34.753Z</time></trkpt><trkpt lat="40.5504317" lon="8.7632317"><ele>451.0</ele><time>2026-04-16T13:48:36.752Z</time></trkpt><trkpt lat="40.5503783" lon="8.7630983"><ele>452.6666666666667</ele><time>2026-04-16T13:48:38.753Z</time></trkpt><trkpt lat="40.5503517" lon="8.7630117"><ele>454.33333333333337</ele><time>2026-04-16T13:48:39.752Z</time></trkpt><trkpt lat="40.55033" lon="8.7629133"><ele>456.0</ele><time>2026-04-16T13:48:40.753Z</time></trkpt><trkpt lat="40.5503133" lon="8.7627967"><ele>457.66666666666663</ele><time>2026-04-16T13:48:41.753Z</time></trkpt><trkpt lat="40.5502917" lon="8.76268"><ele>459.3333333333333</ele><time>2026-04-16T13:48:42.753Z</time></trkpt><trkpt lat="40.5502517" lon="8.762575"><ele>461.0</ele><time>2026-04-16T13:48:43.752Z</time></trkpt><trkpt lat="40.5502017" lon="8.7625017"><ele>462.16666666666663</ele><time>2026-04-16T13:48:44.753Z</time></trkpt><trkpt lat="40.5501433" lon="8.76244"><ele>463.3333333333333</ele><time>2026-04-16T13:48:45.753Z</time></trkpt><trkpt lat="40.5500883" lon="8.762375"><ele>464.5</ele><time>2026-04-16T13:48:46.752Z</time></trkpt><trkpt lat="40.5500367" lon="8.7623183"><ele>465.66666666666663</ele><time>2026-04-16T13:48:47.753Z</time></trkpt><trkpt lat="40.5499433" lon="8.7622817"><ele>466.8333333333333</ele><time>2026-04-16T13:48:49.752Z</time></trkpt><trkpt lat="40.5498783" lon="8.7623067"><ele>468.0</ele><time>2026-04-16T13:48:50.752Z</time></trkpt><trkpt lat="40.549805" lon="8.762315"><ele>468.0</ele><time>2026-04-16T13:48:51.753Z</time></trkpt><trkpt lat="40.5497167" lon="8.7623117"><ele>467.99999999999994</ele><time>2026-04-16T13:48:52.753Z</time></trkpt><trkpt lat="40.5496217" lon="8.762315"><ele>467.99999999999994</ele><time>2026-04-16T13:48:53.753Z</time></trkpt><trkpt lat="40.5495233" lon="8.76232"><ele>468.0</ele><time>2026-04-16T13:48:54.753Z</time></trkpt><trkpt lat="40.5494217" lon="8.7623233"><ele>468.0</ele><time>2026-04-16T13:48:55.753Z</time></trkpt><trkpt lat="40.54931" lon="8.762325"><ele>469.4</ele><time>2026-04-16T13:48:56.753Z</time></trkpt><trkpt lat="40.5492" lon="8.7623367"><ele>470.79999999999995</ele><time>2026-04-16T13:48:57.752Z</time></trkpt><trkpt lat="40.54909" lon="8.762345"><ele>472.2</ele><time>2026-04-16T13:48:58.752Z</time></trkpt><trkpt lat="40.54898" lon="8.7623633"><ele>473.6</ele><time>2026-04-16T13:48:59.752Z</time></trkpt><trkpt lat="40.54889" lon="8.7623783"><ele>475.0</ele><time>2026-04-16T13:49:00.753Z</time></trkpt><trkpt lat="40.5488" lon="8.76239"><ele>475.33333333333337</ele><time>2026-04-16T13:49:01.753Z</time></trkpt><trkpt lat="40.5486967" lon="8.762395"><ele>475.6666666666667</ele><time>2026-04-16T13:49:02.753Z</time></trkpt><trkpt lat="40.5486033" lon="8.7623767"><ele>476.0</ele><time>2026-04-16T13:49:03.753Z</time></trkpt><trkpt lat="40.5485233" lon="8.7623517"><ele>476.33333333333337</ele><time>2026-04-16T13:49:04.752Z</time></trkpt><trkpt lat="40.5484583" lon="8.7623183"><ele>476.6666666666667</ele><time>2026-04-16T13:49:05.752Z</time></trkpt><trkpt lat="40.5484" lon="8.7622783"><ele>477.0</ele><time>2026-04-16T13:49:06.753Z</time></trkpt><trkpt lat="40.548345" lon="8.7622267"><ele>477.0</ele><time>2026-04-16T13:49:07.753Z</time></trkpt><trkpt lat="40.5482917" lon="8.762155"><ele>477.0</ele><time>2026-04-16T13:49:08.753Z</time></trkpt><trkpt lat="40.54825" lon="8.7620867"><ele>477.0</ele><time>2026-04-16T13:49:09.752Z</time></trkpt><trkpt lat="40.5482017" lon="8.7620017"><ele>477.0</ele><time>2026-04-16T13:49:10.753Z</time></trkpt><trkpt lat="40.5481633" lon="8.7619167"><ele>477.0</ele><time>2026-04-16T13:49:11.753Z</time></trkpt><trkpt lat="40.5481117" lon="8.761825"><ele>477.0</ele><time>2026-04-16T13:49:12.752Z</time></trkpt><trkpt lat="40.5480567" lon="8.7617283"><ele>477.20000000000005</ele><time>2026-04-16T13:49:13.752Z</time></trkpt><trkpt lat="40.548005" lon="8.76162"><ele>477.40000000000003</ele><time>2026-04-16T13:49:14.753Z</time></trkpt><trkpt lat="40.5479533" lon="8.7615083"><ele>477.59999999999997</ele><time>2026-04-16T13:49:15.753Z</time></trkpt><trkpt lat="40.5479017" lon="8.7613967"><ele>477.79999999999995</ele><time>2026-04-16T13:49:16.753Z</time></trkpt><trkpt lat="40.5478517" lon="8.7613"><ele>478.0</ele><time>2026-04-16T13:49:17.753Z</time></trkpt><trkpt lat="40.5477833" lon="8.7612133"><ele>478.0</ele><time>2026-04-16T13:49:18.753Z</time></trkpt><trkpt lat="40.547705" lon="8.76112"><ele>477.99999999999994</ele><time>2026-04-16T13:49:19.753Z</time></trkpt><trkpt lat="40.5476133" lon="8.7610383"><ele>477.99999999999994</ele><time>2026-04-16T13:49:20.753Z</time></trkpt><trkpt lat="40.5475233" lon="8.76096"><ele>478.0</ele><time>2026-04-16T13:49:21.752Z</time></trkpt><trkpt lat="40.5474217" lon="8.7608733"><ele>478.0</ele><time>2026-04-16T13:49:22.753Z</time></trkpt><trkpt lat="40.5473133" lon="8.7607817"><ele>478.75</ele><time>2026-04-16T13:49:23.753Z</time></trkpt><trkpt lat="40.547215" lon="8.7606833"><ele>479.5</ele><time>2026-04-16T13:49:24.752Z</time></trkpt><trkpt lat="40.5471233" lon="8.7605883"><ele>480.25</ele><time>2026-04-16T13:49:25.752Z</time></trkpt><trkpt lat="40.5470267" lon="8.7605033"><ele>481.0</ele><time>2026-04-16T13:49:26.753Z</time></trkpt><trkpt lat="40.5469333" lon="8.7604083"><ele>481.20000000000005</ele><time>2026-04-16T13:49:27.752Z</time></trkpt><trkpt lat="40.5468467" lon="8.760325"><ele>481.40000000000003</ele><time>2026-04-16T13:49:28.753Z</time></trkpt><trkpt lat="40.5467633" lon="8.760215"><ele>481.6</ele><time>2026-04-16T13:49:29.753Z</time></trkpt><trkpt lat="40.5467017" lon="8.7600933"><ele>481.8</ele><time>2026-04-16T13:49:30.752Z</time></trkpt><trkpt lat="40.54666" lon="8.7599767"><ele>482.0</ele><time>2026-04-16T13:49:31.753Z</time></trkpt><trkpt lat="40.5466083" lon="8.75989"><ele>481.99999999999994</ele><time>2026-04-16T13:49:32.753Z</time></trkpt><trkpt lat="40.5465517" lon="8.75984"><ele>482.0</ele><time>2026-04-16T13:49:33.753Z</time></trkpt><trkpt lat="40.5464783" lon="8.7598183"><ele>482.0</ele><time>2026-04-16T13:49:34.753Z</time></trkpt><trkpt lat="40.5463867" lon="8.7598033"><ele>482.0</ele><time>2026-04-16T13:49:35.752Z</time></trkpt><trkpt lat="40.5462867" lon="8.7597717"><ele>481.99999999999994</ele><time>2026-04-16T13:49:36.753Z</time></trkpt><trkpt lat="40.5461833" lon="8.759735"><ele>482.0</ele><time>2026-04-16T13:49:37.753Z</time></trkpt><trkpt lat="40.5460817" lon="8.7596917"><ele>481.5</ele><time>2026-04-16T13:49:38.753Z</time></trkpt><trkpt lat="40.5459733" lon="8.759655"><ele>481.0</ele><time>2026-04-16T13:49:39.753Z</time></trkpt><trkpt lat="40.545855" lon="8.759605"><ele>480.5</ele><time>2026-04-16T13:49:40.753Z</time></trkpt><trkpt lat="40.5457383" lon="8.759555"><ele>480.0</ele><time>2026-04-16T13:49:41.752Z</time></trkpt><trkpt lat="40.545625" lon="8.7595017"><ele>480.0</ele><time>2026-04-16T13:49:42.753Z</time></trkpt><trkpt lat="40.5455217" lon="8.7594783"><ele>480.0</ele><time>2026-04-16T13:49:43.752Z</time></trkpt><trkpt lat="40.5454117" lon="8.7594867"><ele>480.0</ele><time>2026-04-16T13:49:44.753Z</time></trkpt><trkpt lat="40.5453017" lon="8.75953"><ele>480.0</ele><time>2026-04-16T13:49:45.752Z</time></trkpt><trkpt lat="40.545195" lon="8.75959"><ele>480.0</ele><time>2026-04-16T13:49:46.752Z</time></trkpt><trkpt lat="40.5450833" lon="8.7596533"><ele>481.0</ele><time>2026-04-16T13:49:47.753Z</time></trkpt><trkpt lat="40.544975" lon="8.7597167"><ele>482.0</ele><time>2026-04-16T13:49:48.752Z</time></trkpt><trkpt lat="40.5448567" lon="8.7597767"><ele>483.0</ele><time>2026-04-16T13:49:49.753Z</time></trkpt><trkpt lat="40.54474" lon="8.7598283"><ele>484.0</ele><time>2026-04-16T13:49:50.752Z</time></trkpt><trkpt lat="40.5446217" lon="8.75988"><ele>485.0</ele><time>2026-04-16T13:49:51.753Z</time></trkpt><trkpt lat="40.544495" lon="8.7599367"><ele>486.0</ele><time>2026-04-16T13:49:52.753Z</time></trkpt><trkpt lat="40.5443683" lon="8.759985"><ele>487.0</ele><time>2026-04-16T13:49:53.752Z</time></trkpt><trkpt lat="40.5442383" lon="8.7600267"><ele>488.0</ele><time>2026-04-16T13:49:54.753Z</time></trkpt><trkpt lat="40.54411" lon="8.760075"><ele>488.0</ele><time>2026-04-16T13:49:55.752Z</time></trkpt><trkpt lat="40.5439817" lon="8.7601517"><ele>488.0</ele><time>2026-04-16T13:49:56.752Z</time></trkpt><trkpt lat="40.5438567" lon="8.76024"><ele>488.0</ele><time>2026-04-16T13:49:57.753Z</time></trkpt><trkpt lat="40.5437333" lon="8.76034"><ele>488.0</ele><time>2026-04-16T13:49:58.752Z</time></trkpt><trkpt lat="40.5436083" lon="8.7604367"><ele>486.59999999999997</ele><time>2026-04-16T13:49:59.753Z</time></trkpt><trkpt lat="40.5434867" lon="8.7605217"><ele>485.19999999999993</ele><time>2026-04-16T13:50:00.753Z</time></trkpt><trkpt lat="40.5433817" lon="8.760605"><ele>483.8</ele><time>2026-04-16T13:50:01.753Z</time></trkpt><trkpt lat="40.5433117" lon="8.7606733"><ele>482.4</ele><time>2026-04-16T13:50:02.753Z</time></trkpt><trkpt lat="40.54327" lon="8.76075"><ele>481.0</ele><time>2026-04-16T13:50:03.752Z</time></trkpt><trkpt lat="40.5432383" lon="8.7608383"><ele>480.99999999999994</ele><time>2026-04-16T13:50:04.752Z</time></trkpt><trkpt lat="40.5432167" lon="8.76092"><ele>481.0</ele><time>2026-04-16T13:50:05.753Z</time></trkpt><trkpt lat="40.543185" lon="8.7610117"><ele>480.99999999999994</ele><time>2026-04-16T13:50:06.752Z</time></trkpt><trkpt lat="40.5431517" lon="8.7611017"><ele>480.99999999999994</ele><time>2026-04-16T13:50:07.753Z</time></trkpt><trkpt lat="40.543115" lon="8.7611867"><ele>481.0</ele><time>2026-04-16T13:50:08.752Z</time></trkpt><trkpt lat="40.5430933" lon="8.761265"><ele>480.99999999999994</ele><time>2026-04-16T13:50:09.753Z</time></trkpt><trkpt lat="40.5430633" lon="8.7613667"><ele>480.99999999999994</ele><time>2026-04-16T13:50:11.752Z</time></trkpt><trkpt lat="40.5430733" lon="8.7614933"><ele>477.6</ele><time>2026-04-16T13:50:14.753Z</time></trkpt><trkpt lat="40.5430283" lon="8.76157"><ele>474.20000000000005</ele><time>2026-04-16T13:50:17.753Z</time></trkpt><trkpt lat="40.542965" lon="8.7616433"><ele>470.79999999999995</ele><time>2026-04-16T13:50:19.752Z</time></trkpt><trkpt lat="40.5428967" lon="8.761695"><ele>467.4</ele><time>2026-04-16T13:50:21.753Z</time></trkpt><trkpt lat="40.5428083" lon="8.7617467"><ele>464.0</ele><time>2026-04-16T13:50:23.752Z</time></trkpt><trkpt lat="40.5427033" lon="8.7618167"><ele>464.0</ele><time>2026-04-16T13:50:25.753Z</time></trkpt><trkpt lat="40.5426417" lon="8.761845"><ele>464.0</ele><time>2026-04-16T13:50:26.753Z</time></trkpt><trkpt lat="40.54253" lon="8.7618783"><ele>464.0</ele><time>2026-04-16T13:50:28.753Z</time></trkpt><trkpt lat="40.5424133" lon="8.761885"><ele>464.0</ele><time>2026-04-16T13:50:30.753Z</time></trkpt><trkpt lat="40.5423083" lon="8.7619167"><ele>464.0</ele><time>2026-04-16T13:50:32.753Z</time></trkpt><trkpt lat="40.542245" lon="8.7619467"><ele>461.5714285714286</ele><time>2026-04-16T13:50:34.753Z</time></trkpt><trkpt lat="40.542205" lon="8.76203"><ele>459.14285714285717</ele><time>2026-04-16T13:50:37.753Z</time></trkpt><trkpt lat="40.5421983" lon="8.762135"><ele>456.7142857142857</ele><time>2026-04-16T13:50:46.753Z</time></trkpt><trkpt lat="40.5422017" lon="8.7622317"><ele>454.28571428571433</ele><time>2026-04-16T13:50:50.753Z</time></trkpt><trkpt lat="40.5421583" lon="8.7623017"><ele>451.8571428571429</ele><time>2026-04-16T13:50:53.753Z</time></trkpt><trkpt lat="40.5421217" lon="8.7623767"><ele>449.4285714285714</ele><time>2026-04-16T13:50:55.752Z</time></trkpt><trkpt lat="40.5420817" lon="8.7624567"><ele>447.0</ele><time>2026-04-16T13:50:57.752Z</time></trkpt><trkpt lat="40.5420383" lon="8.7625233"><ele>447.0</ele><time>2026-04-16T13:50:59.753Z</time></trkpt><trkpt lat="40.5419533" lon="8.7626233"><ele>447.00000000000006</ele><time>2026-04-16T13:51:01.752Z</time></trkpt><trkpt lat="40.5418817" lon="8.7627233"><ele>447.00000000000006</ele><time>2026-04-16T13:51:03.753Z</time></trkpt><trkpt lat="40.5417733" lon="8.7627883"><ele>447.0</ele><time>2026-04-16T13:51:05.752Z</time></trkpt><trkpt lat="40.5417067" lon="8.7628"><ele>447.0</ele><time>2026-04-16T13:51:06.753Z</time></trkpt><trkpt lat="40.54164" lon="8.762805"><ele>443.3333333333333</ele><time>2026-04-16T13:51:07.753Z</time></trkpt><trkpt lat="40.541575" lon="8.7627917"><ele>439.66666666666663</ele><time>2026-04-16T13:51:08.753Z</time></trkpt><trkpt lat="40.5415117" lon="8.7627817"><ele>436.0</ele><time>2026-04-16T13:51:09.752Z</time></trkpt><trkpt lat="40.5414167" lon="8.76278"><ele>432.3333333333333</ele><time>2026-04-16T13:51:11.753Z</time></trkpt><trkpt lat="40.5413283" lon="8.7627783"><ele>428.66666666666663</ele><time>2026-04-16T13:51:13.753Z</time></trkpt><trkpt lat="40.5412533" lon="8.7627467"><ele>425.0</ele><time>2026-04-16T13:51:15.753Z</time></trkpt><trkpt lat="40.541145" lon="8.7627383"><ele>423.8333333333333</ele><time>2026-04-16T13:51:17.752Z</time></trkpt><trkpt lat="40.5410617" lon="8.762765"><ele>422.66666666666663</ele><time>2026-04-16T13:51:18.753Z</time></trkpt><trkpt lat="40.540975" lon="8.7627883"><ele>421.5</ele><time>2026-04-16T13:51:19.752Z</time></trkpt><trkpt lat="40.540895" lon="8.7628"><ele>420.33333333333337</ele><time>2026-04-16T13:51:20.752Z</time></trkpt><trkpt lat="40.54081" lon="8.76281"><ele>419.1666666666667</ele><time>2026-04-16T13:51:21.752Z</time></trkpt><trkpt lat="40.540725" lon="8.7628233"><ele>418.0</ele><time>2026-04-16T13:51:22.753Z</time></trkpt><trkpt lat="40.5406367" lon="8.76284"><ele>418.0</ele><time>2026-04-16T13:51:23.753Z</time></trkpt><trkpt lat="40.5405583" lon="8.76286"><ele>418.0</ele><time>2026-04-16T13:51:24.753Z</time></trkpt><trkpt lat="40.54049" lon="8.7629067"><ele>418.0</ele><time>2026-04-16T13:51:25.753Z</time></trkpt><trkpt lat="40.5404367" lon="8.7629533"><ele>418.0</ele><time>2026-04-16T13:51:26.752Z</time></trkpt><trkpt lat="40.5403817" lon="8.763"><ele>418.0</ele><time>2026-04-16T13:51:27.752Z</time></trkpt><trkpt lat="40.5403233" lon="8.763035"><ele>418.0</ele><time>2026-04-16T13:51:28.752Z</time></trkpt><trkpt lat="40.5402467" lon="8.7630383"><ele>418.0</ele><time>2026-04-16T13:51:29.751Z</time></trkpt><trkpt lat="40.5401567" lon="8.7630333"><ele>415.79999999999995</ele><time>2026-04-16T13:51:30.752Z</time></trkpt><trkpt lat="40.5400567" lon="8.763045"><ele>413.6</ele><time>2026-04-16T13:51:31.752Z</time></trkpt><trkpt lat="40.5399467" lon="8.7630717"><ele>411.4</ele><time>2026-04-16T13:51:32.751Z</time></trkpt><trkpt lat="40.5398383" lon="8.7630783"><ele>409.20000000000005</ele><time>2026-04-16T13:51:33.752Z</time></trkpt><trkpt lat="40.5397233" lon="8.76308"><ele>407.0</ele><time>2026-04-16T13:51:34.751Z</time></trkpt><trkpt lat="40.5395917" lon="8.7630833"><ele>408.25</ele><time>2026-04-16T13:51:35.751Z</time></trkpt><trkpt lat="40.5394633" lon="8.7630783"><ele>409.5</ele><time>2026-04-16T13:51:36.752Z</time></trkpt><trkpt lat="40.539335" lon="8.7630683"><ele>410.75</ele><time>2026-04-16T13:51:37.752Z</time></trkpt><trkpt lat="40.5392233" lon="8.763075"><ele>412.0</ele><time>2026-04-16T13:51:38.752Z</time></trkpt><trkpt lat="40.539125" lon="8.7630867"><ele>412.0</ele><time>2026-04-16T13:51:39.751Z</time></trkpt><trkpt lat="40.5390317" lon="8.76312"><ele>412.0</ele><time>2026-04-16T13:51:40.751Z</time></trkpt><trkpt lat="40.5389433" lon="8.76319"><ele>412.0</ele><time>2026-04-16T13:51:41.751Z</time></trkpt><trkpt lat="40.5388617" lon="8.76329"><ele>412.0</ele><time>2026-04-16T13:51:42.751Z</time></trkpt><trkpt lat="40.53879" lon="8.76339"><ele>412.0</ele><time>2026-04-16T13:51:43.751Z</time></trkpt><trkpt lat="40.53873" lon="8.7634833"><ele>410.0</ele><time>2026-04-16T13:51:44.752Z</time></trkpt><trkpt lat="40.538685" lon="8.763555"><ele>408.0</ele><time>2026-04-16T13:51:45.752Z</time></trkpt><trkpt lat="40.5385783" lon="8.763635"><ele>406.0</ele><time>2026-04-16T13:51:47.752Z</time></trkpt><trkpt lat="40.5385017" lon="8.7636717"><ele>404.0</ele><time>2026-04-16T13:51:48.752Z</time></trkpt><trkpt lat="40.5384" lon="8.7637167"><ele>402.0</ele><time>2026-04-16T13:51:49.752Z</time></trkpt><trkpt lat="40.538305" lon="8.763735"><ele>402.0</ele><time>2026-04-16T13:51:50.751Z</time></trkpt><trkpt lat="40.5382233" lon="8.7637583"><ele>402.0</ele><time>2026-04-16T13:51:51.752Z</time></trkpt><trkpt lat="40.5381633" lon="8.7638033"><ele>402.0</ele><time>2026-04-16T13:51:52.751Z</time></trkpt><trkpt lat="40.5381117" lon="8.7638883"><ele>402.0</ele><time>2026-04-16T13:51:53.752Z</time></trkpt><trkpt lat="40.5380683" lon="8.7640183"><ele>402.0</ele><time>2026-04-16T13:51:54.752Z</time></trkpt><trkpt lat="40.5380183" lon="8.7641683"><ele>402.0</ele><time>2026-04-16T13:51:55.752Z</time></trkpt><trkpt lat="40.5379767" lon="8.7643083"><ele>402.0</ele><time>2026-04-16T13:51:56.752Z</time></trkpt><trkpt lat="40.5379317" lon="8.76444"><ele>402.0</ele><time>2026-04-16T13:51:57.751Z</time></trkpt><trkpt lat="40.5378917" lon="8.7645367"><ele>402.0</ele><time>2026-04-16T13:51:58.751Z</time></trkpt><trkpt lat="40.53783" lon="8.7646217"><ele>402.0</ele><time>2026-04-16T13:52:00.752Z</time></trkpt><trkpt lat="40.5377167" lon="8.7645767"><ele>402.6</ele><time>2026-04-16T13:52:02.752Z</time></trkpt><trkpt lat="40.5376317" lon="8.7645267"><ele>403.20000000000005</ele><time>2026-04-16T13:52:03.752Z</time></trkpt><trkpt lat="40.5375383" lon="8.7644533"><ele>403.8</ele><time>2026-04-16T13:52:04.752Z</time></trkpt><trkpt lat="40.5374417" lon="8.7643867"><ele>404.4</ele><time>2026-04-16T13:52:05.752Z</time></trkpt><trkpt lat="40.5373483" lon="8.7643167"><ele>405.0</ele><time>2026-04-16T13:52:06.751Z</time></trkpt><trkpt lat="40.5372517" lon="8.7642467"><ele>405.0</ele><time>2026-04-16T13:52:07.752Z</time></trkpt><trkpt lat="40.53716" lon="8.7641733"><ele>405.0</ele><time>2026-04-16T13:52:08.751Z</time></trkpt><trkpt lat="40.5370567" lon="8.764095"><ele>405.0</ele><time>2026-04-16T13:52:09.752Z</time></trkpt><trkpt lat="40.5369567" lon="8.7640083"><ele>405.0</ele><time>2026-04-16T13:52:10.752Z</time></trkpt><trkpt lat="40.5368683" lon="8.763895"><ele>402.75</ele><time>2026-04-16T13:52:11.752Z</time></trkpt><trkpt lat="40.536785" lon="8.763785"><ele>400.5</ele><time>2026-04-16T13:52:12.752Z</time></trkpt><trkpt lat="40.5366867" lon="8.76369"><ele>398.25</ele><time>2026-04-16T13:52:13.752Z</time></trkpt><trkpt lat="40.53658" lon="8.763635"><ele>396.0</ele><time>2026-04-16T13:52:14.751Z</time></trkpt><trkpt lat="40.53647" lon="8.7636217"><ele>396.0</ele><time>2026-04-16T13:52:15.752Z</time></trkpt><trkpt lat="40.53636" lon="8.763655"><ele>396.0</ele><time>2026-04-16T13:52:16.752Z</time></trkpt><trkpt lat="40.536265" lon="8.7636883"><ele>396.0</ele><time>2026-04-16T13:52:17.751Z</time></trkpt><trkpt lat="40.53618" lon="8.7637333"><ele>396.0</ele><time>2026-04-16T13:52:18.752Z</time></trkpt><trkpt lat="40.5361033" lon="8.7638017"><ele>396.0</ele><time>2026-04-16T13:52:19.751Z</time></trkpt><trkpt lat="40.5360317" lon="8.7638767"><ele>396.4</ele><time>2026-04-16T13:52:20.752Z</time></trkpt><trkpt lat="40.5359517" lon="8.7639383"><ele>396.8</ele><time>2026-04-16T13:52:21.752Z</time></trkpt><trkpt lat="40.53586" lon="8.7639717"><ele>397.2</ele><time>2026-04-16T13:52:22.751Z</time></trkpt><trkpt lat="40.535755" lon="8.763985"><ele>397.59999999999997</ele><time>2026-04-16T13:52:23.752Z</time></trkpt><trkpt lat="40.5356533" lon="8.7639617"><ele>398.0</ele><time>2026-04-16T13:52:24.752Z</time></trkpt><trkpt lat="40.53555" lon="8.7639267"><ele>398.0</ele><time>2026-04-16T13:52:25.752Z</time></trkpt><trkpt lat="40.5354533" lon="8.7638717"><ele>398.0</ele><time>2026-04-16T13:52:26.752Z</time></trkpt><trkpt lat="40.53536" lon="8.7637967"><ele>398.0</ele><time>2026-04-16T13:52:27.752Z</time></trkpt><trkpt lat="40.53525" lon="8.76373"><ele>398.0</ele><time>2026-04-16T13:52:28.751Z</time></trkpt><trkpt lat="40.5351383" lon="8.7636633"><ele>397.25</ele><time>2026-04-16T13:52:29.751Z</time></trkpt><trkpt lat="40.535035" lon="8.7636067"><ele>396.5</ele><time>2026-04-16T13:52:30.751Z</time></trkpt><trkpt lat="40.5349117" lon="8.763555"><ele>395.75</ele><time>2026-04-16T13:52:31.751Z</time></trkpt><trkpt lat="40.5347767" lon="8.7635183"><ele>395.0</ele><time>2026-04-16T13:52:32.751Z</time></trkpt><trkpt lat="40.534655" lon="8.7634683"><ele>396.75</ele><time>2026-04-16T13:52:33.752Z</time></trkpt><trkpt lat="40.5345283" lon="8.763415"><ele>398.5</ele><time>2026-04-16T13:52:34.752Z</time></trkpt><trkpt lat="40.5343983" lon="8.7633667"><ele>400.25</ele><time>2026-04-16T13:52:35.751Z</time></trkpt><trkpt lat="40.5342967" lon="8.7632883"><ele>402.0</ele><time>2026-04-16T13:52:36.752Z</time></trkpt><trkpt lat="40.5342033" lon="8.7632267"><ele>402.0</ele><time>2026-04-16T13:52:37.751Z</time></trkpt><trkpt lat="40.5341333" lon="8.763185"><ele>402.0</ele><time>2026-04-16T13:52:38.751Z</time></trkpt><trkpt lat="40.5340583" lon="8.76318"><ele>402.0</ele><time>2026-04-16T13:52:40.752Z</time></trkpt><trkpt lat="40.5340683" lon="8.763065"><ele>402.0</ele><time>2026-04-16T13:52:43.752Z</time></trkpt><trkpt lat="40.5340967" lon="8.7629817"><ele>402.0</ele><time>2026-04-16T13:52:44.751Z</time></trkpt><trkpt lat="40.5341283" lon="8.7628883"><ele>402.0</ele><time>2026-04-16T13:52:45.751Z</time></trkpt><trkpt lat="40.5341567" lon="8.7627917"><ele>403.40000000000003</ele><time>2026-04-16T13:52:46.752Z</time></trkpt><trkpt lat="40.5341767" lon="8.76268"><ele>404.8</ele><time>2026-04-16T13:52:47.752Z</time></trkpt><trkpt lat="40.5341917" lon="8.7625583"><ele>406.2</ele><time>2026-04-16T13:52:48.752Z</time></trkpt><trkpt lat="40.534185" lon="8.7624283"><ele>407.6</ele><time>2026-04-16T13:52:49.751Z</time></trkpt><trkpt lat="40.53417" lon="8.762295"><ele>409.0</ele><time>2026-04-16T13:52:50.751Z</time></trkpt><trkpt lat="40.53415" lon="8.7621467"><ele>409.0</ele><time>2026-04-16T13:52:51.752Z</time></trkpt><trkpt lat="40.5341417" lon="8.7619933"><ele>409.0</ele><time>2026-04-16T13:52:52.751Z</time></trkpt><trkpt lat="40.53414" lon="8.7618517"><ele>409.0</ele><time>2026-04-16T13:52:53.751Z</time></trkpt><trkpt lat="40.53414" lon="8.7617117"><ele>409.0</ele><time>2026-04-16T13:52:54.752Z</time></trkpt><trkpt lat="40.5341283" lon="8.761575"><ele>409.0</ele><time>2026-04-16T13:52:55.752Z</time></trkpt><trkpt lat="40.5341117" lon="8.7614433"><ele>409.6</ele><time>2026-04-16T13:52:56.751Z</time></trkpt><trkpt lat="40.5340683" lon="8.7613317"><ele>410.2</ele><time>2026-04-16T13:52:57.751Z</time></trkpt><trkpt lat="40.5339933" lon="8.7612467"><ele>410.8</ele><time>2026-04-16T13:52:58.752Z</time></trkpt><trkpt lat="40.5339083" lon="8.7611667"><ele>411.40000000000003</ele><time>2026-04-16T13:52:59.751Z</time></trkpt><trkpt lat="40.5338283" lon="8.7610883"><ele>412.0</ele><time>2026-04-16T13:53:00.751Z</time></trkpt><trkpt lat="40.5337633" lon="8.761015"><ele>412.6</ele><time>2026-04-16T13:53:01.752Z</time></trkpt><trkpt lat="40.533685" lon="8.7609167"><ele>413.20000000000005</ele><time>2026-04-16T13:53:02.751Z</time></trkpt><trkpt lat="40.5336" lon="8.76083"><ele>413.8</ele><time>2026-04-16T13:53:03.752Z</time></trkpt><trkpt lat="40.5335367" lon="8.760695"><ele>414.4</ele><time>2026-04-16T13:53:04.752Z</time></trkpt><trkpt lat="40.533465" lon="8.76058"><ele>415.0</ele><time>2026-04-16T13:53:05.751Z</time></trkpt><trkpt lat="40.5333883" lon="8.7604633"><ele>415.0</ele><time>2026-04-16T13:53:06.751Z</time></trkpt><trkpt lat="40.5333167" lon="8.7603317"><ele>415.0</ele><time>2026-04-16T13:53:07.751Z</time></trkpt><trkpt lat="40.5332333" lon="8.7602033"><ele>415.0</ele><time>2026-04-16T13:53:08.751Z</time></trkpt><trkpt lat="40.5331433" lon="8.7600867"><ele>415.0</ele><time>2026-04-16T13:53:09.752Z</time></trkpt><trkpt lat="40.533025" lon="8.759995"><ele>415.25</ele><time>2026-04-16T13:53:10.752Z</time></trkpt><trkpt lat="40.5329033" lon="8.7599033"><ele>415.5</ele><time>2026-04-16T13:53:11.752Z</time></trkpt><trkpt lat="40.532785" lon="8.7598033"><ele>415.75</ele><time>2026-04-16T13:53:12.752Z</time></trkpt><trkpt lat="40.5326633" lon="8.7596983"><ele>416.0</ele><time>2026-04-16T13:53:13.752Z</time></trkpt><trkpt lat="40.5325383" lon="8.7595917"><ele>414.5</ele><time>2026-04-16T13:53:14.751Z</time></trkpt><trkpt lat="40.5324117" lon="8.7595067"><ele>413.0</ele><time>2026-04-16T13:53:15.751Z</time></trkpt><trkpt lat="40.53229" lon="8.7594267"><ele>411.5</ele><time>2026-04-16T13:53:16.751Z</time></trkpt><trkpt lat="40.5321767" lon="8.7593433"><ele>410.0</ele><time>2026-04-16T13:53:17.752Z</time></trkpt><trkpt lat="40.5320617" lon="8.7592583"><ele>408.5</ele><time>2026-04-16T13:53:18.751Z</time></trkpt><trkpt lat="40.5319717" lon="8.7591133"><ele>407.0</ele><time>2026-04-16T13:53:19.751Z</time></trkpt><trkpt lat="40.5318633" lon="8.758995"><ele>405.5</ele><time>2026-04-16T13:53:20.752Z</time></trkpt><trkpt lat="40.5317567" lon="8.75888"><ele>404.0</ele><time>2026-04-16T13:53:21.751Z</time></trkpt><trkpt lat="40.5316383" lon="8.75879"><ele>404.0</ele><time>2026-04-16T13:53:22.752Z</time></trkpt><trkpt lat="40.5314983" lon="8.7587233"><ele>404.0</ele><time>2026-04-16T13:53:23.752Z</time></trkpt><trkpt lat="40.5313617" lon="8.7586983"><ele>404.0</ele><time>2026-04-16T13:53:24.752Z</time></trkpt><trkpt lat="40.5312283" lon="8.7586767"><ele>404.0</ele><time>2026-04-16T13:53:25.751Z</time></trkpt><trkpt lat="40.5310883" lon="8.75865"><ele>403.5</ele><time>2026-04-16T13:53:26.751Z</time></trkpt><trkpt lat="40.5309433" lon="8.7586283"><ele>403.0</ele><time>2026-04-16T13:53:27.752Z</time></trkpt><trkpt lat="40.5308067" lon="8.758605"><ele>402.5</ele><time>2026-04-16T13:53:28.752Z</time></trkpt><trkpt lat="40.530695" lon="8.7585817"><ele>402.0</ele><time>2026-04-16T13:53:29.751Z</time></trkpt><trkpt lat="40.5306017" lon="8.7585567"><ele>402.0</ele><time>2026-04-16T13:53:30.752Z</time></trkpt><trkpt lat="40.5305283" lon="8.75855"><ele>402.0</ele><time>2026-04-16T13:53:31.752Z</time></trkpt><trkpt lat="40.5304533" lon="8.758565"><ele>402.0</ele><time>2026-04-16T13:53:32.752Z</time></trkpt><trkpt lat="40.5303717" lon="8.75861"><ele>402.0</ele><time>2026-04-16T13:53:33.752Z</time></trkpt><trkpt lat="40.5302683" lon="8.75867"><ele>402.0</ele><time>2026-04-16T13:53:34.752Z</time></trkpt><trkpt lat="40.5301517" lon="8.7587417"><ele>402.25</ele><time>2026-04-16T13:53:35.751Z</time></trkpt><trkpt lat="40.5300317" lon="8.7588317"><ele>402.5</ele><time>2026-04-16T13:53:36.752Z</time></trkpt><trkpt lat="40.529925" lon="8.7589133"><ele>402.75</ele><time>2026-04-16T13:53:37.752Z</time></trkpt><trkpt lat="40.529825" lon="8.7589733"><ele>403.0</ele><time>2026-04-16T13:53:38.751Z</time></trkpt><trkpt lat="40.5297117" lon="8.7590017"><ele>403.0</ele><time>2026-04-16T13:53:39.752Z</time></trkpt><trkpt lat="40.529585" lon="8.7590033"><ele>403.0</ele><time>2026-04-16T13:53:40.752Z</time></trkpt><trkpt lat="40.529445" lon="8.7589933"><ele>403.0</ele><time>2026-04-16T13:53:41.752Z</time></trkpt><trkpt lat="40.5292867" lon="8.7589833"><ele>403.0</ele><time>2026-04-16T13:53:42.751Z</time></trkpt><trkpt lat="40.5291233" lon="8.7589633"><ele>401.6666666666667</ele><time>2026-04-16T13:53:43.752Z</time></trkpt><trkpt lat="40.5289517" lon="8.7589417"><ele>400.33333333333337</ele><time>2026-04-16T13:53:44.752Z</time></trkpt><trkpt lat="40.5287767" lon="8.7589183"><ele>399.0</ele><time>2026-04-16T13:53:45.752Z</time></trkpt><trkpt lat="40.5286017" lon="8.7588867"><ele>397.33333333333337</ele><time>2026-04-16T13:53:46.751Z</time></trkpt><trkpt lat="40.5284283" lon="8.7588483"><ele>395.6666666666667</ele><time>2026-04-16T13:53:47.752Z</time></trkpt><trkpt lat="40.5282567" lon="8.7587933"><ele>394.0</ele><time>2026-04-16T13:53:48.751Z</time></trkpt><trkpt lat="40.5280917" lon="8.7587267"><ele>394.0</ele><time>2026-04-16T13:53:49.752Z</time></trkpt><trkpt lat="40.5279417" lon="8.7586567"><ele>394.0</ele><time>2026-04-16T13:53:50.751Z</time></trkpt><trkpt lat="40.5277917" lon="8.758585"><ele>394.0</ele><time>2026-04-16T13:53:51.752Z</time></trkpt><trkpt lat="40.5276417" lon="8.758525"><ele>393.33333333333337</ele><time>2026-04-16T13:53:52.752Z</time></trkpt><trkpt lat="40.5274883" lon="8.7584933"><ele>392.66666666666663</ele><time>2026-04-16T13:53:53.752Z</time></trkpt><trkpt lat="40.52733" lon="8.7584767"><ele>392.0</ele><time>2026-04-16T13:53:54.752Z</time></trkpt><trkpt lat="40.5271783" lon="8.7584467"><ele>391.66666666666663</ele><time>2026-04-16T13:53:55.752Z</time></trkpt><trkpt lat="40.5270233" lon="8.7584"><ele>391.33333333333337</ele><time>2026-04-16T13:53:56.752Z</time></trkpt><trkpt lat="40.5268617" lon="8.7583517"><ele>391.0</ele><time>2026-04-16T13:53:57.752Z</time></trkpt><trkpt lat="40.526705" lon="8.7583167"><ele>391.0</ele><time>2026-04-16T13:53:58.751Z</time></trkpt><trkpt lat="40.5265583" lon="8.7582767"><ele>391.0</ele><time>2026-04-16T13:53:59.751Z</time></trkpt><trkpt lat="40.5264117" lon="8.758225"><ele>391.0</ele><time>2026-04-16T13:54:00.751Z</time></trkpt><trkpt lat="40.5262683" lon="8.7581583"><ele>390.6</ele><time>2026-04-16T13:54:01.751Z</time></trkpt><trkpt lat="40.526145" lon="8.758095"><ele>390.20000000000005</ele><time>2026-04-16T13:54:02.752Z</time></trkpt><trkpt lat="40.5260483" lon="8.7580383"><ele>389.79999999999995</ele><time>2026-04-16T13:54:03.752Z</time></trkpt><trkpt lat="40.5259683" lon="8.7579933"><ele>389.4</ele><time>2026-04-16T13:54:04.752Z</time></trkpt><trkpt lat="40.525885" lon="8.75789"><ele>389.0</ele><time>2026-04-16T13:54:06.752Z</time></trkpt><trkpt lat="40.52587" lon="8.7578033"><ele>389.4</ele><time>2026-04-16T13:54:07.751Z</time></trkpt><trkpt lat="40.5258683" lon="8.757695"><ele>389.79999999999995</ele><time>2026-04-16T13:54:08.751Z</time></trkpt><trkpt lat="40.5258767" lon="8.7575733"><ele>390.20000000000005</ele><time>2026-04-16T13:54:09.751Z</time></trkpt><trkpt lat="40.5258717" lon="8.7574383"><ele>390.6</ele><time>2026-04-16T13:54:10.751Z</time></trkpt><trkpt lat="40.5258633" lon="8.7572767"><ele>391.0</ele><time>2026-04-16T13:54:11.752Z</time></trkpt><trkpt lat="40.5258467" lon="8.75711"><ele>391.0</ele><time>2026-04-16T13:54:12.752Z</time></trkpt><trkpt lat="40.5258183" lon="8.7569383"><ele>391.0</ele><time>2026-04-16T13:54:13.751Z</time></trkpt><trkpt lat="40.5257733" lon="8.7567383"><ele>391.0</ele><time>2026-04-16T13:54:14.752Z</time></trkpt><trkpt lat="40.5257217" lon="8.75653"><ele>392.0</ele><time>2026-04-16T13:54:15.752Z</time></trkpt><trkpt lat="40.5256617" lon="8.7563167"><ele>393.0</ele><time>2026-04-16T13:54:16.752Z</time></trkpt><trkpt lat="40.5256133" lon="8.756105"><ele>394.0</ele><time>2026-04-16T13:54:17.752Z</time></trkpt><trkpt lat="40.5255717" lon="8.755895"><ele>396.0</ele><time>2026-04-16T13:54:18.752Z</time></trkpt><trkpt lat="40.5255317" lon="8.7556883"><ele>398.0</ele><time>2026-04-16T13:54:19.752Z</time></trkpt><trkpt lat="40.52549" lon="8.7554983"><ele>400.0</ele><time>2026-04-16T13:54:20.752Z</time></trkpt><trkpt lat="40.5254417" lon="8.7553083"><ele>400.75</ele><time>2026-04-16T13:54:21.752Z</time></trkpt><trkpt lat="40.52537" lon="8.7551333"><ele>401.5</ele><time>2026-04-16T13:54:22.752Z</time></trkpt><trkpt lat="40.5253" lon="8.75498"><ele>402.25</ele><time>2026-04-16T13:54:23.752Z</time></trkpt><trkpt lat="40.5252367" lon="8.7548433"><ele>403.0</ele><time>2026-04-16T13:54:24.752Z</time></trkpt><trkpt lat="40.525185" lon="8.7546967"><ele>403.0</ele><time>2026-04-16T13:54:25.75Z</time></trkpt><trkpt lat="40.5251367" lon="8.7545383"><ele>403.0</ele><time>2026-04-16T13:54:26.75Z</time></trkpt><trkpt lat="40.52509" lon="8.754375"><ele>403.0</ele><time>2026-04-16T13:54:27.751Z</time></trkpt><trkpt lat="40.5250533" lon="8.75423"><ele>403.0</ele><time>2026-04-16T13:54:28.75Z</time></trkpt><trkpt lat="40.5250333" lon="8.7540767"><ele>404.25</ele><time>2026-04-16T13:54:29.751Z</time></trkpt><trkpt lat="40.5250283" lon="8.7539183"><ele>405.5</ele><time>2026-04-16T13:54:30.75Z</time></trkpt><trkpt lat="40.5250333" lon="8.7537483"><ele>406.75</ele><time>2026-04-16T13:54:31.751Z</time></trkpt><trkpt lat="40.52502" lon="8.7535967"><ele>408.0</ele><time>2026-04-16T13:54:32.751Z</time></trkpt><trkpt lat="40.5249833" lon="8.7534483"><ele>410.0</ele><time>2026-04-16T13:54:33.751Z</time></trkpt><trkpt lat="40.5249233" lon="8.753275"><ele>412.0</ele><time>2026-04-16T13:54:34.75Z</time></trkpt><trkpt lat="40.52486" lon="8.75309"><ele>414.0</ele><time>2026-04-16T13:54:35.75Z</time></trkpt><trkpt lat="40.5247933" lon="8.7529017"><ele>414.0</ele><time>2026-04-16T13:54:36.75Z</time></trkpt><trkpt lat="40.524715" lon="8.7527117"><ele>414.0</ele><time>2026-04-16T13:54:37.75Z</time></trkpt><trkpt lat="40.5246233" lon="8.7525217"><ele>414.0</ele><time>2026-04-16T13:54:38.751Z</time></trkpt><trkpt lat="40.5245333" lon="8.7523367"><ele>414.0</ele><time>2026-04-16T13:54:39.751Z</time></trkpt><trkpt lat="40.5244383" lon="8.75216"><ele>414.0</ele><time>2026-04-16T13:54:40.75Z</time></trkpt><trkpt lat="40.52434" lon="8.752"><ele>414.0</ele><time>2026-04-16T13:54:41.75Z</time></trkpt><trkpt lat="40.5242567" lon="8.751845"><ele>415.5</ele><time>2026-04-16T13:54:42.751Z</time></trkpt><trkpt lat="40.5241783" lon="8.7516817"><ele>417.0</ele><time>2026-04-16T13:54:43.751Z</time></trkpt><trkpt lat="40.5241" lon="8.751515"><ele>418.5</ele><time>2026-04-16T13:54:44.75Z</time></trkpt><trkpt lat="40.5240333" lon="8.7513333"><ele>420.0</ele><time>2026-04-16T13:54:45.751Z</time></trkpt><trkpt lat="40.5239667" lon="8.75115"><ele>421.2</ele><time>2026-04-16T13:54:46.75Z</time></trkpt><trkpt lat="40.523925" lon="8.750985"><ele>422.4</ele><time>2026-04-16T13:54:47.75Z</time></trkpt><trkpt lat="40.5238783" lon="8.750865"><ele>423.6</ele><time>2026-04-16T13:54:48.751Z</time></trkpt><trkpt lat="40.5238433" lon="8.75078"><ele>424.8</ele><time>2026-04-16T13:54:49.75Z</time></trkpt><trkpt lat="40.5237633" lon="8.7507283"><ele>426.0</ele><time>2026-04-16T13:54:51.751Z</time></trkpt><trkpt lat="40.5236783" lon="8.750805"><ele>426.0</ele><time>2026-04-16T13:54:53.75Z</time></trkpt><trkpt lat="40.5235967" lon="8.7508617"><ele>426.0</ele><time>2026-04-16T13:54:54.75Z</time></trkpt><trkpt lat="40.523505" lon="8.7509133"><ele>426.0</ele><time>2026-04-16T13:54:55.75Z</time></trkpt><trkpt lat="40.5234067" lon="8.750975"><ele>426.0</ele><time>2026-04-16T13:54:56.75Z</time></trkpt><trkpt lat="40.523325" lon="8.751045"><ele>426.0</ele><time>2026-04-16T13:54:57.751Z</time></trkpt><trkpt lat="40.52325" lon="8.751135"><ele>424.5</ele><time>2026-04-16T13:54:58.751Z</time></trkpt><trkpt lat="40.5231917" lon="8.7512483"><ele>423.0</ele><time>2026-04-16T13:54:59.751Z</time></trkpt><trkpt lat="40.5231583" lon="8.75139"><ele>421.5</ele><time>2026-04-16T13:55:00.751Z</time></trkpt><trkpt lat="40.5231333" lon="8.7515567"><ele>420.0</ele><time>2026-04-16T13:55:01.751Z</time></trkpt><trkpt lat="40.52311" lon="8.7517333"><ele>419.25</ele><time>2026-04-16T13:55:02.75Z</time></trkpt><trkpt lat="40.52309" lon="8.7519167"><ele>418.5</ele><time>2026-04-16T13:55:03.751Z</time></trkpt><trkpt lat="40.5230867" lon="8.752095"><ele>417.75</ele><time>2026-04-16T13:55:04.751Z</time></trkpt><trkpt lat="40.5230833" lon="8.752245"><ele>417.0</ele><time>2026-04-16T13:55:05.751Z</time></trkpt><trkpt lat="40.523075" lon="8.752355"><ele>417.0</ele><time>2026-04-16T13:55:06.75Z</time></trkpt><trkpt lat="40.5230483" lon="8.75244"><ele>417.0</ele><time>2026-04-16T13:55:07.751Z</time></trkpt><trkpt lat="40.5229917" lon="8.7525067"><ele>417.0</ele><time>2026-04-16T13:55:08.751Z</time></trkpt><trkpt lat="40.5229133" lon="8.7525517"><ele>417.0</ele><time>2026-04-16T13:55:09.75Z</time></trkpt><trkpt lat="40.5228233" lon="8.75258"><ele>417.0</ele><time>2026-04-16T13:55:10.75Z</time></trkpt><trkpt lat="40.522715" lon="8.75261"><ele>417.0</ele><time>2026-04-16T13:55:11.751Z</time></trkpt><trkpt lat="40.5226067" lon="8.7526633"><ele>419.75</ele><time>2026-04-16T13:55:12.75Z</time></trkpt><trkpt lat="40.5225017" lon="8.752735"><ele>422.5</ele><time>2026-04-16T13:55:13.751Z</time></trkpt><trkpt lat="40.5224083" lon="8.7528433"><ele>425.25</ele><time>2026-04-16T13:55:14.75Z</time></trkpt><trkpt lat="40.5223317" lon="8.752975"><ele>428.0</ele><time>2026-04-16T13:55:15.751Z</time></trkpt><trkpt lat="40.5222717" lon="8.7531067"><ele>428.0</ele><time>2026-04-16T13:55:16.75Z</time></trkpt><trkpt lat="40.5222133" lon="8.7532033"><ele>427.99999999999994</ele><time>2026-04-16T13:55:17.75Z</time></trkpt><trkpt lat="40.52214" lon="8.7532883"><ele>427.99999999999994</ele><time>2026-04-16T13:55:18.751Z</time></trkpt><trkpt lat="40.5220467" lon="8.7533883"><ele>428.0</ele><time>2026-04-16T13:55:19.751Z</time></trkpt><trkpt lat="40.52196" lon="8.7534917"><ele>428.0</ele><time>2026-04-16T13:55:20.751Z</time></trkpt><trkpt lat="40.521875" lon="8.75357"><ele>426.25</ele><time>2026-04-16T13:55:21.75Z</time></trkpt><trkpt lat="40.52178" lon="8.7536433"><ele>424.5</ele><time>2026-04-16T13:55:22.75Z</time></trkpt><trkpt lat="40.5216783" lon="8.7537033"><ele>422.75</ele><time>2026-04-16T13:55:23.75Z</time></trkpt><trkpt lat="40.521565" lon="8.7537633"><ele>421.0</ele><time>2026-04-16T13:55:24.751Z</time></trkpt><trkpt lat="40.521445" lon="8.7538133"><ele>421.0</ele><time>2026-04-16T13:55:25.751Z</time></trkpt><trkpt lat="40.5213333" lon="8.7538567"><ele>421.0</ele><time>2026-04-16T13:55:26.751Z</time></trkpt><trkpt lat="40.52123" lon="8.7539033"><ele>421.0</ele><time>2026-04-16T13:55:27.751Z</time></trkpt><trkpt lat="40.5211483" lon="8.7539667"><ele>421.0</ele><time>2026-04-16T13:55:28.75Z</time></trkpt><trkpt lat="40.5210883" lon="8.7540517"><ele>421.0</ele><time>2026-04-16T13:55:29.751Z</time></trkpt><trkpt lat="40.5210467" lon="8.75416"><ele>420.5</ele><time>2026-04-16T13:55:30.75Z</time></trkpt><trkpt lat="40.521015" lon="8.754295"><ele>420.0</ele><time>2026-04-16T13:55:31.75Z</time></trkpt><trkpt lat="40.5209933" lon="8.7544483"><ele>419.5</ele><time>2026-04-16T13:55:32.751Z</time></trkpt><trkpt lat="40.5209717" lon="8.754605"><ele>419.0</ele><time>2026-04-16T13:55:33.75Z</time></trkpt><trkpt lat="40.520945" lon="8.7547483"><ele>419.0</ele><time>2026-04-16T13:55:34.75Z</time></trkpt><trkpt lat="40.5209233" lon="8.7548717"><ele>419.0</ele><time>2026-04-16T13:55:35.751Z</time></trkpt><trkpt lat="40.5209167" lon="8.7550117"><ele>419.0</ele><time>2026-04-16T13:55:36.751Z</time></trkpt><trkpt lat="40.5209183" lon="8.755165"><ele>419.0</ele><time>2026-04-16T13:55:37.751Z</time></trkpt><trkpt lat="40.5209217" lon="8.75532"><ele>419.0</ele><time>2026-04-16T13:55:38.75Z</time></trkpt><trkpt lat="40.5209183" lon="8.755465"><ele>417.2</ele><time>2026-04-16T13:55:39.75Z</time></trkpt><trkpt lat="40.5209" lon="8.7556017"><ele>415.4</ele><time>2026-04-16T13:55:40.75Z</time></trkpt><trkpt lat="40.5208567" lon="8.7557383"><ele>413.6</ele><time>2026-04-16T13:55:41.751Z</time></trkpt><trkpt lat="40.5208033" lon="8.7558767"><ele>411.8</ele><time>2026-04-16T13:55:42.751Z</time></trkpt><trkpt lat="40.5207333" lon="8.7559933"><ele>410.0</ele><time>2026-04-16T13:55:43.751Z</time></trkpt><trkpt lat="40.5206417" lon="8.7561067"><ele>408.6</ele><time>2026-04-16T13:55:44.751Z</time></trkpt><trkpt lat="40.5205533" lon="8.756205"><ele>407.2</ele><time>2026-04-16T13:55:45.751Z</time></trkpt><trkpt lat="40.52048" lon="8.7562817"><ele>405.79999999999995</ele><time>2026-04-16T13:55:46.75Z</time></trkpt><trkpt lat="40.5203717" lon="8.7563017"><ele>404.4</ele><time>2026-04-16T13:55:48.751Z</time></trkpt><trkpt lat="40.5203183" lon="8.756245"><ele>403.0</ele><time>2026-04-16T13:55:49.751Z</time></trkpt><trkpt lat="40.520255" lon="8.75617"><ele>402.2</ele><time>2026-04-16T13:55:50.751Z</time></trkpt><trkpt lat="40.5201783" lon="8.7561367"><ele>401.4</ele><time>2026-04-16T13:55:51.751Z</time></trkpt><trkpt lat="40.52008" lon="8.7561433"><ele>400.59999999999997</ele><time>2026-04-16T13:55:52.751Z</time></trkpt><trkpt lat="40.5199583" lon="8.7561717"><ele>399.79999999999995</ele><time>2026-04-16T13:55:53.751Z</time></trkpt><trkpt lat="40.519815" lon="8.7562"><ele>399.0</ele><time>2026-04-16T13:55:54.75Z</time></trkpt><trkpt lat="40.5196617" lon="8.7562283"><ele>399.0</ele><time>2026-04-16T13:55:55.75Z</time></trkpt><trkpt lat="40.519525" lon="8.7562583"><ele>399.0</ele><time>2026-04-16T13:55:56.751Z</time></trkpt><trkpt lat="40.5193817" lon="8.7563067"><ele>399.0</ele><time>2026-04-16T13:55:57.751Z</time></trkpt><trkpt lat="40.5192617" lon="8.7563633"><ele>399.0</ele><time>2026-04-16T13:55:58.751Z</time></trkpt><trkpt lat="40.5191783" lon="8.7564017"><ele>399.0</ele><time>2026-04-16T13:55:59.751Z</time></trkpt><trkpt lat="40.51912" lon="8.7564417"><ele>399.0</ele><time>2026-04-16T13:56:00.751Z</time></trkpt><trkpt lat="40.51905" lon="8.75652"><ele>399.0</ele><time>2026-04-16T13:56:02.751Z</time></trkpt><trkpt lat="40.5189767" lon="8.756595"><ele>399.0</ele><time>2026-04-16T13:56:04.75Z</time></trkpt><trkpt lat="40.51892" lon="8.7566533"><ele>399.0</ele><time>2026-04-16T13:56:06.751Z</time></trkpt><trkpt lat="40.5188667" lon="8.7567067"><ele>399.0</ele><time>2026-04-16T13:56:09.751Z</time></trkpt><trkpt lat="40.5187867" lon="8.7568133"><ele>400.0</ele><time>2026-04-16T13:56:15.751Z</time></trkpt><trkpt lat="40.5187333" lon="8.756875"><ele>401.0</ele><time>2026-04-16T13:56:16.75Z</time></trkpt><trkpt lat="40.5186767" lon="8.7569433"><ele>402.0</ele><time>2026-04-16T13:56:17.75Z</time></trkpt><trkpt lat="40.5186183" lon="8.7570117"><ele>403.0</ele><time>2026-04-16T13:56:18.751Z</time></trkpt><trkpt lat="40.5185517" lon="8.7570833"><ele>404.0</ele><time>2026-04-16T13:56:19.751Z</time></trkpt><trkpt lat="40.51848" lon="8.757155"><ele>405.0</ele><time>2026-04-16T13:56:20.751Z</time></trkpt><trkpt lat="40.518405" lon="8.75723"><ele>405.0</ele><time>2026-04-16T13:56:21.751Z</time></trkpt><trkpt lat="40.518325" lon="8.7573117"><ele>405.0</ele><time>2026-04-16T13:56:22.75Z</time></trkpt><trkpt lat="40.5182417" lon="8.7574"><ele>405.0</ele><time>2026-04-16T13:56:23.751Z</time></trkpt><trkpt lat="40.5181467" lon="8.7574833"><ele>405.0</ele><time>2026-04-16T13:56:24.751Z</time></trkpt><trkpt lat="40.5180533" lon="8.7575533"><ele>405.0</ele><time>2026-04-16T13:56:25.751Z</time></trkpt><trkpt lat="40.5179667" lon="8.757635"><ele>406.2</ele><time>2026-04-16T13:56:26.751Z</time></trkpt><trkpt lat="40.517885" lon="8.7577267"><ele>407.4</ele><time>2026-04-16T13:56:27.75Z</time></trkpt><trkpt lat="40.5177983" lon="8.7578217"><ele>408.6</ele><time>2026-04-16T13:56:28.751Z</time></trkpt><trkpt lat="40.5177167" lon="8.7579233"><ele>409.8</ele><time>2026-04-16T13:56:29.751Z</time></trkpt><trkpt lat="40.5176417" lon="8.758025"><ele>411.0</ele><time>2026-04-16T13:56:30.751Z</time></trkpt><trkpt lat="40.5175667" lon="8.7581283"><ele>411.0</ele><time>2026-04-16T13:56:31.751Z</time></trkpt><trkpt lat="40.5174883" lon="8.75823"><ele>411.0</ele><time>2026-04-16T13:56:32.751Z</time></trkpt><trkpt lat="40.517405" lon="8.7583417"><ele>411.0</ele><time>2026-04-16T13:56:33.751Z</time></trkpt><trkpt lat="40.517325" lon="8.758465"><ele>411.0</ele><time>2026-04-16T13:56:34.751Z</time></trkpt><trkpt lat="40.517245" lon="8.7585933"><ele>411.5</ele><time>2026-04-16T13:56:35.751Z</time></trkpt><trkpt lat="40.5171733" lon="8.7587233"><ele>412.0</ele><time>2026-04-16T13:56:36.751Z</time></trkpt><trkpt lat="40.517105" lon="8.7588417"><ele>412.5</ele><time>2026-04-16T13:56:37.751Z</time></trkpt><trkpt lat="40.5170333" lon="8.7589433"><ele>413.0</ele><time>2026-04-16T13:56:38.751Z</time></trkpt><trkpt lat="40.5169467" lon="8.7590317"><ele>413.0</ele><time>2026-04-16T13:56:39.751Z</time></trkpt><trkpt lat="40.5168517" lon="8.7591017"><ele>413.0</ele><time>2026-04-16T13:56:40.75Z</time></trkpt><trkpt lat="40.5167467" lon="8.7591583"><ele>413.0</ele><time>2026-04-16T13:56:41.75Z</time></trkpt><trkpt lat="40.5166333" lon="8.7592117"><ele>413.0</ele><time>2026-04-16T13:56:42.75Z</time></trkpt><trkpt lat="40.5165183" lon="8.7592617"><ele>413.0</ele><time>2026-04-16T13:56:43.751Z</time></trkpt><trkpt lat="40.5164067" lon="8.7593067"><ele>413.0</ele><time>2026-04-16T13:56:44.751Z</time></trkpt><trkpt lat="40.516295" lon="8.759365"><ele>413.0</ele><time>2026-04-16T13:56:45.75Z</time></trkpt><trkpt lat="40.5161883" lon="8.7594267"><ele>413.0</ele><time>2026-04-16T13:56:46.751Z</time></trkpt><trkpt lat="40.5160683" lon="8.7594933"><ele>414.4</ele><time>2026-04-16T13:56:47.751Z</time></trkpt><trkpt lat="40.5159583" lon="8.7595583"><ele>415.79999999999995</ele><time>2026-04-16T13:56:48.751Z</time></trkpt><trkpt lat="40.5158567" lon="8.7596267"><ele>417.2</ele><time>2026-04-16T13:56:49.751Z</time></trkpt><trkpt lat="40.5157567" lon="8.7596817"><ele>418.6</ele><time>2026-04-16T13:56:50.75Z</time></trkpt><trkpt lat="40.51566" lon="8.7597367"><ele>420.0</ele><time>2026-04-16T13:56:51.751Z</time></trkpt><trkpt lat="40.5155733" lon="8.7597933"><ele>420.0</ele><time>2026-04-16T13:56:52.751Z</time></trkpt><trkpt lat="40.5155017" lon="8.75986"><ele>420.0</ele><time>2026-04-16T13:56:53.751Z</time></trkpt><trkpt lat="40.51544" lon="8.7599483"><ele>420.0</ele><time>2026-04-16T13:56:54.75Z</time></trkpt><trkpt lat="40.5153783" lon="8.7600617"><ele>420.0</ele><time>2026-04-16T13:56:55.75Z</time></trkpt><trkpt lat="40.515325" lon="8.7601817"><ele>420.0</ele><time>2026-04-16T13:56:56.751Z</time></trkpt><trkpt lat="40.515275" lon="8.76031"><ele>421.2</ele><time>2026-04-16T13:56:57.751Z</time></trkpt><trkpt lat="40.5152183" lon="8.7604417"><ele>422.4</ele><time>2026-04-16T13:56:58.751Z</time></trkpt><trkpt lat="40.5151683" lon="8.7605767"><ele>423.6</ele><time>2026-04-16T13:56:59.751Z</time></trkpt><trkpt lat="40.5151267" lon="8.7607133"><ele>424.8</ele><time>2026-04-16T13:57:00.751Z</time></trkpt><trkpt lat="40.515085" lon="8.7608317"><ele>426.0</ele><time>2026-04-16T13:57:01.751Z</time></trkpt><trkpt lat="40.515055" lon="8.7609117"><ele>426.0</ele><time>2026-04-16T13:57:02.751Z</time></trkpt><trkpt lat="40.515135" lon="8.7607717"><ele>426.0</ele><time>2026-04-16T13:57:07.751Z</time></trkpt><trkpt lat="40.51517" lon="8.76065"><ele>426.0</ele><time>2026-04-16T13:57:08.751Z</time></trkpt><trkpt lat="40.51522" lon="8.7605217"><ele>426.0</ele><time>2026-04-16T13:57:09.751Z</time></trkpt><trkpt lat="40.515275" lon="8.76039"><ele>426.0</ele><time>2026-04-16T13:57:10.75Z</time></trkpt><trkpt lat="40.5153283" lon="8.7602617"><ele>426.0</ele><time>2026-04-16T13:57:11.75Z</time></trkpt><trkpt lat="40.5153717" lon="8.76015"><ele>426.0</ele><time>2026-04-16T13:57:12.75Z</time></trkpt><trkpt lat="40.51541" lon="8.760045"><ele>426.0</ele><time>2026-04-16T13:57:13.751Z</time></trkpt><trkpt lat="40.5154333" lon="8.7599633"><ele>426.0</ele><time>2026-04-16T13:57:14.751Z</time></trkpt><trkpt lat="40.5153917" lon="8.7598883"><ele>426.0</ele><time>2026-04-16T13:57:16.751Z</time></trkpt><trkpt lat="40.51529" lon="8.75994"><ele>426.0</ele><time>2026-04-16T13:57:18.751Z</time></trkpt><trkpt lat="40.5152233" lon="8.7600017"><ele>426.0</ele><time>2026-04-16T13:57:19.751Z</time></trkpt><trkpt lat="40.5151467" lon="8.7600733"><ele>426.0</ele><time>2026-04-16T13:57:20.75Z</time></trkpt><trkpt lat="40.5150683" lon="8.7601317"><ele>426.0</ele><time>2026-04-16T13:57:21.749Z</time></trkpt><trkpt lat="40.51498" lon="8.7602067"><ele>426.0</ele><time>2026-04-16T13:57:22.75Z</time></trkpt><trkpt lat="40.514885" lon="8.76028"><ele>426.0</ele><time>2026-04-16T13:57:23.75Z</time></trkpt><trkpt lat="40.51479" lon="8.7603633"><ele>426.0</ele><time>2026-04-16T13:57:24.75Z</time></trkpt><trkpt lat="40.514695" lon="8.76046"><ele>426.0</ele><time>2026-04-16T13:57:25.749Z</time></trkpt><trkpt lat="40.5146133" lon="8.7605333"><ele>426.0</ele><time>2026-04-16T13:57:26.75Z</time></trkpt><trkpt lat="40.5145367" lon="8.760605"><ele>426.0</ele><time>2026-04-16T13:57:27.749Z</time></trkpt><trkpt lat="40.5144617" lon="8.7606583"><ele>427.20000000000005</ele><time>2026-04-16T13:57:28.75Z</time></trkpt><trkpt lat="40.51439" lon="8.7607183"><ele>428.40000000000003</ele><time>2026-04-16T13:57:29.749Z</time></trkpt><trkpt lat="40.5143167" lon="8.7607983"><ele>429.6</ele><time>2026-04-16T13:57:30.749Z</time></trkpt><trkpt lat="40.5142533" lon="8.7608967"><ele>430.8</ele><time>2026-04-16T13:57:31.749Z</time></trkpt><trkpt lat="40.5141933" lon="8.761015"><ele>432.0</ele><time>2026-04-16T13:57:32.749Z</time></trkpt><trkpt lat="40.5141517" lon="8.761155"><ele>432.75</ele><time>2026-04-16T13:57:33.749Z</time></trkpt><trkpt lat="40.5141083" lon="8.7612917"><ele>433.5</ele><time>2026-04-16T13:57:34.749Z</time></trkpt><trkpt lat="40.5140717" lon="8.7614367"><ele>434.25</ele><time>2026-04-16T13:57:35.75Z</time></trkpt><trkpt lat="40.5140367" lon="8.7616"><ele>435.0</ele><time>2026-04-16T13:57:36.75Z</time></trkpt><trkpt lat="40.5140133" lon="8.7617633"><ele>434.8</ele><time>2026-04-16T13:57:37.749Z</time></trkpt><trkpt lat="40.5139967" lon="8.7619217"><ele>434.6</ele><time>2026-04-16T13:57:38.75Z</time></trkpt><trkpt lat="40.51398" lon="8.7620583"><ele>434.4</ele><time>2026-04-16T13:57:39.75Z</time></trkpt><trkpt lat="40.51397" lon="8.7621717"><ele>434.2</ele><time>2026-04-16T13:57:40.749Z</time></trkpt><trkpt lat="40.5139617" lon="8.7622717"><ele>434.0</ele><time>2026-04-16T13:57:41.75Z</time></trkpt><trkpt lat="40.51395" lon="8.7623533"><ele>433.99999999999994</ele><time>2026-04-16T13:57:42.749Z</time></trkpt><trkpt lat="40.51392" lon="8.7624317"><ele>434.0</ele><time>2026-04-16T13:57:43.75Z</time></trkpt><trkpt lat="40.5138783" lon="8.7625083"><ele>434.0</ele><time>2026-04-16T13:57:44.75Z</time></trkpt><trkpt lat="40.5138333" lon="8.7625833"><ele>434.0</ele><time>2026-04-16T13:57:45.75Z</time></trkpt><trkpt lat="40.5137633" lon="8.762695"><ele>433.99999999999994</ele><time>2026-04-16T13:57:47.75Z</time></trkpt><trkpt lat="40.5137117" lon="8.7627667"><ele>434.0</ele><time>2026-04-16T13:57:49.75Z</time></trkpt><trkpt lat="40.513605" lon="8.7627917"><ele>434.2</ele><time>2026-04-16T13:57:51.75Z</time></trkpt><trkpt lat="40.51353" lon="8.76284"><ele>434.4</ele><time>2026-04-16T13:57:53.75Z</time></trkpt><trkpt lat="40.5134633" lon="8.76297"><ele>434.6</ele><time>2026-04-16T13:57:55.75Z</time></trkpt><trkpt lat="40.5134333" lon="8.7630683"><ele>434.8</ele><time>2026-04-16T13:57:56.75Z</time></trkpt><trkpt lat="40.5134133" lon="8.7631717"><ele>435.0</ele><time>2026-04-16T13:57:57.75Z</time></trkpt><trkpt lat="40.513375" lon="8.7632783"><ele>435.0</ele><time>2026-04-16T13:57:58.749Z</time></trkpt><trkpt lat="40.5133233" lon="8.7633917"><ele>435.0</ele><time>2026-04-16T13:57:59.75Z</time></trkpt><trkpt lat="40.51325" lon="8.7635117"><ele>435.0</ele><time>2026-04-16T13:58:00.75Z</time></trkpt><trkpt lat="40.5131717" lon="8.7636283"><ele>435.0</ele><time>2026-04-16T13:58:01.749Z</time></trkpt><trkpt lat="40.5130883" lon="8.7637517"><ele>435.75</ele><time>2026-04-16T13:58:02.75Z</time></trkpt><trkpt lat="40.5130117" lon="8.7638683"><ele>436.5</ele><time>2026-04-16T13:58:03.75Z</time></trkpt><trkpt lat="40.5129333" lon="8.763995"><ele>437.25</ele><time>2026-04-16T13:58:04.749Z</time></trkpt><trkpt lat="40.5128467" lon="8.764135"><ele>438.0</ele><time>2026-04-16T13:58:05.75Z</time></trkpt><trkpt lat="40.5127617" lon="8.7642667"><ele>437.0</ele><time>2026-04-16T13:58:06.749Z</time></trkpt><trkpt lat="40.512675" lon="8.7644083"><ele>436.0</ele><time>2026-04-16T13:58:07.749Z</time></trkpt><trkpt lat="40.5125883" lon="8.764555"><ele>435.0</ele><time>2026-04-16T13:58:08.749Z</time></trkpt><trkpt lat="40.5124967" lon="8.7647017"><ele>434.0</ele><time>2026-04-16T13:58:09.75Z</time></trkpt><trkpt lat="40.512405" lon="8.7648483"><ele>434.0</ele><time>2026-04-16T13:58:10.75Z</time></trkpt><trkpt lat="40.512315" lon="8.764995"><ele>434.0</ele><time>2026-04-16T13:58:11.749Z</time></trkpt><trkpt lat="40.5122317" lon="8.7651367"><ele>434.0</ele><time>2026-04-16T13:58:12.75Z</time></trkpt><trkpt lat="40.5121483" lon="8.76526"><ele>434.0</ele><time>2026-04-16T13:58:13.75Z</time></trkpt><trkpt lat="40.5120667" lon="8.7653683"><ele>434.75</ele><time>2026-04-16T13:58:14.749Z</time></trkpt><trkpt lat="40.511965" lon="8.7654583"><ele>435.5</ele><time>2026-04-16T13:58:15.75Z</time></trkpt><trkpt lat="40.5118533" lon="8.7655383"><ele>436.25</ele><time>2026-04-16T13:58:16.75Z</time></trkpt><trkpt lat="40.511735" lon="8.7656267"><ele>437.0</ele><time>2026-04-16T13:58:17.75Z</time></trkpt><trkpt lat="40.51161" lon="8.7657167"><ele>437.0</ele><time>2026-04-16T13:58:18.749Z</time></trkpt><trkpt lat="40.5114867" lon="8.7658017"><ele>437.0</ele><time>2026-04-16T13:58:19.75Z</time></trkpt><trkpt lat="40.5113617" lon="8.7658967"><ele>437.0</ele><time>2026-04-16T13:58:20.75Z</time></trkpt><trkpt lat="40.5112317" lon="8.76599"><ele>437.0</ele><time>2026-04-16T13:58:21.749Z</time></trkpt><trkpt lat="40.5110967" lon="8.7660833"><ele>436.66666666666663</ele><time>2026-04-16T13:58:22.75Z</time></trkpt><trkpt lat="40.5109567" lon="8.76618"><ele>436.33333333333337</ele><time>2026-04-16T13:58:23.75Z</time></trkpt><trkpt lat="40.510815" lon="8.7662783"><ele>436.0</ele><time>2026-04-16T13:58:24.75Z</time></trkpt><trkpt lat="40.5106817" lon="8.7663717"><ele>436.0</ele><time>2026-04-16T13:58:25.75Z</time></trkpt><trkpt lat="40.5105533" lon="8.7664583"><ele>436.0</ele><time>2026-04-16T13:58:26.75Z</time></trkpt><trkpt lat="40.510435" lon="8.7665417"><ele>436.0</ele><time>2026-04-16T13:58:27.749Z</time></trkpt><trkpt lat="40.5103117" lon="8.7666183"><ele>436.0</ele><time>2026-04-16T13:58:28.75Z</time></trkpt><trkpt lat="40.5101817" lon="8.76668"><ele>436.75</ele><time>2026-04-16T13:58:29.75Z</time></trkpt><trkpt lat="40.5100467" lon="8.7667433"><ele>437.5</ele><time>2026-04-16T13:58:30.749Z</time></trkpt><trkpt lat="40.5099117" lon="8.7668"><ele>438.25</ele><time>2026-04-16T13:58:31.75Z</time></trkpt><trkpt lat="40.509775" lon="8.7668633"><ele>439.0</ele><time>2026-04-16T13:58:32.749Z</time></trkpt><trkpt lat="40.5096367" lon="8.766935"><ele>437.5</ele><time>2026-04-16T13:58:33.749Z</time></trkpt><trkpt lat="40.5094883" lon="8.767005"><ele>436.0</ele><time>2026-04-16T13:58:34.749Z</time></trkpt><trkpt lat="40.5093667" lon="8.767075"><ele>434.5</ele><time>2026-04-16T13:58:35.75Z</time></trkpt><trkpt lat="40.509245" lon="8.7671283"><ele>433.0</ele><time>2026-04-16T13:58:36.75Z</time></trkpt><trkpt lat="40.5091267" lon="8.7671933"><ele>433.0</ele><time>2026-04-16T13:58:37.75Z</time></trkpt><trkpt lat="40.5090067" lon="8.76728"><ele>433.0</ele><time>2026-04-16T13:58:38.749Z</time></trkpt><trkpt lat="40.50889" lon="8.767395"><ele>433.0</ele><time>2026-04-16T13:58:39.749Z</time></trkpt><trkpt lat="40.5087883" lon="8.7675267"><ele>433.0</ele><time>2026-04-16T13:58:40.75Z</time></trkpt><trkpt lat="40.508695" lon="8.767655"><ele>431.25</ele><time>2026-04-16T13:58:41.75Z</time></trkpt><trkpt lat="40.5086017" lon="8.7677767"><ele>429.5</ele><time>2026-04-16T13:58:42.75Z</time></trkpt><trkpt lat="40.5085067" lon="8.7678933"><ele>427.75</ele><time>2026-04-16T13:58:43.749Z</time></trkpt><trkpt lat="40.5084067" lon="8.768015"><ele>426.0</ele><time>2026-04-16T13:58:44.75Z</time></trkpt><trkpt lat="40.5083" lon="8.76815"><ele>426.0</ele><time>2026-04-16T13:58:45.75Z</time></trkpt><trkpt lat="40.5081917" lon="8.7682983"><ele>426.0</ele><time>2026-04-16T13:58:46.75Z</time></trkpt><trkpt lat="40.50809" lon="8.7684633"><ele>426.0</ele><time>2026-04-16T13:58:47.75Z</time></trkpt><trkpt lat="40.5079917" lon="8.76864"><ele>424.33333333333337</ele><time>2026-04-16T13:58:48.75Z</time></trkpt><trkpt lat="40.5079017" lon="8.768825"><ele>422.6666666666667</ele><time>2026-04-16T13:58:49.75Z</time></trkpt><trkpt lat="40.50782" lon="8.7690167"><ele>421.0</ele><time>2026-04-16T13:58:50.749Z</time></trkpt><trkpt lat="40.5077517" lon="8.7692117"><ele>419.6666666666667</ele><time>2026-04-16T13:58:51.75Z</time></trkpt><trkpt lat="40.5076917" lon="8.7694133"><ele>418.33333333333337</ele><time>2026-04-16T13:58:52.75Z</time></trkpt><trkpt lat="40.507635" lon="8.7696183"><ele>417.0</ele><time>2026-04-16T13:58:53.749Z</time></trkpt><trkpt lat="40.5075717" lon="8.7698233"><ele>417.0</ele><time>2026-04-16T13:58:54.75Z</time></trkpt><trkpt lat="40.5074917" lon="8.77002"><ele>417.0</ele><time>2026-04-16T13:58:55.749Z</time></trkpt><trkpt lat="40.5073933" lon="8.7702033"><ele>417.0</ele><time>2026-04-16T13:58:56.75Z</time></trkpt><trkpt lat="40.5072867" lon="8.7703733"><ele>416.5</ele><time>2026-04-16T13:58:57.75Z</time></trkpt><trkpt lat="40.50718" lon="8.7705317"><ele>416.0</ele><time>2026-04-16T13:58:58.749Z</time></trkpt><trkpt lat="40.507085" lon="8.77068"><ele>415.5</ele><time>2026-04-16T13:58:59.75Z</time></trkpt><trkpt lat="40.5070033" lon="8.7708033"><ele>415.0</ele><time>2026-04-16T13:59:00.749Z</time></trkpt><trkpt lat="40.50693" lon="8.7709083"><ele>414.4</ele><time>2026-04-16T13:59:01.75Z</time></trkpt><trkpt lat="40.50687" lon="8.7709933"><ele>413.8</ele><time>2026-04-16T13:59:02.75Z</time></trkpt><trkpt lat="40.5068233" lon="8.7710567"><ele>413.20000000000005</ele><time>2026-04-16T13:59:03.75Z</time></trkpt><trkpt lat="40.5067433" lon="8.77113"><ele>412.6</ele><time>2026-04-16T13:59:05.749Z</time></trkpt><trkpt lat="40.506615" lon="8.77117"><ele>412.0</ele><time>2026-04-16T13:59:07.749Z</time></trkpt><trkpt lat="40.5065133" lon="8.77117"><ele>411.5</ele><time>2026-04-16T13:59:08.749Z</time></trkpt><trkpt lat="40.5063983" lon="8.7711633"><ele>411.0</ele><time>2026-04-16T13:59:09.75Z</time></trkpt><trkpt lat="40.5062633" lon="8.771155"><ele>410.5</ele><time>2026-04-16T13:59:10.749Z</time></trkpt><trkpt lat="40.5061283" lon="8.77114"><ele>410.0</ele><time>2026-04-16T13:59:11.749Z</time></trkpt><trkpt lat="40.5059833" lon="8.7711233"><ele>409.75</ele><time>2026-04-16T13:59:12.75Z</time></trkpt><trkpt lat="40.5058333" lon="8.7710917"><ele>409.5</ele><time>2026-04-16T13:59:13.75Z</time></trkpt><trkpt lat="40.5056883" lon="8.771045"><ele>409.25</ele><time>2026-04-16T13:59:14.75Z</time></trkpt><trkpt lat="40.5055633" lon="8.7709933"><ele>409.0</ele><time>2026-04-16T13:59:15.749Z</time></trkpt><trkpt lat="40.50545" lon="8.7709433"><ele>408.79999999999995</ele><time>2026-04-16T13:59:16.75Z</time></trkpt><trkpt lat="40.5053433" lon="8.7708967"><ele>408.59999999999997</ele><time>2026-04-16T13:59:17.749Z</time></trkpt><trkpt lat="40.5052467" lon="8.7708517"><ele>408.4</ele><time>2026-04-16T13:59:18.749Z</time></trkpt><trkpt lat="40.5051567" lon="8.7708083"><ele>408.2</ele><time>2026-04-16T13:59:19.75Z</time></trkpt><trkpt lat="40.5050683" lon="8.77077"><ele>408.0</ele><time>2026-04-16T13:59:20.75Z</time></trkpt><trkpt lat="40.5049933" lon="8.7707367"><ele>408.0</ele><time>2026-04-16T13:59:21.75Z</time></trkpt><trkpt lat="40.5049233" lon="8.770735"><ele>408.0</ele><time>2026-04-16T13:59:23.75Z</time></trkpt><trkpt lat="40.5048967" lon="8.77085"><ele>408.0</ele><time>2026-04-16T13:59:26.75Z</time></trkpt><trkpt lat="40.50481" lon="8.770945"><ele>408.0</ele><time>2026-04-16T13:59:30.749Z</time></trkpt><trkpt lat="40.5047517" lon="8.771"><ele>408.0</ele><time>2026-04-16T13:59:31.749Z</time></trkpt><trkpt lat="40.5046833" lon="8.7710683"><ele>408.0</ele><time>2026-04-16T13:59:32.75Z</time></trkpt><trkpt lat="40.504605" lon="8.7711317"><ele>407.3333333333333</ele><time>2026-04-16T13:59:33.75Z</time></trkpt><trkpt lat="40.5045167" lon="8.7711783"><ele>406.66666666666663</ele><time>2026-04-16T13:59:34.75Z</time></trkpt><trkpt lat="40.5044267" lon="8.771195"><ele>406.0</ele><time>2026-04-16T13:59:35.75Z</time></trkpt><trkpt lat="40.5043333" lon="8.771185"><ele>405.3333333333333</ele><time>2026-04-16T13:59:36.749Z</time></trkpt><trkpt lat="40.504255" lon="8.7711533"><ele>404.66666666666663</ele><time>2026-04-16T13:59:37.75Z</time></trkpt><trkpt lat="40.5041833" lon="8.7711433"><ele>404.0</ele><time>2026-04-16T13:59:38.75Z</time></trkpt><trkpt lat="40.5041167" lon="8.771175"><ele>404.0</ele><time>2026-04-16T13:59:39.75Z</time></trkpt><trkpt lat="40.504055" lon="8.77124"><ele>404.0</ele><time>2026-04-16T13:59:40.75Z</time></trkpt><trkpt lat="40.5039933" lon="8.7713283"><ele>404.0</ele><time>2026-04-16T13:59:41.75Z</time></trkpt><trkpt lat="40.5039333" lon="8.7714233"><ele>404.0</ele><time>2026-04-16T13:59:42.75Z</time></trkpt><trkpt lat="40.50387" lon="8.7715117"><ele>404.0</ele><time>2026-04-16T13:59:43.749Z</time></trkpt><trkpt lat="40.5037867" lon="8.7715733"><ele>403.5</ele><time>2026-04-16T13:59:44.75Z</time></trkpt><trkpt lat="40.5036817" lon="8.7716083"><ele>403.0</ele><time>2026-04-16T13:59:45.75Z</time></trkpt><trkpt lat="40.5035667" lon="8.7716517"><ele>402.5</ele><time>2026-04-16T13:59:46.749Z</time></trkpt><trkpt lat="40.5034483" lon="8.7717233"><ele>402.0</ele><time>2026-04-16T13:59:47.75Z</time></trkpt><trkpt lat="40.5033383" lon="8.77182"><ele>402.0</ele><time>2026-04-16T13:59:48.75Z</time></trkpt><trkpt lat="40.5032417" lon="8.771905"><ele>402.0</ele><time>2026-04-16T13:59:49.75Z</time></trkpt><trkpt lat="40.5031667" lon="8.771955"><ele>402.0</ele><time>2026-04-16T13:59:50.749Z</time></trkpt><trkpt lat="40.50307" lon="8.7719217"><ele>402.0</ele><time>2026-04-16T13:59:52.75Z</time></trkpt><trkpt lat="40.5030383" lon="8.7718283"><ele>402.0</ele><time>2026-04-16T13:59:53.75Z</time></trkpt><trkpt lat="40.503005" lon="8.7717033"><ele>402.0</ele><time>2026-04-16T13:59:54.75Z</time></trkpt><trkpt lat="40.5029617" lon="8.7715683"><ele>402.0</ele><time>2026-04-16T13:59:55.75Z</time></trkpt><trkpt lat="40.502905" lon="8.7714317"><ele>402.0</ele><time>2026-04-16T13:59:56.75Z</time></trkpt><trkpt lat="40.5028483" lon="8.7713183"><ele>402.0</ele><time>2026-04-16T13:59:57.75Z</time></trkpt><trkpt lat="40.5027933" lon="8.7712467"><ele>402.0</ele><time>2026-04-16T13:59:58.749Z</time></trkpt><trkpt lat="40.5027317" lon="8.7712083"><ele>401.40000000000003</ele><time>2026-04-16T13:59:59.75Z</time></trkpt><trkpt lat="40.5026567" lon="8.771205"><ele>400.8</ele><time>2026-04-16T14:00:00.75Z</time></trkpt><trkpt lat="40.502565" lon="8.77123"><ele>400.2</ele><time>2026-04-16T14:00:01.749Z</time></trkpt><trkpt lat="40.50246" lon="8.7712617"><ele>399.6</ele><time>2026-04-16T14:00:02.75Z</time></trkpt><trkpt lat="40.5023433" lon="8.771275"><ele>399.0</ele><time>2026-04-16T14:00:03.749Z</time></trkpt><trkpt lat="40.502215" lon="8.7712683"><ele>398.75</ele><time>2026-04-16T14:00:04.75Z</time></trkpt><trkpt lat="40.50207" lon="8.7712517"><ele>398.5</ele><time>2026-04-16T14:00:05.75Z</time></trkpt><trkpt lat="40.50192" lon="8.7712383"><ele>398.25</ele><time>2026-04-16T14:00:06.75Z</time></trkpt><trkpt lat="40.5017683" lon="8.7712433"><ele>398.0</ele><time>2026-04-16T14:00:07.75Z</time></trkpt><trkpt lat="40.501615" lon="8.771265"><ele>398.0</ele><time>2026-04-16T14:00:08.75Z</time></trkpt><trkpt lat="40.501455" lon="8.771295"><ele>398.0</ele><time>2026-04-16T14:00:09.75Z</time></trkpt><trkpt lat="40.5012933" lon="8.7713367"><ele>398.0</ele><time>2026-04-16T14:00:10.75Z</time></trkpt><trkpt lat="40.5011283" lon="8.7713917"><ele>396.66666666666663</ele><time>2026-04-16T14:00:11.75Z</time></trkpt><trkpt lat="40.50097" lon="8.7714483"><ele>395.33333333333337</ele><time>2026-04-16T14:00:12.749Z</time></trkpt><trkpt lat="40.5008167" lon="8.7715067"><ele>394.0</ele><time>2026-04-16T14:00:13.749Z</time></trkpt><trkpt lat="40.5006783" lon="8.7715567"><ele>394.0</ele><time>2026-04-16T14:00:14.749Z</time></trkpt><trkpt lat="40.5005517" lon="8.77161"><ele>394.0</ele><time>2026-04-16T14:00:15.748Z</time></trkpt><trkpt lat="40.5004417" lon="8.7716567"><ele>394.0</ele><time>2026-04-16T14:00:16.749Z</time></trkpt><trkpt lat="40.5003483" lon="8.7717167"><ele>394.0</ele><time>2026-04-16T14:00:17.749Z</time></trkpt><trkpt lat="40.5002767" lon="8.7717817"><ele>394.0</ele><time>2026-04-16T14:00:18.748Z</time></trkpt><trkpt lat="40.5002217" lon="8.7718517"><ele>394.2</ele><time>2026-04-16T14:00:19.748Z</time></trkpt><trkpt lat="40.5001633" lon="8.7718967"><ele>394.4</ele><time>2026-04-16T14:00:20.749Z</time></trkpt><trkpt lat="40.5000833" lon="8.7719183"><ele>394.6</ele><time>2026-04-16T14:00:21.749Z</time></trkpt><trkpt lat="40.4999933" lon="8.7719133"><ele>394.8</ele><time>2026-04-16T14:00:22.749Z</time></trkpt><trkpt lat="40.499885" lon="8.77192"><ele>395.0</ele><time>2026-04-16T14:00:23.749Z</time></trkpt><trkpt lat="40.4997717" lon="8.7719283"><ele>395.0</ele><time>2026-04-16T14:00:24.749Z</time></trkpt><trkpt lat="40.4996533" lon="8.7719417"><ele>395.0</ele><time>2026-04-16T14:00:25.749Z</time></trkpt><trkpt lat="40.49953" lon="8.7719567"><ele>395.0</ele><time>2026-04-16T14:00:26.749Z</time></trkpt><trkpt lat="40.4994117" lon="8.7719867"><ele>395.0</ele><time>2026-04-16T14:00:27.749Z</time></trkpt><trkpt lat="40.4992917" lon="8.7720283"><ele>395.5</ele><time>2026-04-16T14:00:28.749Z</time></trkpt><trkpt lat="40.49917" lon="8.7720617"><ele>396.0</ele><time>2026-04-16T14:00:29.749Z</time></trkpt><trkpt lat="40.4990483" lon="8.7720733"><ele>396.5</ele><time>2026-04-16T14:00:30.749Z</time></trkpt><trkpt lat="40.4989267" lon="8.7720783"><ele>397.0</ele><time>2026-04-16T14:00:31.749Z</time></trkpt><trkpt lat="40.4988" lon="8.7720817"><ele>396.0</ele><time>2026-04-16T14:00:32.748Z</time></trkpt><trkpt lat="40.49867" lon="8.7720867"><ele>395.0</ele><time>2026-04-16T14:00:33.748Z</time></trkpt><trkpt lat="40.498545" lon="8.7720933"><ele>394.0</ele><time>2026-04-16T14:00:34.749Z</time></trkpt><trkpt lat="40.49842" lon="8.772105"><ele>393.0</ele><time>2026-04-16T14:00:35.749Z</time></trkpt><trkpt lat="40.4982983" lon="8.772125"><ele>393.0</ele><time>2026-04-16T14:00:36.748Z</time></trkpt><trkpt lat="40.4981783" lon="8.7721633"><ele>393.0</ele><time>2026-04-16T14:00:37.749Z</time></trkpt><trkpt lat="40.4980633" lon="8.7722083"><ele>393.0</ele><time>2026-04-16T14:00:38.748Z</time></trkpt><trkpt lat="40.4979483" lon="8.7722633"><ele>393.0</ele><time>2026-04-16T14:00:39.749Z</time></trkpt><trkpt lat="40.4978367" lon="8.772325"><ele>389.75</ele><time>2026-04-16T14:00:40.749Z</time></trkpt><trkpt lat="40.497725" lon="8.7723817"><ele>386.5</ele><time>2026-04-16T14:00:41.748Z</time></trkpt><trkpt lat="40.4976117" lon="8.7724383"><ele>383.25</ele><time>2026-04-16T14:00:42.748Z</time></trkpt><trkpt lat="40.497495" lon="8.7725"><ele>380.0</ele><time>2026-04-16T14:00:43.749Z</time></trkpt><trkpt lat="40.49738" lon="8.772555"><ele>380.0</ele><time>2026-04-16T14:00:44.749Z</time></trkpt><trkpt lat="40.4972667" lon="8.7726033"><ele>380.0</ele><time>2026-04-16T14:00:45.749Z</time></trkpt><trkpt lat="40.4971533" lon="8.77266"><ele>380.0</ele><time>2026-04-16T14:00:46.749Z</time></trkpt><trkpt lat="40.4970417" lon="8.7727133"><ele>380.0</ele><time>2026-04-16T14:00:47.749Z</time></trkpt><trkpt lat="40.4969383" lon="8.7727683"><ele>377.0</ele><time>2026-04-16T14:00:48.748Z</time></trkpt><trkpt lat="40.4968467" lon="8.7728083"><ele>374.0</ele><time>2026-04-16T14:00:49.749Z</time></trkpt><trkpt lat="40.496765" lon="8.7728433"><ele>371.0</ele><time>2026-04-16T14:00:50.748Z</time></trkpt><trkpt lat="40.4966833" lon="8.772855"><ele>368.0</ele><time>2026-04-16T14:00:51.749Z</time></trkpt><trkpt lat="40.4965883" lon="8.7728467"><ele>365.0</ele><time>2026-04-16T14:00:52.748Z</time></trkpt><trkpt lat="40.4964767" lon="8.7728183"><ele>365.0</ele><time>2026-04-16T14:00:53.748Z</time></trkpt><trkpt lat="40.496355" lon="8.772775"><ele>365.0</ele><time>2026-04-16T14:00:54.749Z</time></trkpt><trkpt lat="40.4962267" lon="8.7727167"><ele>365.0</ele><time>2026-04-16T14:00:55.749Z</time></trkpt><trkpt lat="40.4961017" lon="8.772655"><ele>365.0</ele><time>2026-04-16T14:00:56.749Z</time></trkpt><trkpt lat="40.49598" lon="8.77258"><ele>362.75</ele><time>2026-04-16T14:00:57.749Z</time></trkpt><trkpt lat="40.4958667" lon="8.7725067"><ele>360.5</ele><time>2026-04-16T14:00:58.748Z</time></trkpt><trkpt lat="40.495755" lon="8.7724317"><ele>358.25</ele><time>2026-04-16T14:00:59.749Z</time></trkpt><trkpt lat="40.495635" lon="8.7723567"><ele>356.0</ele><time>2026-04-16T14:01:00.749Z</time></trkpt><trkpt lat="40.49551" lon="8.772285"><ele>354.25</ele><time>2026-04-16T14:01:01.749Z</time></trkpt><trkpt lat="40.4953833" lon="8.7722217"><ele>352.5</ele><time>2026-04-16T14:01:02.749Z</time></trkpt><trkpt lat="40.4952533" lon="8.7721467"><ele>350.75</ele><time>2026-04-16T14:01:03.749Z</time></trkpt><trkpt lat="40.4951183" lon="8.7720767"><ele>349.0</ele><time>2026-04-16T14:01:04.749Z</time></trkpt><trkpt lat="40.4949817" lon="8.77201"><ele>349.0</ele><time>2026-04-16T14:01:05.748Z</time></trkpt><trkpt lat="40.4948483" lon="8.7719383"><ele>349.0</ele><time>2026-04-16T14:01:06.748Z</time></trkpt><trkpt lat="40.4947217" lon="8.7718817"><ele>349.0</ele><time>2026-04-16T14:01:07.749Z</time></trkpt><trkpt lat="40.494595" lon="8.7718433"><ele>349.0</ele><time>2026-04-16T14:01:08.748Z</time></trkpt><trkpt lat="40.494465" lon="8.77182"><ele>349.0</ele><time>2026-04-16T14:01:09.748Z</time></trkpt><trkpt lat="40.4943317" lon="8.7717983"><ele>349.0</ele><time>2026-04-16T14:01:10.748Z</time></trkpt><trkpt lat="40.4942033" lon="8.7717867"><ele>349.0</ele><time>2026-04-16T14:01:11.749Z</time></trkpt><trkpt lat="40.4940717" lon="8.7717833"><ele>349.0</ele><time>2026-04-16T14:01:12.749Z</time></trkpt><trkpt lat="40.493935" lon="8.7717883"><ele>349.0</ele><time>2026-04-16T14:01:13.749Z</time></trkpt><trkpt lat="40.4937933" lon="8.7718067"><ele>349.0</ele><time>2026-04-16T14:01:14.748Z</time></trkpt><trkpt lat="40.493645" lon="8.77183"><ele>349.0</ele><time>2026-04-16T14:01:15.748Z</time></trkpt><trkpt lat="40.4934933" lon="8.7718533"><ele>349.0</ele><time>2026-04-16T14:01:16.748Z</time></trkpt><trkpt lat="40.4933367" lon="8.7718717"><ele>348.66666666666663</ele><time>2026-04-16T14:01:17.749Z</time></trkpt><trkpt lat="40.4931767" lon="8.7718917"><ele>348.3333333333333</ele><time>2026-04-16T14:01:18.749Z</time></trkpt><trkpt lat="40.493015" lon="8.7719117"><ele>348.0</ele><time>2026-04-16T14:01:19.749Z</time></trkpt><trkpt lat="40.4928617" lon="8.7719383"><ele>348.0</ele><time>2026-04-16T14:01:20.749Z</time></trkpt><trkpt lat="40.4927167" lon="8.77198"><ele>348.0</ele><time>2026-04-16T14:01:21.749Z</time></trkpt><trkpt lat="40.4925817" lon="8.7720333"><ele>348.0</ele><time>2026-04-16T14:01:22.748Z</time></trkpt><trkpt lat="40.4924483" lon="8.77208"><ele>348.0</ele><time>2026-04-16T14:01:23.748Z</time></trkpt><trkpt lat="40.492305" lon="8.7721167"><ele>348.0</ele><time>2026-04-16T14:01:24.748Z</time></trkpt><trkpt lat="40.4921583" lon="8.7721367"><ele>348.0</ele><time>2026-04-16T14:01:25.749Z</time></trkpt><trkpt lat="40.4920067" lon="8.7721517"><ele>348.0</ele><time>2026-04-16T14:01:26.749Z</time></trkpt><trkpt lat="40.491855" lon="8.7721733"><ele>347.6666666666667</ele><time>2026-04-16T14:01:27.749Z</time></trkpt><trkpt lat="40.4916983" lon="8.7721967"><ele>347.33333333333337</ele><time>2026-04-16T14:01:28.749Z</time></trkpt><trkpt lat="40.491545" lon="8.772225"><ele>347.0</ele><time>2026-04-16T14:01:29.749Z</time></trkpt><trkpt lat="40.49139" lon="8.7722483"><ele>347.75</ele><time>2026-04-16T14:01:30.749Z</time></trkpt><trkpt lat="40.4912383" lon="8.7722717"><ele>348.5</ele><time>2026-04-16T14:01:31.749Z</time></trkpt><trkpt lat="40.4910917" lon="8.7722933"><ele>349.25</ele><time>2026-04-16T14:01:32.749Z</time></trkpt><trkpt lat="40.490945" lon="8.7723117"><ele>350.0</ele><time>2026-04-16T14:01:33.748Z</time></trkpt><trkpt lat="40.4908033" lon="8.7723317"><ele>350.0</ele><time>2026-04-16T14:01:34.749Z</time></trkpt><trkpt lat="40.4906767" lon="8.7723633"><ele>350.0</ele><time>2026-04-16T14:01:35.749Z</time></trkpt><trkpt lat="40.490575" lon="8.7724017"><ele>350.0</ele><time>2026-04-16T14:01:36.748Z</time></trkpt><trkpt lat="40.4904817" lon="8.772465"><ele>350.0</ele><time>2026-04-16T14:01:37.748Z</time></trkpt><trkpt lat="40.4904017" lon="8.7725633"><ele>350.0</ele><time>2026-04-16T14:01:38.749Z</time></trkpt><trkpt lat="40.49032" lon="8.772675"><ele>351.25</ele><time>2026-04-16T14:01:39.749Z</time></trkpt><trkpt lat="40.490235" lon="8.77278"><ele>352.5</ele><time>2026-04-16T14:01:40.749Z</time></trkpt><trkpt lat="40.49014" lon="8.7728867"><ele>353.75</ele><time>2026-04-16T14:01:41.748Z</time></trkpt><trkpt lat="40.49005" lon="8.7730083"><ele>355.0</ele><time>2026-04-16T14:01:42.749Z</time></trkpt><trkpt lat="40.489965" lon="8.7731333"><ele>355.0</ele><time>2026-04-16T14:01:43.748Z</time></trkpt><trkpt lat="40.4898767" lon="8.7732683"><ele>355.0</ele><time>2026-04-16T14:01:44.748Z</time></trkpt><trkpt lat="40.4897883" lon="8.7734017"><ele>355.0</ele><time>2026-04-16T14:01:45.749Z</time></trkpt><trkpt lat="40.489695" lon="8.77353"><ele>355.0</ele><time>2026-04-16T14:01:46.749Z</time></trkpt><trkpt lat="40.489595" lon="8.773655"><ele>355.5</ele><time>2026-04-16T14:01:47.748Z</time></trkpt><trkpt lat="40.4894917" lon="8.7737717"><ele>356.0</ele><time>2026-04-16T14:01:48.749Z</time></trkpt><trkpt lat="40.4893833" lon="8.7738817"><ele>356.5</ele><time>2026-04-16T14:01:49.749Z</time></trkpt><trkpt lat="40.4892833" lon="8.7739967"><ele>357.0</ele><time>2026-04-16T14:01:50.748Z</time></trkpt><trkpt lat="40.4891883" lon="8.7741183"><ele>357.0</ele><time>2026-04-16T14:01:51.748Z</time></trkpt><trkpt lat="40.4890933" lon="8.7742417"><ele>357.0</ele><time>2026-04-16T14:01:52.748Z</time></trkpt><trkpt lat="40.4889983" lon="8.7743683"><ele>357.0</ele><time>2026-04-16T14:01:53.748Z</time></trkpt><trkpt lat="40.488905" lon="8.7745"><ele>357.0</ele><time>2026-04-16T14:01:54.748Z</time></trkpt><trkpt lat="40.4888117" lon="8.7746383"><ele>357.0</ele><time>2026-04-16T14:01:55.748Z</time></trkpt><trkpt lat="40.4887183" lon="8.7747817"><ele>357.0</ele><time>2026-04-16T14:01:56.748Z</time></trkpt><trkpt lat="40.4886233" lon="8.77493"><ele>357.0</ele><time>2026-04-16T14:01:57.749Z</time></trkpt><trkpt lat="40.48853" lon="8.775075"><ele>357.0</ele><time>2026-04-16T14:01:58.748Z</time></trkpt><trkpt lat="40.4884367" lon="8.7752117"><ele>357.0</ele><time>2026-04-16T14:01:59.749Z</time></trkpt><trkpt lat="40.4883317" lon="8.7753383"><ele>357.0</ele><time>2026-04-16T14:02:00.748Z</time></trkpt><trkpt lat="40.4882217" lon="8.7754583"><ele>357.0</ele><time>2026-04-16T14:02:01.749Z</time></trkpt><trkpt lat="40.4881017" lon="8.7755733"><ele>357.0</ele><time>2026-04-16T14:02:02.749Z</time></trkpt><trkpt lat="40.48799" lon="8.7756817"><ele>356.75</ele><time>2026-04-16T14:02:03.748Z</time></trkpt><trkpt lat="40.4878817" lon="8.7757733"><ele>356.5</ele><time>2026-04-16T14:02:04.748Z</time></trkpt><trkpt lat="40.4877767" lon="8.7758567"><ele>356.25</ele><time>2026-04-16T14:02:05.749Z</time></trkpt><trkpt lat="40.487665" lon="8.7759317"><ele>356.0</ele><time>2026-04-16T14:02:06.749Z</time></trkpt><trkpt lat="40.4875467" lon="8.775995"><ele>356.0</ele><time>2026-04-16T14:02:07.749Z</time></trkpt><trkpt lat="40.48742" lon="8.7760583"><ele>356.0</ele><time>2026-04-16T14:02:08.749Z</time></trkpt><trkpt lat="40.487285" lon="8.7761283"><ele>356.0</ele><time>2026-04-16T14:02:09.749Z</time></trkpt><trkpt lat="40.487155" lon="8.7762133"><ele>356.0</ele><time>2026-04-16T14:02:10.748Z</time></trkpt><trkpt lat="40.4870233" lon="8.7763217"><ele>356.0</ele><time>2026-04-16T14:02:11.749Z</time></trkpt><trkpt lat="40.4868933" lon="8.776445"><ele>356.0</ele><time>2026-04-16T14:02:12.748Z</time></trkpt><trkpt lat="40.4867683" lon="8.77658"><ele>356.0</ele><time>2026-04-16T14:02:13.749Z</time></trkpt><trkpt lat="40.4866417" lon="8.77672"><ele>356.0</ele><time>2026-04-16T14:02:14.748Z</time></trkpt><trkpt lat="40.4865183" lon="8.7768483"><ele>356.0</ele><time>2026-04-16T14:02:15.748Z</time></trkpt><trkpt lat="40.4864033" lon="8.7769667"><ele>356.0</ele><time>2026-04-16T14:02:16.748Z</time></trkpt><trkpt lat="40.4863" lon="8.777075"><ele>356.0</ele><time>2026-04-16T14:02:17.749Z</time></trkpt><trkpt lat="40.4862067" lon="8.7771733"><ele>356.4</ele><time>2026-04-16T14:02:18.748Z</time></trkpt><trkpt lat="40.4861233" lon="8.77725"><ele>356.8</ele><time>2026-04-16T14:02:19.749Z</time></trkpt><trkpt lat="40.4860517" lon="8.7772967"><ele>357.2</ele><time>2026-04-16T14:02:20.748Z</time></trkpt><trkpt lat="40.4859417" lon="8.777275"><ele>357.59999999999997</ele><time>2026-04-16T14:02:22.748Z</time></trkpt><trkpt lat="40.4858583" lon="8.7772"><ele>358.0</ele><time>2026-04-16T14:02:24.748Z</time></trkpt><trkpt lat="40.485765" lon="8.7772267"><ele>358.0</ele><time>2026-04-16T14:02:26.749Z</time></trkpt><trkpt lat="40.4857183" lon="8.77729"><ele>358.0</ele><time>2026-04-16T14:02:27.748Z</time></trkpt><trkpt lat="40.4856783" lon="8.7773867"><ele>358.0</ele><time>2026-04-16T14:02:28.748Z</time></trkpt><trkpt lat="40.4856333" lon="8.7775067"><ele>358.0</ele><time>2026-04-16T14:02:29.749Z</time></trkpt><trkpt lat="40.4855833" lon="8.77764"><ele>358.0</ele><time>2026-04-16T14:02:30.748Z</time></trkpt><trkpt lat="40.4855283" lon="8.7777833"><ele>357.5</ele><time>2026-04-16T14:02:31.749Z</time></trkpt><trkpt lat="40.4854667" lon="8.7779367"><ele>357.0</ele><time>2026-04-16T14:02:32.749Z</time></trkpt><trkpt lat="40.4854" lon="8.7781"><ele>356.5</ele><time>2026-04-16T14:02:33.748Z</time></trkpt><trkpt lat="40.4853267" lon="8.7782833"><ele>356.0</ele><time>2026-04-16T14:02:34.748Z</time></trkpt><trkpt lat="40.4852517" lon="8.778475"><ele>355.33333333333337</ele><time>2026-04-16T14:02:35.748Z</time></trkpt><trkpt lat="40.4851767" lon="8.7786667"><ele>354.6666666666667</ele><time>2026-04-16T14:02:36.748Z</time></trkpt><trkpt lat="40.4850983" lon="8.778855"><ele>354.0</ele><time>2026-04-16T14:02:37.748Z</time></trkpt><trkpt lat="40.4850217" lon="8.77905"><ele>354.0</ele><time>2026-04-16T14:02:38.749Z</time></trkpt><trkpt lat="40.4849483" lon="8.77924"><ele>354.0</ele><time>2026-04-16T14:02:39.749Z</time></trkpt><trkpt lat="40.484875" lon="8.7794267"><ele>354.0</ele><time>2026-04-16T14:02:40.749Z</time></trkpt><trkpt lat="40.4847983" lon="8.7796167"><ele>354.0</ele><time>2026-04-16T14:02:41.748Z</time></trkpt><trkpt lat="40.484725" lon="8.7798067"><ele>354.0</ele><time>2026-04-16T14:02:42.748Z</time></trkpt><trkpt lat="40.48465" lon="8.78"><ele>354.0</ele><time>2026-04-16T14:02:43.749Z</time></trkpt><trkpt lat="40.4845767" lon="8.7801867"><ele>354.3333333333333</ele><time>2026-04-16T14:02:44.749Z</time></trkpt><trkpt lat="40.4845067" lon="8.78037"><ele>354.66666666666663</ele><time>2026-04-16T14:02:45.748Z</time></trkpt><trkpt lat="40.484435" lon="8.7805517"><ele>355.0</ele><time>2026-04-16T14:02:46.749Z</time></trkpt><trkpt lat="40.4843667" lon="8.78072"><ele>355.0</ele><time>2026-04-16T14:02:47.748Z</time></trkpt><trkpt lat="40.484305" lon="8.7808633"><ele>355.0</ele><time>2026-04-16T14:02:48.748Z</time></trkpt><trkpt lat="40.4842533" lon="8.78099"><ele>355.0</ele><time>2026-04-16T14:02:49.748Z</time></trkpt><trkpt lat="40.4842117" lon="8.7810983"><ele>355.0</ele><time>2026-04-16T14:02:50.748Z</time></trkpt><trkpt lat="40.4841733" lon="8.7811917"><ele>355.0</ele><time>2026-04-16T14:02:51.748Z</time></trkpt><trkpt lat="40.4841333" lon="8.7812883"><ele>355.0</ele><time>2026-04-16T14:02:52.749Z</time></trkpt><trkpt lat="40.484085" lon="8.7814017"><ele>355.0</ele><time>2026-04-16T14:02:53.749Z</time></trkpt><trkpt lat="40.4840317" lon="8.78153"><ele>355.0</ele><time>2026-04-16T14:02:54.749Z</time></trkpt><trkpt lat="40.4839683" lon="8.7816683"><ele>355.0</ele><time>2026-04-16T14:02:55.748Z</time></trkpt><trkpt lat="40.4839017" lon="8.7818017"><ele>355.0</ele><time>2026-04-16T14:02:56.749Z</time></trkpt><trkpt lat="40.48382" lon="8.7819367"><ele>355.0</ele><time>2026-04-16T14:02:57.749Z</time></trkpt><trkpt lat="40.4837333" lon="8.7820733"><ele>355.0</ele><time>2026-04-16T14:02:58.749Z</time></trkpt><trkpt lat="40.4836433" lon="8.78221"><ele>355.0</ele><time>2026-04-16T14:02:59.749Z</time></trkpt><trkpt lat="40.4835467" lon="8.7823517"><ele>355.0</ele><time>2026-04-16T14:03:00.749Z</time></trkpt><trkpt lat="40.48344" lon="8.7824917"><ele>355.0</ele><time>2026-04-16T14:03:01.748Z</time></trkpt><trkpt lat="40.483325" lon="8.7826267"><ele>355.0</ele><time>2026-04-16T14:03:02.749Z</time></trkpt><trkpt lat="40.4832" lon="8.7827633"><ele>355.3333333333333</ele><time>2026-04-16T14:03:03.748Z</time></trkpt><trkpt lat="40.4830633" lon="8.782895"><ele>355.6666666666667</ele><time>2026-04-16T14:03:04.748Z</time></trkpt><trkpt lat="40.48292" lon="8.7830133"><ele>356.0</ele><time>2026-04-16T14:03:05.748Z</time></trkpt><trkpt lat="40.4827733" lon="8.7831267"><ele>355.33333333333337</ele><time>2026-04-16T14:03:06.749Z</time></trkpt><trkpt lat="40.48263" lon="8.783225"><ele>354.6666666666667</ele><time>2026-04-16T14:03:07.748Z</time></trkpt><trkpt lat="40.482485" lon="8.783325"><ele>354.0</ele><time>2026-04-16T14:03:08.748Z</time></trkpt><trkpt lat="40.4823417" lon="8.78344"><ele>353.6666666666667</ele><time>2026-04-16T14:03:09.748Z</time></trkpt><trkpt lat="40.4821983" lon="8.78357"><ele>353.33333333333337</ele><time>2026-04-16T14:03:10.749Z</time></trkpt><trkpt lat="40.482055" lon="8.7837083"><ele>353.0</ele><time>2026-04-16T14:03:11.749Z</time></trkpt><trkpt lat="40.4819183" lon="8.7838517"><ele>352.6666666666667</ele><time>2026-04-16T14:03:12.749Z</time></trkpt><trkpt lat="40.4817833" lon="8.7840083"><ele>352.3333333333333</ele><time>2026-04-16T14:03:13.748Z</time></trkpt><trkpt lat="40.48166" lon="8.78417"><ele>352.0</ele><time>2026-04-16T14:03:14.748Z</time></trkpt><trkpt lat="40.4815367" lon="8.784345"><ele>352.0</ele><time>2026-04-16T14:03:15.748Z</time></trkpt><trkpt lat="40.48142" lon="8.7845183"><ele>352.0</ele><time>2026-04-16T14:03:16.748Z</time></trkpt><trkpt lat="40.4813033" lon="8.784695"><ele>352.0</ele><time>2026-04-16T14:03:17.748Z</time></trkpt><trkpt lat="40.48119" lon="8.784865"><ele>351.66666666666663</ele><time>2026-04-16T14:03:18.747Z</time></trkpt><trkpt lat="40.481075" lon="8.785045"><ele>351.3333333333333</ele><time>2026-04-16T14:03:19.747Z</time></trkpt><trkpt lat="40.4809683" lon="8.7852183"><ele>351.0</ele><time>2026-04-16T14:03:20.748Z</time></trkpt><trkpt lat="40.48086" lon="8.7853917"><ele>351.0</ele><time>2026-04-16T14:03:21.747Z</time></trkpt><trkpt lat="40.4807517" lon="8.7855717"><ele>351.0</ele><time>2026-04-16T14:03:22.747Z</time></trkpt><trkpt lat="40.4806467" lon="8.785755"><ele>351.0</ele><time>2026-04-16T14:03:23.747Z</time></trkpt><trkpt lat="40.4805417" lon="8.7859433"><ele>351.3333333333333</ele><time>2026-04-16T14:03:24.748Z</time></trkpt><trkpt lat="40.4804367" lon="8.7861233"><ele>351.66666666666663</ele><time>2026-04-16T14:03:25.747Z</time></trkpt><trkpt lat="40.4803333" lon="8.7863067"><ele>352.0</ele><time>2026-04-16T14:03:26.747Z</time></trkpt><trkpt lat="40.48023" lon="8.7864917"><ele>352.0</ele><time>2026-04-16T14:03:27.748Z</time></trkpt><trkpt lat="40.4801283" lon="8.7866733"><ele>352.0</ele><time>2026-04-16T14:03:28.748Z</time></trkpt><trkpt lat="40.48003" lon="8.7868617"><ele>352.0</ele><time>2026-04-16T14:03:29.747Z</time></trkpt><trkpt lat="40.4799233" lon="8.787045"><ele>352.0</ele><time>2026-04-16T14:03:30.747Z</time></trkpt><trkpt lat="40.4798067" lon="8.7872283"><ele>352.0</ele><time>2026-04-16T14:03:31.747Z</time></trkpt><trkpt lat="40.479685" lon="8.78741"><ele>352.0</ele><time>2026-04-16T14:03:32.748Z</time></trkpt><trkpt lat="40.4795583" lon="8.7875883"><ele>351.66666666666663</ele><time>2026-04-16T14:03:33.748Z</time></trkpt><trkpt lat="40.4794317" lon="8.7877683"><ele>351.3333333333333</ele><time>2026-04-16T14:03:34.747Z</time></trkpt><trkpt lat="40.4793017" lon="8.787955"><ele>351.0</ele><time>2026-04-16T14:03:35.747Z</time></trkpt><trkpt lat="40.4791733" lon="8.78814"><ele>351.0</ele><time>2026-04-16T14:03:36.748Z</time></trkpt><trkpt lat="40.4790433" lon="8.7883233"><ele>351.0</ele><time>2026-04-16T14:03:37.748Z</time></trkpt><trkpt lat="40.4789133" lon="8.78851"><ele>351.0</ele><time>2026-04-16T14:03:38.748Z</time></trkpt><trkpt lat="40.47879" lon="8.7886933"><ele>351.3333333333333</ele><time>2026-04-16T14:03:39.748Z</time></trkpt><trkpt lat="40.478665" lon="8.788875"><ele>351.66666666666663</ele><time>2026-04-16T14:03:40.747Z</time></trkpt><trkpt lat="40.4785367" lon="8.7890567"><ele>352.0</ele><time>2026-04-16T14:03:41.748Z</time></trkpt><trkpt lat="40.4784083" lon="8.7892383"><ele>351.66666666666663</ele><time>2026-04-16T14:03:42.747Z</time></trkpt><trkpt lat="40.4782783" lon="8.7894267"><ele>351.3333333333333</ele><time>2026-04-16T14:03:43.747Z</time></trkpt><trkpt lat="40.4781483" lon="8.7896167"><ele>351.0</ele><time>2026-04-16T14:03:44.747Z</time></trkpt><trkpt lat="40.4780233" lon="8.7898017"><ele>351.0</ele><time>2026-04-16T14:03:45.748Z</time></trkpt><trkpt lat="40.477895" lon="8.78999"><ele>351.0</ele><time>2026-04-16T14:03:46.748Z</time></trkpt><trkpt lat="40.4777633" lon="8.7901817"><ele>351.0</ele><time>2026-04-16T14:03:47.747Z</time></trkpt><trkpt lat="40.47763" lon="8.7903717"><ele>351.0</ele><time>2026-04-16T14:03:48.747Z</time></trkpt><trkpt lat="40.4774967" lon="8.7905617"><ele>351.0</ele><time>2026-04-16T14:03:49.747Z</time></trkpt><trkpt lat="40.4773617" lon="8.79075"><ele>351.0</ele><time>2026-04-16T14:03:50.747Z</time></trkpt><trkpt lat="40.4772283" lon="8.7909417"><ele>350.6666666666667</ele><time>2026-04-16T14:03:51.747Z</time></trkpt><trkpt lat="40.477095" lon="8.791135"><ele>350.33333333333337</ele><time>2026-04-16T14:03:52.748Z</time></trkpt><trkpt lat="40.4769633" lon="8.7913317"><ele>350.0</ele><time>2026-04-16T14:03:53.748Z</time></trkpt><trkpt lat="40.4768317" lon="8.7915183"><ele>350.0</ele><time>2026-04-16T14:03:54.747Z</time></trkpt><trkpt lat="40.4766967" lon="8.79171"><ele>350.0</ele><time>2026-04-16T14:03:55.748Z</time></trkpt><trkpt lat="40.4765633" lon="8.7918933"><ele>350.0</ele><time>2026-04-16T14:03:56.748Z</time></trkpt><trkpt lat="40.476435" lon="8.79208"><ele>349.6666666666667</ele><time>2026-04-16T14:03:57.747Z</time></trkpt><trkpt lat="40.4763033" lon="8.792265"><ele>349.3333333333333</ele><time>2026-04-16T14:03:58.748Z</time></trkpt><trkpt lat="40.4761767" lon="8.7924533"><ele>349.0</ele><time>2026-04-16T14:03:59.748Z</time></trkpt><trkpt lat="40.4760517" lon="8.7926367"><ele>349.3333333333333</ele><time>2026-04-16T14:04:00.748Z</time></trkpt><trkpt lat="40.4759267" lon="8.79282"><ele>349.6666666666667</ele><time>2026-04-16T14:04:01.747Z</time></trkpt><trkpt lat="40.4758033" lon="8.7930017"><ele>350.0</ele><time>2026-04-16T14:04:02.747Z</time></trkpt><trkpt lat="40.475675" lon="8.7931783"><ele>350.0</ele><time>2026-04-16T14:04:03.748Z</time></trkpt><trkpt lat="40.4755533" lon="8.793355"><ele>350.0</ele><time>2026-04-16T14:04:04.748Z</time></trkpt><trkpt lat="40.4754267" lon="8.7935367"><ele>350.0</ele><time>2026-04-16T14:04:05.748Z</time></trkpt><trkpt lat="40.4753033" lon="8.7937167"><ele>349.33333333333337</ele><time>2026-04-16T14:04:06.748Z</time></trkpt><trkpt lat="40.47518" lon="8.7938883"><ele>348.6666666666667</ele><time>2026-04-16T14:04:07.748Z</time></trkpt><trkpt lat="40.475055" lon="8.79407"><ele>348.0</ele><time>2026-04-16T14:04:08.748Z</time></trkpt><trkpt lat="40.4749233" lon="8.7942517"><ele>348.0</ele><time>2026-04-16T14:04:09.748Z</time></trkpt><trkpt lat="40.474795" lon="8.7944383"><ele>348.0</ele><time>2026-04-16T14:04:10.747Z</time></trkpt><trkpt lat="40.47467" lon="8.7946183"><ele>348.0</ele><time>2026-04-16T14:04:11.748Z</time></trkpt><trkpt lat="40.4745383" lon="8.7948133"><ele>348.0</ele><time>2026-04-16T14:04:12.748Z</time></trkpt><trkpt lat="40.4744" lon="8.7950033"><ele>348.0</ele><time>2026-04-16T14:04:13.747Z</time></trkpt><trkpt lat="40.4742617" lon="8.7951933"><ele>348.0</ele><time>2026-04-16T14:04:14.747Z</time></trkpt><trkpt lat="40.4741233" lon="8.7953733"><ele>347.6666666666667</ele><time>2026-04-16T14:04:15.748Z</time></trkpt><trkpt lat="40.47398" lon="8.7955667"><ele>347.33333333333337</ele><time>2026-04-16T14:04:16.747Z</time></trkpt><trkpt lat="40.4738383" lon="8.7957583"><ele>347.0</ele><time>2026-04-16T14:04:17.747Z</time></trkpt><trkpt lat="40.4736983" lon="8.79595"><ele>346.33333333333337</ele><time>2026-04-16T14:04:18.748Z</time></trkpt><trkpt lat="40.4735617" lon="8.79614"><ele>345.6666666666667</ele><time>2026-04-16T14:04:19.748Z</time></trkpt><trkpt lat="40.4734283" lon="8.7963283"><ele>345.0</ele><time>2026-04-16T14:04:20.747Z</time></trkpt><trkpt lat="40.4732917" lon="8.7965133"><ele>345.0</ele><time>2026-04-16T14:04:21.748Z</time></trkpt><trkpt lat="40.4731517" lon="8.7967017"><ele>345.0</ele><time>2026-04-16T14:04:22.748Z</time></trkpt><trkpt lat="40.4730117" lon="8.7968883"><ele>345.0</ele><time>2026-04-16T14:04:23.747Z</time></trkpt><trkpt lat="40.4728717" lon="8.7970783"><ele>344.6666666666667</ele><time>2026-04-16T14:04:24.748Z</time></trkpt><trkpt lat="40.472735" lon="8.7972633"><ele>344.33333333333337</ele><time>2026-04-16T14:04:25.748Z</time></trkpt><trkpt lat="40.472595" lon="8.7974533"><ele>344.0</ele><time>2026-04-16T14:04:26.747Z</time></trkpt><trkpt lat="40.4724533" lon="8.7976467"><ele>344.0</ele><time>2026-04-16T14:04:27.747Z</time></trkpt><trkpt lat="40.4723133" lon="8.7978433"><ele>344.0</ele><time>2026-04-16T14:04:28.748Z</time></trkpt><trkpt lat="40.4721733" lon="8.7980383"><ele>344.0</ele><time>2026-04-16T14:04:29.748Z</time></trkpt><trkpt lat="40.4720333" lon="8.7982317"><ele>344.0</ele><time>2026-04-16T14:04:30.748Z</time></trkpt><trkpt lat="40.4718867" lon="8.7984267"><ele>344.0</ele><time>2026-04-16T14:04:31.748Z</time></trkpt><trkpt lat="40.4717433" lon="8.7986167"><ele>344.0</ele><time>2026-04-16T14:04:32.747Z</time></trkpt><trkpt lat="40.4716" lon="8.7988117"><ele>344.0</ele><time>2026-04-16T14:04:33.748Z</time></trkpt><trkpt lat="40.4714583" lon="8.7990033"><ele>344.0</ele><time>2026-04-16T14:04:34.748Z</time></trkpt><trkpt lat="40.4713167" lon="8.7991933"><ele>344.0</ele><time>2026-04-16T14:04:35.748Z</time></trkpt><trkpt lat="40.471175" lon="8.7993883"><ele>342.6666666666667</ele><time>2026-04-16T14:04:36.748Z</time></trkpt><trkpt lat="40.4710333" lon="8.7995867"><ele>341.3333333333333</ele><time>2026-04-16T14:04:37.748Z</time></trkpt><trkpt lat="40.47089" lon="8.7997833"><ele>340.0</ele><time>2026-04-16T14:04:38.747Z</time></trkpt><trkpt lat="40.4707483" lon="8.7999833"><ele>339.66666666666663</ele><time>2026-04-16T14:04:39.748Z</time></trkpt><trkpt lat="40.470605" lon="8.8001783"><ele>339.3333333333333</ele><time>2026-04-16T14:04:40.747Z</time></trkpt><trkpt lat="40.4704633" lon="8.8003733"><ele>339.0</ele><time>2026-04-16T14:04:41.747Z</time></trkpt><trkpt lat="40.47032" lon="8.8005717"><ele>339.0</ele><time>2026-04-16T14:04:42.748Z</time></trkpt><trkpt lat="40.4701767" lon="8.800765"><ele>339.0</ele><time>2026-04-16T14:04:43.748Z</time></trkpt><trkpt lat="40.470035" lon="8.8009617"><ele>339.0</ele><time>2026-04-16T14:04:44.748Z</time></trkpt><trkpt lat="40.4698967" lon="8.8011567"><ele>339.0</ele><time>2026-04-16T14:04:45.747Z</time></trkpt><trkpt lat="40.4697583" lon="8.80135"><ele>339.0</ele><time>2026-04-16T14:04:46.747Z</time></trkpt><trkpt lat="40.469635" lon="8.801525"><ele>339.0</ele><time>2026-04-16T14:04:47.748Z</time></trkpt><trkpt lat="40.46952" lon="8.8016967"><ele>339.0</ele><time>2026-04-16T14:04:48.748Z</time></trkpt><trkpt lat="40.46941" lon="8.8018867"><ele>339.0</ele><time>2026-04-16T14:04:49.747Z</time></trkpt><trkpt lat="40.4693217" lon="8.80208"><ele>339.0</ele><time>2026-04-16T14:04:50.747Z</time></trkpt><trkpt lat="40.469245" lon="8.80229"><ele>339.0</ele><time>2026-04-16T14:04:51.748Z</time></trkpt><trkpt lat="40.4691867" lon="8.8025133"><ele>339.0</ele><time>2026-04-16T14:04:52.748Z</time></trkpt><trkpt lat="40.4691433" lon="8.8027517"><ele>339.0</ele><time>2026-04-16T14:04:53.748Z</time></trkpt><trkpt lat="40.469115" lon="8.802995"><ele>339.0</ele><time>2026-04-16T14:04:54.748Z</time></trkpt><trkpt lat="40.4691017" lon="8.8032467"><ele>339.0</ele><time>2026-04-16T14:04:55.748Z</time></trkpt><trkpt lat="40.469095" lon="8.8035067"><ele>339.0</ele><time>2026-04-16T14:04:56.748Z</time></trkpt><trkpt lat="40.4690883" lon="8.8037667"><ele>339.0</ele><time>2026-04-16T14:04:57.748Z</time></trkpt><trkpt lat="40.4690767" lon="8.8040283"><ele>339.0</ele><time>2026-04-16T14:04:58.748Z</time></trkpt><trkpt lat="40.4690633" lon="8.8042983"><ele>339.0</ele><time>2026-04-16T14:04:59.748Z</time></trkpt><trkpt lat="40.4690517" lon="8.8045633"><ele>339.3333333333333</ele><time>2026-04-16T14:05:00.748Z</time></trkpt><trkpt lat="40.46904" lon="8.8048267"><ele>339.66666666666663</ele><time>2026-04-16T14:05:01.748Z</time></trkpt><trkpt lat="40.469035" lon="8.80508"><ele>340.0</ele><time>2026-04-16T14:05:02.748Z</time></trkpt><trkpt lat="40.469025" lon="8.8053267"><ele>339.3333333333333</ele><time>2026-04-16T14:05:03.748Z</time></trkpt><trkpt lat="40.4690167" lon="8.8055617"><ele>338.6666666666667</ele><time>2026-04-16T14:05:04.748Z</time></trkpt><trkpt lat="40.4690067" lon="8.8057867"><ele>338.0</ele><time>2026-04-16T14:05:05.748Z</time></trkpt><trkpt lat="40.4689933" lon="8.8060033"><ele>338.0</ele><time>2026-04-16T14:05:06.747Z</time></trkpt><trkpt lat="40.4689717" lon="8.8062217"><ele>338.0</ele><time>2026-04-16T14:05:07.748Z</time></trkpt><trkpt lat="40.4689317" lon="8.8064267"><ele>338.0</ele><time>2026-04-16T14:05:08.747Z</time></trkpt><trkpt lat="40.4688633" lon="8.80663"><ele>337.6666666666667</ele><time>2026-04-16T14:05:09.747Z</time></trkpt><trkpt lat="40.4687717" lon="8.8068283"><ele>337.3333333333333</ele><time>2026-04-16T14:05:10.748Z</time></trkpt><trkpt lat="40.4686733" lon="8.8070317"><ele>337.0</ele><time>2026-04-16T14:05:11.747Z</time></trkpt><trkpt lat="40.4685767" lon="8.8072367"><ele>337.0</ele><time>2026-04-16T14:05:12.748Z</time></trkpt><trkpt lat="40.4684783" lon="8.8074533"><ele>337.0</ele><time>2026-04-16T14:05:13.748Z</time></trkpt><trkpt lat="40.46838" lon="8.8076717"><ele>337.0</ele><time>2026-04-16T14:05:14.748Z</time></trkpt><trkpt lat="40.4682867" lon="8.8078883"><ele>337.3333333333333</ele><time>2026-04-16T14:05:15.748Z</time></trkpt><trkpt lat="40.4681983" lon="8.8081"><ele>337.6666666666667</ele><time>2026-04-16T14:05:16.748Z</time></trkpt><trkpt lat="40.4681017" lon="8.8083083"><ele>338.0</ele><time>2026-04-16T14:05:17.748Z</time></trkpt><trkpt lat="40.4680083" lon="8.8085117"><ele>338.0</ele><time>2026-04-16T14:05:18.748Z</time></trkpt><trkpt lat="40.4679133" lon="8.8087217"><ele>338.0</ele><time>2026-04-16T14:05:19.748Z</time></trkpt><trkpt lat="40.4678083" lon="8.80892"><ele>338.0</ele><time>2026-04-16T14:05:20.747Z</time></trkpt><trkpt lat="40.4676983" lon="8.8091"><ele>338.0</ele><time>2026-04-16T14:05:21.748Z</time></trkpt><trkpt lat="40.46757" lon="8.809265"><ele>338.0</ele><time>2026-04-16T14:05:22.748Z</time></trkpt><trkpt lat="40.4674433" lon="8.8094183"><ele>338.0</ele><time>2026-04-16T14:05:23.747Z</time></trkpt><trkpt lat="40.4673117" lon="8.8095783"><ele>338.33333333333337</ele><time>2026-04-16T14:05:24.748Z</time></trkpt><trkpt lat="40.4671783" lon="8.8097417"><ele>338.6666666666667</ele><time>2026-04-16T14:05:25.748Z</time></trkpt><trkpt lat="40.4670567" lon="8.8098933"><ele>339.0</ele><time>2026-04-16T14:05:26.747Z</time></trkpt><trkpt lat="40.4669317" lon="8.8100433"><ele>339.3333333333333</ele><time>2026-04-16T14:05:27.747Z</time></trkpt><trkpt lat="40.4668067" lon="8.8101983"><ele>339.66666666666663</ele><time>2026-04-16T14:05:28.748Z</time></trkpt><trkpt lat="40.466675" lon="8.8103583"><ele>340.0</ele><time>2026-04-16T14:05:29.748Z</time></trkpt><trkpt lat="40.4665467" lon="8.8105117"><ele>340.0</ele><time>2026-04-16T14:05:30.748Z</time></trkpt><trkpt lat="40.4664267" lon="8.8106533"><ele>340.0</ele><time>2026-04-16T14:05:31.748Z</time></trkpt><trkpt lat="40.46631" lon="8.8107917"><ele>340.0</ele><time>2026-04-16T14:05:32.747Z</time></trkpt><trkpt lat="40.4662017" lon="8.8109317"><ele>339.3333333333333</ele><time>2026-04-16T14:05:33.748Z</time></trkpt><trkpt lat="40.4661017" lon="8.8110833"><ele>338.6666666666667</ele><time>2026-04-16T14:05:34.747Z</time></trkpt><trkpt lat="40.4660167" lon="8.8112533"><ele>338.0</ele><time>2026-04-16T14:05:35.748Z</time></trkpt><trkpt lat="40.4659567" lon="8.81143"><ele>338.0</ele><time>2026-04-16T14:05:36.747Z</time></trkpt><trkpt lat="40.4659117" lon="8.8116283"><ele>338.0</ele><time>2026-04-16T14:05:37.748Z</time></trkpt><trkpt lat="40.46589" lon="8.811835"><ele>338.0</ele><time>2026-04-16T14:05:38.747Z</time></trkpt><trkpt lat="40.4658733" lon="8.812055"><ele>338.0</ele><time>2026-04-16T14:05:39.747Z</time></trkpt><trkpt lat="40.465855" lon="8.8122767"><ele>338.0</ele><time>2026-04-16T14:05:40.747Z</time></trkpt><trkpt lat="40.46584" lon="8.8124983"><ele>338.0</ele><time>2026-04-16T14:05:41.747Z</time></trkpt><trkpt lat="40.465815" lon="8.81273"><ele>338.0</ele><time>2026-04-16T14:05:42.748Z</time></trkpt><trkpt lat="40.4657933" lon="8.812965"><ele>338.0</ele><time>2026-04-16T14:05:43.748Z</time></trkpt><trkpt lat="40.4657733" lon="8.8132017"><ele>338.0</ele><time>2026-04-16T14:05:44.748Z</time></trkpt><trkpt lat="40.4657617" lon="8.8134383"><ele>338.0</ele><time>2026-04-16T14:05:45.747Z</time></trkpt><trkpt lat="40.4657483" lon="8.813675"><ele>338.0</ele><time>2026-04-16T14:05:46.747Z</time></trkpt><trkpt lat="40.4657267" lon="8.8139167"><ele>338.0</ele><time>2026-04-16T14:05:47.747Z</time></trkpt><trkpt lat="40.4657067" lon="8.814165"><ele>338.0</ele><time>2026-04-16T14:05:48.747Z</time></trkpt><trkpt lat="40.4656883" lon="8.8144117"><ele>338.0</ele><time>2026-04-16T14:05:49.747Z</time></trkpt><trkpt lat="40.4656683" lon="8.8146533"><ele>338.0</ele><time>2026-04-16T14:05:50.748Z</time></trkpt><trkpt lat="40.4656433" lon="8.8148933"><ele>338.0</ele><time>2026-04-16T14:05:51.747Z</time></trkpt><trkpt lat="40.46561" lon="8.8151417"><ele>338.0</ele><time>2026-04-16T14:05:52.748Z</time></trkpt><trkpt lat="40.4655767" lon="8.8153917"><ele>338.0</ele><time>2026-04-16T14:05:53.747Z</time></trkpt><trkpt lat="40.4655467" lon="8.8156417"><ele>338.33333333333337</ele><time>2026-04-16T14:05:54.748Z</time></trkpt><trkpt lat="40.4655067" lon="8.8158883"><ele>338.6666666666667</ele><time>2026-04-16T14:05:55.748Z</time></trkpt><trkpt lat="40.46547" lon="8.8161333"><ele>339.0</ele><time>2026-04-16T14:05:56.748Z</time></trkpt><trkpt lat="40.4654233" lon="8.8163767"><ele>339.0</ele><time>2026-04-16T14:05:57.748Z</time></trkpt><trkpt lat="40.465365" lon="8.8166133"><ele>339.0</ele><time>2026-04-16T14:05:58.748Z</time></trkpt><trkpt lat="40.4652967" lon="8.816845"><ele>339.0</ele><time>2026-04-16T14:05:59.748Z</time></trkpt><trkpt lat="40.465225" lon="8.8170683"><ele>339.0</ele><time>2026-04-16T14:06:00.747Z</time></trkpt><trkpt lat="40.4651517" lon="8.8172933"><ele>339.0</ele><time>2026-04-16T14:06:01.748Z</time></trkpt><trkpt lat="40.4650817" lon="8.817525"><ele>339.0</ele><time>2026-04-16T14:06:02.747Z</time></trkpt><trkpt lat="40.4650083" lon="8.8177567"><ele>339.0</ele><time>2026-04-16T14:06:03.747Z</time></trkpt><trkpt lat="40.4649367" lon="8.8179833"><ele>339.0</ele><time>2026-04-16T14:06:04.747Z</time></trkpt><trkpt lat="40.464865" lon="8.8182167"><ele>339.0</ele><time>2026-04-16T14:06:05.748Z</time></trkpt><trkpt lat="40.4647983" lon="8.818445"><ele>339.0</ele><time>2026-04-16T14:06:06.747Z</time></trkpt><trkpt lat="40.464725" lon="8.81868"><ele>339.0</ele><time>2026-04-16T14:06:07.748Z</time></trkpt><trkpt lat="40.46465" lon="8.8189117"><ele>339.0</ele><time>2026-04-16T14:06:08.748Z</time></trkpt><trkpt lat="40.4645817" lon="8.819145"><ele>339.0</ele><time>2026-04-16T14:06:09.748Z</time></trkpt><trkpt lat="40.4645083" lon="8.8193833"><ele>339.0</ele><time>2026-04-16T14:06:10.747Z</time></trkpt><trkpt lat="40.4644333" lon="8.81962"><ele>339.0</ele><time>2026-04-16T14:06:11.747Z</time></trkpt><trkpt lat="40.4643567" lon="8.819855"><ele>339.0</ele><time>2026-04-16T14:06:12.746Z</time></trkpt><trkpt lat="40.464275" lon="8.8200917"><ele>339.0</ele><time>2026-04-16T14:06:13.747Z</time></trkpt><trkpt lat="40.4641883" lon="8.82033"><ele>339.0</ele><time>2026-04-16T14:06:14.747Z</time></trkpt><trkpt lat="40.4641017" lon="8.820565"><ele>339.3333333333333</ele><time>2026-04-16T14:06:15.747Z</time></trkpt><trkpt lat="40.46401" lon="8.8207983"><ele>339.66666666666663</ele><time>2026-04-16T14:06:16.746Z</time></trkpt><trkpt lat="40.46392" lon="8.8210383"><ele>340.0</ele><time>2026-04-16T14:06:17.747Z</time></trkpt><trkpt lat="40.463835" lon="8.82128"><ele>340.3333333333333</ele><time>2026-04-16T14:06:18.747Z</time></trkpt><trkpt lat="40.4637517" lon="8.8215283"><ele>340.6666666666667</ele><time>2026-04-16T14:06:19.746Z</time></trkpt><trkpt lat="40.46367" lon="8.821765"><ele>341.0</ele><time>2026-04-16T14:06:20.747Z</time></trkpt><trkpt lat="40.4635983" lon="8.822"><ele>341.0</ele><time>2026-04-16T14:06:21.747Z</time></trkpt><trkpt lat="40.4635333" lon="8.8222417"><ele>341.0</ele><time>2026-04-16T14:06:22.747Z</time></trkpt><trkpt lat="40.4634833" lon="8.822485"><ele>341.0</ele><time>2026-04-16T14:06:23.747Z</time></trkpt><trkpt lat="40.4634367" lon="8.82273"><ele>341.33333333333337</ele><time>2026-04-16T14:06:24.747Z</time></trkpt><trkpt lat="40.463395" lon="8.822965"><ele>341.6666666666667</ele><time>2026-04-16T14:06:25.747Z</time></trkpt><trkpt lat="40.46335" lon="8.823195"><ele>342.0</ele><time>2026-04-16T14:06:26.747Z</time></trkpt><trkpt lat="40.4633033" lon="8.8234017"><ele>342.5</ele><time>2026-04-16T14:06:27.746Z</time></trkpt><trkpt lat="40.4632667" lon="8.8235817"><ele>343.0</ele><time>2026-04-16T14:06:28.747Z</time></trkpt><trkpt lat="40.46322" lon="8.8237567"><ele>343.5</ele><time>2026-04-16T14:06:29.747Z</time></trkpt><trkpt lat="40.4631633" lon="8.8239233"><ele>344.0</ele><time>2026-04-16T14:06:30.747Z</time></trkpt><trkpt lat="40.463085" lon="8.8240817"><ele>344.0</ele><time>2026-04-16T14:06:31.746Z</time></trkpt><trkpt lat="40.4629867" lon="8.8242267"><ele>344.0</ele><time>2026-04-16T14:06:32.746Z</time></trkpt><trkpt lat="40.4628717" lon="8.8243667"><ele>344.0</ele><time>2026-04-16T14:06:33.746Z</time></trkpt><trkpt lat="40.46275" lon="8.8245067"><ele>343.33333333333337</ele><time>2026-04-16T14:06:34.747Z</time></trkpt><trkpt lat="40.4626267" lon="8.8246533"><ele>342.6666666666667</ele><time>2026-04-16T14:06:35.746Z</time></trkpt><trkpt lat="40.4625" lon="8.82481"><ele>342.0</ele><time>2026-04-16T14:06:36.747Z</time></trkpt><trkpt lat="40.4623733" lon="8.824965"><ele>342.0</ele><time>2026-04-16T14:06:37.746Z</time></trkpt><trkpt lat="40.4622433" lon="8.8251167"><ele>342.0</ele><time>2026-04-16T14:06:38.746Z</time></trkpt><trkpt lat="40.46211" lon="8.825275"><ele>342.0</ele><time>2026-04-16T14:06:39.746Z</time></trkpt><trkpt lat="40.4619767" lon="8.8254333"><ele>342.0</ele><time>2026-04-16T14:06:40.746Z</time></trkpt><trkpt lat="40.4618417" lon="8.8255967"><ele>342.0</ele><time>2026-04-16T14:06:41.746Z</time></trkpt><trkpt lat="40.4617067" lon="8.8257667"><ele>342.0</ele><time>2026-04-16T14:06:42.747Z</time></trkpt><trkpt lat="40.46157" lon="8.8259367"><ele>342.0</ele><time>2026-04-16T14:06:43.746Z</time></trkpt><trkpt lat="40.4614333" lon="8.8261167"><ele>342.0</ele><time>2026-04-16T14:06:44.747Z</time></trkpt><trkpt lat="40.4613033" lon="8.8263033"><ele>342.0</ele><time>2026-04-16T14:06:45.746Z</time></trkpt><trkpt lat="40.4611767" lon="8.8264833"><ele>342.0</ele><time>2026-04-16T14:06:46.746Z</time></trkpt><trkpt lat="40.4610517" lon="8.826655"><ele>342.0</ele><time>2026-04-16T14:06:47.747Z</time></trkpt><trkpt lat="40.4609317" lon="8.8268183"><ele>342.0</ele><time>2026-04-16T14:06:48.746Z</time></trkpt><trkpt lat="40.4608167" lon="8.82698"><ele>343.0</ele><time>2026-04-16T14:06:49.747Z</time></trkpt><trkpt lat="40.4607133" lon="8.8271317"><ele>344.0</ele><time>2026-04-16T14:06:50.747Z</time></trkpt><trkpt lat="40.4606233" lon="8.82729"><ele>345.0</ele><time>2026-04-16T14:06:51.746Z</time></trkpt><trkpt lat="40.4605433" lon="8.827465"><ele>344.6666666666667</ele><time>2026-04-16T14:06:52.747Z</time></trkpt><trkpt lat="40.4604767" lon="8.827645"><ele>344.33333333333337</ele><time>2026-04-16T14:06:53.747Z</time></trkpt><trkpt lat="40.460415" lon="8.827835"><ele>344.0</ele><time>2026-04-16T14:06:54.746Z</time></trkpt><trkpt lat="40.4603467" lon="8.828035"><ele>343.6666666666667</ele><time>2026-04-16T14:06:55.746Z</time></trkpt><trkpt lat="40.4602717" lon="8.8282433"><ele>343.3333333333333</ele><time>2026-04-16T14:06:56.747Z</time></trkpt><trkpt lat="40.4601967" lon="8.8284567"><ele>343.0</ele><time>2026-04-16T14:06:57.747Z</time></trkpt><trkpt lat="40.4601183" lon="8.8286817"><ele>343.0</ele><time>2026-04-16T14:06:58.746Z</time></trkpt><trkpt lat="40.4600333" lon="8.828915"><ele>343.0</ele><time>2026-04-16T14:06:59.746Z</time></trkpt><trkpt lat="40.459955" lon="8.829145"><ele>343.0</ele><time>2026-04-16T14:07:00.747Z</time></trkpt><trkpt lat="40.4598767" lon="8.8293833"><ele>343.0</ele><time>2026-04-16T14:07:01.747Z</time></trkpt><trkpt lat="40.4598017" lon="8.8296117"><ele>343.0</ele><time>2026-04-16T14:07:02.747Z</time></trkpt><trkpt lat="40.4597267" lon="8.8298317"><ele>343.0</ele><time>2026-04-16T14:07:03.747Z</time></trkpt><trkpt lat="40.4596567" lon="8.8300517"><ele>342.66666666666663</ele><time>2026-04-16T14:07:04.746Z</time></trkpt><trkpt lat="40.459585" lon="8.83026"><ele>342.3333333333333</ele><time>2026-04-16T14:07:05.747Z</time></trkpt><trkpt lat="40.4595133" lon="8.8304583"><ele>342.0</ele><time>2026-04-16T14:07:06.747Z</time></trkpt><trkpt lat="40.4594283" lon="8.8306517"><ele>342.0</ele><time>2026-04-16T14:07:07.747Z</time></trkpt><trkpt lat="40.459325" lon="8.8308217"><ele>342.0</ele><time>2026-04-16T14:07:08.747Z</time></trkpt><trkpt lat="40.459195" lon="8.8309567"><ele>342.0</ele><time>2026-04-16T14:07:09.746Z</time></trkpt><trkpt lat="40.4590417" lon="8.83106"><ele>342.0</ele><time>2026-04-16T14:07:10.746Z</time></trkpt><trkpt lat="40.45887" lon="8.8311467"><ele>342.0</ele><time>2026-04-16T14:07:11.746Z</time></trkpt><trkpt lat="40.4586917" lon="8.8312317"><ele>342.0</ele><time>2026-04-16T14:07:12.747Z</time></trkpt><trkpt lat="40.4585067" lon="8.8313183"><ele>342.0</ele><time>2026-04-16T14:07:13.747Z</time></trkpt><trkpt lat="40.4583133" lon="8.83142"><ele>342.0</ele><time>2026-04-16T14:07:14.746Z</time></trkpt><trkpt lat="40.4581167" lon="8.831525"><ele>342.0</ele><time>2026-04-16T14:07:15.747Z</time></trkpt><trkpt lat="40.4579217" lon="8.8316267"><ele>341.6666666666667</ele><time>2026-04-16T14:07:16.747Z</time></trkpt><trkpt lat="40.457725" lon="8.8317333"><ele>341.33333333333337</ele><time>2026-04-16T14:07:17.747Z</time></trkpt><trkpt lat="40.4575267" lon="8.831835"><ele>341.0</ele><time>2026-04-16T14:07:18.747Z</time></trkpt><trkpt lat="40.45733" lon="8.8319367"><ele>341.0</ele><time>2026-04-16T14:07:19.746Z</time></trkpt><trkpt lat="40.45713" lon="8.832035"><ele>341.0</ele><time>2026-04-16T14:07:20.747Z</time></trkpt><trkpt lat="40.4569367" lon="8.8321333"><ele>341.0</ele><time>2026-04-16T14:07:21.746Z</time></trkpt><trkpt lat="40.45674" lon="8.8322317"><ele>341.0</ele><time>2026-04-16T14:07:22.747Z</time></trkpt><trkpt lat="40.45655" lon="8.8323283"><ele>341.0</ele><time>2026-04-16T14:07:23.747Z</time></trkpt><trkpt lat="40.45635" lon="8.8324283"><ele>341.0</ele><time>2026-04-16T14:07:24.747Z</time></trkpt><trkpt lat="40.45616" lon="8.8325283"><ele>341.6666666666667</ele><time>2026-04-16T14:07:25.747Z</time></trkpt><trkpt lat="40.45597" lon="8.8326217"><ele>342.3333333333333</ele><time>2026-04-16T14:07:26.746Z</time></trkpt><trkpt lat="40.4557817" lon="8.8327117"><ele>343.0</ele><time>2026-04-16T14:07:27.746Z</time></trkpt><trkpt lat="40.4555883" lon="8.832805"><ele>342.66666666666663</ele><time>2026-04-16T14:07:28.747Z</time></trkpt><trkpt lat="40.4553967" lon="8.8328933"><ele>342.3333333333333</ele><time>2026-04-16T14:07:29.747Z</time></trkpt><trkpt lat="40.4552033" lon="8.8329817"><ele>342.0</ele><time>2026-04-16T14:07:30.746Z</time></trkpt><trkpt lat="40.4550183" lon="8.8330667"><ele>342.0</ele><time>2026-04-16T14:07:31.747Z</time></trkpt><trkpt lat="40.45483" lon="8.8331517"><ele>342.0</ele><time>2026-04-16T14:07:32.746Z</time></trkpt><trkpt lat="40.4546433" lon="8.8332383"><ele>342.0</ele><time>2026-04-16T14:07:33.747Z</time></trkpt><trkpt lat="40.4544483" lon="8.833325"><ele>342.3333333333333</ele><time>2026-04-16T14:07:34.746Z</time></trkpt><trkpt lat="40.4542533" lon="8.8334067"><ele>342.66666666666663</ele><time>2026-04-16T14:07:35.747Z</time></trkpt><trkpt lat="40.454065" lon="8.8334867"><ele>343.0</ele><time>2026-04-16T14:07:36.747Z</time></trkpt><trkpt lat="40.453875" lon="8.83358"><ele>343.0</ele><time>2026-04-16T14:07:37.747Z</time></trkpt><trkpt lat="40.4536867" lon="8.833685"><ele>343.0</ele><time>2026-04-16T14:07:38.747Z</time></trkpt><trkpt lat="40.4535017" lon="8.8338083"><ele>343.0</ele><time>2026-04-16T14:07:39.746Z</time></trkpt><trkpt lat="40.453315" lon="8.833945"><ele>343.0</ele><time>2026-04-16T14:07:40.747Z</time></trkpt><trkpt lat="40.4531317" lon="8.8340917"><ele>343.0</ele><time>2026-04-16T14:07:41.747Z</time></trkpt><trkpt lat="40.4529483" lon="8.83424"><ele>343.0</ele><time>2026-04-16T14:07:42.746Z</time></trkpt><trkpt lat="40.4527617" lon="8.8343767"><ele>344.3333333333333</ele><time>2026-04-16T14:07:43.747Z</time></trkpt><trkpt lat="40.45257" lon="8.834515"><ele>345.6666666666667</ele><time>2026-04-16T14:07:44.747Z</time></trkpt><trkpt lat="40.45238" lon="8.8346583"><ele>347.0</ele><time>2026-04-16T14:07:45.746Z</time></trkpt><trkpt lat="40.452195" lon="8.8348033"><ele>346.6666666666667</ele><time>2026-04-16T14:07:46.747Z</time></trkpt><trkpt lat="40.45201" lon="8.8349517"><ele>346.3333333333333</ele><time>2026-04-16T14:07:47.747Z</time></trkpt><trkpt lat="40.4518267" lon="8.8350983"><ele>346.0</ele><time>2026-04-16T14:07:48.746Z</time></trkpt><trkpt lat="40.451645" lon="8.8352467"><ele>346.0</ele><time>2026-04-16T14:07:49.747Z</time></trkpt><trkpt lat="40.4514667" lon="8.835395"><ele>346.0</ele><time>2026-04-16T14:07:50.747Z</time></trkpt><trkpt lat="40.4512867" lon="8.8355383"><ele>346.0</ele><time>2026-04-16T14:07:51.747Z</time></trkpt><trkpt lat="40.451105" lon="8.835685"><ele>345.0</ele><time>2026-04-16T14:07:52.746Z</time></trkpt><trkpt lat="40.4509267" lon="8.8358367"><ele>344.0</ele><time>2026-04-16T14:07:53.747Z</time></trkpt><trkpt lat="40.4507417" lon="8.8359783"><ele>343.0</ele><time>2026-04-16T14:07:54.747Z</time></trkpt><trkpt lat="40.450555" lon="8.836115"><ele>344.0</ele><time>2026-04-16T14:07:55.747Z</time></trkpt><trkpt lat="40.450365" lon="8.8362517"><ele>345.0</ele><time>2026-04-16T14:07:56.747Z</time></trkpt><trkpt lat="40.4501717" lon="8.8363867"><ele>346.0</ele><time>2026-04-16T14:07:57.746Z</time></trkpt><trkpt lat="40.4499767" lon="8.8365267"><ele>346.0</ele><time>2026-04-16T14:07:58.747Z</time></trkpt><trkpt lat="40.44978" lon="8.836665"><ele>346.0</ele><time>2026-04-16T14:07:59.746Z</time></trkpt><trkpt lat="40.449585" lon="8.836805"><ele>346.0</ele><time>2026-04-16T14:08:00.746Z</time></trkpt><trkpt lat="40.4493917" lon="8.836955"><ele>347.0</ele><time>2026-04-16T14:08:01.747Z</time></trkpt><trkpt lat="40.4492" lon="8.8371033"><ele>348.0</ele><time>2026-04-16T14:08:02.747Z</time></trkpt><trkpt lat="40.4490033" lon="8.8372633"><ele>348.0</ele><time>2026-04-16T14:08:03.747Z</time></trkpt><trkpt lat="40.44881" lon="8.8374217"><ele>348.0</ele><time>2026-04-16T14:08:04.746Z</time></trkpt><trkpt lat="40.44862" lon="8.8375833"><ele>348.0</ele><time>2026-04-16T14:08:05.746Z</time></trkpt><trkpt lat="40.4484283" lon="8.83775"><ele>348.0</ele><time>2026-04-16T14:08:06.747Z</time></trkpt><trkpt lat="40.4482433" lon="8.8379133"><ele>348.0</ele><time>2026-04-16T14:08:07.747Z</time></trkpt><trkpt lat="40.448065" lon="8.83806"><ele>348.0</ele><time>2026-04-16T14:08:08.747Z</time></trkpt><trkpt lat="40.447885" lon="8.8382067"><ele>348.0</ele><time>2026-04-16T14:08:09.747Z</time></trkpt><trkpt lat="40.447705" lon="8.83834"><ele>348.3333333333333</ele><time>2026-04-16T14:08:10.747Z</time></trkpt><trkpt lat="40.4475167" lon="8.8384567"><ele>348.66666666666663</ele><time>2026-04-16T14:08:11.747Z</time></trkpt><trkpt lat="40.447315" lon="8.8385533"><ele>349.0</ele><time>2026-04-16T14:08:12.747Z</time></trkpt><trkpt lat="40.4471133" lon="8.8386317"><ele>349.3333333333333</ele><time>2026-04-16T14:08:13.746Z</time></trkpt><trkpt lat="40.4469" lon="8.83869"><ele>349.6666666666667</ele><time>2026-04-16T14:08:14.747Z</time></trkpt><trkpt lat="40.44668" lon="8.8387383"><ele>350.0</ele><time>2026-04-16T14:08:15.746Z</time></trkpt><trkpt lat="40.4464617" lon="8.8387817"><ele>348.5</ele><time>2026-04-16T14:08:16.747Z</time></trkpt><trkpt lat="40.4462333" lon="8.838825"><ele>347.0</ele><time>2026-04-16T14:08:17.747Z</time></trkpt><trkpt lat="40.4460067" lon="8.8388667"><ele>347.0</ele><time>2026-04-16T14:08:18.747Z</time></trkpt><trkpt lat="40.445775" lon="8.83891"><ele>347.0</ele><time>2026-04-16T14:08:19.747Z</time></trkpt><trkpt lat="40.4455483" lon="8.838955"><ele>346.0</ele><time>2026-04-16T14:08:20.747Z</time></trkpt><trkpt lat="40.4453233" lon="8.8390017"><ele>345.0</ele><time>2026-04-16T14:08:21.746Z</time></trkpt><trkpt lat="40.4451167" lon="8.8390367"><ele>344.0</ele><time>2026-04-16T14:08:22.746Z</time></trkpt><trkpt lat="40.4448883" lon="8.8390667"><ele>344.0</ele><time>2026-04-16T14:08:23.747Z</time></trkpt><trkpt lat="40.444675" lon="8.8390783"><ele>344.0</ele><time>2026-04-16T14:08:24.746Z</time></trkpt><trkpt lat="40.4444717" lon="8.8390833"><ele>344.0</ele><time>2026-04-16T14:08:25.747Z</time></trkpt><trkpt lat="40.444275" lon="8.8390783"><ele>343.6666666666667</ele><time>2026-04-16T14:08:26.747Z</time></trkpt><trkpt lat="40.444085" lon="8.8390767"><ele>343.3333333333333</ele><time>2026-04-16T14:08:27.746Z</time></trkpt><trkpt lat="40.4439067" lon="8.8390867"><ele>343.0</ele><time>2026-04-16T14:08:28.747Z</time></trkpt><trkpt lat="40.443735" lon="8.8391267"><ele>343.0</ele><time>2026-04-16T14:08:29.747Z</time></trkpt><trkpt lat="40.44357" lon="8.8392017"><ele>343.0</ele><time>2026-04-16T14:08:30.747Z</time></trkpt><trkpt lat="40.4434083" lon="8.8393083"><ele>343.0</ele><time>2026-04-16T14:08:31.747Z</time></trkpt><trkpt lat="40.4432533" lon="8.8394367"><ele>343.0</ele><time>2026-04-16T14:08:32.747Z</time></trkpt><trkpt lat="40.4431067" lon="8.8395817"><ele>343.0</ele><time>2026-04-16T14:08:33.747Z</time></trkpt><trkpt lat="40.4429717" lon="8.83975"><ele>343.0</ele><time>2026-04-16T14:08:34.746Z</time></trkpt><trkpt lat="40.4428467" lon="8.8399317"><ele>343.0</ele><time>2026-04-16T14:08:35.746Z</time></trkpt><trkpt lat="40.44274" lon="8.8401417"><ele>343.0</ele><time>2026-04-16T14:08:36.747Z</time></trkpt><trkpt lat="40.4426583" lon="8.8403783"><ele>343.0</ele><time>2026-04-16T14:08:37.746Z</time></trkpt><trkpt lat="40.4425933" lon="8.8406333"><ele>343.0</ele><time>2026-04-16T14:08:38.747Z</time></trkpt><trkpt lat="40.4425267" lon="8.8408983"><ele>343.0</ele><time>2026-04-16T14:08:39.746Z</time></trkpt><trkpt lat="40.4424517" lon="8.8411717"><ele>343.0</ele><time>2026-04-16T14:08:40.747Z</time></trkpt><trkpt lat="40.4423783" lon="8.8414533"><ele>343.0</ele><time>2026-04-16T14:08:41.747Z</time></trkpt><trkpt lat="40.442305" lon="8.84174"><ele>343.0</ele><time>2026-04-16T14:08:42.747Z</time></trkpt><trkpt lat="40.4422317" lon="8.842015"><ele>342.66666666666663</ele><time>2026-04-16T14:08:43.747Z</time></trkpt><trkpt lat="40.4421583" lon="8.8422767"><ele>342.3333333333333</ele><time>2026-04-16T14:08:44.747Z</time></trkpt><trkpt lat="40.4420917" lon="8.842525"><ele>342.0</ele><time>2026-04-16T14:08:45.747Z</time></trkpt><trkpt lat="40.44202" lon="8.8427533"><ele>342.6666666666667</ele><time>2026-04-16T14:08:46.746Z</time></trkpt><trkpt lat="40.441935" lon="8.8429817"><ele>343.33333333333337</ele><time>2026-04-16T14:08:47.747Z</time></trkpt><trkpt lat="40.44184" lon="8.8432017"><ele>344.0</ele><time>2026-04-16T14:08:48.747Z</time></trkpt><trkpt lat="40.4417383" lon="8.8434117"><ele>344.33333333333337</ele><time>2026-04-16T14:08:49.747Z</time></trkpt><trkpt lat="40.441625" lon="8.8436267"><ele>344.6666666666667</ele><time>2026-04-16T14:08:50.746Z</time></trkpt><trkpt lat="40.4415117" lon="8.8438433"><ele>345.0</ele><time>2026-04-16T14:08:51.747Z</time></trkpt><trkpt lat="40.4414" lon="8.8440667"><ele>344.3333333333333</ele><time>2026-04-16T14:08:52.747Z</time></trkpt><trkpt lat="40.4412867" lon="8.84429"><ele>343.66666666666663</ele><time>2026-04-16T14:08:53.746Z</time></trkpt><trkpt lat="40.4411717" lon="8.844515"><ele>343.0</ele><time>2026-04-16T14:08:54.746Z</time></trkpt><trkpt lat="40.4410567" lon="8.84474"><ele>343.0</ele><time>2026-04-16T14:08:55.746Z</time></trkpt><trkpt lat="40.4409417" lon="8.84495"><ele>343.0</ele><time>2026-04-16T14:08:56.746Z</time></trkpt><trkpt lat="40.4408283" lon="8.8451483"><ele>343.0</ele><time>2026-04-16T14:08:57.747Z</time></trkpt><trkpt lat="40.4407017" lon="8.845335"><ele>343.3333333333333</ele><time>2026-04-16T14:08:58.747Z</time></trkpt><trkpt lat="40.4405667" lon="8.8455"><ele>343.6666666666667</ele><time>2026-04-16T14:08:59.746Z</time></trkpt><trkpt lat="40.440425" lon="8.8456617"><ele>344.0</ele><time>2026-04-16T14:09:00.745Z</time></trkpt><trkpt lat="40.44028" lon="8.8458267"><ele>344.6666666666667</ele><time>2026-04-16T14:09:01.745Z</time></trkpt><trkpt lat="40.4401433" lon="8.84598"><ele>345.3333333333333</ele><time>2026-04-16T14:09:02.745Z</time></trkpt><trkpt lat="40.4400117" lon="8.8461267"><ele>346.0</ele><time>2026-04-16T14:09:03.746Z</time></trkpt><trkpt lat="40.439885" lon="8.846265"><ele>346.0</ele><time>2026-04-16T14:09:04.745Z</time></trkpt><trkpt lat="40.4397733" lon="8.8463967"><ele>346.0</ele><time>2026-04-16T14:09:05.746Z</time></trkpt><trkpt lat="40.43967" lon="8.8465183"><ele>346.0</ele><time>2026-04-16T14:09:06.746Z</time></trkpt><trkpt lat="40.4395817" lon="8.8466167"><ele>346.0</ele><time>2026-04-16T14:09:07.746Z</time></trkpt><trkpt lat="40.4395067" lon="8.8466933"><ele>345.8333333333333</ele><time>2026-04-16T14:09:08.746Z</time></trkpt><trkpt lat="40.439445" lon="8.8467467"><ele>345.66666666666663</ele><time>2026-04-16T14:09:09.745Z</time></trkpt><trkpt lat="40.4393867" lon="8.846795"><ele>345.5</ele><time>2026-04-16T14:09:11.746Z</time></trkpt><trkpt lat="40.4393133" lon="8.8468083"><ele>345.3333333333333</ele><time>2026-04-16T14:20:06.743Z</time></trkpt><trkpt lat="40.4392233" lon="8.846845"><ele>345.1666666666667</ele><time>2026-04-16T14:20:08.743Z</time></trkpt><trkpt lat="40.4391133" lon="8.8467933"><ele>345.0</ele><time>2026-04-16T14:20:10.743Z</time></trkpt><trkpt lat="40.4390633" lon="8.84674"><ele>345.0</ele><time>2026-04-16T14:20:11.743Z</time></trkpt><trkpt lat="40.4390117" lon="8.8466717"><ele>345.0</ele><time>2026-04-16T14:20:12.743Z</time></trkpt><trkpt lat="40.438965" lon="8.8465917"><ele>345.0</ele><time>2026-04-16T14:20:13.742Z</time></trkpt><trkpt lat="40.4389233" lon="8.846495"><ele>345.0</ele><time>2026-04-16T14:20:14.742Z</time></trkpt><trkpt lat="40.4388767" lon="8.8463883"><ele>345.0</ele><time>2026-04-16T14:20:15.743Z</time></trkpt><trkpt lat="40.4388217" lon="8.846275"><ele>345.0</ele><time>2026-04-16T14:20:16.743Z</time></trkpt><trkpt lat="40.4387717" lon="8.8461483"><ele>345.0</ele><time>2026-04-16T14:20:17.743Z</time></trkpt><trkpt lat="40.43872" lon="8.8460167"><ele>345.0</ele><time>2026-04-16T14:20:18.742Z</time></trkpt><trkpt lat="40.43866" lon="8.845885"><ele>345.0</ele><time>2026-04-16T14:20:19.743Z</time></trkpt><trkpt lat="40.4385983" lon="8.84575"><ele>345.0</ele><time>2026-04-16T14:20:20.743Z</time></trkpt><trkpt lat="40.438535" lon="8.845605"><ele>344.75</ele><time>2026-04-16T14:20:21.742Z</time></trkpt><trkpt lat="40.438475" lon="8.8454517"><ele>344.5</ele><time>2026-04-16T14:20:22.742Z</time></trkpt><trkpt lat="40.4384083" lon="8.8452933"><ele>344.25</ele><time>2026-04-16T14:20:23.743Z</time></trkpt><trkpt lat="40.4383383" lon="8.8451333"><ele>344.0</ele><time>2026-04-16T14:20:24.742Z</time></trkpt><trkpt lat="40.4382717" lon="8.844975"><ele>344.0</ele><time>2026-04-16T14:20:25.742Z</time></trkpt><trkpt lat="40.4381367" lon="8.84466"><ele>344.0</ele><time>2026-04-16T14:20:27.743Z</time></trkpt><trkpt lat="40.4380667" lon="8.8444917"><ele>344.0</ele><time>2026-04-16T14:20:28.742Z</time></trkpt><trkpt lat="40.4379933" lon="8.844325"><ele>344.33333333333337</ele><time>2026-04-16T14:20:29.743Z</time></trkpt><trkpt lat="40.43792" lon="8.8441483"><ele>344.6666666666667</ele><time>2026-04-16T14:20:30.743Z</time></trkpt><trkpt lat="40.437835" lon="8.8439733"><ele>345.0</ele><time>2026-04-16T14:20:31.742Z</time></trkpt><trkpt lat="40.4377483" lon="8.8437983"><ele>345.0</ele><time>2026-04-16T14:20:32.742Z</time></trkpt><trkpt lat="40.4376567" lon="8.8436233"><ele>345.0</ele><time>2026-04-16T14:20:33.743Z</time></trkpt><trkpt lat="40.4375483" lon="8.843465"><ele>345.0</ele><time>2026-04-16T14:20:34.742Z</time></trkpt><trkpt lat="40.43744" lon="8.8433083"><ele>345.0</ele><time>2026-04-16T14:20:35.742Z</time></trkpt><trkpt lat="40.437335" lon="8.8431483"><ele>345.0</ele><time>2026-04-16T14:20:36.743Z</time></trkpt><trkpt lat="40.43723" lon="8.842985"><ele>345.0</ele><time>2026-04-16T14:20:37.742Z</time></trkpt><trkpt lat="40.4371317" lon="8.8428283"><ele>345.0</ele><time>2026-04-16T14:20:38.743Z</time></trkpt><trkpt lat="40.437035" lon="8.8426733"><ele>345.0</ele><time>2026-04-16T14:20:39.743Z</time></trkpt><trkpt lat="40.43694" lon="8.8425183"><ele>345.0</ele><time>2026-04-16T14:20:40.743Z</time></trkpt><trkpt lat="40.436845" lon="8.8423733"><ele>345.0</ele><time>2026-04-16T14:20:41.743Z</time></trkpt><trkpt lat="40.43675" lon="8.842225"><ele>345.0</ele><time>2026-04-16T14:20:42.742Z</time></trkpt><trkpt lat="40.4366583" lon="8.8420767"><ele>345.0</ele><time>2026-04-16T14:20:43.742Z</time></trkpt><trkpt lat="40.43657" lon="8.8419333"><ele>345.0</ele><time>2026-04-16T14:20:44.743Z</time></trkpt><trkpt lat="40.4364817" lon="8.841795"><ele>345.3333333333333</ele><time>2026-04-16T14:20:45.742Z</time></trkpt><trkpt lat="40.4363067" lon="8.8415133"><ele>345.66666666666663</ele><time>2026-04-16T14:20:47.743Z</time></trkpt><trkpt lat="40.436215" lon="8.8413717"><ele>346.0</ele><time>2026-04-16T14:20:48.743Z</time></trkpt><trkpt lat="40.4361217" lon="8.8412217"><ele>346.0</ele><time>2026-04-16T14:20:49.743Z</time></trkpt><trkpt lat="40.4360283" lon="8.8410683"><ele>346.0</ele><time>2026-04-16T14:20:50.743Z</time></trkpt><trkpt lat="40.43593" lon="8.84092"><ele>346.0</ele><time>2026-04-16T14:20:51.743Z</time></trkpt><trkpt lat="40.4358333" lon="8.8407633"><ele>346.0</ele><time>2026-04-16T14:20:52.742Z</time></trkpt><trkpt lat="40.4357283" lon="8.8406117"><ele>346.0</ele><time>2026-04-16T14:20:53.743Z</time></trkpt><trkpt lat="40.4356317" lon="8.840455"><ele>346.0</ele><time>2026-04-16T14:20:54.743Z</time></trkpt><trkpt lat="40.435535" lon="8.840285"><ele>346.0</ele><time>2026-04-16T14:20:55.742Z</time></trkpt><trkpt lat="40.4354483" lon="8.8401133"><ele>346.0</ele><time>2026-04-16T14:20:56.743Z</time></trkpt><trkpt lat="40.4353733" lon="8.83993"><ele>346.0</ele><time>2026-04-16T14:20:57.743Z</time></trkpt><trkpt lat="40.4353" lon="8.8397433"><ele>346.0</ele><time>2026-04-16T14:20:58.743Z</time></trkpt><trkpt lat="40.435235" lon="8.839555"><ele>346.0</ele><time>2026-04-16T14:20:59.742Z</time></trkpt><trkpt lat="40.4351717" lon="8.8393583"><ele>346.0</ele><time>2026-04-16T14:21:00.743Z</time></trkpt><trkpt lat="40.4351067" lon="8.8391633"><ele>346.0</ele><time>2026-04-16T14:21:01.743Z</time></trkpt><trkpt lat="40.4350433" lon="8.838965"><ele>346.0</ele><time>2026-04-16T14:21:02.743Z</time></trkpt><trkpt lat="40.4349067" lon="8.8385567"><ele>346.0</ele><time>2026-04-16T14:21:04.742Z</time></trkpt><trkpt lat="40.43484" lon="8.8383517"><ele>346.0</ele><time>2026-04-16T14:21:05.743Z</time></trkpt><trkpt lat="40.4347683" lon="8.8381483"><ele>346.0</ele><time>2026-04-16T14:21:06.742Z</time></trkpt><trkpt lat="40.4347017" lon="8.837935"><ele>346.0</ele><time>2026-04-16T14:21:07.742Z</time></trkpt><trkpt lat="40.4346467" lon="8.8377167"><ele>346.0</ele><time>2026-04-16T14:21:08.743Z</time></trkpt><trkpt lat="40.4346133" lon="8.837495"><ele>346.0</ele><time>2026-04-16T14:21:09.743Z</time></trkpt><trkpt lat="40.434585" lon="8.8372733"><ele>346.0</ele><time>2026-04-16T14:21:10.743Z</time></trkpt><trkpt lat="40.4345567" lon="8.83705"><ele>346.0</ele><time>2026-04-16T14:21:11.743Z</time></trkpt><trkpt lat="40.4345317" lon="8.8368183"><ele>346.0</ele><time>2026-04-16T14:21:12.742Z</time></trkpt><trkpt lat="40.434505" lon="8.8365767"><ele>345.3333333333333</ele><time>2026-04-16T14:21:13.743Z</time></trkpt><trkpt lat="40.4344767" lon="8.8363383"><ele>344.6666666666667</ele><time>2026-04-16T14:21:14.742Z</time></trkpt><trkpt lat="40.434445" lon="8.8361"><ele>344.0</ele><time>2026-04-16T14:21:15.742Z</time></trkpt><trkpt lat="40.4344167" lon="8.8358617"><ele>344.0</ele><time>2026-04-16T14:21:16.743Z</time></trkpt><trkpt lat="40.4343867" lon="8.8356283"><ele>344.0</ele><time>2026-04-16T14:21:17.743Z</time></trkpt><trkpt lat="40.43436" lon="8.8353933"><ele>344.0</ele><time>2026-04-16T14:21:18.743Z</time></trkpt><trkpt lat="40.4343317" lon="8.8351583"><ele>345.0</ele><time>2026-04-16T14:21:19.743Z</time></trkpt><trkpt lat="40.4343017" lon="8.83493"><ele>346.0</ele><time>2026-04-16T14:21:20.742Z</time></trkpt><trkpt lat="40.4342117" lon="8.83449"><ele>345.66666666666663</ele><time>2026-04-16T14:21:22.743Z</time></trkpt><trkpt lat="40.4341333" lon="8.8342867"><ele>345.3333333333333</ele><time>2026-04-16T14:21:23.742Z</time></trkpt><trkpt lat="40.4340367" lon="8.8340917"><ele>345.0</ele><time>2026-04-16T14:21:24.743Z</time></trkpt><trkpt lat="40.433935" lon="8.8338967"><ele>345.0</ele><time>2026-04-16T14:21:25.743Z</time></trkpt><trkpt lat="40.433835" lon="8.8337017"><ele>345.0</ele><time>2026-04-16T14:21:26.742Z</time></trkpt><trkpt lat="40.433735" lon="8.833505"><ele>345.0</ele><time>2026-04-16T14:21:27.743Z</time></trkpt><trkpt lat="40.433635" lon="8.8333117"><ele>345.0</ele><time>2026-04-16T14:21:28.742Z</time></trkpt><trkpt lat="40.4335383" lon="8.8331133"><ele>345.0</ele><time>2026-04-16T14:21:29.743Z</time></trkpt><trkpt lat="40.4334383" lon="8.8329133"><ele>345.0</ele><time>2026-04-16T14:21:30.743Z</time></trkpt><trkpt lat="40.4333417" lon="8.8327133"><ele>345.3333333333333</ele><time>2026-04-16T14:21:31.742Z</time></trkpt><trkpt lat="40.4332417" lon="8.832515"><ele>345.66666666666663</ele><time>2026-04-16T14:21:32.743Z</time></trkpt><trkpt lat="40.43314" lon="8.8323167"><ele>346.0</ele><time>2026-04-16T14:21:33.743Z</time></trkpt><trkpt lat="40.43304" lon="8.832115"><ele>346.3333333333333</ele><time>2026-04-16T14:21:34.743Z</time></trkpt><trkpt lat="40.43294" lon="8.8319117"><ele>346.6666666666667</ele><time>2026-04-16T14:21:35.742Z</time></trkpt><trkpt lat="40.4328383" lon="8.8317117"><ele>347.0</ele><time>2026-04-16T14:21:36.743Z</time></trkpt><trkpt lat="40.432735" lon="8.8315033"><ele>347.5</ele><time>2026-04-16T14:21:37.743Z</time></trkpt><trkpt lat="40.432525" lon="8.8310867"><ele>348.0</ele><time>2026-04-16T14:21:39.743Z</time></trkpt><trkpt lat="40.43242" lon="8.8308783"><ele>347.3333333333333</ele><time>2026-04-16T14:21:40.743Z</time></trkpt><trkpt lat="40.432315" lon="8.8306667"><ele>346.66666666666663</ele><time>2026-04-16T14:21:41.743Z</time></trkpt><trkpt lat="40.4322133" lon="8.830455"><ele>346.0</ele><time>2026-04-16T14:21:42.743Z</time></trkpt><trkpt lat="40.4321133" lon="8.830245"><ele>346.0</ele><time>2026-04-16T14:21:43.743Z</time></trkpt><trkpt lat="40.4320167" lon="8.8300317"><ele>346.0</ele><time>2026-04-16T14:21:44.743Z</time></trkpt><trkpt lat="40.431925" lon="8.8298133"><ele>346.0</ele><time>2026-04-16T14:21:45.743Z</time></trkpt><trkpt lat="40.43184" lon="8.8296017"><ele>346.0</ele><time>2026-04-16T14:21:46.742Z</time></trkpt><trkpt lat="40.4317533" lon="8.8293817"><ele>346.0</ele><time>2026-04-16T14:21:47.742Z</time></trkpt><trkpt lat="40.43167" lon="8.8291567"><ele>346.0</ele><time>2026-04-16T14:21:48.743Z</time></trkpt><trkpt lat="40.4315883" lon="8.828935"><ele>346.0</ele><time>2026-04-16T14:21:49.742Z</time></trkpt><trkpt lat="40.4315" lon="8.8287167"><ele>346.0</ele><time>2026-04-16T14:21:50.742Z</time></trkpt><trkpt lat="40.4314167" lon="8.8284983"><ele>346.0</ele><time>2026-04-16T14:21:51.742Z</time></trkpt><trkpt lat="40.4313367" lon="8.8282783"><ele>346.3333333333333</ele><time>2026-04-16T14:21:52.741Z</time></trkpt><trkpt lat="40.4312567" lon="8.828055"><ele>346.6666666666667</ele><time>2026-04-16T14:21:53.742Z</time></trkpt><trkpt lat="40.4311767" lon="8.827835"><ele>347.0</ele><time>2026-04-16T14:21:54.742Z</time></trkpt><trkpt lat="40.4311033" lon="8.8276117"><ele>347.0</ele><time>2026-04-16T14:21:55.742Z</time></trkpt><trkpt lat="40.43104" lon="8.8273833"><ele>347.0</ele><time>2026-04-16T14:21:56.742Z</time></trkpt><trkpt lat="40.43098" lon="8.8271533"><ele>347.0</ele><time>2026-04-16T14:21:57.742Z</time></trkpt><trkpt lat="40.4309233" lon="8.8269267"><ele>346.33333333333337</ele><time>2026-04-16T14:21:58.741Z</time></trkpt><trkpt lat="40.4308717" lon="8.8266933"><ele>345.6666666666667</ele><time>2026-04-16T14:21:59.741Z</time></trkpt><trkpt lat="40.4308167" lon="8.826455"><ele>345.0</ele><time>2026-04-16T14:22:00.741Z</time></trkpt><trkpt lat="40.4307583" lon="8.8262233"><ele>345.0</ele><time>2026-04-16T14:22:01.742Z</time></trkpt><trkpt lat="40.4306983" lon="8.8259933"><ele>345.0</ele><time>2026-04-16T14:22:02.742Z</time></trkpt><trkpt lat="40.4306467" lon="8.82576"><ele>345.0</ele><time>2026-04-16T14:22:03.741Z</time></trkpt><trkpt lat="40.4305917" lon="8.8255333"><ele>345.3333333333333</ele><time>2026-04-16T14:22:04.742Z</time></trkpt><trkpt lat="40.43054" lon="8.825315"><ele>345.66666666666663</ele><time>2026-04-16T14:22:05.742Z</time></trkpt><trkpt lat="40.430485" lon="8.8250917"><ele>346.0</ele><time>2026-04-16T14:22:06.742Z</time></trkpt><trkpt lat="40.43043" lon="8.8248667"><ele>346.0</ele><time>2026-04-16T14:22:07.741Z</time></trkpt><trkpt lat="40.4303783" lon="8.8246433"><ele>346.0</ele><time>2026-04-16T14:22:08.741Z</time></trkpt><trkpt lat="40.430325" lon="8.8244133"><ele>346.0</ele><time>2026-04-16T14:22:09.742Z</time></trkpt><trkpt lat="40.43027" lon="8.8241833"><ele>346.0</ele><time>2026-04-16T14:22:10.741Z</time></trkpt><trkpt lat="40.430215" lon="8.8239533"><ele>346.0</ele><time>2026-04-16T14:22:11.742Z</time></trkpt><trkpt lat="40.430155" lon="8.82372"><ele>346.0</ele><time>2026-04-16T14:22:12.742Z</time></trkpt><trkpt lat="40.430075" lon="8.8234933"><ele>346.3333333333333</ele><time>2026-04-16T14:22:13.742Z</time></trkpt><trkpt lat="40.42999" lon="8.8232683"><ele>346.6666666666667</ele><time>2026-04-16T14:22:14.742Z</time></trkpt><trkpt lat="40.4299033" lon="8.823045"><ele>347.0</ele><time>2026-04-16T14:22:15.742Z</time></trkpt><trkpt lat="40.4298217" lon="8.8228117"><ele>347.0</ele><time>2026-04-16T14:22:16.741Z</time></trkpt><trkpt lat="40.42974" lon="8.82258"><ele>347.0</ele><time>2026-04-16T14:22:17.741Z</time></trkpt><trkpt lat="40.429655" lon="8.8223533"><ele>347.0</ele><time>2026-04-16T14:22:18.742Z</time></trkpt><trkpt lat="40.4295667" lon="8.8221183"><ele>347.0</ele><time>2026-04-16T14:22:19.741Z</time></trkpt><trkpt lat="40.42948" lon="8.8218883"><ele>347.0</ele><time>2026-04-16T14:22:20.741Z</time></trkpt><trkpt lat="40.429395" lon="8.8216583"><ele>347.0</ele><time>2026-04-16T14:22:21.742Z</time></trkpt><trkpt lat="40.4293117" lon="8.8214283"><ele>347.33333333333337</ele><time>2026-04-16T14:22:22.742Z</time></trkpt><trkpt lat="40.429225" lon="8.8212033"><ele>347.6666666666667</ele><time>2026-04-16T14:22:23.742Z</time></trkpt><trkpt lat="40.4291433" lon="8.8209783"><ele>348.0</ele><time>2026-04-16T14:22:24.742Z</time></trkpt><trkpt lat="40.4290633" lon="8.8207583"><ele>348.0</ele><time>2026-04-16T14:22:25.741Z</time></trkpt><trkpt lat="40.4289867" lon="8.8205333"><ele>348.0</ele><time>2026-04-16T14:22:26.741Z</time></trkpt><trkpt lat="40.4289067" lon="8.8203133"><ele>348.0</ele><time>2026-04-16T14:22:27.741Z</time></trkpt><trkpt lat="40.4288267" lon="8.82009"><ele>349.0</ele><time>2026-04-16T14:22:28.741Z</time></trkpt><trkpt lat="40.4287467" lon="8.81987"><ele>350.0</ele><time>2026-04-16T14:22:29.742Z</time></trkpt><trkpt lat="40.4286667" lon="8.8196517"><ele>351.0</ele><time>2026-04-16T14:22:30.742Z</time></trkpt><trkpt lat="40.4285933" lon="8.8194317"><ele>351.0</ele><time>2026-04-16T14:22:31.741Z</time></trkpt><trkpt lat="40.4285217" lon="8.81921"><ele>351.0</ele><time>2026-04-16T14:22:32.742Z</time></trkpt><trkpt lat="40.4284633" lon="8.81898"><ele>351.0</ele><time>2026-04-16T14:22:33.741Z</time></trkpt><trkpt lat="40.4284183" lon="8.8187533"><ele>351.0</ele><time>2026-04-16T14:22:34.741Z</time></trkpt><trkpt lat="40.428395" lon="8.8185133"><ele>351.0</ele><time>2026-04-16T14:22:35.742Z</time></trkpt><trkpt lat="40.4283817" lon="8.81827"><ele>351.0</ele><time>2026-04-16T14:22:36.741Z</time></trkpt><trkpt lat="40.4283717" lon="8.8180283"><ele>351.6666666666667</ele><time>2026-04-16T14:22:37.742Z</time></trkpt><trkpt lat="40.4283583" lon="8.81778"><ele>352.33333333333337</ele><time>2026-04-16T14:22:38.742Z</time></trkpt><trkpt lat="40.428345" lon="8.8175283"><ele>353.0</ele><time>2026-04-16T14:22:39.742Z</time></trkpt><trkpt lat="40.4283333" lon="8.8172717"><ele>353.0</ele><time>2026-04-16T14:22:40.742Z</time></trkpt><trkpt lat="40.4283217" lon="8.81701"><ele>353.0</ele><time>2026-04-16T14:22:41.742Z</time></trkpt><trkpt lat="40.4283083" lon="8.8167483"><ele>353.0</ele><time>2026-04-16T14:22:42.742Z</time></trkpt><trkpt lat="40.4282783" lon="8.8162183"><ele>352.33333333333337</ele><time>2026-04-16T14:22:44.742Z</time></trkpt><trkpt lat="40.4282667" lon="8.8159517"><ele>351.6666666666667</ele><time>2026-04-16T14:22:45.742Z</time></trkpt><trkpt lat="40.4282583" lon="8.8156867"><ele>351.0</ele><time>2026-04-16T14:22:46.741Z</time></trkpt><trkpt lat="40.4282467" lon="8.8154317"><ele>351.0</ele><time>2026-04-16T14:22:47.741Z</time></trkpt><trkpt lat="40.4282317" lon="8.8151833"><ele>351.0</ele><time>2026-04-16T14:22:48.741Z</time></trkpt><trkpt lat="40.42822" lon="8.8149433"><ele>351.0</ele><time>2026-04-16T14:22:49.742Z</time></trkpt><trkpt lat="40.4282167" lon="8.8147067"><ele>351.0</ele><time>2026-04-16T14:22:50.741Z</time></trkpt><trkpt lat="40.4282267" lon="8.8144717"><ele>351.0</ele><time>2026-04-16T14:22:51.742Z</time></trkpt><trkpt lat="40.4282517" lon="8.814235"><ele>351.0</ele><time>2026-04-16T14:22:52.742Z</time></trkpt><trkpt lat="40.428295" lon="8.814"><ele>351.3333333333333</ele><time>2026-04-16T14:22:53.742Z</time></trkpt><trkpt lat="40.428345" lon="8.8137683"><ele>351.66666666666663</ele><time>2026-04-16T14:22:54.742Z</time></trkpt><trkpt lat="40.4283867" lon="8.8135317"><ele>352.0</ele><time>2026-04-16T14:22:55.742Z</time></trkpt><trkpt lat="40.4284167" lon="8.8132883"><ele>352.0</ele><time>2026-04-16T14:22:56.741Z</time></trkpt><trkpt lat="40.42844" lon="8.8130317"><ele>352.0</ele><time>2026-04-16T14:22:57.741Z</time></trkpt><trkpt lat="40.4284583" lon="8.8127833"><ele>352.0</ele><time>2026-04-16T14:22:58.742Z</time></trkpt><trkpt lat="40.42847" lon="8.8125267"><ele>351.3333333333333</ele><time>2026-04-16T14:22:59.741Z</time></trkpt><trkpt lat="40.42848" lon="8.8122717"><ele>350.6666666666667</ele><time>2026-04-16T14:23:00.742Z</time></trkpt><trkpt lat="40.428495" lon="8.8120133"><ele>350.0</ele><time>2026-04-16T14:23:01.741Z</time></trkpt><trkpt lat="40.428515" lon="8.8117517"><ele>349.33333333333337</ele><time>2026-04-16T14:23:02.741Z</time></trkpt><trkpt lat="40.4285267" lon="8.8114917"><ele>348.6666666666667</ele><time>2026-04-16T14:23:03.742Z</time></trkpt><trkpt lat="40.4285383" lon="8.8112233"><ele>348.0</ele><time>2026-04-16T14:23:04.742Z</time></trkpt><trkpt lat="40.42855" lon="8.8109567"><ele>348.0</ele><time>2026-04-16T14:23:05.741Z</time></trkpt><trkpt lat="40.4285617" lon="8.8106967"><ele>348.0</ele><time>2026-04-16T14:23:06.741Z</time></trkpt><trkpt lat="40.4285733" lon="8.81044"><ele>348.0</ele><time>2026-04-16T14:23:07.741Z</time></trkpt><trkpt lat="40.4286" lon="8.8101883"><ele>348.3333333333333</ele><time>2026-04-16T14:23:08.741Z</time></trkpt><trkpt lat="40.4286433" lon="8.8099417"><ele>348.66666666666663</ele><time>2026-04-16T14:23:09.741Z</time></trkpt><trkpt lat="40.4287" lon="8.809695"><ele>349.0</ele><time>2026-04-16T14:23:10.742Z</time></trkpt><trkpt lat="40.42876" lon="8.8094583"><ele>348.3333333333333</ele><time>2026-04-16T14:23:11.742Z</time></trkpt><trkpt lat="40.4288317" lon="8.809215"><ele>347.6666666666667</ele><time>2026-04-16T14:23:12.742Z</time></trkpt><trkpt lat="40.4288767" lon="8.8089933"><ele>347.0</ele><time>2026-04-16T14:23:13.741Z</time></trkpt><trkpt lat="40.4289067" lon="8.8087767"><ele>347.0</ele><time>2026-04-16T14:23:14.742Z</time></trkpt><trkpt lat="40.4289133" lon="8.8085633"><ele>347.0</ele><time>2026-04-16T14:23:15.742Z</time></trkpt><trkpt lat="40.4288933" lon="8.8083583"><ele>347.0</ele><time>2026-04-16T14:23:16.742Z</time></trkpt><trkpt lat="40.4288483" lon="8.8081517"><ele>348.0</ele><time>2026-04-16T14:23:17.742Z</time></trkpt><trkpt lat="40.428795" lon="8.8079417"><ele>349.0</ele><time>2026-04-16T14:23:18.741Z</time></trkpt><trkpt lat="40.4287283" lon="8.80773"><ele>350.0</ele><time>2026-04-16T14:23:19.742Z</time></trkpt><trkpt lat="40.4286667" lon="8.80751"><ele>350.0</ele><time>2026-04-16T14:23:20.741Z</time></trkpt><trkpt lat="40.4286" lon="8.807285"><ele>350.0</ele><time>2026-04-16T14:23:21.742Z</time></trkpt><trkpt lat="40.4285333" lon="8.807055"><ele>350.0</ele><time>2026-04-16T14:23:22.742Z</time></trkpt><trkpt lat="40.4284667" lon="8.806825"><ele>350.0</ele><time>2026-04-16T14:23:23.742Z</time></trkpt><trkpt lat="40.428405" lon="8.80659"><ele>350.0</ele><time>2026-04-16T14:23:24.741Z</time></trkpt><trkpt lat="40.4283383" lon="8.8063583"><ele>350.0</ele><time>2026-04-16T14:23:25.742Z</time></trkpt><trkpt lat="40.428275" lon="8.8061233"><ele>349.6666666666667</ele><time>2026-04-16T14:23:26.741Z</time></trkpt><trkpt lat="40.4282117" lon="8.8058933"><ele>349.3333333333333</ele><time>2026-04-16T14:23:27.741Z</time></trkpt><trkpt lat="40.4281533" lon="8.8056567"><ele>349.0</ele><time>2026-04-16T14:23:28.741Z</time></trkpt><trkpt lat="40.4280983" lon="8.80542"><ele>349.0</ele><time>2026-04-16T14:23:29.741Z</time></trkpt><trkpt lat="40.4280433" lon="8.8051817"><ele>349.0</ele><time>2026-04-16T14:23:30.742Z</time></trkpt><trkpt lat="40.428" lon="8.8049467"><ele>349.0</ele><time>2026-04-16T14:23:31.742Z</time></trkpt><trkpt lat="40.4279567" lon="8.8047167"><ele>349.66666666666663</ele><time>2026-04-16T14:23:32.742Z</time></trkpt><trkpt lat="40.42791" lon="8.8044833"><ele>350.3333333333333</ele><time>2026-04-16T14:23:33.741Z</time></trkpt><trkpt lat="40.42786" lon="8.8042517"><ele>351.0</ele><time>2026-04-16T14:23:34.741Z</time></trkpt><trkpt lat="40.4278133" lon="8.8040183"><ele>351.0</ele><time>2026-04-16T14:23:35.741Z</time></trkpt><trkpt lat="40.4277683" lon="8.8037817"><ele>351.0</ele><time>2026-04-16T14:23:36.742Z</time></trkpt><trkpt lat="40.42772" lon="8.8035467"><ele>351.0</ele><time>2026-04-16T14:23:37.742Z</time></trkpt><trkpt lat="40.4276667" lon="8.8033167"><ele>351.3333333333333</ele><time>2026-04-16T14:23:38.741Z</time></trkpt><trkpt lat="40.4275983" lon="8.8030883"><ele>351.66666666666663</ele><time>2026-04-16T14:23:39.741Z</time></trkpt><trkpt lat="40.4275233" lon="8.8028633"><ele>352.0</ele><time>2026-04-16T14:23:40.741Z</time></trkpt><trkpt lat="40.42744" lon="8.80264"><ele>352.0</ele><time>2026-04-16T14:23:41.742Z</time></trkpt><trkpt lat="40.4273517" lon="8.802415"><ele>352.0</ele><time>2026-04-16T14:23:42.742Z</time></trkpt><trkpt lat="40.4272633" lon="8.8021933"><ele>352.0</ele><time>2026-04-16T14:23:43.741Z</time></trkpt><trkpt lat="40.427175" lon="8.8019667"><ele>351.3333333333333</ele><time>2026-04-16T14:23:44.742Z</time></trkpt><trkpt lat="40.427095" lon="8.80174"><ele>350.6666666666667</ele><time>2026-04-16T14:23:45.742Z</time></trkpt><trkpt lat="40.42701" lon="8.8015167"><ele>350.0</ele><time>2026-04-16T14:23:46.742Z</time></trkpt><trkpt lat="40.426925" lon="8.801295"><ele>350.0</ele><time>2026-04-16T14:23:47.742Z</time></trkpt><trkpt lat="40.4268467" lon="8.8010733"><ele>350.0</ele><time>2026-04-16T14:23:48.741Z</time></trkpt><trkpt lat="40.42677" lon="8.8008483"><ele>350.0</ele><time>2026-04-16T14:23:49.742Z</time></trkpt><trkpt lat="40.4266983" lon="8.800625"><ele>350.0</ele><time>2026-04-16T14:23:50.742Z</time></trkpt><trkpt lat="40.4266333" lon="8.8003933"><ele>350.0</ele><time>2026-04-16T14:23:51.742Z</time></trkpt><trkpt lat="40.4265767" lon="8.80016"><ele>350.0</ele><time>2026-04-16T14:23:52.741Z</time></trkpt><trkpt lat="40.4265217" lon="8.7999283"><ele>350.6666666666667</ele><time>2026-04-16T14:23:53.741Z</time></trkpt><trkpt lat="40.4264733" lon="8.7997083"><ele>351.3333333333333</ele><time>2026-04-16T14:23:54.741Z</time></trkpt><trkpt lat="40.4264367" lon="8.7994883"><ele>352.0</ele><time>2026-04-16T14:23:55.741Z</time></trkpt><trkpt lat="40.4264083" lon="8.7992817"><ele>352.0</ele><time>2026-04-16T14:23:56.741Z</time></trkpt><trkpt lat="40.4263983" lon="8.7990783"><ele>352.0</ele><time>2026-04-16T14:23:57.742Z</time></trkpt><trkpt lat="40.42641" lon="8.798875"><ele>352.0</ele><time>2026-04-16T14:23:58.741Z</time></trkpt><trkpt lat="40.4264383" lon="8.79868"><ele>351.66666666666663</ele><time>2026-04-16T14:23:59.741Z</time></trkpt><trkpt lat="40.42649" lon="8.7984883"><ele>351.3333333333333</ele><time>2026-04-16T14:24:00.741Z</time></trkpt><trkpt lat="40.4265617" lon="8.7983067"><ele>351.0</ele><time>2026-04-16T14:24:01.741Z</time></trkpt><trkpt lat="40.4266533" lon="8.7981333"><ele>351.0</ele><time>2026-04-16T14:24:02.742Z</time></trkpt><trkpt lat="40.4267533" lon="8.7979583"><ele>351.0</ele><time>2026-04-16T14:24:03.741Z</time></trkpt><trkpt lat="40.426855" lon="8.7977767"><ele>351.0</ele><time>2026-04-16T14:24:04.742Z</time></trkpt><trkpt lat="40.42696" lon="8.7975933"><ele>351.0</ele><time>2026-04-16T14:24:05.742Z</time></trkpt><trkpt lat="40.4270633" lon="8.797405"><ele>351.0</ele><time>2026-04-16T14:24:06.742Z</time></trkpt><trkpt lat="40.42717" lon="8.7972117"><ele>351.0</ele><time>2026-04-16T14:24:07.742Z</time></trkpt><trkpt lat="40.4272683" lon="8.7970217"><ele>350.6666666666667</ele><time>2026-04-16T14:24:08.741Z</time></trkpt><trkpt lat="40.42737" lon="8.7968317"><ele>350.33333333333337</ele><time>2026-04-16T14:24:09.742Z</time></trkpt><trkpt lat="40.4274783" lon="8.796635"><ele>350.0</ele><time>2026-04-16T14:24:10.742Z</time></trkpt><trkpt lat="40.4275883" lon="8.7964367"><ele>350.0</ele><time>2026-04-16T14:24:11.741Z</time></trkpt><trkpt lat="40.4276933" lon="8.79624"><ele>350.0</ele><time>2026-04-16T14:24:12.742Z</time></trkpt><trkpt lat="40.4277983" lon="8.7960467"><ele>350.0</ele><time>2026-04-16T14:24:13.742Z</time></trkpt><trkpt lat="40.4279067" lon="8.7958483"><ele>351.0</ele><time>2026-04-16T14:24:14.742Z</time></trkpt><trkpt lat="40.4280133" lon="8.795655"><ele>352.0</ele><time>2026-04-16T14:24:15.742Z</time></trkpt><trkpt lat="40.4281167" lon="8.7954583"><ele>353.0</ele><time>2026-04-16T14:24:16.741Z</time></trkpt><trkpt lat="40.42822" lon="8.7952633"><ele>353.33333333333337</ele><time>2026-04-16T14:24:17.742Z</time></trkpt><trkpt lat="40.4283267" lon="8.7950667"><ele>353.6666666666667</ele><time>2026-04-16T14:24:18.742Z</time></trkpt><trkpt lat="40.42843" lon="8.7948767"><ele>354.0</ele><time>2026-04-16T14:24:19.742Z</time></trkpt><trkpt lat="40.4285383" lon="8.7946817"><ele>354.0</ele><time>2026-04-16T14:24:20.742Z</time></trkpt><trkpt lat="40.4286417" lon="8.7944883"><ele>354.0</ele><time>2026-04-16T14:24:21.742Z</time></trkpt><trkpt lat="40.4287467" lon="8.7942833"><ele>354.0</ele><time>2026-04-16T14:24:22.742Z</time></trkpt><trkpt lat="40.4288517" lon="8.7940867"><ele>354.0</ele><time>2026-04-16T14:24:23.742Z</time></trkpt><trkpt lat="40.4289617" lon="8.7938917"><ele>354.0</ele><time>2026-04-16T14:24:24.742Z</time></trkpt><trkpt lat="40.42907" lon="8.7936867"><ele>354.0</ele><time>2026-04-16T14:24:25.741Z</time></trkpt><trkpt lat="40.4291817" lon="8.7934833"><ele>354.3333333333333</ele><time>2026-04-16T14:24:26.742Z</time></trkpt><trkpt lat="40.42929" lon="8.793285"><ele>354.66666666666663</ele><time>2026-04-16T14:24:27.742Z</time></trkpt><trkpt lat="40.4294" lon="8.793085"><ele>355.0</ele><time>2026-04-16T14:24:28.742Z</time></trkpt><trkpt lat="40.4295133" lon="8.792885"><ele>355.0</ele><time>2026-04-16T14:24:29.742Z</time></trkpt><trkpt lat="40.429625" lon="8.7926833"><ele>355.0</ele><time>2026-04-16T14:24:30.741Z</time></trkpt><trkpt lat="40.429735" lon="8.79248"><ele>355.0</ele><time>2026-04-16T14:24:31.742Z</time></trkpt><trkpt lat="40.4298417" lon="8.7922767"><ele>355.0</ele><time>2026-04-16T14:24:32.741Z</time></trkpt><trkpt lat="40.429955" lon="8.7920683"><ele>355.0</ele><time>2026-04-16T14:24:33.742Z</time></trkpt><trkpt lat="40.4300667" lon="8.7918617"><ele>355.0</ele><time>2026-04-16T14:24:34.742Z</time></trkpt><trkpt lat="40.4301783" lon="8.791655"><ele>355.0</ele><time>2026-04-16T14:24:35.742Z</time></trkpt><trkpt lat="40.4302917" lon="8.79145"><ele>355.0</ele><time>2026-04-16T14:24:36.742Z</time></trkpt><trkpt lat="40.430405" lon="8.7912433"><ele>355.0</ele><time>2026-04-16T14:24:37.741Z</time></trkpt><trkpt lat="40.4305167" lon="8.7910367"><ele>355.0</ele><time>2026-04-16T14:24:38.742Z</time></trkpt><trkpt lat="40.4306267" lon="8.7908233"><ele>355.0</ele><time>2026-04-16T14:24:39.742Z</time></trkpt><trkpt lat="40.4307367" lon="8.790615"><ele>355.0</ele><time>2026-04-16T14:24:40.742Z</time></trkpt><trkpt lat="40.430845" lon="8.7904117"><ele>355.0</ele><time>2026-04-16T14:24:41.741Z</time></trkpt><trkpt lat="40.430955" lon="8.7902067"><ele>355.0</ele><time>2026-04-16T14:24:42.741Z</time></trkpt><trkpt lat="40.4310717" lon="8.7900083"><ele>355.0</ele><time>2026-04-16T14:24:43.742Z</time></trkpt><trkpt lat="40.4311917" lon="8.789815"><ele>354.66666666666663</ele><time>2026-04-16T14:24:44.742Z</time></trkpt><trkpt lat="40.43132" lon="8.7896233"><ele>354.3333333333333</ele><time>2026-04-16T14:24:45.741Z</time></trkpt><trkpt lat="40.431455" lon="8.7894383"><ele>354.0</ele><time>2026-04-16T14:24:46.741Z</time></trkpt><trkpt lat="40.43158" lon="8.7892483"><ele>355.0</ele><time>2026-04-16T14:24:47.742Z</time></trkpt><trkpt lat="40.43171" lon="8.7890583"><ele>356.0</ele><time>2026-04-16T14:24:48.742Z</time></trkpt><trkpt lat="40.4318367" lon="8.7888683"><ele>357.0</ele><time>2026-04-16T14:24:49.741Z</time></trkpt><trkpt lat="40.4319683" lon="8.788685"><ele>357.0</ele><time>2026-04-16T14:24:50.741Z</time></trkpt><trkpt lat="40.4321" lon="8.7885017"><ele>357.0</ele><time>2026-04-16T14:24:51.741Z</time></trkpt><trkpt lat="40.4322267" lon="8.788315"><ele>357.0</ele><time>2026-04-16T14:24:52.742Z</time></trkpt><trkpt lat="40.4323517" lon="8.788125"><ele>356.6666666666667</ele><time>2026-04-16T14:24:53.742Z</time></trkpt><trkpt lat="40.43248" lon="8.787945"><ele>356.33333333333337</ele><time>2026-04-16T14:24:54.74Z</time></trkpt><trkpt lat="40.432585" lon="8.7877733"><ele>356.0</ele><time>2026-04-16T14:24:55.74Z</time></trkpt><trkpt lat="40.4326783" lon="8.7875967"><ele>357.0</ele><time>2026-04-16T14:24:56.74Z</time></trkpt><trkpt lat="40.4327533" lon="8.7874117"><ele>358.0</ele><time>2026-04-16T14:24:57.741Z</time></trkpt><trkpt lat="40.4328083" lon="8.7872083"><ele>359.0</ele><time>2026-04-16T14:24:58.741Z</time></trkpt><trkpt lat="40.4328417" lon="8.7869917"><ele>358.6666666666667</ele><time>2026-04-16T14:24:59.741Z</time></trkpt><trkpt lat="40.4328633" lon="8.7867717"><ele>358.3333333333333</ele><time>2026-04-16T14:25:00.741Z</time></trkpt><trkpt lat="40.4328883" lon="8.7865483"><ele>358.0</ele><time>2026-04-16T14:25:01.741Z</time></trkpt><trkpt lat="40.43292" lon="8.786325"><ele>358.0</ele><time>2026-04-16T14:25:02.74Z</time></trkpt><trkpt lat="40.432955" lon="8.7860967"><ele>358.0</ele><time>2026-04-16T14:25:03.74Z</time></trkpt><trkpt lat="40.4329883" lon="8.7858667"><ele>358.0</ele><time>2026-04-16T14:25:04.741Z</time></trkpt><trkpt lat="40.4330217" lon="8.7856433"><ele>359.0</ele><time>2026-04-16T14:25:05.74Z</time></trkpt><trkpt lat="40.4330483" lon="8.785415"><ele>360.0</ele><time>2026-04-16T14:25:06.74Z</time></trkpt><trkpt lat="40.43308" lon="8.7851933"><ele>361.0</ele><time>2026-04-16T14:25:07.741Z</time></trkpt><trkpt lat="40.4331167" lon="8.7849717"><ele>361.3333333333333</ele><time>2026-04-16T14:25:08.741Z</time></trkpt><trkpt lat="40.4331467" lon="8.7847517"><ele>361.6666666666667</ele><time>2026-04-16T14:25:09.741Z</time></trkpt><trkpt lat="40.4331767" lon="8.7845367"><ele>362.0</ele><time>2026-04-16T14:25:10.74Z</time></trkpt><trkpt lat="40.4332083" lon="8.784325"><ele>364.33333333333337</ele><time>2026-04-16T14:25:11.741Z</time></trkpt><trkpt lat="40.4332283" lon="8.78411"><ele>366.6666666666667</ele><time>2026-04-16T14:25:12.74Z</time></trkpt><trkpt lat="40.4332367" lon="8.7839033"><ele>369.0</ele><time>2026-04-16T14:25:13.741Z</time></trkpt><trkpt lat="40.4332217" lon="8.7837133"><ele>369.0</ele><time>2026-04-16T14:25:14.74Z</time></trkpt><trkpt lat="40.4331883" lon="8.783545"><ele>369.0</ele><time>2026-04-16T14:25:15.741Z</time></trkpt><trkpt lat="40.4331683" lon="8.78339"><ele>369.0</ele><time>2026-04-16T14:25:16.741Z</time></trkpt><trkpt lat="40.43318" lon="8.78323"><ele>369.0</ele><time>2026-04-16T14:25:17.741Z</time></trkpt><trkpt lat="40.4332317" lon="8.7830717"><ele>368.75</ele><time>2026-04-16T14:25:18.741Z</time></trkpt><trkpt lat="40.433305" lon="8.78292"><ele>368.5</ele><time>2026-04-16T14:25:19.741Z</time></trkpt><trkpt lat="40.43339" lon="8.7827683"><ele>368.25</ele><time>2026-04-16T14:25:20.741Z</time></trkpt><trkpt lat="40.4334833" lon="8.7826033"><ele>368.0</ele><time>2026-04-16T14:25:21.74Z</time></trkpt><trkpt lat="40.4335767" lon="8.782435"><ele>368.0</ele><time>2026-04-16T14:25:22.741Z</time></trkpt><trkpt lat="40.4336683" lon="8.7822633"><ele>368.0</ele><time>2026-04-16T14:25:23.741Z</time></trkpt><trkpt lat="40.433765" lon="8.7820933"><ele>368.0</ele><time>2026-04-16T14:25:24.74Z</time></trkpt><trkpt lat="40.433845" lon="8.7819383"><ele>370.25</ele><time>2026-04-16T14:25:25.741Z</time></trkpt><trkpt lat="40.4339033" lon="8.781785"><ele>372.5</ele><time>2026-04-16T14:25:26.741Z</time></trkpt><trkpt lat="40.4339383" lon="8.78161"><ele>374.75</ele><time>2026-04-16T14:25:27.741Z</time></trkpt><trkpt lat="40.4339533" lon="8.7814317"><ele>377.0</ele><time>2026-04-16T14:25:28.74Z</time></trkpt><trkpt lat="40.4339483" lon="8.7812383"><ele>377.0</ele><time>2026-04-16T14:25:29.741Z</time></trkpt><trkpt lat="40.4339333" lon="8.781045"><ele>377.0</ele><time>2026-04-16T14:25:30.741Z</time></trkpt><trkpt lat="40.4339183" lon="8.780845"><ele>377.0</ele><time>2026-04-16T14:25:31.741Z</time></trkpt><trkpt lat="40.4339133" lon="8.7806433"><ele>377.75</ele><time>2026-04-16T14:25:32.74Z</time></trkpt><trkpt lat="40.4339" lon="8.7804567"><ele>378.5</ele><time>2026-04-16T14:25:33.741Z</time></trkpt><trkpt lat="40.43387" lon="8.780305"><ele>379.25</ele><time>2026-04-16T14:25:34.741Z</time></trkpt><trkpt lat="40.4338117" lon="8.7801717"><ele>380.0</ele><time>2026-04-16T14:25:35.741Z</time></trkpt><trkpt lat="40.433725" lon="8.7800583"><ele>380.0</ele><time>2026-04-16T14:25:36.741Z</time></trkpt><trkpt lat="40.433615" lon="8.7799667"><ele>380.0</ele><time>2026-04-16T14:25:37.741Z</time></trkpt><trkpt lat="40.4334917" lon="8.7798767"><ele>380.0</ele><time>2026-04-16T14:25:38.741Z</time></trkpt><trkpt lat="40.4333633" lon="8.779785"><ele>380.0</ele><time>2026-04-16T14:25:39.741Z</time></trkpt><trkpt lat="40.4332417" lon="8.779685"><ele>380.0</ele><time>2026-04-16T14:25:40.74Z</time></trkpt><trkpt lat="40.4331333" lon="8.779575"><ele>380.0</ele><time>2026-04-16T14:25:41.74Z</time></trkpt><trkpt lat="40.4330517" lon="8.779435"><ele>380.0</ele><time>2026-04-16T14:25:42.741Z</time></trkpt><trkpt lat="40.4329967" lon="8.7792683"><ele>380.0</ele><time>2026-04-16T14:25:43.74Z</time></trkpt><trkpt lat="40.4329667" lon="8.7790783"><ele>379.33333333333337</ele><time>2026-04-16T14:25:44.74Z</time></trkpt><trkpt lat="40.432945" lon="8.7788867"><ele>378.6666666666667</ele><time>2026-04-16T14:25:45.74Z</time></trkpt><trkpt lat="40.43293" lon="8.7786683"><ele>378.0</ele><time>2026-04-16T14:25:46.741Z</time></trkpt><trkpt lat="40.4329067" lon="8.7784383"><ele>376.3333333333333</ele><time>2026-04-16T14:25:47.741Z</time></trkpt><trkpt lat="40.43288" lon="8.77821"><ele>374.66666666666663</ele><time>2026-04-16T14:25:48.741Z</time></trkpt><trkpt lat="40.43285" lon="8.77797"><ele>373.0</ele><time>2026-04-16T14:25:49.741Z</time></trkpt><trkpt lat="40.4328183" lon="8.7777283"><ele>373.3333333333333</ele><time>2026-04-16T14:25:50.741Z</time></trkpt><trkpt lat="40.4327917" lon="8.7774833"><ele>373.6666666666667</ele><time>2026-04-16T14:25:51.74Z</time></trkpt><trkpt lat="40.4327583" lon="8.777235"><ele>374.0</ele><time>2026-04-16T14:25:52.74Z</time></trkpt><trkpt lat="40.4327233" lon="8.7769883"><ele>375.0</ele><time>2026-04-16T14:25:53.741Z</time></trkpt><trkpt lat="40.432695" lon="8.7767433"><ele>376.0</ele><time>2026-04-16T14:25:54.74Z</time></trkpt><trkpt lat="40.4326683" lon="8.7764933"><ele>377.0</ele><time>2026-04-16T14:25:55.74Z</time></trkpt><trkpt lat="40.4326467" lon="8.7762417"><ele>376.33333333333337</ele><time>2026-04-16T14:25:56.741Z</time></trkpt><trkpt lat="40.4326217" lon="8.775995"><ele>375.6666666666667</ele><time>2026-04-16T14:25:57.741Z</time></trkpt><trkpt lat="40.4325917" lon="8.7757533"><ele>375.0</ele><time>2026-04-16T14:25:58.741Z</time></trkpt><trkpt lat="40.4325617" lon="8.7755083"><ele>375.0</ele><time>2026-04-16T14:25:59.74Z</time></trkpt><trkpt lat="40.432535" lon="8.7752617"><ele>375.0</ele><time>2026-04-16T14:26:00.741Z</time></trkpt><trkpt lat="40.4325067" lon="8.7750183"><ele>375.0</ele><time>2026-04-16T14:26:01.741Z</time></trkpt><trkpt lat="40.43248" lon="8.7747783"><ele>374.6666666666667</ele><time>2026-04-16T14:26:02.741Z</time></trkpt><trkpt lat="40.4324583" lon="8.77453"><ele>374.33333333333337</ele><time>2026-04-16T14:26:03.74Z</time></trkpt><trkpt lat="40.432425" lon="8.7742933"><ele>374.0</ele><time>2026-04-16T14:26:04.74Z</time></trkpt><trkpt lat="40.4324067" lon="8.7740433"><ele>374.6666666666667</ele><time>2026-04-16T14:26:05.74Z</time></trkpt><trkpt lat="40.4323683" lon="8.7738083"><ele>375.3333333333333</ele><time>2026-04-16T14:26:06.741Z</time></trkpt><trkpt lat="40.4323383" lon="8.7735767"><ele>376.0</ele><time>2026-04-16T14:26:07.741Z</time></trkpt><trkpt lat="40.4323083" lon="8.77335"><ele>376.66666666666663</ele><time>2026-04-16T14:26:08.741Z</time></trkpt><trkpt lat="40.4322867" lon="8.7731383"><ele>377.3333333333333</ele><time>2026-04-16T14:26:09.741Z</time></trkpt><trkpt lat="40.4322683" lon="8.772925"><ele>378.0</ele><time>2026-04-16T14:26:10.741Z</time></trkpt><trkpt lat="40.4322467" lon="8.77271"><ele>378.6666666666667</ele><time>2026-04-16T14:26:11.74Z</time></trkpt><trkpt lat="40.4322117" lon="8.7724983"><ele>379.33333333333337</ele><time>2026-04-16T14:26:12.74Z</time></trkpt><trkpt lat="40.432165" lon="8.7722933"><ele>380.0</ele><time>2026-04-16T14:26:13.74Z</time></trkpt><trkpt lat="40.4321" lon="8.7721"><ele>382.0</ele><time>2026-04-16T14:26:14.74Z</time></trkpt><trkpt lat="40.4320133" lon="8.7719217"><ele>384.0</ele><time>2026-04-16T14:26:15.741Z</time></trkpt><trkpt lat="40.4319033" lon="8.77177"><ele>386.0</ele><time>2026-04-16T14:26:16.741Z</time></trkpt><trkpt lat="40.43177" lon="8.7716517"><ele>386.0</ele><time>2026-04-16T14:26:17.74Z</time></trkpt><trkpt lat="40.4316183" lon="8.7715683"><ele>386.0</ele><time>2026-04-16T14:26:18.74Z</time></trkpt><trkpt lat="40.4314583" lon="8.77151"><ele>386.0</ele><time>2026-04-16T14:26:19.741Z</time></trkpt><trkpt lat="40.4312983" lon="8.7714617"><ele>387.0</ele><time>2026-04-16T14:26:20.741Z</time></trkpt><trkpt lat="40.43113" lon="8.7714167"><ele>388.0</ele><time>2026-04-16T14:26:21.741Z</time></trkpt><trkpt lat="40.43096" lon="8.7713717"><ele>389.0</ele><time>2026-04-16T14:26:22.741Z</time></trkpt><trkpt lat="40.4307917" lon="8.7713383"><ele>389.0</ele><time>2026-04-16T14:26:23.741Z</time></trkpt><trkpt lat="40.43062" lon="8.77132"><ele>389.0</ele><time>2026-04-16T14:26:24.741Z</time></trkpt><trkpt lat="40.43045" lon="8.7713283"><ele>389.0</ele><time>2026-04-16T14:26:25.74Z</time></trkpt><trkpt lat="40.430275" lon="8.7713467"><ele>392.0</ele><time>2026-04-16T14:26:26.741Z</time></trkpt><trkpt lat="40.43011" lon="8.7713817"><ele>395.0</ele><time>2026-04-16T14:26:27.741Z</time></trkpt><trkpt lat="40.429945" lon="8.771415"><ele>398.0</ele><time>2026-04-16T14:26:28.74Z</time></trkpt><trkpt lat="40.42978" lon="8.7714533"><ele>400.66666666666663</ele><time>2026-04-16T14:26:29.74Z</time></trkpt><trkpt lat="40.4296133" lon="8.7714867"><ele>403.33333333333337</ele><time>2026-04-16T14:26:30.741Z</time></trkpt><trkpt lat="40.4294433" lon="8.7715233"><ele>406.0</ele><time>2026-04-16T14:26:31.741Z</time></trkpt><trkpt lat="40.42927" lon="8.7715567"><ele>406.0</ele><time>2026-04-16T14:26:32.74Z</time></trkpt><trkpt lat="40.4290983" lon="8.7715933"><ele>406.0</ele><time>2026-04-16T14:26:33.741Z</time></trkpt><trkpt lat="40.4289267" lon="8.77163"><ele>406.0</ele><time>2026-04-16T14:26:34.741Z</time></trkpt><trkpt lat="40.4287567" lon="8.7716633"><ele>406.6666666666667</ele><time>2026-04-16T14:26:35.74Z</time></trkpt><trkpt lat="40.4285817" lon="8.7717017"><ele>407.33333333333337</ele><time>2026-04-16T14:26:36.741Z</time></trkpt><trkpt lat="40.42841" lon="8.77175"><ele>408.0</ele><time>2026-04-16T14:26:37.741Z</time></trkpt><trkpt lat="40.4282417" lon="8.7718183"><ele>408.0</ele><time>2026-04-16T14:26:38.741Z</time></trkpt><trkpt lat="40.4280733" lon="8.771905"><ele>408.0</ele><time>2026-04-16T14:26:39.741Z</time></trkpt><trkpt lat="40.4279083" lon="8.772"><ele>408.0</ele><time>2026-04-16T14:26:40.74Z</time></trkpt><trkpt lat="40.4277433" lon="8.772095"><ele>409.33333333333337</ele><time>2026-04-16T14:26:41.74Z</time></trkpt><trkpt lat="40.4275733" lon="8.7721933"><ele>410.6666666666667</ele><time>2026-04-16T14:26:42.741Z</time></trkpt><trkpt lat="40.4274083" lon="8.7722883"><ele>412.0</ele><time>2026-04-16T14:26:43.74Z</time></trkpt><trkpt lat="40.42724" lon="8.7723817"><ele>415.6666666666667</ele><time>2026-04-16T14:26:44.741Z</time></trkpt><trkpt lat="40.4270717" lon="8.7724733"><ele>419.33333333333337</ele><time>2026-04-16T14:26:45.741Z</time></trkpt><trkpt lat="40.4269017" lon="8.772565"><ele>423.0</ele><time>2026-04-16T14:26:46.74Z</time></trkpt><trkpt lat="40.4267333" lon="8.77266"><ele>423.66666666666663</ele><time>2026-04-16T14:26:47.74Z</time></trkpt><trkpt lat="40.4265567" lon="8.7727517"><ele>424.3333333333333</ele><time>2026-04-16T14:26:48.74Z</time></trkpt><trkpt lat="40.42639" lon="8.7728483"><ele>425.0</ele><time>2026-04-16T14:26:49.741Z</time></trkpt><trkpt lat="40.426235" lon="8.772955"><ele>425.0</ele><time>2026-04-16T14:26:50.741Z</time></trkpt><trkpt lat="40.426105" lon="8.7730767"><ele>425.0</ele><time>2026-04-16T14:26:51.741Z</time></trkpt><trkpt lat="40.4259933" lon="8.7732267"><ele>425.0</ele><time>2026-04-16T14:26:52.741Z</time></trkpt><trkpt lat="40.4259033" lon="8.7733917"><ele>426.0</ele><time>2026-04-16T14:26:53.741Z</time></trkpt><trkpt lat="40.4258567" lon="8.77356"><ele>427.0</ele><time>2026-04-16T14:26:54.741Z</time></trkpt><trkpt lat="40.4258317" lon="8.773735"><ele>428.0</ele><time>2026-04-16T14:26:55.741Z</time></trkpt><trkpt lat="40.4258283" lon="8.7739167"><ele>429.0</ele><time>2026-04-16T14:26:56.74Z</time></trkpt><trkpt lat="40.4258517" lon="8.7740917"><ele>429.0</ele><time>2026-04-16T14:26:57.74Z</time></trkpt><trkpt lat="40.4258867" lon="8.7742767"><ele>429.0</ele><time>2026-04-16T14:26:58.74Z</time></trkpt><trkpt lat="40.4259217" lon="8.7744617"><ele>429.0</ele><time>2026-04-16T14:26:59.74Z</time></trkpt><trkpt lat="40.4259383" lon="8.77465"><ele>429.0</ele><time>2026-04-16T14:27:00.74Z</time></trkpt><trkpt lat="40.4259267" lon="8.77483"><ele>430.25</ele><time>2026-04-16T14:27:01.741Z</time></trkpt><trkpt lat="40.4258967" lon="8.775"><ele>431.5</ele><time>2026-04-16T14:27:02.741Z</time></trkpt><trkpt lat="40.4258333" lon="8.7751483"><ele>432.75</ele><time>2026-04-16T14:27:03.741Z</time></trkpt><trkpt lat="40.4257383" lon="8.7752817"><ele>434.0</ele><time>2026-04-16T14:27:04.741Z</time></trkpt><trkpt lat="40.4256333" lon="8.7754"><ele>437.0</ele><time>2026-04-16T14:27:05.741Z</time></trkpt><trkpt lat="40.425515" lon="8.7755083"><ele>440.0</ele><time>2026-04-16T14:27:06.74Z</time></trkpt><trkpt lat="40.42539" lon="8.77562"><ele>443.0</ele><time>2026-04-16T14:27:07.741Z</time></trkpt><trkpt lat="40.4252617" lon="8.7757367"><ele>443.0</ele><time>2026-04-16T14:27:08.741Z</time></trkpt><trkpt lat="40.425145" lon="8.77584"><ele>443.0</ele><time>2026-04-16T14:27:09.74Z</time></trkpt><trkpt lat="40.42504" lon="8.7759217"><ele>443.0</ele><time>2026-04-16T14:27:10.741Z</time></trkpt><trkpt lat="40.4249283" lon="8.7759683"><ele>443.0</ele><time>2026-04-16T14:27:11.741Z</time></trkpt><trkpt lat="40.424805" lon="8.7759667"><ele>443.0</ele><time>2026-04-16T14:27:12.741Z</time></trkpt><trkpt lat="40.4246883" lon="8.775915"><ele>443.0</ele><time>2026-04-16T14:27:13.741Z</time></trkpt><trkpt lat="40.4245867" lon="8.775825"><ele>443.0</ele><time>2026-04-16T14:27:14.741Z</time></trkpt><trkpt lat="40.4245067" lon="8.7756983"><ele>443.0</ele><time>2026-04-16T14:27:15.741Z</time></trkpt><trkpt lat="40.42446" lon="8.775545"><ele>447.5</ele><time>2026-04-16T14:27:16.741Z</time></trkpt><trkpt lat="40.4244417" lon="8.775375"><ele>452.0</ele><time>2026-04-16T14:27:17.741Z</time></trkpt><trkpt lat="40.424435" lon="8.7751917"><ele>456.5</ele><time>2026-04-16T14:27:18.741Z</time></trkpt><trkpt lat="40.424425" lon="8.7750033"><ele>461.0</ele><time>2026-04-16T14:27:19.74Z</time></trkpt><trkpt lat="40.424415" lon="8.7748067"><ele>462.0</ele><time>2026-04-16T14:27:20.74Z</time></trkpt><trkpt lat="40.424405" lon="8.7745983"><ele>463.0</ele><time>2026-04-16T14:27:21.741Z</time></trkpt><trkpt lat="40.42439" lon="8.7743817"><ele>464.0</ele><time>2026-04-16T14:27:22.741Z</time></trkpt><trkpt lat="40.42438" lon="8.7741733"><ele>464.0</ele><time>2026-04-16T14:27:23.74Z</time></trkpt><trkpt lat="40.4243717" lon="8.7739783"><ele>464.0</ele><time>2026-04-16T14:27:24.74Z</time></trkpt><trkpt lat="40.4243617" lon="8.7738017"><ele>464.0</ele><time>2026-04-16T14:27:25.74Z</time></trkpt><trkpt lat="40.4243417" lon="8.7736367"><ele>464.0</ele><time>2026-04-16T14:27:26.741Z</time></trkpt><trkpt lat="40.4242983" lon="8.7734867"><ele>464.0</ele><time>2026-04-16T14:27:27.741Z</time></trkpt><trkpt lat="40.4242283" lon="8.773365"><ele>464.0</ele><time>2026-04-16T14:27:28.741Z</time></trkpt><trkpt lat="40.42413" lon="8.7732683"><ele>464.0</ele><time>2026-04-16T14:27:29.74Z</time></trkpt><trkpt lat="40.42401" lon="8.7732017"><ele>464.0</ele><time>2026-04-16T14:27:30.741Z</time></trkpt><trkpt lat="40.42388" lon="8.7731567"><ele>466.0</ele><time>2026-04-16T14:27:31.74Z</time></trkpt><trkpt lat="40.4237483" lon="8.773125"><ele>468.0</ele><time>2026-04-16T14:27:32.741Z</time></trkpt><trkpt lat="40.4236217" lon="8.773135"><ele>470.0</ele><time>2026-04-16T14:27:33.741Z</time></trkpt><trkpt lat="40.4235133" lon="8.7731833"><ele>472.0</ele><time>2026-04-16T14:27:34.74Z</time></trkpt><trkpt lat="40.423415" lon="8.77328"><ele>472.0</ele><time>2026-04-16T14:27:35.741Z</time></trkpt><trkpt lat="40.4233317" lon="8.7734067"><ele>472.0</ele><time>2026-04-16T14:27:36.741Z</time></trkpt><trkpt lat="40.4232467" lon="8.77354"><ele>472.0</ele><time>2026-04-16T14:27:37.741Z</time></trkpt><trkpt lat="40.42315" lon="8.7736717"><ele>472.0</ele><time>2026-04-16T14:27:38.741Z</time></trkpt><trkpt lat="40.423065" lon="8.77378"><ele>473.75</ele><time>2026-04-16T14:27:39.741Z</time></trkpt><trkpt lat="40.4229567" lon="8.7739067"><ele>475.5</ele><time>2026-04-16T14:27:40.741Z</time></trkpt><trkpt lat="40.42285" lon="8.77402"><ele>477.25</ele><time>2026-04-16T14:27:41.741Z</time></trkpt><trkpt lat="40.42274" lon="8.7741317"><ele>479.0</ele><time>2026-04-16T14:27:42.74Z</time></trkpt><trkpt lat="40.4226267" lon="8.7742233"><ele>479.0</ele><time>2026-04-16T14:27:43.741Z</time></trkpt><trkpt lat="40.4225117" lon="8.7742917"><ele>479.0</ele><time>2026-04-16T14:27:44.74Z</time></trkpt><trkpt lat="40.4223917" lon="8.774345"><ele>479.0</ele><time>2026-04-16T14:27:45.741Z</time></trkpt><trkpt lat="40.42226" lon="8.7743817"><ele>479.0</ele><time>2026-04-16T14:27:46.741Z</time></trkpt><trkpt lat="40.4221183" lon="8.774405"><ele>480.25</ele><time>2026-04-16T14:27:47.74Z</time></trkpt><trkpt lat="40.4219767" lon="8.7744283"><ele>481.5</ele><time>2026-04-16T14:27:48.741Z</time></trkpt><trkpt lat="40.4218333" lon="8.7744567"><ele>482.75</ele><time>2026-04-16T14:27:49.74Z</time></trkpt><trkpt lat="40.4216967" lon="8.7744867"><ele>484.0</ele><time>2026-04-16T14:27:50.74Z</time></trkpt><trkpt lat="40.421565" lon="8.7745083"><ele>484.0</ele><time>2026-04-16T14:27:51.74Z</time></trkpt><trkpt lat="40.4214367" lon="8.7745217"><ele>484.0</ele><time>2026-04-16T14:27:52.741Z</time></trkpt><trkpt lat="40.421305" lon="8.7745267"><ele>484.0</ele><time>2026-04-16T14:27:53.74Z</time></trkpt><trkpt lat="40.4211717" lon="8.774515"><ele>484.0</ele><time>2026-04-16T14:27:54.74Z</time></trkpt><trkpt lat="40.4210367" lon="8.7744633"><ele>482.25</ele><time>2026-04-16T14:27:55.741Z</time></trkpt><trkpt lat="40.4209033" lon="8.774405"><ele>480.5</ele><time>2026-04-16T14:27:56.741Z</time></trkpt><trkpt lat="40.420765" lon="8.77435"><ele>478.75</ele><time>2026-04-16T14:27:57.74Z</time></trkpt><trkpt lat="40.4206267" lon="8.7743033"><ele>477.0</ele><time>2026-04-16T14:27:58.74Z</time></trkpt><trkpt lat="40.42049" lon="8.77426"><ele>476.25</ele><time>2026-04-16T14:27:59.74Z</time></trkpt><trkpt lat="40.4203617" lon="8.774215"><ele>475.5</ele><time>2026-04-16T14:28:00.74Z</time></trkpt><trkpt lat="40.4202367" lon="8.77416"><ele>474.75</ele><time>2026-04-16T14:28:01.74Z</time></trkpt><trkpt lat="40.4201133" lon="8.774095"><ele>474.0</ele><time>2026-04-16T14:28:02.739Z</time></trkpt><trkpt lat="40.419995" lon="8.774015"><ele>474.0</ele><time>2026-04-16T14:28:03.74Z</time></trkpt><trkpt lat="40.4198733" lon="8.7739283"><ele>474.0</ele><time>2026-04-16T14:28:04.74Z</time></trkpt><trkpt lat="40.4197467" lon="8.7738433"><ele>474.0</ele><time>2026-04-16T14:28:05.74Z</time></trkpt><trkpt lat="40.4196217" lon="8.7737617"><ele>474.0</ele><time>2026-04-16T14:28:06.74Z</time></trkpt><trkpt lat="40.419505" lon="8.7736667"><ele>474.0</ele><time>2026-04-16T14:28:07.74Z</time></trkpt><trkpt lat="40.4193883" lon="8.7735833"><ele>474.0</ele><time>2026-04-16T14:28:08.74Z</time></trkpt><trkpt lat="40.419265" lon="8.7734967"><ele>474.0</ele><time>2026-04-16T14:28:09.74Z</time></trkpt><trkpt lat="40.4191467" lon="8.7734033"><ele>474.0</ele><time>2026-04-16T14:28:10.74Z</time></trkpt><trkpt lat="40.4190283" lon="8.7733167"><ele>474.0</ele><time>2026-04-16T14:28:11.74Z</time></trkpt><trkpt lat="40.4189117" lon="8.77322"><ele>474.0</ele><time>2026-04-16T14:28:12.74Z</time></trkpt><trkpt lat="40.4187967" lon="8.7731183"><ele>474.0</ele><time>2026-04-16T14:28:13.74Z</time></trkpt><trkpt lat="40.4186867" lon="8.7730133"><ele>474.0</ele><time>2026-04-16T14:28:14.74Z</time></trkpt><trkpt lat="40.4185817" lon="8.7729117"><ele>474.25</ele><time>2026-04-16T14:28:15.74Z</time></trkpt><trkpt lat="40.4184733" lon="8.7728117"><ele>474.5</ele><time>2026-04-16T14:28:16.74Z</time></trkpt><trkpt lat="40.4183717" lon="8.7727067"><ele>474.75</ele><time>2026-04-16T14:28:17.739Z</time></trkpt><trkpt lat="40.4182717" lon="8.772595"><ele>475.0</ele><time>2026-04-16T14:28:18.74Z</time></trkpt><trkpt lat="40.4181717" lon="8.7724767"><ele>476.75</ele><time>2026-04-16T14:28:19.74Z</time></trkpt><trkpt lat="40.4180767" lon="8.7723367"><ele>478.5</ele><time>2026-04-16T14:28:20.739Z</time></trkpt><trkpt lat="40.417985" lon="8.7721983"><ele>480.25</ele><time>2026-04-16T14:28:21.739Z</time></trkpt><trkpt lat="40.417895" lon="8.772065"><ele>482.0</ele><time>2026-04-16T14:28:22.739Z</time></trkpt><trkpt lat="40.417805" lon="8.7719383"><ele>484.25</ele><time>2026-04-16T14:28:23.74Z</time></trkpt><trkpt lat="40.4177167" lon="8.7718033"><ele>486.5</ele><time>2026-04-16T14:28:24.739Z</time></trkpt><trkpt lat="40.4176317" lon="8.7716667"><ele>488.75</ele><time>2026-04-16T14:28:25.74Z</time></trkpt><trkpt lat="40.41755" lon="8.7715233"><ele>491.0</ele><time>2026-04-16T14:28:26.74Z</time></trkpt><trkpt lat="40.4174717" lon="8.771385"><ele>491.0</ele><time>2026-04-16T14:28:27.74Z</time></trkpt><trkpt lat="40.4173967" lon="8.7712467"><ele>491.0</ele><time>2026-04-16T14:28:28.739Z</time></trkpt><trkpt lat="40.4173383" lon="8.77111"><ele>491.0</ele><time>2026-04-16T14:28:29.74Z</time></trkpt><trkpt lat="40.4172733" lon="8.77099"><ele>491.0</ele><time>2026-04-16T14:28:30.739Z</time></trkpt><trkpt lat="40.417205" lon="8.7708767"><ele>492.6</ele><time>2026-04-16T14:28:31.739Z</time></trkpt><trkpt lat="40.41714" lon="8.7707583"><ele>494.20000000000005</ele><time>2026-04-16T14:28:32.74Z</time></trkpt><trkpt lat="40.41709" lon="8.7706317"><ele>495.79999999999995</ele><time>2026-04-16T14:28:33.74Z</time></trkpt><trkpt lat="40.417065" lon="8.7704917"><ele>497.4</ele><time>2026-04-16T14:28:34.739Z</time></trkpt><trkpt lat="40.4170417" lon="8.7703467"><ele>499.0</ele><time>2026-04-16T14:28:35.739Z</time></trkpt><trkpt lat="40.417015" lon="8.7702183"><ele>499.6666666666667</ele><time>2026-04-16T14:28:36.74Z</time></trkpt><trkpt lat="40.4169917" lon="8.7700883"><ele>500.33333333333337</ele><time>2026-04-16T14:28:37.74Z</time></trkpt><trkpt lat="40.4169517" lon="8.7699683"><ele>501.0</ele><time>2026-04-16T14:28:38.739Z</time></trkpt><trkpt lat="40.4168933" lon="8.7698783"><ele>501.66666666666663</ele><time>2026-04-16T14:28:39.739Z</time></trkpt><trkpt lat="40.41684" lon="8.7698033"><ele>502.3333333333333</ele><time>2026-04-16T14:28:40.739Z</time></trkpt><trkpt lat="40.4168" lon="8.76973"><ele>503.0</ele><time>2026-04-16T14:28:41.739Z</time></trkpt><trkpt lat="40.4167883" lon="8.7696483"><ele>503.0</ele><time>2026-04-16T14:28:42.739Z</time></trkpt><trkpt lat="40.4167933" lon="8.76956"><ele>503.00000000000006</ele><time>2026-04-16T14:28:43.739Z</time></trkpt><trkpt lat="40.4168033" lon="8.7694633"><ele>503.0</ele><time>2026-04-16T14:28:44.739Z</time></trkpt><trkpt lat="40.416805" lon="8.7693667"><ele>503.0</ele><time>2026-04-16T14:28:45.739Z</time></trkpt><trkpt lat="40.4168067" lon="8.7692733"><ele>503.00000000000006</ele><time>2026-04-16T14:28:46.74Z</time></trkpt><trkpt lat="40.41682" lon="8.76918"><ele>503.0</ele><time>2026-04-16T14:28:47.74Z</time></trkpt><trkpt lat="40.4168533" lon="8.7690917"><ele>503.0</ele><time>2026-04-16T14:28:48.74Z</time></trkpt><trkpt lat="40.4168733" lon="8.7689383"><ele>504.0</ele><time>2026-04-16T14:28:50.74Z</time></trkpt><trkpt lat="40.4168567" lon="8.768765"><ele>504.99999999999994</ele><time>2026-04-16T14:28:52.74Z</time></trkpt><trkpt lat="40.4168333" lon="8.768665"><ele>505.99999999999994</ele><time>2026-04-16T14:28:53.74Z</time></trkpt><trkpt lat="40.4168183" lon="8.76855"><ele>507.0</ele><time>2026-04-16T14:28:54.74Z</time></trkpt><trkpt lat="40.4168133" lon="8.7684183"><ele>508.0</ele><time>2026-04-16T14:28:55.74Z</time></trkpt><trkpt lat="40.4168133" lon="8.7682767"><ele>508.0</ele><time>2026-04-16T14:28:56.74Z</time></trkpt><trkpt lat="40.4168117" lon="8.7681367"><ele>507.99999999999994</ele><time>2026-04-16T14:28:57.74Z</time></trkpt><trkpt lat="40.4168117" lon="8.7680017"><ele>507.99999999999994</ele><time>2026-04-16T14:28:58.739Z</time></trkpt><trkpt lat="40.4168067" lon="8.7678633"><ele>508.0</ele><time>2026-04-16T14:28:59.74Z</time></trkpt><trkpt lat="40.4168083" lon="8.7677333"><ele>508.0</ele><time>2026-04-16T14:29:00.739Z</time></trkpt><trkpt lat="40.4168183" lon="8.7676017"><ele>508.00000000000006</ele><time>2026-04-16T14:29:01.739Z</time></trkpt><trkpt lat="40.416825" lon="8.767475"><ele>508.0</ele><time>2026-04-16T14:29:02.739Z</time></trkpt><trkpt lat="40.41683" lon="8.767355"><ele>508.0</ele><time>2026-04-16T14:29:03.74Z</time></trkpt><trkpt lat="40.4168333" lon="8.7672417"><ele>508.0</ele><time>2026-04-16T14:29:04.74Z</time></trkpt><trkpt lat="40.4168417" lon="8.7671383"><ele>508.00000000000006</ele><time>2026-04-16T14:29:05.739Z</time></trkpt><trkpt lat="40.4168467" lon="8.7670283"><ele>508.0</ele><time>2026-04-16T14:29:06.74Z</time></trkpt><trkpt lat="40.4168517" lon="8.76691"><ele>508.2</ele><time>2026-04-16T14:29:07.739Z</time></trkpt><trkpt lat="40.416855" lon="8.7667833"><ele>508.4</ele><time>2026-04-16T14:29:08.74Z</time></trkpt><trkpt lat="40.4168583" lon="8.76665"><ele>508.59999999999997</ele><time>2026-04-16T14:29:09.739Z</time></trkpt><trkpt lat="40.4168617" lon="8.7665133"><ele>508.79999999999995</ele><time>2026-04-16T14:29:10.74Z</time></trkpt><trkpt lat="40.4168683" lon="8.766375"><ele>509.0</ele><time>2026-04-16T14:29:11.74Z</time></trkpt><trkpt lat="40.4168733" lon="8.766235"><ele>509.0</ele><time>2026-04-16T14:29:12.739Z</time></trkpt><trkpt lat="40.4168767" lon="8.766095"><ele>509.0</ele><time>2026-04-16T14:29:13.739Z</time></trkpt><trkpt lat="40.4168833" lon="8.7659583"><ele>509.0</ele><time>2026-04-16T14:29:14.739Z</time></trkpt><trkpt lat="40.41689" lon="8.76582"><ele>509.0</ele><time>2026-04-16T14:29:15.74Z</time></trkpt><trkpt lat="40.4168967" lon="8.7656817"><ele>509.0</ele><time>2026-04-16T14:29:16.739Z</time></trkpt><trkpt lat="40.4169" lon="8.7655417"><ele>509.2</ele><time>2026-04-16T14:29:17.74Z</time></trkpt><trkpt lat="40.4168967" lon="8.7654"><ele>509.4</ele><time>2026-04-16T14:29:18.74Z</time></trkpt><trkpt lat="40.416885" lon="8.7652567"><ele>509.6</ele><time>2026-04-16T14:29:19.739Z</time></trkpt><trkpt lat="40.4168417" lon="8.7651233"><ele>509.8</ele><time>2026-04-16T14:29:20.739Z</time></trkpt><trkpt lat="40.416785" lon="8.7649933"><ele>510.0</ele><time>2026-04-16T14:29:21.74Z</time></trkpt><trkpt lat="40.4167217" lon="8.7648717"><ele>510.0</ele><time>2026-04-16T14:29:22.739Z</time></trkpt><trkpt lat="40.416635" lon="8.764755"><ele>510.0</ele><time>2026-04-16T14:29:23.739Z</time></trkpt><trkpt lat="40.416555" lon="8.7646417"><ele>510.0</ele><time>2026-04-16T14:29:24.74Z</time></trkpt><trkpt lat="40.416475" lon="8.7645167"><ele>510.0</ele><time>2026-04-16T14:29:25.74Z</time></trkpt><trkpt lat="40.4164033" lon="8.764395"><ele>511.2</ele><time>2026-04-16T14:29:26.739Z</time></trkpt><trkpt lat="40.4163283" lon="8.764275"><ele>512.4</ele><time>2026-04-16T14:29:27.74Z</time></trkpt><trkpt lat="40.4162617" lon="8.76415"><ele>513.6</ele><time>2026-04-16T14:29:28.74Z</time></trkpt><trkpt lat="40.4161933" lon="8.7640367"><ele>514.8</ele><time>2026-04-16T14:29:29.74Z</time></trkpt><trkpt lat="40.41614" lon="8.76393"><ele>516.0</ele><time>2026-04-16T14:29:30.739Z</time></trkpt><trkpt lat="40.4160767" lon="8.76382"><ele>516.0</ele><time>2026-04-16T14:29:31.739Z</time></trkpt><trkpt lat="40.4160133" lon="8.76372"><ele>516.0</ele><time>2026-04-16T14:29:32.74Z</time></trkpt><trkpt lat="40.4159467" lon="8.7636267"><ele>516.0</ele><time>2026-04-16T14:29:33.74Z</time></trkpt><trkpt lat="40.4158667" lon="8.763545"><ele>516.0</ele><time>2026-04-16T14:29:34.74Z</time></trkpt><trkpt lat="40.4157833" lon="8.7634717"><ele>516.0</ele><time>2026-04-16T14:29:35.74Z</time></trkpt><trkpt lat="40.4156933" lon="8.7634083"><ele>515.2</ele><time>2026-04-16T14:29:36.74Z</time></trkpt><trkpt lat="40.4155983" lon="8.763345"><ele>514.4000000000001</ele><time>2026-04-16T14:29:37.74Z</time></trkpt><trkpt lat="40.4155017" lon="8.7632867"><ele>513.6</ele><time>2026-04-16T14:29:38.74Z</time></trkpt><trkpt lat="40.4153883" lon="8.7632533"><ele>512.8000000000001</ele><time>2026-04-16T14:29:39.739Z</time></trkpt><trkpt lat="40.4152867" lon="8.7632167"><ele>512.0</ele><time>2026-04-16T14:29:40.739Z</time></trkpt><trkpt lat="40.4151817" lon="8.76318"><ele>512.0</ele><time>2026-04-16T14:29:41.739Z</time></trkpt><trkpt lat="40.4150717" lon="8.7631533"><ele>512.0</ele><time>2026-04-16T14:29:42.739Z</time></trkpt><trkpt lat="40.4149633" lon="8.7631183"><ele>512.0</ele><time>2026-04-16T14:29:43.74Z</time></trkpt><trkpt lat="40.4148533" lon="8.7630783"><ele>512.0</ele><time>2026-04-16T14:29:44.739Z</time></trkpt><trkpt lat="40.414735" lon="8.7630383"><ele>513.4</ele><time>2026-04-16T14:29:45.74Z</time></trkpt><trkpt lat="40.4146233" lon="8.76301"><ele>514.8000000000001</ele><time>2026-04-16T14:29:46.74Z</time></trkpt><trkpt lat="40.4145133" lon="8.7629733"><ele>516.2</ele><time>2026-04-16T14:29:47.739Z</time></trkpt><trkpt lat="40.4144117" lon="8.762935"><ele>517.6</ele><time>2026-04-16T14:29:48.74Z</time></trkpt><trkpt lat="40.4143183" lon="8.762905"><ele>519.0</ele><time>2026-04-16T14:29:49.739Z</time></trkpt><trkpt lat="40.4142283" lon="8.7628783"><ele>519.0</ele><time>2026-04-16T14:29:50.739Z</time></trkpt><trkpt lat="40.4141433" lon="8.7628483"><ele>519.0</ele><time>2026-04-16T14:29:51.739Z</time></trkpt><trkpt lat="40.4140533" lon="8.762835"><ele>519.0</ele><time>2026-04-16T14:29:52.739Z</time></trkpt><trkpt lat="40.413955" lon="8.762825"><ele>519.0</ele><time>2026-04-16T14:29:53.739Z</time></trkpt><trkpt lat="40.4138533" lon="8.762815"><ele>519.0</ele><time>2026-04-16T14:29:54.74Z</time></trkpt><trkpt lat="40.413745" lon="8.762815"><ele>519.0</ele><time>2026-04-16T14:29:55.74Z</time></trkpt><trkpt lat="40.413635" lon="8.7628117"><ele>519.0</ele><time>2026-04-16T14:29:56.74Z</time></trkpt><trkpt lat="40.4135217" lon="8.7628033"><ele>519.0</ele><time>2026-04-16T14:29:57.74Z</time></trkpt><trkpt lat="40.413415" lon="8.7627767"><ele>519.0</ele><time>2026-04-16T14:29:58.74Z</time></trkpt><trkpt lat="40.413305" lon="8.7627333"><ele>519.0</ele><time>2026-04-16T14:29:59.74Z</time></trkpt><trkpt lat="40.4131933" lon="8.7626633"><ele>520.5</ele><time>2026-04-16T14:30:00.74Z</time></trkpt><trkpt lat="40.4130867" lon="8.7625833"><ele>522.0</ele><time>2026-04-16T14:30:01.74Z</time></trkpt><trkpt lat="40.412985" lon="8.7624883"><ele>523.5</ele><time>2026-04-16T14:30:02.74Z</time></trkpt><trkpt lat="40.4129083" lon="8.7623683"><ele>525.0</ele><time>2026-04-16T14:30:03.74Z</time></trkpt><trkpt lat="40.412835" lon="8.76224"><ele>525.0</ele><time>2026-04-16T14:30:04.739Z</time></trkpt><trkpt lat="40.4127767" lon="8.7621"><ele>525.0</ele><time>2026-04-16T14:30:05.74Z</time></trkpt><trkpt lat="40.4127283" lon="8.7619533"><ele>525.0</ele><time>2026-04-16T14:30:06.74Z</time></trkpt><trkpt lat="40.412685" lon="8.7617967"><ele>525.0</ele><time>2026-04-16T14:30:07.74Z</time></trkpt><trkpt lat="40.4126317" lon="8.76164"><ele>523.25</ele><time>2026-04-16T14:30:08.74Z</time></trkpt><trkpt lat="40.412575" lon="8.7614917"><ele>521.5</ele><time>2026-04-16T14:30:09.739Z</time></trkpt><trkpt lat="40.412505" lon="8.761355"><ele>519.75</ele><time>2026-04-16T14:30:10.74Z</time></trkpt><trkpt lat="40.4124333" lon="8.76123"><ele>518.0</ele><time>2026-04-16T14:30:11.739Z</time></trkpt><trkpt lat="40.412355" lon="8.761115"><ele>517.0</ele><time>2026-04-16T14:30:12.74Z</time></trkpt><trkpt lat="40.4122717" lon="8.7609983"><ele>516.0</ele><time>2026-04-16T14:30:13.739Z</time></trkpt><trkpt lat="40.4121817" lon="8.760895"><ele>515.0</ele><time>2026-04-16T14:30:14.739Z</time></trkpt><trkpt lat="40.4120917" lon="8.7607883"><ele>514.0</ele><time>2026-04-16T14:30:15.739Z</time></trkpt><trkpt lat="40.4120017" lon="8.7606933"><ele>514.0</ele><time>2026-04-16T14:30:16.74Z</time></trkpt><trkpt lat="40.4119017" lon="8.7606167"><ele>514.0</ele><time>2026-04-16T14:30:17.74Z</time></trkpt><trkpt lat="40.4117917" lon="8.7605417"><ele>514.0</ele><time>2026-04-16T14:30:18.739Z</time></trkpt><trkpt lat="40.4116617" lon="8.7604867"><ele>514.0</ele><time>2026-04-16T14:30:19.74Z</time></trkpt><trkpt lat="40.411545" lon="8.7604183"><ele>514.0</ele><time>2026-04-16T14:30:20.74Z</time></trkpt><trkpt lat="40.411425" lon="8.76036"><ele>514.0</ele><time>2026-04-16T14:30:21.739Z</time></trkpt><trkpt lat="40.4113067" lon="8.760295"><ele>514.0</ele><time>2026-04-16T14:30:22.74Z</time></trkpt><trkpt lat="40.411185" lon="8.760225"><ele>514.0</ele><time>2026-04-16T14:30:23.739Z</time></trkpt><trkpt lat="40.4110783" lon="8.760135"><ele>511.0</ele><time>2026-04-16T14:30:24.739Z</time></trkpt><trkpt lat="40.4109733" lon="8.7600217"><ele>508.0</ele><time>2026-04-16T14:30:25.74Z</time></trkpt><trkpt lat="40.4108783" lon="8.75989"><ele>505.0</ele><time>2026-04-16T14:30:26.74Z</time></trkpt><trkpt lat="40.4108067" lon="8.7597383"><ele>502.0</ele><time>2026-04-16T14:30:27.739Z</time></trkpt><trkpt lat="40.41075" lon="8.7595733"><ele>502.0</ele><time>2026-04-16T14:30:28.74Z</time></trkpt><trkpt lat="40.41069" lon="8.7593983"><ele>502.0</ele><time>2026-04-16T14:30:29.74Z</time></trkpt><trkpt lat="40.410645" lon="8.75921"><ele>502.0</ele><time>2026-04-16T14:30:30.74Z</time></trkpt><trkpt lat="40.4106033" lon="8.7590217"><ele>502.0</ele><time>2026-04-16T14:30:31.739Z</time></trkpt><trkpt lat="40.4105533" lon="8.758835"><ele>499.0</ele><time>2026-04-16T14:30:32.74Z</time></trkpt><trkpt lat="40.4105233" lon="8.7586433"><ele>496.0</ele><time>2026-04-16T14:30:33.74Z</time></trkpt><trkpt lat="40.4104567" lon="8.7584567"><ele>493.0</ele><time>2026-04-16T14:30:34.739Z</time></trkpt><trkpt lat="40.4103967" lon="8.75826"><ele>493.0</ele><time>2026-04-16T14:30:35.74Z</time></trkpt><trkpt lat="40.41033" lon="8.7580617"><ele>493.0</ele><time>2026-04-16T14:30:36.739Z</time></trkpt><trkpt lat="40.41025" lon="8.7578633"><ele>493.0</ele><time>2026-04-16T14:30:37.739Z</time></trkpt><trkpt lat="40.4101583" lon="8.7576717"><ele>492.33333333333337</ele><time>2026-04-16T14:30:38.739Z</time></trkpt><trkpt lat="40.4100617" lon="8.7574967"><ele>491.66666666666663</ele><time>2026-04-16T14:30:39.74Z</time></trkpt><trkpt lat="40.40996" lon="8.7573217"><ele>491.0</ele><time>2026-04-16T14:30:40.74Z</time></trkpt><trkpt lat="40.40987" lon="8.75714"><ele>491.0</ele><time>2026-04-16T14:30:41.74Z</time></trkpt><trkpt lat="40.4097783" lon="8.756975"><ele>491.0</ele><time>2026-04-16T14:30:42.74Z</time></trkpt><trkpt lat="40.4096883" lon="8.756815"><ele>491.0</ele><time>2026-04-16T14:30:43.739Z</time></trkpt><trkpt lat="40.4096" lon="8.7566583"><ele>491.25</ele><time>2026-04-16T14:30:44.74Z</time></trkpt><trkpt lat="40.409515" lon="8.7565067"><ele>491.5</ele><time>2026-04-16T14:30:45.739Z</time></trkpt><trkpt lat="40.409425" lon="8.756345"><ele>491.75</ele><time>2026-04-16T14:30:46.74Z</time></trkpt><trkpt lat="40.4093367" lon="8.75618"><ele>492.0</ele><time>2026-04-16T14:30:47.74Z</time></trkpt><trkpt lat="40.409245" lon="8.7560183"><ele>492.0</ele><time>2026-04-16T14:30:48.739Z</time></trkpt><trkpt lat="40.4091483" lon="8.7558467"><ele>492.0</ele><time>2026-04-16T14:30:49.739Z</time></trkpt><trkpt lat="40.4090467" lon="8.755675"><ele>492.0</ele><time>2026-04-16T14:30:50.739Z</time></trkpt><trkpt lat="40.408945" lon="8.7555083"><ele>492.0</ele><time>2026-04-16T14:30:51.739Z</time></trkpt><trkpt lat="40.408845" lon="8.7553317"><ele>492.0</ele><time>2026-04-16T14:30:52.74Z</time></trkpt><trkpt lat="40.4087383" lon="8.75516"><ele>492.0</ele><time>2026-04-16T14:30:53.74Z</time></trkpt><trkpt lat="40.4086267" lon="8.75499"><ele>497.33333333333337</ele><time>2026-04-16T14:30:54.74Z</time></trkpt><trkpt lat="40.4085167" lon="8.754815"><ele>502.6666666666667</ele><time>2026-04-16T14:30:55.739Z</time></trkpt><trkpt lat="40.4084083" lon="8.7546383"><ele>508.0</ele><time>2026-04-16T14:30:56.74Z</time></trkpt><trkpt lat="40.4082967" lon="8.7544683"><ele>505.6666666666667</ele><time>2026-04-16T14:30:57.74Z</time></trkpt><trkpt lat="40.4081767" lon="8.7543117"><ele>503.33333333333337</ele><time>2026-04-16T14:30:58.74Z</time></trkpt><trkpt lat="40.4080583" lon="8.754145"><ele>501.0</ele><time>2026-04-16T14:30:59.74Z</time></trkpt><trkpt lat="40.40795" lon="8.7539617"><ele>506.0</ele><time>2026-04-16T14:31:00.74Z</time></trkpt><trkpt lat="40.4078167" lon="8.7538167"><ele>511.0</ele><time>2026-04-16T14:31:01.74Z</time></trkpt><trkpt lat="40.4076933" lon="8.7536583"><ele>516.0</ele><time>2026-04-16T14:31:02.739Z</time></trkpt><trkpt lat="40.4075717" lon="8.7535"><ele>516.0</ele><time>2026-04-16T14:31:03.74Z</time></trkpt><trkpt lat="40.4074583" lon="8.7533467"><ele>516.0</ele><time>2026-04-16T14:31:04.74Z</time></trkpt><trkpt lat="40.4073467" lon="8.7531933"><ele>516.0</ele><time>2026-04-16T14:31:05.739Z</time></trkpt><trkpt lat="40.4072433" lon="8.7530517"><ele>516.4</ele><time>2026-04-16T14:31:06.738Z</time></trkpt><trkpt lat="40.40716" lon="8.7529233"><ele>516.8</ele><time>2026-04-16T14:31:07.739Z</time></trkpt><trkpt lat="40.4070933" lon="8.7528167"><ele>517.1999999999999</ele><time>2026-04-16T14:31:08.739Z</time></trkpt><trkpt lat="40.4070483" lon="8.7527133"><ele>517.6</ele><time>2026-04-16T14:31:09.739Z</time></trkpt><trkpt lat="40.407025" lon="8.7525967"><ele>518.0</ele><time>2026-04-16T14:31:10.738Z</time></trkpt><trkpt lat="40.407005" lon="8.75248"><ele>518.0</ele><time>2026-04-16T14:31:11.738Z</time></trkpt><trkpt lat="40.4069617" lon="8.7523617"><ele>518.0</ele><time>2026-04-16T14:31:12.739Z</time></trkpt><trkpt lat="40.4069283" lon="8.7522417"><ele>518.0</ele><time>2026-04-16T14:31:13.739Z</time></trkpt><trkpt lat="40.4069283" lon="8.7521017"><ele>518.0</ele><time>2026-04-16T14:31:14.739Z</time></trkpt><trkpt lat="40.4069633" lon="8.7519567"><ele>518.0</ele><time>2026-04-16T14:31:15.738Z</time></trkpt><trkpt lat="40.4070283" lon="8.751805"><ele>517.25</ele><time>2026-04-16T14:31:16.738Z</time></trkpt><trkpt lat="40.4071" lon="8.7516583"><ele>516.5</ele><time>2026-04-16T14:31:17.739Z</time></trkpt><trkpt lat="40.4071733" lon="8.7515017"><ele>515.75</ele><time>2026-04-16T14:31:18.738Z</time></trkpt><trkpt lat="40.4072517" lon="8.7513533"><ele>515.0</ele><time>2026-04-16T14:31:19.738Z</time></trkpt><trkpt lat="40.4073133" lon="8.751215"><ele>514.25</ele><time>2026-04-16T14:31:20.738Z</time></trkpt><trkpt lat="40.40735" lon="8.75109"><ele>513.5</ele><time>2026-04-16T14:31:21.738Z</time></trkpt><trkpt lat="40.407365" lon="8.75094"><ele>512.75</ele><time>2026-04-16T14:31:22.738Z</time></trkpt><trkpt lat="40.4073767" lon="8.7507783"><ele>512.0</ele><time>2026-04-16T14:31:23.739Z</time></trkpt><trkpt lat="40.4073733" lon="8.750595"><ele>511.75</ele><time>2026-04-16T14:31:24.738Z</time></trkpt><trkpt lat="40.4073633" lon="8.75041"><ele>511.5</ele><time>2026-04-16T14:31:25.738Z</time></trkpt><trkpt lat="40.4073433" lon="8.7502267"><ele>511.25</ele><time>2026-04-16T14:31:26.738Z</time></trkpt><trkpt lat="40.407325" lon="8.750025"><ele>511.0</ele><time>2026-04-16T14:31:27.738Z</time></trkpt><trkpt lat="40.4073733" lon="8.7498233"><ele>511.0</ele><time>2026-04-16T14:31:28.738Z</time></trkpt><trkpt lat="40.40741" lon="8.7496483"><ele>511.0</ele><time>2026-04-16T14:31:29.739Z</time></trkpt><trkpt lat="40.4074517" lon="8.7494717"><ele>511.0</ele><time>2026-04-16T14:31:30.739Z</time></trkpt><trkpt lat="40.4075033" lon="8.749305"><ele>511.0</ele><time>2026-04-16T14:31:31.739Z</time></trkpt><trkpt lat="40.40753" lon="8.7491583"><ele>511.00000000000006</ele><time>2026-04-16T14:31:32.739Z</time></trkpt><trkpt lat="40.4075417" lon="8.749035"><ele>511.0</ele><time>2026-04-16T14:31:33.739Z</time></trkpt><trkpt lat="40.407545" lon="8.7489183"><ele>511.0</ele><time>2026-04-16T14:31:34.738Z</time></trkpt><trkpt lat="40.40754" lon="8.748815"><ele>511.0</ele><time>2026-04-16T14:31:35.739Z</time></trkpt><trkpt lat="40.4075067" lon="8.7487367"><ele>511.00000000000006</ele><time>2026-04-16T14:31:36.739Z</time></trkpt><trkpt lat="40.4074333" lon="8.7486867"><ele>511.0</ele><time>2026-04-16T14:31:37.739Z</time></trkpt><trkpt lat="40.4073417" lon="8.7486817"><ele>511.0</ele><time>2026-04-16T14:31:38.739Z</time></trkpt><trkpt lat="40.4072433" lon="8.748705"><ele>511.0</ele><time>2026-04-16T14:31:39.738Z</time></trkpt><trkpt lat="40.40714" lon="8.748705"><ele>511.0</ele><time>2026-04-16T14:31:40.739Z</time></trkpt><trkpt lat="40.4070417" lon="8.7486467"><ele>511.0</ele><time>2026-04-16T14:31:41.739Z</time></trkpt><trkpt lat="40.4069483" lon="8.748545"><ele>511.0</ele><time>2026-04-16T14:31:42.739Z</time></trkpt><trkpt lat="40.4068567" lon="8.748425"><ele>511.0</ele><time>2026-04-16T14:31:43.739Z</time></trkpt><trkpt lat="40.406765" lon="8.748285"><ele>511.0</ele><time>2026-04-16T14:31:44.739Z</time></trkpt><trkpt lat="40.4066733" lon="8.7481533"><ele>511.0</ele><time>2026-04-16T14:31:45.739Z</time></trkpt><trkpt lat="40.4065883" lon="8.7480267"><ele>511.0</ele><time>2026-04-16T14:31:46.739Z</time></trkpt><trkpt lat="40.4065017" lon="8.7479083"><ele>511.0</ele><time>2026-04-16T14:31:47.739Z</time></trkpt><trkpt lat="40.4064183" lon="8.7477933"><ele>511.0</ele><time>2026-04-16T14:31:48.739Z</time></trkpt><trkpt lat="40.4063317" lon="8.7476733"><ele>511.0</ele><time>2026-04-16T14:31:49.739Z</time></trkpt><trkpt lat="40.40624" lon="8.7475433"><ele>511.0</ele><time>2026-04-16T14:31:50.739Z</time></trkpt><trkpt lat="40.4061367" lon="8.7474167"><ele>511.75</ele><time>2026-04-16T14:31:51.738Z</time></trkpt><trkpt lat="40.40602" lon="8.7473017"><ele>512.5</ele><time>2026-04-16T14:31:52.739Z</time></trkpt><trkpt lat="40.4058917" lon="8.7472083"><ele>513.25</ele><time>2026-04-16T14:31:53.739Z</time></trkpt><trkpt lat="40.4057583" lon="8.7471267"><ele>514.0</ele><time>2026-04-16T14:31:54.738Z</time></trkpt><trkpt lat="40.4056283" lon="8.7470367"><ele>514.0</ele><time>2026-04-16T14:31:55.739Z</time></trkpt><trkpt lat="40.40551" lon="8.7469283"><ele>514.0</ele><time>2026-04-16T14:31:56.739Z</time></trkpt><trkpt lat="40.4054017" lon="8.7467967"><ele>514.0</ele><time>2026-04-16T14:31:57.738Z</time></trkpt><trkpt lat="40.4053067" lon="8.746645"><ele>514.0</ele><time>2026-04-16T14:31:58.738Z</time></trkpt><trkpt lat="40.4052217" lon="8.7464783"><ele>514.0</ele><time>2026-04-16T14:31:59.739Z</time></trkpt><trkpt lat="40.4051433" lon="8.7463067"><ele>514.0</ele><time>2026-04-16T14:32:00.738Z</time></trkpt><trkpt lat="40.40509" lon="8.7461183"><ele>514.0</ele><time>2026-04-16T14:32:01.738Z</time></trkpt><trkpt lat="40.405065" lon="8.74592"><ele>516.3333333333334</ele><time>2026-04-16T14:32:02.739Z</time></trkpt><trkpt lat="40.4050667" lon="8.74572"><ele>518.6666666666666</ele><time>2026-04-16T14:32:03.738Z</time></trkpt><trkpt lat="40.4050933" lon="8.7455083"><ele>521.0</ele><time>2026-04-16T14:32:04.739Z</time></trkpt><trkpt lat="40.4051217" lon="8.7452883"><ele>520.6666666666666</ele><time>2026-04-16T14:32:05.739Z</time></trkpt><trkpt lat="40.4051517" lon="8.7450733"><ele>520.3333333333334</ele><time>2026-04-16T14:32:06.739Z</time></trkpt><trkpt lat="40.405185" lon="8.7448583"><ele>520.0</ele><time>2026-04-16T14:32:07.739Z</time></trkpt><trkpt lat="40.4052233" lon="8.7446517"><ele>520.0</ele><time>2026-04-16T14:32:08.739Z</time></trkpt><trkpt lat="40.4052733" lon="8.7444483"><ele>520.0</ele><time>2026-04-16T14:32:09.739Z</time></trkpt><trkpt lat="40.405325" lon="8.744245"><ele>520.0</ele><time>2026-04-16T14:32:10.739Z</time></trkpt><trkpt lat="40.4053683" lon="8.744035"><ele>519.0</ele><time>2026-04-16T14:32:11.738Z</time></trkpt><trkpt lat="40.4053983" lon="8.74382"><ele>518.0</ele><time>2026-04-16T14:32:12.738Z</time></trkpt><trkpt lat="40.4054067" lon="8.7436017"><ele>517.0</ele><time>2026-04-16T14:32:13.739Z</time></trkpt><trkpt lat="40.4053833" lon="8.7433783"><ele>517.0</ele><time>2026-04-16T14:32:14.739Z</time></trkpt><trkpt lat="40.4053383" lon="8.74316"><ele>517.0</ele><time>2026-04-16T14:32:15.738Z</time></trkpt><trkpt lat="40.4052633" lon="8.7429517"><ele>517.0</ele><time>2026-04-16T14:32:16.739Z</time></trkpt><trkpt lat="40.4051667" lon="8.742755"><ele>522.3333333333334</ele><time>2026-04-16T14:32:17.739Z</time></trkpt><trkpt lat="40.4050583" lon="8.7425717"><ele>527.6666666666666</ele><time>2026-04-16T14:32:18.738Z</time></trkpt><trkpt lat="40.40495" lon="8.7423883"><ele>533.0</ele><time>2026-04-16T14:32:19.738Z</time></trkpt><trkpt lat="40.40484" lon="8.7422033"><ele>533.0</ele><time>2026-04-16T14:32:20.738Z</time></trkpt><trkpt lat="40.404735" lon="8.742025"><ele>533.0</ele><time>2026-04-16T14:32:21.739Z</time></trkpt><trkpt lat="40.4046117" lon="8.7418683"><ele>533.0</ele><time>2026-04-16T14:32:22.738Z</time></trkpt><trkpt lat="40.4044783" lon="8.741745"><ele>532.6666666666666</ele><time>2026-04-16T14:32:23.738Z</time></trkpt><trkpt lat="40.404325" lon="8.7416783"><ele>532.3333333333334</ele><time>2026-04-16T14:32:24.739Z</time></trkpt><trkpt lat="40.404165" lon="8.7416617"><ele>532.0</ele><time>2026-04-16T14:32:25.739Z</time></trkpt><trkpt lat="40.4040033" lon="8.74166"><ele>532.0</ele><time>2026-04-16T14:32:26.739Z</time></trkpt><trkpt lat="40.403845" lon="8.7416567"><ele>532.0</ele><time>2026-04-16T14:32:27.739Z</time></trkpt><trkpt lat="40.4037033" lon="8.74164"><ele>532.0</ele><time>2026-04-16T14:32:28.739Z</time></trkpt><trkpt lat="40.4035783" lon="8.7415933"><ele>532.0</ele><time>2026-04-16T14:32:29.738Z</time></trkpt><trkpt lat="40.4034783" lon="8.74151"><ele>531.25</ele><time>2026-04-16T14:32:30.739Z</time></trkpt><trkpt lat="40.4033967" lon="8.7413883"><ele>530.5</ele><time>2026-04-16T14:32:31.738Z</time></trkpt><trkpt lat="40.403345" lon="8.7412317"><ele>529.75</ele><time>2026-04-16T14:32:32.739Z</time></trkpt><trkpt lat="40.403335" lon="8.7410467"><ele>529.0</ele><time>2026-04-16T14:32:33.739Z</time></trkpt><trkpt lat="40.4033683" lon="8.740865"><ele>527.0</ele><time>2026-04-16T14:32:34.738Z</time></trkpt><trkpt lat="40.40341" lon="8.740675"><ele>525.0</ele><time>2026-04-16T14:32:35.738Z</time></trkpt><trkpt lat="40.4034517" lon="8.740475"><ele>523.0</ele><time>2026-04-16T14:32:36.738Z</time></trkpt><trkpt lat="40.4034817" lon="8.74025"><ele>521.3333333333334</ele><time>2026-04-16T14:32:37.739Z</time></trkpt><trkpt lat="40.4034833" lon="8.7400333"><ele>519.6666666666666</ele><time>2026-04-16T14:32:38.739Z</time></trkpt><trkpt lat="40.4034633" lon="8.7398033"><ele>518.0</ele><time>2026-04-16T14:32:39.739Z</time></trkpt><trkpt lat="40.4034267" lon="8.7395617"><ele>517.0</ele><time>2026-04-16T14:32:40.739Z</time></trkpt><trkpt lat="40.4033717" lon="8.7393267"><ele>516.0</ele><time>2026-04-16T14:32:41.739Z</time></trkpt><trkpt lat="40.403295" lon="8.739095"><ele>515.0</ele><time>2026-04-16T14:32:42.738Z</time></trkpt><trkpt lat="40.4032067" lon="8.7388633"><ele>515.0</ele><time>2026-04-16T14:32:43.738Z</time></trkpt><trkpt lat="40.4031017" lon="8.73864"><ele>515.0</ele><time>2026-04-16T14:32:44.739Z</time></trkpt><trkpt lat="40.402995" lon="8.73841"><ele>515.0</ele><time>2026-04-16T14:32:45.739Z</time></trkpt><trkpt lat="40.4028883" lon="8.73819"><ele>511.0</ele><time>2026-04-16T14:32:46.739Z</time></trkpt><trkpt lat="40.4027867" lon="8.7379717"><ele>507.0</ele><time>2026-04-16T14:32:47.739Z</time></trkpt><trkpt lat="40.4026833" lon="8.7377617"><ele>503.0</ele><time>2026-04-16T14:32:48.739Z</time></trkpt><trkpt lat="40.402575" lon="8.7375483"><ele>503.0</ele><time>2026-04-16T14:32:49.738Z</time></trkpt><trkpt lat="40.40245" lon="8.73735"><ele>503.0</ele><time>2026-04-16T14:32:50.738Z</time></trkpt><trkpt lat="40.40231" lon="8.737155"><ele>503.0</ele><time>2026-04-16T14:32:51.739Z</time></trkpt><trkpt lat="40.402165" lon="8.7369717"><ele>498.66666666666663</ele><time>2026-04-16T14:32:52.738Z</time></trkpt><trkpt lat="40.4020183" lon="8.7367883"><ele>494.33333333333337</ele><time>2026-04-16T14:32:53.739Z</time></trkpt><trkpt lat="40.4018617" lon="8.7366117"><ele>490.0</ele><time>2026-04-16T14:32:54.739Z</time></trkpt><trkpt lat="40.401715" lon="8.7364317"><ele>490.0</ele><time>2026-04-16T14:32:55.739Z</time></trkpt><trkpt lat="40.4015783" lon="8.7362633"><ele>490.0</ele><time>2026-04-16T14:32:56.738Z</time></trkpt><trkpt lat="40.40144" lon="8.7361083"><ele>490.0</ele><time>2026-04-16T14:32:57.738Z</time></trkpt><trkpt lat="40.4013267" lon="8.7359467"><ele>485.0</ele><time>2026-04-16T14:32:58.738Z</time></trkpt><trkpt lat="40.40122" lon="8.7357783"><ele>480.0</ele><time>2026-04-16T14:32:59.739Z</time></trkpt><trkpt lat="40.4011367" lon="8.7355917"><ele>475.0</ele><time>2026-04-16T14:33:00.739Z</time></trkpt><trkpt lat="40.4010683" lon="8.7353733"><ele>477.33333333333337</ele><time>2026-04-16T14:33:01.739Z</time></trkpt><trkpt lat="40.4009967" lon="8.7351517"><ele>479.66666666666663</ele><time>2026-04-16T14:33:02.739Z</time></trkpt><trkpt lat="40.4009267" lon="8.7349133"><ele>482.0</ele><time>2026-04-16T14:33:03.739Z</time></trkpt><trkpt lat="40.4008533" lon="8.7347"><ele>482.0</ele><time>2026-04-16T14:33:04.738Z</time></trkpt><trkpt lat="40.4007933" lon="8.7344917"><ele>482.0</ele><time>2026-04-16T14:33:05.738Z</time></trkpt><trkpt lat="40.40074" lon="8.7342983"><ele>482.0</ele><time>2026-04-16T14:33:06.739Z</time></trkpt><trkpt lat="40.400715" lon="8.7341017"><ele>481.3333333333333</ele><time>2026-04-16T14:33:07.739Z</time></trkpt><trkpt lat="40.4007217" lon="8.7338983"><ele>480.66666666666663</ele><time>2026-04-16T14:33:08.739Z</time></trkpt><trkpt lat="40.40076" lon="8.7337033"><ele>480.0</ele><time>2026-04-16T14:33:09.738Z</time></trkpt><trkpt lat="40.4008267" lon="8.733505"><ele>480.0</ele><time>2026-04-16T14:33:10.738Z</time></trkpt><trkpt lat="40.4009117" lon="8.73331"><ele>480.0</ele><time>2026-04-16T14:33:11.738Z</time></trkpt><trkpt lat="40.40099" lon="8.7331317"><ele>480.0</ele><time>2026-04-16T14:33:12.739Z</time></trkpt><trkpt lat="40.4010517" lon="8.7329517"><ele>480.0</ele><time>2026-04-16T14:33:13.738Z</time></trkpt><trkpt lat="40.4010833" lon="8.7327733"><ele>480.0</ele><time>2026-04-16T14:33:14.739Z</time></trkpt><trkpt lat="40.4010783" lon="8.7325833"><ele>480.0</ele><time>2026-04-16T14:33:15.739Z</time></trkpt><trkpt lat="40.40104" lon="8.7324017"><ele>480.0</ele><time>2026-04-16T14:33:16.739Z</time></trkpt><trkpt lat="40.4009617" lon="8.732225"><ele>481.0</ele><time>2026-04-16T14:33:17.738Z</time></trkpt><trkpt lat="40.4008433" lon="8.732065"><ele>482.0</ele><time>2026-04-16T14:33:18.738Z</time></trkpt><trkpt lat="40.400715" lon="8.7319083"><ele>483.0</ele><time>2026-04-16T14:33:19.738Z</time></trkpt><trkpt lat="40.4005833" lon="8.7317583"><ele>474.66666666666663</ele><time>2026-04-16T14:33:20.738Z</time></trkpt><trkpt lat="40.4004617" lon="8.7316133"><ele>466.3333333333333</ele><time>2026-04-16T14:33:21.738Z</time></trkpt><trkpt lat="40.40036" lon="8.7314583"><ele>458.0</ele><time>2026-04-16T14:33:22.739Z</time></trkpt><trkpt lat="40.4002717" lon="8.7312833"><ele>458.0</ele><time>2026-04-16T14:33:23.739Z</time></trkpt><trkpt lat="40.4002" lon="8.731095"><ele>458.0</ele><time>2026-04-16T14:33:24.739Z</time></trkpt><trkpt lat="40.400145" lon="8.73089"><ele>458.0</ele><time>2026-04-16T14:33:25.739Z</time></trkpt><trkpt lat="40.4001033" lon="8.7306817"><ele>459.66666666666663</ele><time>2026-04-16T14:33:26.739Z</time></trkpt><trkpt lat="40.400085" lon="8.7304717"><ele>461.33333333333337</ele><time>2026-04-16T14:33:27.738Z</time></trkpt><trkpt lat="40.4001" lon="8.7302567"><ele>463.0</ele><time>2026-04-16T14:33:28.739Z</time></trkpt><trkpt lat="40.4001383" lon="8.7300483"><ele>463.0</ele><time>2026-04-16T14:33:29.739Z</time></trkpt><trkpt lat="40.4002017" lon="8.7298333"><ele>463.0</ele><time>2026-04-16T14:33:30.739Z</time></trkpt><trkpt lat="40.400275" lon="8.7296183"><ele>463.0</ele><time>2026-04-16T14:33:31.739Z</time></trkpt><trkpt lat="40.400355" lon="8.72942"><ele>464.6666666666667</ele><time>2026-04-16T14:33:32.739Z</time></trkpt><trkpt lat="40.4004383" lon="8.7292417"><ele>466.33333333333337</ele><time>2026-04-16T14:33:33.739Z</time></trkpt><trkpt lat="40.4005383" lon="8.7290833"><ele>468.0</ele><time>2026-04-16T14:33:34.739Z</time></trkpt><trkpt lat="40.400655" lon="8.72895"><ele>468.0</ele><time>2026-04-16T14:33:35.739Z</time></trkpt><trkpt lat="40.4007867" lon="8.7288383"><ele>468.0</ele><time>2026-04-16T14:33:36.738Z</time></trkpt><trkpt lat="40.4009267" lon="8.7287583"><ele>468.0</ele><time>2026-04-16T14:33:37.739Z</time></trkpt><trkpt lat="40.40108" lon="8.728715"><ele>468.0</ele><time>2026-04-16T14:33:38.739Z</time></trkpt><trkpt lat="40.401215" lon="8.728685"><ele>468.0</ele><time>2026-04-16T14:33:39.738Z</time></trkpt><trkpt lat="40.4013267" lon="8.72864"><ele>468.0</ele><time>2026-04-16T14:33:40.738Z</time></trkpt><trkpt lat="40.40142" lon="8.7285617"><ele>468.0</ele><time>2026-04-16T14:33:41.739Z</time></trkpt><trkpt lat="40.4014917" lon="8.7284417"><ele>464.25</ele><time>2026-04-16T14:33:42.739Z</time></trkpt><trkpt lat="40.4015333" lon="8.728295"><ele>460.5</ele><time>2026-04-16T14:33:43.738Z</time></trkpt><trkpt lat="40.4015367" lon="8.72815"><ele>456.75</ele><time>2026-04-16T14:33:44.739Z</time></trkpt><trkpt lat="40.4015067" lon="8.7280017"><ele>453.0</ele><time>2026-04-16T14:33:45.738Z</time></trkpt><trkpt lat="40.401445" lon="8.7278717"><ele>453.0</ele><time>2026-04-16T14:33:46.739Z</time></trkpt><trkpt lat="40.4013517" lon="8.7277767"><ele>453.0</ele><time>2026-04-16T14:33:47.739Z</time></trkpt><trkpt lat="40.401235" lon="8.72773"><ele>453.0</ele><time>2026-04-16T14:33:48.739Z</time></trkpt><trkpt lat="40.4011167" lon="8.7277333"><ele>453.0</ele><time>2026-04-16T14:33:49.738Z</time></trkpt><trkpt lat="40.4010017" lon="8.72778"><ele>452.5</ele><time>2026-04-16T14:33:50.739Z</time></trkpt><trkpt lat="40.4008833" lon="8.72786"><ele>452.0</ele><time>2026-04-16T14:33:51.738Z</time></trkpt><trkpt lat="40.4007617" lon="8.7279533"><ele>451.5</ele><time>2026-04-16T14:33:52.739Z</time></trkpt><trkpt lat="40.4006317" lon="8.7280533"><ele>451.0</ele><time>2026-04-16T14:33:53.738Z</time></trkpt><trkpt lat="40.4004933" lon="8.7281567"><ele>447.33333333333337</ele><time>2026-04-16T14:33:54.739Z</time></trkpt><trkpt lat="40.4003517" lon="8.7282617"><ele>443.66666666666663</ele><time>2026-04-16T14:33:55.739Z</time></trkpt><trkpt lat="40.4002" lon="8.7283667"><ele>440.0</ele><time>2026-04-16T14:33:56.739Z</time></trkpt><trkpt lat="40.4000533" lon="8.7284833"><ele>438.0</ele><time>2026-04-16T14:33:57.739Z</time></trkpt><trkpt lat="40.39991" lon="8.728615"><ele>436.0</ele><time>2026-04-16T14:33:58.738Z</time></trkpt><trkpt lat="40.3997717" lon="8.7287617"><ele>434.0</ele><time>2026-04-16T14:33:59.738Z</time></trkpt><trkpt lat="40.3996367" lon="8.7289217"><ele>434.0</ele><time>2026-04-16T14:34:00.739Z</time></trkpt><trkpt lat="40.3995033" lon="8.7290817"><ele>434.0</ele><time>2026-04-16T14:34:01.739Z</time></trkpt><trkpt lat="40.39938" lon="8.7292483"><ele>434.0</ele><time>2026-04-16T14:34:02.739Z</time></trkpt><trkpt lat="40.399275" lon="8.729425"><ele>436.3333333333333</ele><time>2026-04-16T14:34:03.738Z</time></trkpt><trkpt lat="40.3991867" lon="8.7296167"><ele>438.66666666666663</ele><time>2026-04-16T14:34:04.738Z</time></trkpt><trkpt lat="40.3991117" lon="8.72982"><ele>441.0</ele><time>2026-04-16T14:34:05.739Z</time></trkpt><trkpt lat="40.399055" lon="8.730035"><ele>441.33333333333337</ele><time>2026-04-16T14:34:06.739Z</time></trkpt><trkpt lat="40.3990117" lon="8.7302583"><ele>441.6666666666667</ele><time>2026-04-16T14:34:07.739Z</time></trkpt><trkpt lat="40.39898" lon="8.7304883"><ele>442.0</ele><time>2026-04-16T14:34:08.739Z</time></trkpt><trkpt lat="40.3989583" lon="8.730725"><ele>442.0</ele><time>2026-04-16T14:34:09.738Z</time></trkpt><trkpt lat="40.39896" lon="8.7309533"><ele>442.0</ele><time>2026-04-16T14:34:10.739Z</time></trkpt><trkpt lat="40.3989817" lon="8.731185"><ele>442.0</ele><time>2026-04-16T14:34:11.738Z</time></trkpt><trkpt lat="40.39903" lon="8.7314033"><ele>440.33333333333337</ele><time>2026-04-16T14:34:12.739Z</time></trkpt><trkpt lat="40.3991033" lon="8.731605"><ele>438.66666666666663</ele><time>2026-04-16T14:34:13.737Z</time></trkpt><trkpt lat="40.3991933" lon="8.7317917"><ele>437.0</ele><time>2026-04-16T14:34:14.738Z</time></trkpt><trkpt lat="40.3992867" lon="8.7319517"><ele>435.5</ele><time>2026-04-16T14:34:15.738Z</time></trkpt><trkpt lat="40.3993667" lon="8.7321"><ele>434.0</ele><time>2026-04-16T14:34:16.738Z</time></trkpt><trkpt lat="40.399425" lon="8.73225"><ele>432.5</ele><time>2026-04-16T14:34:17.737Z</time></trkpt><trkpt lat="40.3994417" lon="8.7324033"><ele>431.0</ele><time>2026-04-16T14:34:18.737Z</time></trkpt><trkpt lat="40.3994267" lon="8.7325467"><ele>431.0</ele><time>2026-04-16T14:34:19.738Z</time></trkpt><trkpt lat="40.3993733" lon="8.73267"><ele>431.0</ele><time>2026-04-16T14:34:20.738Z</time></trkpt><trkpt lat="40.39929" lon="8.7327717"><ele>431.0</ele><time>2026-04-16T14:34:21.737Z</time></trkpt><trkpt lat="40.3991867" lon="8.732835"><ele>431.0</ele><time>2026-04-16T14:34:22.738Z</time></trkpt><trkpt lat="40.399065" lon="8.7328433"><ele>431.0</ele><time>2026-04-16T14:34:23.738Z</time></trkpt><trkpt lat="40.3989433" lon="8.732805"><ele>431.0</ele><time>2026-04-16T14:34:24.737Z</time></trkpt><trkpt lat="40.3988433" lon="8.73271"><ele>431.0</ele><time>2026-04-16T14:34:25.737Z</time></trkpt><trkpt lat="40.398765" lon="8.73257"><ele>431.0</ele><time>2026-04-16T14:34:26.737Z</time></trkpt><trkpt lat="40.3987" lon="8.7324067"><ele>427.0</ele><time>2026-04-16T14:34:27.738Z</time></trkpt><trkpt lat="40.39863" lon="8.7322383"><ele>423.0</ele><time>2026-04-16T14:34:28.737Z</time></trkpt><trkpt lat="40.3985517" lon="8.7320467"><ele>419.0</ele><time>2026-04-16T14:34:29.737Z</time></trkpt><trkpt lat="40.398465" lon="8.73185"><ele>419.0</ele><time>2026-04-16T14:34:30.737Z</time></trkpt><trkpt lat="40.3983733" lon="8.731645"><ele>419.0</ele><time>2026-04-16T14:34:31.737Z</time></trkpt><trkpt lat="40.3982767" lon="8.7314383"><ele>419.0</ele><time>2026-04-16T14:34:32.737Z</time></trkpt><trkpt lat="40.3981783" lon="8.73122"><ele>420.0</ele><time>2026-04-16T14:34:33.737Z</time></trkpt><trkpt lat="40.3980833" lon="8.7310017"><ele>421.0</ele><time>2026-04-16T14:34:34.738Z</time></trkpt><trkpt lat="40.3979867" lon="8.7307833"><ele>422.0</ele><time>2026-04-16T14:34:35.737Z</time></trkpt><trkpt lat="40.3979" lon="8.7305717"><ele>418.3333333333333</ele><time>2026-04-16T14:34:36.737Z</time></trkpt><trkpt lat="40.3978283" lon="8.7303617"><ele>414.66666666666663</ele><time>2026-04-16T14:34:37.737Z</time></trkpt><trkpt lat="40.397785" lon="8.730145"><ele>411.0</ele><time>2026-04-16T14:34:38.737Z</time></trkpt><trkpt lat="40.39776" lon="8.7299183"><ele>410.0</ele><time>2026-04-16T14:34:39.737Z</time></trkpt><trkpt lat="40.3977617" lon="8.7296917"><ele>409.0</ele><time>2026-04-16T14:34:40.737Z</time></trkpt><trkpt lat="40.39778" lon="8.7294683"><ele>408.0</ele><time>2026-04-16T14:34:41.738Z</time></trkpt><trkpt lat="40.3977933" lon="8.7292433"><ele>407.0</ele><time>2026-04-16T14:34:42.738Z</time></trkpt><trkpt lat="40.3978117" lon="8.7290183"><ele>406.0</ele><time>2026-04-16T14:34:43.738Z</time></trkpt><trkpt lat="40.39782" lon="8.7288067"><ele>405.0</ele><time>2026-04-16T14:34:44.738Z</time></trkpt><trkpt lat="40.39781" lon="8.7286067"><ele>403.0</ele><time>2026-04-16T14:34:45.738Z</time></trkpt><trkpt lat="40.39778" lon="8.728405"><ele>401.0</ele><time>2026-04-16T14:34:46.738Z</time></trkpt><trkpt lat="40.397725" lon="8.7282033"><ele>399.0</ele><time>2026-04-16T14:34:47.737Z</time></trkpt><trkpt lat="40.3976583" lon="8.72801"><ele>399.0</ele><time>2026-04-16T14:34:48.738Z</time></trkpt><trkpt lat="40.39759" lon="8.7278"><ele>399.0</ele><time>2026-04-16T14:34:49.737Z</time></trkpt><trkpt lat="40.3975267" lon="8.72758"><ele>399.0</ele><time>2026-04-16T14:34:50.738Z</time></trkpt><trkpt lat="40.3974667" lon="8.72735"><ele>397.33333333333337</ele><time>2026-04-16T14:34:51.738Z</time></trkpt><trkpt lat="40.3974017" lon="8.72711"><ele>395.6666666666667</ele><time>2026-04-16T14:34:52.737Z</time></trkpt><trkpt lat="40.397345" lon="8.726875"><ele>394.0</ele><time>2026-04-16T14:34:53.738Z</time></trkpt><trkpt lat="40.397285" lon="8.7266433"><ele>393.0</ele><time>2026-04-16T14:34:54.737Z</time></trkpt><trkpt lat="40.3972233" lon="8.7264183"><ele>392.0</ele><time>2026-04-16T14:34:55.737Z</time></trkpt><trkpt lat="40.3971767" lon="8.7262083"><ele>391.0</ele><time>2026-04-16T14:34:56.738Z</time></trkpt><trkpt lat="40.39715" lon="8.7259933"><ele>390.6666666666667</ele><time>2026-04-16T14:34:57.738Z</time></trkpt><trkpt lat="40.3971483" lon="8.725795"><ele>390.33333333333337</ele><time>2026-04-16T14:34:58.738Z</time></trkpt><trkpt lat="40.3971817" lon="8.72559"><ele>390.0</ele><time>2026-04-16T14:34:59.738Z</time></trkpt><trkpt lat="40.3972417" lon="8.7253767"><ele>389.0</ele><time>2026-04-16T14:35:00.738Z</time></trkpt><trkpt lat="40.3973133" lon="8.725165"><ele>388.0</ele><time>2026-04-16T14:35:01.737Z</time></trkpt><trkpt lat="40.3973883" lon="8.72495"><ele>387.0</ele><time>2026-04-16T14:35:02.738Z</time></trkpt><trkpt lat="40.39746" lon="8.7247217"><ele>387.0</ele><time>2026-04-16T14:35:03.737Z</time></trkpt><trkpt lat="40.3975283" lon="8.724495"><ele>387.0</ele><time>2026-04-16T14:35:04.737Z</time></trkpt><trkpt lat="40.3976" lon="8.724275"><ele>387.0</ele><time>2026-04-16T14:35:05.738Z</time></trkpt><trkpt lat="40.3976567" lon="8.7240567"><ele>385.3333333333333</ele><time>2026-04-16T14:35:06.737Z</time></trkpt><trkpt lat="40.3977" lon="8.7238383"><ele>383.66666666666663</ele><time>2026-04-16T14:35:07.737Z</time></trkpt><trkpt lat="40.39772" lon="8.7236083"><ele>382.0</ele><time>2026-04-16T14:35:08.737Z</time></trkpt><trkpt lat="40.39771" lon="8.7233783"><ele>380.0</ele><time>2026-04-16T14:35:09.738Z</time></trkpt><trkpt lat="40.397675" lon="8.7231567"><ele>378.0</ele><time>2026-04-16T14:35:10.738Z</time></trkpt><trkpt lat="40.3976117" lon="8.7229617"><ele>376.0</ele><time>2026-04-16T14:35:11.738Z</time></trkpt><trkpt lat="40.3975167" lon="8.7227767"><ele>376.0</ele><time>2026-04-16T14:35:12.738Z</time></trkpt><trkpt lat="40.3973983" lon="8.7226083"><ele>376.0</ele><time>2026-04-16T14:35:13.738Z</time></trkpt><trkpt lat="40.3972683" lon="8.72244"><ele>376.0</ele><time>2026-04-16T14:35:14.737Z</time></trkpt><trkpt lat="40.3971217" lon="8.7222683"><ele>374.66666666666663</ele><time>2026-04-16T14:35:15.737Z</time></trkpt><trkpt lat="40.3969733" lon="8.7220933"><ele>373.3333333333333</ele><time>2026-04-16T14:35:16.738Z</time></trkpt><trkpt lat="40.3968267" lon="8.721905"><ele>372.0</ele><time>2026-04-16T14:35:17.737Z</time></trkpt><trkpt lat="40.39667" lon="8.721715"><ele>372.0</ele><time>2026-04-16T14:35:18.738Z</time></trkpt><trkpt lat="40.396515" lon="8.7215233"><ele>372.0</ele><time>2026-04-16T14:35:19.737Z</time></trkpt><trkpt lat="40.3963533" lon="8.7213283"><ele>372.0</ele><time>2026-04-16T14:35:20.738Z</time></trkpt><trkpt lat="40.3961983" lon="8.7211417"><ele>369.6666666666667</ele><time>2026-04-16T14:35:21.737Z</time></trkpt><trkpt lat="40.39605" lon="8.7209467"><ele>367.33333333333337</ele><time>2026-04-16T14:35:22.738Z</time></trkpt><trkpt lat="40.39591" lon="8.7207483"><ele>365.0</ele><time>2026-04-16T14:35:23.738Z</time></trkpt><trkpt lat="40.3957767" lon="8.7205433"><ele>365.0</ele><time>2026-04-16T14:35:24.737Z</time></trkpt><trkpt lat="40.395645" lon="8.7203233"><ele>365.0</ele><time>2026-04-16T14:35:25.738Z</time></trkpt><trkpt lat="40.3955183" lon="8.7201133"><ele>365.0</ele><time>2026-04-16T14:35:26.737Z</time></trkpt><trkpt lat="40.3953917" lon="8.7198917"><ele>362.6666666666667</ele><time>2026-04-16T14:35:27.738Z</time></trkpt><trkpt lat="40.3952867" lon="8.7196683"><ele>360.3333333333333</ele><time>2026-04-16T14:35:28.738Z</time></trkpt><trkpt lat="40.3952067" lon="8.7194217"><ele>358.0</ele><time>2026-04-16T14:35:29.738Z</time></trkpt><trkpt lat="40.3951367" lon="8.7191583"><ele>357.66666666666663</ele><time>2026-04-16T14:35:30.737Z</time></trkpt><trkpt lat="40.395085" lon="8.7188933"><ele>357.3333333333333</ele><time>2026-04-16T14:35:31.738Z</time></trkpt><trkpt lat="40.395025" lon="8.71862"><ele>357.0</ele><time>2026-04-16T14:35:32.737Z</time></trkpt><trkpt lat="40.3949633" lon="8.718355"><ele>357.0</ele><time>2026-04-16T14:35:33.737Z</time></trkpt><trkpt lat="40.3949" lon="8.7181"><ele>357.0</ele><time>2026-04-16T14:35:34.738Z</time></trkpt><trkpt lat="40.3948367" lon="8.7178283"><ele>357.0</ele><time>2026-04-16T14:35:35.738Z</time></trkpt><trkpt lat="40.3947733" lon="8.7175667"><ele>357.0</ele><time>2026-04-16T14:35:36.737Z</time></trkpt><trkpt lat="40.3947133" lon="8.717305"><ele>357.0</ele><time>2026-04-16T14:35:37.737Z</time></trkpt><trkpt lat="40.39465" lon="8.7170433"><ele>357.0</ele><time>2026-04-16T14:35:38.738Z</time></trkpt><trkpt lat="40.3945867" lon="8.7167917"><ele>355.3333333333333</ele><time>2026-04-16T14:35:39.738Z</time></trkpt><trkpt lat="40.394525" lon="8.7165417"><ele>353.66666666666663</ele><time>2026-04-16T14:35:40.738Z</time></trkpt><trkpt lat="40.3944683" lon="8.7162883"><ele>352.0</ele><time>2026-04-16T14:35:41.737Z</time></trkpt><trkpt lat="40.3944183" lon="8.71604"><ele>352.0</ele><time>2026-04-16T14:35:42.738Z</time></trkpt><trkpt lat="40.39438" lon="8.7157867"><ele>352.0</ele><time>2026-04-16T14:35:43.738Z</time></trkpt><trkpt lat="40.3943433" lon="8.7155267"><ele>352.0</ele><time>2026-04-16T14:35:44.738Z</time></trkpt><trkpt lat="40.394335" lon="8.7152667"><ele>351.66666666666663</ele><time>2026-04-16T14:35:45.738Z</time></trkpt><trkpt lat="40.394335" lon="8.7149933"><ele>351.3333333333333</ele><time>2026-04-16T14:35:46.738Z</time></trkpt><trkpt lat="40.3943267" lon="8.714715"><ele>351.0</ele><time>2026-04-16T14:35:47.737Z</time></trkpt><trkpt lat="40.3943183" lon="8.7144317"><ele>350.6666666666667</ele><time>2026-04-16T14:35:48.737Z</time></trkpt><trkpt lat="40.394305" lon="8.7141417"><ele>350.33333333333337</ele><time>2026-04-16T14:35:49.737Z</time></trkpt><trkpt lat="40.39429" lon="8.7138567"><ele>350.0</ele><time>2026-04-16T14:35:50.738Z</time></trkpt><trkpt lat="40.3942683" lon="8.7135733"><ele>350.0</ele><time>2026-04-16T14:35:51.737Z</time></trkpt><trkpt lat="40.39424" lon="8.7132883"><ele>350.0</ele><time>2026-04-16T14:35:52.738Z</time></trkpt><trkpt lat="40.3942117" lon="8.7130117"><ele>350.0</ele><time>2026-04-16T14:35:53.737Z</time></trkpt><trkpt lat="40.394185" lon="8.71274"><ele>350.33333333333337</ele><time>2026-04-16T14:35:54.738Z</time></trkpt><trkpt lat="40.39416" lon="8.7124683"><ele>350.6666666666667</ele><time>2026-04-16T14:35:55.737Z</time></trkpt><trkpt lat="40.394145" lon="8.7122"><ele>351.0</ele><time>2026-04-16T14:35:56.737Z</time></trkpt><trkpt lat="40.3941367" lon="8.71193"><ele>351.3333333333333</ele><time>2026-04-16T14:35:57.737Z</time></trkpt><trkpt lat="40.3941317" lon="8.711665"><ele>351.66666666666663</ele><time>2026-04-16T14:35:58.738Z</time></trkpt><trkpt lat="40.394125" lon="8.7114067"><ele>352.0</ele><time>2026-04-16T14:35:59.738Z</time></trkpt><trkpt lat="40.39412" lon="8.71115"><ele>351.3333333333333</ele><time>2026-04-16T14:36:00.738Z</time></trkpt><trkpt lat="40.3941017" lon="8.7109083"><ele>350.6666666666667</ele><time>2026-04-16T14:36:01.738Z</time></trkpt><trkpt lat="40.394065" lon="8.71067"><ele>350.0</ele><time>2026-04-16T14:36:02.737Z</time></trkpt><trkpt lat="40.3940133" lon="8.71043"><ele>349.33333333333337</ele><time>2026-04-16T14:36:03.738Z</time></trkpt><trkpt lat="40.393955" lon="8.71019"><ele>348.6666666666667</ele><time>2026-04-16T14:36:04.738Z</time></trkpt><trkpt lat="40.3938883" lon="8.7099433"><ele>348.0</ele><time>2026-04-16T14:36:05.738Z</time></trkpt><trkpt lat="40.3938217" lon="8.7096983"><ele>346.6666666666667</ele><time>2026-04-16T14:36:06.737Z</time></trkpt><trkpt lat="40.393755" lon="8.7094567"><ele>345.33333333333337</ele><time>2026-04-16T14:36:07.738Z</time></trkpt><trkpt lat="40.3936833" lon="8.709215"><ele>344.0</ele><time>2026-04-16T14:36:08.738Z</time></trkpt><trkpt lat="40.39361" lon="8.7089783"><ele>344.0</ele><time>2026-04-16T14:36:09.737Z</time></trkpt><trkpt lat="40.393535" lon="8.7087417"><ele>344.0</ele><time>2026-04-16T14:36:10.738Z</time></trkpt><trkpt lat="40.39346" lon="8.708505"><ele>344.0</ele><time>2026-04-16T14:36:11.738Z</time></trkpt><trkpt lat="40.3933817" lon="8.7082667"><ele>345.0</ele><time>2026-04-16T14:36:12.737Z</time></trkpt><trkpt lat="40.3933033" lon="8.70803"><ele>346.0</ele><time>2026-04-16T14:36:13.737Z</time></trkpt><trkpt lat="40.393225" lon="8.7077867"><ele>347.0</ele><time>2026-04-16T14:36:14.738Z</time></trkpt><trkpt lat="40.3931517" lon="8.7075583"><ele>347.33333333333337</ele><time>2026-04-16T14:36:15.737Z</time></trkpt><trkpt lat="40.3930583" lon="8.7073083"><ele>347.6666666666667</ele><time>2026-04-16T14:36:16.737Z</time></trkpt><trkpt lat="40.3929667" lon="8.7070667"><ele>348.0</ele><time>2026-04-16T14:36:17.738Z</time></trkpt><trkpt lat="40.392875" lon="8.7068283"><ele>346.6666666666667</ele><time>2026-04-16T14:36:18.738Z</time></trkpt><trkpt lat="40.39279" lon="8.7065983"><ele>345.33333333333337</ele><time>2026-04-16T14:36:19.738Z</time></trkpt><trkpt lat="40.3927" lon="8.7063483"><ele>344.0</ele><time>2026-04-16T14:36:20.738Z</time></trkpt><trkpt lat="40.3926117" lon="8.7061033"><ele>343.6666666666667</ele><time>2026-04-16T14:36:21.737Z</time></trkpt><trkpt lat="40.3925283" lon="8.705855"><ele>343.3333333333333</ele><time>2026-04-16T14:36:22.738Z</time></trkpt><trkpt lat="40.3924567" lon="8.705605"><ele>343.0</ele><time>2026-04-16T14:36:23.738Z</time></trkpt><trkpt lat="40.39239" lon="8.7053533"><ele>343.0</ele><time>2026-04-16T14:36:24.737Z</time></trkpt><trkpt lat="40.39233" lon="8.70509"><ele>343.0</ele><time>2026-04-16T14:36:25.737Z</time></trkpt><trkpt lat="40.3922733" lon="8.7048367"><ele>343.0</ele><time>2026-04-16T14:36:26.737Z</time></trkpt><trkpt lat="40.39221" lon="8.70458"><ele>342.3333333333333</ele><time>2026-04-16T14:36:27.737Z</time></trkpt><trkpt lat="40.3921533" lon="8.7043267"><ele>341.6666666666667</ele><time>2026-04-16T14:36:28.737Z</time></trkpt><trkpt lat="40.3920917" lon="8.7040783"><ele>341.0</ele><time>2026-04-16T14:36:29.737Z</time></trkpt><trkpt lat="40.3920217" lon="8.70383"><ele>340.6666666666667</ele><time>2026-04-16T14:36:30.737Z</time></trkpt><trkpt lat="40.3919567" lon="8.7035783"><ele>340.3333333333333</ele><time>2026-04-16T14:36:31.737Z</time></trkpt><trkpt lat="40.3918883" lon="8.7033267"><ele>340.0</ele><time>2026-04-16T14:36:32.738Z</time></trkpt><trkpt lat="40.3918217" lon="8.7030767"><ele>340.0</ele><time>2026-04-16T14:36:33.738Z</time></trkpt><trkpt lat="40.391755" lon="8.7028283"><ele>340.0</ele><time>2026-04-16T14:36:34.738Z</time></trkpt><trkpt lat="40.3916867" lon="8.70258"><ele>340.0</ele><time>2026-04-16T14:36:35.737Z</time></trkpt><trkpt lat="40.391615" lon="8.7023317"><ele>340.0</ele><time>2026-04-16T14:36:36.738Z</time></trkpt><trkpt lat="40.3915317" lon="8.7020867"><ele>340.0</ele><time>2026-04-16T14:36:37.738Z</time></trkpt><trkpt lat="40.3914467" lon="8.7018533"><ele>340.0</ele><time>2026-04-16T14:36:38.738Z</time></trkpt><trkpt lat="40.3913367" lon="8.701625"><ele>339.66666666666663</ele><time>2026-04-16T14:36:39.738Z</time></trkpt><trkpt lat="40.391215" lon="8.70141"><ele>339.3333333333333</ele><time>2026-04-16T14:36:40.738Z</time></trkpt><trkpt lat="40.39109" lon="8.7011933"><ele>339.0</ele><time>2026-04-16T14:36:41.738Z</time></trkpt><trkpt lat="40.3909617" lon="8.7009733"><ele>339.0</ele><time>2026-04-16T14:36:42.737Z</time></trkpt><trkpt lat="40.390835" lon="8.700745"><ele>339.0</ele><time>2026-04-16T14:36:43.737Z</time></trkpt><trkpt lat="40.390705" lon="8.7005233"><ele>339.0</ele><time>2026-04-16T14:36:44.738Z</time></trkpt><trkpt lat="40.39058" lon="8.7002967"><ele>338.3333333333333</ele><time>2026-04-16T14:36:45.738Z</time></trkpt><trkpt lat="40.3904633" lon="8.700075"><ele>337.66666666666663</ele><time>2026-04-16T14:36:46.738Z</time></trkpt><trkpt lat="40.39034" lon="8.6998567"><ele>337.0</ele><time>2026-04-16T14:36:47.738Z</time></trkpt><trkpt lat="40.3902117" lon="8.6996367"><ele>337.0</ele><time>2026-04-16T14:36:48.737Z</time></trkpt><trkpt lat="40.390085" lon="8.6994283"><ele>337.0</ele><time>2026-04-16T14:36:49.738Z</time></trkpt><trkpt lat="40.3899483" lon="8.6992233"><ele>337.0</ele><time>2026-04-16T14:36:50.738Z</time></trkpt><trkpt lat="40.38981" lon="8.6990333"><ele>336.66666666666663</ele><time>2026-04-16T14:36:51.738Z</time></trkpt><trkpt lat="40.3896567" lon="8.6988567"><ele>336.3333333333333</ele><time>2026-04-16T14:36:52.737Z</time></trkpt><trkpt lat="40.389495" lon="8.69869"><ele>336.0</ele><time>2026-04-16T14:36:53.738Z</time></trkpt><trkpt lat="40.389325" lon="8.6985283"><ele>335.3333333333333</ele><time>2026-04-16T14:36:54.737Z</time></trkpt><trkpt lat="40.389155" lon="8.6983667"><ele>334.66666666666663</ele><time>2026-04-16T14:36:55.738Z</time></trkpt><trkpt lat="40.3889883" lon="8.6981983"><ele>334.0</ele><time>2026-04-16T14:36:56.738Z</time></trkpt><trkpt lat="40.3888283" lon="8.69802"><ele>334.0</ele><time>2026-04-16T14:36:57.738Z</time></trkpt><trkpt lat="40.3886683" lon="8.69784"><ele>334.0</ele><time>2026-04-16T14:36:58.738Z</time></trkpt><trkpt lat="40.3885117" lon="8.697645"><ele>334.0</ele><time>2026-04-16T14:36:59.737Z</time></trkpt><trkpt lat="40.388365" lon="8.6974517"><ele>334.0</ele><time>2026-04-16T14:37:00.737Z</time></trkpt><trkpt lat="40.38821" lon="8.6972517"><ele>334.0</ele><time>2026-04-16T14:37:01.738Z</time></trkpt><trkpt lat="40.388065" lon="8.6970467"><ele>334.0</ele><time>2026-04-16T14:37:02.738Z</time></trkpt><trkpt lat="40.3879283" lon="8.6968333"><ele>334.0</ele><time>2026-04-16T14:37:03.738Z</time></trkpt><trkpt lat="40.3878" lon="8.69661"><ele>334.0</ele><time>2026-04-16T14:37:04.737Z</time></trkpt><trkpt lat="40.387685" lon="8.696385"><ele>334.0</ele><time>2026-04-16T14:37:05.738Z</time></trkpt><trkpt lat="40.3875733" lon="8.69615"><ele>336.0</ele><time>2026-04-16T14:37:06.737Z</time></trkpt><trkpt lat="40.3874617" lon="8.695915"><ele>338.0</ele><time>2026-04-16T14:37:07.737Z</time></trkpt><trkpt lat="40.3873617" lon="8.6956817"><ele>340.0</ele><time>2026-04-16T14:37:08.737Z</time></trkpt><trkpt lat="40.3872633" lon="8.695445"><ele>338.3333333333333</ele><time>2026-04-16T14:37:09.738Z</time></trkpt><trkpt lat="40.38716" lon="8.6952067"><ele>336.6666666666667</ele><time>2026-04-16T14:37:10.737Z</time></trkpt><trkpt lat="40.3870583" lon="8.6949683"><ele>335.0</ele><time>2026-04-16T14:37:11.738Z</time></trkpt><trkpt lat="40.3869617" lon="8.6947317"><ele>335.0</ele><time>2026-04-16T14:37:12.738Z</time></trkpt><trkpt lat="40.3868717" lon="8.6944983"><ele>335.0</ele><time>2026-04-16T14:37:13.738Z</time></trkpt><trkpt lat="40.3868033" lon="8.6942717"><ele>335.0</ele><time>2026-04-16T14:37:14.737Z</time></trkpt><trkpt lat="40.3867283" lon="8.6940317"><ele>335.6666666666667</ele><time>2026-04-16T14:37:15.738Z</time></trkpt><trkpt lat="40.38667" lon="8.6937883"><ele>336.3333333333333</ele><time>2026-04-16T14:37:16.737Z</time></trkpt><trkpt lat="40.3866217" lon="8.6935433"><ele>337.0</ele><time>2026-04-16T14:37:17.737Z</time></trkpt><trkpt lat="40.3865817" lon="8.6933017"><ele>337.0</ele><time>2026-04-16T14:37:18.738Z</time></trkpt><trkpt lat="40.386545" lon="8.693055"><ele>337.0</ele><time>2026-04-16T14:37:19.738Z</time></trkpt><trkpt lat="40.3865233" lon="8.692815"><ele>337.0</ele><time>2026-04-16T14:37:20.737Z</time></trkpt><trkpt lat="40.3865267" lon="8.69257"><ele>337.0</ele><time>2026-04-16T14:37:21.738Z</time></trkpt><trkpt lat="40.386545" lon="8.69232"><ele>337.0</ele><time>2026-04-16T14:37:22.736Z</time></trkpt><trkpt lat="40.3865717" lon="8.69207"><ele>337.0</ele><time>2026-04-16T14:37:23.736Z</time></trkpt><trkpt lat="40.3865967" lon="8.6918183"><ele>335.3333333333333</ele><time>2026-04-16T14:37:24.736Z</time></trkpt><trkpt lat="40.3866083" lon="8.6915667"><ele>333.6666666666667</ele><time>2026-04-16T14:37:25.737Z</time></trkpt><trkpt lat="40.3866067" lon="8.6913133"><ele>332.0</ele><time>2026-04-16T14:37:26.737Z</time></trkpt><trkpt lat="40.386585" lon="8.691055"><ele>331.6666666666667</ele><time>2026-04-16T14:37:27.737Z</time></trkpt><trkpt lat="40.3865433" lon="8.6908083"><ele>331.3333333333333</ele><time>2026-04-16T14:37:28.736Z</time></trkpt><trkpt lat="40.3864767" lon="8.6905667"><ele>331.0</ele><time>2026-04-16T14:37:29.737Z</time></trkpt><trkpt lat="40.3864" lon="8.69033"><ele>332.3333333333333</ele><time>2026-04-16T14:37:30.737Z</time></trkpt><trkpt lat="40.3863183" lon="8.6900983"><ele>333.6666666666667</ele><time>2026-04-16T14:37:31.736Z</time></trkpt><trkpt lat="40.3862367" lon="8.6898667"><ele>335.0</ele><time>2026-04-16T14:37:32.736Z</time></trkpt><trkpt lat="40.38616" lon="8.6896333"><ele>335.0</ele><time>2026-04-16T14:37:33.737Z</time></trkpt><trkpt lat="40.3860867" lon="8.6894017"><ele>335.0</ele><time>2026-04-16T14:37:34.736Z</time></trkpt><trkpt lat="40.3860167" lon="8.68917"><ele>335.0</ele><time>2026-04-16T14:37:35.737Z</time></trkpt><trkpt lat="40.38594" lon="8.6889433"><ele>335.0</ele><time>2026-04-16T14:37:36.737Z</time></trkpt><trkpt lat="40.385875" lon="8.6887133"><ele>335.0</ele><time>2026-04-16T14:37:37.737Z</time></trkpt><trkpt lat="40.385825" lon="8.688485"><ele>335.0</ele><time>2026-04-16T14:37:38.737Z</time></trkpt><trkpt lat="40.3857967" lon="8.6882517"><ele>336.0</ele><time>2026-04-16T14:37:39.736Z</time></trkpt><trkpt lat="40.385785" lon="8.6880183"><ele>337.0</ele><time>2026-04-16T14:37:40.736Z</time></trkpt><trkpt lat="40.3858033" lon="8.687785"><ele>338.0</ele><time>2026-04-16T14:37:41.737Z</time></trkpt><trkpt lat="40.3858433" lon="8.6875583"><ele>339.6666666666667</ele><time>2026-04-16T14:37:42.737Z</time></trkpt><trkpt lat="40.3858967" lon="8.6873417"><ele>341.3333333333333</ele><time>2026-04-16T14:37:43.736Z</time></trkpt><trkpt lat="40.38596" lon="8.6871217"><ele>343.0</ele><time>2026-04-16T14:37:44.736Z</time></trkpt><trkpt lat="40.3860267" lon="8.6868983"><ele>343.3333333333333</ele><time>2026-04-16T14:37:45.736Z</time></trkpt><trkpt lat="40.3860867" lon="8.68667"><ele>343.6666666666667</ele><time>2026-04-16T14:37:46.737Z</time></trkpt><trkpt lat="40.386145" lon="8.6864383"><ele>344.0</ele><time>2026-04-16T14:37:47.736Z</time></trkpt><trkpt lat="40.3862033" lon="8.6862083"><ele>343.6666666666667</ele><time>2026-04-16T14:37:48.737Z</time></trkpt><trkpt lat="40.3862633" lon="8.6859817"><ele>343.3333333333333</ele><time>2026-04-16T14:37:49.737Z</time></trkpt><trkpt lat="40.386325" lon="8.6857517"><ele>343.0</ele><time>2026-04-16T14:37:50.736Z</time></trkpt><trkpt lat="40.386385" lon="8.6855167"><ele>347.66666666666663</ele><time>2026-04-16T14:37:51.737Z</time></trkpt><trkpt lat="40.3864483" lon="8.6852817"><ele>352.3333333333333</ele><time>2026-04-16T14:37:52.736Z</time></trkpt><trkpt lat="40.386515" lon="8.6850433"><ele>357.0</ele><time>2026-04-16T14:37:53.737Z</time></trkpt><trkpt lat="40.3865933" lon="8.68481"><ele>357.3333333333333</ele><time>2026-04-16T14:37:54.737Z</time></trkpt><trkpt lat="40.3866867" lon="8.6845867"><ele>357.66666666666663</ele><time>2026-04-16T14:37:55.737Z</time></trkpt><trkpt lat="40.3867917" lon="8.6843683"><ele>358.0</ele><time>2026-04-16T14:37:56.737Z</time></trkpt><trkpt lat="40.3868983" lon="8.68415"><ele>358.0</ele><time>2026-04-16T14:37:57.737Z</time></trkpt><trkpt lat="40.3870033" lon="8.68394"><ele>358.0</ele><time>2026-04-16T14:37:58.736Z</time></trkpt><trkpt lat="40.3870917" lon="8.6837333"><ele>358.0</ele><time>2026-04-16T14:37:59.736Z</time></trkpt><trkpt lat="40.3871683" lon="8.6835167"><ele>363.0</ele><time>2026-04-16T14:38:00.737Z</time></trkpt><trkpt lat="40.3872117" lon="8.6833017"><ele>368.0</ele><time>2026-04-16T14:38:01.736Z</time></trkpt><trkpt lat="40.3872267" lon="8.6830717"><ele>373.0</ele><time>2026-04-16T14:38:02.737Z</time></trkpt><trkpt lat="40.3872017" lon="8.68284"><ele>368.3333333333333</ele><time>2026-04-16T14:38:03.736Z</time></trkpt><trkpt lat="40.3871583" lon="8.6826117"><ele>363.6666666666667</ele><time>2026-04-16T14:38:04.737Z</time></trkpt><trkpt lat="40.3871167" lon="8.6823883"><ele>359.0</ele><time>2026-04-16T14:38:05.737Z</time></trkpt><trkpt lat="40.3871033" lon="8.6821767"><ele>359.0</ele><time>2026-04-16T14:38:06.736Z</time></trkpt><trkpt lat="40.3871217" lon="8.6819667"><ele>359.0</ele><time>2026-04-16T14:38:07.737Z</time></trkpt><trkpt lat="40.38718" lon="8.6817617"><ele>359.0</ele><time>2026-04-16T14:38:08.737Z</time></trkpt><trkpt lat="40.3872783" lon="8.6815783"><ele>362.6666666666667</ele><time>2026-04-16T14:38:09.736Z</time></trkpt><trkpt lat="40.3873867" lon="8.681395"><ele>366.3333333333333</ele><time>2026-04-16T14:38:10.736Z</time></trkpt><trkpt lat="40.3874917" lon="8.6812083"><ele>370.0</ele><time>2026-04-16T14:38:11.737Z</time></trkpt><trkpt lat="40.3875983" lon="8.6810183"><ele>370.0</ele><time>2026-04-16T14:38:12.737Z</time></trkpt><trkpt lat="40.3876933" lon="8.6808083"><ele>370.0</ele><time>2026-04-16T14:38:13.736Z</time></trkpt><trkpt lat="40.3877833" lon="8.6805933"><ele>370.0</ele><time>2026-04-16T14:38:14.736Z</time></trkpt><trkpt lat="40.3878767" lon="8.6803783"><ele>368.66666666666663</ele><time>2026-04-16T14:38:15.737Z</time></trkpt><trkpt lat="40.3879733" lon="8.6801567"><ele>367.3333333333333</ele><time>2026-04-16T14:38:16.737Z</time></trkpt><trkpt lat="40.3880717" lon="8.6799283"><ele>366.0</ele><time>2026-04-16T14:38:17.736Z</time></trkpt><trkpt lat="40.3881667" lon="8.6796967"><ele>372.66666666666663</ele><time>2026-04-16T14:38:18.737Z</time></trkpt><trkpt lat="40.3882667" lon="8.6794733"><ele>379.3333333333333</ele><time>2026-04-16T14:38:19.736Z</time></trkpt><trkpt lat="40.3883667" lon="8.67925"><ele>386.0</ele><time>2026-04-16T14:38:20.737Z</time></trkpt><trkpt lat="40.38846" lon="8.6790233"><ele>386.0</ele><time>2026-04-16T14:38:21.736Z</time></trkpt><trkpt lat="40.3885533" lon="8.6788"><ele>386.0</ele><time>2026-04-16T14:38:22.737Z</time></trkpt><trkpt lat="40.388645" lon="8.6785767"><ele>386.0</ele><time>2026-04-16T14:38:23.737Z</time></trkpt><trkpt lat="40.38872" lon="8.6783417"><ele>384.0</ele><time>2026-04-16T14:38:24.737Z</time></trkpt><trkpt lat="40.388775" lon="8.6781117"><ele>382.0</ele><time>2026-04-16T14:38:25.737Z</time></trkpt><trkpt lat="40.3888217" lon="8.67788"><ele>380.0</ele><time>2026-04-16T14:38:26.736Z</time></trkpt><trkpt lat="40.3888683" lon="8.6776567"><ele>387.6666666666667</ele><time>2026-04-16T14:38:27.737Z</time></trkpt><trkpt lat="40.3889333" lon="8.6774417"><ele>395.33333333333337</ele><time>2026-04-16T14:38:28.737Z</time></trkpt><trkpt lat="40.3890133" lon="8.6772433"><ele>403.0</ele><time>2026-04-16T14:38:29.737Z</time></trkpt><trkpt lat="40.38912" lon="8.677065"><ele>399.33333333333337</ele><time>2026-04-16T14:38:30.737Z</time></trkpt><trkpt lat="40.3892417" lon="8.6769083"><ele>395.66666666666663</ele><time>2026-04-16T14:38:31.736Z</time></trkpt><trkpt lat="40.389375" lon="8.6767633"><ele>392.0</ele><time>2026-04-16T14:38:32.737Z</time></trkpt><trkpt lat="40.389515" lon="8.676625"><ele>392.0</ele><time>2026-04-16T14:38:33.737Z</time></trkpt><trkpt lat="40.3896617" lon="8.6764833"><ele>392.0</ele><time>2026-04-16T14:38:34.737Z</time></trkpt><trkpt lat="40.3898067" lon="8.676335"><ele>392.0</ele><time>2026-04-16T14:38:35.736Z</time></trkpt><trkpt lat="40.3899533" lon="8.6761817"><ele>394.3333333333333</ele><time>2026-04-16T14:38:36.736Z</time></trkpt><trkpt lat="40.3901033" lon="8.6760317"><ele>396.66666666666663</ele><time>2026-04-16T14:38:37.737Z</time></trkpt><trkpt lat="40.3902583" lon="8.6758967"><ele>399.0</ele><time>2026-04-16T14:38:38.736Z</time></trkpt><trkpt lat="40.3904283" lon="8.67578"><ele>402.66666666666663</ele><time>2026-04-16T14:38:39.737Z</time></trkpt><trkpt lat="40.3906067" lon="8.6757033"><ele>406.3333333333333</ele><time>2026-04-16T14:38:40.737Z</time></trkpt><trkpt lat="40.3907883" lon="8.6756483"><ele>410.0</ele><time>2026-04-16T14:38:41.737Z</time></trkpt><trkpt lat="40.3909667" lon="8.67559"><ele>410.0</ele><time>2026-04-16T14:38:42.736Z</time></trkpt><trkpt lat="40.39114" lon="8.6755167"><ele>410.0</ele><time>2026-04-16T14:38:43.737Z</time></trkpt><trkpt lat="40.3913017" lon="8.6754083"><ele>410.0</ele><time>2026-04-16T14:38:44.736Z</time></trkpt><trkpt lat="40.39146" lon="8.6752733"><ele>410.0</ele><time>2026-04-16T14:38:45.737Z</time></trkpt><trkpt lat="40.3916017" lon="8.6751183"><ele>410.0</ele><time>2026-04-16T14:38:46.737Z</time></trkpt><trkpt lat="40.3917367" lon="8.6749467"><ele>410.0</ele><time>2026-04-16T14:38:47.737Z</time></trkpt><trkpt lat="40.3918583" lon="8.6747767"><ele>410.0</ele><time>2026-04-16T14:38:48.736Z</time></trkpt><trkpt lat="40.39199" lon="8.6746033"><ele>410.0</ele><time>2026-04-16T14:38:49.736Z</time></trkpt><trkpt lat="40.392115" lon="8.6744267"><ele>410.0</ele><time>2026-04-16T14:38:50.737Z</time></trkpt><trkpt lat="40.3922317" lon="8.67424"><ele>411.66666666666663</ele><time>2026-04-16T14:38:51.737Z</time></trkpt><trkpt lat="40.39234" lon="8.6740467"><ele>413.33333333333337</ele><time>2026-04-16T14:38:52.737Z</time></trkpt><trkpt lat="40.3924433" lon="8.6738433"><ele>415.0</ele><time>2026-04-16T14:38:53.736Z</time></trkpt><trkpt lat="40.3925417" lon="8.6736383"><ele>413.6666666666667</ele><time>2026-04-16T14:38:54.736Z</time></trkpt><trkpt lat="40.3926433" lon="8.6734383"><ele>412.33333333333337</ele><time>2026-04-16T14:38:55.737Z</time></trkpt><trkpt lat="40.3927433" lon="8.6732483"><ele>411.0</ele><time>2026-04-16T14:38:56.737Z</time></trkpt><trkpt lat="40.392855" lon="8.6730617"><ele>411.0</ele><time>2026-04-16T14:38:57.737Z</time></trkpt><trkpt lat="40.39297" lon="8.6728867"><ele>411.0</ele><time>2026-04-16T14:38:58.737Z</time></trkpt><trkpt lat="40.393095" lon="8.67273"><ele>411.0</ele><time>2026-04-16T14:38:59.737Z</time></trkpt><trkpt lat="40.3932133" lon="8.6725783"><ele>414.66666666666663</ele><time>2026-04-16T14:39:00.737Z</time></trkpt><trkpt lat="40.3933367" lon="8.6724367"><ele>418.3333333333333</ele><time>2026-04-16T14:39:01.737Z</time></trkpt><trkpt lat="40.3934617" lon="8.6723067"><ele>422.0</ele><time>2026-04-16T14:39:02.736Z</time></trkpt><trkpt lat="40.39359" lon="8.6721817"><ele>422.0</ele><time>2026-04-16T14:39:03.736Z</time></trkpt><trkpt lat="40.3937233" lon="8.67207"><ele>422.0</ele><time>2026-04-16T14:39:04.737Z</time></trkpt><trkpt lat="40.393855" lon="8.6719617"><ele>422.0</ele><time>2026-04-16T14:39:05.737Z</time></trkpt><trkpt lat="40.3939867" lon="8.6718583"><ele>424.3333333333333</ele><time>2026-04-16T14:39:06.737Z</time></trkpt><trkpt lat="40.3941183" lon="8.6717517"><ele>426.66666666666663</ele><time>2026-04-16T14:39:07.737Z</time></trkpt><trkpt lat="40.3942517" lon="8.6716417"><ele>429.0</ele><time>2026-04-16T14:39:08.736Z</time></trkpt><trkpt lat="40.39439" lon="8.67153"><ele>429.0</ele><time>2026-04-16T14:39:09.736Z</time></trkpt><trkpt lat="40.39453" lon="8.6714117"><ele>429.0</ele><time>2026-04-16T14:39:10.737Z</time></trkpt><trkpt lat="40.3946767" lon="8.6712883"><ele>429.0</ele><time>2026-04-16T14:39:11.736Z</time></trkpt><trkpt lat="40.3948283" lon="8.671165"><ele>430.0</ele><time>2026-04-16T14:39:12.736Z</time></trkpt><trkpt lat="40.3949833" lon="8.6710417"><ele>431.0</ele><time>2026-04-16T14:39:13.737Z</time></trkpt><trkpt lat="40.3951317" lon="8.6709167"><ele>432.0</ele><time>2026-04-16T14:39:14.737Z</time></trkpt><trkpt lat="40.3952783" lon="8.6707917"><ele>432.0</ele><time>2026-04-16T14:39:15.736Z</time></trkpt><trkpt lat="40.3954167" lon="8.670665"><ele>432.0</ele><time>2026-04-16T14:39:16.737Z</time></trkpt><trkpt lat="40.3955367" lon="8.67053"><ele>432.0</ele><time>2026-04-16T14:39:17.737Z</time></trkpt><trkpt lat="40.3956283" lon="8.6703783"><ele>433.25</ele><time>2026-04-16T14:39:18.737Z</time></trkpt><trkpt lat="40.39568" lon="8.6702167"><ele>434.5</ele><time>2026-04-16T14:39:19.736Z</time></trkpt><trkpt lat="40.39569" lon="8.6700433"><ele>435.75</ele><time>2026-04-16T14:39:20.737Z</time></trkpt><trkpt lat="40.3956533" lon="8.6698867"><ele>437.0</ele><time>2026-04-16T14:39:21.737Z</time></trkpt><trkpt lat="40.3955633" lon="8.6697533"><ele>436.75</ele><time>2026-04-16T14:39:22.737Z</time></trkpt><trkpt lat="40.39545" lon="8.6696417"><ele>436.5</ele><time>2026-04-16T14:39:23.736Z</time></trkpt><trkpt lat="40.3953333" lon="8.66953"><ele>436.25</ele><time>2026-04-16T14:39:24.737Z</time></trkpt><trkpt lat="40.3952067" lon="8.66942"><ele>436.0</ele><time>2026-04-16T14:39:25.737Z</time></trkpt><trkpt lat="40.3950717" lon="8.669315"><ele>438.6666666666667</ele><time>2026-04-16T14:39:26.737Z</time></trkpt><trkpt lat="40.3949417" lon="8.6691933"><ele>441.33333333333337</ele><time>2026-04-16T14:39:27.736Z</time></trkpt><trkpt lat="40.3948267" lon="8.6690567"><ele>444.0</ele><time>2026-04-16T14:39:28.737Z</time></trkpt><trkpt lat="40.3947183" lon="8.6689083"><ele>444.0</ele><time>2026-04-16T14:39:29.736Z</time></trkpt><trkpt lat="40.3946267" lon="8.6687417"><ele>444.0</ele><time>2026-04-16T14:39:30.737Z</time></trkpt><trkpt lat="40.394555" lon="8.66856"><ele>444.0</ele><time>2026-04-16T14:39:31.736Z</time></trkpt><trkpt lat="40.3945233" lon="8.6683633"><ele>444.0</ele><time>2026-04-16T14:39:32.736Z</time></trkpt><trkpt lat="40.394505" lon="8.6681617"><ele>444.0</ele><time>2026-04-16T14:39:33.737Z</time></trkpt><trkpt lat="40.3944983" lon="8.6679483"><ele>444.0</ele><time>2026-04-16T14:39:34.737Z</time></trkpt><trkpt lat="40.3944967" lon="8.66773"><ele>443.66666666666663</ele><time>2026-04-16T14:39:35.737Z</time></trkpt><trkpt lat="40.39449" lon="8.667505"><ele>443.3333333333333</ele><time>2026-04-16T14:39:36.737Z</time></trkpt><trkpt lat="40.3944817" lon="8.6672733"><ele>443.0</ele><time>2026-04-16T14:39:37.737Z</time></trkpt><trkpt lat="40.3944683" lon="8.6670483"><ele>442.66666666666663</ele><time>2026-04-16T14:39:38.737Z</time></trkpt><trkpt lat="40.3944667" lon="8.6668317"><ele>442.33333333333337</ele><time>2026-04-16T14:39:39.737Z</time></trkpt><trkpt lat="40.394475" lon="8.6666183"><ele>442.0</ele><time>2026-04-16T14:39:40.737Z</time></trkpt><trkpt lat="40.3944933" lon="8.66641"><ele>442.0</ele><time>2026-04-16T14:39:41.737Z</time></trkpt><trkpt lat="40.3945217" lon="8.66621"><ele>442.0</ele><time>2026-04-16T14:39:42.737Z</time></trkpt><trkpt lat="40.3945483" lon="8.6660233"><ele>442.0</ele><time>2026-04-16T14:39:43.737Z</time></trkpt><trkpt lat="40.39457" lon="8.6658667"><ele>442.0</ele><time>2026-04-16T14:39:44.736Z</time></trkpt><trkpt lat="40.39459" lon="8.6657533"><ele>441.40000000000003</ele><time>2026-04-16T14:39:45.736Z</time></trkpt><trkpt lat="40.3946067" lon="8.6656733"><ele>440.80000000000007</ele><time>2026-04-16T14:39:46.736Z</time></trkpt><trkpt lat="40.3946017" lon="8.6655483"><ele>440.2</ele><time>2026-04-16T14:39:48.737Z</time></trkpt><trkpt lat="40.3945033" lon="8.6654383"><ele>439.6</ele><time>2026-04-16T14:39:50.736Z</time></trkpt><trkpt lat="40.3944167" lon="8.6653967"><ele>439.0</ele><time>2026-04-16T14:39:51.736Z</time></trkpt><trkpt lat="40.3943133" lon="8.6653467"><ele>439.0</ele><time>2026-04-16T14:39:52.737Z</time></trkpt><trkpt lat="40.3942033" lon="8.6652967"><ele>439.0</ele><time>2026-04-16T14:39:53.736Z</time></trkpt><trkpt lat="40.39409" lon="8.6652317"><ele>439.0</ele><time>2026-04-16T14:39:54.737Z</time></trkpt><trkpt lat="40.39397" lon="8.6651467"><ele>439.0</ele><time>2026-04-16T14:39:55.737Z</time></trkpt><trkpt lat="40.3938467" lon="8.66504"><ele>439.6666666666667</ele><time>2026-04-16T14:39:56.737Z</time></trkpt><trkpt lat="40.3937267" lon="8.6649217"><ele>440.33333333333337</ele><time>2026-04-16T14:39:57.736Z</time></trkpt><trkpt lat="40.39361" lon="8.664785"><ele>441.0</ele><time>2026-04-16T14:39:58.737Z</time></trkpt><trkpt lat="40.3934917" lon="8.664635"><ele>441.0</ele><time>2026-04-16T14:39:59.737Z</time></trkpt><trkpt lat="40.3933783" lon="8.66447"><ele>441.0</ele><time>2026-04-16T14:40:00.736Z</time></trkpt><trkpt lat="40.3932717" lon="8.6642917"><ele>441.0</ele><time>2026-04-16T14:40:01.737Z</time></trkpt><trkpt lat="40.39318" lon="8.6641"><ele>441.0</ele><time>2026-04-16T14:40:02.736Z</time></trkpt><trkpt lat="40.3931033" lon="8.6638983"><ele>441.0</ele><time>2026-04-16T14:40:03.736Z</time></trkpt><trkpt lat="40.3930317" lon="8.6636867"><ele>441.0</ele><time>2026-04-16T14:40:04.737Z</time></trkpt><trkpt lat="40.392965" lon="8.66347"><ele>442.0</ele><time>2026-04-16T14:40:05.737Z</time></trkpt><trkpt lat="40.3929183" lon="8.663245"><ele>443.0</ele><time>2026-04-16T14:40:06.737Z</time></trkpt><trkpt lat="40.3928767" lon="8.66302"><ele>444.0</ele><time>2026-04-16T14:40:07.737Z</time></trkpt><trkpt lat="40.39285" lon="8.662785"><ele>444.66666666666663</ele><time>2026-04-16T14:40:08.736Z</time></trkpt><trkpt lat="40.3928283" lon="8.662545"><ele>445.3333333333333</ele><time>2026-04-16T14:40:09.736Z</time></trkpt><trkpt lat="40.3928033" lon="8.6623"><ele>446.0</ele><time>2026-04-16T14:40:10.736Z</time></trkpt><trkpt lat="40.3927767" lon="8.6620567"><ele>447.0</ele><time>2026-04-16T14:40:11.737Z</time></trkpt><trkpt lat="40.3927533" lon="8.6618133"><ele>448.0</ele><time>2026-04-16T14:40:12.737Z</time></trkpt><trkpt lat="40.3927367" lon="8.66157"><ele>449.0</ele><time>2026-04-16T14:40:13.736Z</time></trkpt><trkpt lat="40.392735" lon="8.6613217"><ele>448.3333333333333</ele><time>2026-04-16T14:40:14.737Z</time></trkpt><trkpt lat="40.392745" lon="8.6610717"><ele>447.66666666666663</ele><time>2026-04-16T14:40:15.736Z</time></trkpt><trkpt lat="40.3927583" lon="8.6608283"><ele>447.0</ele><time>2026-04-16T14:40:16.737Z</time></trkpt><trkpt lat="40.3927717" lon="8.6605767"><ele>447.0</ele><time>2026-04-16T14:40:17.736Z</time></trkpt><trkpt lat="40.392785" lon="8.66032"><ele>447.0</ele><time>2026-04-16T14:40:18.736Z</time></trkpt><trkpt lat="40.3927967" lon="8.66006"><ele>447.0</ele><time>2026-04-16T14:40:19.737Z</time></trkpt><trkpt lat="40.3928117" lon="8.659795"><ele>446.66666666666663</ele><time>2026-04-16T14:40:20.737Z</time></trkpt><trkpt lat="40.3928217" lon="8.659525"><ele>446.3333333333333</ele><time>2026-04-16T14:40:21.737Z</time></trkpt><trkpt lat="40.392835" lon="8.65926"><ele>446.0</ele><time>2026-04-16T14:40:22.736Z</time></trkpt><trkpt lat="40.3928483" lon="8.658995"><ele>446.0</ele><time>2026-04-16T14:40:23.737Z</time></trkpt><trkpt lat="40.392865" lon="8.6587283"><ele>446.0</ele><time>2026-04-16T14:40:24.736Z</time></trkpt><trkpt lat="40.3928783" lon="8.658465"><ele>446.0</ele><time>2026-04-16T14:40:25.737Z</time></trkpt><trkpt lat="40.3928917" lon="8.6582067"><ele>444.66666666666663</ele><time>2026-04-16T14:40:26.737Z</time></trkpt><trkpt lat="40.3929233" lon="8.657955"><ele>443.33333333333337</ele><time>2026-04-16T14:40:27.736Z</time></trkpt><trkpt lat="40.3929717" lon="8.65771"><ele>442.0</ele><time>2026-04-16T14:40:28.736Z</time></trkpt><trkpt lat="40.3930317" lon="8.657475"><ele>440.33333333333337</ele><time>2026-04-16T14:40:29.737Z</time></trkpt><trkpt lat="40.3931033" lon="8.6572417"><ele>438.66666666666663</ele><time>2026-04-16T14:40:30.736Z</time></trkpt><trkpt lat="40.393175" lon="8.657005"><ele>437.0</ele><time>2026-04-16T14:40:31.735Z</time></trkpt><trkpt lat="40.3932467" lon="8.6567817"><ele>436.0</ele><time>2026-04-16T14:40:32.735Z</time></trkpt><trkpt lat="40.39332" lon="8.6565483"><ele>435.0</ele><time>2026-04-16T14:40:33.736Z</time></trkpt><trkpt lat="40.3933933" lon="8.656315"><ele>434.0</ele><time>2026-04-16T14:40:34.736Z</time></trkpt><trkpt lat="40.39346" lon="8.6560883"><ele>434.0</ele><time>2026-04-16T14:40:35.735Z</time></trkpt><trkpt lat="40.3935317" lon="8.6558633"><ele>434.0</ele><time>2026-04-16T14:40:36.736Z</time></trkpt><trkpt lat="40.3935983" lon="8.65564"><ele>434.0</ele><time>2026-04-16T14:40:37.736Z</time></trkpt><trkpt lat="40.3936633" lon="8.6554233"><ele>433.3333333333333</ele><time>2026-04-16T14:40:38.736Z</time></trkpt><trkpt lat="40.3937283" lon="8.6552067"><ele>432.66666666666663</ele><time>2026-04-16T14:40:39.736Z</time></trkpt><trkpt lat="40.3937967" lon="8.6549833"><ele>432.0</ele><time>2026-04-16T14:40:40.735Z</time></trkpt><trkpt lat="40.3938617" lon="8.65476"><ele>430.33333333333337</ele><time>2026-04-16T14:40:41.736Z</time></trkpt><trkpt lat="40.3939217" lon="8.6545317"><ele>428.6666666666667</ele><time>2026-04-16T14:40:42.736Z</time></trkpt><trkpt lat="40.3939667" lon="8.654295"><ele>427.0</ele><time>2026-04-16T14:40:43.736Z</time></trkpt><trkpt lat="40.393995" lon="8.6540583"><ele>426.6666666666667</ele><time>2026-04-16T14:40:44.736Z</time></trkpt><trkpt lat="40.394015" lon="8.653815"><ele>426.33333333333337</ele><time>2026-04-16T14:40:45.736Z</time></trkpt><trkpt lat="40.394025" lon="8.6535733"><ele>426.0</ele><time>2026-04-16T14:40:46.736Z</time></trkpt><trkpt lat="40.3940283" lon="8.653325"><ele>425.33333333333337</ele><time>2026-04-16T14:40:47.736Z</time></trkpt><trkpt lat="40.3940183" lon="8.6530833"><ele>424.6666666666667</ele><time>2026-04-16T14:40:48.736Z</time></trkpt><trkpt lat="40.3939967" lon="8.65284"><ele>424.0</ele><time>2026-04-16T14:40:49.736Z</time></trkpt><trkpt lat="40.39397" lon="8.6526"><ele>423.33333333333337</ele><time>2026-04-16T14:40:50.735Z</time></trkpt><trkpt lat="40.3939283" lon="8.652365"><ele>422.66666666666663</ele><time>2026-04-16T14:40:51.736Z</time></trkpt><trkpt lat="40.3938783" lon="8.6521333"><ele>422.0</ele><time>2026-04-16T14:40:52.736Z</time></trkpt><trkpt lat="40.39381" lon="8.6519033"><ele>422.0</ele><time>2026-04-16T14:40:53.736Z</time></trkpt><trkpt lat="40.3937283" lon="8.6516767"><ele>422.0</ele><time>2026-04-16T14:40:54.736Z</time></trkpt><trkpt lat="40.3936383" lon="8.6514533"><ele>422.0</ele><time>2026-04-16T14:40:55.735Z</time></trkpt><trkpt lat="40.3935483" lon="8.6512317"><ele>421.3333333333333</ele><time>2026-04-16T14:40:56.736Z</time></trkpt><trkpt lat="40.3934667" lon="8.6510083"><ele>420.66666666666663</ele><time>2026-04-16T14:40:57.736Z</time></trkpt><trkpt lat="40.393385" lon="8.65078"><ele>420.0</ele><time>2026-04-16T14:40:58.736Z</time></trkpt><trkpt lat="40.393305" lon="8.650555"><ele>420.0</ele><time>2026-04-16T14:40:59.735Z</time></trkpt><trkpt lat="40.39322" lon="8.650325"><ele>420.0</ele><time>2026-04-16T14:41:00.736Z</time></trkpt><trkpt lat="40.393135" lon="8.650095"><ele>420.0</ele><time>2026-04-16T14:41:01.736Z</time></trkpt><trkpt lat="40.3930517" lon="8.6498667"><ele>419.33333333333337</ele><time>2026-04-16T14:41:02.736Z</time></trkpt><trkpt lat="40.3929667" lon="8.6496367"><ele>418.6666666666667</ele><time>2026-04-16T14:41:03.736Z</time></trkpt><trkpt lat="40.392885" lon="8.6494"><ele>418.0</ele><time>2026-04-16T14:41:04.735Z</time></trkpt><trkpt lat="40.3927983" lon="8.649165"><ele>416.6666666666667</ele><time>2026-04-16T14:41:05.736Z</time></trkpt><trkpt lat="40.39271" lon="8.6489317"><ele>415.33333333333337</ele><time>2026-04-16T14:41:06.736Z</time></trkpt><trkpt lat="40.3926267" lon="8.64869"><ele>414.0</ele><time>2026-04-16T14:41:07.736Z</time></trkpt><trkpt lat="40.39254" lon="8.648455"><ele>413.0</ele><time>2026-04-16T14:41:08.736Z</time></trkpt><trkpt lat="40.39245" lon="8.6482167"><ele>412.0</ele><time>2026-04-16T14:41:09.736Z</time></trkpt><trkpt lat="40.39236" lon="8.6479817"><ele>411.0</ele><time>2026-04-16T14:41:10.735Z</time></trkpt><trkpt lat="40.3922733" lon="8.6477467"><ele>410.66666666666663</ele><time>2026-04-16T14:41:11.736Z</time></trkpt><trkpt lat="40.3921883" lon="8.6475183"><ele>410.3333333333333</ele><time>2026-04-16T14:41:12.735Z</time></trkpt><trkpt lat="40.3921033" lon="8.64729"><ele>410.0</ele><time>2026-04-16T14:41:13.736Z</time></trkpt><trkpt lat="40.3920217" lon="8.6470667"><ele>409.3333333333333</ele><time>2026-04-16T14:41:14.735Z</time></trkpt><trkpt lat="40.3919383" lon="8.6468383"><ele>408.66666666666663</ele><time>2026-04-16T14:41:15.736Z</time></trkpt><trkpt lat="40.3918567" lon="8.6466117"><ele>408.0</ele><time>2026-04-16T14:41:16.736Z</time></trkpt><trkpt lat="40.3917733" lon="8.6463817"><ele>408.0</ele><time>2026-04-16T14:41:17.736Z</time></trkpt><trkpt lat="40.39169" lon="8.6461583"><ele>408.0</ele><time>2026-04-16T14:41:18.736Z</time></trkpt><trkpt lat="40.3916083" lon="8.6459333"><ele>408.0</ele><time>2026-04-16T14:41:19.736Z</time></trkpt><trkpt lat="40.3915267" lon="8.6457133"><ele>407.33333333333337</ele><time>2026-04-16T14:41:20.736Z</time></trkpt><trkpt lat="40.3914467" lon="8.6454983"><ele>406.6666666666667</ele><time>2026-04-16T14:41:21.735Z</time></trkpt><trkpt lat="40.3913683" lon="8.6452933"><ele>406.0</ele><time>2026-04-16T14:41:22.736Z</time></trkpt><trkpt lat="40.3913" lon="8.6451"><ele>405.75</ele><time>2026-04-16T14:41:23.736Z</time></trkpt><trkpt lat="40.3912333" lon="8.644915"><ele>405.5</ele><time>2026-04-16T14:41:24.735Z</time></trkpt><trkpt lat="40.3911733" lon="8.6447483"><ele>405.25</ele><time>2026-04-16T14:41:25.736Z</time></trkpt><trkpt lat="40.3911133" lon="8.6445833"><ele>405.0</ele><time>2026-04-16T14:41:26.736Z</time></trkpt><trkpt lat="40.3910533" lon="8.6444133"><ele>404.0</ele><time>2026-04-16T14:41:27.735Z</time></trkpt><trkpt lat="40.3910033" lon="8.6442333"><ele>403.0</ele><time>2026-04-16T14:41:28.736Z</time></trkpt><trkpt lat="40.3909667" lon="8.6440317"><ele>402.0</ele><time>2026-04-16T14:41:29.736Z</time></trkpt><trkpt lat="40.3909467" lon="8.6438183"><ele>400.66666666666663</ele><time>2026-04-16T14:41:30.735Z</time></trkpt><trkpt lat="40.3909383" lon="8.6435883"><ele>399.3333333333333</ele><time>2026-04-16T14:41:31.736Z</time></trkpt><trkpt lat="40.390945" lon="8.6433467"><ele>398.0</ele><time>2026-04-16T14:41:32.736Z</time></trkpt><trkpt lat="40.3909517" lon="8.64309"><ele>398.0</ele><time>2026-04-16T14:41:33.735Z</time></trkpt><trkpt lat="40.3909483" lon="8.6428217"><ele>398.0</ele><time>2026-04-16T14:41:34.735Z</time></trkpt><trkpt lat="40.3909517" lon="8.6425517"><ele>398.0</ele><time>2026-04-16T14:41:35.736Z</time></trkpt><trkpt lat="40.3909617" lon="8.64228"><ele>397.3333333333333</ele><time>2026-04-16T14:41:36.735Z</time></trkpt><trkpt lat="40.39097" lon="8.6420067"><ele>396.66666666666663</ele><time>2026-04-16T14:41:37.735Z</time></trkpt><trkpt lat="40.3909767" lon="8.6417283"><ele>396.0</ele><time>2026-04-16T14:41:38.736Z</time></trkpt><trkpt lat="40.39098" lon="8.6414533"><ele>395.33333333333337</ele><time>2026-04-16T14:41:39.736Z</time></trkpt><trkpt lat="40.3909817" lon="8.6411817"><ele>394.6666666666667</ele><time>2026-04-16T14:41:40.736Z</time></trkpt><trkpt lat="40.3909867" lon="8.64091"><ele>394.0</ele><time>2026-04-16T14:41:41.736Z</time></trkpt><trkpt lat="40.39099" lon="8.64065"><ele>393.33333333333337</ele><time>2026-04-16T14:41:42.736Z</time></trkpt><trkpt lat="40.39098" lon="8.6404"><ele>392.66666666666663</ele><time>2026-04-16T14:41:43.735Z</time></trkpt><trkpt lat="40.3909517" lon="8.6401633"><ele>392.0</ele><time>2026-04-16T14:41:44.736Z</time></trkpt><trkpt lat="40.3909067" lon="8.6399417"><ele>390.0</ele><time>2026-04-16T14:41:45.735Z</time></trkpt><trkpt lat="40.390855" lon="8.6397367"><ele>388.0</ele><time>2026-04-16T14:41:46.736Z</time></trkpt><trkpt lat="40.39081" lon="8.6395367"><ele>386.0</ele><time>2026-04-16T14:41:47.736Z</time></trkpt><trkpt lat="40.3907933" lon="8.6393433"><ele>384.66666666666663</ele><time>2026-04-16T14:41:48.735Z</time></trkpt><trkpt lat="40.39081" lon="8.63915"><ele>383.3333333333333</ele><time>2026-04-16T14:41:49.736Z</time></trkpt><trkpt lat="40.3908667" lon="8.638955"><ele>382.0</ele><time>2026-04-16T14:41:50.736Z</time></trkpt><trkpt lat="40.39094" lon="8.6387683"><ele>381.66666666666663</ele><time>2026-04-16T14:41:51.736Z</time></trkpt><trkpt lat="40.3910067" lon="8.63858"><ele>381.3333333333333</ele><time>2026-04-16T14:41:52.735Z</time></trkpt><trkpt lat="40.3910433" lon="8.6383767"><ele>381.0</ele><time>2026-04-16T14:41:53.736Z</time></trkpt><trkpt lat="40.391045" lon="8.638165"><ele>381.0</ele><time>2026-04-16T14:41:54.735Z</time></trkpt><trkpt lat="40.3910267" lon="8.6379483"><ele>381.0</ele><time>2026-04-16T14:41:55.735Z</time></trkpt><trkpt lat="40.3910017" lon="8.637735"><ele>381.0</ele><time>2026-04-16T14:41:56.736Z</time></trkpt><trkpt lat="40.39096" lon="8.6375317"><ele>378.3333333333333</ele><time>2026-04-16T14:41:57.736Z</time></trkpt><trkpt lat="40.3908933" lon="8.637325"><ele>375.66666666666663</ele><time>2026-04-16T14:41:58.736Z</time></trkpt><trkpt lat="40.390805" lon="8.6371167"><ele>373.0</ele><time>2026-04-16T14:41:59.735Z</time></trkpt><trkpt lat="40.3907" lon="8.63691"><ele>374.0</ele><time>2026-04-16T14:42:00.736Z</time></trkpt><trkpt lat="40.390595" lon="8.6367067"><ele>375.0</ele><time>2026-04-16T14:42:01.736Z</time></trkpt><trkpt lat="40.3904933" lon="8.6364967"><ele>376.0</ele><time>2026-04-16T14:42:02.736Z</time></trkpt><trkpt lat="40.3903833" lon="8.6362817"><ele>373.3333333333333</ele><time>2026-04-16T14:42:03.736Z</time></trkpt><trkpt lat="40.3902817" lon="8.6360717"><ele>370.6666666666667</ele><time>2026-04-16T14:42:04.736Z</time></trkpt><trkpt lat="40.390185" lon="8.6358533"><ele>368.0</ele><time>2026-04-16T14:42:05.736Z</time></trkpt><trkpt lat="40.3900983" lon="8.6356333"><ele>368.0</ele><time>2026-04-16T14:42:06.735Z</time></trkpt><trkpt lat="40.3900233" lon="8.6354033"><ele>368.0</ele><time>2026-04-16T14:42:07.736Z</time></trkpt><trkpt lat="40.389955" lon="8.6351717"><ele>368.0</ele><time>2026-04-16T14:42:08.736Z</time></trkpt><trkpt lat="40.389895" lon="8.6349283"><ele>364.33333333333337</ele><time>2026-04-16T14:42:09.736Z</time></trkpt><trkpt lat="40.3898417" lon="8.6346833"><ele>360.6666666666667</ele><time>2026-04-16T14:42:10.736Z</time></trkpt><trkpt lat="40.3897833" lon="8.634445"><ele>357.0</ele><time>2026-04-16T14:42:11.735Z</time></trkpt><trkpt lat="40.3897317" lon="8.6342183"><ele>358.6666666666667</ele><time>2026-04-16T14:42:12.736Z</time></trkpt><trkpt lat="40.3896717" lon="8.6340017"><ele>360.33333333333337</ele><time>2026-04-16T14:42:13.736Z</time></trkpt><trkpt lat="40.3895967" lon="8.6337883"><ele>362.0</ele><time>2026-04-16T14:42:14.736Z</time></trkpt><trkpt lat="40.3895017" lon="8.6335817"><ele>358.6666666666667</ele><time>2026-04-16T14:42:15.736Z</time></trkpt><trkpt lat="40.3894" lon="8.6333733"><ele>355.3333333333333</ele><time>2026-04-16T14:42:16.736Z</time></trkpt><trkpt lat="40.3893033" lon="8.6331733"><ele>352.0</ele><time>2026-04-16T14:42:17.735Z</time></trkpt><trkpt lat="40.3892067" lon="8.6329717"><ele>348.66666666666663</ele><time>2026-04-16T14:42:18.735Z</time></trkpt><trkpt lat="40.389115" lon="8.6327817"><ele>345.3333333333333</ele><time>2026-04-16T14:42:19.736Z</time></trkpt><trkpt lat="40.3890167" lon="8.632605"><ele>342.0</ele><time>2026-04-16T14:42:20.736Z</time></trkpt><trkpt lat="40.3889133" lon="8.6324383"><ele>344.3333333333333</ele><time>2026-04-16T14:42:21.736Z</time></trkpt><trkpt lat="40.3888" lon="8.6322917"><ele>346.66666666666663</ele><time>2026-04-16T14:42:22.735Z</time></trkpt><trkpt lat="40.388685" lon="8.632165"><ele>349.0</ele><time>2026-04-16T14:42:23.736Z</time></trkpt><trkpt lat="40.3885683" lon="8.6320417"><ele>347.3333333333333</ele><time>2026-04-16T14:42:24.735Z</time></trkpt><trkpt lat="40.3884417" lon="8.6319183"><ele>345.6666666666667</ele><time>2026-04-16T14:42:25.736Z</time></trkpt><trkpt lat="40.3883083" lon="8.6318083"><ele>344.0</ele><time>2026-04-16T14:42:26.736Z</time></trkpt><trkpt lat="40.3881583" lon="8.6317217"><ele>345.33333333333337</ele><time>2026-04-16T14:42:27.735Z</time></trkpt><trkpt lat="40.38799" lon="8.6316617"><ele>346.6666666666667</ele><time>2026-04-16T14:42:28.736Z</time></trkpt><trkpt lat="40.3878217" lon="8.6316167"><ele>348.0</ele><time>2026-04-16T14:42:29.735Z</time></trkpt><trkpt lat="40.3876517" lon="8.6315783"><ele>348.0</ele><time>2026-04-16T14:42:30.735Z</time></trkpt><trkpt lat="40.3874717" lon="8.6315567"><ele>348.0</ele><time>2026-04-16T14:42:31.736Z</time></trkpt><trkpt lat="40.3872883" lon="8.6315417"><ele>348.0</ele><time>2026-04-16T14:42:32.736Z</time></trkpt><trkpt lat="40.3871067" lon="8.631545"><ele>348.6666666666667</ele><time>2026-04-16T14:42:33.736Z</time></trkpt><trkpt lat="40.3869317" lon="8.6315767"><ele>349.33333333333337</ele><time>2026-04-16T14:42:34.736Z</time></trkpt><trkpt lat="40.386755" lon="8.6316333"><ele>350.0</ele><time>2026-04-16T14:42:35.736Z</time></trkpt><trkpt lat="40.38659" lon="8.6317283"><ele>350.0</ele><time>2026-04-16T14:42:36.735Z</time></trkpt><trkpt lat="40.38644" lon="8.6318617"><ele>350.0</ele><time>2026-04-16T14:42:37.736Z</time></trkpt><trkpt lat="40.3862933" lon="8.6320067"><ele>350.0</ele><time>2026-04-16T14:42:38.736Z</time></trkpt><trkpt lat="40.3861383" lon="8.632135"><ele>349.33333333333337</ele><time>2026-04-16T14:42:39.735Z</time></trkpt><trkpt lat="40.3859633" lon="8.6322383"><ele>348.6666666666667</ele><time>2026-04-16T14:42:40.736Z</time></trkpt><trkpt lat="40.3857883" lon="8.63231"><ele>348.0</ele><time>2026-04-16T14:42:41.735Z</time></trkpt><trkpt lat="40.385605" lon="8.6323633"><ele>348.6666666666667</ele><time>2026-04-16T14:42:42.736Z</time></trkpt><trkpt lat="40.385415" lon="8.632415"><ele>349.33333333333337</ele><time>2026-04-16T14:42:43.736Z</time></trkpt><trkpt lat="40.385225" lon="8.6324733"><ele>350.0</ele><time>2026-04-16T14:42:44.735Z</time></trkpt><trkpt lat="40.38503" lon="8.6325417"><ele>350.0</ele><time>2026-04-16T14:42:45.735Z</time></trkpt><trkpt lat="40.3848333" lon="8.6326033"><ele>350.0</ele><time>2026-04-16T14:42:46.736Z</time></trkpt><trkpt lat="40.38464" lon="8.6326667"><ele>350.0</ele><time>2026-04-16T14:42:47.736Z</time></trkpt><trkpt lat="40.3844483" lon="8.63273"><ele>351.6666666666667</ele><time>2026-04-16T14:42:48.736Z</time></trkpt><trkpt lat="40.3842583" lon="8.6327917"><ele>353.3333333333333</ele><time>2026-04-16T14:42:49.736Z</time></trkpt><trkpt lat="40.38407" lon="8.6328517"><ele>355.0</ele><time>2026-04-16T14:42:50.735Z</time></trkpt><trkpt lat="40.3838817" lon="8.6329133"><ele>356.66666666666663</ele><time>2026-04-16T14:42:51.736Z</time></trkpt><trkpt lat="40.3836983" lon="8.6329733"><ele>358.3333333333333</ele><time>2026-04-16T14:42:52.736Z</time></trkpt><trkpt lat="40.38351" lon="8.63303"><ele>360.0</ele><time>2026-04-16T14:42:53.736Z</time></trkpt><trkpt lat="40.38332" lon="8.6330933"><ele>360.0</ele><time>2026-04-16T14:42:54.735Z</time></trkpt><trkpt lat="40.3831317" lon="8.6331583"><ele>360.0</ele><time>2026-04-16T14:42:55.735Z</time></trkpt><trkpt lat="40.3829417" lon="8.6332317"><ele>360.0</ele><time>2026-04-16T14:42:56.736Z</time></trkpt><trkpt lat="40.3827667" lon="8.63332"><ele>362.0</ele><time>2026-04-16T14:42:57.736Z</time></trkpt><trkpt lat="40.3825967" lon="8.6334283"><ele>364.0</ele><time>2026-04-16T14:42:58.736Z</time></trkpt><trkpt lat="40.3824333" lon="8.6335583"><ele>366.0</ele><time>2026-04-16T14:42:59.735Z</time></trkpt><trkpt lat="40.3822767" lon="8.6337083"><ele>367.0</ele><time>2026-04-16T14:43:00.736Z</time></trkpt><trkpt lat="40.3821333" lon="8.6338617"><ele>368.0</ele><time>2026-04-16T14:43:01.735Z</time></trkpt><trkpt lat="40.3819867" lon="8.6340267"><ele>369.0</ele><time>2026-04-16T14:43:02.736Z</time></trkpt><trkpt lat="40.38184" lon="8.6341933"><ele>369.0</ele><time>2026-04-16T14:43:03.735Z</time></trkpt><trkpt lat="40.3816883" lon="8.6343617"><ele>369.0</ele><time>2026-04-16T14:43:04.736Z</time></trkpt><trkpt lat="40.381535" lon="8.63453"><ele>369.0</ele><time>2026-04-16T14:43:05.736Z</time></trkpt><trkpt lat="40.38138" lon="8.6347017"><ele>370.0</ele><time>2026-04-16T14:43:06.736Z</time></trkpt><trkpt lat="40.38122" lon="8.63487"><ele>371.0</ele><time>2026-04-16T14:43:07.735Z</time></trkpt><trkpt lat="40.3810667" lon="8.6350367"><ele>372.0</ele><time>2026-04-16T14:43:08.736Z</time></trkpt><trkpt lat="40.380915" lon="8.63521"><ele>372.6666666666667</ele><time>2026-04-16T14:43:09.736Z</time></trkpt><trkpt lat="40.3807567" lon="8.6353883"><ele>373.33333333333337</ele><time>2026-04-16T14:43:10.735Z</time></trkpt><trkpt lat="40.3806033" lon="8.6355733"><ele>374.0</ele><time>2026-04-16T14:43:11.735Z</time></trkpt><trkpt lat="40.3804483" lon="8.63576"><ele>374.0</ele><time>2026-04-16T14:43:12.736Z</time></trkpt><trkpt lat="40.3802983" lon="8.6359383"><ele>374.0</ele><time>2026-04-16T14:43:13.736Z</time></trkpt><trkpt lat="40.3801533" lon="8.6361217"><ele>374.0</ele><time>2026-04-16T14:43:14.736Z</time></trkpt><trkpt lat="40.380005" lon="8.6363033"><ele>374.33333333333337</ele><time>2026-04-16T14:43:15.736Z</time></trkpt><trkpt lat="40.3798633" lon="8.6364833"><ele>374.6666666666667</ele><time>2026-04-16T14:43:16.736Z</time></trkpt><trkpt lat="40.379725" lon="8.6366717"><ele>375.0</ele><time>2026-04-16T14:43:17.736Z</time></trkpt><trkpt lat="40.3795833" lon="8.6368783"><ele>374.0</ele><time>2026-04-16T14:43:18.735Z</time></trkpt><trkpt lat="40.3794583" lon="8.6370883"><ele>373.0</ele><time>2026-04-16T14:43:19.736Z</time></trkpt><trkpt lat="40.3793417" lon="8.637305"><ele>372.0</ele><time>2026-04-16T14:43:20.736Z</time></trkpt><trkpt lat="40.379225" lon="8.6375183"><ele>372.0</ele><time>2026-04-16T14:43:21.736Z</time></trkpt><trkpt lat="40.3791067" lon="8.637735"><ele>372.0</ele><time>2026-04-16T14:43:22.735Z</time></trkpt><trkpt lat="40.3789833" lon="8.6379433"><ele>372.0</ele><time>2026-04-16T14:43:23.735Z</time></trkpt><trkpt lat="40.3788617" lon="8.638145"><ele>371.6666666666667</ele><time>2026-04-16T14:43:24.736Z</time></trkpt><trkpt lat="40.3787467" lon="8.6383433"><ele>371.33333333333337</ele><time>2026-04-16T14:43:25.736Z</time></trkpt><trkpt lat="40.378625" lon="8.63853"><ele>371.0</ele><time>2026-04-16T14:43:26.735Z</time></trkpt><trkpt lat="40.3785017" lon="8.6387"><ele>371.0</ele><time>2026-04-16T14:43:27.735Z</time></trkpt><trkpt lat="40.378365" lon="8.6388533"><ele>371.0</ele><time>2026-04-16T14:43:28.736Z</time></trkpt><trkpt lat="40.37821" lon="8.638985"><ele>371.0</ele><time>2026-04-16T14:43:29.736Z</time></trkpt><trkpt lat="40.378045" lon="8.6390983"><ele>368.33333333333337</ele><time>2026-04-16T14:43:30.736Z</time></trkpt><trkpt lat="40.377865" lon="8.6391883"><ele>365.6666666666667</ele><time>2026-04-16T14:43:31.736Z</time></trkpt><trkpt lat="40.3776867" lon="8.6392517"><ele>363.0</ele><time>2026-04-16T14:43:32.736Z</time></trkpt><trkpt lat="40.3775033" lon="8.63929"><ele>363.0</ele><time>2026-04-16T14:43:33.735Z</time></trkpt><trkpt lat="40.3773083" lon="8.6392983"><ele>363.0</ele><time>2026-04-16T14:43:34.736Z</time></trkpt><trkpt lat="40.377115" lon="8.6392817"><ele>363.0</ele><time>2026-04-16T14:43:35.736Z</time></trkpt><trkpt lat="40.3769233" lon="8.639235"><ele>365.6666666666667</ele><time>2026-04-16T14:43:36.736Z</time></trkpt><trkpt lat="40.3767383" lon="8.6391617"><ele>368.33333333333337</ele><time>2026-04-16T14:43:37.735Z</time></trkpt><trkpt lat="40.3765667" lon="8.6390533"><ele>371.0</ele><time>2026-04-16T14:43:38.735Z</time></trkpt><trkpt lat="40.3764117" lon="8.6389283"><ele>370.6666666666667</ele><time>2026-04-16T14:43:39.735Z</time></trkpt><trkpt lat="40.376265" lon="8.63878"><ele>370.3333333333333</ele><time>2026-04-16T14:43:40.735Z</time></trkpt><trkpt lat="40.3761283" lon="8.63861"><ele>370.0</ele><time>2026-04-16T14:43:41.734Z</time></trkpt><trkpt lat="40.3760067" lon="8.638425"><ele>370.0</ele><time>2026-04-16T14:43:42.735Z</time></trkpt><trkpt lat="40.3758983" lon="8.6382217"><ele>370.0</ele><time>2026-04-16T14:43:43.735Z</time></trkpt><trkpt lat="40.3758117" lon="8.6379933"><ele>370.0</ele><time>2026-04-16T14:43:44.735Z</time></trkpt><trkpt lat="40.3757383" lon="8.6377483"><ele>367.0</ele><time>2026-04-16T14:43:45.734Z</time></trkpt><trkpt lat="40.37568" lon="8.6375"><ele>364.0</ele><time>2026-04-16T14:43:46.735Z</time></trkpt><trkpt lat="40.3756317" lon="8.6372333"><ele>361.0</ele><time>2026-04-16T14:43:47.734Z</time></trkpt><trkpt lat="40.3755783" lon="8.63697"><ele>363.66666666666663</ele><time>2026-04-16T14:43:48.734Z</time></trkpt><trkpt lat="40.3755233" lon="8.6367083"><ele>366.3333333333333</ele><time>2026-04-16T14:43:49.735Z</time></trkpt><trkpt lat="40.37546" lon="8.63645"><ele>369.0</ele><time>2026-04-16T14:43:50.735Z</time></trkpt><trkpt lat="40.3754033" lon="8.636185"><ele>367.6666666666667</ele><time>2026-04-16T14:43:51.734Z</time></trkpt><trkpt lat="40.3753417" lon="8.6359233"><ele>366.33333333333337</ele><time>2026-04-16T14:43:52.735Z</time></trkpt><trkpt lat="40.3752783" lon="8.635665"><ele>365.0</ele><time>2026-04-16T14:43:53.735Z</time></trkpt><trkpt lat="40.3752133" lon="8.6354"><ele>363.0</ele><time>2026-04-16T14:43:54.734Z</time></trkpt><trkpt lat="40.375155" lon="8.635135"><ele>361.0</ele><time>2026-04-16T14:43:55.735Z</time></trkpt><trkpt lat="40.375095" lon="8.63487"><ele>359.0</ele><time>2026-04-16T14:43:56.735Z</time></trkpt><trkpt lat="40.3750333" lon="8.63461"><ele>356.33333333333337</ele><time>2026-04-16T14:43:57.735Z</time></trkpt><trkpt lat="40.3749717" lon="8.6343533"><ele>353.6666666666667</ele><time>2026-04-16T14:43:58.735Z</time></trkpt><trkpt lat="40.374915" lon="8.6340983"><ele>351.0</ele><time>2026-04-16T14:43:59.735Z</time></trkpt><trkpt lat="40.3748533" lon="8.6338433"><ele>349.3333333333333</ele><time>2026-04-16T14:44:00.735Z</time></trkpt><trkpt lat="40.3747983" lon="8.6335867"><ele>347.66666666666663</ele><time>2026-04-16T14:44:01.735Z</time></trkpt><trkpt lat="40.3747533" lon="8.633335"><ele>346.0</ele><time>2026-04-16T14:44:02.735Z</time></trkpt><trkpt lat="40.3747283" lon="8.6330783"><ele>346.0</ele><time>2026-04-16T14:44:03.735Z</time></trkpt><trkpt lat="40.37472" lon="8.6328217"><ele>346.0</ele><time>2026-04-16T14:44:04.735Z</time></trkpt><trkpt lat="40.374715" lon="8.6325633"><ele>346.0</ele><time>2026-04-16T14:44:05.734Z</time></trkpt><trkpt lat="40.374715" lon="8.6323"><ele>343.66666666666663</ele><time>2026-04-16T14:44:06.735Z</time></trkpt><trkpt lat="40.37472" lon="8.6320433"><ele>341.3333333333333</ele><time>2026-04-16T14:44:07.735Z</time></trkpt><trkpt lat="40.3747133" lon="8.63179"><ele>339.0</ele><time>2026-04-16T14:44:08.734Z</time></trkpt><trkpt lat="40.374705" lon="8.6315333"><ele>338.3333333333333</ele><time>2026-04-16T14:44:09.734Z</time></trkpt><trkpt lat="40.3747083" lon="8.6312733"><ele>337.66666666666663</ele><time>2026-04-16T14:44:10.734Z</time></trkpt><trkpt lat="40.3747133" lon="8.6310233"><ele>337.0</ele><time>2026-04-16T14:44:11.735Z</time></trkpt><trkpt lat="40.374735" lon="8.6307717"><ele>336.66666666666663</ele><time>2026-04-16T14:44:12.735Z</time></trkpt><trkpt lat="40.37475" lon="8.6305383"><ele>336.3333333333333</ele><time>2026-04-16T14:44:13.735Z</time></trkpt><trkpt lat="40.374755" lon="8.6303217"><ele>336.0</ele><time>2026-04-16T14:44:14.735Z</time></trkpt><trkpt lat="40.3747433" lon="8.63013"><ele>336.25</ele><time>2026-04-16T14:44:15.735Z</time></trkpt><trkpt lat="40.3747083" lon="8.6299633"><ele>336.5</ele><time>2026-04-16T14:44:16.734Z</time></trkpt><trkpt lat="40.37464" lon="8.6298233"><ele>336.75</ele><time>2026-04-16T14:44:17.735Z</time></trkpt><trkpt lat="40.3745433" lon="8.6297083"><ele>337.0</ele><time>2026-04-16T14:44:18.735Z</time></trkpt><trkpt lat="40.374425" lon="8.6296283"><ele>337.0</ele><time>2026-04-16T14:44:19.735Z</time></trkpt><trkpt lat="40.3743017" lon="8.629595"><ele>337.0</ele><time>2026-04-16T14:44:20.735Z</time></trkpt><trkpt lat="40.3741833" lon="8.6296067"><ele>337.0</ele><time>2026-04-16T14:44:21.734Z</time></trkpt><trkpt lat="40.3740717" lon="8.6296583"><ele>337.0</ele><time>2026-04-16T14:44:22.735Z</time></trkpt><trkpt lat="40.37397" lon="8.62975"><ele>337.0</ele><time>2026-04-16T14:44:23.734Z</time></trkpt><trkpt lat="40.37387" lon="8.6298817"><ele>337.0</ele><time>2026-04-16T14:44:24.734Z</time></trkpt><trkpt lat="40.373755" lon="8.6300283"><ele>337.0</ele><time>2026-04-16T14:44:25.734Z</time></trkpt><trkpt lat="40.3736267" lon="8.6301733"><ele>336.0</ele><time>2026-04-16T14:44:26.734Z</time></trkpt><trkpt lat="40.373485" lon="8.6303333"><ele>335.0</ele><time>2026-04-16T14:44:27.734Z</time></trkpt><trkpt lat="40.3733517" lon="8.6304817"><ele>334.0</ele><time>2026-04-16T14:44:28.735Z</time></trkpt><trkpt lat="40.373205" lon="8.6306233"><ele>334.0</ele><time>2026-04-16T14:44:29.735Z</time></trkpt><trkpt lat="40.3730317" lon="8.6307633"><ele>334.0</ele><time>2026-04-16T14:44:30.735Z</time></trkpt><trkpt lat="40.3728683" lon="8.6308867"><ele>334.0</ele><time>2026-04-16T14:44:31.735Z</time></trkpt><trkpt lat="40.3726933" lon="8.63101"><ele>333.66666666666663</ele><time>2026-04-16T14:44:32.735Z</time></trkpt><trkpt lat="40.3725117" lon="8.6311283"><ele>333.3333333333333</ele><time>2026-04-16T14:44:33.734Z</time></trkpt><trkpt lat="40.37234" lon="8.631235"><ele>333.0</ele><time>2026-04-16T14:44:34.734Z</time></trkpt><trkpt lat="40.372175" lon="8.63134"><ele>327.6666666666667</ele><time>2026-04-16T14:44:35.734Z</time></trkpt><trkpt lat="40.3720333" lon="8.6314583"><ele>322.33333333333337</ele><time>2026-04-16T14:44:36.735Z</time></trkpt><trkpt lat="40.3719183" lon="8.6316017"><ele>317.0</ele><time>2026-04-16T14:44:37.735Z</time></trkpt><trkpt lat="40.3718283" lon="8.6317817"><ele>316.0</ele><time>2026-04-16T14:44:38.734Z</time></trkpt><trkpt lat="40.3717717" lon="8.6319883"><ele>315.0</ele><time>2026-04-16T14:44:39.735Z</time></trkpt><trkpt lat="40.3717483" lon="8.632205"><ele>314.0</ele><time>2026-04-16T14:44:40.735Z</time></trkpt><trkpt lat="40.3717583" lon="8.6324383"><ele>314.0</ele><time>2026-04-16T14:44:41.734Z</time></trkpt><trkpt lat="40.37181" lon="8.6326633"><ele>314.0</ele><time>2026-04-16T14:44:42.735Z</time></trkpt><trkpt lat="40.3718883" lon="8.632875"><ele>314.0</ele><time>2026-04-16T14:44:43.734Z</time></trkpt><trkpt lat="40.3719783" lon="8.6330967"><ele>309.6666666666667</ele><time>2026-04-16T14:44:44.735Z</time></trkpt><trkpt lat="40.372055" lon="8.633325"><ele>305.3333333333333</ele><time>2026-04-16T14:44:45.735Z</time></trkpt><trkpt lat="40.37212" lon="8.6335567"><ele>301.0</ele><time>2026-04-16T14:44:46.734Z</time></trkpt><trkpt lat="40.3721483" lon="8.63379"><ele>298.3333333333333</ele><time>2026-04-16T14:44:47.734Z</time></trkpt><trkpt lat="40.3721467" lon="8.6340333"><ele>295.6666666666667</ele><time>2026-04-16T14:44:48.734Z</time></trkpt><trkpt lat="40.3721283" lon="8.6342767"><ele>293.0</ele><time>2026-04-16T14:44:49.734Z</time></trkpt><trkpt lat="40.3721117" lon="8.6345167"><ele>293.0</ele><time>2026-04-16T14:44:50.735Z</time></trkpt><trkpt lat="40.3720867" lon="8.6347517"><ele>293.0</ele><time>2026-04-16T14:44:51.734Z</time></trkpt><trkpt lat="40.37205" lon="8.634975"><ele>293.0</ele><time>2026-04-16T14:44:52.735Z</time></trkpt><trkpt lat="40.37199" lon="8.6351817"><ele>296.0</ele><time>2026-04-16T14:44:53.734Z</time></trkpt><trkpt lat="40.3719" lon="8.635385"><ele>299.0</ele><time>2026-04-16T14:44:54.735Z</time></trkpt><trkpt lat="40.371795" lon="8.63557"><ele>302.0</ele><time>2026-04-16T14:44:55.734Z</time></trkpt><trkpt lat="40.3716783" lon="8.63572"><ele>302.0</ele><time>2026-04-16T14:44:56.735Z</time></trkpt><trkpt lat="40.3715367" lon="8.6358267"><ele>302.0</ele><time>2026-04-16T14:44:57.735Z</time></trkpt><trkpt lat="40.3713733" lon="8.6359"><ele>302.0</ele><time>2026-04-16T14:44:58.735Z</time></trkpt><trkpt lat="40.3711967" lon="8.6359483"><ele>298.0</ele><time>2026-04-16T14:44:59.735Z</time></trkpt><trkpt lat="40.3710117" lon="8.635985"><ele>294.0</ele><time>2026-04-16T14:45:00.735Z</time></trkpt><trkpt lat="40.37084" lon="8.63602"><ele>290.0</ele><time>2026-04-16T14:45:01.734Z</time></trkpt><trkpt lat="40.3706833" lon="8.6360717"><ele>288.6666666666667</ele><time>2026-04-16T14:45:02.735Z</time></trkpt><trkpt lat="40.3705383" lon="8.6361583"><ele>287.3333333333333</ele><time>2026-04-16T14:45:03.735Z</time></trkpt><trkpt lat="40.3704067" lon="8.636285"><ele>286.0</ele><time>2026-04-16T14:45:04.734Z</time></trkpt><trkpt lat="40.3702933" lon="8.636455"><ele>286.0</ele><time>2026-04-16T14:45:05.735Z</time></trkpt><trkpt lat="40.3702083" lon="8.6366517"><ele>286.0</ele><time>2026-04-16T14:45:06.734Z</time></trkpt><trkpt lat="40.370135" lon="8.6368483"><ele>286.0</ele><time>2026-04-16T14:45:07.735Z</time></trkpt><trkpt lat="40.3700517" lon="8.6370217"><ele>286.5</ele><time>2026-04-16T14:45:08.735Z</time></trkpt><trkpt lat="40.369965" lon="8.6371683"><ele>287.0</ele><time>2026-04-16T14:45:09.735Z</time></trkpt><trkpt lat="40.3698683" lon="8.6372817"><ele>287.5</ele><time>2026-04-16T14:45:10.735Z</time></trkpt><trkpt lat="40.36975" lon="8.6373533"><ele>288.0</ele><time>2026-04-16T14:45:11.734Z</time></trkpt><trkpt lat="40.3696167" lon="8.6373717"><ele>289.25</ele><time>2026-04-16T14:45:12.734Z</time></trkpt><trkpt lat="40.3694767" lon="8.6373667"><ele>290.5</ele><time>2026-04-16T14:45:13.735Z</time></trkpt><trkpt lat="40.3693517" lon="8.6373317"><ele>291.75</ele><time>2026-04-16T14:45:14.735Z</time></trkpt><trkpt lat="40.3692533" lon="8.6372583"><ele>293.0</ele><time>2026-04-16T14:45:15.734Z</time></trkpt><trkpt lat="40.3691883" lon="8.637125"><ele>293.25</ele><time>2026-04-16T14:45:16.735Z</time></trkpt><trkpt lat="40.3691667" lon="8.6369617"><ele>293.5</ele><time>2026-04-16T14:45:17.734Z</time></trkpt><trkpt lat="40.369165" lon="8.636785"><ele>293.75</ele><time>2026-04-16T14:45:18.735Z</time></trkpt><trkpt lat="40.3691667" lon="8.6366"><ele>294.0</ele><time>2026-04-16T14:45:19.734Z</time></trkpt><trkpt lat="40.369165" lon="8.6363983"><ele>294.0</ele><time>2026-04-16T14:45:20.735Z</time></trkpt><trkpt lat="40.36915" lon="8.6361917"><ele>294.0</ele><time>2026-04-16T14:45:21.735Z</time></trkpt><trkpt lat="40.3691167" lon="8.63597"><ele>294.0</ele><time>2026-04-16T14:45:22.735Z</time></trkpt><trkpt lat="40.3690667" lon="8.6357483"><ele>292.6666666666667</ele><time>2026-04-16T14:45:23.735Z</time></trkpt><trkpt lat="40.3689783" lon="8.6355583"><ele>291.33333333333337</ele><time>2026-04-16T14:45:24.735Z</time></trkpt><trkpt lat="40.3688733" lon="8.6354067"><ele>290.0</ele><time>2026-04-16T14:45:25.735Z</time></trkpt><trkpt lat="40.36879" lon="8.6352717"><ele>290.5</ele><time>2026-04-16T14:45:26.734Z</time></trkpt><trkpt lat="40.368765" lon="8.6351133"><ele>291.0</ele><time>2026-04-16T14:45:27.734Z</time></trkpt><trkpt lat="40.3687883" lon="8.63495"><ele>291.5</ele><time>2026-04-16T14:45:28.735Z</time></trkpt><trkpt lat="40.3688567" lon="8.6348"><ele>292.0</ele><time>2026-04-16T14:45:29.735Z</time></trkpt><trkpt lat="40.3689617" lon="8.6346633"><ele>292.0</ele><time>2026-04-16T14:45:30.735Z</time></trkpt><trkpt lat="40.3690667" lon="8.6345317"><ele>292.0</ele><time>2026-04-16T14:45:31.735Z</time></trkpt><trkpt lat="40.369165" lon="8.6343883"><ele>292.0</ele><time>2026-04-16T14:45:32.735Z</time></trkpt><trkpt lat="40.3692233" lon="8.634215"><ele>292.0</ele><time>2026-04-16T14:45:33.734Z</time></trkpt><trkpt lat="40.3692283" lon="8.6340267"><ele>292.5</ele><time>2026-04-16T14:45:34.735Z</time></trkpt><trkpt lat="40.3691983" lon="8.6338517"><ele>293.0</ele><time>2026-04-16T14:45:35.734Z</time></trkpt><trkpt lat="40.3691233" lon="8.63369"><ele>293.5</ele><time>2026-04-16T14:45:36.735Z</time></trkpt><trkpt lat="40.3690283" lon="8.6335667"><ele>294.0</ele><time>2026-04-16T14:45:37.734Z</time></trkpt><trkpt lat="40.3688917" lon="8.6334817"><ele>298.6666666666667</ele><time>2026-04-16T14:45:38.734Z</time></trkpt><trkpt lat="40.3687483" lon="8.633415"><ele>303.33333333333337</ele><time>2026-04-16T14:45:39.734Z</time></trkpt><trkpt lat="40.3686017" lon="8.63335"><ele>308.0</ele><time>2026-04-16T14:45:40.735Z</time></trkpt><trkpt lat="40.36845" lon="8.6332733"><ele>308.0</ele><time>2026-04-16T14:45:41.734Z</time></trkpt><trkpt lat="40.3682967" lon="8.6331883"><ele>308.0</ele><time>2026-04-16T14:45:42.735Z</time></trkpt><trkpt lat="40.3681367" lon="8.6330883"><ele>308.0</ele><time>2026-04-16T14:45:43.735Z</time></trkpt><trkpt lat="40.3679783" lon="8.6329833"><ele>310.6666666666667</ele><time>2026-04-16T14:45:44.734Z</time></trkpt><trkpt lat="40.3678283" lon="8.632855"><ele>313.3333333333333</ele><time>2026-04-16T14:45:45.735Z</time></trkpt><trkpt lat="40.367685" lon="8.632705"><ele>316.0</ele><time>2026-04-16T14:45:46.734Z</time></trkpt><trkpt lat="40.36757" lon="8.6325417"><ele>316.0</ele><time>2026-04-16T14:45:47.734Z</time></trkpt><trkpt lat="40.3674917" lon="8.6323533"><ele>316.0</ele><time>2026-04-16T14:45:48.735Z</time></trkpt><trkpt lat="40.3674367" lon="8.632165"><ele>316.0</ele><time>2026-04-16T14:45:49.735Z</time></trkpt><trkpt lat="40.3673817" lon="8.6319933"><ele>314.75</ele><time>2026-04-16T14:45:50.735Z</time></trkpt><trkpt lat="40.3673017" lon="8.6318433"><ele>313.5</ele><time>2026-04-16T14:45:51.735Z</time></trkpt><trkpt lat="40.367185" lon="8.6317333"><ele>312.25</ele><time>2026-04-16T14:45:52.735Z</time></trkpt><trkpt lat="40.3670367" lon="8.631685"><ele>311.0</ele><time>2026-04-16T14:45:53.734Z</time></trkpt><trkpt lat="40.36688" lon="8.6316867"><ele>315.0</ele><time>2026-04-16T14:45:54.734Z</time></trkpt><trkpt lat="40.3667217" lon="8.6316917"><ele>319.0</ele><time>2026-04-16T14:45:55.734Z</time></trkpt><trkpt lat="40.3665617" lon="8.6316783"><ele>323.0</ele><time>2026-04-16T14:45:56.735Z</time></trkpt><trkpt lat="40.3664083" lon="8.6316483"><ele>325.0</ele><time>2026-04-16T14:45:57.734Z</time></trkpt><trkpt lat="40.3662383" lon="8.6316433"><ele>327.0</ele><time>2026-04-16T14:45:58.735Z</time></trkpt><trkpt lat="40.3660683" lon="8.63164"><ele>329.0</ele><time>2026-04-16T14:45:59.735Z</time></trkpt><trkpt lat="40.3658983" lon="8.6316283"><ele>329.0</ele><time>2026-04-16T14:46:00.734Z</time></trkpt><trkpt lat="40.3657267" lon="8.6316033"><ele>329.0</ele><time>2026-04-16T14:46:01.734Z</time></trkpt><trkpt lat="40.3655567" lon="8.6315583"><ele>329.0</ele><time>2026-04-16T14:46:02.735Z</time></trkpt><trkpt lat="40.3653917" lon="8.6314783"><ele>330.33333333333337</ele><time>2026-04-16T14:46:03.734Z</time></trkpt><trkpt lat="40.36523" lon="8.6313817"><ele>331.6666666666667</ele><time>2026-04-16T14:46:04.735Z</time></trkpt><trkpt lat="40.3650667" lon="8.6312767"><ele>333.0</ele><time>2026-04-16T14:46:05.734Z</time></trkpt><trkpt lat="40.3649067" lon="8.63117"><ele>332.6666666666667</ele><time>2026-04-16T14:46:06.735Z</time></trkpt><trkpt lat="40.36475" lon="8.63105"><ele>332.33333333333337</ele><time>2026-04-16T14:46:07.734Z</time></trkpt><trkpt lat="40.364605" lon="8.6309017"><ele>332.0</ele><time>2026-04-16T14:46:08.734Z</time></trkpt><trkpt lat="40.364465" lon="8.6307367"><ele>332.0</ele><time>2026-04-16T14:46:09.735Z</time></trkpt><trkpt lat="40.3643383" lon="8.6305483"><ele>332.0</ele><time>2026-04-16T14:46:10.735Z</time></trkpt><trkpt lat="40.364225" lon="8.630345"><ele>332.0</ele><time>2026-04-16T14:46:11.735Z</time></trkpt><trkpt lat="40.36412" lon="8.63013"><ele>331.6666666666667</ele><time>2026-04-16T14:46:12.735Z</time></trkpt><trkpt lat="40.3640083" lon="8.6299083"><ele>331.3333333333333</ele><time>2026-04-16T14:46:13.735Z</time></trkpt><trkpt lat="40.3639" lon="8.6296817"><ele>331.0</ele><time>2026-04-16T14:46:14.735Z</time></trkpt><trkpt lat="40.3637833" lon="8.62946"><ele>329.3333333333333</ele><time>2026-04-16T14:46:15.734Z</time></trkpt><trkpt lat="40.363655" lon="8.6292433"><ele>327.6666666666667</ele><time>2026-04-16T14:46:16.735Z</time></trkpt><trkpt lat="40.3635367" lon="8.62902"><ele>326.0</ele><time>2026-04-16T14:46:17.735Z</time></trkpt><trkpt lat="40.3634217" lon="8.6287933"><ele>325.6666666666667</ele><time>2026-04-16T14:46:18.735Z</time></trkpt><trkpt lat="40.3633033" lon="8.6285817"><ele>325.3333333333333</ele><time>2026-04-16T14:46:19.735Z</time></trkpt><trkpt lat="40.363165" lon="8.6283833"><ele>325.0</ele><time>2026-04-16T14:46:20.734Z</time></trkpt><trkpt lat="40.363005" lon="8.6282067"><ele>323.0</ele><time>2026-04-16T14:46:21.734Z</time></trkpt><trkpt lat="40.362835" lon="8.6280567"><ele>321.0</ele><time>2026-04-16T14:46:22.735Z</time></trkpt><trkpt lat="40.36266" lon="8.6279267"><ele>319.0</ele><time>2026-04-16T14:46:23.735Z</time></trkpt><trkpt lat="40.362475" lon="8.6278217"><ele>318.66666666666663</ele><time>2026-04-16T14:46:24.735Z</time></trkpt><trkpt lat="40.3622767" lon="8.627735"><ele>318.3333333333333</ele><time>2026-04-16T14:46:25.735Z</time></trkpt><trkpt lat="40.3620717" lon="8.6276867"><ele>318.0</ele><time>2026-04-16T14:46:26.735Z</time></trkpt><trkpt lat="40.36186" lon="8.62767"><ele>316.6666666666667</ele><time>2026-04-16T14:46:27.735Z</time></trkpt><trkpt lat="40.36165" lon="8.627675"><ele>315.33333333333337</ele><time>2026-04-16T14:46:28.734Z</time></trkpt><trkpt lat="40.3614433" lon="8.6276983"><ele>314.0</ele><time>2026-04-16T14:46:29.734Z</time></trkpt><trkpt lat="40.36125" lon="8.627715"><ele>312.6666666666667</ele><time>2026-04-16T14:46:30.735Z</time></trkpt><trkpt lat="40.3610667" lon="8.6277017"><ele>311.3333333333333</ele><time>2026-04-16T14:46:31.735Z</time></trkpt><trkpt lat="40.360895" lon="8.6276583"><ele>310.0</ele><time>2026-04-16T14:46:32.734Z</time></trkpt><trkpt lat="40.3607283" lon="8.627595"><ele>310.0</ele><time>2026-04-16T14:46:33.735Z</time></trkpt><trkpt lat="40.3605717" lon="8.62749"><ele>310.0</ele><time>2026-04-16T14:46:34.735Z</time></trkpt><trkpt lat="40.3604233" lon="8.6273533"><ele>310.0</ele><time>2026-04-16T14:46:35.735Z</time></trkpt><trkpt lat="40.3602883" lon="8.6271817"><ele>308.66666666666663</ele><time>2026-04-16T14:46:36.735Z</time></trkpt><trkpt lat="40.3601783" lon="8.6269917"><ele>307.3333333333333</ele><time>2026-04-16T14:46:37.735Z</time></trkpt><trkpt lat="40.3601033" lon="8.6267667"><ele>306.0</ele><time>2026-04-16T14:46:38.735Z</time></trkpt><trkpt lat="40.3600417" lon="8.6265383"><ele>305.3333333333333</ele><time>2026-04-16T14:46:39.735Z</time></trkpt><trkpt lat="40.36" lon="8.6262917"><ele>304.66666666666663</ele><time>2026-04-16T14:46:40.734Z</time></trkpt><trkpt lat="40.3599683" lon="8.626035"><ele>304.0</ele><time>2026-04-16T14:46:41.734Z</time></trkpt><trkpt lat="40.3599383" lon="8.6257783"><ele>303.0</ele><time>2026-04-16T14:46:42.735Z</time></trkpt><trkpt lat="40.3599033" lon="8.6255183"><ele>302.0</ele><time>2026-04-16T14:46:43.734Z</time></trkpt><trkpt lat="40.359865" lon="8.625255"><ele>301.0</ele><time>2026-04-16T14:46:44.735Z</time></trkpt><trkpt lat="40.3598317" lon="8.624995"><ele>300.3333333333333</ele><time>2026-04-16T14:46:45.735Z</time></trkpt><trkpt lat="40.3597933" lon="8.62475"><ele>299.6666666666667</ele><time>2026-04-16T14:46:46.734Z</time></trkpt><trkpt lat="40.3597567" lon="8.6245117"><ele>299.0</ele><time>2026-04-16T14:46:47.734Z</time></trkpt><trkpt lat="40.35972" lon="8.624255"><ele>298.33333333333337</ele><time>2026-04-16T14:46:48.733Z</time></trkpt><trkpt lat="40.35967" lon="8.6240017"><ele>297.6666666666667</ele><time>2026-04-16T14:46:49.733Z</time></trkpt><trkpt lat="40.359615" lon="8.62375"><ele>297.0</ele><time>2026-04-16T14:46:50.733Z</time></trkpt><trkpt lat="40.3595467" lon="8.6234967"><ele>295.3333333333333</ele><time>2026-04-16T14:46:51.734Z</time></trkpt><trkpt lat="40.3594417" lon="8.6232867"><ele>293.66666666666663</ele><time>2026-04-16T14:46:52.734Z</time></trkpt><trkpt lat="40.35932" lon="8.623085"><ele>292.0</ele><time>2026-04-16T14:46:53.734Z</time></trkpt><trkpt lat="40.359185" lon="8.62289"><ele>293.0</ele><time>2026-04-16T14:46:54.734Z</time></trkpt><trkpt lat="40.3590383" lon="8.6226967"><ele>294.0</ele><time>2026-04-16T14:46:55.734Z</time></trkpt><trkpt lat="40.3588883" lon="8.6225117"><ele>295.0</ele><time>2026-04-16T14:46:56.734Z</time></trkpt><trkpt lat="40.3587333" lon="8.6223383"><ele>293.66666666666663</ele><time>2026-04-16T14:46:57.734Z</time></trkpt><trkpt lat="40.358585" lon="8.6221617"><ele>292.3333333333333</ele><time>2026-04-16T14:46:58.734Z</time></trkpt><trkpt lat="40.3584333" lon="8.6219883"><ele>291.0</ele><time>2026-04-16T14:46:59.734Z</time></trkpt><trkpt lat="40.3582883" lon="8.6218133"><ele>291.0</ele><time>2026-04-16T14:47:00.733Z</time></trkpt><trkpt lat="40.3581383" lon="8.6216367"><ele>291.0</ele><time>2026-04-16T14:47:01.734Z</time></trkpt><trkpt lat="40.3579933" lon="8.6214567"><ele>291.0</ele><time>2026-04-16T14:47:02.733Z</time></trkpt><trkpt lat="40.3578467" lon="8.62128"><ele>288.3333333333333</ele><time>2026-04-16T14:47:03.733Z</time></trkpt><trkpt lat="40.3576933" lon="8.6211017"><ele>285.66666666666663</ele><time>2026-04-16T14:47:04.734Z</time></trkpt><trkpt lat="40.35754" lon="8.6209233"><ele>283.0</ele><time>2026-04-16T14:47:05.733Z</time></trkpt><trkpt lat="40.3573883" lon="8.62074"><ele>283.0</ele><time>2026-04-16T14:47:06.733Z</time></trkpt><trkpt lat="40.3572417" lon="8.6205633"><ele>283.0</ele><time>2026-04-16T14:47:07.734Z</time></trkpt><trkpt lat="40.3570933" lon="8.62039"><ele>283.0</ele><time>2026-04-16T14:47:08.733Z</time></trkpt><trkpt lat="40.3569467" lon="8.6202167"><ele>283.0</ele><time>2026-04-16T14:47:09.734Z</time></trkpt><trkpt lat="40.356805" lon="8.62004"><ele>283.0</ele><time>2026-04-16T14:47:10.734Z</time></trkpt><trkpt lat="40.3566767" lon="8.619855"><ele>283.0</ele><time>2026-04-16T14:47:11.733Z</time></trkpt><trkpt lat="40.35656" lon="8.6196533"><ele>283.0</ele><time>2026-04-16T14:47:12.734Z</time></trkpt><trkpt lat="40.3564683" lon="8.619435"><ele>283.0</ele><time>2026-04-16T14:47:13.733Z</time></trkpt><trkpt lat="40.3563933" lon="8.6192"><ele>283.0</ele><time>2026-04-16T14:47:14.734Z</time></trkpt><trkpt lat="40.35635" lon="8.61895"><ele>283.0</ele><time>2026-04-16T14:47:15.734Z</time></trkpt><trkpt lat="40.3563183" lon="8.6186867"><ele>283.0</ele><time>2026-04-16T14:47:16.734Z</time></trkpt><trkpt lat="40.3562967" lon="8.618415"><ele>283.0</ele><time>2026-04-16T14:47:17.734Z</time></trkpt><trkpt lat="40.3562683" lon="8.618155"><ele>280.66666666666663</ele><time>2026-04-16T14:47:18.733Z</time></trkpt><trkpt lat="40.3562333" lon="8.617915"><ele>278.3333333333333</ele><time>2026-04-16T14:47:19.733Z</time></trkpt><trkpt lat="40.356185" lon="8.6176917"><ele>276.0</ele><time>2026-04-16T14:47:20.734Z</time></trkpt><trkpt lat="40.3561167" lon="8.61747"><ele>274.6666666666667</ele><time>2026-04-16T14:47:21.734Z</time></trkpt><trkpt lat="40.3560283" lon="8.6172733"><ele>273.33333333333337</ele><time>2026-04-16T14:47:22.734Z</time></trkpt><trkpt lat="40.3559067" lon="8.6170983"><ele>272.0</ele><time>2026-04-16T14:47:23.734Z</time></trkpt><trkpt lat="40.3557567" lon="8.616945"><ele>267.33333333333337</ele><time>2026-04-16T14:47:24.734Z</time></trkpt><trkpt lat="40.3555817" lon="8.61682"><ele>262.6666666666667</ele><time>2026-04-16T14:47:25.733Z</time></trkpt><trkpt lat="40.3554" lon="8.6167167"><ele>258.0</ele><time>2026-04-16T14:47:26.734Z</time></trkpt><trkpt lat="40.3552017" lon="8.616645"><ele>258.0</ele><time>2026-04-16T14:47:27.734Z</time></trkpt><trkpt lat="40.3550033" lon="8.6165833"><ele>258.0</ele><time>2026-04-16T14:47:28.734Z</time></trkpt><trkpt lat="40.3548067" lon="8.616525"><ele>258.0</ele><time>2026-04-16T14:47:29.734Z</time></trkpt><trkpt lat="40.35461" lon="8.6164667"><ele>256.6666666666667</ele><time>2026-04-16T14:47:30.733Z</time></trkpt><trkpt lat="40.3544183" lon="8.6164483"><ele>255.33333333333334</ele><time>2026-04-16T14:47:31.733Z</time></trkpt><trkpt lat="40.354225" lon="8.6164617"><ele>254.0</ele><time>2026-04-16T14:47:32.733Z</time></trkpt><trkpt lat="40.354035" lon="8.6165117"><ele>251.0</ele><time>2026-04-16T14:47:33.734Z</time></trkpt><trkpt lat="40.3538483" lon="8.6165967"><ele>248.0</ele><time>2026-04-16T14:47:34.733Z</time></trkpt><trkpt lat="40.3536617" lon="8.616695"><ele>245.0</ele><time>2026-04-16T14:47:35.733Z</time></trkpt><trkpt lat="40.353475" lon="8.6168017"><ele>245.0</ele><time>2026-04-16T14:47:36.734Z</time></trkpt><trkpt lat="40.3532917" lon="8.6169"><ele>245.0</ele><time>2026-04-16T14:47:37.734Z</time></trkpt><trkpt lat="40.3531133" lon="8.616995"><ele>245.0</ele><time>2026-04-16T14:47:38.733Z</time></trkpt><trkpt lat="40.3529333" lon="8.61707"><ele>244.33333333333334</ele><time>2026-04-16T14:47:39.733Z</time></trkpt><trkpt lat="40.3527417" lon="8.6171167"><ele>243.66666666666669</ele><time>2026-04-16T14:47:40.734Z</time></trkpt><trkpt lat="40.352555" lon="8.6171267"><ele>243.0</ele><time>2026-04-16T14:47:41.734Z</time></trkpt><trkpt lat="40.352375" lon="8.617095"><ele>240.66666666666669</ele><time>2026-04-16T14:47:42.734Z</time></trkpt><trkpt lat="40.3521983" lon="8.6170267"><ele>238.33333333333334</ele><time>2026-04-16T14:47:43.734Z</time></trkpt><trkpt lat="40.35203" lon="8.6169233"><ele>236.0</ele><time>2026-04-16T14:47:44.734Z</time></trkpt><trkpt lat="40.3518733" lon="8.6167733"><ele>235.66666666666669</ele><time>2026-04-16T14:47:45.734Z</time></trkpt><trkpt lat="40.3517167" lon="8.6166067"><ele>235.33333333333331</ele><time>2026-04-16T14:47:46.734Z</time></trkpt><trkpt lat="40.351555" lon="8.6164383"><ele>235.0</ele><time>2026-04-16T14:47:47.734Z</time></trkpt><trkpt lat="40.3513933" lon="8.61626"><ele>234.66666666666666</ele><time>2026-04-16T14:47:48.734Z</time></trkpt><trkpt lat="40.3512283" lon="8.6160867"><ele>234.33333333333331</ele><time>2026-04-16T14:47:49.733Z</time></trkpt><trkpt lat="40.35106" lon="8.6159167"><ele>234.0</ele><time>2026-04-16T14:47:50.734Z</time></trkpt><trkpt lat="40.35089" lon="8.6157367"><ele>234.0</ele><time>2026-04-16T14:47:51.734Z</time></trkpt><trkpt lat="40.3507217" lon="8.6155633"><ele>234.0</ele><time>2026-04-16T14:47:52.734Z</time></trkpt><trkpt lat="40.350555" lon="8.6153917"><ele>234.0</ele><time>2026-04-16T14:47:53.734Z</time></trkpt><trkpt lat="40.3503933" lon="8.61522"><ele>233.66666666666669</ele><time>2026-04-16T14:47:54.734Z</time></trkpt><trkpt lat="40.3502283" lon="8.615045"><ele>233.33333333333334</ele><time>2026-04-16T14:47:55.733Z</time></trkpt><trkpt lat="40.350065" lon="8.6148717"><ele>233.0</ele><time>2026-04-16T14:47:56.734Z</time></trkpt><trkpt lat="40.3498983" lon="8.614705"><ele>233.0</ele><time>2026-04-16T14:47:57.734Z</time></trkpt><trkpt lat="40.3497283" lon="8.6145317"><ele>233.0</ele><time>2026-04-16T14:47:58.734Z</time></trkpt><trkpt lat="40.34957" lon="8.6143583"><ele>233.0</ele><time>2026-04-16T14:47:59.734Z</time></trkpt><trkpt lat="40.3494233" lon="8.614175"><ele>233.33333333333334</ele><time>2026-04-16T14:48:00.734Z</time></trkpt><trkpt lat="40.3492967" lon="8.6139633"><ele>233.66666666666669</ele><time>2026-04-16T14:48:01.734Z</time></trkpt><trkpt lat="40.3492017" lon="8.6137317"><ele>234.0</ele><time>2026-04-16T14:48:02.733Z</time></trkpt><trkpt lat="40.3491367" lon="8.613485"><ele>234.66666666666669</ele><time>2026-04-16T14:48:03.733Z</time></trkpt><trkpt lat="40.34911" lon="8.6132183"><ele>235.33333333333334</ele><time>2026-04-16T14:48:04.734Z</time></trkpt><trkpt lat="40.34912" lon="8.6129533"><ele>236.0</ele><time>2026-04-16T14:48:05.734Z</time></trkpt><trkpt lat="40.3491517" lon="8.6126783"><ele>237.66666666666669</ele><time>2026-04-16T14:48:06.733Z</time></trkpt><trkpt lat="40.3491867" lon="8.6124083"><ele>239.33333333333331</ele><time>2026-04-16T14:48:07.734Z</time></trkpt><trkpt lat="40.3492117" lon="8.6121383"><ele>241.0</ele><time>2026-04-16T14:48:08.733Z</time></trkpt><trkpt lat="40.34924" lon="8.611865"><ele>243.0</ele><time>2026-04-16T14:48:09.734Z</time></trkpt><trkpt lat="40.3492667" lon="8.6116"><ele>245.0</ele><time>2026-04-16T14:48:10.734Z</time></trkpt><trkpt lat="40.3492867" lon="8.6113367"><ele>247.0</ele><time>2026-04-16T14:48:11.733Z</time></trkpt><trkpt lat="40.3493117" lon="8.6110783"><ele>250.0</ele><time>2026-04-16T14:48:12.733Z</time></trkpt><trkpt lat="40.3493367" lon="8.6108167"><ele>253.0</ele><time>2026-04-16T14:48:13.734Z</time></trkpt><trkpt lat="40.3493667" lon="8.6105567"><ele>256.0</ele><time>2026-04-16T14:48:14.734Z</time></trkpt><trkpt lat="40.3493917" lon="8.6103"><ele>257.66666666666663</ele><time>2026-04-16T14:48:15.733Z</time></trkpt><trkpt lat="40.34941" lon="8.6100417"><ele>259.3333333333333</ele><time>2026-04-16T14:48:16.734Z</time></trkpt><trkpt lat="40.349415" lon="8.609785"><ele>261.0</ele><time>2026-04-16T14:48:17.733Z</time></trkpt><trkpt lat="40.3494083" lon="8.609525"><ele>263.3333333333333</ele><time>2026-04-16T14:48:18.733Z</time></trkpt><trkpt lat="40.349385" lon="8.6092667"><ele>265.66666666666663</ele><time>2026-04-16T14:48:19.733Z</time></trkpt><trkpt lat="40.3493383" lon="8.6090083"><ele>268.0</ele><time>2026-04-16T14:48:20.734Z</time></trkpt><trkpt lat="40.34929" lon="8.6087533"><ele>268.0</ele><time>2026-04-16T14:48:21.734Z</time></trkpt><trkpt lat="40.3492367" lon="8.6085017"><ele>268.0</ele><time>2026-04-16T14:48:22.734Z</time></trkpt><trkpt lat="40.3491733" lon="8.6082617"><ele>268.0</ele><time>2026-04-16T14:48:23.734Z</time></trkpt><trkpt lat="40.34912" lon="8.608025"><ele>269.3333333333333</ele><time>2026-04-16T14:48:24.734Z</time></trkpt><trkpt lat="40.34907" lon="8.6077833"><ele>270.6666666666667</ele><time>2026-04-16T14:48:25.733Z</time></trkpt><trkpt lat="40.34902" lon="8.6075417"><ele>272.0</ele><time>2026-04-16T14:48:26.734Z</time></trkpt><trkpt lat="40.3489733" lon="8.607295"><ele>272.0</ele><time>2026-04-16T14:48:27.733Z</time></trkpt><trkpt lat="40.34892" lon="8.607045"><ele>272.0</ele><time>2026-04-16T14:48:28.734Z</time></trkpt><trkpt lat="40.34887" lon="8.6067867"><ele>272.0</ele><time>2026-04-16T14:48:29.734Z</time></trkpt><trkpt lat="40.348815" lon="8.6065383"><ele>275.6666666666667</ele><time>2026-04-16T14:48:30.733Z</time></trkpt><trkpt lat="40.34876" lon="8.60629"><ele>279.3333333333333</ele><time>2026-04-16T14:48:31.733Z</time></trkpt><trkpt lat="40.3486917" lon="8.6060483"><ele>283.0</ele><time>2026-04-16T14:48:32.733Z</time></trkpt><trkpt lat="40.3486067" lon="8.6058183"><ele>283.0</ele><time>2026-04-16T14:48:33.734Z</time></trkpt><trkpt lat="40.3484967" lon="8.6056033"><ele>283.0</ele><time>2026-04-16T14:48:34.734Z</time></trkpt><trkpt lat="40.348355" lon="8.6054117"><ele>283.0</ele><time>2026-04-16T14:48:35.734Z</time></trkpt><trkpt lat="40.3481917" lon="8.60524"><ele>283.66666666666663</ele><time>2026-04-16T14:48:36.734Z</time></trkpt><trkpt lat="40.3480333" lon="8.6050817"><ele>284.3333333333333</ele><time>2026-04-16T14:48:37.734Z</time></trkpt><trkpt lat="40.3478683" lon="8.60494"><ele>285.0</ele><time>2026-04-16T14:48:38.734Z</time></trkpt><trkpt lat="40.347695" lon="8.6047917"><ele>285.0</ele><time>2026-04-16T14:48:39.734Z</time></trkpt><trkpt lat="40.3475333" lon="8.60464"><ele>285.0</ele><time>2026-04-16T14:48:40.733Z</time></trkpt><trkpt lat="40.3473667" lon="8.6044817"><ele>285.0</ele><time>2026-04-16T14:48:41.734Z</time></trkpt><trkpt lat="40.347215" lon="8.60432"><ele>287.0</ele><time>2026-04-16T14:48:42.733Z</time></trkpt><trkpt lat="40.3470667" lon="8.604145"><ele>289.0</ele><time>2026-04-16T14:48:43.733Z</time></trkpt><trkpt lat="40.3469417" lon="8.60395"><ele>291.0</ele><time>2026-04-16T14:48:44.734Z</time></trkpt><trkpt lat="40.346845" lon="8.6037283"><ele>291.0</ele><time>2026-04-16T14:48:45.733Z</time></trkpt><trkpt lat="40.3467767" lon="8.60349"><ele>291.0</ele><time>2026-04-16T14:48:46.734Z</time></trkpt><trkpt lat="40.34672" lon="8.6032433"><ele>291.0</ele><time>2026-04-16T14:48:47.733Z</time></trkpt><trkpt lat="40.3466583" lon="8.6029983"><ele>289.6666666666667</ele><time>2026-04-16T14:48:48.733Z</time></trkpt><trkpt lat="40.3465933" lon="8.60275"><ele>288.33333333333337</ele><time>2026-04-16T14:48:49.733Z</time></trkpt><trkpt lat="40.3465217" lon="8.6025033"><ele>287.0</ele><time>2026-04-16T14:48:50.734Z</time></trkpt><trkpt lat="40.3464567" lon="8.6022633"><ele>287.0</ele><time>2026-04-16T14:48:51.734Z</time></trkpt><trkpt lat="40.3463917" lon="8.60203"><ele>287.0</ele><time>2026-04-16T14:48:52.734Z</time></trkpt><trkpt lat="40.346315" lon="8.6018"><ele>287.0</ele><time>2026-04-16T14:48:53.733Z</time></trkpt><trkpt lat="40.346225" lon="8.6015767"><ele>290.33333333333337</ele><time>2026-04-16T14:48:54.734Z</time></trkpt><trkpt lat="40.3461167" lon="8.6013683"><ele>293.6666666666667</ele><time>2026-04-16T14:48:55.734Z</time></trkpt><trkpt lat="40.346" lon="8.6011667"><ele>297.0</ele><time>2026-04-16T14:48:56.734Z</time></trkpt><trkpt lat="40.345875" lon="8.600965"><ele>297.0</ele><time>2026-04-16T14:48:57.734Z</time></trkpt><trkpt lat="40.3457433" lon="8.6007767"><ele>297.0</ele><time>2026-04-16T14:48:58.734Z</time></trkpt><trkpt lat="40.3456083" lon="8.6005867"><ele>297.0</ele><time>2026-04-16T14:48:59.734Z</time></trkpt><trkpt lat="40.3454783" lon="8.6004"><ele>301.6666666666667</ele><time>2026-04-16T14:49:00.734Z</time></trkpt><trkpt lat="40.3453467" lon="8.60021"><ele>306.33333333333337</ele><time>2026-04-16T14:49:01.733Z</time></trkpt><trkpt lat="40.3452133" lon="8.60002"><ele>311.0</ele><time>2026-04-16T14:49:02.734Z</time></trkpt><trkpt lat="40.3450817" lon="8.5998267"><ele>311.0</ele><time>2026-04-16T14:49:03.733Z</time></trkpt><trkpt lat="40.3449483" lon="8.5996367"><ele>311.0</ele><time>2026-04-16T14:49:04.734Z</time></trkpt><trkpt lat="40.344815" lon="8.5994383"><ele>311.0</ele><time>2026-04-16T14:49:05.733Z</time></trkpt><trkpt lat="40.344675" lon="8.599245"><ele>315.6666666666667</ele><time>2026-04-16T14:49:06.733Z</time></trkpt><trkpt lat="40.3445417" lon="8.5990567"><ele>320.3333333333333</ele><time>2026-04-16T14:49:07.734Z</time></trkpt><trkpt lat="40.3443983" lon="8.59887"><ele>325.0</ele><time>2026-04-16T14:49:08.733Z</time></trkpt><trkpt lat="40.34424" lon="8.5987117"><ele>325.0</ele><time>2026-04-16T14:49:09.734Z</time></trkpt><trkpt lat="40.3440683" lon="8.598585"><ele>325.0</ele><time>2026-04-16T14:49:10.734Z</time></trkpt><trkpt lat="40.34388" lon="8.598495"><ele>325.0</ele><time>2026-04-16T14:49:11.734Z</time></trkpt><trkpt lat="40.3436867" lon="8.59843"><ele>326.66666666666663</ele><time>2026-04-16T14:49:12.734Z</time></trkpt><trkpt lat="40.3434833" lon="8.598395"><ele>328.3333333333333</ele><time>2026-04-16T14:49:13.734Z</time></trkpt><trkpt lat="40.3432783" lon="8.59836"><ele>330.0</ele><time>2026-04-16T14:49:14.734Z</time></trkpt><trkpt lat="40.343075" lon="8.5983217"><ele>330.0</ele><time>2026-04-16T14:49:15.734Z</time></trkpt><trkpt lat="40.34286" lon="8.598275"><ele>330.0</ele><time>2026-04-16T14:49:16.733Z</time></trkpt><trkpt lat="40.342655" lon="8.59823"><ele>330.0</ele><time>2026-04-16T14:49:17.734Z</time></trkpt><trkpt lat="40.3424517" lon="8.59818"><ele>330.0</ele><time>2026-04-16T14:49:18.734Z</time></trkpt><trkpt lat="40.3422567" lon="8.5981017"><ele>330.0</ele><time>2026-04-16T14:49:19.733Z</time></trkpt><trkpt lat="40.3420783" lon="8.5979817"><ele>330.0</ele><time>2026-04-16T14:49:20.733Z</time></trkpt><trkpt lat="40.3419083" lon="8.5978217"><ele>326.3333333333333</ele><time>2026-04-16T14:49:21.734Z</time></trkpt><trkpt lat="40.3417483" lon="8.59764"><ele>322.66666666666663</ele><time>2026-04-16T14:49:22.733Z</time></trkpt><trkpt lat="40.3415967" lon="8.5974433"><ele>319.0</ele><time>2026-04-16T14:49:23.734Z</time></trkpt><trkpt lat="40.3414483" lon="8.5972633"><ele>321.0</ele><time>2026-04-16T14:49:24.734Z</time></trkpt><trkpt lat="40.3413017" lon="8.597105"><ele>323.0</ele><time>2026-04-16T14:49:25.734Z</time></trkpt><trkpt lat="40.3411467" lon="8.5969667"><ele>325.0</ele><time>2026-04-16T14:49:26.734Z</time></trkpt><trkpt lat="40.3409717" lon="8.5968717"><ele>321.0</ele><time>2026-04-16T14:49:27.734Z</time></trkpt><trkpt lat="40.34079" lon="8.5968133"><ele>317.0</ele><time>2026-04-16T14:49:28.733Z</time></trkpt><trkpt lat="40.3406017" lon="8.5967683"><ele>313.0</ele><time>2026-04-16T14:49:29.734Z</time></trkpt><trkpt lat="40.3404183" lon="8.5966983"><ele>313.0</ele><time>2026-04-16T14:49:30.733Z</time></trkpt><trkpt lat="40.3402383" lon="8.596585"><ele>313.0</ele><time>2026-04-16T14:49:31.734Z</time></trkpt><trkpt lat="40.340075" lon="8.59643"><ele>313.0</ele><time>2026-04-16T14:49:32.733Z</time></trkpt><trkpt lat="40.3399317" lon="8.5962467"><ele>310.66666666666663</ele><time>2026-04-16T14:49:33.733Z</time></trkpt><trkpt lat="40.339805" lon="8.5960567"><ele>308.3333333333333</ele><time>2026-04-16T14:49:34.733Z</time></trkpt><trkpt lat="40.3396717" lon="8.5958817"><ele>306.0</ele><time>2026-04-16T14:49:35.733Z</time></trkpt><trkpt lat="40.3395283" lon="8.5957417"><ele>306.0</ele><time>2026-04-16T14:49:36.734Z</time></trkpt><trkpt lat="40.33936" lon="8.5956467"><ele>306.0</ele><time>2026-04-16T14:49:37.734Z</time></trkpt><trkpt lat="40.3391733" lon="8.5956017"><ele>306.0</ele><time>2026-04-16T14:49:38.734Z</time></trkpt><trkpt lat="40.3389767" lon="8.5955883"><ele>304.0</ele><time>2026-04-16T14:49:39.734Z</time></trkpt><trkpt lat="40.3387717" lon="8.595595"><ele>302.0</ele><time>2026-04-16T14:49:40.734Z</time></trkpt><trkpt lat="40.33857" lon="8.5956067"><ele>300.0</ele><time>2026-04-16T14:49:41.734Z</time></trkpt><trkpt lat="40.33838" lon="8.5956117"><ele>300.0</ele><time>2026-04-16T14:49:42.734Z</time></trkpt><trkpt lat="40.338205" lon="8.595625"><ele>300.0</ele><time>2026-04-16T14:49:43.734Z</time></trkpt><trkpt lat="40.3380433" lon="8.595675"><ele>300.0</ele><time>2026-04-16T14:49:44.734Z</time></trkpt><trkpt lat="40.337895" lon="8.5957667"><ele>293.0</ele><time>2026-04-16T14:49:45.733Z</time></trkpt><trkpt lat="40.3377817" lon="8.595905"><ele>286.0</ele><time>2026-04-16T14:49:46.733Z</time></trkpt><trkpt lat="40.3377133" lon="8.5960883"><ele>279.0</ele><time>2026-04-16T14:49:47.734Z</time></trkpt><trkpt lat="40.337685" lon="8.596295"><ele>279.0</ele><time>2026-04-16T14:49:48.734Z</time></trkpt><trkpt lat="40.3377017" lon="8.5965067"><ele>279.0</ele><time>2026-04-16T14:49:49.734Z</time></trkpt><trkpt lat="40.3377583" lon="8.596725"><ele>279.0</ele><time>2026-04-16T14:49:50.733Z</time></trkpt><trkpt lat="40.3378317" lon="8.5969383"><ele>279.0</ele><time>2026-04-16T14:49:51.733Z</time></trkpt><trkpt lat="40.337905" lon="8.5971583"><ele>279.0</ele><time>2026-04-16T14:49:52.733Z</time></trkpt><trkpt lat="40.33797" lon="8.5973583"><ele>279.0</ele><time>2026-04-16T14:49:53.733Z</time></trkpt><trkpt lat="40.3380117" lon="8.5975417"><ele>279.0</ele><time>2026-04-16T14:49:54.732Z</time></trkpt><trkpt lat="40.3380233" lon="8.5977017"><ele>279.0</ele><time>2026-04-16T14:49:55.733Z</time></trkpt><trkpt lat="40.3379933" lon="8.5978383"><ele>279.0</ele><time>2026-04-16T14:49:56.733Z</time></trkpt><trkpt lat="40.3379217" lon="8.5979483"><ele>279.0</ele><time>2026-04-16T14:49:57.733Z</time></trkpt><trkpt lat="40.3378167" lon="8.598015"><ele>279.0</ele><time>2026-04-16T14:49:58.733Z</time></trkpt><trkpt lat="40.337695" lon="8.598025"><ele>279.0</ele><time>2026-04-16T14:49:59.733Z</time></trkpt><trkpt lat="40.3375733" lon="8.5979817"><ele>279.0</ele><time>2026-04-16T14:50:00.733Z</time></trkpt><trkpt lat="40.3374517" lon="8.5978817"><ele>279.0</ele><time>2026-04-16T14:50:01.733Z</time></trkpt><trkpt lat="40.3373283" lon="8.597755"><ele>277.3333333333333</ele><time>2026-04-16T14:50:02.733Z</time></trkpt><trkpt lat="40.337205" lon="8.5976167"><ele>275.66666666666663</ele><time>2026-04-16T14:50:03.732Z</time></trkpt><trkpt lat="40.3370717" lon="8.59751"><ele>274.0</ele><time>2026-04-16T14:50:04.732Z</time></trkpt><trkpt lat="40.3369333" lon="8.5974617"><ele>274.0</ele><time>2026-04-16T14:50:05.733Z</time></trkpt><trkpt lat="40.3367867" lon="8.59748"><ele>274.0</ele><time>2026-04-16T14:50:06.733Z</time></trkpt><trkpt lat="40.3366367" lon="8.5975467"><ele>274.0</ele><time>2026-04-16T14:50:07.733Z</time></trkpt><trkpt lat="40.3364917" lon="8.5976583"><ele>272.0</ele><time>2026-04-16T14:50:08.733Z</time></trkpt><trkpt lat="40.3363383" lon="8.597765"><ele>270.0</ele><time>2026-04-16T14:50:09.733Z</time></trkpt><trkpt lat="40.3361667" lon="8.5978333"><ele>268.0</ele><time>2026-04-16T14:50:10.732Z</time></trkpt><trkpt lat="40.335995" lon="8.597855"><ele>268.0</ele><time>2026-04-16T14:50:11.732Z</time></trkpt><trkpt lat="40.3358217" lon="8.5978383"><ele>268.0</ele><time>2026-04-16T14:50:12.732Z</time></trkpt><trkpt lat="40.3356567" lon="8.5977783"><ele>268.0</ele><time>2026-04-16T14:50:13.733Z</time></trkpt><trkpt lat="40.3354967" lon="8.5977017"><ele>270.25</ele><time>2026-04-16T14:50:14.732Z</time></trkpt><trkpt lat="40.3353533" lon="8.5976183"><ele>272.5</ele><time>2026-04-16T14:50:15.733Z</time></trkpt><trkpt lat="40.3352333" lon="8.5975233"><ele>274.75</ele><time>2026-04-16T14:50:16.732Z</time></trkpt><trkpt lat="40.3351383" lon="8.5974067"><ele>277.0</ele><time>2026-04-16T14:50:17.733Z</time></trkpt><trkpt lat="40.3350917" lon="8.59726"><ele>277.0</ele><time>2026-04-16T14:50:18.733Z</time></trkpt><trkpt lat="40.3350733" lon="8.5970867"><ele>277.0</ele><time>2026-04-16T14:50:19.733Z</time></trkpt><trkpt lat="40.3350983" lon="8.5969033"><ele>277.0</ele><time>2026-04-16T14:50:20.733Z</time></trkpt><trkpt lat="40.3351483" lon="8.5967167"><ele>277.0</ele><time>2026-04-16T14:50:21.733Z</time></trkpt><trkpt lat="40.3351933" lon="8.5965067"><ele>277.66666666666663</ele><time>2026-04-16T14:50:22.733Z</time></trkpt><trkpt lat="40.33523" lon="8.59629"><ele>278.3333333333333</ele><time>2026-04-16T14:50:23.733Z</time></trkpt><trkpt lat="40.33525" lon="8.5960683"><ele>279.0</ele><time>2026-04-16T14:50:24.733Z</time></trkpt><trkpt lat="40.33524" lon="8.5958433"><ele>277.3333333333333</ele><time>2026-04-16T14:50:25.732Z</time></trkpt><trkpt lat="40.335195" lon="8.59562"><ele>275.66666666666663</ele><time>2026-04-16T14:50:26.732Z</time></trkpt><trkpt lat="40.335115" lon="8.5954033"><ele>274.0</ele><time>2026-04-16T14:50:27.733Z</time></trkpt><trkpt lat="40.3350117" lon="8.5951917"><ele>275.0</ele><time>2026-04-16T14:50:28.732Z</time></trkpt><trkpt lat="40.3348967" lon="8.5949783"><ele>276.0</ele><time>2026-04-16T14:50:29.733Z</time></trkpt><trkpt lat="40.334785" lon="8.5947617"><ele>277.0</ele><time>2026-04-16T14:50:30.733Z</time></trkpt><trkpt lat="40.3346767" lon="8.5945417"><ele>270.3333333333333</ele><time>2026-04-16T14:50:31.733Z</time></trkpt><trkpt lat="40.334575" lon="8.5943333"><ele>263.6666666666667</ele><time>2026-04-16T14:50:32.733Z</time></trkpt><trkpt lat="40.334475" lon="8.5941533"><ele>257.0</ele><time>2026-04-16T14:50:33.733Z</time></trkpt><trkpt lat="40.3343783" lon="8.5940017"><ele>257.0</ele><time>2026-04-16T14:50:34.733Z</time></trkpt><trkpt lat="40.33428" lon="8.593885"><ele>257.0</ele><time>2026-04-16T14:50:35.732Z</time></trkpt><trkpt lat="40.3341683" lon="8.5938233"><ele>257.0</ele><time>2026-04-16T14:50:36.732Z</time></trkpt><trkpt lat="40.3340683" lon="8.5938333"><ele>257.0</ele><time>2026-04-16T14:50:37.733Z</time></trkpt><trkpt lat="40.333975" lon="8.5939183"><ele>252.0</ele><time>2026-04-16T14:50:38.733Z</time></trkpt><trkpt lat="40.3338867" lon="8.59406"><ele>247.0</ele><time>2026-04-16T14:50:39.733Z</time></trkpt><trkpt lat="40.333795" lon="8.594215"><ele>242.0</ele><time>2026-04-16T14:50:40.733Z</time></trkpt><trkpt lat="40.3336883" lon="8.5943767"><ele>247.0</ele><time>2026-04-16T14:50:41.732Z</time></trkpt><trkpt lat="40.3335683" lon="8.5945333"><ele>252.0</ele><time>2026-04-16T14:50:42.732Z</time></trkpt><trkpt lat="40.333435" lon="8.5946867"><ele>257.0</ele><time>2026-04-16T14:50:43.732Z</time></trkpt><trkpt lat="40.3332883" lon="8.59483"><ele>257.0</ele><time>2026-04-16T14:50:44.733Z</time></trkpt><trkpt lat="40.3331533" lon="8.5949917"><ele>257.0</ele><time>2026-04-16T14:50:45.733Z</time></trkpt><trkpt lat="40.3330333" lon="8.5951867"><ele>257.0</ele><time>2026-04-16T14:50:46.733Z</time></trkpt><trkpt lat="40.3329333" lon="8.59541"><ele>251.0</ele><time>2026-04-16T14:50:47.733Z</time></trkpt><trkpt lat="40.33284" lon="8.5956517"><ele>245.0</ele><time>2026-04-16T14:50:48.733Z</time></trkpt><trkpt lat="40.332745" lon="8.5958917"><ele>239.0</ele><time>2026-04-16T14:50:49.733Z</time></trkpt><trkpt lat="40.3326267" lon="8.59612"><ele>243.33333333333334</ele><time>2026-04-16T14:50:50.733Z</time></trkpt><trkpt lat="40.3325033" lon="8.5963267"><ele>247.66666666666669</ele><time>2026-04-16T14:50:51.732Z</time></trkpt><trkpt lat="40.3323867" lon="8.5965233"><ele>252.0</ele><time>2026-04-16T14:50:52.733Z</time></trkpt><trkpt lat="40.3322833" lon="8.5967167"><ele>248.75</ele><time>2026-04-16T14:50:53.733Z</time></trkpt><trkpt lat="40.332185" lon="8.5968967"><ele>245.5</ele><time>2026-04-16T14:50:54.732Z</time></trkpt><trkpt lat="40.332095" lon="8.5970417"><ele>242.25</ele><time>2026-04-16T14:50:55.732Z</time></trkpt><trkpt lat="40.33201" lon="8.597145"><ele>239.0</ele><time>2026-04-16T14:50:56.733Z</time></trkpt><trkpt lat="40.33191" lon="8.5972033"><ele>239.0</ele><time>2026-04-16T14:50:57.732Z</time></trkpt><trkpt lat="40.3318017" lon="8.5971983"><ele>238.99999999999997</ele><time>2026-04-16T14:50:58.733Z</time></trkpt><trkpt lat="40.33171" lon="8.5971267"><ele>238.99999999999997</ele><time>2026-04-16T14:50:59.733Z</time></trkpt><trkpt lat="40.3316633" lon="8.59702"><ele>239.0</ele><time>2026-04-16T14:51:00.733Z</time></trkpt><trkpt lat="40.3316567" lon="8.5968817"><ele>239.0</ele><time>2026-04-16T14:51:01.732Z</time></trkpt><trkpt lat="40.3316633" lon="8.59672"><ele>237.5</ele><time>2026-04-16T14:51:02.732Z</time></trkpt><trkpt lat="40.3316633" lon="8.5965417"><ele>236.0</ele><time>2026-04-16T14:51:03.733Z</time></trkpt><trkpt lat="40.33165" lon="8.5963483"><ele>234.5</ele><time>2026-04-16T14:51:04.733Z</time></trkpt><trkpt lat="40.3316183" lon="8.5961483"><ele>233.0</ele><time>2026-04-16T14:51:05.733Z</time></trkpt><trkpt lat="40.3315717" lon="8.595955"><ele>233.0</ele><time>2026-04-16T14:51:06.733Z</time></trkpt><trkpt lat="40.3315217" lon="8.595765"><ele>233.0</ele><time>2026-04-16T14:51:07.733Z</time></trkpt><trkpt lat="40.33148" lon="8.59556"><ele>233.0</ele><time>2026-04-16T14:51:08.733Z</time></trkpt><trkpt lat="40.3314767" lon="8.5953567"><ele>234.33333333333334</ele><time>2026-04-16T14:51:09.732Z</time></trkpt><trkpt lat="40.3314833" lon="8.5951467"><ele>235.66666666666669</ele><time>2026-04-16T14:51:10.733Z</time></trkpt><trkpt lat="40.3315133" lon="8.5949333"><ele>237.0</ele><time>2026-04-16T14:51:11.733Z</time></trkpt><trkpt lat="40.3315667" lon="8.5947317"><ele>237.0</ele><time>2026-04-16T14:51:12.733Z</time></trkpt><trkpt lat="40.3316317" lon="8.5945433"><ele>237.0</ele><time>2026-04-16T14:51:13.732Z</time></trkpt><trkpt lat="40.3316817" lon="8.5943533"><ele>237.0</ele><time>2026-04-16T14:51:14.732Z</time></trkpt><trkpt lat="40.3317017" lon="8.59415"><ele>239.33333333333331</ele><time>2026-04-16T14:51:15.732Z</time></trkpt><trkpt lat="40.3316883" lon="8.593945"><ele>241.66666666666666</ele><time>2026-04-16T14:51:16.733Z</time></trkpt><trkpt lat="40.3316517" lon="8.5937417"><ele>244.0</ele><time>2026-04-16T14:51:17.732Z</time></trkpt><trkpt lat="40.3315933" lon="8.5935683"><ele>244.75</ele><time>2026-04-16T14:51:18.733Z</time></trkpt><trkpt lat="40.3315017" lon="8.5934217"><ele>245.5</ele><time>2026-04-16T14:51:19.732Z</time></trkpt><trkpt lat="40.331395" lon="8.5933217"><ele>246.25</ele><time>2026-04-16T14:51:20.732Z</time></trkpt><trkpt lat="40.331305" lon="8.5932483"><ele>247.0</ele><time>2026-04-16T14:51:21.732Z</time></trkpt><trkpt lat="40.331265" lon="8.5931667"><ele>247.0</ele><time>2026-04-16T14:51:22.732Z</time></trkpt><trkpt lat="40.3312633" lon="8.5930717"><ele>247.0</ele><time>2026-04-16T14:51:23.732Z</time></trkpt><trkpt lat="40.3313183" lon="8.5929917"><ele>247.0</ele><time>2026-04-16T14:51:24.732Z</time></trkpt><trkpt lat="40.3314033" lon="8.5929333"><ele>247.0</ele><time>2026-04-16T14:51:25.733Z</time></trkpt><trkpt lat="40.3315083" lon="8.5928817"><ele>247.0</ele><time>2026-04-16T14:51:26.733Z</time></trkpt><trkpt lat="40.3316317" lon="8.5928183"><ele>251.0</ele><time>2026-04-16T14:51:27.733Z</time></trkpt><trkpt lat="40.33175" lon="8.592715"><ele>255.0</ele><time>2026-04-16T14:51:28.732Z</time></trkpt><trkpt lat="40.3318617" lon="8.5925783"><ele>259.0</ele><time>2026-04-16T14:51:29.733Z</time></trkpt><trkpt lat="40.3319533" lon="8.5924233"><ele>263.0</ele><time>2026-04-16T14:51:30.733Z</time></trkpt><trkpt lat="40.332015" lon="8.5922417"><ele>263.0</ele><time>2026-04-16T14:51:31.732Z</time></trkpt><trkpt lat="40.3320383" lon="8.5920433"><ele>263.0</ele><time>2026-04-16T14:51:32.732Z</time></trkpt><trkpt lat="40.3320517" lon="8.5918367"><ele>263.0</ele><time>2026-04-16T14:51:33.732Z</time></trkpt><trkpt lat="40.3320733" lon="8.59163"><ele>265.33333333333337</ele><time>2026-04-16T14:51:34.732Z</time></trkpt><trkpt lat="40.3320983" lon="8.59142"><ele>267.6666666666667</ele><time>2026-04-16T14:51:35.733Z</time></trkpt><trkpt lat="40.3321483" lon="8.5912283"><ele>270.0</ele><time>2026-04-16T14:51:36.733Z</time></trkpt><trkpt lat="40.3322283" lon="8.5910517"><ele>270.0</ele><time>2026-04-16T14:51:37.733Z</time></trkpt><trkpt lat="40.3323333" lon="8.5909033"><ele>270.0</ele><time>2026-04-16T14:51:38.733Z</time></trkpt><trkpt lat="40.332455" lon="8.590755"><ele>270.0</ele><time>2026-04-16T14:51:39.733Z</time></trkpt><trkpt lat="40.3325717" lon="8.5905967"><ele>270.0</ele><time>2026-04-16T14:51:40.733Z</time></trkpt><trkpt lat="40.3326783" lon="8.5904283"><ele>270.0</ele><time>2026-04-16T14:51:41.733Z</time></trkpt><trkpt lat="40.3328" lon="8.5902783"><ele>270.0</ele><time>2026-04-16T14:51:42.733Z</time></trkpt><trkpt lat="40.3329383" lon="8.59016"><ele>270.75</ele><time>2026-04-16T14:51:43.733Z</time></trkpt><trkpt lat="40.3330883" lon="8.5900783"><ele>271.5</ele><time>2026-04-16T14:51:44.732Z</time></trkpt><trkpt lat="40.333225" lon="8.5900333"><ele>272.25</ele><time>2026-04-16T14:51:45.733Z</time></trkpt><trkpt lat="40.3333383" lon="8.5899783"><ele>273.0</ele><time>2026-04-16T14:51:46.733Z</time></trkpt><trkpt lat="40.3334183" lon="8.58989"><ele>273.0</ele><time>2026-04-16T14:51:47.733Z</time></trkpt><trkpt lat="40.3334583" lon="8.5897617"><ele>273.0</ele><time>2026-04-16T14:51:48.733Z</time></trkpt><trkpt lat="40.3334667" lon="8.5896067"><ele>273.0</ele><time>2026-04-16T14:51:49.733Z</time></trkpt><trkpt lat="40.3334667" lon="8.5894383"><ele>273.0</ele><time>2026-04-16T14:51:50.733Z</time></trkpt><trkpt lat="40.3334983" lon="8.58927"><ele>277.25</ele><time>2026-04-16T14:51:51.732Z</time></trkpt><trkpt lat="40.3335433" lon="8.5890867"><ele>281.5</ele><time>2026-04-16T14:51:52.733Z</time></trkpt><trkpt lat="40.333585" lon="8.5889"><ele>285.75</ele><time>2026-04-16T14:51:53.733Z</time></trkpt><trkpt lat="40.333615" lon="8.588715"><ele>290.0</ele><time>2026-04-16T14:51:54.733Z</time></trkpt><trkpt lat="40.3336067" lon="8.5885367"><ele>290.5</ele><time>2026-04-16T14:51:55.732Z</time></trkpt><trkpt lat="40.3335567" lon="8.5883767"><ele>291.0</ele><time>2026-04-16T14:51:56.732Z</time></trkpt><trkpt lat="40.3334617" lon="8.58825"><ele>291.5</ele><time>2026-04-16T14:51:57.732Z</time></trkpt><trkpt lat="40.33335" lon="8.588155"><ele>292.0</ele><time>2026-04-16T14:51:58.732Z</time></trkpt><trkpt lat="40.333245" lon="8.5880567"><ele>292.0</ele><time>2026-04-16T14:51:59.733Z</time></trkpt><trkpt lat="40.3331767" lon="8.587925"><ele>292.0</ele><time>2026-04-16T14:52:00.733Z</time></trkpt><trkpt lat="40.3331483" lon="8.5877583"><ele>292.0</ele><time>2026-04-16T14:52:01.733Z</time></trkpt><trkpt lat="40.3331583" lon="8.5875933"><ele>292.0</ele><time>2026-04-16T14:52:02.733Z</time></trkpt><trkpt lat="40.3332067" lon="8.5874583"><ele>292.8</ele><time>2026-04-16T14:52:03.733Z</time></trkpt><trkpt lat="40.3332867" lon="8.5873867"><ele>293.6</ele><time>2026-04-16T14:52:04.732Z</time></trkpt><trkpt lat="40.3333883" lon="8.5873633"><ele>294.40000000000003</ele><time>2026-04-16T14:52:05.733Z</time></trkpt><trkpt lat="40.3335083" lon="8.5873517"><ele>295.2</ele><time>2026-04-16T14:52:06.732Z</time></trkpt><trkpt lat="40.3336317" lon="8.5873417"><ele>296.0</ele><time>2026-04-16T14:52:07.733Z</time></trkpt><trkpt lat="40.33376" lon="8.587325"><ele>297.75</ele><time>2026-04-16T14:52:08.732Z</time></trkpt><trkpt lat="40.333905" lon="8.5873233"><ele>299.5</ele><time>2026-04-16T14:52:09.733Z</time></trkpt><trkpt lat="40.33404" lon="8.5873567"><ele>301.25</ele><time>2026-04-16T14:52:10.732Z</time></trkpt><trkpt lat="40.3341733" lon="8.587425"><ele>303.0</ele><time>2026-04-16T14:52:11.733Z</time></trkpt><trkpt lat="40.3342933" lon="8.5875267"><ele>303.0</ele><time>2026-04-16T14:52:12.733Z</time></trkpt><trkpt lat="40.3344033" lon="8.58768"><ele>303.0</ele><time>2026-04-16T14:52:13.733Z</time></trkpt><trkpt lat="40.3345183" lon="8.5878333"><ele>303.0</ele><time>2026-04-16T14:52:14.733Z</time></trkpt><trkpt lat="40.3346517" lon="8.5879683"><ele>304.0</ele><time>2026-04-16T14:52:15.732Z</time></trkpt><trkpt lat="40.3347917" lon="8.5880983"><ele>305.0</ele><time>2026-04-16T14:52:16.733Z</time></trkpt><trkpt lat="40.3349333" lon="8.5882383"><ele>306.0</ele><time>2026-04-16T14:52:17.732Z</time></trkpt><trkpt lat="40.3350667" lon="8.5883883"><ele>306.0</ele><time>2026-04-16T14:52:18.733Z</time></trkpt><trkpt lat="40.33518" lon="8.588555"><ele>306.0</ele><time>2026-04-16T14:52:19.733Z</time></trkpt><trkpt lat="40.33527" lon="8.5887267"><ele>306.0</ele><time>2026-04-16T14:52:20.732Z</time></trkpt><trkpt lat="40.3353267" lon="8.5888767"><ele>307.5</ele><time>2026-04-16T14:52:21.733Z</time></trkpt><trkpt lat="40.3353683" lon="8.589025"><ele>309.0</ele><time>2026-04-16T14:52:22.733Z</time></trkpt><trkpt lat="40.3354317" lon="8.58915"><ele>310.5</ele><time>2026-04-16T14:52:23.732Z</time></trkpt><trkpt lat="40.33553" lon="8.589215"><ele>312.0</ele><time>2026-04-16T14:52:24.733Z</time></trkpt><trkpt lat="40.3356617" lon="8.5892133"><ele>312.0</ele><time>2026-04-16T14:52:25.732Z</time></trkpt><trkpt lat="40.335785" lon="8.5891533"><ele>312.0</ele><time>2026-04-16T14:52:26.733Z</time></trkpt><trkpt lat="40.3358883" lon="8.58903"><ele>312.0</ele><time>2026-04-16T14:52:27.732Z</time></trkpt><trkpt lat="40.33598" lon="8.5888733"><ele>312.0</ele><time>2026-04-16T14:52:28.733Z</time></trkpt><trkpt lat="40.3360733" lon="8.5887083"><ele>314.0</ele><time>2026-04-16T14:52:29.732Z</time></trkpt><trkpt lat="40.3361717" lon="8.58854"><ele>316.0</ele><time>2026-04-16T14:52:30.733Z</time></trkpt><trkpt lat="40.3362683" lon="8.58838"><ele>318.0</ele><time>2026-04-16T14:52:31.732Z</time></trkpt><trkpt lat="40.3363433" lon="8.5882317"><ele>318.0</ele><time>2026-04-16T14:52:32.733Z</time></trkpt><trkpt lat="40.33637" lon="8.58809"><ele>318.0</ele><time>2026-04-16T14:52:33.733Z</time></trkpt><trkpt lat="40.3363483" lon="8.587955"><ele>318.0</ele><time>2026-04-16T14:52:34.733Z</time></trkpt><trkpt lat="40.3362783" lon="8.5878383"><ele>318.0</ele><time>2026-04-16T14:52:35.732Z</time></trkpt><trkpt lat="40.3361733" lon="8.5877467"><ele>319.75</ele><time>2026-04-16T14:52:36.732Z</time></trkpt><trkpt lat="40.33605" lon="8.5876583"><ele>321.5</ele><time>2026-04-16T14:52:37.732Z</time></trkpt><trkpt lat="40.3359233" lon="8.587555"><ele>323.25</ele><time>2026-04-16T14:52:38.732Z</time></trkpt><trkpt lat="40.335795" lon="8.587445"><ele>325.0</ele><time>2026-04-16T14:52:39.733Z</time></trkpt><trkpt lat="40.3356683" lon="8.5873333"><ele>326.0</ele><time>2026-04-16T14:52:40.733Z</time></trkpt><trkpt lat="40.33554" lon="8.5872083"><ele>327.0</ele><time>2026-04-16T14:52:41.733Z</time></trkpt><trkpt lat="40.3354117" lon="8.5870683"><ele>328.0</ele><time>2026-04-16T14:52:42.733Z</time></trkpt><trkpt lat="40.3353" lon="8.58691"><ele>328.0</ele><time>2026-04-16T14:52:43.732Z</time></trkpt><trkpt lat="40.3352" lon="8.5867267"><ele>328.0</ele><time>2026-04-16T14:52:44.733Z</time></trkpt><trkpt lat="40.3351117" lon="8.5865333"><ele>328.0</ele><time>2026-04-16T14:52:45.733Z</time></trkpt><trkpt lat="40.3350167" lon="8.5863467"><ele>328.0</ele><time>2026-04-16T14:52:46.732Z</time></trkpt><trkpt lat="40.334895" lon="8.586195"><ele>328.0</ele><time>2026-04-16T14:52:47.733Z</time></trkpt><trkpt lat="40.334745" lon="8.5860833"><ele>328.0</ele><time>2026-04-16T14:52:48.732Z</time></trkpt><trkpt lat="40.3345833" lon="8.586"><ele>328.0</ele><time>2026-04-16T14:52:49.733Z</time></trkpt><trkpt lat="40.334435" lon="8.5859217"><ele>328.0</ele><time>2026-04-16T14:52:50.733Z</time></trkpt><trkpt lat="40.3343167" lon="8.5858033"><ele>328.0</ele><time>2026-04-16T14:52:51.733Z</time></trkpt><trkpt lat="40.334215" lon="8.585645"><ele>328.0</ele><time>2026-04-16T14:52:52.733Z</time></trkpt><trkpt lat="40.3341233" lon="8.5854683"><ele>328.0</ele><time>2026-04-16T14:52:53.731Z</time></trkpt><trkpt lat="40.3340367" lon="8.5852967"><ele>328.0</ele><time>2026-04-16T14:52:54.732Z</time></trkpt><trkpt lat="40.333945" lon="8.5851533"><ele>329.0</ele><time>2026-04-16T14:52:55.731Z</time></trkpt><trkpt lat="40.33384" lon="8.5850667"><ele>330.0</ele><time>2026-04-16T14:52:56.732Z</time></trkpt><trkpt lat="40.3337083" lon="8.5850383"><ele>331.0</ele><time>2026-04-16T14:52:57.732Z</time></trkpt><trkpt lat="40.333565" lon="8.58506"><ele>332.0</ele><time>2026-04-16T14:52:58.731Z</time></trkpt><trkpt lat="40.3334133" lon="8.5850967"><ele>332.0</ele><time>2026-04-16T14:52:59.731Z</time></trkpt><trkpt lat="40.33326" lon="8.5851183"><ele>332.0</ele><time>2026-04-16T14:53:00.732Z</time></trkpt><trkpt lat="40.333095" lon="8.5851317"><ele>332.0</ele><time>2026-04-16T14:53:01.732Z</time></trkpt><trkpt lat="40.332935" lon="8.5851433"><ele>333.0</ele><time>2026-04-16T14:53:02.731Z</time></trkpt><trkpt lat="40.3327617" lon="8.58515"><ele>334.0</ele><time>2026-04-16T14:53:03.732Z</time></trkpt><trkpt lat="40.3325867" lon="8.585145"><ele>335.0</ele><time>2026-04-16T14:53:04.732Z</time></trkpt><trkpt lat="40.3324133" lon="8.5851517"><ele>335.0</ele><time>2026-04-16T14:53:05.731Z</time></trkpt><trkpt lat="40.3322517" lon="8.5851867"><ele>335.0</ele><time>2026-04-16T14:53:06.732Z</time></trkpt><trkpt lat="40.3321" lon="8.5852567"><ele>335.0</ele><time>2026-04-16T14:53:07.732Z</time></trkpt><trkpt lat="40.33196" lon="8.5853167"><ele>335.25</ele><time>2026-04-16T14:53:08.731Z</time></trkpt><trkpt lat="40.33182" lon="8.5853417"><ele>335.5</ele><time>2026-04-16T14:53:09.732Z</time></trkpt><trkpt lat="40.3316817" lon="8.5853117"><ele>335.75</ele><time>2026-04-16T14:53:10.732Z</time></trkpt><trkpt lat="40.331535" lon="8.58525"><ele>336.0</ele><time>2026-04-16T14:53:11.731Z</time></trkpt><trkpt lat="40.3313867" lon="8.5851767"><ele>336.3333333333333</ele><time>2026-04-16T14:53:12.732Z</time></trkpt><trkpt lat="40.331225" lon="8.585105"><ele>336.66666666666663</ele><time>2026-04-16T14:53:13.731Z</time></trkpt><trkpt lat="40.3310567" lon="8.5850367"><ele>337.0</ele><time>2026-04-16T14:53:14.732Z</time></trkpt><trkpt lat="40.3308783" lon="8.584955"><ele>337.0</ele><time>2026-04-16T14:53:15.731Z</time></trkpt><trkpt lat="40.33069" lon="8.5848717"><ele>337.0</ele><time>2026-04-16T14:53:16.732Z</time></trkpt><trkpt lat="40.3305017" lon="8.584785"><ele>337.0</ele><time>2026-04-16T14:53:17.732Z</time></trkpt><trkpt lat="40.3303033" lon="8.5846967"><ele>336.66666666666663</ele><time>2026-04-16T14:53:18.732Z</time></trkpt><trkpt lat="40.3301017" lon="8.5846067"><ele>336.3333333333333</ele><time>2026-04-16T14:53:19.732Z</time></trkpt><trkpt lat="40.3298917" lon="8.584515"><ele>336.0</ele><time>2026-04-16T14:53:20.732Z</time></trkpt><trkpt lat="40.3296833" lon="8.5844217"><ele>335.5</ele><time>2026-04-16T14:53:21.732Z</time></trkpt><trkpt lat="40.3294683" lon="8.5843267"><ele>335.0</ele><time>2026-04-16T14:53:22.732Z</time></trkpt><trkpt lat="40.329255" lon="8.5842333"><ele>335.0</ele><time>2026-04-16T14:53:23.731Z</time></trkpt><trkpt lat="40.3290383" lon="8.5841383"><ele>335.0</ele><time>2026-04-16T14:53:24.732Z</time></trkpt><trkpt lat="40.3288233" lon="8.5840417"><ele>335.33333333333337</ele><time>2026-04-16T14:53:25.731Z</time></trkpt><trkpt lat="40.3286083" lon="8.583945"><ele>335.6666666666667</ele><time>2026-04-16T14:53:26.732Z</time></trkpt><trkpt lat="40.3284" lon="8.5838467"><ele>336.0</ele><time>2026-04-16T14:53:27.731Z</time></trkpt><trkpt lat="40.3281867" lon="8.5837483"><ele>335.5</ele><time>2026-04-16T14:53:28.732Z</time></trkpt><trkpt lat="40.3279733" lon="8.5836533"><ele>335.0</ele><time>2026-04-16T14:53:29.731Z</time></trkpt><trkpt lat="40.32776" lon="8.5835617"><ele>335.0</ele><time>2026-04-16T14:53:30.732Z</time></trkpt><trkpt lat="40.32755" lon="8.5834567"><ele>335.0</ele><time>2026-04-16T14:53:31.732Z</time></trkpt><trkpt lat="40.3273417" lon="8.5833583"><ele>335.0</ele><time>2026-04-16T14:53:32.732Z</time></trkpt><trkpt lat="40.3271367" lon="8.5832583"><ele>335.33333333333337</ele><time>2026-04-16T14:53:33.732Z</time></trkpt><trkpt lat="40.32693" lon="8.5831667"><ele>335.6666666666667</ele><time>2026-04-16T14:53:34.732Z</time></trkpt><trkpt lat="40.3267233" lon="8.5830767"><ele>336.0</ele><time>2026-04-16T14:53:35.731Z</time></trkpt><trkpt lat="40.3265217" lon="8.5829883"><ele>336.0</ele><time>2026-04-16T14:53:36.732Z</time></trkpt><trkpt lat="40.3263183" lon="8.5829"><ele>336.0</ele><time>2026-04-16T14:53:37.731Z</time></trkpt><trkpt lat="40.3261167" lon="8.5828083"><ele>336.0</ele><time>2026-04-16T14:53:38.732Z</time></trkpt><trkpt lat="40.325915" lon="8.5827183"><ele>336.0</ele><time>2026-04-16T14:53:39.732Z</time></trkpt><trkpt lat="40.3257133" lon="8.5826267"><ele>336.0</ele><time>2026-04-16T14:53:40.731Z</time></trkpt><trkpt lat="40.3255117" lon="8.5825367"><ele>336.0</ele><time>2026-04-16T14:53:41.731Z</time></trkpt><trkpt lat="40.3253067" lon="8.5824483"><ele>335.0</ele><time>2026-04-16T14:53:42.731Z</time></trkpt><trkpt lat="40.3251" lon="8.582355"><ele>334.0</ele><time>2026-04-16T14:53:43.731Z</time></trkpt><trkpt lat="40.32489" lon="8.5822617"><ele>333.0</ele><time>2026-04-16T14:53:44.731Z</time></trkpt><trkpt lat="40.3246783" lon="8.5821667"><ele>332.0</ele><time>2026-04-16T14:53:45.731Z</time></trkpt><trkpt lat="40.324465" lon="8.58207"><ele>331.0</ele><time>2026-04-16T14:53:46.732Z</time></trkpt><trkpt lat="40.324255" lon="8.581975"><ele>330.0</ele><time>2026-04-16T14:53:47.731Z</time></trkpt><trkpt lat="40.3240433" lon="8.5818767"><ele>328.5</ele><time>2026-04-16T14:53:48.732Z</time></trkpt><trkpt lat="40.3238267" lon="8.5817817"><ele>327.0</ele><time>2026-04-16T14:53:49.731Z</time></trkpt><trkpt lat="40.3236133" lon="8.5816883"><ele>327.0</ele><time>2026-04-16T14:53:50.732Z</time></trkpt><trkpt lat="40.3234033" lon="8.581595"><ele>327.0</ele><time>2026-04-16T14:53:51.731Z</time></trkpt><trkpt lat="40.323195" lon="8.5815"><ele>327.0</ele><time>2026-04-16T14:53:52.732Z</time></trkpt><trkpt lat="40.3229883" lon="8.581405"><ele>327.3333333333333</ele><time>2026-04-16T14:53:53.732Z</time></trkpt><trkpt lat="40.3227767" lon="8.5813117"><ele>327.66666666666663</ele><time>2026-04-16T14:53:54.732Z</time></trkpt><trkpt lat="40.3225633" lon="8.5812217"><ele>328.0</ele><time>2026-04-16T14:53:55.731Z</time></trkpt><trkpt lat="40.3223517" lon="8.5811267"><ele>327.5</ele><time>2026-04-16T14:53:56.731Z</time></trkpt><trkpt lat="40.3221367" lon="8.5810283"><ele>327.0</ele><time>2026-04-16T14:53:57.731Z</time></trkpt><trkpt lat="40.32192" lon="8.5809283"><ele>327.0</ele><time>2026-04-16T14:53:58.731Z</time></trkpt><trkpt lat="40.321705" lon="8.5808317"><ele>327.0</ele><time>2026-04-16T14:53:59.732Z</time></trkpt><trkpt lat="40.3214867" lon="8.5807383"><ele>327.6666666666667</ele><time>2026-04-16T14:54:00.732Z</time></trkpt><trkpt lat="40.3212733" lon="8.5806417"><ele>328.33333333333337</ele><time>2026-04-16T14:54:01.731Z</time></trkpt><trkpt lat="40.32107" lon="8.58055"><ele>329.0</ele><time>2026-04-16T14:54:02.732Z</time></trkpt><trkpt lat="40.3208667" lon="8.5804583"><ele>329.0</ele><time>2026-04-16T14:54:03.732Z</time></trkpt><trkpt lat="40.3206617" lon="8.5803617"><ele>329.0</ele><time>2026-04-16T14:54:04.732Z</time></trkpt><trkpt lat="40.320455" lon="8.5802617"><ele>329.0</ele><time>2026-04-16T14:54:05.732Z</time></trkpt><trkpt lat="40.3202517" lon="8.58015"><ele>329.5</ele><time>2026-04-16T14:54:06.732Z</time></trkpt><trkpt lat="40.32005" lon="8.58003"><ele>330.0</ele><time>2026-04-16T14:54:07.732Z</time></trkpt><trkpt lat="40.319845" lon="8.5798983"><ele>330.5</ele><time>2026-04-16T14:54:08.731Z</time></trkpt><trkpt lat="40.3196467" lon="8.5797533"><ele>331.0</ele><time>2026-04-16T14:54:09.732Z</time></trkpt><trkpt lat="40.3194517" lon="8.5796"><ele>330.0</ele><time>2026-04-16T14:54:10.732Z</time></trkpt><trkpt lat="40.3192533" lon="8.5794533"><ele>329.0</ele><time>2026-04-16T14:54:11.732Z</time></trkpt><trkpt lat="40.3190517" lon="8.5793083"><ele>329.0</ele><time>2026-04-16T14:54:12.732Z</time></trkpt><trkpt lat="40.3188533" lon="8.5791617"><ele>329.0</ele><time>2026-04-16T14:54:13.732Z</time></trkpt><trkpt lat="40.3186567" lon="8.5790083"><ele>329.0</ele><time>2026-04-16T14:54:14.732Z</time></trkpt><trkpt lat="40.3184567" lon="8.5788633"><ele>329.0</ele><time>2026-04-16T14:54:15.732Z</time></trkpt><trkpt lat="40.3182567" lon="8.5787167"><ele>329.0</ele><time>2026-04-16T14:54:16.732Z</time></trkpt><trkpt lat="40.318055" lon="8.57857"><ele>329.0</ele><time>2026-04-16T14:54:17.732Z</time></trkpt><trkpt lat="40.3178583" lon="8.5784267"><ele>329.0</ele><time>2026-04-16T14:54:18.731Z</time></trkpt><trkpt lat="40.3176617" lon="8.5782767"><ele>329.0</ele><time>2026-04-16T14:54:19.731Z</time></trkpt><trkpt lat="40.317465" lon="8.57813"><ele>329.0</ele><time>2026-04-16T14:54:20.732Z</time></trkpt><trkpt lat="40.3172667" lon="8.5779767"><ele>329.0</ele><time>2026-04-16T14:54:21.732Z</time></trkpt><trkpt lat="40.317065" lon="8.5778233"><ele>330.0</ele><time>2026-04-16T14:54:22.731Z</time></trkpt><trkpt lat="40.316865" lon="8.577665"><ele>331.0</ele><time>2026-04-16T14:54:23.732Z</time></trkpt><trkpt lat="40.3166633" lon="8.5775183"><ele>331.0</ele><time>2026-04-16T14:54:24.732Z</time></trkpt><trkpt lat="40.31646" lon="8.5773683"><ele>331.0</ele><time>2026-04-16T14:54:25.732Z</time></trkpt><trkpt lat="40.3162583" lon="8.5772183"><ele>331.0</ele><time>2026-04-16T14:54:26.731Z</time></trkpt><trkpt lat="40.3160617" lon="8.5770667"><ele>331.0</ele><time>2026-04-16T14:54:27.731Z</time></trkpt><trkpt lat="40.315875" lon="8.5769233"><ele>331.0</ele><time>2026-04-16T14:54:28.731Z</time></trkpt><trkpt lat="40.3157133" lon="8.5767983"><ele>331.0</ele><time>2026-04-16T14:54:29.731Z</time></trkpt><trkpt lat="40.315575" lon="8.5767083"><ele>331.0</ele><time>2026-04-16T14:54:30.732Z</time></trkpt><trkpt lat="40.315445" lon="8.576645"><ele>331.0</ele><time>2026-04-16T14:54:31.731Z</time></trkpt><trkpt lat="40.315315" lon="8.5766367"><ele>331.0</ele><time>2026-04-16T14:54:32.732Z</time></trkpt><trkpt lat="40.315185" lon="8.576685"><ele>331.0</ele><time>2026-04-16T14:54:33.732Z</time></trkpt><trkpt lat="40.315065" lon="8.5767833"><ele>331.0</ele><time>2026-04-16T14:54:34.732Z</time></trkpt><trkpt lat="40.3149417" lon="8.57691"><ele>331.0</ele><time>2026-04-16T14:54:35.731Z</time></trkpt><trkpt lat="40.3148133" lon="8.5770317"><ele>333.3333333333333</ele><time>2026-04-16T14:54:36.732Z</time></trkpt><trkpt lat="40.314675" lon="8.5771567"><ele>335.6666666666667</ele><time>2026-04-16T14:54:37.731Z</time></trkpt><trkpt lat="40.3145333" lon="8.57729"><ele>338.0</ele><time>2026-04-16T14:54:38.731Z</time></trkpt><trkpt lat="40.3143833" lon="8.577435"><ele>338.0</ele><time>2026-04-16T14:54:39.731Z</time></trkpt><trkpt lat="40.31423" lon="8.5775933"><ele>338.0</ele><time>2026-04-16T14:54:40.732Z</time></trkpt><trkpt lat="40.314075" lon="8.5777433"><ele>338.0</ele><time>2026-04-16T14:54:41.731Z</time></trkpt><trkpt lat="40.313915" lon="8.577895"><ele>338.33333333333337</ele><time>2026-04-16T14:54:42.731Z</time></trkpt><trkpt lat="40.3137583" lon="8.5780533"><ele>338.6666666666667</ele><time>2026-04-16T14:54:43.731Z</time></trkpt><trkpt lat="40.3136033" lon="8.57822"><ele>339.0</ele><time>2026-04-16T14:54:44.732Z</time></trkpt><trkpt lat="40.3134433" lon="8.578385"><ele>339.0</ele><time>2026-04-16T14:54:45.731Z</time></trkpt><trkpt lat="40.3132783" lon="8.5785467"><ele>339.0</ele><time>2026-04-16T14:54:46.731Z</time></trkpt><trkpt lat="40.3131067" lon="8.5787083"><ele>339.0</ele><time>2026-04-16T14:54:47.732Z</time></trkpt><trkpt lat="40.31294" lon="8.5788717"><ele>339.6666666666667</ele><time>2026-04-16T14:54:48.731Z</time></trkpt><trkpt lat="40.3127717" lon="8.5790383"><ele>340.33333333333337</ele><time>2026-04-16T14:54:49.732Z</time></trkpt><trkpt lat="40.3126083" lon="8.5791967"><ele>341.0</ele><time>2026-04-16T14:54:50.732Z</time></trkpt><trkpt lat="40.3124467" lon="8.5793567"><ele>341.0</ele><time>2026-04-16T14:54:51.732Z</time></trkpt><trkpt lat="40.3122883" lon="8.5795133"><ele>341.0</ele><time>2026-04-16T14:54:52.732Z</time></trkpt><trkpt lat="40.3121283" lon="8.57967"><ele>341.0</ele><time>2026-04-16T14:54:53.732Z</time></trkpt><trkpt lat="40.31197" lon="8.5798283"><ele>342.0</ele><time>2026-04-16T14:54:54.732Z</time></trkpt><trkpt lat="40.3118167" lon="8.57998"><ele>343.0</ele><time>2026-04-16T14:54:55.732Z</time></trkpt><trkpt lat="40.311665" lon="8.5801333"><ele>344.0</ele><time>2026-04-16T14:54:56.731Z</time></trkpt><trkpt lat="40.3115117" lon="8.5802767"><ele>345.0</ele><time>2026-04-16T14:54:57.731Z</time></trkpt><trkpt lat="40.3113583" lon="8.58042"><ele>346.0</ele><time>2026-04-16T14:54:58.732Z</time></trkpt><trkpt lat="40.31121" lon="8.58057"><ele>347.0</ele><time>2026-04-16T14:54:59.731Z</time></trkpt><trkpt lat="40.3110617" lon="8.580715"><ele>347.0</ele><time>2026-04-16T14:55:00.732Z</time></trkpt><trkpt lat="40.3109117" lon="8.5808483"><ele>347.0</ele><time>2026-04-16T14:55:01.731Z</time></trkpt><trkpt lat="40.3107567" lon="8.580965"><ele>347.0</ele><time>2026-04-16T14:55:02.732Z</time></trkpt><trkpt lat="40.31059" lon="8.5810533"><ele>347.6666666666667</ele><time>2026-04-16T14:55:03.731Z</time></trkpt><trkpt lat="40.3104117" lon="8.581115"><ele>348.3333333333333</ele><time>2026-04-16T14:55:04.731Z</time></trkpt><trkpt lat="40.3102283" lon="8.5811667"><ele>349.0</ele><time>2026-04-16T14:55:05.732Z</time></trkpt><trkpt lat="40.3100467" lon="8.5812083"><ele>349.3333333333333</ele><time>2026-04-16T14:55:06.732Z</time></trkpt><trkpt lat="40.3098617" lon="8.5812467"><ele>349.6666666666667</ele><time>2026-04-16T14:55:07.732Z</time></trkpt><trkpt lat="40.3096733" lon="8.5812817"><ele>350.0</ele><time>2026-04-16T14:55:08.732Z</time></trkpt><trkpt lat="40.3094783" lon="8.581305"><ele>350.6666666666667</ele><time>2026-04-16T14:55:09.731Z</time></trkpt><trkpt lat="40.3092817" lon="8.581315"><ele>351.3333333333333</ele><time>2026-04-16T14:55:10.732Z</time></trkpt><trkpt lat="40.3090783" lon="8.581325"><ele>352.0</ele><time>2026-04-16T14:55:11.732Z</time></trkpt><trkpt lat="40.3088767" lon="8.581335"><ele>352.0</ele><time>2026-04-16T14:55:12.732Z</time></trkpt><trkpt lat="40.308675" lon="8.5813433"><ele>352.0</ele><time>2026-04-16T14:55:13.731Z</time></trkpt><trkpt lat="40.30847" lon="8.5813583"><ele>352.0</ele><time>2026-04-16T14:55:14.731Z</time></trkpt><trkpt lat="40.3082667" lon="8.5813683"><ele>352.66666666666663</ele><time>2026-04-16T14:55:15.731Z</time></trkpt><trkpt lat="40.30806" lon="8.5813783"><ele>353.3333333333333</ele><time>2026-04-16T14:55:16.732Z</time></trkpt><trkpt lat="40.3078617" lon="8.581385"><ele>354.0</ele><time>2026-04-16T14:55:17.732Z</time></trkpt><trkpt lat="40.3076617" lon="8.5813933"><ele>354.0</ele><time>2026-04-16T14:55:18.732Z</time></trkpt><trkpt lat="40.3074617" lon="8.5814083"><ele>354.0</ele><time>2026-04-16T14:55:19.732Z</time></trkpt><trkpt lat="40.3072617" lon="8.5814133"><ele>354.0</ele><time>2026-04-16T14:55:20.731Z</time></trkpt><trkpt lat="40.3070683" lon="8.581425"><ele>354.6666666666667</ele><time>2026-04-16T14:55:21.732Z</time></trkpt><trkpt lat="40.30687" lon="8.58143"><ele>355.33333333333337</ele><time>2026-04-16T14:55:22.732Z</time></trkpt><trkpt lat="40.3066783" lon="8.58144"><ele>356.0</ele><time>2026-04-16T14:55:23.731Z</time></trkpt><trkpt lat="40.3064817" lon="8.5814483"><ele>357.0</ele><time>2026-04-16T14:55:24.732Z</time></trkpt><trkpt lat="40.3062883" lon="8.5814617"><ele>358.0</ele><time>2026-04-16T14:55:25.732Z</time></trkpt><trkpt lat="40.306095" lon="8.5814733"><ele>359.0</ele><time>2026-04-16T14:55:26.732Z</time></trkpt><trkpt lat="40.305895" lon="8.581485"><ele>359.0</ele><time>2026-04-16T14:55:27.731Z</time></trkpt><trkpt lat="40.30571" lon="8.5815"><ele>359.0</ele><time>2026-04-16T14:55:28.732Z</time></trkpt><trkpt lat="40.305525" lon="8.5815133"><ele>359.0</ele><time>2026-04-16T14:55:29.731Z</time></trkpt><trkpt lat="40.3053467" lon="8.58153"><ele>359.6666666666667</ele><time>2026-04-16T14:55:30.731Z</time></trkpt><trkpt lat="40.305185" lon="8.58154"><ele>360.3333333333333</ele><time>2026-04-16T14:55:31.732Z</time></trkpt><trkpt lat="40.30502" lon="8.58157"><ele>361.0</ele><time>2026-04-16T14:55:32.732Z</time></trkpt><trkpt lat="40.3048633" lon="8.5816217"><ele>359.66666666666663</ele><time>2026-04-16T14:55:33.732Z</time></trkpt><trkpt lat="40.3047017" lon="8.5816967"><ele>358.3333333333333</ele><time>2026-04-16T14:55:34.732Z</time></trkpt><trkpt lat="40.30455" lon="8.5817983"><ele>357.0</ele><time>2026-04-16T14:55:35.732Z</time></trkpt><trkpt lat="40.3044033" lon="8.581915"><ele>358.3333333333333</ele><time>2026-04-16T14:55:36.731Z</time></trkpt><trkpt lat="40.3042633" lon="8.5820583"><ele>359.66666666666663</ele><time>2026-04-16T14:55:37.731Z</time></trkpt><trkpt lat="40.304135" lon="8.58221"><ele>361.0</ele><time>2026-04-16T14:55:38.732Z</time></trkpt><trkpt lat="40.304035" lon="8.5823817"><ele>361.0</ele><time>2026-04-16T14:55:39.732Z</time></trkpt><trkpt lat="40.303945" lon="8.582545"><ele>361.0</ele><time>2026-04-16T14:55:40.732Z</time></trkpt><trkpt lat="40.3038533" lon="8.582685"><ele>361.0</ele><time>2026-04-16T14:55:41.731Z</time></trkpt><trkpt lat="40.3037583" lon="8.58281"><ele>361.0</ele><time>2026-04-16T14:55:42.732Z</time></trkpt><trkpt lat="40.303655" lon="8.58291"><ele>360.75</ele><time>2026-04-16T14:55:43.731Z</time></trkpt><trkpt lat="40.3035367" lon="8.5829783"><ele>360.5</ele><time>2026-04-16T14:55:44.731Z</time></trkpt><trkpt lat="40.3034017" lon="8.583015"><ele>360.25</ele><time>2026-04-16T14:55:45.732Z</time></trkpt><trkpt lat="40.3032667" lon="8.5830183"><ele>360.0</ele><time>2026-04-16T14:55:46.732Z</time></trkpt><trkpt lat="40.30313" lon="8.5829867"><ele>360.75</ele><time>2026-04-16T14:55:47.732Z</time></trkpt><trkpt lat="40.3029933" lon="8.5829067"><ele>361.5</ele><time>2026-04-16T14:55:48.731Z</time></trkpt><trkpt lat="40.3028667" lon="8.58282"><ele>362.25</ele><time>2026-04-16T14:55:49.73Z</time></trkpt><trkpt lat="40.3027483" lon="8.5827467"><ele>363.0</ele><time>2026-04-16T14:55:50.731Z</time></trkpt><trkpt lat="40.302655" lon="8.5826717"><ele>361.8333333333333</ele><time>2026-04-16T14:55:51.731Z</time></trkpt><trkpt lat="40.30259" lon="8.5825983"><ele>360.6666666666667</ele><time>2026-04-16T14:55:52.731Z</time></trkpt><trkpt lat="40.3025633" lon="8.5825117"><ele>359.5</ele><time>2026-04-16T14:55:53.731Z</time></trkpt><trkpt lat="40.30259" lon="8.58241"><ele>358.33333333333337</ele><time>2026-04-16T14:55:54.731Z</time></trkpt><trkpt lat="40.30264" lon="8.582295"><ele>357.1666666666667</ele><time>2026-04-16T14:55:55.731Z</time></trkpt><trkpt lat="40.3026817" lon="8.5821733"><ele>356.0</ele><time>2026-04-16T14:55:56.73Z</time></trkpt><trkpt lat="40.3026867" lon="8.582045"><ele>355.5</ele><time>2026-04-16T14:55:57.73Z</time></trkpt><trkpt lat="40.3026467" lon="8.581915"><ele>355.0</ele><time>2026-04-16T14:55:58.73Z</time></trkpt><trkpt lat="40.3025667" lon="8.5818"><ele>354.5</ele><time>2026-04-16T14:55:59.731Z</time></trkpt><trkpt lat="40.302465" lon="8.5816917"><ele>354.0</ele><time>2026-04-16T14:56:00.73Z</time></trkpt><trkpt lat="40.3023583" lon="8.58157"><ele>354.3333333333333</ele><time>2026-04-16T14:56:01.731Z</time></trkpt><trkpt lat="40.3022467" lon="8.58144"><ele>354.66666666666663</ele><time>2026-04-16T14:56:02.731Z</time></trkpt><trkpt lat="40.30213" lon="8.58131"><ele>355.0</ele><time>2026-04-16T14:56:03.73Z</time></trkpt><trkpt lat="40.3020067" lon="8.5811767"><ele>357.0</ele><time>2026-04-16T14:56:04.731Z</time></trkpt><trkpt lat="40.30188" lon="8.58103"><ele>359.0</ele><time>2026-04-16T14:56:05.731Z</time></trkpt><trkpt lat="40.301755" lon="8.5808717"><ele>361.0</ele><time>2026-04-16T14:56:06.731Z</time></trkpt><trkpt lat="40.3016317" lon="8.5807167"><ele>361.0</ele><time>2026-04-16T14:56:07.731Z</time></trkpt><trkpt lat="40.3015083" lon="8.580565"><ele>361.0</ele><time>2026-04-16T14:56:08.731Z</time></trkpt><trkpt lat="40.3013833" lon="8.58041"><ele>361.0</ele><time>2026-04-16T14:56:09.73Z</time></trkpt><trkpt lat="40.3012467" lon="8.5802533"><ele>363.0</ele><time>2026-04-16T14:56:10.731Z</time></trkpt><trkpt lat="40.3011233" lon="8.5800833"><ele>365.0</ele><time>2026-04-16T14:56:11.73Z</time></trkpt><trkpt lat="40.300985" lon="8.5799183"><ele>367.0</ele><time>2026-04-16T14:56:12.731Z</time></trkpt><trkpt lat="40.3008417" lon="8.57976"><ele>367.0</ele><time>2026-04-16T14:56:13.73Z</time></trkpt><trkpt lat="40.3006967" lon="8.5795917"><ele>367.0</ele><time>2026-04-16T14:56:14.73Z</time></trkpt><trkpt lat="40.3005533" lon="8.5794283"><ele>367.0</ele><time>2026-04-16T14:56:15.731Z</time></trkpt><trkpt lat="40.3004117" lon="8.5792567"><ele>367.66666666666663</ele><time>2026-04-16T14:56:16.731Z</time></trkpt><trkpt lat="40.3002683" lon="8.5790833"><ele>368.3333333333333</ele><time>2026-04-16T14:56:17.731Z</time></trkpt><trkpt lat="40.30012" lon="8.578925"><ele>369.0</ele><time>2026-04-16T14:56:18.731Z</time></trkpt><trkpt lat="40.2999633" lon="8.5787767"><ele>368.3333333333333</ele><time>2026-04-16T14:56:19.73Z</time></trkpt><trkpt lat="40.2998" lon="8.5786317"><ele>367.66666666666663</ele><time>2026-04-16T14:56:20.731Z</time></trkpt><trkpt lat="40.299635" lon="8.5784783"><ele>367.0</ele><time>2026-04-16T14:56:21.73Z</time></trkpt><trkpt lat="40.2994783" lon="8.578325"><ele>366.66666666666663</ele><time>2026-04-16T14:56:22.731Z</time></trkpt><trkpt lat="40.299325" lon="8.5781583"><ele>366.3333333333333</ele><time>2026-04-16T14:56:23.73Z</time></trkpt><trkpt lat="40.2991633" lon="8.5779983"><ele>366.0</ele><time>2026-04-16T14:56:24.731Z</time></trkpt><trkpt lat="40.298995" lon="8.5778417"><ele>364.6666666666667</ele><time>2026-04-16T14:56:25.73Z</time></trkpt><trkpt lat="40.2988283" lon="8.5776867"><ele>363.33333333333337</ele><time>2026-04-16T14:56:26.731Z</time></trkpt><trkpt lat="40.2986667" lon="8.5775283"><ele>362.0</ele><time>2026-04-16T14:56:27.731Z</time></trkpt><trkpt lat="40.2985067" lon="8.5773733"><ele>362.0</ele><time>2026-04-16T14:56:28.73Z</time></trkpt><trkpt lat="40.2983433" lon="8.5772117"><ele>362.0</ele><time>2026-04-16T14:56:29.731Z</time></trkpt><trkpt lat="40.2981817" lon="8.5770567"><ele>362.0</ele><time>2026-04-16T14:56:30.73Z</time></trkpt><trkpt lat="40.2980167" lon="8.5768967"><ele>363.0</ele><time>2026-04-16T14:56:31.73Z</time></trkpt><trkpt lat="40.2978617" lon="8.5767417"><ele>364.0</ele><time>2026-04-16T14:56:32.731Z</time></trkpt><trkpt lat="40.2977" lon="8.5765817"><ele>365.0</ele><time>2026-04-16T14:56:33.731Z</time></trkpt><trkpt lat="40.2975383" lon="8.5764267"><ele>365.0</ele><time>2026-04-16T14:56:34.731Z</time></trkpt><trkpt lat="40.2973783" lon="8.57626"><ele>365.0</ele><time>2026-04-16T14:56:35.731Z</time></trkpt><trkpt lat="40.2972167" lon="8.5760983"><ele>365.0</ele><time>2026-04-16T14:56:36.731Z</time></trkpt><trkpt lat="40.297055" lon="8.5759433"><ele>365.33333333333337</ele><time>2026-04-16T14:56:37.731Z</time></trkpt><trkpt lat="40.296895" lon="8.5757867"><ele>365.6666666666667</ele><time>2026-04-16T14:56:38.73Z</time></trkpt><trkpt lat="40.2967267" lon="8.5756267"><ele>366.0</ele><time>2026-04-16T14:56:39.731Z</time></trkpt><trkpt lat="40.2965633" lon="8.57547"><ele>365.3333333333333</ele><time>2026-04-16T14:56:40.73Z</time></trkpt><trkpt lat="40.2964017" lon="8.5753183"><ele>364.66666666666663</ele><time>2026-04-16T14:56:41.731Z</time></trkpt><trkpt lat="40.2962333" lon="8.5751617"><ele>364.0</ele><time>2026-04-16T14:56:42.731Z</time></trkpt><trkpt lat="40.2960717" lon="8.5749967"><ele>364.0</ele><time>2026-04-16T14:56:43.73Z</time></trkpt><trkpt lat="40.295915" lon="8.5748267"><ele>364.0</ele><time>2026-04-16T14:56:44.731Z</time></trkpt><trkpt lat="40.2957717" lon="8.57464"><ele>364.0</ele><time>2026-04-16T14:56:45.731Z</time></trkpt><trkpt lat="40.2956367" lon="8.5744483"><ele>364.3333333333333</ele><time>2026-04-16T14:56:46.731Z</time></trkpt><trkpt lat="40.2955017" lon="8.5742467"><ele>364.6666666666667</ele><time>2026-04-16T14:56:47.73Z</time></trkpt><trkpt lat="40.29536" lon="8.57405"><ele>365.0</ele><time>2026-04-16T14:56:48.731Z</time></trkpt><trkpt lat="40.2952183" lon="8.573855"><ele>364.33333333333337</ele><time>2026-04-16T14:56:49.731Z</time></trkpt><trkpt lat="40.295075" lon="8.5736583"><ele>363.6666666666667</ele><time>2026-04-16T14:56:50.731Z</time></trkpt><trkpt lat="40.294935" lon="8.573455"><ele>363.0</ele><time>2026-04-16T14:56:51.73Z</time></trkpt><trkpt lat="40.2947883" lon="8.573255"><ele>362.6666666666667</ele><time>2026-04-16T14:56:52.731Z</time></trkpt><trkpt lat="40.29465" lon="8.5730633"><ele>362.33333333333337</ele><time>2026-04-16T14:56:53.73Z</time></trkpt><trkpt lat="40.2945117" lon="8.5728717"><ele>362.0</ele><time>2026-04-16T14:56:54.73Z</time></trkpt><trkpt lat="40.2943767" lon="8.5726767"><ele>361.6666666666667</ele><time>2026-04-16T14:56:55.731Z</time></trkpt><trkpt lat="40.294235" lon="8.5724817"><ele>361.3333333333333</ele><time>2026-04-16T14:56:56.731Z</time></trkpt><trkpt lat="40.2941017" lon="8.5722833"><ele>361.0</ele><time>2026-04-16T14:56:57.73Z</time></trkpt><trkpt lat="40.2939617" lon="8.5720933"><ele>360.3333333333333</ele><time>2026-04-16T14:56:58.731Z</time></trkpt><trkpt lat="40.2938217" lon="8.5719"><ele>359.6666666666667</ele><time>2026-04-16T14:56:59.731Z</time></trkpt><trkpt lat="40.2936817" lon="8.57171"><ele>359.0</ele><time>2026-04-16T14:57:00.731Z</time></trkpt><trkpt lat="40.2935433" lon="8.57152"><ele>359.0</ele><time>2026-04-16T14:57:01.731Z</time></trkpt><trkpt lat="40.2934083" lon="8.57133"><ele>359.0</ele><time>2026-04-16T14:57:02.73Z</time></trkpt><trkpt lat="40.2932733" lon="8.5711467"><ele>359.0</ele><time>2026-04-16T14:57:03.731Z</time></trkpt><trkpt lat="40.29314" lon="8.5709633"><ele>358.33333333333337</ele><time>2026-04-16T14:57:04.73Z</time></trkpt><trkpt lat="40.29301" lon="8.570785"><ele>357.6666666666667</ele><time>2026-04-16T14:57:05.731Z</time></trkpt><trkpt lat="40.29288" lon="8.5706017"><ele>357.0</ele><time>2026-04-16T14:57:06.731Z</time></trkpt><trkpt lat="40.292755" lon="8.570415"><ele>357.6666666666667</ele><time>2026-04-16T14:57:07.73Z</time></trkpt><trkpt lat="40.2926333" lon="8.5702183"><ele>358.33333333333337</ele><time>2026-04-16T14:57:08.73Z</time></trkpt><trkpt lat="40.2925233" lon="8.5700083"><ele>359.0</ele><time>2026-04-16T14:57:09.73Z</time></trkpt><trkpt lat="40.292425" lon="8.5697883"><ele>359.0</ele><time>2026-04-16T14:57:10.731Z</time></trkpt><trkpt lat="40.2923367" lon="8.5695567"><ele>359.0</ele><time>2026-04-16T14:57:11.73Z</time></trkpt><trkpt lat="40.292255" lon="8.569315"><ele>359.0</ele><time>2026-04-16T14:57:12.731Z</time></trkpt><trkpt lat="40.29218" lon="8.5690683"><ele>357.6666666666667</ele><time>2026-04-16T14:57:13.731Z</time></trkpt><trkpt lat="40.2921033" lon="8.5688133"><ele>356.3333333333333</ele><time>2026-04-16T14:57:14.73Z</time></trkpt><trkpt lat="40.29202" lon="8.5685633"><ele>355.0</ele><time>2026-04-16T14:57:15.731Z</time></trkpt><trkpt lat="40.291935" lon="8.5683083"><ele>355.0</ele><time>2026-04-16T14:57:16.731Z</time></trkpt><trkpt lat="40.2918483" lon="8.5680533"><ele>355.0</ele><time>2026-04-16T14:57:17.73Z</time></trkpt><trkpt lat="40.2917667" lon="8.5678"><ele>355.0</ele><time>2026-04-16T14:57:18.73Z</time></trkpt><trkpt lat="40.2916933" lon="8.5675567"><ele>354.3333333333333</ele><time>2026-04-16T14:57:19.731Z</time></trkpt><trkpt lat="40.2916233" lon="8.5673333"><ele>353.6666666666667</ele><time>2026-04-16T14:57:20.731Z</time></trkpt><trkpt lat="40.29156" lon="8.56712"><ele>353.0</ele><time>2026-04-16T14:57:21.731Z</time></trkpt><trkpt lat="40.2915" lon="8.5669217"><ele>352.5</ele><time>2026-04-16T14:57:22.73Z</time></trkpt><trkpt lat="40.291435" lon="8.5667467"><ele>352.0</ele><time>2026-04-16T14:57:23.731Z</time></trkpt><trkpt lat="40.29136" lon="8.5666033"><ele>351.5</ele><time>2026-04-16T14:57:24.731Z</time></trkpt><trkpt lat="40.2912567" lon="8.5665033"><ele>351.0</ele><time>2026-04-16T14:57:25.73Z</time></trkpt><trkpt lat="40.2911233" lon="8.5664467"><ele>350.0</ele><time>2026-04-16T14:57:26.73Z</time></trkpt><trkpt lat="40.290975" lon="8.566435"><ele>349.0</ele><time>2026-04-16T14:57:27.73Z</time></trkpt><trkpt lat="40.290815" lon="8.5664267"><ele>348.0</ele><time>2026-04-16T14:57:28.731Z</time></trkpt><trkpt lat="40.2906567" lon="8.5664083"><ele>347.3333333333333</ele><time>2026-04-16T14:57:29.73Z</time></trkpt><trkpt lat="40.2904933" lon="8.5663867"><ele>346.66666666666663</ele><time>2026-04-16T14:57:30.73Z</time></trkpt><trkpt lat="40.2903317" lon="8.5663733"><ele>346.0</ele><time>2026-04-16T14:57:31.73Z</time></trkpt><trkpt lat="40.2901717" lon="8.56636"><ele>346.0</ele><time>2026-04-16T14:57:32.731Z</time></trkpt><trkpt lat="40.2900267" lon="8.5663467"><ele>346.0</ele><time>2026-04-16T14:57:33.731Z</time></trkpt><trkpt lat="40.2898833" lon="8.5663283"><ele>346.0</ele><time>2026-04-16T14:57:34.731Z</time></trkpt><trkpt lat="40.289755" lon="8.566335"><ele>346.0</ele><time>2026-04-16T14:57:35.731Z</time></trkpt><trkpt lat="40.2896433" lon="8.5663633"><ele>345.0</ele><time>2026-04-16T14:57:36.731Z</time></trkpt><trkpt lat="40.289535" lon="8.5664283"><ele>344.0</ele><time>2026-04-16T14:57:37.73Z</time></trkpt><trkpt lat="40.289435" lon="8.5664967"><ele>343.0</ele><time>2026-04-16T14:57:38.73Z</time></trkpt><trkpt lat="40.28933" lon="8.5665233"><ele>342.0</ele><time>2026-04-16T14:57:39.731Z</time></trkpt><trkpt lat="40.2892233" lon="8.5664833"><ele>342.0</ele><time>2026-04-16T14:57:40.73Z</time></trkpt><trkpt lat="40.28912" lon="8.5664083"><ele>342.0</ele><time>2026-04-16T14:57:41.73Z</time></trkpt><trkpt lat="40.2890233" lon="8.5663417"><ele>342.0</ele><time>2026-04-16T14:57:42.73Z</time></trkpt><trkpt lat="40.2889483" lon="8.5662617"><ele>342.0</ele><time>2026-04-16T14:57:43.731Z</time></trkpt><trkpt lat="40.2889017" lon="8.56616"><ele>342.0</ele><time>2026-04-16T14:57:44.73Z</time></trkpt><trkpt lat="40.2888917" lon="8.5660233"><ele>341.75</ele><time>2026-04-16T14:57:45.731Z</time></trkpt><trkpt lat="40.2889033" lon="8.565875"><ele>341.5</ele><time>2026-04-16T14:57:46.73Z</time></trkpt><trkpt lat="40.28893" lon="8.56571"><ele>341.25</ele><time>2026-04-16T14:57:47.731Z</time></trkpt><trkpt lat="40.2889617" lon="8.5655233"><ele>341.0</ele><time>2026-04-16T14:57:48.731Z</time></trkpt><trkpt lat="40.2889983" lon="8.5653267"><ele>341.0</ele><time>2026-04-16T14:57:49.73Z</time></trkpt><trkpt lat="40.289035" lon="8.565135"><ele>341.0</ele><time>2026-04-16T14:57:50.731Z</time></trkpt><trkpt lat="40.2890683" lon="8.5649667"><ele>341.0</ele><time>2026-04-16T14:57:51.731Z</time></trkpt><trkpt lat="40.2891" lon="8.5648117"><ele>341.0</ele><time>2026-04-16T14:57:52.73Z</time></trkpt><trkpt lat="40.2891283" lon="8.5646683"><ele>341.6</ele><time>2026-04-16T14:57:53.73Z</time></trkpt><trkpt lat="40.2891517" lon="8.5645217"><ele>342.20000000000005</ele><time>2026-04-16T14:57:54.731Z</time></trkpt><trkpt lat="40.2891767" lon="8.5643817"><ele>342.79999999999995</ele><time>2026-04-16T14:57:55.731Z</time></trkpt><trkpt lat="40.289195" lon="8.56425"><ele>343.4</ele><time>2026-04-16T14:57:56.731Z</time></trkpt><trkpt lat="40.2891933" lon="8.5641133"><ele>344.0</ele><time>2026-04-16T14:57:57.731Z</time></trkpt><trkpt lat="40.2891683" lon="8.5639783"><ele>344.0</ele><time>2026-04-16T14:57:58.731Z</time></trkpt><trkpt lat="40.2891017" lon="8.5638483"><ele>344.0</ele><time>2026-04-16T14:57:59.731Z</time></trkpt><trkpt lat="40.2890033" lon="8.5637233"><ele>344.0</ele><time>2026-04-16T14:58:00.73Z</time></trkpt><trkpt lat="40.2888917" lon="8.5635767"><ele>344.0</ele><time>2026-04-16T14:58:01.73Z</time></trkpt><trkpt lat="40.288785" lon="8.5634017"><ele>343.6666666666667</ele><time>2026-04-16T14:58:02.73Z</time></trkpt><trkpt lat="40.2886717" lon="8.563205"><ele>343.3333333333333</ele><time>2026-04-16T14:58:03.73Z</time></trkpt><trkpt lat="40.288555" lon="8.5629917"><ele>343.0</ele><time>2026-04-16T14:58:04.731Z</time></trkpt><trkpt lat="40.28842" lon="8.5627767"><ele>343.0</ele><time>2026-04-16T14:58:05.731Z</time></trkpt><trkpt lat="40.288275" lon="8.5625617"><ele>343.0</ele><time>2026-04-16T14:58:06.731Z</time></trkpt><trkpt lat="40.2881333" lon="8.562345"><ele>343.0</ele><time>2026-04-16T14:58:07.73Z</time></trkpt><trkpt lat="40.287985" lon="8.5621217"><ele>344.5</ele><time>2026-04-16T14:58:08.731Z</time></trkpt><trkpt lat="40.2878383" lon="8.5618967"><ele>346.0</ele><time>2026-04-16T14:58:09.73Z</time></trkpt><trkpt lat="40.28769" lon="8.5616733"><ele>346.0</ele><time>2026-04-16T14:58:10.731Z</time></trkpt><trkpt lat="40.2875417" lon="8.56145"><ele>346.0</ele><time>2026-04-16T14:58:11.731Z</time></trkpt><trkpt lat="40.2874033" lon="8.5612283"><ele>346.0</ele><time>2026-04-16T14:58:12.73Z</time></trkpt><trkpt lat="40.2872583" lon="8.5610067"><ele>346.0</ele><time>2026-04-16T14:58:13.731Z</time></trkpt><trkpt lat="40.2871183" lon="8.5607833"><ele>346.0</ele><time>2026-04-16T14:58:14.73Z</time></trkpt><trkpt lat="40.2869783" lon="8.5605583"><ele>346.0</ele><time>2026-04-16T14:58:15.731Z</time></trkpt><trkpt lat="40.2868433" lon="8.5603217"><ele>346.0</ele><time>2026-04-16T14:58:16.73Z</time></trkpt><trkpt lat="40.28671" lon="8.560085"><ele>346.0</ele><time>2026-04-16T14:58:17.731Z</time></trkpt><trkpt lat="40.286575" lon="8.5598433"><ele>346.0</ele><time>2026-04-16T14:58:18.731Z</time></trkpt><trkpt lat="40.2864317" lon="8.559605"><ele>346.0</ele><time>2026-04-16T14:58:19.73Z</time></trkpt><trkpt lat="40.2862867" lon="8.5593633"><ele>346.0</ele><time>2026-04-16T14:58:20.731Z</time></trkpt><trkpt lat="40.2861467" lon="8.55912"><ele>346.0</ele><time>2026-04-16T14:58:21.73Z</time></trkpt><trkpt lat="40.2860017" lon="8.5588733"><ele>346.0</ele><time>2026-04-16T14:58:22.731Z</time></trkpt><trkpt lat="40.2858567" lon="8.5586217"><ele>346.0</ele><time>2026-04-16T14:58:23.731Z</time></trkpt><trkpt lat="40.2857133" lon="8.55837"><ele>347.0</ele><time>2026-04-16T14:58:24.731Z</time></trkpt><trkpt lat="40.2855717" lon="8.5581267"><ele>348.0</ele><time>2026-04-16T14:58:25.731Z</time></trkpt><trkpt lat="40.2854333" lon="8.55788"><ele>348.0</ele><time>2026-04-16T14:58:26.731Z</time></trkpt><trkpt lat="40.2853017" lon="8.5576417"><ele>348.0</ele><time>2026-04-16T14:58:27.731Z</time></trkpt><trkpt lat="40.2851633" lon="8.5574117"><ele>348.0</ele><time>2026-04-16T14:58:28.731Z</time></trkpt><trkpt lat="40.2850383" lon="8.5571983"><ele>348.3333333333333</ele><time>2026-04-16T14:58:29.73Z</time></trkpt><trkpt lat="40.2849233" lon="8.556995"><ele>348.66666666666663</ele><time>2026-04-16T14:58:30.73Z</time></trkpt><trkpt lat="40.2848267" lon="8.5567967"><ele>349.0</ele><time>2026-04-16T14:58:31.731Z</time></trkpt><trkpt lat="40.284745" lon="8.55658"><ele>349.0</ele><time>2026-04-16T14:58:32.731Z</time></trkpt><trkpt lat="40.28468" lon="8.5563533"><ele>349.0</ele><time>2026-04-16T14:58:33.731Z</time></trkpt><trkpt lat="40.2846417" lon="8.556105"><ele>349.0</ele><time>2026-04-16T14:58:34.731Z</time></trkpt><trkpt lat="40.28462" lon="8.5558533"><ele>349.0</ele><time>2026-04-16T14:58:35.731Z</time></trkpt><trkpt lat="40.2845933" lon="8.5556017"><ele>349.0</ele><time>2026-04-16T14:58:36.73Z</time></trkpt><trkpt lat="40.28455" lon="8.5553583"><ele>349.0</ele><time>2026-04-16T14:58:37.73Z</time></trkpt><trkpt lat="40.28449" lon="8.55512"><ele>349.0</ele><time>2026-04-16T14:58:38.73Z</time></trkpt><trkpt lat="40.28441" lon="8.5548867"><ele>349.0</ele><time>2026-04-16T14:58:39.73Z</time></trkpt><trkpt lat="40.2843067" lon="8.5546583"><ele>349.0</ele><time>2026-04-16T14:58:40.729Z</time></trkpt><trkpt lat="40.2841883" lon="8.5544283"><ele>348.66666666666663</ele><time>2026-04-16T14:58:41.729Z</time></trkpt><trkpt lat="40.2840733" lon="8.5541933"><ele>348.3333333333333</ele><time>2026-04-16T14:58:42.73Z</time></trkpt><trkpt lat="40.2839583" lon="8.553955"><ele>348.0</ele><time>2026-04-16T14:58:43.729Z</time></trkpt><trkpt lat="40.2838517" lon="8.55373"><ele>347.3333333333333</ele><time>2026-04-16T14:58:44.729Z</time></trkpt><trkpt lat="40.2837583" lon="8.5535267"><ele>346.66666666666663</ele><time>2026-04-16T14:58:45.729Z</time></trkpt><trkpt lat="40.2836717" lon="8.5533467"><ele>346.0</ele><time>2026-04-16T14:58:46.73Z</time></trkpt><trkpt lat="40.2835983" lon="8.5531783"><ele>346.0</ele><time>2026-04-16T14:58:47.729Z</time></trkpt><trkpt lat="40.2835383" lon="8.5530383"><ele>346.0</ele><time>2026-04-16T14:58:48.73Z</time></trkpt><trkpt lat="40.2834967" lon="8.5529"><ele>346.0</ele><time>2026-04-16T14:58:49.729Z</time></trkpt><trkpt lat="40.283475" lon="8.5527467"><ele>346.0</ele><time>2026-04-16T14:58:50.73Z</time></trkpt><trkpt lat="40.2834833" lon="8.5525783"><ele>346.3333333333333</ele><time>2026-04-16T14:58:51.73Z</time></trkpt><trkpt lat="40.283515" lon="8.552395"><ele>346.6666666666667</ele><time>2026-04-16T14:58:52.73Z</time></trkpt><trkpt lat="40.283565" lon="8.5521967"><ele>347.0</ele><time>2026-04-16T14:58:53.73Z</time></trkpt><trkpt lat="40.2836183" lon="8.55198"><ele>347.0</ele><time>2026-04-16T14:58:54.729Z</time></trkpt><trkpt lat="40.2836667" lon="8.551755"><ele>347.0</ele><time>2026-04-16T14:58:55.729Z</time></trkpt><trkpt lat="40.283705" lon="8.5515183"><ele>347.0</ele><time>2026-04-16T14:58:56.73Z</time></trkpt><trkpt lat="40.2837283" lon="8.55127"><ele>346.6666666666667</ele><time>2026-04-16T14:58:57.73Z</time></trkpt><trkpt lat="40.2837417" lon="8.5510083"><ele>346.3333333333333</ele><time>2026-04-16T14:58:58.73Z</time></trkpt><trkpt lat="40.2837417" lon="8.55075"><ele>346.0</ele><time>2026-04-16T14:58:59.729Z</time></trkpt><trkpt lat="40.2837367" lon="8.55049"><ele>345.3333333333333</ele><time>2026-04-16T14:59:00.73Z</time></trkpt><trkpt lat="40.2837283" lon="8.55023"><ele>344.6666666666667</ele><time>2026-04-16T14:59:01.73Z</time></trkpt><trkpt lat="40.28372" lon="8.5499567"><ele>344.0</ele><time>2026-04-16T14:59:02.73Z</time></trkpt><trkpt lat="40.2837083" lon="8.5496833"><ele>343.6666666666667</ele><time>2026-04-16T14:59:03.729Z</time></trkpt><trkpt lat="40.283705" lon="8.549405"><ele>343.3333333333333</ele><time>2026-04-16T14:59:04.729Z</time></trkpt><trkpt lat="40.2836933" lon="8.54913"><ele>343.0</ele><time>2026-04-16T14:59:05.73Z</time></trkpt><trkpt lat="40.2836817" lon="8.548855"><ele>342.3333333333333</ele><time>2026-04-16T14:59:06.729Z</time></trkpt><trkpt lat="40.2836783" lon="8.5485817"><ele>341.6666666666667</ele><time>2026-04-16T14:59:07.73Z</time></trkpt><trkpt lat="40.283665" lon="8.5483183"><ele>341.0</ele><time>2026-04-16T14:59:08.729Z</time></trkpt><trkpt lat="40.283655" lon="8.548055"><ele>340.33333333333337</ele><time>2026-04-16T14:59:09.73Z</time></trkpt><trkpt lat="40.28366" lon="8.5477883"><ele>339.6666666666667</ele><time>2026-04-16T14:59:10.729Z</time></trkpt><trkpt lat="40.2836567" lon="8.5475233"><ele>339.0</ele><time>2026-04-16T14:59:11.73Z</time></trkpt><trkpt lat="40.283645" lon="8.547255"><ele>338.6666666666667</ele><time>2026-04-16T14:59:12.73Z</time></trkpt><trkpt lat="40.28364" lon="8.547"><ele>338.33333333333337</ele><time>2026-04-16T14:59:13.73Z</time></trkpt><trkpt lat="40.2836333" lon="8.5467383"><ele>338.0</ele><time>2026-04-16T14:59:14.729Z</time></trkpt><trkpt lat="40.28363" lon="8.5464883"><ele>338.0</ele><time>2026-04-16T14:59:15.73Z</time></trkpt><trkpt lat="40.283625" lon="8.5462317"><ele>338.0</ele><time>2026-04-16T14:59:16.73Z</time></trkpt><trkpt lat="40.2836167" lon="8.5459783"><ele>338.0</ele><time>2026-04-16T14:59:17.73Z</time></trkpt><trkpt lat="40.2836183" lon="8.54574"><ele>337.33333333333337</ele><time>2026-04-16T14:59:18.729Z</time></trkpt><trkpt lat="40.2836167" lon="8.54553"><ele>336.6666666666667</ele><time>2026-04-16T14:59:19.729Z</time></trkpt><trkpt lat="40.2836233" lon="8.5453333"><ele>336.0</ele><time>2026-04-16T14:59:20.729Z</time></trkpt><trkpt lat="40.2836483" lon="8.5451383"><ele>335.0</ele><time>2026-04-16T14:59:21.73Z</time></trkpt><trkpt lat="40.2837117" lon="8.5449517"><ele>334.0</ele><time>2026-04-16T14:59:22.73Z</time></trkpt><trkpt lat="40.2838117" lon="8.5447833"><ele>333.0</ele><time>2026-04-16T14:59:23.729Z</time></trkpt><trkpt lat="40.2839367" lon="8.5446367"><ele>332.3333333333333</ele><time>2026-04-16T14:59:24.729Z</time></trkpt><trkpt lat="40.284085" lon="8.5444967"><ele>331.66666666666663</ele><time>2026-04-16T14:59:25.73Z</time></trkpt><trkpt lat="40.2842333" lon="8.54434"><ele>331.0</ele><time>2026-04-16T14:59:26.73Z</time></trkpt><trkpt lat="40.2843717" lon="8.544155"><ele>331.0</ele><time>2026-04-16T14:59:27.73Z</time></trkpt><trkpt lat="40.284495" lon="8.5439467"><ele>331.0</ele><time>2026-04-16T14:59:28.73Z</time></trkpt><trkpt lat="40.2846183" lon="8.5437267"><ele>331.0</ele><time>2026-04-16T14:59:29.73Z</time></trkpt><trkpt lat="40.284745" lon="8.5434967"><ele>330.3333333333333</ele><time>2026-04-16T14:59:30.729Z</time></trkpt><trkpt lat="40.284865" lon="8.5432633"><ele>329.6666666666667</ele><time>2026-04-16T14:59:31.73Z</time></trkpt><trkpt lat="40.2849917" lon="8.543025"><ele>329.0</ele><time>2026-04-16T14:59:32.73Z</time></trkpt><trkpt lat="40.2851183" lon="8.5427883"><ele>327.6666666666667</ele><time>2026-04-16T14:59:33.73Z</time></trkpt><trkpt lat="40.2852367" lon="8.5425633"><ele>326.3333333333333</ele><time>2026-04-16T14:59:34.729Z</time></trkpt><trkpt lat="40.285355" lon="8.5423517"><ele>325.0</ele><time>2026-04-16T14:59:35.729Z</time></trkpt><trkpt lat="40.2854733" lon="8.542165"><ele>325.0</ele><time>2026-04-16T14:59:36.73Z</time></trkpt><trkpt lat="40.2856017" lon="8.5420083"><ele>325.0</ele><time>2026-04-16T14:59:37.729Z</time></trkpt><trkpt lat="40.28575" lon="8.541895"><ele>325.0</ele><time>2026-04-16T14:59:38.73Z</time></trkpt><trkpt lat="40.2859117" lon="8.541815"><ele>325.0</ele><time>2026-04-16T14:59:39.73Z</time></trkpt><trkpt lat="40.2860783" lon="8.54177"><ele>325.0</ele><time>2026-04-16T14:59:40.729Z</time></trkpt><trkpt lat="40.2862583" lon="8.5417517"><ele>325.0</ele><time>2026-04-16T14:59:41.729Z</time></trkpt><trkpt lat="40.2864483" lon="8.5417483"><ele>323.66666666666663</ele><time>2026-04-16T14:59:42.73Z</time></trkpt><trkpt lat="40.2866433" lon="8.5417433"><ele>322.3333333333333</ele><time>2026-04-16T14:59:43.729Z</time></trkpt><trkpt lat="40.2868317" lon="8.5417333"><ele>321.0</ele><time>2026-04-16T14:59:44.73Z</time></trkpt><trkpt lat="40.28701" lon="8.5417183"><ele>321.0</ele><time>2026-04-16T14:59:45.729Z</time></trkpt><trkpt lat="40.28717" lon="8.5416967"><ele>321.0</ele><time>2026-04-16T14:59:46.73Z</time></trkpt><trkpt lat="40.2873183" lon="8.5416517"><ele>321.0</ele><time>2026-04-16T14:59:47.729Z</time></trkpt><trkpt lat="40.2874583" lon="8.5415583"><ele>319.6666666666667</ele><time>2026-04-16T14:59:48.73Z</time></trkpt><trkpt lat="40.2875817" lon="8.5414333"><ele>318.33333333333337</ele><time>2026-04-16T14:59:49.729Z</time></trkpt><trkpt lat="40.287685" lon="8.5412783"><ele>317.0</ele><time>2026-04-16T14:59:50.729Z</time></trkpt><trkpt lat="40.2877533" lon="8.5411"><ele>314.33333333333337</ele><time>2026-04-16T14:59:51.729Z</time></trkpt><trkpt lat="40.2877783" lon="8.5408967"><ele>311.6666666666667</ele><time>2026-04-16T14:59:52.73Z</time></trkpt><trkpt lat="40.287775" lon="8.54068"><ele>309.0</ele><time>2026-04-16T14:59:53.73Z</time></trkpt><trkpt lat="40.287755" lon="8.54046"><ele>307.3333333333333</ele><time>2026-04-16T14:59:54.73Z</time></trkpt><trkpt lat="40.2877267" lon="8.540255"><ele>305.66666666666663</ele><time>2026-04-16T14:59:55.729Z</time></trkpt><trkpt lat="40.28772" lon="8.54005"><ele>304.0</ele><time>2026-04-16T14:59:56.73Z</time></trkpt><trkpt lat="40.2877617" lon="8.53985"><ele>304.0</ele><time>2026-04-16T14:59:57.73Z</time></trkpt><trkpt lat="40.287845" lon="8.5396417"><ele>304.0</ele><time>2026-04-16T14:59:58.73Z</time></trkpt><trkpt lat="40.28793" lon="8.5394267"><ele>304.0</ele><time>2026-04-16T14:59:59.73Z</time></trkpt><trkpt lat="40.2879983" lon="8.5391933"><ele>301.0</ele><time>2026-04-16T15:00:00.73Z</time></trkpt><trkpt lat="40.2880467" lon="8.5389483"><ele>298.0</ele><time>2026-04-16T15:00:01.729Z</time></trkpt><trkpt lat="40.2880733" lon="8.5386967"><ele>295.0</ele><time>2026-04-16T15:00:02.73Z</time></trkpt><trkpt lat="40.288075" lon="8.5384467"><ele>292.3333333333333</ele><time>2026-04-16T15:00:03.73Z</time></trkpt><trkpt lat="40.2880467" lon="8.5382017"><ele>289.6666666666667</ele><time>2026-04-16T15:00:04.73Z</time></trkpt><trkpt lat="40.287985" lon="8.5379733"><ele>287.0</ele><time>2026-04-16T15:00:05.73Z</time></trkpt><trkpt lat="40.287905" lon="8.5377483"><ele>287.0</ele><time>2026-04-16T15:00:06.729Z</time></trkpt><trkpt lat="40.2878" lon="8.5375333"><ele>287.0</ele><time>2026-04-16T15:00:07.73Z</time></trkpt><trkpt lat="40.2876783" lon="8.5373333"><ele>287.0</ele><time>2026-04-16T15:00:08.73Z</time></trkpt><trkpt lat="40.2875467" lon="8.53714"><ele>283.33333333333337</ele><time>2026-04-16T15:00:09.729Z</time></trkpt><trkpt lat="40.2874083" lon="8.5369583"><ele>279.6666666666667</ele><time>2026-04-16T15:00:10.73Z</time></trkpt><trkpt lat="40.2872667" lon="8.5367833"><ele>276.0</ele><time>2026-04-16T15:00:11.729Z</time></trkpt><trkpt lat="40.2871167" lon="8.53662"><ele>276.0</ele><time>2026-04-16T15:00:12.73Z</time></trkpt><trkpt lat="40.2869733" lon="8.5364667"><ele>276.0</ele><time>2026-04-16T15:00:13.73Z</time></trkpt><trkpt lat="40.2868333" lon="8.536305"><ele>276.0</ele><time>2026-04-16T15:00:14.73Z</time></trkpt><trkpt lat="40.286705" lon="8.5361367"><ele>272.0</ele><time>2026-04-16T15:00:15.729Z</time></trkpt><trkpt lat="40.2865867" lon="8.5359583"><ele>268.0</ele><time>2026-04-16T15:00:16.729Z</time></trkpt><trkpt lat="40.286485" lon="8.5357717"><ele>264.0</ele><time>2026-04-16T15:00:17.73Z</time></trkpt><trkpt lat="40.2863867" lon="8.5355867"><ele>264.0</ele><time>2026-04-16T15:00:18.729Z</time></trkpt><trkpt lat="40.2862967" lon="8.5354117"><ele>264.0</ele><time>2026-04-16T15:00:19.73Z</time></trkpt><trkpt lat="40.286215" lon="8.5352417"><ele>264.0</ele><time>2026-04-16T15:00:20.73Z</time></trkpt><trkpt lat="40.2861483" lon="8.53507"><ele>265.5</ele><time>2026-04-16T15:00:21.73Z</time></trkpt><trkpt lat="40.2860933" lon="8.534895"><ele>267.0</ele><time>2026-04-16T15:00:22.73Z</time></trkpt><trkpt lat="40.2860467" lon="8.53472"><ele>268.5</ele><time>2026-04-16T15:00:23.73Z</time></trkpt><trkpt lat="40.286" lon="8.5345517"><ele>270.0</ele><time>2026-04-16T15:00:24.729Z</time></trkpt><trkpt lat="40.28595" lon="8.5343817"><ele>269.75</ele><time>2026-04-16T15:00:25.729Z</time></trkpt><trkpt lat="40.285905" lon="8.5342117"><ele>269.5</ele><time>2026-04-16T15:00:26.73Z</time></trkpt><trkpt lat="40.285865" lon="8.53404"><ele>269.25</ele><time>2026-04-16T15:00:27.73Z</time></trkpt><trkpt lat="40.28583" lon="8.53386"><ele>269.0</ele><time>2026-04-16T15:00:28.73Z</time></trkpt><trkpt lat="40.2858133" lon="8.5336717"><ele>269.0</ele><time>2026-04-16T15:00:29.729Z</time></trkpt><trkpt lat="40.2858067" lon="8.5334783"><ele>269.0</ele><time>2026-04-16T15:00:30.73Z</time></trkpt><trkpt lat="40.2857967" lon="8.533295"><ele>269.0</ele><time>2026-04-16T15:00:31.73Z</time></trkpt><trkpt lat="40.28578" lon="8.5331117"><ele>269.0</ele><time>2026-04-16T15:00:32.729Z</time></trkpt><trkpt lat="40.2857483" lon="8.5329217"><ele>268.6666666666667</ele><time>2026-04-16T15:00:33.729Z</time></trkpt><trkpt lat="40.2857" lon="8.5327367"><ele>268.3333333333333</ele><time>2026-04-16T15:00:34.73Z</time></trkpt><trkpt lat="40.285625" lon="8.5325583"><ele>268.0</ele><time>2026-04-16T15:00:35.73Z</time></trkpt><trkpt lat="40.2855283" lon="8.5323917"><ele>266.5</ele><time>2026-04-16T15:00:36.73Z</time></trkpt><trkpt lat="40.2854283" lon="8.532245"><ele>265.0</ele><time>2026-04-16T15:00:37.73Z</time></trkpt><trkpt lat="40.28533" lon="8.5321117"><ele>263.5</ele><time>2026-04-16T15:00:38.729Z</time></trkpt><trkpt lat="40.2852183" lon="8.5320083"><ele>262.0</ele><time>2026-04-16T15:00:39.73Z</time></trkpt><trkpt lat="40.28509" lon="8.531945"><ele>262.0</ele><time>2026-04-16T15:00:40.729Z</time></trkpt><trkpt lat="40.28495" lon="8.5319183"><ele>262.0</ele><time>2026-04-16T15:00:41.73Z</time></trkpt><trkpt lat="40.284815" lon="8.5319167"><ele>262.0</ele><time>2026-04-16T15:00:42.73Z</time></trkpt><trkpt lat="40.2846833" lon="8.53191"><ele>262.0</ele><time>2026-04-16T15:00:43.729Z</time></trkpt><trkpt lat="40.2845567" lon="8.5318983"><ele>261.0</ele><time>2026-04-16T15:00:44.729Z</time></trkpt><trkpt lat="40.2844333" lon="8.5318783"><ele>260.0</ele><time>2026-04-16T15:00:45.729Z</time></trkpt><trkpt lat="40.284305" lon="8.5318633"><ele>259.0</ele><time>2026-04-16T15:00:46.73Z</time></trkpt><trkpt lat="40.2841733" lon="8.53183"><ele>258.0</ele><time>2026-04-16T15:00:47.729Z</time></trkpt><trkpt lat="40.2840433" lon="8.531785"><ele>255.0</ele><time>2026-04-16T15:00:48.729Z</time></trkpt><trkpt lat="40.2839217" lon="8.5317283"><ele>252.0</ele><time>2026-04-16T15:00:49.73Z</time></trkpt><trkpt lat="40.2838083" lon="8.531665"><ele>249.0</ele><time>2026-04-16T15:00:50.73Z</time></trkpt><trkpt lat="40.2837033" lon="8.531585"><ele>246.0</ele><time>2026-04-16T15:00:51.729Z</time></trkpt><trkpt lat="40.2836017" lon="8.5314917"><ele>246.0</ele><time>2026-04-16T15:00:52.729Z</time></trkpt><trkpt lat="40.28351" lon="8.5313817"><ele>246.0</ele><time>2026-04-16T15:00:53.73Z</time></trkpt><trkpt lat="40.2834183" lon="8.5312567"><ele>246.0</ele><time>2026-04-16T15:00:54.73Z</time></trkpt><trkpt lat="40.2833467" lon="8.5311233"><ele>246.0</ele><time>2026-04-16T15:00:55.729Z</time></trkpt><trkpt lat="40.2832767" lon="8.5309933"><ele>247.5</ele><time>2026-04-16T15:00:56.73Z</time></trkpt><trkpt lat="40.2832017" lon="8.5308633"><ele>249.0</ele><time>2026-04-16T15:00:57.73Z</time></trkpt><trkpt lat="40.2831333" lon="8.530735"><ele>250.5</ele><time>2026-04-16T15:00:58.73Z</time></trkpt><trkpt lat="40.2830717" lon="8.5306"><ele>252.0</ele><time>2026-04-16T15:00:59.73Z</time></trkpt><trkpt lat="40.2830183" lon="8.530465"><ele>246.5</ele><time>2026-04-16T15:01:00.73Z</time></trkpt><trkpt lat="40.2829833" lon="8.53032"><ele>241.0</ele><time>2026-04-16T15:01:01.73Z</time></trkpt><trkpt lat="40.2829667" lon="8.5301683"><ele>235.5</ele><time>2026-04-16T15:01:02.73Z</time></trkpt><trkpt lat="40.28297" lon="8.5300067"><ele>230.0</ele><time>2026-04-16T15:01:03.729Z</time></trkpt><trkpt lat="40.2829883" lon="8.529845"><ele>230.0</ele><time>2026-04-16T15:01:04.73Z</time></trkpt><trkpt lat="40.2830067" lon="8.529675"><ele>230.0</ele><time>2026-04-16T15:01:05.729Z</time></trkpt><trkpt lat="40.2830233" lon="8.5295067"><ele>230.0</ele><time>2026-04-16T15:01:06.73Z</time></trkpt><trkpt lat="40.2830383" lon="8.5293433"><ele>230.0</ele><time>2026-04-16T15:01:07.73Z</time></trkpt><trkpt lat="40.283035" lon="8.5291867"><ele>228.5</ele><time>2026-04-16T15:01:08.73Z</time></trkpt><trkpt lat="40.2830133" lon="8.5290483"><ele>227.0</ele><time>2026-04-16T15:01:09.73Z</time></trkpt><trkpt lat="40.2829633" lon="8.5289183"><ele>225.5</ele><time>2026-04-16T15:01:10.729Z</time></trkpt><trkpt lat="40.2828817" lon="8.5288"><ele>224.0</ele><time>2026-04-16T15:01:11.729Z</time></trkpt><trkpt lat="40.282775" lon="8.5287"><ele>222.5</ele><time>2026-04-16T15:01:12.73Z</time></trkpt><trkpt lat="40.2826533" lon="8.5286167"><ele>221.0</ele><time>2026-04-16T15:01:13.729Z</time></trkpt><trkpt lat="40.2825267" lon="8.5285383"><ele>219.5</ele><time>2026-04-16T15:01:14.729Z</time></trkpt><trkpt lat="40.282395" lon="8.5284633"><ele>218.0</ele><time>2026-04-16T15:01:15.73Z</time></trkpt><trkpt lat="40.28226" lon="8.52839"><ele>218.0</ele><time>2026-04-16T15:01:16.73Z</time></trkpt><trkpt lat="40.2821183" lon="8.5283117"><ele>218.0</ele><time>2026-04-16T15:01:17.73Z</time></trkpt><trkpt lat="40.281975" lon="8.52823"><ele>218.0</ele><time>2026-04-16T15:01:18.73Z</time></trkpt><trkpt lat="40.2818367" lon="8.5281383"><ele>218.0</ele><time>2026-04-16T15:01:19.73Z</time></trkpt><trkpt lat="40.2817083" lon="8.52803"><ele>218.0</ele><time>2026-04-16T15:01:20.729Z</time></trkpt><trkpt lat="40.2815883" lon="8.5279"><ele>218.0</ele><time>2026-04-16T15:01:21.73Z</time></trkpt><trkpt lat="40.2814833" lon="8.52776"><ele>214.33333333333334</ele><time>2026-04-16T15:01:22.73Z</time></trkpt><trkpt lat="40.281395" lon="8.527605"><ele>210.66666666666669</ele><time>2026-04-16T15:01:23.73Z</time></trkpt><trkpt lat="40.2813267" lon="8.5274333"><ele>207.0</ele><time>2026-04-16T15:01:24.73Z</time></trkpt><trkpt lat="40.2812683" lon="8.5272417"><ele>205.33333333333331</ele><time>2026-04-16T15:01:25.73Z</time></trkpt><trkpt lat="40.28123" lon="8.52704"><ele>203.66666666666666</ele><time>2026-04-16T15:01:26.73Z</time></trkpt><trkpt lat="40.281225" lon="8.52684"><ele>202.0</ele><time>2026-04-16T15:01:27.73Z</time></trkpt><trkpt lat="40.281235" lon="8.5266383"><ele>202.0</ele><time>2026-04-16T15:01:28.729Z</time></trkpt><trkpt lat="40.2812417" lon="8.5264517"><ele>202.0</ele><time>2026-04-16T15:01:29.729Z</time></trkpt><trkpt lat="40.2812467" lon="8.5262667"><ele>202.0</ele><time>2026-04-16T15:01:30.728Z</time></trkpt><trkpt lat="40.2812467" lon="8.5260783"><ele>202.0</ele><time>2026-04-16T15:01:31.729Z</time></trkpt><trkpt lat="40.2812367" lon="8.5259"><ele>201.25</ele><time>2026-04-16T15:01:32.729Z</time></trkpt><trkpt lat="40.2812117" lon="8.5257367"><ele>200.5</ele><time>2026-04-16T15:01:33.729Z</time></trkpt><trkpt lat="40.2811583" lon="8.525585"><ele>199.75</ele><time>2026-04-16T15:01:34.728Z</time></trkpt><trkpt lat="40.2810867" lon="8.5254433"><ele>199.0</ele><time>2026-04-16T15:01:35.729Z</time></trkpt><trkpt lat="40.2810017" lon="8.5252967"><ele>202.0</ele><time>2026-04-16T15:01:36.728Z</time></trkpt><trkpt lat="40.280925" lon="8.5251233"><ele>205.0</ele><time>2026-04-16T15:01:37.728Z</time></trkpt><trkpt lat="40.28086" lon="8.5249367"><ele>208.0</ele><time>2026-04-16T15:01:38.728Z</time></trkpt><trkpt lat="40.2807833" lon="8.524745"><ele>209.0</ele><time>2026-04-16T15:01:39.729Z</time></trkpt><trkpt lat="40.2806767" lon="8.5245467"><ele>210.0</ele><time>2026-04-16T15:01:40.729Z</time></trkpt><trkpt lat="40.2805483" lon="8.52434"><ele>211.0</ele><time>2026-04-16T15:01:41.728Z</time></trkpt><trkpt lat="40.28042" lon="8.524115"><ele>205.66666666666666</ele><time>2026-04-16T15:01:42.728Z</time></trkpt><trkpt lat="40.2803033" lon="8.5238767"><ele>200.33333333333331</ele><time>2026-04-16T15:01:43.728Z</time></trkpt><trkpt lat="40.2801767" lon="8.5236433"><ele>195.0</ele><time>2026-04-16T15:01:44.729Z</time></trkpt><trkpt lat="40.2800533" lon="8.5234267"><ele>195.0</ele><time>2026-04-16T15:01:45.729Z</time></trkpt><trkpt lat="40.2799383" lon="8.523205"><ele>195.0</ele><time>2026-04-16T15:01:46.728Z</time></trkpt><trkpt lat="40.2798383" lon="8.52297"><ele>195.0</ele><time>2026-04-16T15:01:47.729Z</time></trkpt><trkpt lat="40.2797483" lon="8.52273"><ele>184.33333333333334</ele><time>2026-04-16T15:01:48.729Z</time></trkpt><trkpt lat="40.2796733" lon="8.5225017"><ele>173.66666666666669</ele><time>2026-04-16T15:01:49.729Z</time></trkpt><trkpt lat="40.27961" lon="8.5223083"><ele>163.0</ele><time>2026-04-16T15:01:50.729Z</time></trkpt><trkpt lat="40.27955" lon="8.5221483"><ele>163.75</ele><time>2026-04-16T15:01:51.729Z</time></trkpt><trkpt lat="40.2794983" lon="8.5219833"><ele>164.5</ele><time>2026-04-16T15:01:52.728Z</time></trkpt><trkpt lat="40.2794517" lon="8.521815"><ele>165.25</ele><time>2026-04-16T15:01:53.728Z</time></trkpt><trkpt lat="40.2794383" lon="8.52162"><ele>166.0</ele><time>2026-04-16T15:01:54.728Z</time></trkpt><trkpt lat="40.2794417" lon="8.5214217"><ele>163.66666666666669</ele><time>2026-04-16T15:01:55.728Z</time></trkpt><trkpt lat="40.2794733" lon="8.5212283"><ele>161.33333333333334</ele><time>2026-04-16T15:01:56.729Z</time></trkpt><trkpt lat="40.2795233" lon="8.52104"><ele>159.0</ele><time>2026-04-16T15:01:57.728Z</time></trkpt><trkpt lat="40.27958" lon="8.5208533"><ele>159.0</ele><time>2026-04-16T15:01:58.728Z</time></trkpt><trkpt lat="40.2796183" lon="8.5206517"><ele>159.0</ele><time>2026-04-16T15:01:59.729Z</time></trkpt><trkpt lat="40.2796367" lon="8.5204383"><ele>159.0</ele><time>2026-04-16T15:02:00.728Z</time></trkpt><trkpt lat="40.2796367" lon="8.5202483"><ele>159.0</ele><time>2026-04-16T15:02:01.729Z</time></trkpt><trkpt lat="40.2796083" lon="8.5200783"><ele>159.0</ele><time>2026-04-16T15:02:02.728Z</time></trkpt><trkpt lat="40.2795467" lon="8.5199033"><ele>159.0</ele><time>2026-04-16T15:02:03.728Z</time></trkpt><trkpt lat="40.2794517" lon="8.5197267"><ele>159.0</ele><time>2026-04-16T15:02:04.729Z</time></trkpt><trkpt lat="40.27935" lon="8.5195317"><ele>162.0</ele><time>2026-04-16T15:02:05.729Z</time></trkpt><trkpt lat="40.2792533" lon="8.519325"><ele>165.0</ele><time>2026-04-16T15:02:06.728Z</time></trkpt><trkpt lat="40.2791683" lon="8.51912"><ele>168.0</ele><time>2026-04-16T15:02:07.728Z</time></trkpt><trkpt lat="40.279095" lon="8.518905"><ele>170.33333333333334</ele><time>2026-04-16T15:02:08.728Z</time></trkpt><trkpt lat="40.2790417" lon="8.5186583"><ele>172.66666666666669</ele><time>2026-04-16T15:02:09.729Z</time></trkpt><trkpt lat="40.2790033" lon="8.51842"><ele>175.0</ele><time>2026-04-16T15:02:10.729Z</time></trkpt><trkpt lat="40.2789667" lon="8.5182017"><ele>175.0</ele><time>2026-04-16T15:02:11.729Z</time></trkpt><trkpt lat="40.2789417" lon="8.518015"><ele>175.0</ele><time>2026-04-16T15:02:12.729Z</time></trkpt><trkpt lat="40.2789433" lon="8.5178433"><ele>175.0</ele><time>2026-04-16T15:02:13.728Z</time></trkpt><trkpt lat="40.2789733" lon="8.5176767"><ele>175.0</ele><time>2026-04-16T15:02:14.728Z</time></trkpt><trkpt lat="40.2790483" lon="8.517515"><ele>171.33333333333334</ele><time>2026-04-16T15:02:15.728Z</time></trkpt><trkpt lat="40.2791583" lon="8.51736"><ele>167.66666666666666</ele><time>2026-04-16T15:02:16.729Z</time></trkpt><trkpt lat="40.2792767" lon="8.51721"><ele>164.0</ele><time>2026-04-16T15:02:17.728Z</time></trkpt><trkpt lat="40.2793783" lon="8.5170267"><ele>159.33333333333331</ele><time>2026-04-16T15:02:18.728Z</time></trkpt><trkpt lat="40.2794367" lon="8.516805"><ele>154.66666666666666</ele><time>2026-04-16T15:02:19.729Z</time></trkpt><trkpt lat="40.2794533" lon="8.51655"><ele>150.0</ele><time>2026-04-16T15:02:20.729Z</time></trkpt><trkpt lat="40.2794467" lon="8.5162733"><ele>148.66666666666666</ele><time>2026-04-16T15:02:21.729Z</time></trkpt><trkpt lat="40.279415" lon="8.5159917"><ele>147.33333333333331</ele><time>2026-04-16T15:02:22.728Z</time></trkpt><trkpt lat="40.279375" lon="8.5157317"><ele>146.0</ele><time>2026-04-16T15:02:23.729Z</time></trkpt><trkpt lat="40.279325" lon="8.515515"><ele>144.5</ele><time>2026-04-16T15:02:24.729Z</time></trkpt><trkpt lat="40.2792733" lon="8.5153417"><ele>143.0</ele><time>2026-04-16T15:02:25.729Z</time></trkpt><trkpt lat="40.2792417" lon="8.515185"><ele>141.5</ele><time>2026-04-16T15:02:26.728Z</time></trkpt><trkpt lat="40.2792367" lon="8.515035"><ele>140.0</ele><time>2026-04-16T15:02:27.729Z</time></trkpt><trkpt lat="40.279285" lon="8.5149"><ele>140.0</ele><time>2026-04-16T15:02:28.728Z</time></trkpt><trkpt lat="40.2793583" lon="8.5148"><ele>140.0</ele><time>2026-04-16T15:02:29.729Z</time></trkpt><trkpt lat="40.2794633" lon="8.51476"><ele>140.0</ele><time>2026-04-16T15:02:30.728Z</time></trkpt><trkpt lat="40.2795933" lon="8.5147583"><ele>140.0</ele><time>2026-04-16T15:02:31.728Z</time></trkpt><trkpt lat="40.2797333" lon="8.5147483"><ele>144.66666666666666</ele><time>2026-04-16T15:02:32.729Z</time></trkpt><trkpt lat="40.279885" lon="8.5147217"><ele>149.33333333333334</ele><time>2026-04-16T15:02:33.728Z</time></trkpt><trkpt lat="40.2800583" lon="8.514685"><ele>154.0</ele><time>2026-04-16T15:02:34.729Z</time></trkpt><trkpt lat="40.2802367" lon="8.5146467"><ele>154.0</ele><time>2026-04-16T15:02:35.729Z</time></trkpt><trkpt lat="40.2804217" lon="8.51462"><ele>154.0</ele><time>2026-04-16T15:02:36.729Z</time></trkpt><trkpt lat="40.2806133" lon="8.51461"><ele>154.0</ele><time>2026-04-16T15:02:37.728Z</time></trkpt><trkpt lat="40.28081" lon="8.5146017"><ele>154.0</ele><time>2026-04-16T15:02:38.728Z</time></trkpt><trkpt lat="40.2810017" lon="8.5145967"><ele>154.0</ele><time>2026-04-16T15:02:39.728Z</time></trkpt><trkpt lat="40.281185" lon="8.5145883"><ele>154.0</ele><time>2026-04-16T15:02:40.728Z</time></trkpt><trkpt lat="40.2813667" lon="8.5145617"><ele>143.66666666666669</ele><time>2026-04-16T15:02:41.728Z</time></trkpt><trkpt lat="40.2815383" lon="8.5145017"><ele>133.33333333333334</ele><time>2026-04-16T15:02:42.729Z</time></trkpt><trkpt lat="40.2817067" lon="8.5144117"><ele>123.0</ele><time>2026-04-16T15:02:43.729Z</time></trkpt><trkpt lat="40.2818683" lon="8.5142867"><ele>123.0</ele><time>2026-04-16T15:02:44.728Z</time></trkpt><trkpt lat="40.28202" lon="8.51415"><ele>123.0</ele><time>2026-04-16T15:02:45.729Z</time></trkpt><trkpt lat="40.2821517" lon="8.514"><ele>123.0</ele><time>2026-04-16T15:02:46.729Z</time></trkpt><trkpt lat="40.2822833" lon="8.5138233"><ele>123.0</ele><time>2026-04-16T15:02:47.728Z</time></trkpt><trkpt lat="40.2824067" lon="8.513655"><ele>123.0</ele><time>2026-04-16T15:02:48.728Z</time></trkpt><trkpt lat="40.2825233" lon="8.5134883"><ele>123.0</ele><time>2026-04-16T15:02:49.728Z</time></trkpt><trkpt lat="40.28264" lon="8.5133317"><ele>123.0</ele><time>2026-04-16T15:02:50.728Z</time></trkpt><trkpt lat="40.2827533" lon="8.513195"><ele>123.0</ele><time>2026-04-16T15:02:51.729Z</time></trkpt><trkpt lat="40.2828867" lon="8.51308"><ele>123.0</ele><time>2026-04-16T15:02:52.728Z</time></trkpt><trkpt lat="40.283025" lon="8.5129983"><ele>121.33333333333334</ele><time>2026-04-16T15:02:53.729Z</time></trkpt><trkpt lat="40.2831833" lon="8.5129567"><ele>119.66666666666667</ele><time>2026-04-16T15:02:54.729Z</time></trkpt><trkpt lat="40.283345" lon="8.5129517"><ele>118.0</ele><time>2026-04-16T15:02:55.728Z</time></trkpt><trkpt lat="40.2835167" lon="8.5129483"><ele>118.0</ele><time>2026-04-16T15:02:56.728Z</time></trkpt><trkpt lat="40.2836833" lon="8.512945"><ele>118.0</ele><time>2026-04-16T15:02:57.729Z</time></trkpt><trkpt lat="40.28383" lon="8.5129267"><ele>118.0</ele><time>2026-04-16T15:02:58.728Z</time></trkpt><trkpt lat="40.2839533" lon="8.5128883"><ele>118.0</ele><time>2026-04-16T15:02:59.729Z</time></trkpt><trkpt lat="40.2840633" lon="8.5128017"><ele>117.25</ele><time>2026-04-16T15:03:00.728Z</time></trkpt><trkpt lat="40.28416" lon="8.51267"><ele>116.5</ele><time>2026-04-16T15:03:01.729Z</time></trkpt><trkpt lat="40.28425" lon="8.512525"><ele>115.75</ele><time>2026-04-16T15:03:02.729Z</time></trkpt><trkpt lat="40.284345" lon="8.5123817"><ele>115.0</ele><time>2026-04-16T15:03:03.728Z</time></trkpt><trkpt lat="40.284435" lon="8.512245"><ele>115.0</ele><time>2026-04-16T15:03:04.728Z</time></trkpt><trkpt lat="40.2845317" lon="8.5121117"><ele>115.0</ele><time>2026-04-16T15:03:05.729Z</time></trkpt><trkpt lat="40.28463" lon="8.5119733"><ele>115.0</ele><time>2026-04-16T15:03:06.729Z</time></trkpt><trkpt lat="40.284725" lon="8.511825"><ele>115.0</ele><time>2026-04-16T15:03:07.729Z</time></trkpt><trkpt lat="40.2848267" lon="8.511675"><ele>113.66666666666667</ele><time>2026-04-16T15:03:08.728Z</time></trkpt><trkpt lat="40.2849217" lon="8.5115167"><ele>112.33333333333334</ele><time>2026-04-16T15:03:09.728Z</time></trkpt><trkpt lat="40.285025" lon="8.5113517"><ele>111.0</ele><time>2026-04-16T15:03:10.728Z</time></trkpt><trkpt lat="40.2851267" lon="8.5111967"><ele>111.0</ele><time>2026-04-16T15:03:11.729Z</time></trkpt><trkpt lat="40.2852383" lon="8.5110517"><ele>111.0</ele><time>2026-04-16T15:03:12.729Z</time></trkpt><trkpt lat="40.2853683" lon="8.5109283"><ele>111.0</ele><time>2026-04-16T15:03:13.728Z</time></trkpt><trkpt lat="40.285505" lon="8.5108283"><ele>107.0</ele><time>2026-04-16T15:03:14.729Z</time></trkpt><trkpt lat="40.285655" lon="8.5107183"><ele>103.0</ele><time>2026-04-16T15:03:15.729Z</time></trkpt><trkpt lat="40.2858" lon="8.5106067"><ele>99.0</ele><time>2026-04-16T15:03:16.729Z</time></trkpt><trkpt lat="40.285935" lon="8.51048"><ele>102.33333333333334</ele><time>2026-04-16T15:03:17.729Z</time></trkpt><trkpt lat="40.2860717" lon="8.5103433"><ele>105.66666666666667</ele><time>2026-04-16T15:03:18.729Z</time></trkpt><trkpt lat="40.2862067" lon="8.5102017"><ele>109.0</ele><time>2026-04-16T15:03:19.728Z</time></trkpt><trkpt lat="40.2863333" lon="8.5100617"><ele>102.66666666666667</ele><time>2026-04-16T15:03:20.728Z</time></trkpt><trkpt lat="40.286465" lon="8.509925"><ele>96.33333333333334</ele><time>2026-04-16T15:03:21.729Z</time></trkpt><trkpt lat="40.2865883" lon="8.5097983"><ele>90.0</ele><time>2026-04-16T15:03:22.728Z</time></trkpt><trkpt lat="40.2867167" lon="8.509685"><ele>92.25</ele><time>2026-04-16T15:03:23.729Z</time></trkpt><trkpt lat="40.2868367" lon="8.509565"><ele>94.5</ele><time>2026-04-16T15:03:24.729Z</time></trkpt><trkpt lat="40.28695" lon="8.5094533"><ele>96.75</ele><time>2026-04-16T15:03:25.729Z</time></trkpt><trkpt lat="40.2870667" lon="8.5093367"><ele>99.0</ele><time>2026-04-16T15:03:26.728Z</time></trkpt><trkpt lat="40.287175" lon="8.5092083"><ele>95.25</ele><time>2026-04-16T15:03:27.729Z</time></trkpt><trkpt lat="40.28727" lon="8.5090683"><ele>91.5</ele><time>2026-04-16T15:03:28.728Z</time></trkpt><trkpt lat="40.2873333" lon="8.5089117"><ele>87.75</ele><time>2026-04-16T15:03:29.728Z</time></trkpt><trkpt lat="40.287365" lon="8.508735"><ele>84.0</ele><time>2026-04-16T15:03:30.729Z</time></trkpt><trkpt lat="40.28737" lon="8.5085467"><ele>82.33333333333333</ele><time>2026-04-16T15:03:31.729Z</time></trkpt><trkpt lat="40.2873517" lon="8.5083517"><ele>80.66666666666666</ele><time>2026-04-16T15:03:32.728Z</time></trkpt><trkpt lat="40.2873317" lon="8.5081433"><ele>79.0</ele><time>2026-04-16T15:03:33.728Z</time></trkpt><trkpt lat="40.287315" lon="8.5079333"><ele>76.33333333333333</ele><time>2026-04-16T15:03:34.728Z</time></trkpt><trkpt lat="40.2872967" lon="8.5077133"><ele>73.66666666666667</ele><time>2026-04-16T15:03:35.728Z</time></trkpt><trkpt lat="40.28728" lon="8.5074883"><ele>71.0</ele><time>2026-04-16T15:03:36.728Z</time></trkpt><trkpt lat="40.2872583" lon="8.5072617"><ele>82.0</ele><time>2026-04-16T15:03:37.729Z</time></trkpt><trkpt lat="40.2872483" lon="8.5070283"><ele>93.0</ele><time>2026-04-16T15:03:38.728Z</time></trkpt><trkpt lat="40.2872417" lon="8.5067883"><ele>104.0</ele><time>2026-04-16T15:03:39.729Z</time></trkpt><trkpt lat="40.2872367" lon="8.5065567"><ele>104.0</ele><time>2026-04-16T15:03:40.729Z</time></trkpt><trkpt lat="40.2872333" lon="8.5063183"><ele>104.0</ele><time>2026-04-16T15:03:41.729Z</time></trkpt><trkpt lat="40.2872333" lon="8.5060833"><ele>104.0</ele><time>2026-04-16T15:03:42.729Z</time></trkpt><trkpt lat="40.2872333" lon="8.5058483"><ele>102.66666666666666</ele><time>2026-04-16T15:03:43.728Z</time></trkpt><trkpt lat="40.2872333" lon="8.50561"><ele>101.33333333333334</ele><time>2026-04-16T15:03:44.729Z</time></trkpt><trkpt lat="40.2872417" lon="8.5053717"><ele>100.0</ele><time>2026-04-16T15:03:45.729Z</time></trkpt><trkpt lat="40.2872617" lon="8.505135"><ele>89.66666666666667</ele><time>2026-04-16T15:03:46.729Z</time></trkpt><trkpt lat="40.2873117" lon="8.5049017"><ele>79.33333333333334</ele><time>2026-04-16T15:03:47.729Z</time></trkpt><trkpt lat="40.2873933" lon="8.5046783"><ele>69.0</ele><time>2026-04-16T15:03:48.729Z</time></trkpt><trkpt lat="40.2875" lon="8.5044733"><ele>69.0</ele><time>2026-04-16T15:03:49.729Z</time></trkpt><trkpt lat="40.287625" lon="8.5042883"><ele>69.0</ele><time>2026-04-16T15:03:50.729Z</time></trkpt><trkpt lat="40.287765" lon="8.5041217"><ele>69.0</ele><time>2026-04-16T15:03:51.728Z</time></trkpt><trkpt lat="40.2879067" lon="8.503965"><ele>69.0</ele><time>2026-04-16T15:03:52.729Z</time></trkpt><trkpt lat="40.2880433" lon="8.50382"><ele>69.0</ele><time>2026-04-16T15:03:53.729Z</time></trkpt><trkpt lat="40.2881783" lon="8.5036783"><ele>69.0</ele><time>2026-04-16T15:03:54.728Z</time></trkpt><trkpt lat="40.2883083" lon="8.5035417"><ele>65.25</ele><time>2026-04-16T15:03:55.729Z</time></trkpt><trkpt lat="40.2884233" lon="8.50339"><ele>61.5</ele><time>2026-04-16T15:03:56.729Z</time></trkpt><trkpt lat="40.2885117" lon="8.5032317"><ele>57.75</ele><time>2026-04-16T15:03:57.729Z</time></trkpt><trkpt lat="40.28855" lon="8.5030733"><ele>54.0</ele><time>2026-04-16T15:03:58.728Z</time></trkpt><trkpt lat="40.2885617" lon="8.50293"><ele>54.0</ele><time>2026-04-16T15:03:59.728Z</time></trkpt><trkpt lat="40.2885767" lon="8.5028133"><ele>54.0</ele><time>2026-04-16T15:04:00.729Z</time></trkpt><trkpt lat="40.2886067" lon="8.50273"><ele>54.0</ele><time>2026-04-16T15:04:01.729Z</time></trkpt><trkpt lat="40.28866" lon="8.5026783"><ele>54.0</ele><time>2026-04-16T15:04:02.729Z</time></trkpt><trkpt lat="40.2887667" lon="8.5027483"><ele>54.0</ele><time>2026-04-16T15:04:04.728Z</time></trkpt><trkpt lat="40.288805" lon="8.5028567"><ele>54.0</ele><time>2026-04-16T15:04:05.728Z</time></trkpt><trkpt lat="40.288825" lon="8.5029783"><ele>54.0</ele><time>2026-04-16T15:04:06.729Z</time></trkpt><trkpt lat="40.2888383" lon="8.5030983"><ele>54.00000000000001</ele><time>2026-04-16T15:04:07.728Z</time></trkpt><trkpt lat="40.2888467" lon="8.50323"><ele>54.00000000000001</ele><time>2026-04-16T15:04:08.729Z</time></trkpt><trkpt lat="40.28886" lon="8.5033633"><ele>54.0</ele><time>2026-04-16T15:04:09.728Z</time></trkpt><trkpt lat="40.2888667" lon="8.503505"><ele>54.0</ele><time>2026-04-16T15:04:10.729Z</time></trkpt><trkpt lat="40.2888733" lon="8.5036583"><ele>51.0</ele><time>2026-04-16T15:04:11.729Z</time></trkpt><trkpt lat="40.2888867" lon="8.50384"><ele>48.0</ele><time>2026-04-16T15:04:12.729Z</time></trkpt><trkpt lat="40.2888883" lon="8.5040417"><ele>45.0</ele><time>2026-04-16T15:04:13.729Z</time></trkpt><trkpt lat="40.2888883" lon="8.504255"><ele>45.0</ele><time>2026-04-16T15:04:14.729Z</time></trkpt><trkpt lat="40.2888883" lon="8.5044867"><ele>45.0</ele><time>2026-04-16T15:04:15.728Z</time></trkpt><trkpt lat="40.288885" lon="8.504735"><ele>45.0</ele><time>2026-04-16T15:04:16.728Z</time></trkpt><trkpt lat="40.2888867" lon="8.5049817"><ele>44.666666666666664</ele><time>2026-04-16T15:04:17.728Z</time></trkpt><trkpt lat="40.2888933" lon="8.5052183"><ele>44.33333333333333</ele><time>2026-04-16T15:04:18.729Z</time></trkpt><trkpt lat="40.28889" lon="8.505445"><ele>44.0</ele><time>2026-04-16T15:04:19.728Z</time></trkpt><trkpt lat="40.2888717" lon="8.5056433"><ele>42.5</ele><time>2026-04-16T15:04:20.729Z</time></trkpt><trkpt lat="40.2888633" lon="8.5058217"><ele>41.0</ele><time>2026-04-16T15:04:21.729Z</time></trkpt><trkpt lat="40.2888817" lon="8.50598"><ele>39.5</ele><time>2026-04-16T15:04:22.729Z</time></trkpt><trkpt lat="40.2889367" lon="8.5061067"><ele>38.0</ele><time>2026-04-16T15:04:23.729Z</time></trkpt><trkpt lat="40.2890367" lon="8.506185"><ele>36.0</ele><time>2026-04-16T15:04:24.727Z</time></trkpt><trkpt lat="40.2891533" lon="8.50622"><ele>34.0</ele><time>2026-04-16T15:04:25.728Z</time></trkpt><trkpt lat="40.2892633" lon="8.5061983"><ele>32.0</ele><time>2026-04-16T15:04:26.728Z</time></trkpt><trkpt lat="40.2893717" lon="8.50611"><ele>30.0</ele><time>2026-04-16T15:04:27.727Z</time></trkpt><trkpt lat="40.2894433" lon="8.5059767"><ele>30.0</ele><time>2026-04-16T15:04:28.728Z</time></trkpt><trkpt lat="40.2894817" lon="8.5057983"><ele>30.0</ele><time>2026-04-16T15:04:29.727Z</time></trkpt><trkpt lat="40.2894983" lon="8.5055967"><ele>30.0</ele><time>2026-04-16T15:04:30.728Z</time></trkpt><trkpt lat="40.2895133" lon="8.5053867"><ele>30.0</ele><time>2026-04-16T15:04:31.728Z</time></trkpt><trkpt lat="40.28955" lon="8.5051667"><ele>30.0</ele><time>2026-04-16T15:04:32.728Z</time></trkpt><trkpt lat="40.2896067" lon="8.5049433"><ele>30.0</ele><time>2026-04-16T15:04:33.728Z</time></trkpt><trkpt lat="40.2896817" lon="8.5047133"><ele>24.333333333333332</ele><time>2026-04-16T15:04:34.728Z</time></trkpt><trkpt lat="40.2897733" lon="8.5044767"><ele>18.666666666666664</ele><time>2026-04-16T15:04:35.728Z</time></trkpt><trkpt lat="40.28986" lon="8.50425"><ele>13.0</ele><time>2026-04-16T15:04:36.728Z</time></trkpt><trkpt lat="40.2899383" lon="8.5040367"><ele>13.0</ele><time>2026-04-16T15:04:37.728Z</time></trkpt><trkpt lat="40.2900317" lon="8.5038333"><ele>13.0</ele><time>2026-04-16T15:04:38.728Z</time></trkpt><trkpt lat="40.2901467" lon="8.5036483"><ele>13.0</ele><time>2026-04-16T15:04:39.727Z</time></trkpt><trkpt lat="40.2902833" lon="8.5034983"><ele>13.666666666666666</ele><time>2026-04-16T15:04:40.728Z</time></trkpt><trkpt lat="40.29044" lon="8.503385"><ele>14.333333333333332</ele><time>2026-04-16T15:04:41.728Z</time></trkpt><trkpt lat="40.2906033" lon="8.503315"><ele>15.0</ele><time>2026-04-16T15:04:42.728Z</time></trkpt><trkpt lat="40.29078" lon="8.5032867"><ele>12.0</ele><time>2026-04-16T15:04:43.728Z</time></trkpt><trkpt lat="40.2909667" lon="8.5032917"><ele>9.0</ele><time>2026-04-16T15:04:44.727Z</time></trkpt><trkpt lat="40.2911517" lon="8.5033017"><ele>6.0</ele><time>2026-04-16T15:04:45.728Z</time></trkpt><trkpt lat="40.291325" lon="8.5033083"><ele>5.666666666666667</ele><time>2026-04-16T15:04:46.728Z</time></trkpt><trkpt lat="40.2914833" lon="8.5033233"><ele>5.333333333333334</ele><time>2026-04-16T15:04:47.728Z</time></trkpt><trkpt lat="40.29163" lon="8.5033317"><ele>5.0</ele><time>2026-04-16T15:04:48.728Z</time></trkpt><trkpt lat="40.2917767" lon="8.5033383"><ele>5.0</ele><time>2026-04-16T15:04:49.727Z</time></trkpt><trkpt lat="40.2919133" lon="8.5033483"><ele>5.0</ele><time>2026-04-16T15:04:50.727Z</time></trkpt><trkpt lat="40.2920567" lon="8.5033583"><ele>5.0</ele><time>2026-04-16T15:04:51.728Z</time></trkpt><trkpt lat="40.2922067" lon="8.503365"><ele>5.0</ele><time>2026-04-16T15:04:52.728Z</time></trkpt><trkpt lat="40.2923483" lon="8.5033667"><ele>5.0</ele><time>2026-04-16T15:04:53.728Z</time></trkpt><trkpt lat="40.292485" lon="8.503365"><ele>5.0</ele><time>2026-04-16T15:04:54.728Z</time></trkpt><trkpt lat="40.292625" lon="8.5033867"><ele>5.0</ele><time>2026-04-16T15:04:55.728Z</time></trkpt><trkpt lat="40.2927517" lon="8.5033983"><ele>5.0</ele><time>2026-04-16T15:04:56.728Z</time></trkpt><trkpt lat="40.2928733" lon="8.5034033"><ele>5.0</ele><time>2026-04-16T15:04:57.728Z</time></trkpt><trkpt lat="40.2929867" lon="8.5034117"><ele>5.0</ele><time>2026-04-16T15:04:58.727Z</time></trkpt><trkpt lat="40.2930933" lon="8.50341"><ele>5.0</ele><time>2026-04-16T15:04:59.728Z</time></trkpt><trkpt lat="40.2931717" lon="8.503375"><ele>5.0</ele><time>2026-04-16T15:05:00.728Z</time></trkpt><trkpt lat="40.293225" lon="8.5033183"><ele>5.0</ele><time>2026-04-16T15:05:01.727Z</time></trkpt><trkpt lat="40.293265" lon="8.5032133"><ele>5.0</ele><time>2026-04-16T15:05:02.728Z</time></trkpt><trkpt lat="40.29328" lon="8.5030767"><ele>5.0</ele><time>2026-04-16T15:05:03.728Z</time></trkpt><trkpt lat="40.2932633" lon="8.5029067"><ele>5.0</ele><time>2026-04-16T15:05:04.728Z</time></trkpt><trkpt lat="40.29324" lon="8.5027167"><ele>5.0</ele><time>2026-04-16T15:05:05.728Z</time></trkpt><trkpt lat="40.293215" lon="8.50252"><ele>5.0</ele><time>2026-04-16T15:05:06.727Z</time></trkpt><trkpt lat="40.293195" lon="8.5023033"><ele>5.0</ele><time>2026-04-16T15:05:07.728Z</time></trkpt><trkpt lat="40.2931717" lon="8.502085"><ele>5.0</ele><time>2026-04-16T15:05:08.728Z</time></trkpt><trkpt lat="40.2931433" lon="8.5018667"><ele>5.0</ele><time>2026-04-16T15:05:09.728Z</time></trkpt><trkpt lat="40.2931167" lon="8.5016417"><ele>5.0</ele><time>2026-04-16T15:05:10.727Z</time></trkpt><trkpt lat="40.29309" lon="8.5014067"><ele>5.0</ele><time>2026-04-16T15:05:11.727Z</time></trkpt><trkpt lat="40.29307" lon="8.5011567"><ele>4.666666666666667</ele><time>2026-04-16T15:05:12.728Z</time></trkpt><trkpt lat="40.2930467" lon="8.500925"><ele>4.333333333333333</ele><time>2026-04-16T15:05:13.728Z</time></trkpt><trkpt lat="40.2930283" lon="8.5006817"><ele>4.0</ele><time>2026-04-16T15:05:14.728Z</time></trkpt><trkpt lat="40.2930083" lon="8.500435"><ele>4.0</ele><time>2026-04-16T15:05:15.727Z</time></trkpt><trkpt lat="40.2929883" lon="8.5001867"><ele>4.0</ele><time>2026-04-16T15:05:16.728Z</time></trkpt><trkpt lat="40.2929483" lon="8.4999517"><ele>4.0</ele><time>2026-04-16T15:05:17.728Z</time></trkpt><trkpt lat="40.292915" lon="8.49971"><ele>4.333333333333333</ele><time>2026-04-16T15:05:18.728Z</time></trkpt><trkpt lat="40.292895" lon="8.49946"><ele>4.666666666666667</ele><time>2026-04-16T15:05:19.728Z</time></trkpt><trkpt lat="40.292875" lon="8.4992233"><ele>5.0</ele><time>2026-04-16T15:05:20.727Z</time></trkpt><trkpt lat="40.2928533" lon="8.4989883"><ele>4.666666666666667</ele><time>2026-04-16T15:05:21.727Z</time></trkpt><trkpt lat="40.2928317" lon="8.498745"><ele>4.333333333333333</ele><time>2026-04-16T15:05:22.728Z</time></trkpt><trkpt lat="40.2928067" lon="8.498505"><ele>4.0</ele><time>2026-04-16T15:05:23.728Z</time></trkpt><trkpt lat="40.2927767" lon="8.4982733"><ele>4.0</ele><time>2026-04-16T15:05:24.728Z</time></trkpt><trkpt lat="40.292755" lon="8.4980333"><ele>4.0</ele><time>2026-04-16T15:05:25.727Z</time></trkpt><trkpt lat="40.2927367" lon="8.497795"><ele>4.0</ele><time>2026-04-16T15:05:26.728Z</time></trkpt><trkpt lat="40.29271" lon="8.4975567"><ele>3.6666666666666665</ele><time>2026-04-16T15:05:27.727Z</time></trkpt><trkpt lat="40.2926833" lon="8.497315"><ele>3.333333333333333</ele><time>2026-04-16T15:05:28.728Z</time></trkpt><trkpt lat="40.2926533" lon="8.4970733"><ele>3.0</ele><time>2026-04-16T15:05:29.728Z</time></trkpt><trkpt lat="40.2926233" lon="8.4968383"><ele>3.0</ele><time>2026-04-16T15:05:30.727Z</time></trkpt><trkpt lat="40.292605" lon="8.4966017"><ele>3.0</ele><time>2026-04-16T15:05:31.727Z</time></trkpt><trkpt lat="40.2925817" lon="8.4963667"><ele>3.0</ele><time>2026-04-16T15:05:32.727Z</time></trkpt><trkpt lat="40.2925667" lon="8.49613"><ele>3.0</ele><time>2026-04-16T15:05:33.728Z</time></trkpt><trkpt lat="40.2925467" lon="8.4958917"><ele>3.0</ele><time>2026-04-16T15:05:34.728Z</time></trkpt><trkpt lat="40.2925317" lon="8.4956517"><ele>3.0</ele><time>2026-04-16T15:05:35.728Z</time></trkpt><trkpt lat="40.2925083" lon="8.495415"><ele>4.333333333333334</ele><time>2026-04-16T15:05:36.728Z</time></trkpt><trkpt lat="40.2924833" lon="8.4951817"><ele>5.666666666666667</ele><time>2026-04-16T15:05:37.728Z</time></trkpt><trkpt lat="40.29246" lon="8.4949417"><ele>7.0</ele><time>2026-04-16T15:05:38.728Z</time></trkpt><trkpt lat="40.2924417" lon="8.4947033"><ele>8.0</ele><time>2026-04-16T15:05:39.728Z</time></trkpt><trkpt lat="40.2924267" lon="8.4944583"><ele>9.0</ele><time>2026-04-16T15:05:40.728Z</time></trkpt><trkpt lat="40.2924067" lon="8.4942133"><ele>10.0</ele><time>2026-04-16T15:05:41.728Z</time></trkpt><trkpt lat="40.2923883" lon="8.4939733"><ele>9.0</ele><time>2026-04-16T15:05:42.728Z</time></trkpt><trkpt lat="40.292365" lon="8.493735"><ele>8.0</ele><time>2026-04-16T15:05:43.728Z</time></trkpt><trkpt lat="40.2923333" lon="8.4935"><ele>7.0</ele><time>2026-04-16T15:05:44.728Z</time></trkpt><trkpt lat="40.29229" lon="8.4932767"><ele>11.333333333333334</ele><time>2026-04-16T15:05:45.728Z</time></trkpt><trkpt lat="40.292245" lon="8.4930433"><ele>15.666666666666668</ele><time>2026-04-16T15:05:46.728Z</time></trkpt><trkpt lat="40.29219" lon="8.49281"><ele>20.0</ele><time>2026-04-16T15:05:47.728Z</time></trkpt><trkpt lat="40.292135" lon="8.492585"><ele>20.0</ele><time>2026-04-16T15:05:48.728Z</time></trkpt><trkpt lat="40.29208" lon="8.492355"><ele>20.0</ele><time>2026-04-16T15:05:49.727Z</time></trkpt><trkpt lat="40.292025" lon="8.4921283"><ele>20.0</ele><time>2026-04-16T15:05:50.728Z</time></trkpt><trkpt lat="40.2919717" lon="8.4918983"><ele>20.0</ele><time>2026-04-16T15:05:51.728Z</time></trkpt><trkpt lat="40.2919167" lon="8.4916667"><ele>20.0</ele><time>2026-04-16T15:05:52.728Z</time></trkpt><trkpt lat="40.2918583" lon="8.4914333"><ele>20.0</ele><time>2026-04-16T15:05:53.727Z</time></trkpt><trkpt lat="40.2918117" lon="8.4912017"><ele>16.333333333333336</ele><time>2026-04-16T15:05:54.728Z</time></trkpt><trkpt lat="40.2917783" lon="8.4909667"><ele>12.666666666666668</ele><time>2026-04-16T15:05:55.727Z</time></trkpt><trkpt lat="40.2917533" lon="8.4907233"><ele>9.0</ele><time>2026-04-16T15:05:56.728Z</time></trkpt><trkpt lat="40.2917433" lon="8.4904667"><ele>8.666666666666666</ele><time>2026-04-16T15:05:57.728Z</time></trkpt><trkpt lat="40.2917517" lon="8.4902133"><ele>8.333333333333332</ele><time>2026-04-16T15:05:58.727Z</time></trkpt><trkpt lat="40.2917717" lon="8.4899583"><ele>8.0</ele><time>2026-04-16T15:05:59.727Z</time></trkpt><trkpt lat="40.29179" lon="8.4897267"><ele>7.333333333333333</ele><time>2026-04-16T15:06:00.728Z</time></trkpt><trkpt lat="40.2918133" lon="8.48951"><ele>6.666666666666666</ele><time>2026-04-16T15:06:01.728Z</time></trkpt><trkpt lat="40.2918517" lon="8.4893017"><ele>6.0</ele><time>2026-04-16T15:06:02.728Z</time></trkpt><trkpt lat="40.2918933" lon="8.489095"><ele>6.0</ele><time>2026-04-16T15:06:03.728Z</time></trkpt><trkpt lat="40.2919317" lon="8.4888867"><ele>6.0</ele><time>2026-04-16T15:06:04.728Z</time></trkpt><trkpt lat="40.2919733" lon="8.4886667"><ele>6.0</ele><time>2026-04-16T15:06:05.727Z</time></trkpt><trkpt lat="40.2920083" lon="8.4884517"><ele>5.0</ele><time>2026-04-16T15:06:06.728Z</time></trkpt><trkpt lat="40.2920483" lon="8.4882233"><ele>4.0</ele><time>2026-04-16T15:06:07.727Z</time></trkpt><trkpt lat="40.2920917" lon="8.4879883"><ele>3.0</ele><time>2026-04-16T15:06:08.728Z</time></trkpt><trkpt lat="40.29214" lon="8.4877517"><ele>3.0</ele><time>2026-04-16T15:06:09.727Z</time></trkpt><trkpt lat="40.2922017" lon="8.48751"><ele>3.0</ele><time>2026-04-16T15:06:10.728Z</time></trkpt><trkpt lat="40.292265" lon="8.48726"><ele>3.0</ele><time>2026-04-16T15:06:11.728Z</time></trkpt><trkpt lat="40.2923217" lon="8.487005"><ele>3.333333333333333</ele><time>2026-04-16T15:06:12.728Z</time></trkpt><trkpt lat="40.2923733" lon="8.4867617"><ele>3.6666666666666665</ele><time>2026-04-16T15:06:13.727Z</time></trkpt><trkpt lat="40.292425" lon="8.48651"><ele>4.0</ele><time>2026-04-16T15:06:14.728Z</time></trkpt><trkpt lat="40.2924733" lon="8.486265"><ele>4.0</ele><time>2026-04-16T15:06:15.727Z</time></trkpt><trkpt lat="40.2925333" lon="8.4860233"><ele>4.0</ele><time>2026-04-16T15:06:16.727Z</time></trkpt><trkpt lat="40.292585" lon="8.4857867"><ele>4.0</ele><time>2026-04-16T15:06:17.728Z</time></trkpt><trkpt lat="40.2926367" lon="8.4855583"><ele>3.6666666666666665</ele><time>2026-04-16T15:06:18.727Z</time></trkpt><trkpt lat="40.2926883" lon="8.48534"><ele>3.333333333333333</ele><time>2026-04-16T15:06:19.727Z</time></trkpt><trkpt lat="40.2927333" lon="8.48512"><ele>3.0</ele><time>2026-04-16T15:06:20.727Z</time></trkpt><trkpt lat="40.2927733" lon="8.4849"><ele>3.0</ele><time>2026-04-16T15:06:21.728Z</time></trkpt><trkpt lat="40.29279" lon="8.4846817"><ele>3.0</ele><time>2026-04-16T15:06:22.728Z</time></trkpt><trkpt lat="40.2927867" lon="8.4844767"><ele>3.0</ele><time>2026-04-16T15:06:23.728Z</time></trkpt><trkpt lat="40.292775" lon="8.4842917"><ele>2.8</ele><time>2026-04-16T15:06:24.727Z</time></trkpt><trkpt lat="40.2927667" lon="8.484125"><ele>2.5999999999999996</ele><time>2026-04-16T15:06:25.728Z</time></trkpt><trkpt lat="40.2927783" lon="8.4839817"><ele>2.4000000000000004</ele><time>2026-04-16T15:06:26.728Z</time></trkpt><trkpt lat="40.2928233" lon="8.48385"><ele>2.2</ele><time>2026-04-16T15:06:27.727Z</time></trkpt><trkpt lat="40.2928533" lon="8.4837383"><ele>2.0</ele><time>2026-04-16T15:06:28.728Z</time></trkpt><trkpt lat="40.2928483" lon="8.4836483"><ele>2.0</ele><time>2026-04-16T15:06:29.728Z</time></trkpt><trkpt lat="40.2927717" lon="8.4835433"><ele>2.0</ele><time>2026-04-16T15:06:31.727Z</time></trkpt><trkpt lat="40.2926567" lon="8.4834517"><ele>2.0</ele><time>2026-04-16T15:06:33.728Z</time></trkpt><trkpt lat="40.2925917" lon="8.483365"><ele>2.0</ele><time>2026-04-16T15:06:34.728Z</time></trkpt><trkpt lat="40.2925233" lon="8.483235"><ele>2.0</ele><time>2026-04-16T15:06:35.727Z</time></trkpt><trkpt lat="40.29246" lon="8.48307"><ele>2.0</ele><time>2026-04-16T15:06:36.728Z</time></trkpt><trkpt lat="40.2923967" lon="8.4828833"><ele>2.0</ele><time>2026-04-16T15:06:37.728Z</time></trkpt><trkpt lat="40.2923417" lon="8.4826833"><ele>2.0</ele><time>2026-04-16T15:06:38.728Z</time></trkpt><trkpt lat="40.2922917" lon="8.4824817"><ele>2.0</ele><time>2026-04-16T15:06:39.727Z</time></trkpt><trkpt lat="40.2922367" lon="8.48228"><ele>2.0</ele><time>2026-04-16T15:06:40.728Z</time></trkpt><trkpt lat="40.2921833" lon="8.4821017"><ele>2.25</ele><time>2026-04-16T15:06:41.728Z</time></trkpt><trkpt lat="40.2921433" lon="8.481955"><ele>2.5</ele><time>2026-04-16T15:06:42.727Z</time></trkpt><trkpt lat="40.2921117" lon="8.4818117"><ele>2.75</ele><time>2026-04-16T15:06:43.727Z</time></trkpt><trkpt lat="40.2920867" lon="8.48167"><ele>3.0</ele><time>2026-04-16T15:06:44.727Z</time></trkpt><trkpt lat="40.2920483" lon="8.4815233"><ele>3.0</ele><time>2026-04-16T15:06:45.727Z</time></trkpt><trkpt lat="40.2919967" lon="8.4813633"><ele>3.0</ele><time>2026-04-16T15:06:46.727Z</time></trkpt><trkpt lat="40.2919467" lon="8.4811783"><ele>3.0</ele><time>2026-04-16T15:06:47.727Z</time></trkpt><trkpt lat="40.291895" lon="8.4809683"><ele>3.0</ele><time>2026-04-16T15:06:48.728Z</time></trkpt><trkpt lat="40.291845" lon="8.48075"><ele>3.0</ele><time>2026-04-16T15:06:49.728Z</time></trkpt><trkpt lat="40.2917867" lon="8.4805267"><ele>3.0</ele><time>2026-04-16T15:06:50.727Z</time></trkpt><trkpt lat="40.2917317" lon="8.4803133"><ele>3.0</ele><time>2026-04-16T15:06:51.727Z</time></trkpt><trkpt lat="40.2916883" lon="8.480125"><ele>3.0</ele><time>2026-04-16T15:06:52.728Z</time></trkpt><trkpt lat="40.291645" lon="8.4799583"><ele>3.0</ele><time>2026-04-16T15:06:53.727Z</time></trkpt><trkpt lat="40.2916183" lon="8.4798067"><ele>3.0</ele><time>2026-04-16T15:06:54.728Z</time></trkpt><trkpt lat="40.2915933" lon="8.4796733"><ele>3.0</ele><time>2026-04-16T15:06:55.727Z</time></trkpt><trkpt lat="40.2915567" lon="8.479555"><ele>3.0</ele><time>2026-04-16T15:06:56.727Z</time></trkpt><trkpt lat="40.2915367" lon="8.4794483"><ele>3.0</ele><time>2026-04-16T15:06:57.728Z</time></trkpt><trkpt lat="40.2915167" lon="8.4793667"><ele>3.0</ele><time>2026-04-16T15:06:58.728Z</time></trkpt><trkpt lat="40.2914917" lon="8.4792683"><ele>3.0</ele><time>2026-04-16T15:07:00.728Z</time></trkpt><trkpt lat="40.2914933" lon="8.47918"><ele>3.0</ele><time>2026-04-16T15:07:02.728Z</time></trkpt><trkpt lat="40.2914533" lon="8.47911"><ele>2.9999999999999996</ele><time>2026-04-16T15:08:52.726Z</time></trkpt><trkpt lat="40.29143" lon="8.4790033"><ele>3.0</ele><time>2026-04-16T15:08:55.727Z</time></trkpt><trkpt lat="40.2914083" lon="8.4789033"><ele>3.0</ele><time>2026-04-16T15:08:57.727Z</time></trkpt><trkpt lat="40.2914667" lon="8.47887"><ele>3.0</ele><time>2026-04-16T15:09:01.727Z</time></trkpt><trkpt lat="40.2915333" lon="8.4789233"><ele>3.0</ele><time>2026-04-16T15:09:03.727Z</time></trkpt><trkpt lat="40.2915967" lon="8.4789817"><ele>2.9999999999999996</ele><time>2026-04-16T15:09:05.726Z</time></trkpt><trkpt lat="40.2916383" lon="8.4790483"><ele>3.0</ele><time>2026-04-16T15:09:07.726Z</time></trkpt><trkpt lat="40.2916817" lon="8.47911"><ele>3.0</ele><time>2026-04-16T15:09:10.726Z</time></trkpt><trkpt lat="40.2916867" lon="8.4792083"><ele>3.0</ele><time>2026-04-16T15:55:44.72Z</time></trkpt></trkseg></trk></gpx>